<?xml version='1.0' encoding='UTF-8'?><gpx version="1.1" creator="JPX - https://github.com/jenetics/jpx" xmlns="http://www.topografix.com/GPX/1/1"><trk><trkseg><trkpt lat="43.1623146" lon="12.2813135"><ele>251.00000000000003</ele><time>2026-03-29T07:16:36.81Z</time></trkpt><trkpt lat="43.1623643" lon="12.2814046"><ele>251.0</ele><time>2026-03-29T07:16:38.811Z</time></trkpt><trkpt lat="43.1623466" lon="12.2815496"><ele>251.0</ele><time>2026-03-29T07:16:41.811Z</time></trkpt><trkpt lat="43.1623055" lon="12.2816356"><ele>251.0</ele><time>2026-03-29T07:16:42.811Z</time></trkpt><trkpt lat="43.1622589" lon="12.2817268"><ele>251.00000000000003</ele><time>2026-03-29T07:16:43.811Z</time></trkpt><trkpt lat="43.162209" lon="12.2818407"><ele>251.0</ele><time>2026-03-29T07:16:44.811Z</time></trkpt><trkpt lat="43.1621482" lon="12.2819594"><ele>251.0</ele><time>2026-03-29T07:16:45.811Z</time></trkpt><trkpt lat="43.1620791" lon="12.2820958"><ele>251.00000000000003</ele><time>2026-03-29T07:16:46.81Z</time></trkpt><trkpt lat="43.1620214" lon="12.2822248"><ele>251.00000000000003</ele><time>2026-03-29T07:16:47.81Z</time></trkpt><trkpt lat="43.1619691" lon="12.282328"><ele>251.0</ele><time>2026-03-29T07:16:48.81Z</time></trkpt><trkpt lat="43.1619281" lon="12.2824222"><ele>251.0</ele><time>2026-03-29T07:16:49.811Z</time></trkpt><trkpt lat="43.161884" lon="12.282514"><ele>251.0</ele><time>2026-03-29T07:16:50.811Z</time></trkpt><trkpt lat="43.1617976" lon="12.2826915"><ele>251.0</ele><time>2026-03-29T07:16:52.811Z</time></trkpt><trkpt lat="43.1617174" lon="12.2828434"><ele>251.0</ele><time>2026-03-29T07:16:54.81Z</time></trkpt><trkpt lat="43.1616531" lon="12.2829653"><ele>251.0</ele><time>2026-03-29T07:16:56.811Z</time></trkpt><trkpt lat="43.1616062" lon="12.2830544"><ele>251.00000000000003</ele><time>2026-03-29T07:16:58.811Z</time></trkpt><trkpt lat="43.1615975" lon="12.2829382"><ele>251.0</ele><time>2026-03-29T07:17:01.81Z</time></trkpt><trkpt lat="43.1615703" lon="12.282848"><ele>251.0</ele><time>2026-03-29T07:18:14.81Z</time></trkpt><trkpt lat="43.1616258" lon="12.2827822"><ele>251.0</ele><time>2026-03-29T07:18:19.81Z</time></trkpt><trkpt lat="43.1616952" lon="12.282761"><ele>251.00000000000003</ele><time>2026-03-29T07:20:34.811Z</time></trkpt><trkpt lat="43.1617721" lon="12.2826614"><ele>251.0</ele><time>2026-03-29T07:20:52.811Z</time></trkpt><trkpt lat="43.16185" lon="12.282535"><ele>251.0</ele><time>2026-03-29T07:20:54.811Z</time></trkpt><trkpt lat="43.1618962" lon="12.2824428"><ele>251.00000000000003</ele><time>2026-03-29T07:20:55.811Z</time></trkpt><trkpt lat="43.1619604" lon="12.2823392"><ele>251.00000000000003</ele><time>2026-03-29T07:20:56.811Z</time></trkpt><trkpt lat="43.1620171" lon="12.2822199"><ele>251.0</ele><time>2026-03-29T07:20:57.81Z</time></trkpt><trkpt lat="43.1620892" lon="12.2820795"><ele>251.0</ele><time>2026-03-29T07:20:58.811Z</time></trkpt><trkpt lat="43.162166" lon="12.2819396"><ele>250.8</ele><time>2026-03-29T07:20:59.81Z</time></trkpt><trkpt lat="43.1622263" lon="12.2818215"><ele>250.60000000000002</ele><time>2026-03-29T07:21:00.811Z</time></trkpt><trkpt lat="43.1622907" lon="12.2817056"><ele>250.4</ele><time>2026-03-29T07:21:01.811Z</time></trkpt><trkpt lat="43.162327" lon="12.2816336"><ele>250.2</ele><time>2026-03-29T07:21:02.811Z</time></trkpt><trkpt lat="43.1623606" lon="12.2815468"><ele>250.0</ele><time>2026-03-29T07:21:03.811Z</time></trkpt><trkpt lat="43.1624149" lon="12.2814114"><ele>249.99999999999997</ele><time>2026-03-29T07:21:05.81Z</time></trkpt><trkpt lat="43.162456" lon="12.2812936"><ele>250.0</ele><time>2026-03-29T07:21:07.811Z</time></trkpt><trkpt lat="43.1625091" lon="12.2812111"><ele>250.0</ele><time>2026-03-29T07:21:17.811Z</time></trkpt><trkpt lat="43.1624762" lon="12.2813048"><ele>250.0</ele><time>2026-03-29T07:21:22.811Z</time></trkpt><trkpt lat="43.1624166" lon="12.2813884"><ele>249.99999999999997</ele><time>2026-03-29T07:21:24.811Z</time></trkpt><trkpt lat="43.1623669" lon="12.2814514"><ele>250.0</ele><time>2026-03-29T07:21:30.81Z</time></trkpt><trkpt lat="43.1624204" lon="12.2814055"><ele>250.0</ele><time>2026-03-29T07:23:32.811Z</time></trkpt><trkpt lat="43.1624847" lon="12.2813468"><ele>250.0</ele><time>2026-03-29T07:23:58.81Z</time></trkpt><trkpt lat="43.1625179" lon="12.2812145"><ele>250.0</ele><time>2026-03-29T07:24:01.811Z</time></trkpt><trkpt lat="43.162601" lon="12.281019"><ele>250.0</ele><time>2026-03-29T07:24:03.811Z</time></trkpt><trkpt lat="43.1626937" lon="12.280894"><ele>250.0</ele><time>2026-03-29T07:24:04.81Z</time></trkpt><trkpt lat="43.162775" lon="12.2807541"><ele>250.0</ele><time>2026-03-29T07:24:05.811Z</time></trkpt><trkpt lat="43.162857" lon="12.2806076"><ele>250.0</ele><time>2026-03-29T07:24:06.81Z</time></trkpt><trkpt lat="43.1629306" lon="12.2804547"><ele>250.0</ele><time>2026-03-29T07:24:07.811Z</time></trkpt><trkpt lat="43.1630085" lon="12.2803054"><ele>250.25</ele><time>2026-03-29T07:24:08.81Z</time></trkpt><trkpt lat="43.1630851" lon="12.2801488"><ele>250.5</ele><time>2026-03-29T07:24:09.811Z</time></trkpt><trkpt lat="43.1631764" lon="12.2799904"><ele>250.75</ele><time>2026-03-29T07:24:10.81Z</time></trkpt><trkpt lat="43.16326" lon="12.27983"><ele>251.0</ele><time>2026-03-29T07:24:11.81Z</time></trkpt><trkpt lat="43.1633516" lon="12.2796626"><ele>251.25</ele><time>2026-03-29T07:24:12.81Z</time></trkpt><trkpt lat="43.1634596" lon="12.2795202"><ele>251.5</ele><time>2026-03-29T07:24:13.811Z</time></trkpt><trkpt lat="43.1635763" lon="12.2794035"><ele>251.75</ele><time>2026-03-29T07:24:14.81Z</time></trkpt><trkpt lat="43.1637025" lon="12.2793461"><ele>252.0</ele><time>2026-03-29T07:24:15.811Z</time></trkpt><trkpt lat="43.1638171" lon="12.2793018"><ele>252.0</ele><time>2026-03-29T07:24:16.811Z</time></trkpt><trkpt lat="43.1639284" lon="12.2792508"><ele>252.0</ele><time>2026-03-29T07:24:17.811Z</time></trkpt><trkpt lat="43.1640106" lon="12.2792287"><ele>252.0</ele><time>2026-03-29T07:24:18.811Z</time></trkpt><trkpt lat="43.1641084" lon="12.2791884"><ele>252.0</ele><time>2026-03-29T07:24:19.81Z</time></trkpt><trkpt lat="43.1641648" lon="12.2791281"><ele>252.0</ele><time>2026-03-29T07:24:21.811Z</time></trkpt><trkpt lat="43.1641088" lon="12.2790309"><ele>252.6</ele><time>2026-03-29T07:24:38.811Z</time></trkpt><trkpt lat="43.1640933" lon="12.2788769"><ele>253.2</ele><time>2026-03-29T07:24:40.811Z</time></trkpt><trkpt lat="43.1640899" lon="12.2787739"><ele>253.8</ele><time>2026-03-29T07:24:41.811Z</time></trkpt><trkpt lat="43.1640854" lon="12.2786679"><ele>254.4</ele><time>2026-03-29T07:24:42.811Z</time></trkpt><trkpt lat="43.1640787" lon="12.278533"><ele>255.0</ele><time>2026-03-29T07:24:43.811Z</time></trkpt><trkpt lat="43.1640486" lon="12.2783878"><ele>254.8</ele><time>2026-03-29T07:24:44.811Z</time></trkpt><trkpt lat="43.1640231" lon="12.2782641"><ele>254.6</ele><time>2026-03-29T07:24:45.811Z</time></trkpt><trkpt lat="43.1640041" lon="12.2781254"><ele>254.39999999999998</ele><time>2026-03-29T07:24:46.81Z</time></trkpt><trkpt lat="43.1639798" lon="12.2779994"><ele>254.2</ele><time>2026-03-29T07:24:47.811Z</time></trkpt><trkpt lat="43.1639712" lon="12.2778926"><ele>254.0</ele><time>2026-03-29T07:24:48.811Z</time></trkpt><trkpt lat="43.163974" lon="12.2776602"><ele>255.0</ele><time>2026-03-29T07:24:49.811Z</time></trkpt><trkpt lat="43.1639627" lon="12.2774442"><ele>256.0</ele><time>2026-03-29T07:24:50.81Z</time></trkpt><trkpt lat="43.1639571" lon="12.2772263"><ele>257.0</ele><time>2026-03-29T07:24:51.811Z</time></trkpt><trkpt lat="43.1639675" lon="12.2769996"><ele>257.0</ele><time>2026-03-29T07:24:52.811Z</time></trkpt><trkpt lat="43.1639728" lon="12.2767993"><ele>257.0</ele><time>2026-03-29T07:24:53.811Z</time></trkpt><trkpt lat="43.1639785" lon="12.2766069"><ele>257.0</ele><time>2026-03-29T07:24:54.811Z</time></trkpt><trkpt lat="43.1639874" lon="12.2764166"><ele>257.0</ele><time>2026-03-29T07:24:55.811Z</time></trkpt><trkpt lat="43.1640189" lon="12.2762334"><ele>257.75</ele><time>2026-03-29T07:24:56.811Z</time></trkpt><trkpt lat="43.1640641" lon="12.2760354"><ele>258.5</ele><time>2026-03-29T07:24:57.811Z</time></trkpt><trkpt lat="43.1641469" lon="12.2758872"><ele>259.25</ele><time>2026-03-29T07:24:58.81Z</time></trkpt><trkpt lat="43.1642237" lon="12.2757236"><ele>260.0</ele><time>2026-03-29T07:24:59.811Z</time></trkpt><trkpt lat="43.1642491" lon="12.2755602"><ele>260.0</ele><time>2026-03-29T07:25:00.811Z</time></trkpt><trkpt lat="43.1643081" lon="12.2754002"><ele>260.0</ele><time>2026-03-29T07:25:01.81Z</time></trkpt><trkpt lat="43.1643441" lon="12.2752566"><ele>260.0</ele><time>2026-03-29T07:25:03.811Z</time></trkpt><trkpt lat="43.1643132" lon="12.2753556"><ele>260.0</ele><time>2026-03-29T07:25:06.811Z</time></trkpt><trkpt lat="43.1643011" lon="12.275471"><ele>260.0</ele><time>2026-03-29T07:25:08.81Z</time></trkpt><trkpt lat="43.1643185" lon="12.2755594"><ele>260.0</ele><time>2026-03-29T07:25:11.811Z</time></trkpt><trkpt lat="43.1644096" lon="12.2755922"><ele>260.0</ele><time>2026-03-29T07:25:13.811Z</time></trkpt><trkpt lat="43.1644758" lon="12.2755937"><ele>260.0</ele><time>2026-03-29T07:25:14.81Z</time></trkpt><trkpt lat="43.1645665" lon="12.2755913"><ele>260.0</ele><time>2026-03-29T07:25:15.811Z</time></trkpt><trkpt lat="43.1646743" lon="12.2755894"><ele>260.0</ele><time>2026-03-29T07:25:16.81Z</time></trkpt><trkpt lat="43.1647895" lon="12.2755696"><ele>260.75</ele><time>2026-03-29T07:25:17.811Z</time></trkpt><trkpt lat="43.1649113" lon="12.2755556"><ele>261.5</ele><time>2026-03-29T07:25:18.811Z</time></trkpt><trkpt lat="43.1650309" lon="12.2755448"><ele>262.25</ele><time>2026-03-29T07:25:19.811Z</time></trkpt><trkpt lat="43.165148" lon="12.2755334"><ele>263.0</ele><time>2026-03-29T07:25:20.811Z</time></trkpt><trkpt lat="43.1652393" lon="12.2755244"><ele>263.0</ele><time>2026-03-29T07:25:21.811Z</time></trkpt><trkpt lat="43.1653092" lon="12.2754946"><ele>263.0</ele><time>2026-03-29T07:25:22.811Z</time></trkpt><trkpt lat="43.165371" lon="12.2754478"><ele>263.0</ele><time>2026-03-29T07:25:23.81Z</time></trkpt><trkpt lat="43.1654055" lon="12.275371"><ele>263.0</ele><time>2026-03-29T07:25:24.811Z</time></trkpt><trkpt lat="43.1654334" lon="12.2752868"><ele>263.0</ele><time>2026-03-29T07:25:25.81Z</time></trkpt><trkpt lat="43.1654586" lon="12.2752024"><ele>263.0</ele><time>2026-03-29T07:25:26.811Z</time></trkpt><trkpt lat="43.1654654" lon="12.2750915"><ele>263.0</ele><time>2026-03-29T07:25:27.811Z</time></trkpt><trkpt lat="43.1654966" lon="12.274948"><ele>263.0</ele><time>2026-03-29T07:25:28.81Z</time></trkpt><trkpt lat="43.1655262" lon="12.2748173"><ele>263.0</ele><time>2026-03-29T07:25:29.811Z</time></trkpt><trkpt lat="43.1655419" lon="12.274659"><ele>263.0</ele><time>2026-03-29T07:25:30.811Z</time></trkpt><trkpt lat="43.1655624" lon="12.2745014"><ele>263.0</ele><time>2026-03-29T07:25:31.81Z</time></trkpt><trkpt lat="43.1655871" lon="12.2743397"><ele>263.75</ele><time>2026-03-29T07:25:32.81Z</time></trkpt><trkpt lat="43.1656092" lon="12.2741644"><ele>264.5</ele><time>2026-03-29T07:25:33.811Z</time></trkpt><trkpt lat="43.1656318" lon="12.2739956"><ele>265.25</ele><time>2026-03-29T07:25:34.811Z</time></trkpt><trkpt lat="43.1656541" lon="12.2738293"><ele>266.0</ele><time>2026-03-29T07:25:35.811Z</time></trkpt><trkpt lat="43.1656764" lon="12.2736634"><ele>268.33333333333337</ele><time>2026-03-29T07:25:36.81Z</time></trkpt><trkpt lat="43.1656994" lon="12.2735313"><ele>270.6666666666667</ele><time>2026-03-29T07:25:37.811Z</time></trkpt><trkpt lat="43.1656963" lon="12.2734372"><ele>273.0</ele><time>2026-03-29T07:25:38.81Z</time></trkpt><trkpt lat="43.1657117" lon="12.2733303"><ele>275.3333333333333</ele><time>2026-03-29T07:25:39.811Z</time></trkpt><trkpt lat="43.165734" lon="12.2732039"><ele>277.66666666666663</ele><time>2026-03-29T07:25:40.81Z</time></trkpt><trkpt lat="43.1657638" lon="12.2730751"><ele>280.0</ele><time>2026-03-29T07:25:41.81Z</time></trkpt><trkpt lat="43.1657995" lon="12.2729509"><ele>280.0</ele><time>2026-03-29T07:25:42.811Z</time></trkpt><trkpt lat="43.1658386" lon="12.2728427"><ele>280.0</ele><time>2026-03-29T07:25:43.81Z</time></trkpt><trkpt lat="43.1658762" lon="12.2727379"><ele>280.0</ele><time>2026-03-29T07:25:44.811Z</time></trkpt><trkpt lat="43.1660046" lon="12.2726543"><ele>280.0</ele><time>2026-03-29T07:25:46.81Z</time></trkpt><trkpt lat="43.1660989" lon="12.272667"><ele>280.0</ele><time>2026-03-29T07:25:47.81Z</time></trkpt><trkpt lat="43.1661919" lon="12.2726725"><ele>280.0</ele><time>2026-03-29T07:25:48.811Z</time></trkpt><trkpt lat="43.1662959" lon="12.2726509"><ele>280.0</ele><time>2026-03-29T07:25:49.811Z</time></trkpt><trkpt lat="43.1664003" lon="12.2726018"><ele>280.0</ele><time>2026-03-29T07:25:50.811Z</time></trkpt><trkpt lat="43.1664892" lon="12.2725265"><ele>280.0</ele><time>2026-03-29T07:25:51.811Z</time></trkpt><trkpt lat="43.1665732" lon="12.2724318"><ele>280.0</ele><time>2026-03-29T07:25:52.81Z</time></trkpt><trkpt lat="43.1666507" lon="12.2723479"><ele>281.3333333333333</ele><time>2026-03-29T07:25:53.81Z</time></trkpt><trkpt lat="43.1667231" lon="12.2722718"><ele>282.66666666666663</ele><time>2026-03-29T07:25:54.81Z</time></trkpt><trkpt lat="43.1667836" lon="12.2722022"><ele>284.0</ele><time>2026-03-29T07:25:55.81Z</time></trkpt><trkpt lat="43.1668336" lon="12.2721423"><ele>285.3333333333333</ele><time>2026-03-29T07:25:56.811Z</time></trkpt><trkpt lat="43.1668885" lon="12.2720988"><ele>286.6666666666667</ele><time>2026-03-29T07:25:57.811Z</time></trkpt><trkpt lat="43.1669544" lon="12.2720631"><ele>288.0</ele><time>2026-03-29T07:25:58.811Z</time></trkpt><trkpt lat="43.1670374" lon="12.2720338"><ele>288.0</ele><time>2026-03-29T07:25:59.81Z</time></trkpt><trkpt lat="43.1670965" lon="12.2719727"><ele>288.0</ele><time>2026-03-29T07:26:00.811Z</time></trkpt><trkpt lat="43.1671373" lon="12.2718825"><ele>288.0</ele><time>2026-03-29T07:26:01.81Z</time></trkpt><trkpt lat="43.1671672" lon="12.2717827"><ele>288.0</ele><time>2026-03-29T07:26:02.811Z</time></trkpt><trkpt lat="43.1672312" lon="12.2715447"><ele>288.0</ele><time>2026-03-29T07:26:04.811Z</time></trkpt><trkpt lat="43.1672749" lon="12.271401"><ele>287.0</ele><time>2026-03-29T07:26:05.811Z</time></trkpt><trkpt lat="43.1673208" lon="12.271271"><ele>286.0</ele><time>2026-03-29T07:26:06.811Z</time></trkpt><trkpt lat="43.1673749" lon="12.2711571"><ele>285.0</ele><time>2026-03-29T07:26:07.81Z</time></trkpt><trkpt lat="43.1674278" lon="12.2710483"><ele>284.0</ele><time>2026-03-29T07:26:08.811Z</time></trkpt><trkpt lat="43.1675096" lon="12.2709811"><ele>283.0</ele><time>2026-03-29T07:26:09.81Z</time></trkpt><trkpt lat="43.1675911" lon="12.2709265"><ele>283.8</ele><time>2026-03-29T07:26:10.811Z</time></trkpt><trkpt lat="43.1676561" lon="12.2708184"><ele>284.6</ele><time>2026-03-29T07:26:11.811Z</time></trkpt><trkpt lat="43.1677423" lon="12.2707244"><ele>285.4</ele><time>2026-03-29T07:26:12.81Z</time></trkpt><trkpt lat="43.1678494" lon="12.2706344"><ele>286.2</ele><time>2026-03-29T07:26:13.811Z</time></trkpt><trkpt lat="43.1679306" lon="12.2705514"><ele>287.0</ele><time>2026-03-29T07:26:14.811Z</time></trkpt><trkpt lat="43.1680155" lon="12.2704661"><ele>287.0</ele><time>2026-03-29T07:26:15.811Z</time></trkpt><trkpt lat="43.1680923" lon="12.2703753"><ele>287.0</ele><time>2026-03-29T07:26:16.811Z</time></trkpt><trkpt lat="43.1681618" lon="12.2702915"><ele>287.0</ele><time>2026-03-29T07:26:17.811Z</time></trkpt><trkpt lat="43.1682116" lon="12.2702263"><ele>287.0</ele><time>2026-03-29T07:26:18.81Z</time></trkpt><trkpt lat="43.1683071" lon="12.2700793"><ele>287.0</ele><time>2026-03-29T07:26:20.811Z</time></trkpt><trkpt lat="43.1683697" lon="12.2700049"><ele>289.6</ele><time>2026-03-29T07:26:21.811Z</time></trkpt><trkpt lat="43.1684605" lon="12.2699353"><ele>292.2</ele><time>2026-03-29T07:26:22.81Z</time></trkpt><trkpt lat="43.1685542" lon="12.2698681"><ele>294.8</ele><time>2026-03-29T07:26:23.81Z</time></trkpt><trkpt lat="43.1686361" lon="12.2697994"><ele>297.4</ele><time>2026-03-29T07:26:24.81Z</time></trkpt><trkpt lat="43.1687272" lon="12.2697429"><ele>300.0</ele><time>2026-03-29T07:26:25.811Z</time></trkpt><trkpt lat="43.1688509" lon="12.2696818"><ele>300.25</ele><time>2026-03-29T07:26:26.81Z</time></trkpt><trkpt lat="43.1689835" lon="12.2696144"><ele>300.5</ele><time>2026-03-29T07:26:27.81Z</time></trkpt><trkpt lat="43.1691034" lon="12.2695436"><ele>300.75</ele><time>2026-03-29T07:26:28.811Z</time></trkpt><trkpt lat="43.169215" lon="12.2694969"><ele>301.0</ele><time>2026-03-29T07:26:29.811Z</time></trkpt><trkpt lat="43.1693246" lon="12.2694682"><ele>301.66666666666663</ele><time>2026-03-29T07:26:30.811Z</time></trkpt><trkpt lat="43.1694378" lon="12.2694361"><ele>302.3333333333333</ele><time>2026-03-29T07:26:31.81Z</time></trkpt><trkpt lat="43.1695424" lon="12.2694395"><ele>303.0</ele><time>2026-03-29T07:26:32.81Z</time></trkpt><trkpt lat="43.1695568" lon="12.2693508"><ele>303.6666666666667</ele><time>2026-03-29T07:26:36.811Z</time></trkpt><trkpt lat="43.1696027" lon="12.2692683"><ele>304.33333333333337</ele><time>2026-03-29T07:26:38.81Z</time></trkpt><trkpt lat="43.1696557" lon="12.2691922"><ele>305.0</ele><time>2026-03-29T07:26:39.811Z</time></trkpt><trkpt lat="43.1696948" lon="12.2691134"><ele>305.0</ele><time>2026-03-29T07:26:40.81Z</time></trkpt><trkpt lat="43.169825" lon="12.2690244"><ele>305.0</ele><time>2026-03-29T07:26:41.811Z</time></trkpt><trkpt lat="43.1699222" lon="12.2689428"><ele>305.0</ele><time>2026-03-29T07:26:42.81Z</time></trkpt><trkpt lat="43.1700634" lon="12.2688813"><ele>305.0</ele><time>2026-03-29T07:26:43.811Z</time></trkpt><trkpt lat="43.1701939" lon="12.2688003"><ele>306.33333333333337</ele><time>2026-03-29T07:26:44.81Z</time></trkpt><trkpt lat="43.1703311" lon="12.2687088"><ele>307.6666666666667</ele><time>2026-03-29T07:26:45.81Z</time></trkpt><trkpt lat="43.1704401" lon="12.2686049"><ele>309.0</ele><time>2026-03-29T07:26:46.811Z</time></trkpt><trkpt lat="43.1706004" lon="12.2684641"><ele>311.0</ele><time>2026-03-29T07:26:47.81Z</time></trkpt><trkpt lat="43.170761" lon="12.26832"><ele>313.0</ele><time>2026-03-29T07:26:48.811Z</time></trkpt><trkpt lat="43.1709084" lon="12.2681928"><ele>315.0</ele><time>2026-03-29T07:26:49.811Z</time></trkpt><trkpt lat="43.1710165" lon="12.2680879"><ele>315.6</ele><time>2026-03-29T07:26:50.81Z</time></trkpt><trkpt lat="43.1711423" lon="12.267952"><ele>316.2</ele><time>2026-03-29T07:26:51.811Z</time></trkpt><trkpt lat="43.1712487" lon="12.2678494"><ele>316.8</ele><time>2026-03-29T07:26:52.81Z</time></trkpt><trkpt lat="43.171276" lon="12.2677696"><ele>317.4</ele><time>2026-03-29T07:26:53.811Z</time></trkpt><trkpt lat="43.1712059" lon="12.2678303"><ele>318.0</ele><time>2026-03-29T07:26:55.811Z</time></trkpt><trkpt lat="43.1711678" lon="12.2677033"><ele>318.0</ele><time>2026-03-29T07:27:07.811Z</time></trkpt><trkpt lat="43.1710818" lon="12.2676679"><ele>318.0</ele><time>2026-03-29T07:27:09.811Z</time></trkpt><trkpt lat="43.1709868" lon="12.2676835"><ele>318.0</ele><time>2026-03-29T07:27:11.811Z</time></trkpt><trkpt lat="43.1709075" lon="12.2677463"><ele>318.0</ele><time>2026-03-29T07:27:12.811Z</time></trkpt><trkpt lat="43.1708451" lon="12.267775"><ele>318.0</ele><time>2026-03-29T07:27:13.81Z</time></trkpt><trkpt lat="43.170743" lon="12.2678295"><ele>318.0</ele><time>2026-03-29T07:27:14.811Z</time></trkpt><trkpt lat="43.1706779" lon="12.2678165"><ele>318.0</ele><time>2026-03-29T07:27:15.811Z</time></trkpt><trkpt lat="43.1705727" lon="12.2677949"><ele>318.0</ele><time>2026-03-29T07:27:17.811Z</time></trkpt><trkpt lat="43.1706374" lon="12.2678341"><ele>318.0</ele><time>2026-03-29T07:27:31.811Z</time></trkpt><trkpt lat="43.170752" lon="12.2677824"><ele>318.0</ele><time>2026-03-29T07:27:33.81Z</time></trkpt><trkpt lat="43.1708261" lon="12.2677463"><ele>318.0</ele><time>2026-03-29T07:27:34.81Z</time></trkpt><trkpt lat="43.1709009" lon="12.2677056"><ele>318.0</ele><time>2026-03-29T07:27:35.811Z</time></trkpt><trkpt lat="43.1709763" lon="12.2676892"><ele>318.0</ele><time>2026-03-29T07:27:40.81Z</time></trkpt><trkpt lat="43.171054" lon="12.2676483"><ele>318.0</ele><time>2026-03-29T07:27:44.811Z</time></trkpt><trkpt lat="43.1711422" lon="12.267592"><ele>318.0</ele><time>2026-03-29T07:27:46.811Z</time></trkpt><trkpt lat="43.171204" lon="12.267547"><ele>318.0</ele><time>2026-03-29T07:27:47.811Z</time></trkpt><trkpt lat="43.1713117" lon="12.2674868"><ele>318.0</ele><time>2026-03-29T07:27:48.811Z</time></trkpt><trkpt lat="43.1713838" lon="12.2674545"><ele>318.0</ele><time>2026-03-29T07:27:49.811Z</time></trkpt><trkpt lat="43.1714893" lon="12.2674051"><ele>318.0</ele><time>2026-03-29T07:27:50.811Z</time></trkpt><trkpt lat="43.1715988" lon="12.267352"><ele>318.0</ele><time>2026-03-29T07:27:51.811Z</time></trkpt><trkpt lat="43.171666" lon="12.2673186"><ele>318.0</ele><time>2026-03-29T07:27:52.811Z</time></trkpt><trkpt lat="43.1717685" lon="12.267256"><ele>318.0</ele><time>2026-03-29T07:27:53.81Z</time></trkpt><trkpt lat="43.1718527" lon="12.2671295"><ele>321.0</ele><time>2026-03-29T07:27:55.81Z</time></trkpt><trkpt lat="43.1718936" lon="12.2669983"><ele>324.0</ele><time>2026-03-29T07:27:57.81Z</time></trkpt><trkpt lat="43.1719376" lon="12.2669026"><ele>327.0</ele><time>2026-03-29T07:27:59.81Z</time></trkpt><trkpt lat="43.1719311" lon="12.2668105"><ele>330.0</ele><time>2026-03-29T07:28:05.81Z</time></trkpt><trkpt lat="43.171918" lon="12.2667095"><ele>333.0</ele><time>2026-03-29T07:28:07.81Z</time></trkpt><trkpt lat="43.1719401" lon="12.2665827"><ele>336.0</ele><time>2026-03-29T07:28:09.811Z</time></trkpt><trkpt lat="43.1719566" lon="12.2664977"><ele>340.25</ele><time>2026-03-29T07:28:10.811Z</time></trkpt><trkpt lat="43.1720195" lon="12.2663397"><ele>344.5</ele><time>2026-03-29T07:28:11.811Z</time></trkpt><trkpt lat="43.1721559" lon="12.2662134"><ele>348.75</ele><time>2026-03-29T07:28:12.811Z</time></trkpt><trkpt lat="43.1721999" lon="12.2661075"><ele>353.0</ele><time>2026-03-29T07:28:13.811Z</time></trkpt><trkpt lat="43.1722525" lon="12.2659896"><ele>353.0</ele><time>2026-03-29T07:28:14.811Z</time></trkpt><trkpt lat="43.1723154" lon="12.2658444"><ele>353.0</ele><time>2026-03-29T07:28:15.811Z</time></trkpt><trkpt lat="43.172277" lon="12.2657251"><ele>353.0</ele><time>2026-03-29T07:28:16.811Z</time></trkpt><trkpt lat="43.1722535" lon="12.2656197"><ele>353.0</ele><time>2026-03-29T07:28:17.81Z</time></trkpt><trkpt lat="43.1722818" lon="12.265516"><ele>353.0</ele><time>2026-03-29T07:28:18.811Z</time></trkpt><trkpt lat="43.1722887" lon="12.2653863"><ele>354.5</ele><time>2026-03-29T07:28:19.811Z</time></trkpt><trkpt lat="43.1722987" lon="12.265275"><ele>356.0</ele><time>2026-03-29T07:28:20.811Z</time></trkpt><trkpt lat="43.1723548" lon="12.265174"><ele>357.5</ele><time>2026-03-29T07:28:21.811Z</time></trkpt><trkpt lat="43.1723696" lon="12.2650586"><ele>359.0</ele><time>2026-03-29T07:28:22.811Z</time></trkpt><trkpt lat="43.1723896" lon="12.264946"><ele>360.5</ele><time>2026-03-29T07:28:23.811Z</time></trkpt><trkpt lat="43.1724008" lon="12.2648285"><ele>362.0</ele><time>2026-03-29T07:28:24.811Z</time></trkpt><trkpt lat="43.1724259" lon="12.264729"><ele>365.20000000000005</ele><time>2026-03-29T07:28:25.811Z</time></trkpt><trkpt lat="43.1724696" lon="12.2646108"><ele>368.4</ele><time>2026-03-29T07:28:26.811Z</time></trkpt><trkpt lat="43.1725386" lon="12.264519"><ele>371.6</ele><time>2026-03-29T07:28:27.811Z</time></trkpt><trkpt lat="43.1726124" lon="12.2644202"><ele>374.79999999999995</ele><time>2026-03-29T07:28:28.811Z</time></trkpt><trkpt lat="43.1726694" lon="12.2643372"><ele>378.0</ele><time>2026-03-29T07:28:29.81Z</time></trkpt><trkpt lat="43.1727236" lon="12.2642407"><ele>378.0</ele><time>2026-03-29T07:28:30.811Z</time></trkpt><trkpt lat="43.1727546" lon="12.2641323"><ele>378.0</ele><time>2026-03-29T07:28:31.811Z</time></trkpt><trkpt lat="43.1727858" lon="12.264047"><ele>378.0</ele><time>2026-03-29T07:28:32.81Z</time></trkpt><trkpt lat="43.1728169" lon="12.2639705"><ele>378.0</ele><time>2026-03-29T07:28:33.811Z</time></trkpt><trkpt lat="43.1728889" lon="12.2638581"><ele>378.0</ele><time>2026-03-29T07:28:35.81Z</time></trkpt><trkpt lat="43.1729801" lon="12.2637387"><ele>379.0</ele><time>2026-03-29T07:28:37.811Z</time></trkpt><trkpt lat="43.1730381" lon="12.2636615"><ele>380.0</ele><time>2026-03-29T07:28:38.81Z</time></trkpt><trkpt lat="43.1730883" lon="12.2635797"><ele>381.0</ele><time>2026-03-29T07:28:39.811Z</time></trkpt><trkpt lat="43.1731087" lon="12.2634863"><ele>382.0</ele><time>2026-03-29T07:28:40.81Z</time></trkpt><trkpt lat="43.1732028" lon="12.2633446"><ele>383.0</ele><time>2026-03-29T07:28:42.81Z</time></trkpt><trkpt lat="43.1732846" lon="12.2633074"><ele>383.0</ele><time>2026-03-29T07:28:43.811Z</time></trkpt><trkpt lat="43.1733655" lon="12.2632555"><ele>383.0</ele><time>2026-03-29T07:28:44.811Z</time></trkpt><trkpt lat="43.1734541" lon="12.2631969"><ele>383.0</ele><time>2026-03-29T07:28:45.811Z</time></trkpt><trkpt lat="43.1735288" lon="12.2631304"><ele>383.0</ele><time>2026-03-29T07:28:46.811Z</time></trkpt><trkpt lat="43.1736074" lon="12.2630668"><ele>383.0</ele><time>2026-03-29T07:28:47.81Z</time></trkpt><trkpt lat="43.173687" lon="12.2629984"><ele>387.0</ele><time>2026-03-29T07:28:48.811Z</time></trkpt><trkpt lat="43.1737571" lon="12.2629585"><ele>391.0</ele><time>2026-03-29T07:28:49.81Z</time></trkpt><trkpt lat="43.1738212" lon="12.2628722"><ele>395.0</ele><time>2026-03-29T07:28:51.811Z</time></trkpt><trkpt lat="43.1738713" lon="12.2627696"><ele>399.0</ele><time>2026-03-29T07:28:53.811Z</time></trkpt><trkpt lat="43.1740892" lon="12.2627229"><ele>399.0</ele><time>2026-03-29T07:29:00.811Z</time></trkpt><trkpt lat="43.1741392" lon="12.2627782"><ele>399.0</ele><time>2026-03-29T07:29:03.81Z</time></trkpt><trkpt lat="43.1741941" lon="12.2628489"><ele>399.0</ele><time>2026-03-29T07:29:05.81Z</time></trkpt><trkpt lat="43.17424" lon="12.2629118"><ele>399.0</ele><time>2026-03-29T07:29:07.81Z</time></trkpt><trkpt lat="43.1742851" lon="12.263031"><ele>399.0</ele><time>2026-03-29T07:29:09.811Z</time></trkpt><trkpt lat="43.1742958" lon="12.263151"><ele>399.0</ele><time>2026-03-29T07:29:11.81Z</time></trkpt><trkpt lat="43.1742999" lon="12.2632714"><ele>397.3333333333333</ele><time>2026-03-29T07:29:13.81Z</time></trkpt><trkpt lat="43.1743567" lon="12.2633853"><ele>395.66666666666663</ele><time>2026-03-29T07:29:15.811Z</time></trkpt><trkpt lat="43.1744258" lon="12.2634484"><ele>394.0</ele><time>2026-03-29T07:29:17.81Z</time></trkpt><trkpt lat="43.1745124" lon="12.263421"><ele>392.3333333333333</ele><time>2026-03-29T07:29:19.811Z</time></trkpt><trkpt lat="43.1745647" lon="12.2633278"><ele>390.66666666666663</ele><time>2026-03-29T07:29:21.811Z</time></trkpt><trkpt lat="43.1746333" lon="12.2632564"><ele>389.0</ele><time>2026-03-29T07:29:23.811Z</time></trkpt><trkpt lat="43.1746977" lon="12.2632696"><ele>388.99999999999994</ele><time>2026-03-29T07:29:27.81Z</time></trkpt><trkpt lat="43.174787" lon="12.2631931"><ele>389.0</ele><time>2026-03-29T07:29:29.811Z</time></trkpt><trkpt lat="43.1748233" lon="12.2631101"><ele>389.0</ele><time>2026-03-29T07:29:32.81Z</time></trkpt><trkpt lat="43.1748532" lon="12.263026"><ele>389.0</ele><time>2026-03-29T07:29:34.811Z</time></trkpt><trkpt lat="43.174888" lon="12.2629406"><ele>388.99999999999994</ele><time>2026-03-29T07:29:37.811Z</time></trkpt><trkpt lat="43.1749435" lon="12.2628818"><ele>389.0</ele><time>2026-03-29T07:29:57.811Z</time></trkpt><trkpt lat="43.1750062" lon="12.2628268"><ele>393.3333333333333</ele><time>2026-03-29T07:30:02.811Z</time></trkpt><trkpt lat="43.1750291" lon="12.262745"><ele>397.66666666666663</ele><time>2026-03-29T07:30:11.811Z</time></trkpt><trkpt lat="43.1750554" lon="12.262633"><ele>402.0</ele><time>2026-03-29T07:30:14.811Z</time></trkpt><trkpt lat="43.1750961" lon="12.2625372"><ele>406.33333333333337</ele><time>2026-03-29T07:30:17.811Z</time></trkpt><trkpt lat="43.1751805" lon="12.2625365"><ele>410.6666666666667</ele><time>2026-03-29T07:30:19.811Z</time></trkpt><trkpt lat="43.1752945" lon="12.2625738"><ele>415.0</ele><time>2026-03-29T07:30:21.811Z</time></trkpt><trkpt lat="43.1753886" lon="12.262612"><ele>415.00000000000006</ele><time>2026-03-29T07:30:25.811Z</time></trkpt><trkpt lat="43.1754628" lon="12.2626427"><ele>415.0</ele><time>2026-03-29T07:30:28.822Z</time></trkpt><trkpt lat="43.1755385" lon="12.2626274"><ele>415.0</ele><time>2026-03-29T07:30:31.832Z</time></trkpt><trkpt lat="43.1755576" lon="12.2625383"><ele>415.0</ele><time>2026-03-29T07:30:33.846Z</time></trkpt><trkpt lat="43.1755648" lon="12.2624519"><ele>415.00000000000006</ele><time>2026-03-29T07:30:37.904Z</time></trkpt><trkpt lat="43.1757109" lon="12.2624642"><ele>415.0</ele><time>2026-03-29T07:30:39.866Z</time></trkpt><trkpt lat="43.1757887" lon="12.2624809"><ele>418.33333333333337</ele><time>2026-03-29T07:30:40.479Z</time></trkpt><trkpt lat="43.175901" lon="12.2624617"><ele>421.6666666666667</ele><time>2026-03-29T07:30:41.811Z</time></trkpt><trkpt lat="43.1759672" lon="12.2624212"><ele>425.0</ele><time>2026-03-29T07:30:44.81Z</time></trkpt><trkpt lat="43.1760605" lon="12.2624032"><ele>428.33333333333337</ele><time>2026-03-29T07:31:10.811Z</time></trkpt><trkpt lat="43.1761226" lon="12.2623884"><ele>431.6666666666667</ele><time>2026-03-29T07:31:13.81Z</time></trkpt><trkpt lat="43.1761875" lon="12.2623357"><ele>435.0</ele><time>2026-03-29T07:32:24.81Z</time></trkpt><trkpt lat="43.1762519" lon="12.2622786"><ele>437.8</ele><time>2026-03-29T07:32:25.81Z</time></trkpt><trkpt lat="43.1763429" lon="12.2622318"><ele>440.6</ele><time>2026-03-29T07:32:27.81Z</time></trkpt><trkpt lat="43.1764092" lon="12.2622422"><ele>443.4</ele><time>2026-03-29T07:32:28.81Z</time></trkpt><trkpt lat="43.176516" lon="12.2622641"><ele>446.2</ele><time>2026-03-29T07:32:29.811Z</time></trkpt><trkpt lat="43.1766269" lon="12.2622717"><ele>449.0</ele><time>2026-03-29T07:32:30.811Z</time></trkpt><trkpt lat="43.1767138" lon="12.2622746"><ele>450.16666666666663</ele><time>2026-03-29T07:32:31.81Z</time></trkpt><trkpt lat="43.1767871" lon="12.2622502"><ele>451.3333333333333</ele><time>2026-03-29T07:32:32.811Z</time></trkpt><trkpt lat="43.1768881" lon="12.2622109"><ele>452.5</ele><time>2026-03-29T07:32:34.81Z</time></trkpt><trkpt lat="43.1768996" lon="12.2620841"><ele>453.66666666666663</ele><time>2026-03-29T07:32:36.81Z</time></trkpt><trkpt lat="43.176887" lon="12.2619907"><ele>454.8333333333333</ele><time>2026-03-29T07:32:37.811Z</time></trkpt><trkpt lat="43.1768711" lon="12.2618936"><ele>456.0</ele><time>2026-03-29T07:32:38.811Z</time></trkpt><trkpt lat="43.1768654" lon="12.2617771"><ele>456.0</ele><time>2026-03-29T07:32:39.811Z</time></trkpt><trkpt lat="43.1768479" lon="12.261675"><ele>456.0</ele><time>2026-03-29T07:32:40.811Z</time></trkpt><trkpt lat="43.1768821" lon="12.2615832"><ele>456.0</ele><time>2026-03-29T07:32:42.811Z</time></trkpt><trkpt lat="43.1769544" lon="12.261593"><ele>456.0</ele><time>2026-03-29T07:32:44.81Z</time></trkpt><trkpt lat="43.1770252" lon="12.2616116"><ele>456.0</ele><time>2026-03-29T07:32:45.81Z</time></trkpt><trkpt lat="43.1771172" lon="12.2616618"><ele>456.0</ele><time>2026-03-29T07:32:47.811Z</time></trkpt><trkpt lat="43.177049" lon="12.261631"><ele>456.0</ele><time>2026-03-29T07:32:52.811Z</time></trkpt><trkpt lat="43.1769875" lon="12.2616027"><ele>456.0</ele><time>2026-03-29T07:32:59.81Z</time></trkpt><trkpt lat="43.1770947" lon="12.2616495"><ele>456.0</ele><time>2026-03-29T07:34:02.811Z</time></trkpt><trkpt lat="43.1772334" lon="12.2617122"><ele>456.0</ele><time>2026-03-29T07:34:04.81Z</time></trkpt><trkpt lat="43.1773049" lon="12.2617587"><ele>456.0</ele><time>2026-03-29T07:34:05.81Z</time></trkpt><trkpt lat="43.1774167" lon="12.2618371"><ele>455.0</ele><time>2026-03-29T07:34:06.81Z</time></trkpt><trkpt lat="43.1775159" lon="12.2619385"><ele>454.0</ele><time>2026-03-29T07:34:07.811Z</time></trkpt><trkpt lat="43.1776386" lon="12.2620371"><ele>453.0</ele><time>2026-03-29T07:34:08.811Z</time></trkpt><trkpt lat="43.1777694" lon="12.2621187"><ele>452.0</ele><time>2026-03-29T07:34:09.811Z</time></trkpt><trkpt lat="43.1778878" lon="12.2621957"><ele>452.0</ele><time>2026-03-29T07:34:10.811Z</time></trkpt><trkpt lat="43.178017" lon="12.2622501"><ele>452.0</ele><time>2026-03-29T07:34:11.811Z</time></trkpt><trkpt lat="43.1781663" lon="12.2622753"><ele>452.0</ele><time>2026-03-29T07:34:12.811Z</time></trkpt><trkpt lat="43.1783324" lon="12.2622903"><ele>450.40000000000003</ele><time>2026-03-29T07:34:13.811Z</time></trkpt><trkpt lat="43.1784666" lon="12.2622884"><ele>448.80000000000007</ele><time>2026-03-29T07:34:14.811Z</time></trkpt><trkpt lat="43.1785707" lon="12.2622678"><ele>447.2</ele><time>2026-03-29T07:34:15.811Z</time></trkpt><trkpt lat="43.1786701" lon="12.2622612"><ele>445.6</ele><time>2026-03-29T07:34:16.81Z</time></trkpt><trkpt lat="43.1787601" lon="12.2622821"><ele>444.0</ele><time>2026-03-29T07:34:18.811Z</time></trkpt><trkpt lat="43.1788286" lon="12.2623207"><ele>444.5</ele><time>2026-03-29T07:34:19.811Z</time></trkpt><trkpt lat="43.1789083" lon="12.2623825"><ele>445.0</ele><time>2026-03-29T07:34:20.811Z</time></trkpt><trkpt lat="43.1790631" lon="12.262456"><ele>445.5</ele><time>2026-03-29T07:34:21.811Z</time></trkpt><trkpt lat="43.1791965" lon="12.2625251"><ele>446.0</ele><time>2026-03-29T07:34:22.811Z</time></trkpt><trkpt lat="43.1793492" lon="12.2625847"><ele>446.0</ele><time>2026-03-29T07:34:23.81Z</time></trkpt><trkpt lat="43.1794939" lon="12.2626404"><ele>446.0</ele><time>2026-03-29T07:34:24.811Z</time></trkpt><trkpt lat="43.1796327" lon="12.262708"><ele>446.0</ele><time>2026-03-29T07:34:25.811Z</time></trkpt><trkpt lat="43.1797657" lon="12.2627938"><ele>446.0</ele><time>2026-03-29T07:34:26.811Z</time></trkpt><trkpt lat="43.1798617" lon="12.2629114"><ele>445.75</ele><time>2026-03-29T07:34:27.811Z</time></trkpt><trkpt lat="43.1799612" lon="12.2630534"><ele>445.5</ele><time>2026-03-29T07:34:28.81Z</time></trkpt><trkpt lat="43.1800619" lon="12.2631938"><ele>445.25</ele><time>2026-03-29T07:34:29.81Z</time></trkpt><trkpt lat="43.1801687" lon="12.2633243"><ele>445.0</ele><time>2026-03-29T07:34:30.811Z</time></trkpt><trkpt lat="43.1803791" lon="12.2635174"><ele>445.0</ele><time>2026-03-29T07:34:32.81Z</time></trkpt><trkpt lat="43.1804862" lon="12.2635514"><ele>445.0</ele><time>2026-03-29T07:34:33.81Z</time></trkpt><trkpt lat="43.1805701" lon="12.2635593"><ele>445.0</ele><time>2026-03-29T07:34:34.811Z</time></trkpt><trkpt lat="43.1806916" lon="12.2635895"><ele>445.0</ele><time>2026-03-29T07:34:36.81Z</time></trkpt><trkpt lat="43.1808037" lon="12.2635455"><ele>445.0</ele><time>2026-03-29T07:34:38.81Z</time></trkpt><trkpt lat="43.1808737" lon="12.2635141"><ele>446.4</ele><time>2026-03-29T07:34:39.811Z</time></trkpt><trkpt lat="43.1809405" lon="12.2635145"><ele>447.8</ele><time>2026-03-29T07:34:40.811Z</time></trkpt><trkpt lat="43.1810366" lon="12.2634753"><ele>449.20000000000005</ele><time>2026-03-29T07:34:41.81Z</time></trkpt><trkpt lat="43.1811375" lon="12.2634539"><ele>450.6</ele><time>2026-03-29T07:34:42.81Z</time></trkpt><trkpt lat="43.1813022" lon="12.2634349"><ele>452.0</ele><time>2026-03-29T07:34:43.81Z</time></trkpt><trkpt lat="43.1814076" lon="12.2634092"><ele>448.5</ele><time>2026-03-29T07:34:44.811Z</time></trkpt><trkpt lat="43.1815177" lon="12.2633524"><ele>445.0</ele><time>2026-03-29T07:34:45.811Z</time></trkpt><trkpt lat="43.1816533" lon="12.2633134"><ele>441.5</ele><time>2026-03-29T07:34:46.81Z</time></trkpt><trkpt lat="43.181749" lon="12.2632977"><ele>438.0</ele><time>2026-03-29T07:34:47.81Z</time></trkpt><trkpt lat="43.18185" lon="12.2632711"><ele>438.0</ele><time>2026-03-29T07:34:48.811Z</time></trkpt><trkpt lat="43.1819618" lon="12.2632746"><ele>437.99999999999994</ele><time>2026-03-29T07:34:49.811Z</time></trkpt><trkpt lat="43.1820717" lon="12.2633041"><ele>437.99999999999994</ele><time>2026-03-29T07:34:50.81Z</time></trkpt><trkpt lat="43.1821701" lon="12.263297"><ele>438.0</ele><time>2026-03-29T07:34:51.811Z</time></trkpt><trkpt lat="43.1822626" lon="12.2632926"><ele>438.0</ele><time>2026-03-29T07:34:52.811Z</time></trkpt><trkpt lat="43.1824123" lon="12.2633351"><ele>433.5</ele><time>2026-03-29T07:34:54.811Z</time></trkpt><trkpt lat="43.1824982" lon="12.263339"><ele>429.0</ele><time>2026-03-29T07:34:55.811Z</time></trkpt><trkpt lat="43.182593" lon="12.2633617"><ele>424.5</ele><time>2026-03-29T07:34:56.811Z</time></trkpt><trkpt lat="43.182824" lon="12.2634331"><ele>420.0</ele><time>2026-03-29T07:34:58.811Z</time></trkpt><trkpt lat="43.1829111" lon="12.263477"><ele>420.0</ele><time>2026-03-29T07:34:59.811Z</time></trkpt><trkpt lat="43.1830253" lon="12.2634809"><ele>420.0</ele><time>2026-03-29T07:35:00.81Z</time></trkpt><trkpt lat="43.1831334" lon="12.2635075"><ele>420.0</ele><time>2026-03-29T07:35:01.81Z</time></trkpt><trkpt lat="43.1832215" lon="12.2635377"><ele>420.0</ele><time>2026-03-29T07:35:02.811Z</time></trkpt><trkpt lat="43.1832951" lon="12.2635644"><ele>420.0</ele><time>2026-03-29T07:35:03.811Z</time></trkpt><trkpt lat="43.1833619" lon="12.2635747"><ele>418.1666666666667</ele><time>2026-03-29T07:35:04.811Z</time></trkpt><trkpt lat="43.1834484" lon="12.2634842"><ele>416.33333333333337</ele><time>2026-03-29T07:35:05.811Z</time></trkpt><trkpt lat="43.1834981" lon="12.2633984"><ele>414.5</ele><time>2026-03-29T07:35:06.81Z</time></trkpt><trkpt lat="43.1835343" lon="12.2632926"><ele>412.6666666666667</ele><time>2026-03-29T07:35:07.811Z</time></trkpt><trkpt lat="43.1835988" lon="12.263207"><ele>410.83333333333337</ele><time>2026-03-29T07:35:08.811Z</time></trkpt><trkpt lat="43.1836511" lon="12.2631279"><ele>409.0</ele><time>2026-03-29T07:35:09.81Z</time></trkpt><trkpt lat="43.1837179" lon="12.2630739"><ele>404.4</ele><time>2026-03-29T07:35:10.811Z</time></trkpt><trkpt lat="43.1838303" lon="12.2629847"><ele>399.79999999999995</ele><time>2026-03-29T07:35:12.811Z</time></trkpt><trkpt lat="43.1839288" lon="12.2629586"><ele>395.20000000000005</ele><time>2026-03-29T07:35:13.81Z</time></trkpt><trkpt lat="43.1839991" lon="12.2629407"><ele>390.6</ele><time>2026-03-29T07:35:14.811Z</time></trkpt><trkpt lat="43.1840703" lon="12.2629138"><ele>386.0</ele><time>2026-03-29T07:35:15.811Z</time></trkpt><trkpt lat="43.1841478" lon="12.2628944"><ele>385.99999999999994</ele><time>2026-03-29T07:35:16.81Z</time></trkpt><trkpt lat="43.1842321" lon="12.2628845"><ele>386.0</ele><time>2026-03-29T07:35:17.811Z</time></trkpt><trkpt lat="43.1843147" lon="12.2628942"><ele>386.0</ele><time>2026-03-29T07:35:18.811Z</time></trkpt><trkpt lat="43.1843927" lon="12.2628858"><ele>386.0</ele><time>2026-03-29T07:35:19.81Z</time></trkpt><trkpt lat="43.1844832" lon="12.2628699"><ele>385.99999999999994</ele><time>2026-03-29T07:35:20.81Z</time></trkpt><trkpt lat="43.1845571" lon="12.2628555"><ele>386.0</ele><time>2026-03-29T07:35:21.81Z</time></trkpt><trkpt lat="43.1846265" lon="12.2628193"><ele>386.0</ele><time>2026-03-29T07:35:22.811Z</time></trkpt><trkpt lat="43.1847326" lon="12.2627462"><ele>386.0</ele><time>2026-03-29T07:35:24.811Z</time></trkpt><trkpt lat="43.1847826" lon="12.2626181"><ele>386.0</ele><time>2026-03-29T07:35:26.81Z</time></trkpt><trkpt lat="43.1847814" lon="12.2624868"><ele>386.0</ele><time>2026-03-29T07:35:28.81Z</time></trkpt><trkpt lat="43.184764" lon="12.262391"><ele>386.0</ele><time>2026-03-29T07:35:29.811Z</time></trkpt><trkpt lat="43.184696" lon="12.2623039"><ele>384.28571428571433</ele><time>2026-03-29T07:35:30.811Z</time></trkpt><trkpt lat="43.1846569" lon="12.2622338"><ele>382.57142857142856</ele><time>2026-03-29T07:35:31.81Z</time></trkpt><trkpt lat="43.1846166" lon="12.2621673"><ele>380.8571428571429</ele><time>2026-03-29T07:35:32.81Z</time></trkpt><trkpt lat="43.1845835" lon="12.2620821"><ele>379.14285714285717</ele><time>2026-03-29T07:35:33.811Z</time></trkpt><trkpt lat="43.1845353" lon="12.2620052"><ele>377.42857142857144</ele><time>2026-03-29T07:35:34.811Z</time></trkpt><trkpt lat="43.1844817" lon="12.2619597"><ele>375.7142857142857</ele><time>2026-03-29T07:35:35.811Z</time></trkpt><trkpt lat="43.1844241" lon="12.2618984"><ele>374.0</ele><time>2026-03-29T07:35:36.811Z</time></trkpt><trkpt lat="43.1843595" lon="12.26184"><ele>374.0</ele><time>2026-03-29T07:35:37.811Z</time></trkpt><trkpt lat="43.1843134" lon="12.2617538"><ele>374.0</ele><time>2026-03-29T07:35:38.81Z</time></trkpt><trkpt lat="43.1842202" lon="12.261711"><ele>374.0</ele><time>2026-03-29T07:35:40.81Z</time></trkpt><trkpt lat="43.1841343" lon="12.2617136"><ele>374.0</ele><time>2026-03-29T07:35:42.811Z</time></trkpt><trkpt lat="43.184024" lon="12.2616453"><ele>374.0</ele><time>2026-03-29T07:35:44.81Z</time></trkpt><trkpt lat="43.1840814" lon="12.2615426"><ele>370.2</ele><time>2026-03-29T07:35:45.811Z</time></trkpt><trkpt lat="43.1841081" lon="12.2614217"><ele>366.4</ele><time>2026-03-29T07:35:47.811Z</time></trkpt><trkpt lat="43.1840742" lon="12.2613137"><ele>362.6</ele><time>2026-03-29T07:35:49.81Z</time></trkpt><trkpt lat="43.1839533" lon="12.2613152"><ele>358.8</ele><time>2026-03-29T07:35:51.81Z</time></trkpt><trkpt lat="43.1838596" lon="12.2613851"><ele>355.0</ele><time>2026-03-29T07:35:52.81Z</time></trkpt><trkpt lat="43.1837974" lon="12.2614305"><ele>356.8333333333333</ele><time>2026-03-29T07:35:53.811Z</time></trkpt><trkpt lat="43.1837474" lon="12.2614949"><ele>358.66666666666663</ele><time>2026-03-29T07:35:54.811Z</time></trkpt><trkpt lat="43.1836898" lon="12.2615596"><ele>360.5</ele><time>2026-03-29T07:35:55.811Z</time></trkpt><trkpt lat="43.1836797" lon="12.2616647"><ele>362.3333333333333</ele><time>2026-03-29T07:35:56.81Z</time></trkpt><trkpt lat="43.1836415" lon="12.2617856"><ele>364.1666666666667</ele><time>2026-03-29T07:35:57.811Z</time></trkpt><trkpt lat="43.1835636" lon="12.2618106"><ele>366.0</ele><time>2026-03-29T07:35:59.81Z</time></trkpt><trkpt lat="43.1835124" lon="12.2616844"><ele>366.0</ele><time>2026-03-29T07:36:01.811Z</time></trkpt><trkpt lat="43.1834802" lon="12.2616037"><ele>366.0</ele><time>2026-03-29T07:36:02.81Z</time></trkpt><trkpt lat="43.1834247" lon="12.2615242"><ele>366.0</ele><time>2026-03-29T07:36:03.811Z</time></trkpt><trkpt lat="43.1833244" lon="12.2614499"><ele>366.0</ele><time>2026-03-29T07:36:05.811Z</time></trkpt><trkpt lat="43.1833507" lon="12.2613115"><ele>366.0</ele><time>2026-03-29T07:36:07.81Z</time></trkpt><trkpt lat="43.1833572" lon="12.2611751"><ele>363.0</ele><time>2026-03-29T07:36:09.81Z</time></trkpt><trkpt lat="43.1833575" lon="12.2609975"><ele>360.0</ele><time>2026-03-29T07:36:10.811Z</time></trkpt><trkpt lat="43.1833736" lon="12.260895"><ele>357.0</ele><time>2026-03-29T07:36:11.811Z</time></trkpt><trkpt lat="43.1833863" lon="12.2607691"><ele>354.0</ele><time>2026-03-29T07:36:12.811Z</time></trkpt><trkpt lat="43.1833861" lon="12.2606297"><ele>351.0</ele><time>2026-03-29T07:36:13.81Z</time></trkpt><trkpt lat="43.1833916" lon="12.2605025"><ele>349.1666666666667</ele><time>2026-03-29T07:36:14.811Z</time></trkpt><trkpt lat="43.183391" lon="12.2603762"><ele>347.3333333333333</ele><time>2026-03-29T07:36:15.81Z</time></trkpt><trkpt lat="43.1834064" lon="12.2602853"><ele>345.5</ele><time>2026-03-29T07:36:16.81Z</time></trkpt><trkpt lat="43.1833983" lon="12.2601482"><ele>343.66666666666663</ele><time>2026-03-29T07:36:18.81Z</time></trkpt><trkpt lat="43.1834001" lon="12.2600596"><ele>341.8333333333333</ele><time>2026-03-29T07:36:19.81Z</time></trkpt><trkpt lat="43.1834232" lon="12.2599366"><ele>340.0</ele><time>2026-03-29T07:36:20.811Z</time></trkpt><trkpt lat="43.1834326" lon="12.2598338"><ele>337.8333333333333</ele><time>2026-03-29T07:36:21.811Z</time></trkpt><trkpt lat="43.1834306" lon="12.2597081"><ele>335.66666666666663</ele><time>2026-03-29T07:36:22.811Z</time></trkpt><trkpt lat="43.1834644" lon="12.2596023"><ele>333.5</ele><time>2026-03-29T07:36:23.811Z</time></trkpt><trkpt lat="43.183484" lon="12.2594903"><ele>331.3333333333333</ele><time>2026-03-29T07:36:24.811Z</time></trkpt><trkpt lat="43.1834565" lon="12.2593885"><ele>329.1666666666667</ele><time>2026-03-29T07:36:25.81Z</time></trkpt><trkpt lat="43.1833888" lon="12.2593064"><ele>327.0</ele><time>2026-03-29T07:36:26.811Z</time></trkpt><trkpt lat="43.1834283" lon="12.2591815"><ele>327.0</ele><time>2026-03-29T07:36:27.811Z</time></trkpt><trkpt lat="43.1834073" lon="12.2590618"><ele>327.0</ele><time>2026-03-29T07:36:28.811Z</time></trkpt><trkpt lat="43.1833578" lon="12.2589371"><ele>327.0</ele><time>2026-03-29T07:36:29.811Z</time></trkpt><trkpt lat="43.1832191" lon="12.2586823"><ele>327.0</ele><time>2026-03-29T07:36:31.811Z</time></trkpt><trkpt lat="43.1831501" lon="12.2585306"><ele>327.20000000000005</ele><time>2026-03-29T07:36:32.81Z</time></trkpt><trkpt lat="43.183095" lon="12.2583881"><ele>327.4</ele><time>2026-03-29T07:36:33.811Z</time></trkpt><trkpt lat="43.183041" lon="12.2582886"><ele>327.6</ele><time>2026-03-29T07:36:34.811Z</time></trkpt><trkpt lat="43.1829981" lon="12.2581753"><ele>327.79999999999995</ele><time>2026-03-29T07:36:36.811Z</time></trkpt><trkpt lat="43.1829774" lon="12.2580697"><ele>328.0</ele><time>2026-03-29T07:36:44.811Z</time></trkpt><trkpt lat="43.1830068" lon="12.2579744"><ele>327.79999999999995</ele><time>2026-03-29T07:36:46.811Z</time></trkpt><trkpt lat="43.1830465" lon="12.257861"><ele>327.6</ele><time>2026-03-29T07:36:48.811Z</time></trkpt><trkpt lat="43.1831761" lon="12.257806"><ele>327.4</ele><time>2026-03-29T07:36:50.811Z</time></trkpt><trkpt lat="43.1832516" lon="12.2578587"><ele>327.20000000000005</ele><time>2026-03-29T07:36:51.811Z</time></trkpt><trkpt lat="43.1833389" lon="12.2579376"><ele>327.0</ele><time>2026-03-29T07:36:52.811Z</time></trkpt><trkpt lat="43.183434" lon="12.2580226"><ele>325.25</ele><time>2026-03-29T07:36:53.811Z</time></trkpt><trkpt lat="43.1835401" lon="12.2581711"><ele>323.5</ele><time>2026-03-29T07:36:54.811Z</time></trkpt><trkpt lat="43.1836493" lon="12.2583042"><ele>321.75</ele><time>2026-03-29T07:36:55.81Z</time></trkpt><trkpt lat="43.1837382" lon="12.2584357"><ele>320.0</ele><time>2026-03-29T07:36:56.81Z</time></trkpt><trkpt lat="43.1838388" lon="12.2585291"><ele>320.0</ele><time>2026-03-29T07:36:57.811Z</time></trkpt><trkpt lat="43.183935" lon="12.258596"><ele>320.0</ele><time>2026-03-29T07:36:58.811Z</time></trkpt><trkpt lat="43.1840259" lon="12.258651"><ele>320.0</ele><time>2026-03-29T07:36:59.811Z</time></trkpt><trkpt lat="43.1841566" lon="12.2586454"><ele>320.0</ele><time>2026-03-29T07:37:00.811Z</time></trkpt><trkpt lat="43.184309" lon="12.2586391"><ele>323.5</ele><time>2026-03-29T07:37:01.81Z</time></trkpt><trkpt lat="43.1844136" lon="12.2587031"><ele>327.0</ele><time>2026-03-29T07:37:02.81Z</time></trkpt><trkpt lat="43.184508" lon="12.2587788"><ele>330.5</ele><time>2026-03-29T07:37:03.811Z</time></trkpt><trkpt lat="43.18463" lon="12.2588319"><ele>334.0</ele><time>2026-03-29T07:37:04.811Z</time></trkpt><trkpt lat="43.1846854" lon="12.2589437"><ele>334.0</ele><time>2026-03-29T07:37:05.811Z</time></trkpt><trkpt lat="43.1847555" lon="12.2590293"><ele>334.0</ele><time>2026-03-29T07:37:06.81Z</time></trkpt><trkpt lat="43.1848059" lon="12.2590982"><ele>334.0</ele><time>2026-03-29T07:37:07.811Z</time></trkpt><trkpt lat="43.1848886" lon="12.2591821"><ele>334.0</ele><time>2026-03-29T07:37:09.811Z</time></trkpt><trkpt lat="43.1850253" lon="12.2592405"><ele>334.0</ele><time>2026-03-29T07:37:12.811Z</time></trkpt><trkpt lat="43.1851056" lon="12.2593035"><ele>334.0</ele><time>2026-03-29T07:37:13.81Z</time></trkpt><trkpt lat="43.1851901" lon="12.2593559"><ele>334.0</ele><time>2026-03-29T07:37:14.811Z</time></trkpt><trkpt lat="43.185287" lon="12.259399"><ele>334.0</ele><time>2026-03-29T07:37:15.81Z</time></trkpt><trkpt lat="43.1853886" lon="12.2593935"><ele>334.0</ele><time>2026-03-29T07:37:16.81Z</time></trkpt><trkpt lat="43.1854884" lon="12.2593882"><ele>334.0</ele><time>2026-03-29T07:37:17.81Z</time></trkpt><trkpt lat="43.1855932" lon="12.2593644"><ele>336.66666666666663</ele><time>2026-03-29T07:37:18.811Z</time></trkpt><trkpt lat="43.1856815" lon="12.2593524"><ele>339.3333333333333</ele><time>2026-03-29T07:37:19.811Z</time></trkpt><trkpt lat="43.1857474" lon="12.259382"><ele>342.0</ele><time>2026-03-29T07:37:20.811Z</time></trkpt><trkpt lat="43.1858205" lon="12.2594168"><ele>344.6666666666667</ele><time>2026-03-29T07:37:21.81Z</time></trkpt><trkpt lat="43.1859201" lon="12.2594717"><ele>347.33333333333337</ele><time>2026-03-29T07:37:22.811Z</time></trkpt><trkpt lat="43.1860109" lon="12.2595202"><ele>350.0</ele><time>2026-03-29T07:37:23.811Z</time></trkpt><trkpt lat="43.186066" lon="12.2596034"><ele>350.0</ele><time>2026-03-29T07:37:24.811Z</time></trkpt><trkpt lat="43.1861386" lon="12.2596785"><ele>350.0</ele><time>2026-03-29T07:37:25.81Z</time></trkpt><trkpt lat="43.1862206" lon="12.2597316"><ele>350.0</ele><time>2026-03-29T07:37:26.811Z</time></trkpt><trkpt lat="43.1863103" lon="12.259776"><ele>350.0</ele><time>2026-03-29T07:37:27.811Z</time></trkpt><trkpt lat="43.186399" lon="12.2598038"><ele>350.0</ele><time>2026-03-29T07:37:28.81Z</time></trkpt><trkpt lat="43.1865081" lon="12.2598239"><ele>353.0</ele><time>2026-03-29T07:37:29.811Z</time></trkpt><trkpt lat="43.1866151" lon="12.2598229"><ele>356.0</ele><time>2026-03-29T07:37:30.811Z</time></trkpt><trkpt lat="43.1867116" lon="12.2598087"><ele>359.0</ele><time>2026-03-29T07:37:31.811Z</time></trkpt><trkpt lat="43.1867948" lon="12.2597934"><ele>362.0</ele><time>2026-03-29T07:37:32.811Z</time></trkpt><trkpt lat="43.1868852" lon="12.2597534"><ele>365.0</ele><time>2026-03-29T07:37:33.811Z</time></trkpt><trkpt lat="43.1869783" lon="12.2597323"><ele>360.6</ele><time>2026-03-29T07:37:34.81Z</time></trkpt><trkpt lat="43.187084" lon="12.2598006"><ele>356.2</ele><time>2026-03-29T07:37:35.81Z</time></trkpt><trkpt lat="43.18721" lon="12.2598158"><ele>351.79999999999995</ele><time>2026-03-29T07:37:36.811Z</time></trkpt><trkpt lat="43.1872985" lon="12.2598529"><ele>347.4</ele><time>2026-03-29T07:37:37.81Z</time></trkpt><trkpt lat="43.1873899" lon="12.2598834"><ele>343.0</ele><time>2026-03-29T07:37:38.811Z</time></trkpt><trkpt lat="43.1874999" lon="12.2599121"><ele>343.0</ele><time>2026-03-29T07:37:40.811Z</time></trkpt><trkpt lat="43.1875627" lon="12.2600109"><ele>343.0</ele><time>2026-03-29T07:37:42.811Z</time></trkpt><trkpt lat="43.1876667" lon="12.2600601"><ele>343.0</ele><time>2026-03-29T07:37:44.811Z</time></trkpt><trkpt lat="43.1877428" lon="12.2600485"><ele>343.0</ele><time>2026-03-29T07:37:45.811Z</time></trkpt><trkpt lat="43.1878495" lon="12.2601287"><ele>343.0</ele><time>2026-03-29T07:37:47.811Z</time></trkpt><trkpt lat="43.1879662" lon="12.2601222"><ele>343.0</ele><time>2026-03-29T07:37:49.811Z</time></trkpt><trkpt lat="43.1880856" lon="12.2601025"><ele>343.0</ele><time>2026-03-29T07:37:51.81Z</time></trkpt><trkpt lat="43.188171" lon="12.26008"><ele>343.0</ele><time>2026-03-29T07:37:52.81Z</time></trkpt><trkpt lat="43.1883011" lon="12.2600847"><ele>343.0</ele><time>2026-03-29T07:37:54.81Z</time></trkpt><trkpt lat="43.1883795" lon="12.2601144"><ele>343.0</ele><time>2026-03-29T07:37:55.81Z</time></trkpt><trkpt lat="43.1884445" lon="12.2601446"><ele>344.79999999999995</ele><time>2026-03-29T07:37:56.811Z</time></trkpt><trkpt lat="43.1885196" lon="12.2602095"><ele>346.6</ele><time>2026-03-29T07:37:57.81Z</time></trkpt><trkpt lat="43.1886452" lon="12.2602632"><ele>348.4</ele><time>2026-03-29T07:37:59.81Z</time></trkpt><trkpt lat="43.1887156" lon="12.2602722"><ele>350.20000000000005</ele><time>2026-03-29T07:38:00.811Z</time></trkpt><trkpt lat="43.1887979" lon="12.2602906"><ele>352.0</ele><time>2026-03-29T07:38:01.811Z</time></trkpt><trkpt lat="43.1888731" lon="12.260313"><ele>352.0</ele><time>2026-03-29T07:38:02.81Z</time></trkpt><trkpt lat="43.188958" lon="12.2603317"><ele>352.0</ele><time>2026-03-29T07:38:03.811Z</time></trkpt><trkpt lat="43.1890338" lon="12.2603527"><ele>352.0</ele><time>2026-03-29T07:38:04.811Z</time></trkpt><trkpt lat="43.1891111" lon="12.2603698"><ele>352.0</ele><time>2026-03-29T07:38:05.811Z</time></trkpt><trkpt lat="43.1891896" lon="12.2603849"><ele>352.0</ele><time>2026-03-29T07:38:06.81Z</time></trkpt><trkpt lat="43.1892765" lon="12.2604289"><ele>352.0</ele><time>2026-03-29T07:38:08.81Z</time></trkpt><trkpt lat="43.1893522" lon="12.2603774"><ele>352.8333333333333</ele><time>2026-03-29T07:38:10.811Z</time></trkpt><trkpt lat="43.1894156" lon="12.260304"><ele>353.66666666666663</ele><time>2026-03-29T07:38:11.811Z</time></trkpt><trkpt lat="43.1895058" lon="12.2602588"><ele>354.5</ele><time>2026-03-29T07:38:13.81Z</time></trkpt><trkpt lat="43.1895706" lon="12.2602389"><ele>355.3333333333333</ele><time>2026-03-29T07:38:14.811Z</time></trkpt><trkpt lat="43.1896568" lon="12.2602932"><ele>356.1666666666667</ele><time>2026-03-29T07:38:16.81Z</time></trkpt><trkpt lat="43.1897205" lon="12.2603009"><ele>357.0</ele><time>2026-03-29T07:38:17.81Z</time></trkpt><trkpt lat="43.1898112" lon="12.2603011"><ele>359.0</ele><time>2026-03-29T07:38:18.81Z</time></trkpt><trkpt lat="43.1899288" lon="12.2603647"><ele>361.0</ele><time>2026-03-29T07:38:20.81Z</time></trkpt><trkpt lat="43.1900313" lon="12.2604844"><ele>363.0</ele><time>2026-03-29T07:38:22.81Z</time></trkpt><trkpt lat="43.1900786" lon="12.2605484"><ele>365.0</ele><time>2026-03-29T07:38:23.81Z</time></trkpt><trkpt lat="43.1901389" lon="12.2605914"><ele>367.0</ele><time>2026-03-29T07:38:24.81Z</time></trkpt><trkpt lat="43.1902009" lon="12.260607"><ele>367.0</ele><time>2026-03-29T07:38:25.811Z</time></trkpt><trkpt lat="43.1902665" lon="12.2606006"><ele>367.0</ele><time>2026-03-29T07:38:26.811Z</time></trkpt><trkpt lat="43.1903431" lon="12.2605817"><ele>367.0</ele><time>2026-03-29T07:38:27.81Z</time></trkpt><trkpt lat="43.1904176" lon="12.260608"><ele>367.0</ele><time>2026-03-29T07:38:28.81Z</time></trkpt><trkpt lat="43.1904976" lon="12.2606209"><ele>367.0</ele><time>2026-03-29T07:38:29.81Z</time></trkpt><trkpt lat="43.1905836" lon="12.2606513"><ele>367.0</ele><time>2026-03-29T07:38:30.811Z</time></trkpt><trkpt lat="43.190656" lon="12.2606669"><ele>365.16666666666663</ele><time>2026-03-29T07:38:31.811Z</time></trkpt><trkpt lat="43.1907096" lon="12.2607155"><ele>363.3333333333333</ele><time>2026-03-29T07:38:32.81Z</time></trkpt><trkpt lat="43.1908065" lon="12.260769"><ele>361.5</ele><time>2026-03-29T07:38:34.81Z</time></trkpt><trkpt lat="43.1908713" lon="12.260786"><ele>359.6666666666667</ele><time>2026-03-29T07:38:35.811Z</time></trkpt><trkpt lat="43.1909369" lon="12.260831"><ele>357.83333333333337</ele><time>2026-03-29T07:38:36.81Z</time></trkpt><trkpt lat="43.1910669" lon="12.260875"><ele>356.0</ele><time>2026-03-29T07:38:38.811Z</time></trkpt><trkpt lat="43.1911382" lon="12.2608824"><ele>356.0</ele><time>2026-03-29T07:38:39.811Z</time></trkpt><trkpt lat="43.1912164" lon="12.2608989"><ele>356.0</ele><time>2026-03-29T07:38:40.811Z</time></trkpt><trkpt lat="43.1912962" lon="12.2609429"><ele>356.0</ele><time>2026-03-29T07:38:41.81Z</time></trkpt><trkpt lat="43.191371" lon="12.2609703"><ele>356.0</ele><time>2026-03-29T07:38:42.81Z</time></trkpt><trkpt lat="43.1914362" lon="12.2609699"><ele>356.0</ele><time>2026-03-29T07:38:43.81Z</time></trkpt><trkpt lat="43.1915081" lon="12.2609511"><ele>356.0</ele><time>2026-03-29T07:38:44.81Z</time></trkpt><trkpt lat="43.1916255" lon="12.2608712"><ele>356.4</ele><time>2026-03-29T07:38:45.811Z</time></trkpt><trkpt lat="43.1917112" lon="12.2608545"><ele>356.8</ele><time>2026-03-29T07:38:46.81Z</time></trkpt><trkpt lat="43.191793" lon="12.2608361"><ele>357.2</ele><time>2026-03-29T07:38:47.81Z</time></trkpt><trkpt lat="43.1919246" lon="12.2607379"><ele>357.59999999999997</ele><time>2026-03-29T07:38:48.811Z</time></trkpt><trkpt lat="43.1919906" lon="12.260741"><ele>358.0</ele><time>2026-03-29T07:38:49.811Z</time></trkpt><trkpt lat="43.1921038" lon="12.2607393"><ele>358.00000000000006</ele><time>2026-03-29T07:38:52.811Z</time></trkpt><trkpt lat="43.1921676" lon="12.2607372"><ele>358.0</ele><time>2026-03-29T07:38:53.81Z</time></trkpt><trkpt lat="43.192232" lon="12.2607207"><ele>358.0</ele><time>2026-03-29T07:38:54.811Z</time></trkpt><trkpt lat="43.1922998" lon="12.2606956"><ele>358.0</ele><time>2026-03-29T07:38:55.811Z</time></trkpt><trkpt lat="43.1923629" lon="12.2606864"><ele>358.0</ele><time>2026-03-29T07:38:56.811Z</time></trkpt><trkpt lat="43.1924306" lon="12.2606721"><ele>358.00000000000006</ele><time>2026-03-29T07:38:57.811Z</time></trkpt><trkpt lat="43.1925166" lon="12.2606313"><ele>358.0</ele><time>2026-03-29T07:38:58.811Z</time></trkpt><trkpt lat="43.1926008" lon="12.2605716"><ele>362.16666666666663</ele><time>2026-03-29T07:38:59.81Z</time></trkpt><trkpt lat="43.1926823" lon="12.260536"><ele>366.3333333333333</ele><time>2026-03-29T07:39:00.811Z</time></trkpt><trkpt lat="43.1927636" lon="12.2605217"><ele>370.5</ele><time>2026-03-29T07:39:01.811Z</time></trkpt><trkpt lat="43.1928419" lon="12.2605235"><ele>374.6666666666667</ele><time>2026-03-29T07:39:02.81Z</time></trkpt><trkpt lat="43.1929209" lon="12.2605384"><ele>378.83333333333337</ele><time>2026-03-29T07:39:03.811Z</time></trkpt><trkpt lat="43.1930033" lon="12.2605353"><ele>383.0</ele><time>2026-03-29T07:39:04.811Z</time></trkpt><trkpt lat="43.1930787" lon="12.2605492"><ele>383.0</ele><time>2026-03-29T07:39:05.811Z</time></trkpt><trkpt lat="43.1931626" lon="12.2605644"><ele>383.0</ele><time>2026-03-29T07:39:06.81Z</time></trkpt><trkpt lat="43.1932798" lon="12.260584"><ele>383.0</ele><time>2026-03-29T07:39:08.811Z</time></trkpt><trkpt lat="43.1933723" lon="12.2605164"><ele>383.0</ele><time>2026-03-29T07:39:10.81Z</time></trkpt><trkpt lat="43.1934499" lon="12.260388"><ele>383.0</ele><time>2026-03-29T07:39:12.81Z</time></trkpt><trkpt lat="43.1935471" lon="12.2602834"><ele>382.0</ele><time>2026-03-29T07:39:14.81Z</time></trkpt><trkpt lat="43.1935876" lon="12.2601984"><ele>381.0</ele><time>2026-03-29T07:39:16.81Z</time></trkpt><trkpt lat="43.1936589" lon="12.2601919"><ele>380.0</ele><time>2026-03-29T07:39:18.811Z</time></trkpt><trkpt lat="43.1937426" lon="12.2602474"><ele>379.0</ele><time>2026-03-29T07:39:20.811Z</time></trkpt><trkpt lat="43.1938562" lon="12.2602829"><ele>378.0</ele><time>2026-03-29T07:39:22.811Z</time></trkpt><trkpt lat="43.1939394" lon="12.2602983"><ele>377.0</ele><time>2026-03-29T07:39:23.811Z</time></trkpt><trkpt lat="43.19401" lon="12.2602947"><ele>376.6666666666667</ele><time>2026-03-29T07:39:24.81Z</time></trkpt><trkpt lat="43.194092" lon="12.2602712"><ele>376.33333333333337</ele><time>2026-03-29T07:39:25.81Z</time></trkpt><trkpt lat="43.1941688" lon="12.2602268"><ele>376.0</ele><time>2026-03-29T07:39:26.811Z</time></trkpt><trkpt lat="43.1942663" lon="12.2602016"><ele>375.6666666666667</ele><time>2026-03-29T07:39:27.811Z</time></trkpt><trkpt lat="43.1943426" lon="12.26017"><ele>375.3333333333333</ele><time>2026-03-29T07:39:28.811Z</time></trkpt><trkpt lat="43.1944287" lon="12.2601306"><ele>375.0</ele><time>2026-03-29T07:39:29.81Z</time></trkpt><trkpt lat="43.19451" lon="12.2601058"><ele>375.0</ele><time>2026-03-29T07:39:30.811Z</time></trkpt><trkpt lat="43.1945975" lon="12.2600915"><ele>375.0</ele><time>2026-03-29T07:39:31.811Z</time></trkpt><trkpt lat="43.1947116" lon="12.2600742"><ele>375.0</ele><time>2026-03-29T07:39:33.811Z</time></trkpt><trkpt lat="43.194783" lon="12.2600634"><ele>375.0</ele><time>2026-03-29T07:39:34.81Z</time></trkpt><trkpt lat="43.194889" lon="12.2600648"><ele>375.0</ele><time>2026-03-29T07:39:35.811Z</time></trkpt><trkpt lat="43.1949912" lon="12.2600434"><ele>376.0</ele><time>2026-03-29T07:39:36.81Z</time></trkpt><trkpt lat="43.1951171" lon="12.2600835"><ele>377.0</ele><time>2026-03-29T07:39:38.811Z</time></trkpt><trkpt lat="43.1952132" lon="12.2601789"><ele>378.0</ele><time>2026-03-29T07:39:40.811Z</time></trkpt><trkpt lat="43.1952847" lon="12.260228"><ele>379.0</ele><time>2026-03-29T07:39:41.811Z</time></trkpt><trkpt lat="43.1953672" lon="12.2603088"><ele>380.0</ele><time>2026-03-29T07:39:42.811Z</time></trkpt><trkpt lat="43.1954238" lon="12.2603533"><ele>380.0</ele><time>2026-03-29T07:39:43.811Z</time></trkpt><trkpt lat="43.1955366" lon="12.2603544"><ele>380.0</ele><time>2026-03-29T07:39:45.811Z</time></trkpt><trkpt lat="43.1956145" lon="12.2603241"><ele>380.0</ele><time>2026-03-29T07:39:46.81Z</time></trkpt><trkpt lat="43.1956892" lon="12.2603021"><ele>380.0</ele><time>2026-03-29T07:39:47.811Z</time></trkpt><trkpt lat="43.1957753" lon="12.2602469"><ele>380.0</ele><time>2026-03-29T07:39:48.81Z</time></trkpt><trkpt lat="43.195839" lon="12.2601847"><ele>380.0</ele><time>2026-03-29T07:39:49.811Z</time></trkpt><trkpt lat="43.1959098" lon="12.2600728"><ele>380.33333333333337</ele><time>2026-03-29T07:39:51.811Z</time></trkpt><trkpt lat="43.1959603" lon="12.260021"><ele>380.6666666666667</ele><time>2026-03-29T07:39:52.811Z</time></trkpt><trkpt lat="43.1960506" lon="12.2600219"><ele>381.0</ele><time>2026-03-29T07:39:54.811Z</time></trkpt><trkpt lat="43.1961379" lon="12.2599842"><ele>381.3333333333333</ele><time>2026-03-29T07:39:56.811Z</time></trkpt><trkpt lat="43.1962282" lon="12.2599922"><ele>381.66666666666663</ele><time>2026-03-29T07:39:58.81Z</time></trkpt><trkpt lat="43.1962957" lon="12.2599802"><ele>382.0</ele><time>2026-03-29T07:39:59.811Z</time></trkpt><trkpt lat="43.1963878" lon="12.2599926"><ele>382.0</ele><time>2026-03-29T07:40:00.811Z</time></trkpt><trkpt lat="43.1964516" lon="12.2600129"><ele>382.0</ele><time>2026-03-29T07:40:01.81Z</time></trkpt><trkpt lat="43.1965537" lon="12.2600484"><ele>382.0</ele><time>2026-03-29T07:40:03.811Z</time></trkpt><trkpt lat="43.1966359" lon="12.2600586"><ele>382.0</ele><time>2026-03-29T07:40:04.811Z</time></trkpt><trkpt lat="43.1967026" lon="12.2600808"><ele>382.0</ele><time>2026-03-29T07:40:05.81Z</time></trkpt><trkpt lat="43.1968223" lon="12.260102"><ele>382.0</ele><time>2026-03-29T07:40:08.81Z</time></trkpt><trkpt lat="43.1969277" lon="12.2600687"><ele>381.6</ele><time>2026-03-29T07:40:10.811Z</time></trkpt><trkpt lat="43.1970506" lon="12.259963"><ele>381.20000000000005</ele><time>2026-03-29T07:40:12.81Z</time></trkpt><trkpt lat="43.1971576" lon="12.2599188"><ele>380.8</ele><time>2026-03-29T07:40:13.81Z</time></trkpt><trkpt lat="43.1972395" lon="12.259897"><ele>380.4</ele><time>2026-03-29T07:40:15.81Z</time></trkpt><trkpt lat="43.1973056" lon="12.2598668"><ele>380.0</ele><time>2026-03-29T07:40:16.811Z</time></trkpt><trkpt lat="43.1973641" lon="12.2599316"><ele>379.6666666666667</ele><time>2026-03-29T07:40:17.811Z</time></trkpt><trkpt lat="43.1974316" lon="12.2599972"><ele>379.33333333333337</ele><time>2026-03-29T07:40:19.811Z</time></trkpt><trkpt lat="43.1975099" lon="12.2600046"><ele>379.0</ele><time>2026-03-29T07:40:20.811Z</time></trkpt><trkpt lat="43.19758" lon="12.2600044"><ele>378.6666666666667</ele><time>2026-03-29T07:40:21.811Z</time></trkpt><trkpt lat="43.1976615" lon="12.2599851"><ele>378.3333333333333</ele><time>2026-03-29T07:40:22.811Z</time></trkpt><trkpt lat="43.1977231" lon="12.2599611"><ele>378.0</ele><time>2026-03-29T07:40:23.811Z</time></trkpt><trkpt lat="43.1977997" lon="12.2599523"><ele>378.0</ele><time>2026-03-29T07:40:24.811Z</time></trkpt><trkpt lat="43.1979183" lon="12.2599636"><ele>378.0</ele><time>2026-03-29T07:40:26.81Z</time></trkpt><trkpt lat="43.1980426" lon="12.2599745"><ele>378.0</ele><time>2026-03-29T07:40:28.811Z</time></trkpt><trkpt lat="43.1981232" lon="12.2599866"><ele>378.0</ele><time>2026-03-29T07:40:29.81Z</time></trkpt><trkpt lat="43.1982452" lon="12.2599714"><ele>378.0</ele><time>2026-03-29T07:40:31.81Z</time></trkpt><trkpt lat="43.1983232" lon="12.2599262"><ele>378.79999999999995</ele><time>2026-03-29T07:40:33.811Z</time></trkpt><trkpt lat="43.1984128" lon="12.2599022"><ele>379.6</ele><time>2026-03-29T07:40:35.81Z</time></trkpt><trkpt lat="43.1984866" lon="12.2598796"><ele>380.4</ele><time>2026-03-29T07:40:37.811Z</time></trkpt><trkpt lat="43.1985527" lon="12.259897"><ele>381.20000000000005</ele><time>2026-03-29T07:40:39.81Z</time></trkpt><trkpt lat="43.1986773" lon="12.2598903"><ele>382.0</ele><time>2026-03-29T07:40:41.811Z</time></trkpt><trkpt lat="43.1987727" lon="12.2598826"><ele>382.0</ele><time>2026-03-29T07:40:43.811Z</time></trkpt><trkpt lat="43.1988547" lon="12.2598189"><ele>382.0</ele><time>2026-03-29T07:40:45.81Z</time></trkpt><trkpt lat="43.1989128" lon="12.2597546"><ele>382.0</ele><time>2026-03-29T07:40:47.81Z</time></trkpt><trkpt lat="43.1989793" lon="12.2597173"><ele>382.0</ele><time>2026-03-29T07:40:51.81Z</time></trkpt><trkpt lat="43.1990511" lon="12.2596992"><ele>382.0</ele><time>2026-03-29T07:40:54.81Z</time></trkpt><trkpt lat="43.1991017" lon="12.2596452"><ele>382.0</ele><time>2026-03-29T07:40:58.811Z</time></trkpt><trkpt lat="43.1991528" lon="12.2595761"><ele>384.5714285714286</ele><time>2026-03-29T07:41:02.81Z</time></trkpt><trkpt lat="43.1991865" lon="12.2594567"><ele>387.1428571428571</ele><time>2026-03-29T07:41:43.811Z</time></trkpt><trkpt lat="43.1991899" lon="12.2593544"><ele>389.7142857142857</ele><time>2026-03-29T07:41:45.81Z</time></trkpt><trkpt lat="43.1991879" lon="12.2592571"><ele>392.28571428571433</ele><time>2026-03-29T07:41:47.81Z</time></trkpt><trkpt lat="43.1991509" lon="12.2591773"><ele>394.8571428571429</ele><time>2026-03-29T07:42:37.811Z</time></trkpt><trkpt lat="43.1991386" lon="12.2590913"><ele>397.42857142857144</ele><time>2026-03-29T07:46:08.811Z</time></trkpt><trkpt lat="43.1991374" lon="12.2589986"><ele>400.0</ele><time>2026-03-29T07:46:13.81Z</time></trkpt><trkpt lat="43.1990599" lon="12.2588446"><ele>402.8571428571429</ele><time>2026-03-29T07:46:15.811Z</time></trkpt><trkpt lat="43.1990213" lon="12.2587676"><ele>405.7142857142857</ele><time>2026-03-29T07:46:17.811Z</time></trkpt><trkpt lat="43.1990294" lon="12.2586771"><ele>408.57142857142856</ele><time>2026-03-29T07:47:48.81Z</time></trkpt><trkpt lat="43.199035" lon="12.2585895"><ele>411.42857142857144</ele><time>2026-03-29T07:47:57.811Z</time></trkpt><trkpt lat="43.1990793" lon="12.2584945"><ele>414.2857142857143</ele><time>2026-03-29T07:48:01.811Z</time></trkpt><trkpt lat="43.1991187" lon="12.2584217"><ele>417.14285714285717</ele><time>2026-03-29T07:48:03.811Z</time></trkpt><trkpt lat="43.1991573" lon="12.2583476"><ele>420.0</ele><time>2026-03-29T07:48:07.811Z</time></trkpt><trkpt lat="43.1992528" lon="12.2582727"><ele>420.0</ele><time>2026-03-29T07:48:09.81Z</time></trkpt><trkpt lat="43.1993355" lon="12.2582118"><ele>420.0</ele><time>2026-03-29T07:48:11.811Z</time></trkpt><trkpt lat="43.1993825" lon="12.2580874"><ele>420.0</ele><time>2026-03-29T07:48:13.81Z</time></trkpt><trkpt lat="43.1994196" lon="12.2579684"><ele>420.0</ele><time>2026-03-29T07:48:15.811Z</time></trkpt><trkpt lat="43.1994164" lon="12.2578445"><ele>420.0</ele><time>2026-03-29T07:48:17.811Z</time></trkpt><trkpt lat="43.1994147" lon="12.2577457"><ele>424.0</ele><time>2026-03-29T07:48:18.81Z</time></trkpt><trkpt lat="43.1994239" lon="12.2575859"><ele>428.0</ele><time>2026-03-29T07:48:20.81Z</time></trkpt><trkpt lat="43.199427" lon="12.2573928"><ele>432.0</ele><time>2026-03-29T07:48:22.811Z</time></trkpt><trkpt lat="43.199427" lon="12.2572933"><ele>436.0</ele><time>2026-03-29T07:48:23.811Z</time></trkpt><trkpt lat="43.1994118" lon="12.2571782"><ele>440.0</ele><time>2026-03-29T07:48:24.811Z</time></trkpt><trkpt lat="43.199324" lon="12.2570836"><ele>446.0</ele><time>2026-03-29T07:48:26.811Z</time></trkpt><trkpt lat="43.1992484" lon="12.257064"><ele>452.0</ele><time>2026-03-29T07:48:27.811Z</time></trkpt><trkpt lat="43.1991973" lon="12.2569777"><ele>458.0</ele><time>2026-03-29T07:48:29.811Z</time></trkpt><trkpt lat="43.1992724" lon="12.2569753"><ele>464.0</ele><time>2026-03-29T07:48:33.81Z</time></trkpt><trkpt lat="43.199364" lon="12.2569172"><ele>470.0</ele><time>2026-03-29T07:48:36.811Z</time></trkpt><trkpt lat="43.1994963" lon="12.2570532"><ele>470.0</ele><time>2026-03-29T07:50:28.811Z</time></trkpt><trkpt lat="43.1995814" lon="12.2570554"><ele>470.0</ele><time>2026-03-29T07:50:29.811Z</time></trkpt><trkpt lat="43.1997098" lon="12.2570751"><ele>470.0</ele><time>2026-03-29T07:50:30.81Z</time></trkpt><trkpt lat="43.1998125" lon="12.2570941"><ele>470.0</ele><time>2026-03-29T07:50:31.811Z</time></trkpt><trkpt lat="43.1999349" lon="12.2570785"><ele>470.0</ele><time>2026-03-29T07:50:32.811Z</time></trkpt><trkpt lat="43.2000272" lon="12.2571379"><ele>469.6</ele><time>2026-03-29T07:50:33.81Z</time></trkpt><trkpt lat="43.2001059" lon="12.2572162"><ele>469.2</ele><time>2026-03-29T07:50:34.811Z</time></trkpt><trkpt lat="43.2002107" lon="12.2572718"><ele>468.79999999999995</ele><time>2026-03-29T07:50:35.811Z</time></trkpt><trkpt lat="43.2003224" lon="12.2573156"><ele>468.4</ele><time>2026-03-29T07:50:36.811Z</time></trkpt><trkpt lat="43.2004119" lon="12.2573589"><ele>468.0</ele><time>2026-03-29T07:50:37.811Z</time></trkpt><trkpt lat="43.2005165" lon="12.2573561"><ele>464.75</ele><time>2026-03-29T07:50:38.811Z</time></trkpt><trkpt lat="43.200621" lon="12.2573358"><ele>461.5</ele><time>2026-03-29T07:50:39.81Z</time></trkpt><trkpt lat="43.2007498" lon="12.257284"><ele>458.25</ele><time>2026-03-29T07:50:40.811Z</time></trkpt><trkpt lat="43.2008603" lon="12.2572176"><ele>455.0</ele><time>2026-03-29T07:50:41.81Z</time></trkpt><trkpt lat="43.2010058" lon="12.2570921"><ele>455.0</ele><time>2026-03-29T07:50:42.811Z</time></trkpt><trkpt lat="43.2011745" lon="12.2570045"><ele>455.0</ele><time>2026-03-29T07:50:44.811Z</time></trkpt><trkpt lat="43.20124" lon="12.2569545"><ele>455.0</ele><time>2026-03-29T07:50:46.81Z</time></trkpt><trkpt lat="43.2012411" lon="12.25685"><ele>455.0</ele><time>2026-03-29T07:50:50.811Z</time></trkpt><trkpt lat="43.2011987" lon="12.2567427"><ele>455.0</ele><time>2026-03-29T07:50:55.811Z</time></trkpt><trkpt lat="43.2012661" lon="12.2565634"><ele>455.0</ele><time>2026-03-29T07:50:57.81Z</time></trkpt><trkpt lat="43.2013014" lon="12.2564638"><ele>455.0</ele><time>2026-03-29T07:50:58.811Z</time></trkpt><trkpt lat="43.2014935" lon="12.2564909"><ele>455.0</ele><time>2026-03-29T07:51:00.81Z</time></trkpt><trkpt lat="43.2015994" lon="12.2565202"><ele>455.0</ele><time>2026-03-29T07:51:01.811Z</time></trkpt><trkpt lat="43.2017275" lon="12.2565308"><ele>452.0</ele><time>2026-03-29T07:51:02.81Z</time></trkpt><trkpt lat="43.2018091" lon="12.2565489"><ele>449.0</ele><time>2026-03-29T07:51:03.81Z</time></trkpt><trkpt lat="43.2018765" lon="12.2565941"><ele>446.0</ele><time>2026-03-29T07:51:04.811Z</time></trkpt><trkpt lat="43.201948" lon="12.256678"><ele>443.0</ele><time>2026-03-29T07:51:05.81Z</time></trkpt><trkpt lat="43.2021224" lon="12.2566632"><ele>440.0</ele><time>2026-03-29T07:51:07.81Z</time></trkpt><trkpt lat="43.2021968" lon="12.2566566"><ele>440.0</ele><time>2026-03-29T07:51:08.81Z</time></trkpt><trkpt lat="43.2022643" lon="12.2566791"><ele>440.0</ele><time>2026-03-29T07:51:09.811Z</time></trkpt><trkpt lat="43.2023207" lon="12.2567534"><ele>440.0</ele><time>2026-03-29T07:51:11.811Z</time></trkpt><trkpt lat="43.2023123" lon="12.2569288"><ele>440.0</ele><time>2026-03-29T07:51:13.81Z</time></trkpt><trkpt lat="43.202325" lon="12.2570904"><ele>440.0</ele><time>2026-03-29T07:51:16.811Z</time></trkpt><trkpt lat="43.2024271" lon="12.2569927"><ele>438.66666666666663</ele><time>2026-03-29T07:51:18.811Z</time></trkpt><trkpt lat="43.2024865" lon="12.2569141"><ele>437.3333333333333</ele><time>2026-03-29T07:51:19.811Z</time></trkpt><trkpt lat="43.2025051" lon="12.2568228"><ele>436.0</ele><time>2026-03-29T07:51:20.811Z</time></trkpt><trkpt lat="43.2025234" lon="12.2567168"><ele>434.66666666666663</ele><time>2026-03-29T07:51:21.811Z</time></trkpt><trkpt lat="43.2025637" lon="12.2566004"><ele>433.3333333333333</ele><time>2026-03-29T07:51:22.811Z</time></trkpt><trkpt lat="43.2026471" lon="12.2565385"><ele>432.0</ele><time>2026-03-29T07:51:23.81Z</time></trkpt><trkpt lat="43.2027619" lon="12.2564769"><ele>432.0</ele><time>2026-03-29T07:51:25.81Z</time></trkpt><trkpt lat="43.2028649" lon="12.2564244"><ele>432.00000000000006</ele><time>2026-03-29T07:51:27.81Z</time></trkpt><trkpt lat="43.202943" lon="12.2564197"><ele>432.00000000000006</ele><time>2026-03-29T07:51:30.811Z</time></trkpt><trkpt lat="43.2030154" lon="12.2564269"><ele>432.0</ele><time>2026-03-29T07:51:31.811Z</time></trkpt><trkpt lat="43.2029752" lon="12.2565455"><ele>432.0</ele><time>2026-03-29T07:51:33.81Z</time></trkpt><trkpt lat="43.2029368" lon="12.2567112"><ele>432.0</ele><time>2026-03-29T07:51:35.811Z</time></trkpt><trkpt lat="43.2028919" lon="12.2567849"><ele>432.0</ele><time>2026-03-29T07:51:36.811Z</time></trkpt><trkpt lat="43.2028656" lon="12.2569689"><ele>432.0</ele><time>2026-03-29T07:51:38.811Z</time></trkpt><trkpt lat="43.2029083" lon="12.2571375"><ele>432.0</ele><time>2026-03-29T07:51:39.81Z</time></trkpt><trkpt lat="43.202918" lon="12.2573033"><ele>430.25</ele><time>2026-03-29T07:51:40.811Z</time></trkpt><trkpt lat="43.2029119" lon="12.2574663"><ele>428.5</ele><time>2026-03-29T07:51:41.811Z</time></trkpt><trkpt lat="43.2029557" lon="12.2575608"><ele>426.75</ele><time>2026-03-29T07:51:42.811Z</time></trkpt><trkpt lat="43.2030496" lon="12.257797"><ele>425.0</ele><time>2026-03-29T07:51:44.811Z</time></trkpt><trkpt lat="43.2030851" lon="12.2579186"><ele>425.0</ele><time>2026-03-29T07:51:46.811Z</time></trkpt><trkpt lat="43.2031538" lon="12.2580334"><ele>425.0</ele><time>2026-03-29T07:51:48.81Z</time></trkpt><trkpt lat="43.2031732" lon="12.258119"><ele>425.0</ele><time>2026-03-29T07:51:49.81Z</time></trkpt><trkpt lat="43.2031985" lon="12.2582005"><ele>425.0</ele><time>2026-03-29T07:51:50.811Z</time></trkpt><trkpt lat="43.203217" lon="12.2583218"><ele>425.0</ele><time>2026-03-29T07:51:51.81Z</time></trkpt><trkpt lat="43.2032539" lon="12.2585023"><ele>424.75</ele><time>2026-03-29T07:51:53.81Z</time></trkpt><trkpt lat="43.2032258" lon="12.2586379"><ele>424.5</ele><time>2026-03-29T07:51:54.81Z</time></trkpt><trkpt lat="43.2032078" lon="12.2587585"><ele>424.25</ele><time>2026-03-29T07:51:55.81Z</time></trkpt><trkpt lat="43.2032333" lon="12.2588999"><ele>424.0</ele><time>2026-03-29T07:51:57.811Z</time></trkpt><trkpt lat="43.2030814" lon="12.2588228"><ele>424.0</ele><time>2026-03-29T07:51:58.811Z</time></trkpt><trkpt lat="43.2030157" lon="12.2589343"><ele>424.0</ele><time>2026-03-29T07:52:00.811Z</time></trkpt><trkpt lat="43.2030863" lon="12.2589766"><ele>424.0</ele><time>2026-03-29T07:52:02.811Z</time></trkpt><trkpt lat="43.2031946" lon="12.2590517"><ele>424.0</ele><time>2026-03-29T07:52:04.811Z</time></trkpt><trkpt lat="43.2032652" lon="12.2592144"><ele>424.0</ele><time>2026-03-29T07:52:06.81Z</time></trkpt><trkpt lat="43.2032769" lon="12.2593103"><ele>428.33333333333337</ele><time>2026-03-29T07:52:07.811Z</time></trkpt><trkpt lat="43.2031943" lon="12.2592433"><ele>432.6666666666667</ele><time>2026-03-29T07:52:08.81Z</time></trkpt><trkpt lat="43.2030966" lon="12.2592568"><ele>437.0</ele><time>2026-03-29T07:52:10.81Z</time></trkpt><trkpt lat="43.2030312" lon="12.259333"><ele>441.33333333333337</ele><time>2026-03-29T07:52:11.811Z</time></trkpt><trkpt lat="43.2029681" lon="12.2594057"><ele>445.6666666666667</ele><time>2026-03-29T07:52:12.811Z</time></trkpt><trkpt lat="43.2029092" lon="12.2594558"><ele>450.0</ele><time>2026-03-29T07:52:13.811Z</time></trkpt><trkpt lat="43.2028339" lon="12.2594864"><ele>450.0</ele><time>2026-03-29T07:52:14.811Z</time></trkpt><trkpt lat="43.2027201" lon="12.2595123"><ele>450.0</ele><time>2026-03-29T07:52:15.811Z</time></trkpt><trkpt lat="43.202637" lon="12.259544"><ele>450.0</ele><time>2026-03-29T07:52:16.81Z</time></trkpt><trkpt lat="43.2025622" lon="12.2595936"><ele>450.0</ele><time>2026-03-29T07:52:17.81Z</time></trkpt><trkpt lat="43.2025391" lon="12.2596828"><ele>450.0</ele><time>2026-03-29T07:52:18.811Z</time></trkpt><trkpt lat="43.2024735" lon="12.2597573"><ele>450.0</ele><time>2026-03-29T07:52:19.811Z</time></trkpt><trkpt lat="43.202376" lon="12.2598187"><ele>451.5</ele><time>2026-03-29T07:52:21.811Z</time></trkpt><trkpt lat="43.202326" lon="12.2598899"><ele>453.0</ele><time>2026-03-29T07:52:22.811Z</time></trkpt><trkpt lat="43.2022789" lon="12.2599549"><ele>454.5</ele><time>2026-03-29T07:52:23.811Z</time></trkpt><trkpt lat="43.2021994" lon="12.2600029"><ele>456.0</ele><time>2026-03-29T07:52:24.81Z</time></trkpt><trkpt lat="43.2021137" lon="12.2600475"><ele>457.5</ele><time>2026-03-29T07:52:25.811Z</time></trkpt><trkpt lat="43.2020357" lon="12.2600972"><ele>459.0</ele><time>2026-03-29T07:52:26.811Z</time></trkpt><trkpt lat="43.2019859" lon="12.2602291"><ele>459.0</ele><time>2026-03-29T07:52:28.811Z</time></trkpt><trkpt lat="43.2020584" lon="12.2603237"><ele>459.0</ele><time>2026-03-29T07:52:31.81Z</time></trkpt><trkpt lat="43.202216" lon="12.2602802"><ele>459.0</ele><time>2026-03-29T07:52:32.811Z</time></trkpt><trkpt lat="43.2023353" lon="12.2602718"><ele>459.0</ele><time>2026-03-29T07:52:33.811Z</time></trkpt><trkpt lat="43.2024361" lon="12.2603214"><ele>463.2</ele><time>2026-03-29T07:52:35.81Z</time></trkpt><trkpt lat="43.2025309" lon="12.2603424"><ele>467.4</ele><time>2026-03-29T07:52:37.81Z</time></trkpt><trkpt lat="43.2025987" lon="12.2603902"><ele>471.6</ele><time>2026-03-29T07:52:39.811Z</time></trkpt><trkpt lat="43.202673" lon="12.2604671"><ele>475.8</ele><time>2026-03-29T07:52:40.811Z</time></trkpt><trkpt lat="43.2027123" lon="12.2605473"><ele>480.0</ele><time>2026-03-29T07:52:41.811Z</time></trkpt><trkpt lat="43.2027967" lon="12.2606811"><ele>481.8</ele><time>2026-03-29T07:52:43.811Z</time></trkpt><trkpt lat="43.2028473" lon="12.2607896"><ele>483.6</ele><time>2026-03-29T07:52:45.811Z</time></trkpt><trkpt lat="43.2029032" lon="12.2608326"><ele>485.4</ele><time>2026-03-29T07:52:46.811Z</time></trkpt><trkpt lat="43.2029798" lon="12.2608549"><ele>487.2</ele><time>2026-03-29T07:52:47.811Z</time></trkpt><trkpt lat="43.2030924" lon="12.2609734"><ele>489.0</ele><time>2026-03-29T07:52:49.81Z</time></trkpt><trkpt lat="43.2031635" lon="12.2610192"><ele>492.79999999999995</ele><time>2026-03-29T07:52:50.811Z</time></trkpt><trkpt lat="43.2032966" lon="12.261079"><ele>496.59999999999997</ele><time>2026-03-29T07:52:51.81Z</time></trkpt><trkpt lat="43.2033903" lon="12.2611097"><ele>500.4</ele><time>2026-03-29T07:52:52.811Z</time></trkpt><trkpt lat="43.2034794" lon="12.261147"><ele>504.2</ele><time>2026-03-29T07:52:53.811Z</time></trkpt><trkpt lat="43.2035593" lon="12.2611414"><ele>508.0</ele><time>2026-03-29T07:52:54.811Z</time></trkpt><trkpt lat="43.203677" lon="12.2611941"><ele>508.00000000000006</ele><time>2026-03-29T07:52:56.81Z</time></trkpt><trkpt lat="43.2037385" lon="12.2612328"><ele>508.0</ele><time>2026-03-29T07:52:57.811Z</time></trkpt><trkpt lat="43.2037889" lon="12.2613079"><ele>508.0</ele><time>2026-03-29T07:52:58.81Z</time></trkpt><trkpt lat="43.2038131" lon="12.2614017"><ele>508.0</ele><time>2026-03-29T07:52:59.811Z</time></trkpt><trkpt lat="43.2038507" lon="12.2615022"><ele>508.00000000000006</ele><time>2026-03-29T07:53:00.811Z</time></trkpt><trkpt lat="43.2038924" lon="12.2616072"><ele>508.0</ele><time>2026-03-29T07:53:01.81Z</time></trkpt><trkpt lat="43.2039403" lon="12.2616778"><ele>506.50000000000006</ele><time>2026-03-29T07:53:02.811Z</time></trkpt><trkpt lat="43.203979" lon="12.2617609"><ele>505.0</ele><time>2026-03-29T07:53:03.811Z</time></trkpt><trkpt lat="43.2040383" lon="12.261828"><ele>503.5</ele><time>2026-03-29T07:53:04.811Z</time></trkpt><trkpt lat="43.2041001" lon="12.2618887"><ele>502.0</ele><time>2026-03-29T07:53:05.811Z</time></trkpt><trkpt lat="43.204184" lon="12.2619412"><ele>500.50000000000006</ele><time>2026-03-29T07:53:06.811Z</time></trkpt><trkpt lat="43.2042732" lon="12.2619816"><ele>499.0</ele><time>2026-03-29T07:53:07.81Z</time></trkpt><trkpt lat="43.2043821" lon="12.2619938"><ele>500.33333333333337</ele><time>2026-03-29T07:53:08.811Z</time></trkpt><trkpt lat="43.2044666" lon="12.2620272"><ele>501.6666666666667</ele><time>2026-03-29T07:53:09.811Z</time></trkpt><trkpt lat="43.2045515" lon="12.2620853"><ele>503.0</ele><time>2026-03-29T07:53:10.811Z</time></trkpt><trkpt lat="43.2046113" lon="12.2621459"><ele>504.33333333333337</ele><time>2026-03-29T07:53:11.811Z</time></trkpt><trkpt lat="43.2046782" lon="12.262221"><ele>505.6666666666667</ele><time>2026-03-29T07:53:12.81Z</time></trkpt><trkpt lat="43.2047218" lon="12.26231"><ele>507.0</ele><time>2026-03-29T07:53:13.81Z</time></trkpt><trkpt lat="43.2047859" lon="12.2623764"><ele>510.6666666666667</ele><time>2026-03-29T07:53:14.81Z</time></trkpt><trkpt lat="43.2048601" lon="12.2624177"><ele>514.3333333333334</ele><time>2026-03-29T07:53:15.81Z</time></trkpt><trkpt lat="43.2049187" lon="12.2624624"><ele>518.0</ele><time>2026-03-29T07:53:16.811Z</time></trkpt><trkpt lat="43.2050356" lon="12.2625433"><ele>521.6666666666667</ele><time>2026-03-29T07:53:18.811Z</time></trkpt><trkpt lat="43.2051063" lon="12.2625461"><ele>525.3333333333334</ele><time>2026-03-29T07:53:19.811Z</time></trkpt><trkpt lat="43.2051741" lon="12.2625817"><ele>529.0</ele><time>2026-03-29T07:53:21.81Z</time></trkpt><trkpt lat="43.2052434" lon="12.2626313"><ele>529.0</ele><time>2026-03-29T07:53:23.811Z</time></trkpt><trkpt lat="43.2053605" lon="12.2627055"><ele>529.0</ele><time>2026-03-29T07:53:25.811Z</time></trkpt><trkpt lat="43.2054422" lon="12.2628246"><ele>529.0</ele><time>2026-03-29T07:53:27.811Z</time></trkpt><trkpt lat="43.2055202" lon="12.2629587"><ele>529.0</ele><time>2026-03-29T07:53:29.81Z</time></trkpt><trkpt lat="43.2056174" lon="12.2630831"><ele>531.4</ele><time>2026-03-29T07:53:31.811Z</time></trkpt><trkpt lat="43.2056732" lon="12.2631618"><ele>533.8</ele><time>2026-03-29T07:53:32.811Z</time></trkpt><trkpt lat="43.2057724" lon="12.2632946"><ele>536.2</ele><time>2026-03-29T07:53:34.811Z</time></trkpt><trkpt lat="43.2058352" lon="12.2633693"><ele>538.6</ele><time>2026-03-29T07:53:35.811Z</time></trkpt><trkpt lat="43.2059084" lon="12.2634431"><ele>541.0</ele><time>2026-03-29T07:53:36.811Z</time></trkpt><trkpt lat="43.205979" lon="12.2634959"><ele>541.0</ele><time>2026-03-29T07:53:37.811Z</time></trkpt><trkpt lat="43.2060432" lon="12.2636001"><ele>541.0</ele><time>2026-03-29T07:53:39.811Z</time></trkpt><trkpt lat="43.206109" lon="12.2636286"><ele>541.0</ele><time>2026-03-29T07:53:41.81Z</time></trkpt><trkpt lat="43.2061843" lon="12.263686"><ele>541.0</ele><time>2026-03-29T07:53:44.811Z</time></trkpt><trkpt lat="43.2062532" lon="12.263708"><ele>541.0</ele><time>2026-03-29T07:55:34.81Z</time></trkpt><trkpt lat="43.2062986" lon="12.2637739"><ele>541.0</ele><time>2026-03-29T07:55:58.811Z</time></trkpt><trkpt lat="43.2063466" lon="12.2638894"><ele>542.6</ele><time>2026-03-29T07:56:00.811Z</time></trkpt><trkpt lat="43.2064109" lon="12.2640206"><ele>544.2</ele><time>2026-03-29T07:56:02.81Z</time></trkpt><trkpt lat="43.2064655" lon="12.2641095"><ele>545.8</ele><time>2026-03-29T07:56:03.81Z</time></trkpt><trkpt lat="43.2065106" lon="12.2641864"><ele>547.4</ele><time>2026-03-29T07:56:04.811Z</time></trkpt><trkpt lat="43.2065411" lon="12.2642976"><ele>549.0</ele><time>2026-03-29T07:56:05.811Z</time></trkpt><trkpt lat="43.206556" lon="12.2644318"><ele>549.0</ele><time>2026-03-29T07:56:06.811Z</time></trkpt><trkpt lat="43.2065448" lon="12.2645424"><ele>549.0</ele><time>2026-03-29T07:56:07.81Z</time></trkpt><trkpt lat="43.2065139" lon="12.2646385"><ele>549.0</ele><time>2026-03-29T07:56:08.811Z</time></trkpt><trkpt lat="43.2064813" lon="12.2647854"><ele>549.0</ele><time>2026-03-29T07:56:10.81Z</time></trkpt><trkpt lat="43.206489" lon="12.2649179"><ele>549.0</ele><time>2026-03-29T07:56:12.81Z</time></trkpt><trkpt lat="43.2065621" lon="12.2650081"><ele>547.2</ele><time>2026-03-29T07:56:14.811Z</time></trkpt><trkpt lat="43.2066533" lon="12.2650892"><ele>545.4</ele><time>2026-03-29T07:56:16.811Z</time></trkpt><trkpt lat="43.2067214" lon="12.2651134"><ele>543.6</ele><time>2026-03-29T07:56:17.811Z</time></trkpt><trkpt lat="43.2067983" lon="12.2651257"><ele>541.8</ele><time>2026-03-29T07:56:18.811Z</time></trkpt><trkpt lat="43.2068932" lon="12.265121"><ele>540.0</ele><time>2026-03-29T07:56:19.81Z</time></trkpt><trkpt lat="43.2069958" lon="12.2650867"><ele>540.0</ele><time>2026-03-29T07:56:20.811Z</time></trkpt><trkpt lat="43.2071005" lon="12.2649929"><ele>540.0</ele><time>2026-03-29T07:56:21.811Z</time></trkpt><trkpt lat="43.2071935" lon="12.2649207"><ele>540.0</ele><time>2026-03-29T07:56:22.811Z</time></trkpt><trkpt lat="43.2072695" lon="12.264823"><ele>540.0</ele><time>2026-03-29T07:56:23.811Z</time></trkpt><trkpt lat="43.2073301" lon="12.2647326"><ele>540.0</ele><time>2026-03-29T07:56:24.811Z</time></trkpt><trkpt lat="43.2074032" lon="12.2646649"><ele>543.0</ele><time>2026-03-29T07:56:25.811Z</time></trkpt><trkpt lat="43.2074726" lon="12.2645844"><ele>546.0</ele><time>2026-03-29T07:56:26.811Z</time></trkpt><trkpt lat="43.207547" lon="12.2645381"><ele>549.0</ele><time>2026-03-29T07:56:27.811Z</time></trkpt><trkpt lat="43.2076203" lon="12.2645052"><ele>552.0</ele><time>2026-03-29T07:56:28.811Z</time></trkpt><trkpt lat="43.2077442" lon="12.2644863"><ele>555.0</ele><time>2026-03-29T07:56:29.81Z</time></trkpt><trkpt lat="43.207852" lon="12.2644346"><ele>555.0</ele><time>2026-03-29T07:56:30.811Z</time></trkpt><trkpt lat="43.2079534" lon="12.2643922"><ele>555.0</ele><time>2026-03-29T07:56:31.811Z</time></trkpt><trkpt lat="43.2081076" lon="12.2643358"><ele>555.0</ele><time>2026-03-29T07:56:32.81Z</time></trkpt><trkpt lat="43.208246" lon="12.2643119"><ele>555.0</ele><time>2026-03-29T07:56:33.81Z</time></trkpt><trkpt lat="43.2084014" lon="12.264326"><ele>554.25</ele><time>2026-03-29T07:56:34.81Z</time></trkpt><trkpt lat="43.2085794" lon="12.2643466"><ele>553.5</ele><time>2026-03-29T07:56:35.811Z</time></trkpt><trkpt lat="43.2086811" lon="12.2643156"><ele>552.75</ele><time>2026-03-29T07:56:36.81Z</time></trkpt><trkpt lat="43.2088365" lon="12.2643183"><ele>552.0</ele><time>2026-03-29T07:56:37.81Z</time></trkpt><trkpt lat="43.208995" lon="12.2643288"><ele>552.0</ele><time>2026-03-29T07:56:38.81Z</time></trkpt><trkpt lat="43.2091415" lon="12.2643207"><ele>552.0</ele><time>2026-03-29T07:56:39.811Z</time></trkpt><trkpt lat="43.2092894" lon="12.2643237"><ele>552.0</ele><time>2026-03-29T07:56:40.81Z</time></trkpt><trkpt lat="43.2094384" lon="12.264322"><ele>552.0</ele><time>2026-03-29T07:56:41.81Z</time></trkpt><trkpt lat="43.2095831" lon="12.2643257"><ele>552.0</ele><time>2026-03-29T07:56:42.811Z</time></trkpt><trkpt lat="43.2097331" lon="12.2643172"><ele>552.0</ele><time>2026-03-29T07:56:43.811Z</time></trkpt><trkpt lat="43.2097924" lon="12.2643626"><ele>552.0</ele><time>2026-03-29T07:56:44.811Z</time></trkpt><trkpt lat="43.209894" lon="12.264439"><ele>552.0</ele><time>2026-03-29T07:56:45.811Z</time></trkpt><trkpt lat="43.2099587" lon="12.2645194"><ele>552.0</ele><time>2026-03-29T07:56:46.81Z</time></trkpt><trkpt lat="43.2100213" lon="12.2646307"><ele>552.5</ele><time>2026-03-29T07:56:47.811Z</time></trkpt><trkpt lat="43.2100822" lon="12.2647059"><ele>553.0</ele><time>2026-03-29T07:56:48.81Z</time></trkpt><trkpt lat="43.2101802" lon="12.2647589"><ele>553.5</ele><time>2026-03-29T07:56:50.811Z</time></trkpt><trkpt lat="43.21027" lon="12.2647569"><ele>554.0</ele><time>2026-03-29T07:56:52.811Z</time></trkpt><trkpt lat="43.2103571" lon="12.2647515"><ele>554.5</ele><time>2026-03-29T07:56:54.81Z</time></trkpt><trkpt lat="43.2104273" lon="12.264763"><ele>555.0</ele><time>2026-03-29T07:56:55.811Z</time></trkpt><trkpt lat="43.2104913" lon="12.2647874"><ele>555.0</ele><time>2026-03-29T07:56:57.81Z</time></trkpt><trkpt lat="43.2105699" lon="12.2647643"><ele>555.0</ele><time>2026-03-29T07:58:16.81Z</time></trkpt><trkpt lat="43.2106467" lon="12.2647701"><ele>555.0</ele><time>2026-03-29T07:58:18.811Z</time></trkpt><trkpt lat="43.210754" lon="12.2647852"><ele>555.0</ele><time>2026-03-29T07:58:19.811Z</time></trkpt><trkpt lat="43.2108156" lon="12.2648199"><ele>555.0</ele><time>2026-03-29T07:58:20.811Z</time></trkpt><trkpt lat="43.2108804" lon="12.2648313"><ele>555.0</ele><time>2026-03-29T07:58:21.811Z</time></trkpt><trkpt lat="43.2109836" lon="12.26482"><ele>556.0</ele><time>2026-03-29T07:58:22.81Z</time></trkpt><trkpt lat="43.2110516" lon="12.2648282"><ele>557.0</ele><time>2026-03-29T07:58:23.81Z</time></trkpt><trkpt lat="43.2111144" lon="12.2648497"><ele>558.0</ele><time>2026-03-29T07:58:24.811Z</time></trkpt><trkpt lat="43.2112133" lon="12.264814"><ele>559.0</ele><time>2026-03-29T07:58:26.811Z</time></trkpt><trkpt lat="43.2112971" lon="12.26471"><ele>560.0</ele><time>2026-03-29T07:58:28.811Z</time></trkpt><trkpt lat="43.2113623" lon="12.2645826"><ele>560.0</ele><time>2026-03-29T07:58:30.811Z</time></trkpt><trkpt lat="43.2114637" lon="12.2644903"><ele>560.0</ele><time>2026-03-29T07:58:32.811Z</time></trkpt><trkpt lat="43.2115491" lon="12.2644727"><ele>560.0</ele><time>2026-03-29T07:58:33.811Z</time></trkpt><trkpt lat="43.2116235" lon="12.2644529"><ele>560.0</ele><time>2026-03-29T07:58:34.81Z</time></trkpt><trkpt lat="43.2116851" lon="12.264477"><ele>560.0</ele><time>2026-03-29T07:58:35.811Z</time></trkpt><trkpt lat="43.2117314" lon="12.2645393"><ele>560.0</ele><time>2026-03-29T07:58:37.81Z</time></trkpt><trkpt lat="43.2117885" lon="12.2645759"><ele>559.4</ele><time>2026-03-29T07:58:38.811Z</time></trkpt><trkpt lat="43.2119114" lon="12.2646413"><ele>558.8</ele><time>2026-03-29T07:58:40.81Z</time></trkpt><trkpt lat="43.2119906" lon="12.2646281"><ele>558.2</ele><time>2026-03-29T07:58:41.81Z</time></trkpt><trkpt lat="43.2120564" lon="12.2646307"><ele>557.6</ele><time>2026-03-29T07:58:42.811Z</time></trkpt><trkpt lat="43.2121603" lon="12.2646267"><ele>557.0</ele><time>2026-03-29T07:58:44.81Z</time></trkpt><trkpt lat="43.2122236" lon="12.2646624"><ele>557.0</ele><time>2026-03-29T07:58:46.81Z</time></trkpt><trkpt lat="43.2123186" lon="12.2646408"><ele>557.0</ele><time>2026-03-29T07:58:49.811Z</time></trkpt><trkpt lat="43.2124118" lon="12.2646308"><ele>557.0</ele><time>2026-03-29T07:58:50.811Z</time></trkpt><trkpt lat="43.2124816" lon="12.2646091"><ele>557.0</ele><time>2026-03-29T07:58:51.81Z</time></trkpt><trkpt lat="43.2125486" lon="12.264546"><ele>557.0</ele><time>2026-03-29T07:58:52.81Z</time></trkpt><trkpt lat="43.2126775" lon="12.2644413"><ele>556.0</ele><time>2026-03-29T07:58:54.81Z</time></trkpt><trkpt lat="43.2127421" lon="12.2643963"><ele>555.0</ele><time>2026-03-29T07:58:55.811Z</time></trkpt><trkpt lat="43.2128129" lon="12.2643492"><ele>554.0</ele><time>2026-03-29T07:58:56.811Z</time></trkpt><trkpt lat="43.212924" lon="12.2643485"><ele>553.0</ele><time>2026-03-29T07:58:58.81Z</time></trkpt><trkpt lat="43.213007" lon="12.2643281"><ele>552.0</ele><time>2026-03-29T07:59:01.811Z</time></trkpt><trkpt lat="43.2130735" lon="12.2643055"><ele>551.0</ele><time>2026-03-29T07:59:02.81Z</time></trkpt><trkpt lat="43.2131483" lon="12.2643407"><ele>547.4</ele><time>2026-03-29T07:59:03.81Z</time></trkpt><trkpt lat="43.2132443" lon="12.2643396"><ele>543.8</ele><time>2026-03-29T07:59:04.811Z</time></trkpt><trkpt lat="43.2133626" lon="12.2642953"><ele>540.1999999999999</ele><time>2026-03-29T07:59:06.811Z</time></trkpt><trkpt lat="43.2134782" lon="12.2642421"><ele>536.6</ele><time>2026-03-29T07:59:08.81Z</time></trkpt><trkpt lat="43.2135115" lon="12.2641321"><ele>533.0</ele><time>2026-03-29T07:59:10.811Z</time></trkpt><trkpt lat="43.2135272" lon="12.2639888"><ele>532.3333333333333</ele><time>2026-03-29T07:59:12.811Z</time></trkpt><trkpt lat="43.2135406" lon="12.2638102"><ele>531.6666666666666</ele><time>2026-03-29T07:59:14.811Z</time></trkpt><trkpt lat="43.2135254" lon="12.2636877"><ele>531.0</ele><time>2026-03-29T07:59:15.811Z</time></trkpt><trkpt lat="43.2135241" lon="12.2635875"><ele>530.3333333333334</ele><time>2026-03-29T07:59:16.81Z</time></trkpt><trkpt lat="43.2135199" lon="12.2634863"><ele>529.6666666666667</ele><time>2026-03-29T07:59:17.811Z</time></trkpt><trkpt lat="43.2135344" lon="12.2633853"><ele>529.0</ele><time>2026-03-29T07:59:18.81Z</time></trkpt><trkpt lat="43.2135164" lon="12.2632388"><ele>528.5</ele><time>2026-03-29T07:59:20.811Z</time></trkpt><trkpt lat="43.2134597" lon="12.2630933"><ele>528.0</ele><time>2026-03-29T07:59:22.811Z</time></trkpt><trkpt lat="43.2134195" lon="12.2630148"><ele>527.5</ele><time>2026-03-29T07:59:23.811Z</time></trkpt><trkpt lat="43.2133659" lon="12.2629499"><ele>527.0</ele><time>2026-03-29T07:59:24.811Z</time></trkpt><trkpt lat="43.2133088" lon="12.2628712"><ele>526.5</ele><time>2026-03-29T07:59:25.811Z</time></trkpt><trkpt lat="43.2132731" lon="12.2627933"><ele>526.0</ele><time>2026-03-29T07:59:26.81Z</time></trkpt><trkpt lat="43.2133288" lon="12.2626992"><ele>526.0</ele><time>2026-03-29T07:59:29.811Z</time></trkpt><trkpt lat="43.2133721" lon="12.2626288"><ele>526.0</ele><time>2026-03-29T07:59:30.811Z</time></trkpt><trkpt lat="43.2134186" lon="12.2625423"><ele>526.0</ele><time>2026-03-29T07:59:31.811Z</time></trkpt><trkpt lat="43.2135057" lon="12.2623851"><ele>526.0</ele><time>2026-03-29T07:59:33.811Z</time></trkpt><trkpt lat="43.2135238" lon="12.2622325"><ele>526.0</ele><time>2026-03-29T07:59:35.811Z</time></trkpt><trkpt lat="43.2135535" lon="12.2621544"><ele>527.0</ele><time>2026-03-29T07:59:36.81Z</time></trkpt><trkpt lat="43.2135761" lon="12.2620654"><ele>528.0</ele><time>2026-03-29T07:59:37.81Z</time></trkpt><trkpt lat="43.21363" lon="12.261973"><ele>529.0</ele><time>2026-03-29T07:59:38.811Z</time></trkpt><trkpt lat="43.2136453" lon="12.2618875"><ele>530.0</ele><time>2026-03-29T07:59:39.811Z</time></trkpt><trkpt lat="43.2136803" lon="12.2617908"><ele>531.0</ele><time>2026-03-29T07:59:40.81Z</time></trkpt><trkpt lat="43.2137227" lon="12.2617066"><ele>532.0</ele><time>2026-03-29T07:59:41.811Z</time></trkpt><trkpt lat="43.2137471" lon="12.2615154"><ele>530.8000000000001</ele><time>2026-03-29T07:59:43.81Z</time></trkpt><trkpt lat="43.2137693" lon="12.2613654"><ele>529.6</ele><time>2026-03-29T07:59:45.811Z</time></trkpt><trkpt lat="43.2137208" lon="12.2612486"><ele>528.4000000000001</ele><time>2026-03-29T07:59:47.81Z</time></trkpt><trkpt lat="43.2136475" lon="12.2612092"><ele>527.2</ele><time>2026-03-29T07:59:48.811Z</time></trkpt><trkpt lat="43.2135888" lon="12.2611547"><ele>526.0</ele><time>2026-03-29T07:59:49.811Z</time></trkpt><trkpt lat="43.213505" lon="12.2610475"><ele>526.0</ele><time>2026-03-29T07:59:51.811Z</time></trkpt><trkpt lat="43.2133888" lon="12.260963"><ele>526.0</ele><time>2026-03-29T07:59:53.811Z</time></trkpt><trkpt lat="43.2132674" lon="12.2608636"><ele>526.0</ele><time>2026-03-29T07:59:55.81Z</time></trkpt><trkpt lat="43.2131368" lon="12.2608239"><ele>526.0</ele><time>2026-03-29T07:59:57.81Z</time></trkpt><trkpt lat="43.2131572" lon="12.260742"><ele>529.75</ele><time>2026-03-29T07:59:59.811Z</time></trkpt><trkpt lat="43.2133445" lon="12.2606075"><ele>533.5</ele><time>2026-03-29T08:00:00.811Z</time></trkpt><trkpt lat="43.2133954" lon="12.2605564"><ele>537.25</ele><time>2026-03-29T08:00:01.81Z</time></trkpt><trkpt lat="43.2134867" lon="12.2605194"><ele>541.0</ele><time>2026-03-29T08:00:02.81Z</time></trkpt><trkpt lat="43.213581" lon="12.2604265"><ele>541.0</ele><time>2026-03-29T08:00:04.81Z</time></trkpt><trkpt lat="43.2137081" lon="12.2603299"><ele>541.0</ele><time>2026-03-29T08:00:06.811Z</time></trkpt><trkpt lat="43.2137889" lon="12.2602505"><ele>541.0</ele><time>2026-03-29T08:00:08.811Z</time></trkpt><trkpt lat="43.213856" lon="12.2601768"><ele>541.0</ele><time>2026-03-29T08:00:11.811Z</time></trkpt><trkpt lat="43.2139272" lon="12.2600599"><ele>541.0</ele><time>2026-03-29T08:00:13.811Z</time></trkpt><trkpt lat="43.2139824" lon="12.2599531"><ele>537.8333333333334</ele><time>2026-03-29T08:00:14.81Z</time></trkpt><trkpt lat="43.2140503" lon="12.2598817"><ele>534.6666666666667</ele><time>2026-03-29T08:00:15.811Z</time></trkpt><trkpt lat="43.2140989" lon="12.2598131"><ele>531.5</ele><time>2026-03-29T08:00:16.811Z</time></trkpt><trkpt lat="43.2141497" lon="12.2597522"><ele>528.3333333333334</ele><time>2026-03-29T08:00:17.81Z</time></trkpt><trkpt lat="43.2142385" lon="12.259721"><ele>525.1666666666666</ele><time>2026-03-29T08:00:19.81Z</time></trkpt><trkpt lat="43.2143111" lon="12.2596648"><ele>522.0</ele><time>2026-03-29T08:00:21.81Z</time></trkpt><trkpt lat="43.2143657" lon="12.259597"><ele>522.0</ele><time>2026-03-29T08:00:22.811Z</time></trkpt><trkpt lat="43.2144334" lon="12.259564"><ele>522.0</ele><time>2026-03-29T08:00:23.811Z</time></trkpt><trkpt lat="43.214513" lon="12.259537"><ele>522.0</ele><time>2026-03-29T08:00:25.811Z</time></trkpt><trkpt lat="43.2145858" lon="12.2595129"><ele>522.0</ele><time>2026-03-29T08:00:27.81Z</time></trkpt><trkpt lat="43.2146427" lon="12.2594243"><ele>522.0</ele><time>2026-03-29T08:00:29.811Z</time></trkpt><trkpt lat="43.2146818" lon="12.2593032"><ele>522.0</ele><time>2026-03-29T08:00:31.81Z</time></trkpt><trkpt lat="43.2148384" lon="12.2593626"><ele>520.8333333333334</ele><time>2026-03-29T08:00:35.811Z</time></trkpt><trkpt lat="43.2148886" lon="12.2594623"><ele>519.6666666666666</ele><time>2026-03-29T08:00:36.811Z</time></trkpt><trkpt lat="43.2149491" lon="12.2595445"><ele>518.5</ele><time>2026-03-29T08:00:37.81Z</time></trkpt><trkpt lat="43.2150108" lon="12.2596294"><ele>517.3333333333333</ele><time>2026-03-29T08:00:38.811Z</time></trkpt><trkpt lat="43.2150701" lon="12.2596858"><ele>516.1666666666666</ele><time>2026-03-29T08:00:39.811Z</time></trkpt><trkpt lat="43.2150952" lon="12.259776"><ele>515.0</ele><time>2026-03-29T08:00:40.81Z</time></trkpt><trkpt lat="43.2151095" lon="12.2598618"><ele>511.5</ele><time>2026-03-29T08:00:41.81Z</time></trkpt><trkpt lat="43.2151523" lon="12.260006"><ele>508.0</ele><time>2026-03-29T08:00:42.81Z</time></trkpt><trkpt lat="43.2152731" lon="12.2600992"><ele>504.5</ele><time>2026-03-29T08:00:43.81Z</time></trkpt><trkpt lat="43.2153461" lon="12.2601982"><ele>501.0</ele><time>2026-03-29T08:00:44.81Z</time></trkpt><trkpt lat="43.2153918" lon="12.2603271"><ele>501.0</ele><time>2026-03-29T08:00:45.81Z</time></trkpt><trkpt lat="43.2155132" lon="12.2603946"><ele>501.0</ele><time>2026-03-29T08:00:47.811Z</time></trkpt><trkpt lat="43.2156591" lon="12.260349"><ele>501.0</ele><time>2026-03-29T08:00:50.811Z</time></trkpt><trkpt lat="43.2157355" lon="12.2603326"><ele>501.0</ele><time>2026-03-29T08:00:52.81Z</time></trkpt><trkpt lat="43.2157978" lon="12.2603953"><ele>501.0</ele><time>2026-03-29T08:00:54.811Z</time></trkpt><trkpt lat="43.2159462" lon="12.2604623"><ele>502.20000000000005</ele><time>2026-03-29T08:00:55.81Z</time></trkpt><trkpt lat="43.2160175" lon="12.2604921"><ele>503.40000000000003</ele><time>2026-03-29T08:00:56.811Z</time></trkpt><trkpt lat="43.2160996" lon="12.2605564"><ele>504.6</ele><time>2026-03-29T08:00:58.811Z</time></trkpt><trkpt lat="43.2160818" lon="12.2606738"><ele>505.8</ele><time>2026-03-29T08:01:00.81Z</time></trkpt><trkpt lat="43.2159655" lon="12.2607413"><ele>507.0</ele><time>2026-03-29T08:01:02.81Z</time></trkpt><trkpt lat="43.216056" lon="12.2607581"><ele>504.1666666666667</ele><time>2026-03-29T08:01:07.81Z</time></trkpt><trkpt lat="43.2161621" lon="12.2607398"><ele>501.33333333333337</ele><time>2026-03-29T08:01:10.81Z</time></trkpt><trkpt lat="43.2162307" lon="12.2607419"><ele>498.5</ele><time>2026-03-29T08:01:12.81Z</time></trkpt><trkpt lat="43.2162789" lon="12.2608038"><ele>495.6666666666667</ele><time>2026-03-29T08:01:15.811Z</time></trkpt><trkpt lat="43.216321" lon="12.2608855"><ele>492.83333333333337</ele><time>2026-03-29T08:01:18.811Z</time></trkpt><trkpt lat="43.2162234" lon="12.261005"><ele>490.0</ele><time>2026-03-29T08:01:20.81Z</time></trkpt><trkpt lat="43.2162267" lon="12.2610988"><ele>490.0</ele><time>2026-03-29T08:01:22.811Z</time></trkpt><trkpt lat="43.2162989" lon="12.2611762"><ele>490.0</ele><time>2026-03-29T08:01:24.811Z</time></trkpt><trkpt lat="43.2163724" lon="12.261084"><ele>490.0</ele><time>2026-03-29T08:01:27.811Z</time></trkpt><trkpt lat="43.2164677" lon="12.2609689"><ele>490.0</ele><time>2026-03-29T08:01:31.81Z</time></trkpt><trkpt lat="43.216567" lon="12.2608785"><ele>490.0</ele><time>2026-03-29T08:01:33.811Z</time></trkpt><trkpt lat="43.216667" lon="12.2608362"><ele>491.1666666666667</ele><time>2026-03-29T08:01:35.81Z</time></trkpt><trkpt lat="43.2167418" lon="12.2608299"><ele>492.33333333333337</ele><time>2026-03-29T08:01:36.811Z</time></trkpt><trkpt lat="43.2167719" lon="12.2607471"><ele>493.5</ele><time>2026-03-29T08:01:38.81Z</time></trkpt><trkpt lat="43.2168204" lon="12.2606404"><ele>494.66666666666663</ele><time>2026-03-29T08:01:41.811Z</time></trkpt><trkpt lat="43.2168509" lon="12.2605312"><ele>495.8333333333333</ele><time>2026-03-29T08:01:43.81Z</time></trkpt><trkpt lat="43.2169398" lon="12.2605236"><ele>497.0</ele><time>2026-03-29T08:01:46.81Z</time></trkpt><trkpt lat="43.2170106" lon="12.2605586"><ele>499.6</ele><time>2026-03-29T08:01:48.81Z</time></trkpt><trkpt lat="43.217127" lon="12.2605662"><ele>502.20000000000005</ele><time>2026-03-29T08:01:49.81Z</time></trkpt><trkpt lat="43.2172142" lon="12.2605554"><ele>504.8</ele><time>2026-03-29T08:01:51.811Z</time></trkpt><trkpt lat="43.2173176" lon="12.2606098"><ele>507.4</ele><time>2026-03-29T08:01:53.81Z</time></trkpt><trkpt lat="43.2174232" lon="12.2606479"><ele>510.0</ele><time>2026-03-29T08:01:55.81Z</time></trkpt><trkpt lat="43.2175157" lon="12.2606588"><ele>510.0</ele><time>2026-03-29T08:01:57.811Z</time></trkpt><trkpt lat="43.2175838" lon="12.260673"><ele>510.0</ele><time>2026-03-29T08:01:58.811Z</time></trkpt><trkpt lat="43.2177027" lon="12.2607878"><ele>510.0</ele><time>2026-03-29T08:02:00.811Z</time></trkpt><trkpt lat="43.2176931" lon="12.2609163"><ele>510.0</ele><time>2026-03-29T08:02:02.81Z</time></trkpt><trkpt lat="43.2177208" lon="12.2610732"><ele>510.0</ele><time>2026-03-29T08:02:04.811Z</time></trkpt><trkpt lat="43.2177414" lon="12.2611746"><ele>510.0</ele><time>2026-03-29T08:02:06.811Z</time></trkpt><trkpt lat="43.2177284" lon="12.2612638"><ele>510.0</ele><time>2026-03-29T08:02:08.81Z</time></trkpt><trkpt lat="43.2177333" lon="12.261371"><ele>510.0</ele><time>2026-03-29T08:02:10.81Z</time></trkpt><trkpt lat="43.2176825" lon="12.2615053"><ele>510.0</ele><time>2026-03-29T08:02:12.811Z</time></trkpt><trkpt lat="43.2176775" lon="12.2616447"><ele>510.0</ele><time>2026-03-29T08:02:14.81Z</time></trkpt><trkpt lat="43.2176798" lon="12.2617811"><ele>508.6</ele><time>2026-03-29T08:02:16.811Z</time></trkpt><trkpt lat="43.2177263" lon="12.2618721"><ele>507.2</ele><time>2026-03-29T08:02:18.81Z</time></trkpt><trkpt lat="43.2178141" lon="12.2619297"><ele>505.79999999999995</ele><time>2026-03-29T08:02:19.81Z</time></trkpt><trkpt lat="43.2178548" lon="12.2619974"><ele>504.4</ele><time>2026-03-29T08:02:20.81Z</time></trkpt><trkpt lat="43.2179437" lon="12.2620776"><ele>503.0</ele><time>2026-03-29T08:02:22.811Z</time></trkpt><trkpt lat="43.2180529" lon="12.2620909"><ele>503.0</ele><time>2026-03-29T08:02:24.811Z</time></trkpt><trkpt lat="43.2181365" lon="12.2621433"><ele>502.99999999999994</ele><time>2026-03-29T08:02:26.811Z</time></trkpt><trkpt lat="43.2182354" lon="12.2622422"><ele>502.99999999999994</ele><time>2026-03-29T08:02:28.81Z</time></trkpt><trkpt lat="43.2183192" lon="12.262342"><ele>503.0</ele><time>2026-03-29T08:02:30.811Z</time></trkpt><trkpt lat="43.2184283" lon="12.2623492"><ele>503.0</ele><time>2026-03-29T08:02:32.81Z</time></trkpt><trkpt lat="43.2185239" lon="12.2622971"><ele>508.16666666666663</ele><time>2026-03-29T08:02:34.811Z</time></trkpt><trkpt lat="43.2185997" lon="12.2622324"><ele>513.3333333333333</ele><time>2026-03-29T08:02:35.811Z</time></trkpt><trkpt lat="43.2186617" lon="12.262178"><ele>518.5</ele><time>2026-03-29T08:02:36.811Z</time></trkpt><trkpt lat="43.2187325" lon="12.2621311"><ele>523.6666666666666</ele><time>2026-03-29T08:02:37.811Z</time></trkpt><trkpt lat="43.2188025" lon="12.2621261"><ele>528.8333333333334</ele><time>2026-03-29T08:02:38.811Z</time></trkpt><trkpt lat="43.2188986" lon="12.2621146"><ele>534.0</ele><time>2026-03-29T08:02:40.81Z</time></trkpt><trkpt lat="43.2190192" lon="12.2620773"><ele>536.0</ele><time>2026-03-29T08:02:42.811Z</time></trkpt><trkpt lat="43.2191277" lon="12.2620938"><ele>538.0</ele><time>2026-03-29T08:02:44.811Z</time></trkpt><trkpt lat="43.2192087" lon="12.2620865"><ele>540.0</ele><time>2026-03-29T08:02:46.811Z</time></trkpt><trkpt lat="43.2193191" lon="12.2620269"><ele>542.0</ele><time>2026-03-29T08:02:48.81Z</time></trkpt><trkpt lat="43.2194264" lon="12.2619772"><ele>544.0</ele><time>2026-03-29T08:02:50.81Z</time></trkpt><trkpt lat="43.2195342" lon="12.2619315"><ele>544.0</ele><time>2026-03-29T08:02:52.81Z</time></trkpt><trkpt lat="43.2196044" lon="12.2619229"><ele>544.0</ele><time>2026-03-29T08:02:53.811Z</time></trkpt><trkpt lat="43.2197105" lon="12.2619057"><ele>544.0</ele><time>2026-03-29T08:02:55.811Z</time></trkpt><trkpt lat="43.2197749" lon="12.2619271"><ele>544.0</ele><time>2026-03-29T08:02:57.811Z</time></trkpt><trkpt lat="43.2198679" lon="12.261994"><ele>544.0</ele><time>2026-03-29T08:02:59.81Z</time></trkpt><trkpt lat="43.2199803" lon="12.262088"><ele>543.0</ele><time>2026-03-29T08:03:01.811Z</time></trkpt><trkpt lat="43.2200414" lon="12.2621254"><ele>542.0</ele><time>2026-03-29T08:03:02.81Z</time></trkpt><trkpt lat="43.2201203" lon="12.2622071"><ele>541.0</ele><time>2026-03-29T08:03:04.81Z</time></trkpt><trkpt lat="43.22025" lon="12.2622716"><ele>540.0</ele><time>2026-03-29T08:03:06.81Z</time></trkpt><trkpt lat="43.2203115" lon="12.2623062"><ele>539.0</ele><time>2026-03-29T08:03:08.81Z</time></trkpt><trkpt lat="43.2203918" lon="12.262355"><ele>537.3333333333333</ele><time>2026-03-29T08:03:10.811Z</time></trkpt><trkpt lat="43.2204813" lon="12.2623709"><ele>535.6666666666666</ele><time>2026-03-29T08:03:11.811Z</time></trkpt><trkpt lat="43.2205615" lon="12.262354"><ele>534.0</ele><time>2026-03-29T08:03:12.81Z</time></trkpt><trkpt lat="43.2206275" lon="12.2623334"><ele>532.3333333333334</ele><time>2026-03-29T08:03:13.81Z</time></trkpt><trkpt lat="43.2207406" lon="12.2622783"><ele>530.6666666666667</ele><time>2026-03-29T08:03:15.811Z</time></trkpt><trkpt lat="43.2208093" lon="12.2623238"><ele>529.0</ele><time>2026-03-29T08:03:18.811Z</time></trkpt><trkpt lat="43.220974" lon="12.2623525"><ele>529.0</ele><time>2026-03-29T08:03:20.811Z</time></trkpt><trkpt lat="43.221131" lon="12.2624011"><ele>529.0</ele><time>2026-03-29T08:03:21.811Z</time></trkpt><trkpt lat="43.2212177" lon="12.262419"><ele>529.0</ele><time>2026-03-29T08:03:23.81Z</time></trkpt><trkpt lat="43.2213348" lon="12.2624839"><ele>529.0</ele><time>2026-03-29T08:03:25.811Z</time></trkpt><trkpt lat="43.2213957" lon="12.2625269"><ele>529.0</ele><time>2026-03-29T08:03:26.811Z</time></trkpt><trkpt lat="43.2214754" lon="12.2626438"><ele>530.0</ele><time>2026-03-29T08:03:28.81Z</time></trkpt><trkpt lat="43.2215468" lon="12.262552"><ele>531.0</ele><time>2026-03-29T08:03:35.811Z</time></trkpt><trkpt lat="43.2215969" lon="12.2623608"><ele>532.0</ele><time>2026-03-29T08:03:38.811Z</time></trkpt><trkpt lat="43.2215814" lon="12.2622432"><ele>533.0</ele><time>2026-03-29T08:03:40.811Z</time></trkpt><trkpt lat="43.2215212" lon="12.262165"><ele>534.0</ele><time>2026-03-29T08:03:42.81Z</time></trkpt><trkpt lat="43.221445" lon="12.2620634"><ele>537.0</ele><time>2026-03-29T08:03:44.811Z</time></trkpt><trkpt lat="43.221389" lon="12.2619566"><ele>540.0</ele><time>2026-03-29T08:03:46.81Z</time></trkpt><trkpt lat="43.2214381" lon="12.2618496"><ele>543.0</ele><time>2026-03-29T08:03:48.811Z</time></trkpt><trkpt lat="43.2214666" lon="12.2617242"><ele>546.0</ele><time>2026-03-29T08:03:50.81Z</time></trkpt><trkpt lat="43.2215223" lon="12.2616383"><ele>549.0</ele><time>2026-03-29T08:03:51.81Z</time></trkpt><trkpt lat="43.2215928" lon="12.261609"><ele>552.0</ele><time>2026-03-29T08:05:02.81Z</time></trkpt><trkpt lat="43.2215513" lon="12.2615297"><ele>552.0</ele><time>2026-03-29T08:05:05.811Z</time></trkpt><trkpt lat="43.2214846" lon="12.2614863"><ele>552.0</ele><time>2026-03-29T08:05:16.811Z</time></trkpt><trkpt lat="43.2214168" lon="12.2614403"><ele>552.0</ele><time>2026-03-29T08:05:20.811Z</time></trkpt><trkpt lat="43.2213584" lon="12.261366"><ele>552.0</ele><time>2026-03-29T08:05:30.811Z</time></trkpt><trkpt lat="43.2213125" lon="12.2613055"><ele>552.0</ele><time>2026-03-29T08:05:32.811Z</time></trkpt><trkpt lat="43.2212554" lon="12.2612291"><ele>552.0</ele><time>2026-03-29T08:05:34.811Z</time></trkpt><trkpt lat="43.2211965" lon="12.2611772"><ele>552.0</ele><time>2026-03-29T08:05:37.811Z</time></trkpt><trkpt lat="43.2211717" lon="12.261095"><ele>556.8333333333334</ele><time>2026-03-29T08:05:39.81Z</time></trkpt><trkpt lat="43.221204" lon="12.2609654"><ele>561.6666666666666</ele><time>2026-03-29T08:05:42.811Z</time></trkpt><trkpt lat="43.2212637" lon="12.2608842"><ele>566.5</ele><time>2026-03-29T08:05:43.81Z</time></trkpt><trkpt lat="43.2212594" lon="12.2607968"><ele>571.3333333333333</ele><time>2026-03-29T08:05:44.81Z</time></trkpt><trkpt lat="43.2212588" lon="12.2607094"><ele>576.1666666666666</ele><time>2026-03-29T08:05:45.811Z</time></trkpt><trkpt lat="43.2212421" lon="12.260622"><ele>581.0</ele><time>2026-03-29T08:05:47.811Z</time></trkpt><trkpt lat="43.2211719" lon="12.2605794"><ele>583.0</ele><time>2026-03-29T08:05:49.811Z</time></trkpt><trkpt lat="43.2211126" lon="12.2604679"><ele>585.0</ele><time>2026-03-29T08:05:51.81Z</time></trkpt><trkpt lat="43.2210554" lon="12.2604219"><ele>587.0</ele><time>2026-03-29T08:05:52.811Z</time></trkpt><trkpt lat="43.2209936" lon="12.2603382"><ele>589.0</ele><time>2026-03-29T08:05:53.811Z</time></trkpt><trkpt lat="43.2209333" lon="12.2602555"><ele>591.0</ele><time>2026-03-29T08:05:54.811Z</time></trkpt><trkpt lat="43.2208748" lon="12.2601893"><ele>593.0</ele><time>2026-03-29T08:05:55.811Z</time></trkpt><trkpt lat="43.2208157" lon="12.2601481"><ele>593.0</ele><time>2026-03-29T08:05:56.811Z</time></trkpt><trkpt lat="43.2207546" lon="12.2601037"><ele>593.0</ele><time>2026-03-29T08:05:57.81Z</time></trkpt><trkpt lat="43.2206682" lon="12.25997"><ele>593.0</ele><time>2026-03-29T08:05:58.811Z</time></trkpt><trkpt lat="43.2205821" lon="12.2598996"><ele>593.0</ele><time>2026-03-29T08:05:59.81Z</time></trkpt><trkpt lat="43.220504" lon="12.2598596"><ele>593.0</ele><time>2026-03-29T08:06:00.811Z</time></trkpt><trkpt lat="43.2202805" lon="12.2597801"><ele>593.0</ele><time>2026-03-29T08:06:03.811Z</time></trkpt><trkpt lat="43.2202205" lon="12.2597518"><ele>593.0</ele><time>2026-03-29T08:06:04.81Z</time></trkpt><trkpt lat="43.220152" lon="12.259757"><ele>593.0</ele><time>2026-03-29T08:06:05.811Z</time></trkpt><trkpt lat="43.2200676" lon="12.2597316"><ele>593.0</ele><time>2026-03-29T08:06:06.81Z</time></trkpt><trkpt lat="43.219997" lon="12.2596949"><ele>593.0</ele><time>2026-03-29T08:06:07.81Z</time></trkpt><trkpt lat="43.2199107" lon="12.2596003"><ele>593.0</ele><time>2026-03-29T08:06:09.81Z</time></trkpt><trkpt lat="43.2199036" lon="12.2594609"><ele>593.0</ele><time>2026-03-29T08:06:11.811Z</time></trkpt><trkpt lat="43.2198755" lon="12.2593056"><ele>593.0</ele><time>2026-03-29T08:06:13.811Z</time></trkpt><trkpt lat="43.2198757" lon="12.2591642"><ele>593.0</ele><time>2026-03-29T08:06:15.81Z</time></trkpt><trkpt lat="43.2198435" lon="12.2590498"><ele>593.0</ele><time>2026-03-29T08:06:18.81Z</time></trkpt><trkpt lat="43.2198087" lon="12.2589292"><ele>593.0</ele><time>2026-03-29T08:06:21.811Z</time></trkpt><trkpt lat="43.219785" lon="12.2587987"><ele>595.6</ele><time>2026-03-29T08:06:24.811Z</time></trkpt><trkpt lat="43.2197661" lon="12.2586686"><ele>598.1999999999999</ele><time>2026-03-29T08:06:27.811Z</time></trkpt><trkpt lat="43.2198596" lon="12.2586294"><ele>600.8</ele><time>2026-03-29T08:06:29.811Z</time></trkpt><trkpt lat="43.2199162" lon="12.2585167"><ele>603.4</ele><time>2026-03-29T08:06:31.81Z</time></trkpt><trkpt lat="43.2199911" lon="12.2584083"><ele>606.0</ele><time>2026-03-29T08:06:33.811Z</time></trkpt><trkpt lat="43.2200191" lon="12.258303"><ele>607.2</ele><time>2026-03-29T08:06:35.81Z</time></trkpt><trkpt lat="43.2200206" lon="12.2581887"><ele>608.4000000000001</ele><time>2026-03-29T08:06:37.811Z</time></trkpt><trkpt lat="43.2199337" lon="12.2580905"><ele>609.6</ele><time>2026-03-29T08:06:40.811Z</time></trkpt><trkpt lat="43.2198335" lon="12.2581025"><ele>610.8000000000001</ele><time>2026-03-29T08:06:42.811Z</time></trkpt><trkpt lat="43.2197742" lon="12.2580354"><ele>612.0</ele><time>2026-03-29T08:06:44.811Z</time></trkpt><trkpt lat="43.2197915" lon="12.2579212"><ele>616.4</ele><time>2026-03-29T08:06:46.811Z</time></trkpt><trkpt lat="43.21981" lon="12.2577867"><ele>620.8000000000001</ele><time>2026-03-29T08:06:48.811Z</time></trkpt><trkpt lat="43.2198656" lon="12.2576331"><ele>625.2</ele><time>2026-03-29T08:06:50.811Z</time></trkpt><trkpt lat="43.2199432" lon="12.2574906"><ele>629.6</ele><time>2026-03-29T08:06:52.81Z</time></trkpt><trkpt lat="43.2199531" lon="12.2574008"><ele>634.0</ele><time>2026-03-29T08:06:53.811Z</time></trkpt><trkpt lat="43.2199599" lon="12.2573116"><ele>636.6666666666667</ele><time>2026-03-29T08:06:54.811Z</time></trkpt><trkpt lat="43.2199834" lon="12.2571734"><ele>639.3333333333334</ele><time>2026-03-29T08:06:56.811Z</time></trkpt><trkpt lat="43.2200354" lon="12.257106"><ele>642.0</ele><time>2026-03-29T08:06:57.81Z</time></trkpt><trkpt lat="43.2200782" lon="12.2570377"><ele>644.6666666666666</ele><time>2026-03-29T08:06:58.81Z</time></trkpt><trkpt lat="43.2201284" lon="12.2569632"><ele>647.3333333333333</ele><time>2026-03-29T08:06:59.81Z</time></trkpt><trkpt lat="43.2201769" lon="12.2568312"><ele>650.0</ele><time>2026-03-29T08:07:01.81Z</time></trkpt><trkpt lat="43.2202066" lon="12.2567549"><ele>650.0</ele><time>2026-03-29T08:07:02.81Z</time></trkpt><trkpt lat="43.2202047" lon="12.2566371"><ele>650.0</ele><time>2026-03-29T08:07:04.811Z</time></trkpt><trkpt lat="43.220152" lon="12.2565536"><ele>650.0</ele><time>2026-03-29T08:07:06.81Z</time></trkpt><trkpt lat="43.2200542" lon="12.2565848"><ele>650.0</ele><time>2026-03-29T08:07:10.811Z</time></trkpt><trkpt lat="43.2199842" lon="12.256633"><ele>650.0</ele><time>2026-03-29T08:07:12.811Z</time></trkpt><trkpt lat="43.2199043" lon="12.2566804"><ele>650.0</ele><time>2026-03-29T08:07:13.811Z</time></trkpt><trkpt lat="43.2198237" lon="12.2567037"><ele>649.0</ele><time>2026-03-29T08:07:14.81Z</time></trkpt><trkpt lat="43.2197171" lon="12.2567222"><ele>648.0</ele><time>2026-03-29T08:07:16.811Z</time></trkpt><trkpt lat="43.2196836" lon="12.2566338"><ele>647.0</ele><time>2026-03-29T08:10:52.811Z</time></trkpt><trkpt lat="43.2196085" lon="12.2565817"><ele>646.0</ele><time>2026-03-29T08:11:01.81Z</time></trkpt><trkpt lat="43.2195418" lon="12.2564898"><ele>645.0</ele><time>2026-03-29T08:11:03.811Z</time></trkpt><trkpt lat="43.2194799" lon="12.2564114"><ele>644.0</ele><time>2026-03-29T08:11:05.81Z</time></trkpt><trkpt lat="43.2194657" lon="12.2563027"><ele>644.0</ele><time>2026-03-29T08:11:07.81Z</time></trkpt><trkpt lat="43.2195088" lon="12.2561994"><ele>644.0</ele><time>2026-03-29T08:11:09.81Z</time></trkpt><trkpt lat="43.2195449" lon="12.2561238"><ele>644.0</ele><time>2026-03-29T08:11:12.811Z</time></trkpt><trkpt lat="43.219589" lon="12.2560037"><ele>644.0</ele><time>2026-03-29T08:11:14.811Z</time></trkpt><trkpt lat="43.2196658" lon="12.2560286"><ele>644.0</ele><time>2026-03-29T08:11:17.811Z</time></trkpt><trkpt lat="43.2197068" lon="12.256103"><ele>644.0</ele><time>2026-03-29T08:11:20.811Z</time></trkpt><trkpt lat="43.2197752" lon="12.2561269"><ele>648.2</ele><time>2026-03-29T08:11:22.811Z</time></trkpt><trkpt lat="43.2198951" lon="12.2561429"><ele>652.4000000000001</ele><time>2026-03-29T08:11:24.81Z</time></trkpt><trkpt lat="43.2200076" lon="12.2561241"><ele>656.6</ele><time>2026-03-29T08:11:25.811Z</time></trkpt><trkpt lat="43.2201185" lon="12.2561069"><ele>660.8</ele><time>2026-03-29T08:11:26.811Z</time></trkpt><trkpt lat="43.2202086" lon="12.2560834"><ele>665.0</ele><time>2026-03-29T08:11:27.81Z</time></trkpt><trkpt lat="43.2202904" lon="12.2560189"><ele>665.0</ele><time>2026-03-29T08:11:28.811Z</time></trkpt><trkpt lat="43.2203612" lon="12.2559662"><ele>665.0</ele><time>2026-03-29T08:11:29.81Z</time></trkpt><trkpt lat="43.220432" lon="12.2559256"><ele>665.0</ele><time>2026-03-29T08:11:30.811Z</time></trkpt><trkpt lat="43.2205034" lon="12.2558737"><ele>665.0</ele><time>2026-03-29T08:11:31.811Z</time></trkpt><trkpt lat="43.2205559" lon="12.2558093"><ele>665.0</ele><time>2026-03-29T08:11:32.811Z</time></trkpt><trkpt lat="43.2206283" lon="12.2557462"><ele>665.0</ele><time>2026-03-29T08:11:33.81Z</time></trkpt><trkpt lat="43.2206992" lon="12.255669"><ele>664.1666666666666</ele><time>2026-03-29T08:11:34.811Z</time></trkpt><trkpt lat="43.2207614" lon="12.2555539"><ele>663.3333333333333</ele><time>2026-03-29T08:11:35.811Z</time></trkpt><trkpt lat="43.2208266" lon="12.2554612"><ele>662.5</ele><time>2026-03-29T08:11:36.811Z</time></trkpt><trkpt lat="43.2208866" lon="12.2553928"><ele>661.6666666666666</ele><time>2026-03-29T08:11:37.811Z</time></trkpt><trkpt lat="43.2209333" lon="12.2553129"><ele>660.8333333333334</ele><time>2026-03-29T08:11:38.811Z</time></trkpt><trkpt lat="43.2209796" lon="12.2552251"><ele>660.0</ele><time>2026-03-29T08:11:39.811Z</time></trkpt><trkpt lat="43.2210158" lon="12.2551329"><ele>660.0</ele><time>2026-03-29T08:11:40.811Z</time></trkpt><trkpt lat="43.2210448" lon="12.2550338"><ele>660.0</ele><time>2026-03-29T08:11:41.811Z</time></trkpt><trkpt lat="43.2210707" lon="12.2549402"><ele>660.0</ele><time>2026-03-29T08:11:42.811Z</time></trkpt><trkpt lat="43.2211061" lon="12.2548424"><ele>660.0</ele><time>2026-03-29T08:11:43.811Z</time></trkpt><trkpt lat="43.221182" lon="12.2547709"><ele>660.0</ele><time>2026-03-29T08:11:44.81Z</time></trkpt><trkpt lat="43.2212527" lon="12.2546916"><ele>660.0</ele><time>2026-03-29T08:11:45.81Z</time></trkpt><trkpt lat="43.2212884" lon="12.2545852"><ele>660.0</ele><time>2026-03-29T08:11:46.811Z</time></trkpt><trkpt lat="43.2213404" lon="12.2544984"><ele>660.0</ele><time>2026-03-29T08:11:47.81Z</time></trkpt><trkpt lat="43.2213914" lon="12.254411"><ele>660.0</ele><time>2026-03-29T08:11:48.811Z</time></trkpt><trkpt lat="43.2214661" lon="12.2543305"><ele>660.0</ele><time>2026-03-29T08:11:50.811Z</time></trkpt><trkpt lat="43.2215583" lon="12.2543488"><ele>660.0</ele><time>2026-03-29T08:11:51.811Z</time></trkpt><trkpt lat="43.2217113" lon="12.2544259"><ele>660.0</ele><time>2026-03-29T08:11:52.811Z</time></trkpt><trkpt lat="43.2218526" lon="12.25449"><ele>660.0</ele><time>2026-03-29T08:11:54.81Z</time></trkpt><trkpt lat="43.2218937" lon="12.2545585"><ele>660.0</ele><time>2026-03-29T08:11:55.811Z</time></trkpt><trkpt lat="43.2219463" lon="12.2546735"><ele>660.0</ele><time>2026-03-29T08:11:56.811Z</time></trkpt><trkpt lat="43.221998" lon="12.2547866"><ele>660.0</ele><time>2026-03-29T08:11:57.811Z</time></trkpt><trkpt lat="43.2220648" lon="12.2548686"><ele>655.0</ele><time>2026-03-29T08:11:58.811Z</time></trkpt><trkpt lat="43.2221657" lon="12.2549285"><ele>650.0</ele><time>2026-03-29T08:11:59.811Z</time></trkpt><trkpt lat="43.222241" lon="12.2549662"><ele>645.0</ele><time>2026-03-29T08:12:00.811Z</time></trkpt><trkpt lat="43.2223492" lon="12.2548853"><ele>640.0</ele><time>2026-03-29T08:12:01.81Z</time></trkpt><trkpt lat="43.2224416" lon="12.2548445"><ele>635.0</ele><time>2026-03-29T08:12:02.811Z</time></trkpt><trkpt lat="43.2225389" lon="12.2547991"><ele>634.3333333333333</ele><time>2026-03-29T08:12:03.811Z</time></trkpt><trkpt lat="43.2226322" lon="12.2548419"><ele>633.6666666666666</ele><time>2026-03-29T08:12:05.811Z</time></trkpt><trkpt lat="43.2226984" lon="12.2548818"><ele>633.0</ele><time>2026-03-29T08:12:06.811Z</time></trkpt><trkpt lat="43.2227452" lon="12.2549707"><ele>632.3333333333334</ele><time>2026-03-29T08:12:07.811Z</time></trkpt><trkpt lat="43.2228211" lon="12.255027"><ele>631.6666666666667</ele><time>2026-03-29T08:12:08.811Z</time></trkpt><trkpt lat="43.2228922" lon="12.2551144"><ele>631.0</ele><time>2026-03-29T08:12:09.811Z</time></trkpt><trkpt lat="43.2229218" lon="12.2552107"><ele>631.0</ele><time>2026-03-29T08:12:10.811Z</time></trkpt><trkpt lat="43.2229751" lon="12.2552826"><ele>631.0</ele><time>2026-03-29T08:12:11.811Z</time></trkpt><trkpt lat="43.2230429" lon="12.2553135"><ele>631.0</ele><time>2026-03-29T08:12:12.811Z</time></trkpt><trkpt lat="43.2231266" lon="12.2552522"><ele>631.0</ele><time>2026-03-29T08:12:14.811Z</time></trkpt><trkpt lat="43.2231899" lon="12.2552365"><ele>631.0</ele><time>2026-03-29T08:12:18.811Z</time></trkpt><trkpt lat="43.2232536" lon="12.2552048"><ele>631.0</ele><time>2026-03-29T08:12:20.811Z</time></trkpt><trkpt lat="43.2233228" lon="12.2551412"><ele>633.4</ele><time>2026-03-29T08:12:22.811Z</time></trkpt><trkpt lat="43.2233306" lon="12.2550468"><ele>635.8</ele><time>2026-03-29T08:12:23.81Z</time></trkpt><trkpt lat="43.2233721" lon="12.254899"><ele>638.1999999999999</ele><time>2026-03-29T08:12:25.811Z</time></trkpt><trkpt lat="43.2234868" lon="12.2548476"><ele>640.6</ele><time>2026-03-29T08:12:27.811Z</time></trkpt><trkpt lat="43.223573" lon="12.2547892"><ele>643.0</ele><time>2026-03-29T08:12:28.811Z</time></trkpt><trkpt lat="43.2236597" lon="12.2547234"><ele>648.75</ele><time>2026-03-29T08:12:29.811Z</time></trkpt><trkpt lat="43.2237084" lon="12.2546199"><ele>654.5</ele><time>2026-03-29T08:12:30.81Z</time></trkpt><trkpt lat="43.2237958" lon="12.2545227"><ele>660.25</ele><time>2026-03-29T08:12:31.811Z</time></trkpt><trkpt lat="43.2238735" lon="12.2544111"><ele>666.0</ele><time>2026-03-29T08:12:32.811Z</time></trkpt><trkpt lat="43.2239903" lon="12.25431"><ele>666.0</ele><time>2026-03-29T08:12:33.811Z</time></trkpt><trkpt lat="43.2241028" lon="12.2541993"><ele>666.0</ele><time>2026-03-29T08:12:34.81Z</time></trkpt><trkpt lat="43.2241987" lon="12.2541056"><ele>666.0</ele><time>2026-03-29T08:12:35.81Z</time></trkpt><trkpt lat="43.2242782" lon="12.2540108"><ele>666.0</ele><time>2026-03-29T08:12:36.81Z</time></trkpt><trkpt lat="43.2243525" lon="12.2539386"><ele>671.0</ele><time>2026-03-29T08:12:37.81Z</time></trkpt><trkpt lat="43.2244325" lon="12.2538683"><ele>676.0</ele><time>2026-03-29T08:12:38.811Z</time></trkpt><trkpt lat="43.224519" lon="12.2538515"><ele>681.0</ele><time>2026-03-29T08:12:39.81Z</time></trkpt><trkpt lat="43.2246136" lon="12.2538616"><ele>686.0</ele><time>2026-03-29T08:12:40.811Z</time></trkpt><trkpt lat="43.2247703" lon="12.2538888"><ele>691.0</ele><time>2026-03-29T08:12:41.811Z</time></trkpt><trkpt lat="43.2248841" lon="12.2538977"><ele>692.1999999999999</ele><time>2026-03-29T08:12:42.811Z</time></trkpt><trkpt lat="43.2249749" lon="12.2539449"><ele>693.4</ele><time>2026-03-29T08:12:43.81Z</time></trkpt><trkpt lat="43.2250739" lon="12.2540133"><ele>694.6</ele><time>2026-03-29T08:12:44.81Z</time></trkpt><trkpt lat="43.2251623" lon="12.2540754"><ele>695.8</ele><time>2026-03-29T08:12:45.811Z</time></trkpt><trkpt lat="43.2252408" lon="12.2540936"><ele>697.0</ele><time>2026-03-29T08:12:46.811Z</time></trkpt><trkpt lat="43.2253162" lon="12.2541502"><ele>692.8</ele><time>2026-03-29T08:12:47.811Z</time></trkpt><trkpt lat="43.2254249" lon="12.2541497"><ele>688.6</ele><time>2026-03-29T08:12:48.811Z</time></trkpt><trkpt lat="43.2255201" lon="12.2541719"><ele>684.4</ele><time>2026-03-29T08:12:49.811Z</time></trkpt><trkpt lat="43.2256108" lon="12.2541738"><ele>680.1999999999999</ele><time>2026-03-29T08:12:50.811Z</time></trkpt><trkpt lat="43.225694" lon="12.2541677"><ele>676.0</ele><time>2026-03-29T08:12:51.811Z</time></trkpt><trkpt lat="43.2258021" lon="12.2541054"><ele>676.0</ele><time>2026-03-29T08:12:52.811Z</time></trkpt><trkpt lat="43.2258713" lon="12.2539872"><ele>676.0</ele><time>2026-03-29T08:12:53.811Z</time></trkpt><trkpt lat="43.2259375" lon="12.2538744"><ele>676.0</ele><time>2026-03-29T08:12:54.811Z</time></trkpt><trkpt lat="43.225937" lon="12.2537748"><ele>676.0</ele><time>2026-03-29T08:12:55.811Z</time></trkpt><trkpt lat="43.2259531" lon="12.2536627"><ele>676.0</ele><time>2026-03-29T08:12:56.811Z</time></trkpt><trkpt lat="43.2259357" lon="12.2535668"><ele>676.0</ele><time>2026-03-29T08:12:57.81Z</time></trkpt><trkpt lat="43.2259537" lon="12.2534692"><ele>680.75</ele><time>2026-03-29T08:12:58.81Z</time></trkpt><trkpt lat="43.2259924" lon="12.2532955"><ele>685.5</ele><time>2026-03-29T08:12:59.811Z</time></trkpt><trkpt lat="43.2260288" lon="12.2531261"><ele>690.25</ele><time>2026-03-29T08:13:00.811Z</time></trkpt><trkpt lat="43.2260753" lon="12.2529366"><ele>695.0</ele><time>2026-03-29T08:13:01.811Z</time></trkpt><trkpt lat="43.2260911" lon="12.2527638"><ele>698.4</ele><time>2026-03-29T08:13:02.811Z</time></trkpt><trkpt lat="43.2261036" lon="12.2526084"><ele>701.8</ele><time>2026-03-29T08:13:03.811Z</time></trkpt><trkpt lat="43.226085" lon="12.2524629"><ele>705.2</ele><time>2026-03-29T08:13:04.811Z</time></trkpt><trkpt lat="43.22608" lon="12.2523311"><ele>708.6</ele><time>2026-03-29T08:13:05.81Z</time></trkpt><trkpt lat="43.2261046" lon="12.2521908"><ele>712.0</ele><time>2026-03-29T08:13:06.81Z</time></trkpt><trkpt lat="43.2261681" lon="12.2521609"><ele>714.0</ele><time>2026-03-29T08:13:07.811Z</time></trkpt><trkpt lat="43.2262821" lon="12.2521251"><ele>716.0</ele><time>2026-03-29T08:13:08.81Z</time></trkpt><trkpt lat="43.2263581" lon="12.2520955"><ele>718.0</ele><time>2026-03-29T08:13:09.81Z</time></trkpt><trkpt lat="43.22645" lon="12.2520588"><ele>720.0</ele><time>2026-03-29T08:13:10.811Z</time></trkpt><trkpt lat="43.2265398" lon="12.2520036"><ele>722.0</ele><time>2026-03-29T08:13:11.81Z</time></trkpt><trkpt lat="43.2266328" lon="12.2519991"><ele>722.0</ele><time>2026-03-29T08:13:12.811Z</time></trkpt><trkpt lat="43.2267464" lon="12.2519618"><ele>722.0</ele><time>2026-03-29T08:13:13.811Z</time></trkpt><trkpt lat="43.2268306" lon="12.2518736"><ele>722.0</ele><time>2026-03-29T08:13:14.81Z</time></trkpt><trkpt lat="43.2269505" lon="12.2518169"><ele>722.0</ele><time>2026-03-29T08:13:15.81Z</time></trkpt><trkpt lat="43.2271638" lon="12.2516389"><ele>722.0</ele><time>2026-03-29T08:13:17.811Z</time></trkpt><trkpt lat="43.2272731" lon="12.251595"><ele>722.0</ele><time>2026-03-29T08:13:18.811Z</time></trkpt><trkpt lat="43.2273642" lon="12.2515776"><ele>722.0</ele><time>2026-03-29T08:13:19.811Z</time></trkpt><trkpt lat="43.2274646" lon="12.2515705"><ele>722.0</ele><time>2026-03-29T08:13:20.81Z</time></trkpt><trkpt lat="43.2275582" lon="12.2515701"><ele>722.0</ele><time>2026-03-29T08:13:21.811Z</time></trkpt><trkpt lat="43.2276718" lon="12.2516131"><ele>722.0</ele><time>2026-03-29T08:13:22.811Z</time></trkpt><trkpt lat="43.2277763" lon="12.2516324"><ele>722.0</ele><time>2026-03-29T08:13:23.81Z</time></trkpt><trkpt lat="43.2279172" lon="12.2516186"><ele>722.0</ele><time>2026-03-29T08:13:24.81Z</time></trkpt><trkpt lat="43.2280728" lon="12.2516512"><ele>722.0</ele><time>2026-03-29T08:13:25.811Z</time></trkpt><trkpt lat="43.2281982" lon="12.251676"><ele>722.2</ele><time>2026-03-29T08:13:26.811Z</time></trkpt><trkpt lat="43.2283139" lon="12.251704"><ele>722.4000000000001</ele><time>2026-03-29T08:13:27.811Z</time></trkpt><trkpt lat="43.2284287" lon="12.2517477"><ele>722.5999999999999</ele><time>2026-03-29T08:13:28.811Z</time></trkpt><trkpt lat="43.2285224" lon="12.251734"><ele>722.8</ele><time>2026-03-29T08:13:29.81Z</time></trkpt><trkpt lat="43.2285826" lon="12.2517084"><ele>723.0</ele><time>2026-03-29T08:13:30.81Z</time></trkpt><trkpt lat="43.2286612" lon="12.2516715"><ele>723.0</ele><time>2026-03-29T08:13:31.81Z</time></trkpt><trkpt lat="43.2287447" lon="12.2516051"><ele>723.0</ele><time>2026-03-29T08:13:32.811Z</time></trkpt><trkpt lat="43.2288256" lon="12.2514658"><ele>723.0</ele><time>2026-03-29T08:13:33.81Z</time></trkpt><trkpt lat="43.2289803" lon="12.2512439"><ele>725.2</ele><time>2026-03-29T08:13:35.811Z</time></trkpt><trkpt lat="43.2290605" lon="12.2511293"><ele>727.4</ele><time>2026-03-29T08:13:36.811Z</time></trkpt><trkpt lat="43.2291466" lon="12.2510273"><ele>729.6</ele><time>2026-03-29T08:13:37.81Z</time></trkpt><trkpt lat="43.2292551" lon="12.2509876"><ele>731.8000000000001</ele><time>2026-03-29T08:13:38.811Z</time></trkpt><trkpt lat="43.2293459" lon="12.2509187"><ele>734.0</ele><time>2026-03-29T08:13:39.811Z</time></trkpt><trkpt lat="43.2294403" lon="12.2507776"><ele>734.0</ele><time>2026-03-29T08:13:41.811Z</time></trkpt><trkpt lat="43.2295032" lon="12.2506517"><ele>734.0</ele><time>2026-03-29T08:13:42.81Z</time></trkpt><trkpt lat="43.2295549" lon="12.2505863"><ele>734.0</ele><time>2026-03-29T08:13:43.811Z</time></trkpt><trkpt lat="43.2296347" lon="12.2505103"><ele>734.0</ele><time>2026-03-29T08:13:44.811Z</time></trkpt><trkpt lat="43.2297004" lon="12.2504505"><ele>734.0</ele><time>2026-03-29T08:13:45.81Z</time></trkpt><trkpt lat="43.2297914" lon="12.2504239"><ele>737.25</ele><time>2026-03-29T08:13:46.81Z</time></trkpt><trkpt lat="43.2298691" lon="12.2504007"><ele>740.5</ele><time>2026-03-29T08:13:47.81Z</time></trkpt><trkpt lat="43.2300281" lon="12.2503825"><ele>743.75</ele><time>2026-03-29T08:13:48.811Z</time></trkpt><trkpt lat="43.2301244" lon="12.2503647"><ele>747.0</ele><time>2026-03-29T08:13:49.811Z</time></trkpt><trkpt lat="43.2302896" lon="12.2504936"><ele>747.0</ele><time>2026-03-29T08:13:50.81Z</time></trkpt><trkpt lat="43.2304121" lon="12.2505287"><ele>747.0</ele><time>2026-03-29T08:13:51.811Z</time></trkpt><trkpt lat="43.2304982" lon="12.2505405"><ele>747.0</ele><time>2026-03-29T08:13:52.811Z</time></trkpt><trkpt lat="43.2306073" lon="12.2505653"><ele>747.0</ele><time>2026-03-29T08:13:53.811Z</time></trkpt><trkpt lat="43.2306977" lon="12.2505025"><ele>747.0</ele><time>2026-03-29T08:13:54.811Z</time></trkpt><trkpt lat="43.2308195" lon="12.2504777"><ele>745.5</ele><time>2026-03-29T08:13:55.811Z</time></trkpt><trkpt lat="43.2308952" lon="12.2504428"><ele>744.0</ele><time>2026-03-29T08:13:56.811Z</time></trkpt><trkpt lat="43.2309588" lon="12.2503862"><ele>742.5</ele><time>2026-03-29T08:13:57.81Z</time></trkpt><trkpt lat="43.2310233" lon="12.2502996"><ele>741.0</ele><time>2026-03-29T08:13:58.81Z</time></trkpt><trkpt lat="43.2310874" lon="12.2502352"><ele>739.5</ele><time>2026-03-29T08:13:59.811Z</time></trkpt><trkpt lat="43.2311709" lon="12.2501839"><ele>738.0</ele><time>2026-03-29T08:14:00.81Z</time></trkpt><trkpt lat="43.2312797" lon="12.2501269"><ele>738.0</ele><time>2026-03-29T08:14:01.811Z</time></trkpt><trkpt lat="43.2313962" lon="12.2501017"><ele>738.0</ele><time>2026-03-29T08:14:02.811Z</time></trkpt><trkpt lat="43.2315199" lon="12.2500993"><ele>738.0</ele><time>2026-03-29T08:14:03.81Z</time></trkpt><trkpt lat="43.2316159" lon="12.2501125"><ele>738.0</ele><time>2026-03-29T08:14:04.811Z</time></trkpt><trkpt lat="43.2317242" lon="12.2501463"><ele>738.0</ele><time>2026-03-29T08:14:05.81Z</time></trkpt><trkpt lat="43.2318176" lon="12.25015"><ele>735.8</ele><time>2026-03-29T08:14:06.81Z</time></trkpt><trkpt lat="43.231904" lon="12.2501396"><ele>733.5999999999999</ele><time>2026-03-29T08:14:07.811Z</time></trkpt><trkpt lat="43.2319967" lon="12.2501153"><ele>731.4000000000001</ele><time>2026-03-29T08:14:08.811Z</time></trkpt><trkpt lat="43.232081" lon="12.2500583"><ele>729.2</ele><time>2026-03-29T08:14:09.81Z</time></trkpt><trkpt lat="43.2321796" lon="12.2499861"><ele>727.0</ele><time>2026-03-29T08:14:10.811Z</time></trkpt><trkpt lat="43.2322724" lon="12.2499108"><ele>728.0</ele><time>2026-03-29T08:14:11.811Z</time></trkpt><trkpt lat="43.2323529" lon="12.2498232"><ele>729.0</ele><time>2026-03-29T08:14:12.81Z</time></trkpt><trkpt lat="43.2324353" lon="12.2497227"><ele>730.0</ele><time>2026-03-29T08:14:13.81Z</time></trkpt><trkpt lat="43.2325147" lon="12.2496166"><ele>731.0</ele><time>2026-03-29T08:14:14.81Z</time></trkpt><trkpt lat="43.2325637" lon="12.2495099"><ele>732.0</ele><time>2026-03-29T08:14:15.81Z</time></trkpt><trkpt lat="43.2326195" lon="12.2494365"><ele>732.0</ele><time>2026-03-29T08:14:16.811Z</time></trkpt><trkpt lat="43.2326901" lon="12.2493847"><ele>732.0</ele><time>2026-03-29T08:14:17.81Z</time></trkpt><trkpt lat="43.2327796" lon="12.24934"><ele>732.0</ele><time>2026-03-29T08:14:18.81Z</time></trkpt><trkpt lat="43.2328979" lon="12.2492842"><ele>732.0</ele><time>2026-03-29T08:14:19.81Z</time></trkpt><trkpt lat="43.2330256" lon="12.249225"><ele>732.0</ele><time>2026-03-29T08:14:20.811Z</time></trkpt><trkpt lat="43.2331477" lon="12.2491709"><ele>729.6</ele><time>2026-03-29T08:14:21.811Z</time></trkpt><trkpt lat="43.2332503" lon="12.2491171"><ele>727.2</ele><time>2026-03-29T08:14:22.811Z</time></trkpt><trkpt lat="43.2333504" lon="12.2490786"><ele>724.8</ele><time>2026-03-29T08:14:23.811Z</time></trkpt><trkpt lat="43.2334518" lon="12.2490277"><ele>722.4</ele><time>2026-03-29T08:14:24.811Z</time></trkpt><trkpt lat="43.2335173" lon="12.2489905"><ele>720.0</ele><time>2026-03-29T08:14:25.81Z</time></trkpt><trkpt lat="43.2335933" lon="12.2490116"><ele>720.0</ele><time>2026-03-29T08:14:26.81Z</time></trkpt><trkpt lat="43.2337328" lon="12.2490268"><ele>720.0</ele><time>2026-03-29T08:14:28.81Z</time></trkpt><trkpt lat="43.2337972" lon="12.2490438"><ele>720.0</ele><time>2026-03-29T08:14:29.81Z</time></trkpt><trkpt lat="43.2339135" lon="12.2490711"><ele>720.0</ele><time>2026-03-29T08:14:31.81Z</time></trkpt><trkpt lat="43.2339818" lon="12.249086"><ele>720.0</ele><time>2026-03-29T08:14:32.81Z</time></trkpt><trkpt lat="43.2340569" lon="12.2491088"><ele>719.2</ele><time>2026-03-29T08:14:33.81Z</time></trkpt><trkpt lat="43.2341458" lon="12.2491286"><ele>718.4</ele><time>2026-03-29T08:14:34.81Z</time></trkpt><trkpt lat="43.2342403" lon="12.2491822"><ele>717.5999999999999</ele><time>2026-03-29T08:14:35.81Z</time></trkpt><trkpt lat="43.2343427" lon="12.2491992"><ele>716.8</ele><time>2026-03-29T08:14:36.811Z</time></trkpt><trkpt lat="43.2344332" lon="12.2492257"><ele>716.0</ele><time>2026-03-29T08:14:37.81Z</time></trkpt><trkpt lat="43.2345196" lon="12.2492517"><ele>716.0</ele><time>2026-03-29T08:14:38.81Z</time></trkpt><trkpt lat="43.2346039" lon="12.249258"><ele>716.0</ele><time>2026-03-29T08:14:39.811Z</time></trkpt><trkpt lat="43.2347458" lon="12.2490889"><ele>716.0</ele><time>2026-03-29T08:14:41.811Z</time></trkpt><trkpt lat="43.234792" lon="12.2490014"><ele>716.0</ele><time>2026-03-29T08:14:42.811Z</time></trkpt><trkpt lat="43.2348241" lon="12.2488662"><ele>717.5999999999999</ele><time>2026-03-29T08:14:43.811Z</time></trkpt><trkpt lat="43.2348571" lon="12.2487294"><ele>719.2</ele><time>2026-03-29T08:14:44.81Z</time></trkpt><trkpt lat="43.234857" lon="12.2486051"><ele>720.8</ele><time>2026-03-29T08:14:45.811Z</time></trkpt><trkpt lat="43.234894" lon="12.2484984"><ele>722.4000000000001</ele><time>2026-03-29T08:14:46.811Z</time></trkpt><trkpt lat="43.2349428" lon="12.2483705"><ele>724.0</ele><time>2026-03-29T08:14:47.811Z</time></trkpt><trkpt lat="43.2350722" lon="12.2483147"><ele>724.0</ele><time>2026-03-29T08:14:48.811Z</time></trkpt><trkpt lat="43.2351504" lon="12.2482169"><ele>724.0</ele><time>2026-03-29T08:14:49.811Z</time></trkpt><trkpt lat="43.2352236" lon="12.2481226"><ele>724.0</ele><time>2026-03-29T08:14:50.81Z</time></trkpt><trkpt lat="43.2352595" lon="12.2480088"><ele>724.0</ele><time>2026-03-29T08:14:51.811Z</time></trkpt><trkpt lat="43.2352998" lon="12.2478907"><ele>724.0</ele><time>2026-03-29T08:14:52.811Z</time></trkpt><trkpt lat="43.235195" lon="12.2478164"><ele>723.2</ele><time>2026-03-29T08:14:53.81Z</time></trkpt><trkpt lat="43.2352247" lon="12.2477226"><ele>722.4000000000001</ele><time>2026-03-29T08:14:54.81Z</time></trkpt><trkpt lat="43.2352839" lon="12.2476748"><ele>721.6</ele><time>2026-03-29T08:14:55.81Z</time></trkpt><trkpt lat="43.2354005" lon="12.2476368"><ele>720.8</ele><time>2026-03-29T08:14:56.811Z</time></trkpt><trkpt lat="43.2355436" lon="12.2475952"><ele>720.0</ele><time>2026-03-29T08:14:57.81Z</time></trkpt><trkpt lat="43.2356429" lon="12.2475027"><ele>720.0</ele><time>2026-03-29T08:14:58.811Z</time></trkpt><trkpt lat="43.2357179" lon="12.2473868"><ele>720.0</ele><time>2026-03-29T08:14:59.811Z</time></trkpt><trkpt lat="43.235821" lon="12.2472695"><ele>720.0</ele><time>2026-03-29T08:15:00.811Z</time></trkpt><trkpt lat="43.2359174" lon="12.247132"><ele>720.0</ele><time>2026-03-29T08:15:01.811Z</time></trkpt><trkpt lat="43.2360263" lon="12.2470269"><ele>722.0</ele><time>2026-03-29T08:15:02.811Z</time></trkpt><trkpt lat="43.236122" lon="12.2469513"><ele>724.0</ele><time>2026-03-29T08:15:03.811Z</time></trkpt><trkpt lat="43.2362764" lon="12.2468624"><ele>726.0</ele><time>2026-03-29T08:15:05.811Z</time></trkpt><trkpt lat="43.2363075" lon="12.2467735"><ele>728.0</ele><time>2026-03-29T08:15:06.811Z</time></trkpt><trkpt lat="43.2363479" lon="12.2466836"><ele>730.0</ele><time>2026-03-29T08:15:07.811Z</time></trkpt><trkpt lat="43.2363816" lon="12.2465241"><ele>728.75</ele><time>2026-03-29T08:15:08.811Z</time></trkpt><trkpt lat="43.2364244" lon="12.2463754"><ele>727.5</ele><time>2026-03-29T08:15:09.811Z</time></trkpt><trkpt lat="43.2364724" lon="12.2462182"><ele>726.25</ele><time>2026-03-29T08:15:10.811Z</time></trkpt><trkpt lat="43.2365105" lon="12.2460433"><ele>725.0</ele><time>2026-03-29T08:15:11.81Z</time></trkpt><trkpt lat="43.2365449" lon="12.2459139"><ele>725.2</ele><time>2026-03-29T08:15:12.811Z</time></trkpt><trkpt lat="43.2365535" lon="12.2458076"><ele>725.4</ele><time>2026-03-29T08:15:13.811Z</time></trkpt><trkpt lat="43.236577" lon="12.2456614"><ele>725.5999999999999</ele><time>2026-03-29T08:15:15.81Z</time></trkpt><trkpt lat="43.2366154" lon="12.2455301"><ele>725.8</ele><time>2026-03-29T08:15:17.81Z</time></trkpt><trkpt lat="43.2367045" lon="12.2454197"><ele>726.0</ele><time>2026-03-29T08:15:19.81Z</time></trkpt><trkpt lat="43.2367477" lon="12.2453538"><ele>726.0</ele><time>2026-03-29T08:15:20.81Z</time></trkpt><trkpt lat="43.2367981" lon="12.2452924"><ele>726.0</ele><time>2026-03-29T08:15:21.811Z</time></trkpt><trkpt lat="43.2368723" lon="12.2452172"><ele>726.0</ele><time>2026-03-29T08:15:22.811Z</time></trkpt><trkpt lat="43.2369293" lon="12.2451601"><ele>726.0</ele><time>2026-03-29T08:15:23.811Z</time></trkpt><trkpt lat="43.2369969" lon="12.245092"><ele>726.0</ele><time>2026-03-29T08:15:24.81Z</time></trkpt><trkpt lat="43.2370638" lon="12.2450341"><ele>726.0</ele><time>2026-03-29T08:15:25.811Z</time></trkpt><trkpt lat="43.2371528" lon="12.2449715"><ele>726.0</ele><time>2026-03-29T08:15:26.81Z</time></trkpt><trkpt lat="43.2372028" lon="12.2448922"><ele>726.0</ele><time>2026-03-29T08:15:27.811Z</time></trkpt><trkpt lat="43.2372743" lon="12.2448309"><ele>726.0</ele><time>2026-03-29T08:15:28.811Z</time></trkpt><trkpt lat="43.2373555" lon="12.244782"><ele>726.0</ele><time>2026-03-29T08:15:29.811Z</time></trkpt><trkpt lat="43.2374314" lon="12.2447217"><ele>726.0</ele><time>2026-03-29T08:15:30.811Z</time></trkpt><trkpt lat="43.2374798" lon="12.2446548"><ele>726.0</ele><time>2026-03-29T08:15:31.81Z</time></trkpt><trkpt lat="43.2375459" lon="12.2446226"><ele>724.1666666666666</ele><time>2026-03-29T08:15:32.81Z</time></trkpt><trkpt lat="43.2376133" lon="12.2445821"><ele>722.3333333333334</ele><time>2026-03-29T08:15:33.81Z</time></trkpt><trkpt lat="43.2376864" lon="12.2445395"><ele>720.5</ele><time>2026-03-29T08:15:34.811Z</time></trkpt><trkpt lat="43.2377481" lon="12.2444953"><ele>718.6666666666667</ele><time>2026-03-29T08:15:35.811Z</time></trkpt><trkpt lat="43.2378115" lon="12.2444671"><ele>716.8333333333334</ele><time>2026-03-29T08:15:36.81Z</time></trkpt><trkpt lat="43.2379019" lon="12.244386"><ele>715.0</ele><time>2026-03-29T08:15:38.811Z</time></trkpt><trkpt lat="43.2379615" lon="12.2443508"><ele>715.0</ele><time>2026-03-29T08:15:39.81Z</time></trkpt><trkpt lat="43.2380515" lon="12.244289"><ele>715.0</ele><time>2026-03-29T08:15:41.81Z</time></trkpt><trkpt lat="43.2381254" lon="12.2442289"><ele>715.0</ele><time>2026-03-29T08:15:43.811Z</time></trkpt><trkpt lat="43.2382223" lon="12.2441721"><ele>715.0</ele><time>2026-03-29T08:15:45.811Z</time></trkpt><trkpt lat="43.2383351" lon="12.2441218"><ele>715.0</ele><time>2026-03-29T08:15:47.81Z</time></trkpt><trkpt lat="43.238418" lon="12.2441015"><ele>715.1666666666667</ele><time>2026-03-29T08:15:48.811Z</time></trkpt><trkpt lat="43.2384833" lon="12.2440852"><ele>715.3333333333334</ele><time>2026-03-29T08:15:49.811Z</time></trkpt><trkpt lat="43.2385579" lon="12.2440619"><ele>715.5</ele><time>2026-03-29T08:15:50.811Z</time></trkpt><trkpt lat="43.2386312" lon="12.2440386"><ele>715.6666666666666</ele><time>2026-03-29T08:15:51.81Z</time></trkpt><trkpt lat="43.2387094" lon="12.2440118"><ele>715.8333333333333</ele><time>2026-03-29T08:15:52.811Z</time></trkpt><trkpt lat="43.2387876" lon="12.2439748"><ele>716.0</ele><time>2026-03-29T08:15:53.811Z</time></trkpt><trkpt lat="43.2388564" lon="12.2439155"><ele>716.1999999999999</ele><time>2026-03-29T08:15:54.811Z</time></trkpt><trkpt lat="43.2389389" lon="12.2438487"><ele>716.4</ele><time>2026-03-29T08:15:55.811Z</time></trkpt><trkpt lat="43.2390199" lon="12.2437709"><ele>716.6</ele><time>2026-03-29T08:15:56.81Z</time></trkpt><trkpt lat="43.2390986" lon="12.2436975"><ele>716.8</ele><time>2026-03-29T08:15:57.811Z</time></trkpt><trkpt lat="43.2391868" lon="12.2436055"><ele>717.0</ele><time>2026-03-29T08:15:58.811Z</time></trkpt><trkpt lat="43.2392631" lon="12.2435159"><ele>715.5</ele><time>2026-03-29T08:15:59.811Z</time></trkpt><trkpt lat="43.2393319" lon="12.2434284"><ele>714.0</ele><time>2026-03-29T08:16:00.811Z</time></trkpt><trkpt lat="43.2393942" lon="12.2433406"><ele>712.5</ele><time>2026-03-29T08:16:01.811Z</time></trkpt><trkpt lat="43.2394525" lon="12.2432593"><ele>711.0</ele><time>2026-03-29T08:16:02.811Z</time></trkpt><trkpt lat="43.2395245" lon="12.2431757"><ele>709.5</ele><time>2026-03-29T08:16:03.811Z</time></trkpt><trkpt lat="43.2395949" lon="12.2431012"><ele>708.0</ele><time>2026-03-29T08:16:04.811Z</time></trkpt><trkpt lat="43.2396713" lon="12.2430315"><ele>706.5999999999999</ele><time>2026-03-29T08:16:05.81Z</time></trkpt><trkpt lat="43.2397451" lon="12.2429555"><ele>705.1999999999999</ele><time>2026-03-29T08:16:06.81Z</time></trkpt><trkpt lat="43.2398313" lon="12.2428782"><ele>703.8</ele><time>2026-03-29T08:16:07.811Z</time></trkpt><trkpt lat="43.2399069" lon="12.242811"><ele>702.4</ele><time>2026-03-29T08:16:08.81Z</time></trkpt><trkpt lat="43.2399823" lon="12.24274"><ele>701.0</ele><time>2026-03-29T08:16:09.81Z</time></trkpt><trkpt lat="43.2400623" lon="12.2426638"><ele>700.3333333333333</ele><time>2026-03-29T08:16:10.81Z</time></trkpt><trkpt lat="43.2401353" lon="12.2425965"><ele>699.6666666666666</ele><time>2026-03-29T08:16:11.811Z</time></trkpt><trkpt lat="43.240201" lon="12.2425259"><ele>699.0</ele><time>2026-03-29T08:16:12.811Z</time></trkpt><trkpt lat="43.2402719" lon="12.2424569"><ele>698.3333333333334</ele><time>2026-03-29T08:16:13.81Z</time></trkpt><trkpt lat="43.2403337" lon="12.2424024"><ele>697.6666666666667</ele><time>2026-03-29T08:16:14.811Z</time></trkpt><trkpt lat="43.2403956" lon="12.2423696"><ele>697.0</ele><time>2026-03-29T08:16:15.81Z</time></trkpt><trkpt lat="43.240459" lon="12.2423514"><ele>696.3333333333334</ele><time>2026-03-29T08:16:16.81Z</time></trkpt><trkpt lat="43.2405549" lon="12.2422565"><ele>695.6666666666667</ele><time>2026-03-29T08:16:18.811Z</time></trkpt><trkpt lat="43.2406238" lon="12.2421649"><ele>695.0</ele><time>2026-03-29T08:16:20.811Z</time></trkpt><trkpt lat="43.2406826" lon="12.2421203"><ele>694.3333333333334</ele><time>2026-03-29T08:16:22.811Z</time></trkpt><trkpt lat="43.240663" lon="12.2422145"><ele>693.6666666666666</ele><time>2026-03-29T08:16:27.811Z</time></trkpt><trkpt lat="43.240629" lon="12.2421313"><ele>693.0</ele><time>2026-03-29T08:16:36.811Z</time></trkpt><trkpt lat="43.2406741" lon="12.2420493"><ele>694.5999999999999</ele><time>2026-03-29T08:16:38.81Z</time></trkpt><trkpt lat="43.2407282" lon="12.2419737"><ele>696.1999999999999</ele><time>2026-03-29T08:16:39.811Z</time></trkpt><trkpt lat="43.2407954" lon="12.241883"><ele>697.8</ele><time>2026-03-29T08:16:40.811Z</time></trkpt><trkpt lat="43.240874" lon="12.2417996"><ele>699.4</ele><time>2026-03-29T08:16:41.811Z</time></trkpt><trkpt lat="43.2409605" lon="12.2417305"><ele>701.0</ele><time>2026-03-29T08:16:42.81Z</time></trkpt><trkpt lat="43.2410477" lon="12.2416746"><ele>701.0</ele><time>2026-03-29T08:16:43.81Z</time></trkpt><trkpt lat="43.2411543" lon="12.2416245"><ele>701.0</ele><time>2026-03-29T08:16:44.811Z</time></trkpt><trkpt lat="43.2412476" lon="12.2415795"><ele>701.0</ele><time>2026-03-29T08:16:45.81Z</time></trkpt><trkpt lat="43.2413363" lon="12.2415236"><ele>701.0</ele><time>2026-03-29T08:16:46.811Z</time></trkpt><trkpt lat="43.2414328" lon="12.2414682"><ele>701.0</ele><time>2026-03-29T08:16:47.81Z</time></trkpt><trkpt lat="43.2415274" lon="12.2414069"><ele>702.4</ele><time>2026-03-29T08:16:48.81Z</time></trkpt><trkpt lat="43.2416265" lon="12.2413355"><ele>703.8</ele><time>2026-03-29T08:16:49.811Z</time></trkpt><trkpt lat="43.2417337" lon="12.2412774"><ele>705.1999999999999</ele><time>2026-03-29T08:16:50.81Z</time></trkpt><trkpt lat="43.2418384" lon="12.2412139"><ele>706.5999999999999</ele><time>2026-03-29T08:16:51.811Z</time></trkpt><trkpt lat="43.2419358" lon="12.2411659"><ele>708.0</ele><time>2026-03-29T08:16:52.81Z</time></trkpt><trkpt lat="43.2420236" lon="12.2411333"><ele>708.0</ele><time>2026-03-29T08:16:53.81Z</time></trkpt><trkpt lat="43.2421034" lon="12.2411191"><ele>708.0</ele><time>2026-03-29T08:16:54.811Z</time></trkpt><trkpt lat="43.2421808" lon="12.2411219"><ele>708.0</ele><time>2026-03-29T08:16:55.811Z</time></trkpt><trkpt lat="43.2423258" lon="12.2411317"><ele>708.0</ele><time>2026-03-29T08:16:57.81Z</time></trkpt><trkpt lat="43.2424026" lon="12.2411377"><ele>708.0</ele><time>2026-03-29T08:16:58.81Z</time></trkpt><trkpt lat="43.2424886" lon="12.2411481"><ele>708.5</ele><time>2026-03-29T08:16:59.811Z</time></trkpt><trkpt lat="43.2425949" lon="12.2411848"><ele>709.0</ele><time>2026-03-29T08:17:00.81Z</time></trkpt><trkpt lat="43.2427276" lon="12.2411991"><ele>709.5</ele><time>2026-03-29T08:17:01.811Z</time></trkpt><trkpt lat="43.242829" lon="12.2412192"><ele>710.0</ele><time>2026-03-29T08:17:02.811Z</time></trkpt><trkpt lat="43.2429514" lon="12.2412716"><ele>710.0</ele><time>2026-03-29T08:17:03.811Z</time></trkpt><trkpt lat="43.2430691" lon="12.2413005"><ele>710.0</ele><time>2026-03-29T08:17:04.81Z</time></trkpt><trkpt lat="43.243191" lon="12.2413398"><ele>710.0</ele><time>2026-03-29T08:17:05.811Z</time></trkpt><trkpt lat="43.2432762" lon="12.2413718"><ele>710.0</ele><time>2026-03-29T08:17:06.81Z</time></trkpt><trkpt lat="43.2433833" lon="12.2414098"><ele>710.0</ele><time>2026-03-29T08:17:07.811Z</time></trkpt><trkpt lat="43.2435067" lon="12.2414563"><ele>712.5</ele><time>2026-03-29T08:17:08.811Z</time></trkpt><trkpt lat="43.2436254" lon="12.2415076"><ele>715.0</ele><time>2026-03-29T08:17:09.811Z</time></trkpt><trkpt lat="43.2437216" lon="12.2416748"><ele>717.5</ele><time>2026-03-29T08:17:10.81Z</time></trkpt><trkpt lat="43.2438283" lon="12.2417484"><ele>720.0</ele><time>2026-03-29T08:17:11.811Z</time></trkpt><trkpt lat="43.2439033" lon="12.2418956"><ele>717.0</ele><time>2026-03-29T08:17:12.81Z</time></trkpt><trkpt lat="43.244096" lon="12.2420396"><ele>714.0</ele><time>2026-03-29T08:17:13.811Z</time></trkpt><trkpt lat="43.244215" lon="12.2421517"><ele>711.0</ele><time>2026-03-29T08:17:14.81Z</time></trkpt><trkpt lat="43.244361" lon="12.2422367"><ele>714.0</ele><time>2026-03-29T08:17:15.81Z</time></trkpt><trkpt lat="43.2445032" lon="12.2423434"><ele>717.0</ele><time>2026-03-29T08:17:16.811Z</time></trkpt><trkpt lat="43.2446378" lon="12.2424135"><ele>720.0</ele><time>2026-03-29T08:17:17.81Z</time></trkpt><trkpt lat="43.2447852" lon="12.2425018"><ele>719.5</ele><time>2026-03-29T08:17:18.811Z</time></trkpt><trkpt lat="43.2449214" lon="12.2425351"><ele>719.0</ele><time>2026-03-29T08:17:19.811Z</time></trkpt><trkpt lat="43.2450651" lon="12.2426041"><ele>718.5</ele><time>2026-03-29T08:17:20.81Z</time></trkpt><trkpt lat="43.2452029" lon="12.2426725"><ele>718.0</ele><time>2026-03-29T08:17:21.811Z</time></trkpt><trkpt lat="43.2453217" lon="12.2427788"><ele>718.0</ele><time>2026-03-29T08:17:22.81Z</time></trkpt><trkpt lat="43.2454441" lon="12.242894"><ele>718.0</ele><time>2026-03-29T08:17:23.811Z</time></trkpt><trkpt lat="43.2455747" lon="12.2430007"><ele>718.0</ele><time>2026-03-29T08:17:24.81Z</time></trkpt><trkpt lat="43.2456908" lon="12.2431108"><ele>718.0</ele><time>2026-03-29T08:17:25.81Z</time></trkpt><trkpt lat="43.2458293" lon="12.2431867"><ele>719.6666666666667</ele><time>2026-03-29T08:17:26.811Z</time></trkpt><trkpt lat="43.24597" lon="12.2432591"><ele>721.3333333333334</ele><time>2026-03-29T08:17:27.811Z</time></trkpt><trkpt lat="43.2461177" lon="12.2432976"><ele>723.0</ele><time>2026-03-29T08:17:28.811Z</time></trkpt><trkpt lat="43.2462763" lon="12.2433388"><ele>723.0</ele><time>2026-03-29T08:17:29.811Z</time></trkpt><trkpt lat="43.2464244" lon="12.2433713"><ele>723.0</ele><time>2026-03-29T08:17:30.811Z</time></trkpt><trkpt lat="43.2465921" lon="12.2434049"><ele>723.0</ele><time>2026-03-29T08:17:31.81Z</time></trkpt><trkpt lat="43.2467761" lon="12.2434238"><ele>724.25</ele><time>2026-03-29T08:17:32.811Z</time></trkpt><trkpt lat="43.2469283" lon="12.2434683"><ele>725.5</ele><time>2026-03-29T08:17:33.811Z</time></trkpt><trkpt lat="43.2470863" lon="12.2435119"><ele>726.75</ele><time>2026-03-29T08:17:34.81Z</time></trkpt><trkpt lat="43.2471936" lon="12.2435569"><ele>728.0</ele><time>2026-03-29T08:17:35.811Z</time></trkpt><trkpt lat="43.2473005" lon="12.2435976"><ele>728.3333333333333</ele><time>2026-03-29T08:17:36.81Z</time></trkpt><trkpt lat="43.2474189" lon="12.2436832"><ele>728.6666666666666</ele><time>2026-03-29T08:17:37.811Z</time></trkpt><trkpt lat="43.2474885" lon="12.2437909"><ele>729.0</ele><time>2026-03-29T08:17:38.811Z</time></trkpt><trkpt lat="43.247695" lon="12.2440204"><ele>729.0</ele><time>2026-03-29T08:17:40.811Z</time></trkpt><trkpt lat="43.2477813" lon="12.2440796"><ele>729.0</ele><time>2026-03-29T08:17:41.811Z</time></trkpt><trkpt lat="43.2478535" lon="12.2440962"><ele>729.0</ele><time>2026-03-29T08:17:42.811Z</time></trkpt><trkpt lat="43.2479363" lon="12.244012"><ele>729.0</ele><time>2026-03-29T08:17:44.81Z</time></trkpt><trkpt lat="43.2479705" lon="12.2439369"><ele>729.0</ele><time>2026-03-29T08:17:45.811Z</time></trkpt><trkpt lat="43.2479818" lon="12.2438107"><ele>729.0</ele><time>2026-03-29T08:17:46.811Z</time></trkpt><trkpt lat="43.2479899" lon="12.2436912"><ele>729.8000000000001</ele><time>2026-03-29T08:17:47.811Z</time></trkpt><trkpt lat="43.2480306" lon="12.2435498"><ele>730.6</ele><time>2026-03-29T08:17:48.811Z</time></trkpt><trkpt lat="43.2480706" lon="12.2434397"><ele>731.4</ele><time>2026-03-29T08:17:49.81Z</time></trkpt><trkpt lat="43.2481546" lon="12.2433187"><ele>732.2</ele><time>2026-03-29T08:17:50.811Z</time></trkpt><trkpt lat="43.2482228" lon="12.2432175"><ele>733.0</ele><time>2026-03-29T08:17:51.81Z</time></trkpt><trkpt lat="43.2482963" lon="12.2431394"><ele>734.4</ele><time>2026-03-29T08:17:52.811Z</time></trkpt><trkpt lat="43.2483714" lon="12.2430646"><ele>735.8</ele><time>2026-03-29T08:17:53.81Z</time></trkpt><trkpt lat="43.248449" lon="12.2430296"><ele>737.2</ele><time>2026-03-29T08:17:54.811Z</time></trkpt><trkpt lat="43.2485301" lon="12.2430224"><ele>738.6</ele><time>2026-03-29T08:17:55.81Z</time></trkpt><trkpt lat="43.2486427" lon="12.2430468"><ele>740.0</ele><time>2026-03-29T08:17:56.811Z</time></trkpt><trkpt lat="43.2487355" lon="12.2430632"><ele>741.6</ele><time>2026-03-29T08:17:57.81Z</time></trkpt><trkpt lat="43.2488633" lon="12.2431878"><ele>743.2</ele><time>2026-03-29T08:17:58.81Z</time></trkpt><trkpt lat="43.2489316" lon="12.2432441"><ele>744.8</ele><time>2026-03-29T08:17:59.811Z</time></trkpt><trkpt lat="43.2490048" lon="12.2433085"><ele>746.4</ele><time>2026-03-29T08:18:00.811Z</time></trkpt><trkpt lat="43.2490965" lon="12.2432949"><ele>748.0</ele><time>2026-03-29T08:18:01.81Z</time></trkpt><trkpt lat="43.2492304" lon="12.2433036"><ele>750.75</ele><time>2026-03-29T08:18:02.811Z</time></trkpt><trkpt lat="43.2493792" lon="12.2432816"><ele>753.5</ele><time>2026-03-29T08:18:03.81Z</time></trkpt><trkpt lat="43.2495205" lon="12.2432984"><ele>756.25</ele><time>2026-03-29T08:18:04.81Z</time></trkpt><trkpt lat="43.2496412" lon="12.2432842"><ele>759.0</ele><time>2026-03-29T08:18:05.811Z</time></trkpt><trkpt lat="43.2497875" lon="12.243341"><ele>759.6666666666666</ele><time>2026-03-29T08:18:06.811Z</time></trkpt><trkpt lat="43.2499384" lon="12.2433753"><ele>760.3333333333333</ele><time>2026-03-29T08:18:07.81Z</time></trkpt><trkpt lat="43.250085" lon="12.2433462"><ele>761.0</ele><time>2026-03-29T08:18:08.811Z</time></trkpt><trkpt lat="43.2502511" lon="12.2434218"><ele>761.0</ele><time>2026-03-29T08:18:09.811Z</time></trkpt><trkpt lat="43.2504016" lon="12.24345"><ele>761.0</ele><time>2026-03-29T08:18:10.81Z</time></trkpt><trkpt lat="43.2505031" lon="12.2434374"><ele>761.0</ele><time>2026-03-29T08:18:11.81Z</time></trkpt><trkpt lat="43.250629" lon="12.2434074"><ele>761.0</ele><time>2026-03-29T08:18:12.811Z</time></trkpt><trkpt lat="43.2507499" lon="12.243422"><ele>761.75</ele><time>2026-03-29T08:18:13.81Z</time></trkpt><trkpt lat="43.2508809" lon="12.2434126"><ele>762.5</ele><time>2026-03-29T08:18:14.811Z</time></trkpt><trkpt lat="43.250995" lon="12.2434535"><ele>763.25</ele><time>2026-03-29T08:18:15.811Z</time></trkpt><trkpt lat="43.2511192" lon="12.2434658"><ele>764.0</ele><time>2026-03-29T08:18:16.81Z</time></trkpt><trkpt lat="43.2512594" lon="12.2434486"><ele>764.0</ele><time>2026-03-29T08:18:17.81Z</time></trkpt><trkpt lat="43.2513977" lon="12.2434381"><ele>764.0</ele><time>2026-03-29T08:18:18.811Z</time></trkpt><trkpt lat="43.2515879" lon="12.2434415"><ele>764.0</ele><time>2026-03-29T08:18:19.811Z</time></trkpt><trkpt lat="43.2517672" lon="12.2434208"><ele>764.0</ele><time>2026-03-29T08:18:20.811Z</time></trkpt><trkpt lat="43.2519354" lon="12.2434079"><ele>764.0</ele><time>2026-03-29T08:18:21.811Z</time></trkpt><trkpt lat="43.2521513" lon="12.243494"><ele>764.0</ele><time>2026-03-29T08:18:22.811Z</time></trkpt><trkpt lat="43.2523049" lon="12.2435456"><ele>764.0</ele><time>2026-03-29T08:18:23.811Z</time></trkpt><trkpt lat="43.2524755" lon="12.2435894"><ele>764.0</ele><time>2026-03-29T08:18:24.81Z</time></trkpt><trkpt lat="43.2526372" lon="12.2436111"><ele>764.0</ele><time>2026-03-29T08:18:25.811Z</time></trkpt><trkpt lat="43.2527609" lon="12.2436256"><ele>764.0</ele><time>2026-03-29T08:18:26.81Z</time></trkpt><trkpt lat="43.2529232" lon="12.2436597"><ele>764.0</ele><time>2026-03-29T08:18:27.811Z</time></trkpt><trkpt lat="43.253076" lon="12.2436904"><ele>764.0</ele><time>2026-03-29T08:18:28.811Z</time></trkpt><trkpt lat="43.2532377" lon="12.243754"><ele>761.75</ele><time>2026-03-29T08:18:29.81Z</time></trkpt><trkpt lat="43.2533475" lon="12.2438387"><ele>759.5</ele><time>2026-03-29T08:18:30.811Z</time></trkpt><trkpt lat="43.2534511" lon="12.2439287"><ele>757.25</ele><time>2026-03-29T08:18:31.811Z</time></trkpt><trkpt lat="43.2535847" lon="12.244034"><ele>755.0</ele><time>2026-03-29T08:18:32.811Z</time></trkpt><trkpt lat="43.2537332" lon="12.2440893"><ele>754.75</ele><time>2026-03-29T08:18:33.811Z</time></trkpt><trkpt lat="43.25389" lon="12.2441366"><ele>754.5</ele><time>2026-03-29T08:18:34.81Z</time></trkpt><trkpt lat="43.2539879" lon="12.2441553"><ele>754.25</ele><time>2026-03-29T08:18:35.81Z</time></trkpt><trkpt lat="43.2540863" lon="12.2442054"><ele>754.0</ele><time>2026-03-29T08:18:36.81Z</time></trkpt><trkpt lat="43.2541643" lon="12.2442776"><ele>754.0</ele><time>2026-03-29T08:18:37.81Z</time></trkpt><trkpt lat="43.2542267" lon="12.2443688"><ele>754.0</ele><time>2026-03-29T08:18:38.811Z</time></trkpt><trkpt lat="43.2542859" lon="12.2444661"><ele>754.0</ele><time>2026-03-29T08:18:39.811Z</time></trkpt><trkpt lat="43.2543489" lon="12.2445824"><ele>754.0</ele><time>2026-03-29T08:18:40.81Z</time></trkpt><trkpt lat="43.2544355" lon="12.2446824"><ele>754.0</ele><time>2026-03-29T08:18:41.811Z</time></trkpt><trkpt lat="43.2544861" lon="12.2447442"><ele>754.0</ele><time>2026-03-29T08:18:42.811Z</time></trkpt><trkpt lat="43.254569" lon="12.2447779"><ele>754.0</ele><time>2026-03-29T08:18:43.81Z</time></trkpt><trkpt lat="43.2546334" lon="12.2447801"><ele>754.0</ele><time>2026-03-29T08:18:44.81Z</time></trkpt><trkpt lat="43.2547179" lon="12.2447807"><ele>754.0</ele><time>2026-03-29T08:18:45.81Z</time></trkpt><trkpt lat="43.2547945" lon="12.2447666"><ele>754.0</ele><time>2026-03-29T08:18:46.81Z</time></trkpt><trkpt lat="43.2548893" lon="12.2447757"><ele>754.0</ele><time>2026-03-29T08:18:47.81Z</time></trkpt><trkpt lat="43.2550073" lon="12.2447798"><ele>754.5</ele><time>2026-03-29T08:18:48.811Z</time></trkpt><trkpt lat="43.2551073" lon="12.2447569"><ele>755.0</ele><time>2026-03-29T08:18:49.81Z</time></trkpt><trkpt lat="43.2552024" lon="12.2447452"><ele>755.5</ele><time>2026-03-29T08:18:50.811Z</time></trkpt><trkpt lat="43.2553009" lon="12.2447474"><ele>756.0</ele><time>2026-03-29T08:18:51.811Z</time></trkpt><trkpt lat="43.2553793" lon="12.2448036"><ele>756.5</ele><time>2026-03-29T08:18:53.811Z</time></trkpt><trkpt lat="43.2554414" lon="12.2448308"><ele>757.0</ele><time>2026-03-29T08:18:54.811Z</time></trkpt><trkpt lat="43.2555715" lon="12.2447927"><ele>755.5</ele><time>2026-03-29T08:18:56.811Z</time></trkpt><trkpt lat="43.2556594" lon="12.244766"><ele>754.0</ele><time>2026-03-29T08:18:57.811Z</time></trkpt><trkpt lat="43.2557243" lon="12.2447516"><ele>752.5</ele><time>2026-03-29T08:18:58.811Z</time></trkpt><trkpt lat="43.2557901" lon="12.2447537"><ele>751.0</ele><time>2026-03-29T08:18:59.81Z</time></trkpt><trkpt lat="43.255898" lon="12.2447667"><ele>749.5</ele><time>2026-03-29T08:19:01.81Z</time></trkpt><trkpt lat="43.2559742" lon="12.2448657"><ele>748.0</ele><time>2026-03-29T08:19:02.811Z</time></trkpt><trkpt lat="43.2560169" lon="12.2449823"><ele>748.0</ele><time>2026-03-29T08:19:03.811Z</time></trkpt><trkpt lat="43.2561082" lon="12.2452043"><ele>748.0</ele><time>2026-03-29T08:19:05.81Z</time></trkpt><trkpt lat="43.2561815" lon="12.2453067"><ele>748.0</ele><time>2026-03-29T08:19:06.811Z</time></trkpt><trkpt lat="43.2562252" lon="12.2454059"><ele>748.0</ele><time>2026-03-29T08:19:07.81Z</time></trkpt><trkpt lat="43.2563103" lon="12.2454252"><ele>748.0</ele><time>2026-03-29T08:19:09.811Z</time></trkpt><trkpt lat="43.2563712" lon="12.2453296"><ele>748.0</ele><time>2026-03-29T08:19:13.81Z</time></trkpt><trkpt lat="43.2564299" lon="12.2452417"><ele>748.0</ele><time>2026-03-29T08:19:14.811Z</time></trkpt><trkpt lat="43.2565027" lon="12.2451217"><ele>748.0</ele><time>2026-03-29T08:19:16.811Z</time></trkpt><trkpt lat="43.2565861" lon="12.2450721"><ele>748.0</ele><time>2026-03-29T08:19:17.811Z</time></trkpt><trkpt lat="43.2566734" lon="12.2449931"><ele>745.4</ele><time>2026-03-29T08:19:18.811Z</time></trkpt><trkpt lat="43.2567544" lon="12.2449386"><ele>742.8</ele><time>2026-03-29T08:19:19.81Z</time></trkpt><trkpt lat="43.2568345" lon="12.244873"><ele>740.2</ele><time>2026-03-29T08:19:20.811Z</time></trkpt><trkpt lat="43.2569304" lon="12.2447928"><ele>737.6</ele><time>2026-03-29T08:19:21.811Z</time></trkpt><trkpt lat="43.2570017" lon="12.2447119"><ele>735.0</ele><time>2026-03-29T08:19:22.811Z</time></trkpt><trkpt lat="43.2570735" lon="12.2446538"><ele>733.0</ele><time>2026-03-29T08:19:23.811Z</time></trkpt><trkpt lat="43.2571343" lon="12.2445858"><ele>731.0</ele><time>2026-03-29T08:19:24.811Z</time></trkpt><trkpt lat="43.25719" lon="12.2444882"><ele>729.0</ele><time>2026-03-29T08:19:25.81Z</time></trkpt><trkpt lat="43.2572643" lon="12.2444039"><ele>727.0</ele><time>2026-03-29T08:19:26.81Z</time></trkpt><trkpt lat="43.2573484" lon="12.2442648"><ele>725.0</ele><time>2026-03-29T08:19:28.81Z</time></trkpt><trkpt lat="43.257433" lon="12.2441745"><ele>721.2</ele><time>2026-03-29T08:19:29.81Z</time></trkpt><trkpt lat="43.2574864" lon="12.2440896"><ele>717.4</ele><time>2026-03-29T08:19:30.811Z</time></trkpt><trkpt lat="43.2575824" lon="12.2439755"><ele>713.5999999999999</ele><time>2026-03-29T08:19:31.811Z</time></trkpt><trkpt lat="43.2576673" lon="12.2438692"><ele>709.8</ele><time>2026-03-29T08:19:32.81Z</time></trkpt><trkpt lat="43.2577335" lon="12.2437791"><ele>706.0</ele><time>2026-03-29T08:19:33.811Z</time></trkpt><trkpt lat="43.2577986" lon="12.2437095"><ele>705.0</ele><time>2026-03-29T08:19:34.81Z</time></trkpt><trkpt lat="43.257847" lon="12.2436511"><ele>704.0</ele><time>2026-03-29T08:19:35.81Z</time></trkpt><trkpt lat="43.2579295" lon="12.2436161"><ele>703.0</ele><time>2026-03-29T08:19:36.811Z</time></trkpt><trkpt lat="43.2579979" lon="12.2435638"><ele>702.0</ele><time>2026-03-29T08:19:37.81Z</time></trkpt><trkpt lat="43.2580743" lon="12.243503"><ele>701.0</ele><time>2026-03-29T08:19:38.81Z</time></trkpt><trkpt lat="43.2581727" lon="12.2434578"><ele>700.0</ele><time>2026-03-29T08:19:39.811Z</time></trkpt><trkpt lat="43.2582526" lon="12.2434278"><ele>697.2</ele><time>2026-03-29T08:19:40.811Z</time></trkpt><trkpt lat="43.2583338" lon="12.2434901"><ele>694.4</ele><time>2026-03-29T08:19:41.811Z</time></trkpt><trkpt lat="43.258471" lon="12.2434734"><ele>691.5999999999999</ele><time>2026-03-29T08:19:43.81Z</time></trkpt><trkpt lat="43.2585259" lon="12.2434293"><ele>688.8</ele><time>2026-03-29T08:19:44.811Z</time></trkpt><trkpt lat="43.258554" lon="12.243287"><ele>686.0</ele><time>2026-03-29T08:19:46.811Z</time></trkpt><trkpt lat="43.2585018" lon="12.243173"><ele>685.1666666666666</ele><time>2026-03-29T08:19:47.81Z</time></trkpt><trkpt lat="43.258455" lon="12.2430296"><ele>684.3333333333333</ele><time>2026-03-29T08:19:49.811Z</time></trkpt><trkpt lat="43.2583965" lon="12.2429631"><ele>683.5</ele><time>2026-03-29T08:19:50.811Z</time></trkpt><trkpt lat="43.2583555" lon="12.2428867"><ele>682.6666666666666</ele><time>2026-03-29T08:19:51.811Z</time></trkpt><trkpt lat="43.2583541" lon="12.2427947"><ele>681.8333333333334</ele><time>2026-03-29T08:19:52.81Z</time></trkpt><trkpt lat="43.2583836" lon="12.2426572"><ele>681.0</ele><time>2026-03-29T08:19:54.811Z</time></trkpt><trkpt lat="43.2584258" lon="12.2425753"><ele>681.0</ele><time>2026-03-29T08:19:55.811Z</time></trkpt><trkpt lat="43.2584354" lon="12.2424707"><ele>681.0</ele><time>2026-03-29T08:19:56.81Z</time></trkpt><trkpt lat="43.2584567" lon="12.242366"><ele>681.0</ele><time>2026-03-29T08:19:57.811Z</time></trkpt><trkpt lat="43.2584755" lon="12.2422653"><ele>681.0</ele><time>2026-03-29T08:19:58.811Z</time></trkpt><trkpt lat="43.258483" lon="12.2421737"><ele>681.0</ele><time>2026-03-29T08:19:59.811Z</time></trkpt><trkpt lat="43.2585113" lon="12.2420869"><ele>681.0</ele><time>2026-03-29T08:20:00.81Z</time></trkpt><trkpt lat="43.2585753" lon="12.2418835"><ele>679.0</ele><time>2026-03-29T08:20:03.811Z</time></trkpt><trkpt lat="43.2586409" lon="12.2418684"><ele>677.0</ele><time>2026-03-29T08:20:39.811Z</time></trkpt><trkpt lat="43.2587509" lon="12.2418232"><ele>675.0</ele><time>2026-03-29T08:20:41.811Z</time></trkpt><trkpt lat="43.2588145" lon="12.2417738"><ele>673.0</ele><time>2026-03-29T08:20:42.81Z</time></trkpt><trkpt lat="43.2588825" lon="12.2417361"><ele>671.0</ele><time>2026-03-29T08:20:43.811Z</time></trkpt><trkpt lat="43.2589842" lon="12.2416987"><ele>669.0</ele><time>2026-03-29T08:20:45.811Z</time></trkpt><trkpt lat="43.2590718" lon="12.2417127"><ele>668.0</ele><time>2026-03-29T08:20:46.811Z</time></trkpt><trkpt lat="43.2591469" lon="12.2417181"><ele>667.0</ele><time>2026-03-29T08:20:47.811Z</time></trkpt><trkpt lat="43.2591993" lon="12.2418084"><ele>666.0</ele><time>2026-03-29T08:20:48.81Z</time></trkpt><trkpt lat="43.2592993" lon="12.241899"><ele>665.0</ele><time>2026-03-29T08:20:50.81Z</time></trkpt><trkpt lat="43.2593741" lon="12.2420255"><ele>664.0</ele><time>2026-03-29T08:20:52.81Z</time></trkpt><trkpt lat="43.2593848" lon="12.2421356"><ele>664.0</ele><time>2026-03-29T08:20:53.811Z</time></trkpt><trkpt lat="43.2593849" lon="12.2422472"><ele>664.0</ele><time>2026-03-29T08:20:55.81Z</time></trkpt><trkpt lat="43.2594394" lon="12.2424183"><ele>664.0</ele><time>2026-03-29T08:20:57.811Z</time></trkpt><trkpt lat="43.2594709" lon="12.2425011"><ele>664.0</ele><time>2026-03-29T08:20:58.81Z</time></trkpt><trkpt lat="43.2595093" lon="12.2426064"><ele>664.0</ele><time>2026-03-29T08:20:59.81Z</time></trkpt><trkpt lat="43.2595997" lon="12.242675"><ele>665.0</ele><time>2026-03-29T08:21:00.811Z</time></trkpt><trkpt lat="43.2597096" lon="12.2427638"><ele>666.0</ele><time>2026-03-29T08:21:01.81Z</time></trkpt><trkpt lat="43.2598194" lon="12.2428355"><ele>667.0</ele><time>2026-03-29T08:21:02.811Z</time></trkpt><trkpt lat="43.259902" lon="12.2429089"><ele>668.0</ele><time>2026-03-29T08:21:03.811Z</time></trkpt><trkpt lat="43.259987" lon="12.2429847"><ele>669.0</ele><time>2026-03-29T08:21:04.811Z</time></trkpt><trkpt lat="43.2600601" lon="12.2430344"><ele>665.2</ele><time>2026-03-29T08:21:05.811Z</time></trkpt><trkpt lat="43.2601776" lon="12.2431413"><ele>661.4000000000001</ele><time>2026-03-29T08:21:06.811Z</time></trkpt><trkpt lat="43.2602831" lon="12.2431824"><ele>657.6</ele><time>2026-03-29T08:21:07.811Z</time></trkpt><trkpt lat="43.2603427" lon="12.24327"><ele>653.8</ele><time>2026-03-29T08:21:08.81Z</time></trkpt><trkpt lat="43.2604392" lon="12.2433462"><ele>650.0</ele><time>2026-03-29T08:21:10.811Z</time></trkpt><trkpt lat="43.2605148" lon="12.2432955"><ele>648.2</ele><time>2026-03-29T08:21:14.811Z</time></trkpt><trkpt lat="43.2606173" lon="12.2433512"><ele>646.4</ele><time>2026-03-29T08:21:16.81Z</time></trkpt><trkpt lat="43.2607107" lon="12.2433169"><ele>644.5999999999999</ele><time>2026-03-29T08:21:18.811Z</time></trkpt><trkpt lat="43.2608268" lon="12.2432323"><ele>642.8</ele><time>2026-03-29T08:21:20.81Z</time></trkpt><trkpt lat="43.2608629" lon="12.2433056"><ele>641.0</ele><time>2026-03-29T08:21:21.811Z</time></trkpt><trkpt lat="43.26103" lon="12.2434737"><ele>641.0</ele><time>2026-03-29T08:21:24.81Z</time></trkpt><trkpt lat="43.2611101" lon="12.243478"><ele>641.0</ele><time>2026-03-29T08:21:25.811Z</time></trkpt><trkpt lat="43.2611779" lon="12.243501"><ele>641.0</ele><time>2026-03-29T08:21:26.81Z</time></trkpt><trkpt lat="43.2612631" lon="12.243511"><ele>641.0</ele><time>2026-03-29T08:21:27.811Z</time></trkpt><trkpt lat="43.2613772" lon="12.2435014"><ele>641.0</ele><time>2026-03-29T08:21:28.811Z</time></trkpt><trkpt lat="43.2614907" lon="12.2434699"><ele>638.8</ele><time>2026-03-29T08:21:29.811Z</time></trkpt><trkpt lat="43.2615621" lon="12.2434563"><ele>636.5999999999999</ele><time>2026-03-29T08:21:30.811Z</time></trkpt><trkpt lat="43.2616727" lon="12.2434773"><ele>634.4</ele><time>2026-03-29T08:21:31.811Z</time></trkpt><trkpt lat="43.2617719" lon="12.2434572"><ele>632.2</ele><time>2026-03-29T08:21:32.81Z</time></trkpt><trkpt lat="43.2618714" lon="12.2434906"><ele>630.0</ele><time>2026-03-29T08:21:33.811Z</time></trkpt><trkpt lat="43.2619743" lon="12.2435366"><ele>630.0</ele><time>2026-03-29T08:21:34.811Z</time></trkpt><trkpt lat="43.2620623" lon="12.2435558"><ele>630.0</ele><time>2026-03-29T08:21:35.811Z</time></trkpt><trkpt lat="43.2621556" lon="12.2435848"><ele>630.0</ele><time>2026-03-29T08:21:36.81Z</time></trkpt><trkpt lat="43.2622348" lon="12.2436358"><ele>630.0</ele><time>2026-03-29T08:21:37.811Z</time></trkpt><trkpt lat="43.2623224" lon="12.2436857"><ele>630.0</ele><time>2026-03-29T08:21:38.811Z</time></trkpt><trkpt lat="43.2623847" lon="12.2437414"><ele>630.0</ele><time>2026-03-29T08:21:39.811Z</time></trkpt><trkpt lat="43.2624441" lon="12.2438327"><ele>627.0</ele><time>2026-03-29T08:21:40.81Z</time></trkpt><trkpt lat="43.2626543" lon="12.244009"><ele>624.0</ele><time>2026-03-29T08:21:42.811Z</time></trkpt><trkpt lat="43.2627139" lon="12.2440677"><ele>621.0</ele><time>2026-03-29T08:21:43.81Z</time></trkpt><trkpt lat="43.2627861" lon="12.2440656"><ele>618.0</ele><time>2026-03-29T08:21:45.81Z</time></trkpt><trkpt lat="43.2628107" lon="12.2439735"><ele>618.4</ele><time>2026-03-29T08:21:47.81Z</time></trkpt><trkpt lat="43.2628476" lon="12.2438433"><ele>618.8</ele><time>2026-03-29T08:21:48.81Z</time></trkpt><trkpt lat="43.2628528" lon="12.2437532"><ele>619.2</ele><time>2026-03-29T08:21:49.811Z</time></trkpt><trkpt lat="43.2628488" lon="12.2436468"><ele>619.6</ele><time>2026-03-29T08:21:50.811Z</time></trkpt><trkpt lat="43.2628295" lon="12.2434918"><ele>620.0</ele><time>2026-03-29T08:21:51.811Z</time></trkpt><trkpt lat="43.2628191" lon="12.243353"><ele>620.0</ele><time>2026-03-29T08:21:52.81Z</time></trkpt><trkpt lat="43.262811" lon="12.2432226"><ele>620.0</ele><time>2026-03-29T08:21:53.811Z</time></trkpt><trkpt lat="43.2628066" lon="12.2431035"><ele>620.0</ele><time>2026-03-29T08:21:54.811Z</time></trkpt><trkpt lat="43.2628024" lon="12.2429816"><ele>620.0</ele><time>2026-03-29T08:21:55.81Z</time></trkpt><trkpt lat="43.2628184" lon="12.2428853"><ele>620.0</ele><time>2026-03-29T08:21:56.811Z</time></trkpt><trkpt lat="43.2628226" lon="12.2427737"><ele>620.0</ele><time>2026-03-29T08:21:57.811Z</time></trkpt><trkpt lat="43.2627855" lon="12.242669"><ele>619.8</ele><time>2026-03-29T08:21:58.811Z</time></trkpt><trkpt lat="43.262767" lon="12.2425431"><ele>619.6</ele><time>2026-03-29T08:21:59.811Z</time></trkpt><trkpt lat="43.2627766" lon="12.2424106"><ele>619.4</ele><time>2026-03-29T08:22:00.81Z</time></trkpt><trkpt lat="43.2628095" lon="12.2423179"><ele>619.2</ele><time>2026-03-29T08:22:01.811Z</time></trkpt><trkpt lat="43.2628289" lon="12.2421779"><ele>619.0</ele><time>2026-03-29T08:22:02.81Z</time></trkpt><trkpt lat="43.2629152" lon="12.2420445"><ele>617.6</ele><time>2026-03-29T08:22:04.81Z</time></trkpt><trkpt lat="43.2629727" lon="12.2419941"><ele>616.2</ele><time>2026-03-29T08:22:05.811Z</time></trkpt><trkpt lat="43.2630563" lon="12.241837"><ele>614.8000000000001</ele><time>2026-03-29T08:22:07.811Z</time></trkpt><trkpt lat="43.2630777" lon="12.241742"><ele>613.4</ele><time>2026-03-29T08:22:08.81Z</time></trkpt><trkpt lat="43.2630253" lon="12.2415958"><ele>612.0</ele><time>2026-03-29T08:22:09.811Z</time></trkpt><trkpt lat="43.2629334" lon="12.2414597"><ele>610.5</ele><time>2026-03-29T08:22:10.811Z</time></trkpt><trkpt lat="43.2628686" lon="12.2413272"><ele>609.0</ele><time>2026-03-29T08:22:11.811Z</time></trkpt><trkpt lat="43.2628238" lon="12.2412152"><ele>607.5</ele><time>2026-03-29T08:22:12.81Z</time></trkpt><trkpt lat="43.2628012" lon="12.2411"><ele>606.0</ele><time>2026-03-29T08:22:13.81Z</time></trkpt><trkpt lat="43.2627691" lon="12.2410162"><ele>604.5</ele><time>2026-03-29T08:22:14.811Z</time></trkpt><trkpt lat="43.2627012" lon="12.2409849"><ele>603.0</ele><time>2026-03-29T08:22:15.811Z</time></trkpt><trkpt lat="43.2626169" lon="12.2409414"><ele>603.0</ele><time>2026-03-29T08:22:16.811Z</time></trkpt><trkpt lat="43.2625039" lon="12.2409507"><ele>603.0</ele><time>2026-03-29T08:22:17.811Z</time></trkpt><trkpt lat="43.2623931" lon="12.2409905"><ele>603.0</ele><time>2026-03-29T08:22:18.811Z</time></trkpt><trkpt lat="43.2623174" lon="12.2410637"><ele>603.0</ele><time>2026-03-29T08:22:19.811Z</time></trkpt><trkpt lat="43.2622312" lon="12.2410572"><ele>603.0</ele><time>2026-03-29T08:22:20.811Z</time></trkpt><trkpt lat="43.262152" lon="12.2409394"><ele>602.5</ele><time>2026-03-29T08:22:23.811Z</time></trkpt><trkpt lat="43.2621387" lon="12.2407883"><ele>602.0</ele><time>2026-03-29T08:22:25.811Z</time></trkpt><trkpt lat="43.262083" lon="12.2407059"><ele>601.5</ele><time>2026-03-29T08:22:27.81Z</time></trkpt><trkpt lat="43.262078" lon="12.2406166"><ele>601.0</ele><time>2026-03-29T08:22:28.81Z</time></trkpt><trkpt lat="43.2620493" lon="12.2404969"><ele>600.5</ele><time>2026-03-29T08:22:29.81Z</time></trkpt><trkpt lat="43.2620572" lon="12.2404063"><ele>600.0</ele><time>2026-03-29T08:22:30.811Z</time></trkpt><trkpt lat="43.2620786" lon="12.2402726"><ele>600.0</ele><time>2026-03-29T08:22:31.81Z</time></trkpt><trkpt lat="43.2620884" lon="12.2401115"><ele>600.0</ele><time>2026-03-29T08:22:32.81Z</time></trkpt><trkpt lat="43.2620354" lon="12.2399901"><ele>600.0</ele><time>2026-03-29T08:22:33.811Z</time></trkpt><trkpt lat="43.2620067" lon="12.2398306"><ele>600.0</ele><time>2026-03-29T08:22:35.811Z</time></trkpt><trkpt lat="43.2619281" lon="12.2398418"><ele>600.0</ele><time>2026-03-29T08:22:36.811Z</time></trkpt><trkpt lat="43.2617778" lon="12.2398854"><ele>600.0</ele><time>2026-03-29T08:22:38.811Z</time></trkpt><trkpt lat="43.2617018" lon="12.2399025"><ele>600.0</ele><time>2026-03-29T08:22:39.81Z</time></trkpt><trkpt lat="43.2615956" lon="12.2399677"><ele>600.0</ele><time>2026-03-29T08:22:41.811Z</time></trkpt><trkpt lat="43.2615159" lon="12.2399435"><ele>600.0</ele><time>2026-03-29T08:22:42.811Z</time></trkpt><trkpt lat="43.2615571" lon="12.2397838"><ele>600.0</ele><time>2026-03-29T08:22:45.81Z</time></trkpt><trkpt lat="43.2614961" lon="12.2396358"><ele>601.4</ele><time>2026-03-29T08:22:47.811Z</time></trkpt><trkpt lat="43.2613868" lon="12.2394756"><ele>602.8</ele><time>2026-03-29T08:22:49.81Z</time></trkpt><trkpt lat="43.2613255" lon="12.2393923"><ele>604.2</ele><time>2026-03-29T08:22:50.81Z</time></trkpt><trkpt lat="43.2612349" lon="12.2392888"><ele>605.6</ele><time>2026-03-29T08:22:51.81Z</time></trkpt><trkpt lat="43.2611961" lon="12.2391952"><ele>607.0</ele><time>2026-03-29T08:22:52.811Z</time></trkpt><trkpt lat="43.2611807" lon="12.2389885"><ele>604.6666666666667</ele><time>2026-03-29T08:22:54.811Z</time></trkpt><trkpt lat="43.2611907" lon="12.2388864"><ele>602.3333333333334</ele><time>2026-03-29T08:22:55.811Z</time></trkpt><trkpt lat="43.2612575" lon="12.2388132"><ele>600.0</ele><time>2026-03-29T08:22:56.811Z</time></trkpt><trkpt lat="43.2612793" lon="12.2386731"><ele>597.6666666666666</ele><time>2026-03-29T08:22:58.81Z</time></trkpt><trkpt lat="43.2612483" lon="12.2385731"><ele>595.3333333333333</ele><time>2026-03-29T08:22:59.81Z</time></trkpt><trkpt lat="43.2612152" lon="12.2384627"><ele>593.0</ele><time>2026-03-29T08:23:00.811Z</time></trkpt><trkpt lat="43.2611557" lon="12.2383704"><ele>593.0</ele><time>2026-03-29T08:23:01.81Z</time></trkpt><trkpt lat="43.2610861" lon="12.2382731"><ele>593.0</ele><time>2026-03-29T08:23:02.811Z</time></trkpt><trkpt lat="43.2610042" lon="12.2381945"><ele>593.0</ele><time>2026-03-29T08:23:03.811Z</time></trkpt><trkpt lat="43.2609061" lon="12.2381922"><ele>593.0</ele><time>2026-03-29T08:23:04.81Z</time></trkpt><trkpt lat="43.2608494" lon="12.2381155"><ele>593.0</ele><time>2026-03-29T08:23:05.811Z</time></trkpt><trkpt lat="43.2607528" lon="12.2381367"><ele>591.8</ele><time>2026-03-29T08:23:06.811Z</time></trkpt><trkpt lat="43.2606362" lon="12.2380309"><ele>590.5999999999999</ele><time>2026-03-29T08:23:07.81Z</time></trkpt><trkpt lat="43.2605695" lon="12.2379273"><ele>589.4000000000001</ele><time>2026-03-29T08:23:08.811Z</time></trkpt><trkpt lat="43.2605029" lon="12.2378578"><ele>588.2</ele><time>2026-03-29T08:23:09.81Z</time></trkpt><trkpt lat="43.2604403" lon="12.23783"><ele>587.0</ele><time>2026-03-29T08:23:10.81Z</time></trkpt><trkpt lat="43.2603628" lon="12.2377516"><ele>587.0</ele><time>2026-03-29T08:23:11.81Z</time></trkpt><trkpt lat="43.2602652" lon="12.2377395"><ele>587.0</ele><time>2026-03-29T08:23:12.811Z</time></trkpt><trkpt lat="43.2601053" lon="12.2376397"><ele>587.0</ele><time>2026-03-29T08:23:14.811Z</time></trkpt><trkpt lat="43.2600385" lon="12.2375857"><ele>587.0</ele><time>2026-03-29T08:23:15.81Z</time></trkpt><trkpt lat="43.2599675" lon="12.2374635"><ele>584.0</ele><time>2026-03-29T08:23:17.811Z</time></trkpt><trkpt lat="43.2599532" lon="12.2372774"><ele>581.0</ele><time>2026-03-29T08:23:18.811Z</time></trkpt><trkpt lat="43.2598965" lon="12.2370798"><ele>578.0</ele><time>2026-03-29T08:23:20.81Z</time></trkpt><trkpt lat="43.2598753" lon="12.2369729"><ele>575.0</ele><time>2026-03-29T08:23:21.81Z</time></trkpt><trkpt lat="43.2598399" lon="12.236864"><ele>575.0</ele><time>2026-03-29T08:23:22.81Z</time></trkpt><trkpt lat="43.2598527" lon="12.2367626"><ele>575.0</ele><time>2026-03-29T08:23:23.811Z</time></trkpt><trkpt lat="43.2598923" lon="12.2366721"><ele>575.0</ele><time>2026-03-29T08:23:24.811Z</time></trkpt><trkpt lat="43.2599669" lon="12.2366091"><ele>575.0</ele><time>2026-03-29T08:23:26.81Z</time></trkpt><trkpt lat="43.2601196" lon="12.2366274"><ele>575.0</ele><time>2026-03-29T08:23:28.811Z</time></trkpt><trkpt lat="43.2601784" lon="12.2365737"><ele>575.0</ele><time>2026-03-29T08:23:29.811Z</time></trkpt><trkpt lat="43.260278" lon="12.2365104"><ele>575.0</ele><time>2026-03-29T08:23:30.811Z</time></trkpt><trkpt lat="43.2603664" lon="12.236467"><ele>575.0</ele><time>2026-03-29T08:23:31.811Z</time></trkpt><trkpt lat="43.2604559" lon="12.236468"><ele>575.0</ele><time>2026-03-29T08:23:32.81Z</time></trkpt><trkpt lat="43.2604619" lon="12.2363328"><ele>575.0</ele><time>2026-03-29T08:23:34.81Z</time></trkpt><trkpt lat="43.2603992" lon="12.2362431"><ele>572.6666666666666</ele><time>2026-03-29T08:23:35.81Z</time></trkpt><trkpt lat="43.2603427" lon="12.2361117"><ele>570.3333333333333</ele><time>2026-03-29T08:23:36.81Z</time></trkpt><trkpt lat="43.2603566" lon="12.2360224"><ele>568.0</ele><time>2026-03-29T08:23:37.81Z</time></trkpt><trkpt lat="43.2603568" lon="12.2359038"><ele>565.6666666666666</ele><time>2026-03-29T08:23:38.81Z</time></trkpt><trkpt lat="43.2603738" lon="12.2357858"><ele>563.3333333333334</ele><time>2026-03-29T08:23:39.81Z</time></trkpt><trkpt lat="43.2603242" lon="12.2357121"><ele>561.0</ele><time>2026-03-29T08:23:40.81Z</time></trkpt><trkpt lat="43.260247" lon="12.2357072"><ele>561.0</ele><time>2026-03-29T08:23:41.811Z</time></trkpt><trkpt lat="43.26017" lon="12.2357346"><ele>561.0</ele><time>2026-03-29T08:23:42.811Z</time></trkpt><trkpt lat="43.2600689" lon="12.2358371"><ele>561.0</ele><time>2026-03-29T08:23:43.811Z</time></trkpt><trkpt lat="43.2599937" lon="12.2358987"><ele>561.0</ele><time>2026-03-29T08:23:44.811Z</time></trkpt><trkpt lat="43.259924" lon="12.2358937"><ele>561.0</ele><time>2026-03-29T08:23:45.811Z</time></trkpt><trkpt lat="43.259854" lon="12.2358681"><ele>561.0</ele><time>2026-03-29T08:23:46.811Z</time></trkpt><trkpt lat="43.2597929" lon="12.2357431"><ele>559.8</ele><time>2026-03-29T08:23:48.81Z</time></trkpt><trkpt lat="43.2597816" lon="12.2356482"><ele>558.6</ele><time>2026-03-29T08:23:49.811Z</time></trkpt><trkpt lat="43.2597779" lon="12.2355605"><ele>557.4</ele><time>2026-03-29T08:23:50.811Z</time></trkpt><trkpt lat="43.259839" lon="12.2354609"><ele>556.2</ele><time>2026-03-29T08:23:51.81Z</time></trkpt><trkpt lat="43.2600036" lon="12.2354084"><ele>555.0</ele><time>2026-03-29T08:23:52.811Z</time></trkpt><trkpt lat="43.2600608" lon="12.2353246"><ele>552.8333333333334</ele><time>2026-03-29T08:23:53.811Z</time></trkpt><trkpt lat="43.2601255" lon="12.2352455"><ele>550.6666666666666</ele><time>2026-03-29T08:23:54.811Z</time></trkpt><trkpt lat="43.2601627" lon="12.2351629"><ele>548.5</ele><time>2026-03-29T08:23:55.81Z</time></trkpt><trkpt lat="43.2601364" lon="12.2350749"><ele>546.3333333333333</ele><time>2026-03-29T08:23:57.81Z</time></trkpt><trkpt lat="43.2600647" lon="12.2350045"><ele>544.1666666666666</ele><time>2026-03-29T08:23:58.811Z</time></trkpt><trkpt lat="43.2599895" lon="12.2349632"><ele>542.0</ele><time>2026-03-29T08:23:59.811Z</time></trkpt><trkpt lat="43.2599011" lon="12.2349548"><ele>542.0</ele><time>2026-03-29T08:24:00.811Z</time></trkpt><trkpt lat="43.2598269" lon="12.2350063"><ele>542.0</ele><time>2026-03-29T08:24:01.81Z</time></trkpt><trkpt lat="43.2597279" lon="12.2350189"><ele>542.0</ele><time>2026-03-29T08:24:02.811Z</time></trkpt><trkpt lat="43.2594764" lon="12.235176"><ele>541.75</ele><time>2026-03-29T08:24:04.81Z</time></trkpt><trkpt lat="43.2593342" lon="12.2352891"><ele>541.5</ele><time>2026-03-29T08:24:05.811Z</time></trkpt><trkpt lat="43.2592367" lon="12.2353435"><ele>541.25</ele><time>2026-03-29T08:24:06.811Z</time></trkpt><trkpt lat="43.2591293" lon="12.2354128"><ele>541.0</ele><time>2026-03-29T08:24:07.811Z</time></trkpt><trkpt lat="43.2590542" lon="12.2354816"><ele>541.0</ele><time>2026-03-29T08:24:09.81Z</time></trkpt><trkpt lat="43.2589883" lon="12.2355515"><ele>541.0</ele><time>2026-03-29T08:24:10.81Z</time></trkpt><trkpt lat="43.2589019" lon="12.2354006"><ele>541.0</ele><time>2026-03-29T08:24:13.81Z</time></trkpt><trkpt lat="43.2589197" lon="12.2351947"><ele>541.0</ele><time>2026-03-29T08:24:14.81Z</time></trkpt><trkpt lat="43.2588825" lon="12.2350175"><ele>542.0</ele><time>2026-03-29T08:24:15.811Z</time></trkpt><trkpt lat="43.2588343" lon="12.2348858"><ele>543.0</ele><time>2026-03-29T08:24:16.811Z</time></trkpt><trkpt lat="43.2587834" lon="12.2347398"><ele>544.0</ele><time>2026-03-29T08:24:17.81Z</time></trkpt><trkpt lat="43.2586517" lon="12.2347127"><ele>545.0</ele><time>2026-03-29T08:24:18.81Z</time></trkpt><trkpt lat="43.258568" lon="12.2346437"><ele>546.25</ele><time>2026-03-29T08:24:19.811Z</time></trkpt><trkpt lat="43.2584295" lon="12.2346022"><ele>547.5</ele><time>2026-03-29T08:24:20.811Z</time></trkpt><trkpt lat="43.2583092" lon="12.2345633"><ele>548.75</ele><time>2026-03-29T08:24:21.811Z</time></trkpt><trkpt lat="43.2581652" lon="12.234519"><ele>550.0</ele><time>2026-03-29T08:24:23.811Z</time></trkpt><trkpt lat="43.2580671" lon="12.2344667"><ele>550.0</ele><time>2026-03-29T08:24:24.811Z</time></trkpt><trkpt lat="43.2579262" lon="12.2343287"><ele>550.0</ele><time>2026-03-29T08:24:26.811Z</time></trkpt><trkpt lat="43.2578935" lon="12.2342426"><ele>550.0</ele><time>2026-03-29T08:24:27.81Z</time></trkpt><trkpt lat="43.2578356" lon="12.234111"><ele>550.0</ele><time>2026-03-29T08:24:28.811Z</time></trkpt><trkpt lat="43.2577854" lon="12.2339953"><ele>548.6</ele><time>2026-03-29T08:24:29.811Z</time></trkpt><trkpt lat="43.2577581" lon="12.2338837"><ele>547.2</ele><time>2026-03-29T08:24:30.81Z</time></trkpt><trkpt lat="43.2576734" lon="12.2337773"><ele>545.8</ele><time>2026-03-29T08:24:32.811Z</time></trkpt><trkpt lat="43.2576059" lon="12.2337368"><ele>544.4</ele><time>2026-03-29T08:24:33.811Z</time></trkpt><trkpt lat="43.2575376" lon="12.2337119"><ele>543.0</ele><time>2026-03-29T08:24:34.81Z</time></trkpt><trkpt lat="43.2574283" lon="12.233696"><ele>543.0</ele><time>2026-03-29T08:24:36.811Z</time></trkpt><trkpt lat="43.2573192" lon="12.2336367"><ele>543.0</ele><time>2026-03-29T08:24:38.811Z</time></trkpt><trkpt lat="43.2572637" lon="12.2335697"><ele>543.0</ele><time>2026-03-29T08:24:39.811Z</time></trkpt><trkpt lat="43.2571854" lon="12.2333558"><ele>543.0</ele><time>2026-03-29T08:24:41.81Z</time></trkpt><trkpt lat="43.2571701" lon="12.2332587"><ele>543.0</ele><time>2026-03-29T08:24:42.811Z</time></trkpt><trkpt lat="43.2571079" lon="12.2332141"><ele>545.6666666666666</ele><time>2026-03-29T08:24:46.811Z</time></trkpt><trkpt lat="43.2570838" lon="12.2333087"><ele>548.3333333333334</ele><time>2026-03-29T08:24:47.811Z</time></trkpt><trkpt lat="43.2570392" lon="12.2333983"><ele>551.0</ele><time>2026-03-29T08:24:48.81Z</time></trkpt><trkpt lat="43.2569992" lon="12.233491"><ele>553.6666666666667</ele><time>2026-03-29T08:24:49.811Z</time></trkpt><trkpt lat="43.2569152" lon="12.2335312"><ele>556.3333333333334</ele><time>2026-03-29T08:24:50.811Z</time></trkpt><trkpt lat="43.2568468" lon="12.2335852"><ele>559.0</ele><time>2026-03-29T08:24:51.811Z</time></trkpt><trkpt lat="43.2567813" lon="12.2336349"><ele>559.0</ele><time>2026-03-29T08:25:10.811Z</time></trkpt><trkpt lat="43.256729" lon="12.2336915"><ele>559.0</ele><time>2026-03-29T08:25:13.811Z</time></trkpt><trkpt lat="43.2566611" lon="12.2337549"><ele>559.0</ele><time>2026-03-29T08:25:15.811Z</time></trkpt><trkpt lat="43.2566393" lon="12.2338381"><ele>559.0</ele><time>2026-03-29T08:25:16.81Z</time></trkpt><trkpt lat="43.2565251" lon="12.2338866"><ele>559.0</ele><time>2026-03-29T08:25:18.811Z</time></trkpt><trkpt lat="43.2564453" lon="12.2339112"><ele>559.0</ele><time>2026-03-29T08:25:19.81Z</time></trkpt><trkpt lat="43.2563724" lon="12.2339551"><ele>562.6</ele><time>2026-03-29T08:25:20.811Z</time></trkpt><trkpt lat="43.2562375" lon="12.2340035"><ele>566.2</ele><time>2026-03-29T08:25:22.811Z</time></trkpt><trkpt lat="43.2561518" lon="12.2340457"><ele>569.8000000000001</ele><time>2026-03-29T08:25:23.81Z</time></trkpt><trkpt lat="43.2561564" lon="12.2342031"><ele>573.4</ele><time>2026-03-29T08:25:25.811Z</time></trkpt><trkpt lat="43.2561462" lon="12.2342913"><ele>577.0</ele><time>2026-03-29T08:25:26.81Z</time></trkpt><trkpt lat="43.2561588" lon="12.234412"><ele>577.0</ele><time>2026-03-29T08:25:27.811Z</time></trkpt><trkpt lat="43.2562266" lon="12.2345279"><ele>577.0</ele><time>2026-03-29T08:25:28.811Z</time></trkpt><trkpt lat="43.2562404" lon="12.2346213"><ele>577.0</ele><time>2026-03-29T08:25:29.81Z</time></trkpt><trkpt lat="43.2562684" lon="12.234718"><ele>577.0</ele><time>2026-03-29T08:25:30.81Z</time></trkpt><trkpt lat="43.2562186" lon="12.2348314"><ele>577.0</ele><time>2026-03-29T08:25:33.811Z</time></trkpt><trkpt lat="43.2562777" lon="12.2349689"><ele>579.6</ele><time>2026-03-29T08:25:35.811Z</time></trkpt><trkpt lat="43.2563352" lon="12.2350881"><ele>582.2</ele><time>2026-03-29T08:25:37.81Z</time></trkpt><trkpt lat="43.2563633" lon="12.235199"><ele>584.8</ele><time>2026-03-29T08:25:39.811Z</time></trkpt><trkpt lat="43.2563206" lon="12.2354034"><ele>587.4</ele><time>2026-03-29T08:25:42.811Z</time></trkpt><trkpt lat="43.2563034" lon="12.2355336"><ele>590.0</ele><time>2026-03-29T08:25:44.81Z</time></trkpt><trkpt lat="43.2562087" lon="12.235639"><ele>592.6666666666666</ele><time>2026-03-29T08:25:47.811Z</time></trkpt><trkpt lat="43.2561298" lon="12.2357298"><ele>595.3333333333333</ele><time>2026-03-29T08:25:49.811Z</time></trkpt><trkpt lat="43.2560847" lon="12.2358094"><ele>598.0</ele><time>2026-03-29T08:25:50.811Z</time></trkpt><trkpt lat="43.256103" lon="12.2359363"><ele>600.6666666666666</ele><time>2026-03-29T08:25:51.81Z</time></trkpt><trkpt lat="43.2560845" lon="12.2360272"><ele>603.3333333333334</ele><time>2026-03-29T08:25:52.811Z</time></trkpt><trkpt lat="43.2560631" lon="12.2361085"><ele>606.0</ele><time>2026-03-29T08:25:53.811Z</time></trkpt><trkpt lat="43.2559978" lon="12.2362463"><ele>606.0</ele><time>2026-03-29T08:25:55.81Z</time></trkpt><trkpt lat="43.2559545" lon="12.2363282"><ele>606.0</ele><time>2026-03-29T08:25:56.81Z</time></trkpt><trkpt lat="43.2558791" lon="12.236392"><ele>606.0</ele><time>2026-03-29T08:25:57.811Z</time></trkpt><trkpt lat="43.2557668" lon="12.2364275"><ele>606.0</ele><time>2026-03-29T08:25:59.811Z</time></trkpt><trkpt lat="43.2556611" lon="12.2364434"><ele>606.0</ele><time>2026-03-29T08:26:01.811Z</time></trkpt><trkpt lat="43.2555829" lon="12.2364252"><ele>607.8</ele><time>2026-03-29T08:26:02.811Z</time></trkpt><trkpt lat="43.2555077" lon="12.2363816"><ele>609.6</ele><time>2026-03-29T08:26:03.811Z</time></trkpt><trkpt lat="43.2554136" lon="12.236349"><ele>611.4</ele><time>2026-03-29T08:26:05.81Z</time></trkpt><trkpt lat="43.2553363" lon="12.2365005"><ele>613.2</ele><time>2026-03-29T08:26:07.811Z</time></trkpt><trkpt lat="43.2553126" lon="12.2366232"><ele>615.0</ele><time>2026-03-29T08:26:08.81Z</time></trkpt><trkpt lat="43.2552741" lon="12.2367394"><ele>617.5</ele><time>2026-03-29T08:26:09.81Z</time></trkpt><trkpt lat="43.2552957" lon="12.2369251"><ele>620.0</ele><time>2026-03-29T08:26:10.811Z</time></trkpt><trkpt lat="43.2553029" lon="12.237055"><ele>622.5</ele><time>2026-03-29T08:26:11.811Z</time></trkpt><trkpt lat="43.2553638" lon="12.2372012"><ele>625.0</ele><time>2026-03-29T08:26:12.81Z</time></trkpt><trkpt lat="43.2554431" lon="12.2375372"><ele>626.8</ele><time>2026-03-29T08:26:13.743Z</time></trkpt><trkpt lat="43.2553713" lon="12.2374437"><ele>628.6</ele><time>2026-03-29T08:26:14.743Z</time></trkpt><trkpt lat="43.255231" lon="12.2374719"><ele>630.4</ele><time>2026-03-29T08:26:16.743Z</time></trkpt><trkpt lat="43.2551481" lon="12.2375009"><ele>632.2</ele><time>2026-03-29T08:26:17.742Z</time></trkpt><trkpt lat="43.2550533" lon="12.2375253"><ele>634.0</ele><time>2026-03-29T08:26:18.743Z</time></trkpt><trkpt lat="43.2550221" lon="12.2376369"><ele>634.0</ele><time>2026-03-29T08:26:19.743Z</time></trkpt><trkpt lat="43.2549894" lon="12.2377866"><ele>634.0</ele><time>2026-03-29T08:26:20.743Z</time></trkpt><trkpt lat="43.2548811" lon="12.2378848"><ele>634.0</ele><time>2026-03-29T08:26:22.743Z</time></trkpt><trkpt lat="43.2548379" lon="12.2379613"><ele>634.0</ele><time>2026-03-29T08:26:23.743Z</time></trkpt><trkpt lat="43.2548043" lon="12.2380424"><ele>634.0</ele><time>2026-03-29T08:26:24.743Z</time></trkpt><trkpt lat="43.2547848" lon="12.2381848"><ele>633.6</ele><time>2026-03-29T08:26:25.743Z</time></trkpt><trkpt lat="43.2548282" lon="12.238313"><ele>633.2</ele><time>2026-03-29T08:26:26.743Z</time></trkpt><trkpt lat="43.2548235" lon="12.2384544"><ele>632.8000000000001</ele><time>2026-03-29T08:26:27.743Z</time></trkpt><trkpt lat="43.2548105" lon="12.2386165"><ele>632.4</ele><time>2026-03-29T08:26:28.743Z</time></trkpt><trkpt lat="43.2547692" lon="12.2387586"><ele>632.0</ele><time>2026-03-29T08:26:29.743Z</time></trkpt><trkpt lat="43.2547353" lon="12.2388574"><ele>632.0</ele><time>2026-03-29T08:26:30.743Z</time></trkpt><trkpt lat="43.2547087" lon="12.2389663"><ele>632.0</ele><time>2026-03-29T08:26:31.743Z</time></trkpt><trkpt lat="43.2546663" lon="12.2391027"><ele>632.0</ele><time>2026-03-29T08:26:32.743Z</time></trkpt><trkpt lat="43.254652" lon="12.2391941"><ele>632.0</ele><time>2026-03-29T08:26:33.743Z</time></trkpt><trkpt lat="43.2546379" lon="12.2392922"><ele>632.0</ele><time>2026-03-29T08:26:34.743Z</time></trkpt><trkpt lat="43.2546043" lon="12.2393721"><ele>632.0</ele><time>2026-03-29T08:26:35.743Z</time></trkpt><trkpt lat="43.2545577" lon="12.2394888"><ele>633.1666666666666</ele><time>2026-03-29T08:26:37.743Z</time></trkpt><trkpt lat="43.2544429" lon="12.2395356"><ele>634.3333333333333</ele><time>2026-03-29T08:26:38.742Z</time></trkpt><trkpt lat="43.2543791" lon="12.2395769"><ele>635.5</ele><time>2026-03-29T08:26:39.743Z</time></trkpt><trkpt lat="43.2543102" lon="12.239581"><ele>636.6666666666666</ele><time>2026-03-29T08:26:40.743Z</time></trkpt><trkpt lat="43.2542445" lon="12.2395622"><ele>637.8333333333334</ele><time>2026-03-29T08:26:41.743Z</time></trkpt><trkpt lat="43.2541344" lon="12.2395709"><ele>639.0</ele><time>2026-03-29T08:26:43.742Z</time></trkpt><trkpt lat="43.254056" lon="12.2395865"><ele>639.6</ele><time>2026-03-29T08:26:45.742Z</time></trkpt><trkpt lat="43.2539535" lon="12.2395267"><ele>640.2</ele><time>2026-03-29T08:26:46.743Z</time></trkpt><trkpt lat="43.2538296" lon="12.2394039"><ele>640.8000000000001</ele><time>2026-03-29T08:26:48.743Z</time></trkpt><trkpt lat="43.2537203" lon="12.2393817"><ele>641.4</ele><time>2026-03-29T08:26:50.743Z</time></trkpt><trkpt lat="43.2536597" lon="12.2394127"><ele>642.0</ele><time>2026-03-29T08:26:51.743Z</time></trkpt><trkpt lat="43.2535315" lon="12.239473"><ele>642.0</ele><time>2026-03-29T08:26:53.743Z</time></trkpt><trkpt lat="43.2534537" lon="12.239522"><ele>642.0</ele><time>2026-03-29T08:26:54.743Z</time></trkpt><trkpt lat="43.2533697" lon="12.2395604"><ele>642.0</ele><time>2026-03-29T08:26:55.743Z</time></trkpt><trkpt lat="43.2532989" lon="12.23963"><ele>642.0</ele><time>2026-03-29T08:26:56.743Z</time></trkpt><trkpt lat="43.2532335" lon="12.2396719"><ele>642.0</ele><time>2026-03-29T08:26:57.743Z</time></trkpt><trkpt lat="43.2531588" lon="12.2396957"><ele>642.0</ele><time>2026-03-29T08:26:58.743Z</time></trkpt><trkpt lat="43.2530843" lon="12.2396998"><ele>641.6666666666666</ele><time>2026-03-29T08:26:59.743Z</time></trkpt><trkpt lat="43.253" lon="12.2396939"><ele>641.3333333333334</ele><time>2026-03-29T08:27:00.743Z</time></trkpt><trkpt lat="43.252917" lon="12.2396811"><ele>641.0</ele><time>2026-03-29T08:27:01.742Z</time></trkpt><trkpt lat="43.2528363" lon="12.239661"><ele>640.6666666666667</ele><time>2026-03-29T08:27:02.743Z</time></trkpt><trkpt lat="43.25276" lon="12.239699"><ele>640.3333333333334</ele><time>2026-03-29T08:27:03.743Z</time></trkpt><trkpt lat="43.252688" lon="12.2397724"><ele>640.0</ele><time>2026-03-29T08:27:04.743Z</time></trkpt><trkpt lat="43.2525981" lon="12.2397465"><ele>640.0</ele><time>2026-03-29T08:27:05.743Z</time></trkpt><trkpt lat="43.2525092" lon="12.239707"><ele>640.0</ele><time>2026-03-29T08:27:06.743Z</time></trkpt><trkpt lat="43.2524162" lon="12.2396718"><ele>640.0</ele><time>2026-03-29T08:27:07.743Z</time></trkpt><trkpt lat="43.2523521" lon="12.2396618"><ele>640.0</ele><time>2026-03-29T08:27:08.743Z</time></trkpt><trkpt lat="43.2522679" lon="12.2396514"><ele>640.0</ele><time>2026-03-29T08:27:09.742Z</time></trkpt><trkpt lat="43.2521899" lon="12.2396413"><ele>640.0</ele><time>2026-03-29T08:27:10.742Z</time></trkpt><trkpt lat="43.2520981" lon="12.2396139"><ele>641.6</ele><time>2026-03-29T08:27:11.743Z</time></trkpt><trkpt lat="43.2520087" lon="12.239589"><ele>643.2</ele><time>2026-03-29T08:27:12.743Z</time></trkpt><trkpt lat="43.2519096" lon="12.2395603"><ele>644.8</ele><time>2026-03-29T08:27:13.743Z</time></trkpt><trkpt lat="43.2517892" lon="12.2395432"><ele>646.4</ele><time>2026-03-29T08:27:14.743Z</time></trkpt><trkpt lat="43.2516832" lon="12.239515"><ele>648.0</ele><time>2026-03-29T08:27:15.743Z</time></trkpt><trkpt lat="43.2515859" lon="12.2394465"><ele>648.0</ele><time>2026-03-29T08:27:16.743Z</time></trkpt><trkpt lat="43.2514609" lon="12.2392938"><ele>648.0</ele><time>2026-03-29T08:27:18.743Z</time></trkpt><trkpt lat="43.2514201" lon="12.2392132"><ele>648.0</ele><time>2026-03-29T08:27:19.743Z</time></trkpt><trkpt lat="43.2513547" lon="12.2391423"><ele>648.0</ele><time>2026-03-29T08:27:20.743Z</time></trkpt><trkpt lat="43.2513406" lon="12.2390357"><ele>648.0</ele><time>2026-03-29T08:27:21.743Z</time></trkpt><trkpt lat="43.251296" lon="12.2388675"><ele>648.0</ele><time>2026-03-29T08:27:23.743Z</time></trkpt><trkpt lat="43.25125" lon="12.2387109"><ele>648.0</ele><time>2026-03-29T08:27:24.743Z</time></trkpt><trkpt lat="43.2511766" lon="12.2386355"><ele>648.0</ele><time>2026-03-29T08:27:25.743Z</time></trkpt><trkpt lat="43.251093" lon="12.2385641"><ele>648.0</ele><time>2026-03-29T08:27:26.742Z</time></trkpt><trkpt lat="43.2509694" lon="12.2385094"><ele>648.0</ele><time>2026-03-29T08:27:27.743Z</time></trkpt><trkpt lat="43.2508664" lon="12.2384801"><ele>648.0</ele><time>2026-03-29T08:27:28.743Z</time></trkpt><trkpt lat="43.2507153" lon="12.2384517"><ele>648.0</ele><time>2026-03-29T08:27:29.743Z</time></trkpt><trkpt lat="43.2505899" lon="12.2384453"><ele>648.0</ele><time>2026-03-29T08:27:30.743Z</time></trkpt><trkpt lat="43.2504606" lon="12.2384543"><ele>648.0</ele><time>2026-03-29T08:27:31.743Z</time></trkpt><trkpt lat="43.2503471" lon="12.2384629"><ele>648.2</ele><time>2026-03-29T08:27:32.743Z</time></trkpt><trkpt lat="43.2502331" lon="12.2384835"><ele>648.4</ele><time>2026-03-29T08:27:33.743Z</time></trkpt><trkpt lat="43.2501209" lon="12.2384917"><ele>648.6</ele><time>2026-03-29T08:27:34.743Z</time></trkpt><trkpt lat="43.2500169" lon="12.2384963"><ele>648.8000000000001</ele><time>2026-03-29T08:27:35.743Z</time></trkpt><trkpt lat="43.249917" lon="12.2384892"><ele>649.0</ele><time>2026-03-29T08:27:36.743Z</time></trkpt><trkpt lat="43.249834" lon="12.238465"><ele>648.6</ele><time>2026-03-29T08:27:37.743Z</time></trkpt><trkpt lat="43.2497504" lon="12.2384059"><ele>648.2</ele><time>2026-03-29T08:27:38.743Z</time></trkpt><trkpt lat="43.249668" lon="12.2383371"><ele>647.8000000000001</ele><time>2026-03-29T08:27:39.743Z</time></trkpt><trkpt lat="43.2496032" lon="12.2382559"><ele>647.4000000000001</ele><time>2026-03-29T08:27:40.742Z</time></trkpt><trkpt lat="43.2495236" lon="12.2381789"><ele>647.0</ele><time>2026-03-29T08:27:41.743Z</time></trkpt><trkpt lat="43.2494612" lon="12.238102"><ele>647.0</ele><time>2026-03-29T08:27:42.743Z</time></trkpt><trkpt lat="43.2493904" lon="12.2380297"><ele>647.0</ele><time>2026-03-29T08:27:43.743Z</time></trkpt><trkpt lat="43.2493443" lon="12.2379605"><ele>647.0</ele><time>2026-03-29T08:27:44.743Z</time></trkpt><trkpt lat="43.2493082" lon="12.2378835"><ele>647.0</ele><time>2026-03-29T08:27:45.743Z</time></trkpt><trkpt lat="43.2492739" lon="12.2378084"><ele>647.0</ele><time>2026-03-29T08:27:46.743Z</time></trkpt><trkpt lat="43.2491987" lon="12.2376862"><ele>647.0</ele><time>2026-03-29T08:27:48.743Z</time></trkpt><trkpt lat="43.249114" lon="12.2375772"><ele>647.0</ele><time>2026-03-29T08:27:50.743Z</time></trkpt><trkpt lat="43.2490425" lon="12.2374632"><ele>647.0</ele><time>2026-03-29T08:27:52.743Z</time></trkpt><trkpt lat="43.2490053" lon="12.2373799"><ele>647.0</ele><time>2026-03-29T08:27:53.742Z</time></trkpt><trkpt lat="43.2489552" lon="12.2372105"><ele>647.0</ele><time>2026-03-29T08:27:55.743Z</time></trkpt><trkpt lat="43.2489254" lon="12.2369514"><ele>648.2</ele><time>2026-03-29T08:27:58.743Z</time></trkpt><trkpt lat="43.248901" lon="12.2367947"><ele>649.4000000000001</ele><time>2026-03-29T08:28:00.743Z</time></trkpt><trkpt lat="43.2488926" lon="12.2366616"><ele>650.5999999999999</ele><time>2026-03-29T08:28:02.743Z</time></trkpt><trkpt lat="43.2488537" lon="12.2365538"><ele>651.8</ele><time>2026-03-29T08:28:07.743Z</time></trkpt><trkpt lat="43.2488213" lon="12.2363948"><ele>653.0</ele><time>2026-03-29T08:28:09.743Z</time></trkpt><trkpt lat="43.2487778" lon="12.2362635"><ele>650.8333333333333</ele><time>2026-03-29T08:28:11.743Z</time></trkpt><trkpt lat="43.2487302" lon="12.2361269"><ele>648.6666666666666</ele><time>2026-03-29T08:28:13.743Z</time></trkpt><trkpt lat="43.2486899" lon="12.2360265"><ele>646.5</ele><time>2026-03-29T08:28:15.743Z</time></trkpt><trkpt lat="43.2486472" lon="12.2359423"><ele>644.3333333333334</ele><time>2026-03-29T08:28:18.743Z</time></trkpt><trkpt lat="43.2486056" lon="12.2358627"><ele>642.1666666666667</ele><time>2026-03-29T08:28:21.743Z</time></trkpt><trkpt lat="43.2485376" lon="12.23577"><ele>640.0</ele><time>2026-03-29T08:33:00.743Z</time></trkpt><trkpt lat="43.2484659" lon="12.2356965"><ele>637.8</ele><time>2026-03-29T08:33:01.743Z</time></trkpt><trkpt lat="43.2483612" lon="12.2356123"><ele>635.6</ele><time>2026-03-29T08:33:03.743Z</time></trkpt><trkpt lat="43.2482933" lon="12.2355218"><ele>633.4</ele><time>2026-03-29T08:33:05.743Z</time></trkpt><trkpt lat="43.2482265" lon="12.2353765"><ele>631.2</ele><time>2026-03-29T08:33:07.743Z</time></trkpt><trkpt lat="43.2481948" lon="12.2353003"><ele>629.0</ele><time>2026-03-29T08:33:08.742Z</time></trkpt><trkpt lat="43.2481538" lon="12.2351249"><ele>628.5</ele><time>2026-03-29T08:33:09.743Z</time></trkpt><trkpt lat="43.248102" lon="12.2349874"><ele>628.0</ele><time>2026-03-29T08:33:10.743Z</time></trkpt><trkpt lat="43.248051" lon="12.2348544"><ele>627.5</ele><time>2026-03-29T08:33:11.743Z</time></trkpt><trkpt lat="43.2479591" lon="12.2347362"><ele>627.0</ele><time>2026-03-29T08:33:12.743Z</time></trkpt><trkpt lat="43.2478695" lon="12.234633"><ele>627.0</ele><time>2026-03-29T08:33:13.742Z</time></trkpt><trkpt lat="43.2477627" lon="12.2345315"><ele>627.0</ele><time>2026-03-29T08:33:14.743Z</time></trkpt><trkpt lat="43.2476813" lon="12.2344266"><ele>627.0</ele><time>2026-03-29T08:33:15.743Z</time></trkpt><trkpt lat="43.2476016" lon="12.2342983"><ele>627.0</ele><time>2026-03-29T08:33:16.743Z</time></trkpt><trkpt lat="43.2475378" lon="12.2341811"><ele>627.0</ele><time>2026-03-29T08:33:17.743Z</time></trkpt><trkpt lat="43.2474797" lon="12.2340592"><ele>627.0</ele><time>2026-03-29T08:33:18.743Z</time></trkpt><trkpt lat="43.2474442" lon="12.2339455"><ele>627.0</ele><time>2026-03-29T08:33:19.743Z</time></trkpt><trkpt lat="43.2474153" lon="12.23383"><ele>627.0</ele><time>2026-03-29T08:33:20.742Z</time></trkpt><trkpt lat="43.2473777" lon="12.2337079"><ele>627.0</ele><time>2026-03-29T08:33:21.743Z</time></trkpt><trkpt lat="43.247344" lon="12.2335992"><ele>628.0</ele><time>2026-03-29T08:33:22.743Z</time></trkpt><trkpt lat="43.2472982" lon="12.2334933"><ele>629.0</ele><time>2026-03-29T08:33:23.743Z</time></trkpt><trkpt lat="43.2472729" lon="12.2333856"><ele>630.0</ele><time>2026-03-29T08:33:24.743Z</time></trkpt><trkpt lat="43.2472666" lon="12.2332761"><ele>631.0</ele><time>2026-03-29T08:33:25.743Z</time></trkpt><trkpt lat="43.2472467" lon="12.2331475"><ele>632.0</ele><time>2026-03-29T08:33:26.743Z</time></trkpt><trkpt lat="43.2472143" lon="12.2330445"><ele>633.0</ele><time>2026-03-29T08:33:27.743Z</time></trkpt><trkpt lat="43.2471777" lon="12.2329566"><ele>628.8</ele><time>2026-03-29T08:33:28.743Z</time></trkpt><trkpt lat="43.247114" lon="12.2328496"><ele>624.5999999999999</ele><time>2026-03-29T08:33:29.743Z</time></trkpt><trkpt lat="43.2470596" lon="12.2327467"><ele>620.4000000000001</ele><time>2026-03-29T08:33:30.743Z</time></trkpt><trkpt lat="43.2469963" lon="12.2326504"><ele>616.2</ele><time>2026-03-29T08:33:31.743Z</time></trkpt><trkpt lat="43.2469426" lon="12.2325342"><ele>612.0</ele><time>2026-03-29T08:33:32.743Z</time></trkpt><trkpt lat="43.2468956" lon="12.2324057"><ele>612.8000000000001</ele><time>2026-03-29T08:33:33.743Z</time></trkpt><trkpt lat="43.2468551" lon="12.2322734"><ele>613.6</ele><time>2026-03-29T08:33:34.743Z</time></trkpt><trkpt lat="43.2468094" lon="12.232148"><ele>614.4000000000001</ele><time>2026-03-29T08:33:35.743Z</time></trkpt><trkpt lat="43.2467682" lon="12.2320314"><ele>615.2</ele><time>2026-03-29T08:33:36.743Z</time></trkpt><trkpt lat="43.2467471" lon="12.2319383"><ele>616.0</ele><time>2026-03-29T08:33:37.743Z</time></trkpt><trkpt lat="43.2467085" lon="12.2318155"><ele>616.0</ele><time>2026-03-29T08:33:38.743Z</time></trkpt><trkpt lat="43.2466567" lon="12.231734"><ele>616.0</ele><time>2026-03-29T08:33:39.742Z</time></trkpt><trkpt lat="43.2466072" lon="12.2316154"><ele>616.0</ele><time>2026-03-29T08:33:40.742Z</time></trkpt><trkpt lat="43.2465051" lon="12.231412"><ele>616.0</ele><time>2026-03-29T08:33:42.743Z</time></trkpt><trkpt lat="43.2464301" lon="12.2313287"><ele>611.5</ele><time>2026-03-29T08:33:43.743Z</time></trkpt><trkpt lat="43.246352" lon="12.2312643"><ele>607.0</ele><time>2026-03-29T08:33:44.743Z</time></trkpt><trkpt lat="43.246209" lon="12.2311381"><ele>602.5</ele><time>2026-03-29T08:33:46.743Z</time></trkpt><trkpt lat="43.24612" lon="12.2310285"><ele>598.0</ele><time>2026-03-29T08:33:47.742Z</time></trkpt><trkpt lat="43.2460243" lon="12.2309326"><ele>598.0</ele><time>2026-03-29T08:33:48.743Z</time></trkpt><trkpt lat="43.2459399" lon="12.2308428"><ele>598.0</ele><time>2026-03-29T08:33:49.743Z</time></trkpt><trkpt lat="43.2458739" lon="12.2307845"><ele>598.0</ele><time>2026-03-29T08:33:50.743Z</time></trkpt><trkpt lat="43.2458007" lon="12.2307236"><ele>598.0</ele><time>2026-03-29T08:33:51.743Z</time></trkpt><trkpt lat="43.245732" lon="12.2306737"><ele>598.0</ele><time>2026-03-29T08:33:52.743Z</time></trkpt><trkpt lat="43.2456664" lon="12.2306075"><ele>598.0</ele><time>2026-03-29T08:33:53.743Z</time></trkpt><trkpt lat="43.2455243" lon="12.2304834"><ele>596.1999999999999</ele><time>2026-03-29T08:33:55.742Z</time></trkpt><trkpt lat="43.2454317" lon="12.2303903"><ele>594.4</ele><time>2026-03-29T08:33:56.743Z</time></trkpt><trkpt lat="43.2453502" lon="12.2303199"><ele>592.5999999999999</ele><time>2026-03-29T08:33:57.743Z</time></trkpt><trkpt lat="43.2452531" lon="12.2302326"><ele>590.8</ele><time>2026-03-29T08:33:58.743Z</time></trkpt><trkpt lat="43.2451578" lon="12.2301291"><ele>589.0</ele><time>2026-03-29T08:33:59.743Z</time></trkpt><trkpt lat="43.24506" lon="12.2300291"><ele>589.0</ele><time>2026-03-29T08:34:00.743Z</time></trkpt><trkpt lat="43.2449645" lon="12.229942"><ele>589.0</ele><time>2026-03-29T08:34:01.743Z</time></trkpt><trkpt lat="43.2448653" lon="12.2298389"><ele>589.0</ele><time>2026-03-29T08:34:02.743Z</time></trkpt><trkpt lat="43.244763" lon="12.2297392"><ele>589.0</ele><time>2026-03-29T08:34:03.743Z</time></trkpt><trkpt lat="43.2446573" lon="12.2296306"><ele>586.25</ele><time>2026-03-29T08:34:04.743Z</time></trkpt><trkpt lat="43.2445467" lon="12.229526"><ele>583.5</ele><time>2026-03-29T08:34:05.743Z</time></trkpt><trkpt lat="43.2444277" lon="12.2294046"><ele>580.75</ele><time>2026-03-29T08:34:06.743Z</time></trkpt><trkpt lat="43.2443241" lon="12.2292829"><ele>578.0</ele><time>2026-03-29T08:34:07.743Z</time></trkpt><trkpt lat="43.2442343" lon="12.2291591"><ele>578.0</ele><time>2026-03-29T08:34:08.743Z</time></trkpt><trkpt lat="43.2442191" lon="12.2289789"><ele>578.0</ele><time>2026-03-29T08:34:09.743Z</time></trkpt><trkpt lat="43.2442115" lon="12.2288167"><ele>578.0</ele><time>2026-03-29T08:34:10.743Z</time></trkpt><trkpt lat="43.2443088" lon="12.2286739"><ele>578.0</ele><time>2026-03-29T08:34:11.743Z</time></trkpt><trkpt lat="43.244369" lon="12.2285043"><ele>576.75</ele><time>2026-03-29T08:34:12.743Z</time></trkpt><trkpt lat="43.2444499" lon="12.2283594"><ele>575.5</ele><time>2026-03-29T08:34:13.743Z</time></trkpt><trkpt lat="43.2445281" lon="12.2282115"><ele>574.25</ele><time>2026-03-29T08:34:14.743Z</time></trkpt><trkpt lat="43.2445968" lon="12.2280611"><ele>573.0</ele><time>2026-03-29T08:34:15.743Z</time></trkpt><trkpt lat="43.2446363" lon="12.2279088"><ele>573.0</ele><time>2026-03-29T08:34:16.743Z</time></trkpt><trkpt lat="43.2446545" lon="12.2277388"><ele>573.0</ele><time>2026-03-29T08:34:17.743Z</time></trkpt><trkpt lat="43.2446564" lon="12.2275863"><ele>573.0</ele><time>2026-03-29T08:34:18.743Z</time></trkpt><trkpt lat="43.2446148" lon="12.2274359"><ele>573.0</ele><time>2026-03-29T08:34:19.743Z</time></trkpt><trkpt lat="43.2445627" lon="12.2273037"><ele>573.0</ele><time>2026-03-29T08:34:20.743Z</time></trkpt><trkpt lat="43.2444691" lon="12.2271854"><ele>573.0</ele><time>2026-03-29T08:34:21.743Z</time></trkpt><trkpt lat="43.2443928" lon="12.2270486"><ele>573.0</ele><time>2026-03-29T08:34:22.743Z</time></trkpt><trkpt lat="43.2442292" lon="12.226773"><ele>573.0</ele><time>2026-03-29T08:34:24.743Z</time></trkpt><trkpt lat="43.2441505" lon="12.226647"><ele>573.0</ele><time>2026-03-29T08:34:25.743Z</time></trkpt><trkpt lat="43.2440751" lon="12.2265195"><ele>573.0</ele><time>2026-03-29T08:34:26.743Z</time></trkpt><trkpt lat="43.2440105" lon="12.2264006"><ele>573.0</ele><time>2026-03-29T08:34:27.743Z</time></trkpt><trkpt lat="43.2439592" lon="12.2262794"><ele>574.8333333333334</ele><time>2026-03-29T08:34:28.743Z</time></trkpt><trkpt lat="43.2439053" lon="12.2261638"><ele>576.6666666666666</ele><time>2026-03-29T08:34:29.743Z</time></trkpt><trkpt lat="43.243873" lon="12.2260433"><ele>578.5</ele><time>2026-03-29T08:34:30.743Z</time></trkpt><trkpt lat="43.2438352" lon="12.2259605"><ele>580.3333333333333</ele><time>2026-03-29T08:34:31.743Z</time></trkpt><trkpt lat="43.2437839" lon="12.2258777"><ele>582.1666666666666</ele><time>2026-03-29T08:34:32.742Z</time></trkpt><trkpt lat="43.2437176" lon="12.2257928"><ele>584.0</ele><time>2026-03-29T08:34:33.743Z</time></trkpt><trkpt lat="43.243641" lon="12.2257642"><ele>584.0</ele><time>2026-03-29T08:34:34.743Z</time></trkpt><trkpt lat="43.2435556" lon="12.2257564"><ele>584.0</ele><time>2026-03-29T08:34:35.743Z</time></trkpt><trkpt lat="43.2434641" lon="12.2257484"><ele>584.0</ele><time>2026-03-29T08:34:36.743Z</time></trkpt><trkpt lat="43.2433646" lon="12.2257319"><ele>584.0</ele><time>2026-03-29T08:34:37.743Z</time></trkpt><trkpt lat="43.2432611" lon="12.2256908"><ele>584.0</ele><time>2026-03-29T08:34:38.743Z</time></trkpt><trkpt lat="43.2431349" lon="12.2256588"><ele>590.75</ele><time>2026-03-29T08:34:39.743Z</time></trkpt><trkpt lat="43.2430173" lon="12.2255777"><ele>597.5</ele><time>2026-03-29T08:34:40.742Z</time></trkpt><trkpt lat="43.2428845" lon="12.2255128"><ele>604.25</ele><time>2026-03-29T08:34:41.743Z</time></trkpt><trkpt lat="43.2427751" lon="12.2254347"><ele>611.0</ele><time>2026-03-29T08:34:42.743Z</time></trkpt><trkpt lat="43.2426502" lon="12.2253301"><ele>611.0</ele><time>2026-03-29T08:34:43.743Z</time></trkpt><trkpt lat="43.2425306" lon="12.2252221"><ele>611.0</ele><time>2026-03-29T08:34:44.743Z</time></trkpt><trkpt lat="43.2424178" lon="12.2251199"><ele>611.0</ele><time>2026-03-29T08:34:45.743Z</time></trkpt><trkpt lat="43.2423378" lon="12.2250228"><ele>611.0</ele><time>2026-03-29T08:34:46.743Z</time></trkpt><trkpt lat="43.2422534" lon="12.2249543"><ele>611.4</ele><time>2026-03-29T08:34:47.742Z</time></trkpt><trkpt lat="43.2421628" lon="12.2248878"><ele>611.8</ele><time>2026-03-29T08:34:48.743Z</time></trkpt><trkpt lat="43.2421331" lon="12.2247839"><ele>612.1999999999999</ele><time>2026-03-29T08:34:49.743Z</time></trkpt><trkpt lat="43.2420715" lon="12.2246976"><ele>612.6</ele><time>2026-03-29T08:34:50.743Z</time></trkpt><trkpt lat="43.2420172" lon="12.2246119"><ele>613.0</ele><time>2026-03-29T08:34:51.743Z</time></trkpt><trkpt lat="43.2419316" lon="12.2247201"><ele>613.0</ele><time>2026-03-29T08:34:52.742Z</time></trkpt><trkpt lat="43.2418371" lon="12.224685"><ele>613.0</ele><time>2026-03-29T08:34:54.743Z</time></trkpt><trkpt lat="43.2418016" lon="12.2245491"><ele>613.0</ele><time>2026-03-29T08:34:55.743Z</time></trkpt><trkpt lat="43.2417856" lon="12.224464"><ele>613.0</ele><time>2026-03-29T08:34:56.742Z</time></trkpt><trkpt lat="43.2417652" lon="12.2243774"><ele>613.0</ele><time>2026-03-29T08:34:57.743Z</time></trkpt><trkpt lat="43.2417629" lon="12.2242757"><ele>613.0</ele><time>2026-03-29T08:34:58.743Z</time></trkpt><trkpt lat="43.2417725" lon="12.22417"><ele>613.0</ele><time>2026-03-29T08:34:59.743Z</time></trkpt><trkpt lat="43.24179" lon="12.2240562"><ele>613.0</ele><time>2026-03-29T08:35:00.743Z</time></trkpt><trkpt lat="43.2418012" lon="12.2239405"><ele>613.0</ele><time>2026-03-29T08:35:01.743Z</time></trkpt><trkpt lat="43.2418185" lon="12.2238247"><ele>613.0</ele><time>2026-03-29T08:35:02.743Z</time></trkpt><trkpt lat="43.2418214" lon="12.2237221"><ele>613.0</ele><time>2026-03-29T08:35:03.743Z</time></trkpt><trkpt lat="43.2418186" lon="12.2236107"><ele>613.0</ele><time>2026-03-29T08:35:04.743Z</time></trkpt><trkpt lat="43.2418139" lon="12.2235158"><ele>614.1666666666667</ele><time>2026-03-29T08:35:05.743Z</time></trkpt><trkpt lat="43.2418033" lon="12.2234002"><ele>615.3333333333334</ele><time>2026-03-29T08:35:07.743Z</time></trkpt><trkpt lat="43.241708" lon="12.2232748"><ele>616.5</ele><time>2026-03-29T08:35:09.743Z</time></trkpt><trkpt lat="43.2416475" lon="12.2232144"><ele>617.6666666666666</ele><time>2026-03-29T08:35:10.743Z</time></trkpt><trkpt lat="43.2415925" lon="12.2231669"><ele>618.8333333333333</ele><time>2026-03-29T08:35:11.743Z</time></trkpt><trkpt lat="43.2415455" lon="12.2230598"><ele>620.0</ele><time>2026-03-29T08:35:13.743Z</time></trkpt><trkpt lat="43.2415447" lon="12.2229403"><ele>617.4</ele><time>2026-03-29T08:35:15.743Z</time></trkpt><trkpt lat="43.241442" lon="12.2228974"><ele>614.8</ele><time>2026-03-29T08:35:17.743Z</time></trkpt><trkpt lat="43.2413493" lon="12.2228728"><ele>612.2</ele><time>2026-03-29T08:35:19.743Z</time></trkpt><trkpt lat="43.2412719" lon="12.2227724"><ele>609.6</ele><time>2026-03-29T08:35:21.743Z</time></trkpt><trkpt lat="43.2412641" lon="12.222671"><ele>607.0</ele><time>2026-03-29T08:35:22.743Z</time></trkpt><trkpt lat="43.24129" lon="12.2225102"><ele>607.0</ele><time>2026-03-29T08:35:24.743Z</time></trkpt><trkpt lat="43.2412969" lon="12.2224196"><ele>607.0</ele><time>2026-03-29T08:35:25.743Z</time></trkpt><trkpt lat="43.241246" lon="12.2222795"><ele>607.0</ele><time>2026-03-29T08:35:27.743Z</time></trkpt><trkpt lat="43.2411318" lon="12.2223332"><ele>607.0</ele><time>2026-03-29T08:35:29.743Z</time></trkpt><trkpt lat="43.2410674" lon="12.2223293"><ele>607.0</ele><time>2026-03-29T08:35:30.743Z</time></trkpt><trkpt lat="43.2409948" lon="12.2223576"><ele>607.0</ele><time>2026-03-29T08:35:31.743Z</time></trkpt><trkpt lat="43.2409132" lon="12.2223586"><ele>607.0</ele><time>2026-03-29T08:35:32.743Z</time></trkpt><trkpt lat="43.2408178" lon="12.2223847"><ele>607.0</ele><time>2026-03-29T08:35:33.743Z</time></trkpt><trkpt lat="43.2407331" lon="12.2224032"><ele>607.0</ele><time>2026-03-29T08:35:34.743Z</time></trkpt><trkpt lat="43.2406543" lon="12.2224415"><ele>607.0</ele><time>2026-03-29T08:35:35.743Z</time></trkpt><trkpt lat="43.240569" lon="12.2224773"><ele>607.0</ele><time>2026-03-29T08:35:36.743Z</time></trkpt><trkpt lat="43.2404794" lon="12.222519"><ele>605.2</ele><time>2026-03-29T08:35:37.743Z</time></trkpt><trkpt lat="43.2403684" lon="12.2225373"><ele>603.4000000000001</ele><time>2026-03-29T08:35:38.743Z</time></trkpt><trkpt lat="43.2402604" lon="12.2225449"><ele>601.5999999999999</ele><time>2026-03-29T08:35:39.743Z</time></trkpt><trkpt lat="43.2401532" lon="12.2225457"><ele>599.8</ele><time>2026-03-29T08:35:40.743Z</time></trkpt><trkpt lat="43.2400515" lon="12.2225248"><ele>598.0</ele><time>2026-03-29T08:35:41.743Z</time></trkpt><trkpt lat="43.2399494" lon="12.222483"><ele>598.0</ele><time>2026-03-29T08:35:42.743Z</time></trkpt><trkpt lat="43.2398419" lon="12.2224127"><ele>598.0</ele><time>2026-03-29T08:35:43.743Z</time></trkpt><trkpt lat="43.2397313" lon="12.2223709"><ele>598.0</ele><time>2026-03-29T08:35:44.743Z</time></trkpt><trkpt lat="43.2394278" lon="12.2222012"><ele>596.6666666666667</ele><time>2026-03-29T08:35:46.743Z</time></trkpt><trkpt lat="43.2392892" lon="12.2221091"><ele>595.3333333333334</ele><time>2026-03-29T08:35:47.742Z</time></trkpt><trkpt lat="43.2390369" lon="12.2219652"><ele>594.0</ele><time>2026-03-29T08:35:49.743Z</time></trkpt><trkpt lat="43.2388783" lon="12.2218903"><ele>597.3333333333334</ele><time>2026-03-29T08:35:50.742Z</time></trkpt><trkpt lat="43.2387397" lon="12.2218147"><ele>600.6666666666667</ele><time>2026-03-29T08:35:51.743Z</time></trkpt><trkpt lat="43.2385907" lon="12.2217251"><ele>604.0</ele><time>2026-03-29T08:35:52.743Z</time></trkpt><trkpt lat="43.2384465" lon="12.2216445"><ele>604.0</ele><time>2026-03-29T08:35:53.743Z</time></trkpt><trkpt lat="43.2383099" lon="12.2215506"><ele>604.0</ele><time>2026-03-29T08:35:54.743Z</time></trkpt><trkpt lat="43.2381768" lon="12.2214529"><ele>604.0</ele><time>2026-03-29T08:35:55.742Z</time></trkpt><trkpt lat="43.2380434" lon="12.2213618"><ele>599.3333333333334</ele><time>2026-03-29T08:35:56.743Z</time></trkpt><trkpt lat="43.237802" lon="12.2212157"><ele>594.6666666666666</ele><time>2026-03-29T08:35:58.743Z</time></trkpt><trkpt lat="43.2376617" lon="12.2211476"><ele>590.0</ele><time>2026-03-29T08:35:59.743Z</time></trkpt><trkpt lat="43.2375043" lon="12.2211543"><ele>590.0</ele><time>2026-03-29T08:36:00.742Z</time></trkpt><trkpt lat="43.2373437" lon="12.2211246"><ele>590.0</ele><time>2026-03-29T08:36:01.743Z</time></trkpt><trkpt lat="43.2371928" lon="12.2211036"><ele>590.0</ele><time>2026-03-29T08:36:02.743Z</time></trkpt><trkpt lat="43.2370469" lon="12.2210891"><ele>588.25</ele><time>2026-03-29T08:36:03.743Z</time></trkpt><trkpt lat="43.2369347" lon="12.221066"><ele>586.5</ele><time>2026-03-29T08:36:04.743Z</time></trkpt><trkpt lat="43.2368033" lon="12.2210317"><ele>584.75</ele><time>2026-03-29T08:36:05.743Z</time></trkpt><trkpt lat="43.2366806" lon="12.2209928"><ele>583.0</ele><time>2026-03-29T08:36:06.743Z</time></trkpt><trkpt lat="43.23658" lon="12.2209039"><ele>583.0</ele><time>2026-03-29T08:36:07.743Z</time></trkpt><trkpt lat="43.2364698" lon="12.2207876"><ele>583.0</ele><time>2026-03-29T08:36:08.743Z</time></trkpt><trkpt lat="43.2364057" lon="12.2206804"><ele>583.0</ele><time>2026-03-29T08:36:09.743Z</time></trkpt><trkpt lat="43.2363608" lon="12.22055"><ele>583.0</ele><time>2026-03-29T08:36:10.743Z</time></trkpt><trkpt lat="43.2362883" lon="12.220377"><ele>579.0</ele><time>2026-03-29T08:36:11.743Z</time></trkpt><trkpt lat="43.236237" lon="12.2201888"><ele>575.0</ele><time>2026-03-29T08:36:12.743Z</time></trkpt><trkpt lat="43.2361936" lon="12.2200129"><ele>571.0</ele><time>2026-03-29T08:36:13.743Z</time></trkpt><trkpt lat="43.2361733" lon="12.2198503"><ele>567.0</ele><time>2026-03-29T08:36:14.743Z</time></trkpt><trkpt lat="43.2361732" lon="12.219662"><ele>567.0</ele><time>2026-03-29T08:36:15.743Z</time></trkpt><trkpt lat="43.2361499" lon="12.2195021"><ele>567.0</ele><time>2026-03-29T08:36:16.743Z</time></trkpt><trkpt lat="43.236131" lon="12.2193337"><ele>567.0</ele><time>2026-03-29T08:36:17.743Z</time></trkpt><trkpt lat="43.2361168" lon="12.2191669"><ele>567.0</ele><time>2026-03-29T08:36:18.743Z</time></trkpt><trkpt lat="43.2360864" lon="12.2190216"><ele>567.25</ele><time>2026-03-29T08:36:19.743Z</time></trkpt><trkpt lat="43.2360471" lon="12.218872"><ele>567.5</ele><time>2026-03-29T08:36:20.743Z</time></trkpt><trkpt lat="43.2359327" lon="12.2187271"><ele>567.75</ele><time>2026-03-29T08:36:21.742Z</time></trkpt><trkpt lat="43.2358279" lon="12.2186111"><ele>568.0</ele><time>2026-03-29T08:36:22.743Z</time></trkpt><trkpt lat="43.2357236" lon="12.2184946"><ele>566.25</ele><time>2026-03-29T08:36:23.743Z</time></trkpt><trkpt lat="43.235603" lon="12.2184001"><ele>564.5</ele><time>2026-03-29T08:36:24.743Z</time></trkpt><trkpt lat="43.2354796" lon="12.2183126"><ele>562.75</ele><time>2026-03-29T08:36:25.743Z</time></trkpt><trkpt lat="43.2353785" lon="12.2182253"><ele>561.0</ele><time>2026-03-29T08:36:26.743Z</time></trkpt><trkpt lat="43.2352687" lon="12.2181853"><ele>561.75</ele><time>2026-03-29T08:36:27.743Z</time></trkpt><trkpt lat="43.2351589" lon="12.2181106"><ele>562.5</ele><time>2026-03-29T08:36:28.743Z</time></trkpt><trkpt lat="43.2350667" lon="12.2180463"><ele>563.25</ele><time>2026-03-29T08:36:29.743Z</time></trkpt><trkpt lat="43.2349514" lon="12.2179785"><ele>564.0</ele><time>2026-03-29T08:36:30.743Z</time></trkpt><trkpt lat="43.2348419" lon="12.2178866"><ele>562.0</ele><time>2026-03-29T08:36:31.743Z</time></trkpt><trkpt lat="43.234749" lon="12.2177977"><ele>560.0</ele><time>2026-03-29T08:36:32.743Z</time></trkpt><trkpt lat="43.234675" lon="12.2176965"><ele>558.0</ele><time>2026-03-29T08:36:33.743Z</time></trkpt><trkpt lat="43.2346127" lon="12.2175873"><ele>556.0</ele><time>2026-03-29T08:36:34.743Z</time></trkpt><trkpt lat="43.2345581" lon="12.2174939"><ele>554.0</ele><time>2026-03-29T08:36:35.743Z</time></trkpt><trkpt lat="43.2345015" lon="12.2174074"><ele>554.0</ele><time>2026-03-29T08:36:36.743Z</time></trkpt><trkpt lat="43.2344527" lon="12.2173274"><ele>554.0</ele><time>2026-03-29T08:36:37.743Z</time></trkpt><trkpt lat="43.2344083" lon="12.2172342"><ele>554.0</ele><time>2026-03-29T08:36:38.743Z</time></trkpt><trkpt lat="43.2343652" lon="12.2171353"><ele>554.0</ele><time>2026-03-29T08:36:39.743Z</time></trkpt><trkpt lat="43.2343254" lon="12.2170222"><ele>554.0</ele><time>2026-03-29T08:36:40.743Z</time></trkpt><trkpt lat="43.2342821" lon="12.2168899"><ele>554.0</ele><time>2026-03-29T08:36:41.743Z</time></trkpt><trkpt lat="43.2342365" lon="12.2167443"><ele>553.8</ele><time>2026-03-29T08:36:42.743Z</time></trkpt><trkpt lat="43.2341975" lon="12.2165879"><ele>553.5999999999999</ele><time>2026-03-29T08:36:43.743Z</time></trkpt><trkpt lat="43.2341667" lon="12.2164412"><ele>553.4</ele><time>2026-03-29T08:36:44.742Z</time></trkpt><trkpt lat="43.2341307" lon="12.2163002"><ele>553.1999999999999</ele><time>2026-03-29T08:36:45.743Z</time></trkpt><trkpt lat="43.2341015" lon="12.2161593"><ele>553.0</ele><time>2026-03-29T08:36:46.743Z</time></trkpt><trkpt lat="43.2340704" lon="12.2160488"><ele>553.0</ele><time>2026-03-29T08:36:47.743Z</time></trkpt><trkpt lat="43.2340209" lon="12.2159393"><ele>553.0</ele><time>2026-03-29T08:36:48.743Z</time></trkpt><trkpt lat="43.2339659" lon="12.2158253"><ele>553.0</ele><time>2026-03-29T08:36:49.743Z</time></trkpt><trkpt lat="43.2338638" lon="12.2157289"><ele>553.0</ele><time>2026-03-29T08:36:50.743Z</time></trkpt><trkpt lat="43.233765" lon="12.2156193"><ele>553.0</ele><time>2026-03-29T08:36:51.743Z</time></trkpt><trkpt lat="43.2336774" lon="12.2155074"><ele>551.0</ele><time>2026-03-29T08:36:52.743Z</time></trkpt><trkpt lat="43.2336182" lon="12.215383"><ele>549.0</ele><time>2026-03-29T08:36:53.743Z</time></trkpt><trkpt lat="43.2335762" lon="12.2152575"><ele>547.0</ele><time>2026-03-29T08:36:54.743Z</time></trkpt><trkpt lat="43.2335966" lon="12.2149679"><ele>545.0</ele><time>2026-03-29T08:36:56.743Z</time></trkpt><trkpt lat="43.2336372" lon="12.21484"><ele>544.3333333333333</ele><time>2026-03-29T08:36:57.743Z</time></trkpt><trkpt lat="43.2338354" lon="12.2146254"><ele>543.6666666666666</ele><time>2026-03-29T08:36:59.743Z</time></trkpt><trkpt lat="43.2339513" lon="12.2145519"><ele>543.0</ele><time>2026-03-29T08:37:00.743Z</time></trkpt><trkpt lat="43.234072" lon="12.2144784"><ele>543.0</ele><time>2026-03-29T08:37:01.743Z</time></trkpt><trkpt lat="43.2341927" lon="12.2144319"><ele>543.0</ele><time>2026-03-29T08:37:02.743Z</time></trkpt><trkpt lat="43.234347" lon="12.2144215"><ele>543.0</ele><time>2026-03-29T08:37:03.743Z</time></trkpt><trkpt lat="43.2344795" lon="12.2144447"><ele>543.0</ele><time>2026-03-29T08:37:04.742Z</time></trkpt><trkpt lat="43.2347243" lon="12.2145082"><ele>543.0</ele><time>2026-03-29T08:37:06.743Z</time></trkpt><trkpt lat="43.2347733" lon="12.2146301"><ele>543.0</ele><time>2026-03-29T08:37:07.743Z</time></trkpt><trkpt lat="43.2348137" lon="12.2148054"><ele>543.0</ele><time>2026-03-29T08:37:08.743Z</time></trkpt><trkpt lat="43.2348477" lon="12.2149906"><ele>543.0</ele><time>2026-03-29T08:37:09.743Z</time></trkpt><trkpt lat="43.2348889" lon="12.2151735"><ele>542.6666666666666</ele><time>2026-03-29T08:37:10.743Z</time></trkpt><trkpt lat="43.2349488" lon="12.2152741"><ele>542.3333333333334</ele><time>2026-03-29T08:37:11.743Z</time></trkpt><trkpt lat="43.2350093" lon="12.2153874"><ele>542.0</ele><time>2026-03-29T08:37:12.743Z</time></trkpt><trkpt lat="43.2350885" lon="12.2154143"><ele>541.6666666666667</ele><time>2026-03-29T08:37:13.743Z</time></trkpt><trkpt lat="43.2351717" lon="12.215431"><ele>541.3333333333334</ele><time>2026-03-29T08:37:14.743Z</time></trkpt><trkpt lat="43.2352453" lon="12.2153863"><ele>541.0</ele><time>2026-03-29T08:37:15.743Z</time></trkpt><trkpt lat="43.2352958" lon="12.2152915"><ele>541.0</ele><time>2026-03-29T08:37:16.743Z</time></trkpt><trkpt lat="43.2353289" lon="12.2151828"><ele>541.0</ele><time>2026-03-29T08:37:17.743Z</time></trkpt><trkpt lat="43.2353415" lon="12.2150769"><ele>541.0</ele><time>2026-03-29T08:37:18.742Z</time></trkpt><trkpt lat="43.2353451" lon="12.214959"><ele>541.0</ele><time>2026-03-29T08:37:19.743Z</time></trkpt><trkpt lat="43.2352518" lon="12.2147886"><ele>541.0</ele><time>2026-03-29T08:37:20.743Z</time></trkpt><trkpt lat="43.2352051" lon="12.2145756"><ele>539.0</ele><time>2026-03-29T08:37:21.743Z</time></trkpt><trkpt lat="43.2351558" lon="12.2143917"><ele>537.0</ele><time>2026-03-29T08:37:22.743Z</time></trkpt><trkpt lat="43.2351086" lon="12.2141872"><ele>535.0</ele><time>2026-03-29T08:37:23.743Z</time></trkpt><trkpt lat="43.2350895" lon="12.2139963"><ele>533.0</ele><time>2026-03-29T08:37:24.743Z</time></trkpt><trkpt lat="43.2350568" lon="12.2137912"><ele>528.25</ele><time>2026-03-29T08:37:25.743Z</time></trkpt><trkpt lat="43.2350087" lon="12.213594"><ele>523.5</ele><time>2026-03-29T08:37:26.743Z</time></trkpt><trkpt lat="43.2349817" lon="12.213425"><ele>518.75</ele><time>2026-03-29T08:37:27.743Z</time></trkpt><trkpt lat="43.2349691" lon="12.2132575"><ele>514.0</ele><time>2026-03-29T08:37:28.743Z</time></trkpt><trkpt lat="43.2349341" lon="12.2131252"><ele>511.25</ele><time>2026-03-29T08:37:29.743Z</time></trkpt><trkpt lat="43.2348876" lon="12.2130232"><ele>508.5</ele><time>2026-03-29T08:37:30.743Z</time></trkpt><trkpt lat="43.234917" lon="12.2128842"><ele>505.75</ele><time>2026-03-29T08:37:31.743Z</time></trkpt><trkpt lat="43.235082" lon="12.2128484"><ele>503.0</ele><time>2026-03-29T08:37:32.743Z</time></trkpt><trkpt lat="43.2353364" lon="12.2128337"><ele>503.0</ele><time>2026-03-29T08:37:34.743Z</time></trkpt><trkpt lat="43.2354352" lon="12.2127687"><ele>502.99999999999994</ele><time>2026-03-29T08:37:35.743Z</time></trkpt><trkpt lat="43.2355063" lon="12.2127089"><ele>502.99999999999994</ele><time>2026-03-29T08:37:36.742Z</time></trkpt><trkpt lat="43.2355739" lon="12.2126323"><ele>503.0</ele><time>2026-03-29T08:37:37.743Z</time></trkpt><trkpt lat="43.2355956" lon="12.2124295"><ele>503.0</ele><time>2026-03-29T08:37:39.743Z</time></trkpt><trkpt lat="43.235564" lon="12.212347"><ele>503.0</ele><time>2026-03-29T08:37:40.743Z</time></trkpt><trkpt lat="43.2355002" lon="12.2122761"><ele>502.99999999999994</ele><time>2026-03-29T08:37:41.743Z</time></trkpt><trkpt lat="43.2354014" lon="12.2122812"><ele>502.99999999999994</ele><time>2026-03-29T08:37:42.743Z</time></trkpt><trkpt lat="43.2352962" lon="12.2122843"><ele>503.0</ele><time>2026-03-29T08:37:43.743Z</time></trkpt><trkpt lat="43.2351933" lon="12.2123417"><ele>503.0</ele><time>2026-03-29T08:37:44.743Z</time></trkpt><trkpt lat="43.2349494" lon="12.2124608"><ele>503.0</ele><time>2026-03-29T08:37:46.743Z</time></trkpt><trkpt lat="43.2348182" lon="12.2125031"><ele>503.0</ele><time>2026-03-29T08:37:47.743Z</time></trkpt><trkpt lat="43.2346927" lon="12.2125472"><ele>503.0</ele><time>2026-03-29T08:37:48.743Z</time></trkpt><trkpt lat="43.2345752" lon="12.2126436"><ele>503.0</ele><time>2026-03-29T08:37:49.743Z</time></trkpt><trkpt lat="43.2344646" lon="12.2126774"><ele>502.79999999999995</ele><time>2026-03-29T08:37:50.743Z</time></trkpt><trkpt lat="43.2343579" lon="12.2127025"><ele>502.59999999999997</ele><time>2026-03-29T08:37:51.743Z</time></trkpt><trkpt lat="43.2342631" lon="12.2126895"><ele>502.40000000000003</ele><time>2026-03-29T08:37:52.743Z</time></trkpt><trkpt lat="43.234226" lon="12.2125521"><ele>502.20000000000005</ele><time>2026-03-29T08:37:53.743Z</time></trkpt><trkpt lat="43.2341732" lon="12.2124571"><ele>502.0</ele><time>2026-03-29T08:37:54.743Z</time></trkpt><trkpt lat="43.2341091" lon="12.2123649"><ele>500.75</ele><time>2026-03-29T08:37:55.742Z</time></trkpt><trkpt lat="43.2340478" lon="12.2122691"><ele>499.5</ele><time>2026-03-29T08:37:56.743Z</time></trkpt><trkpt lat="43.2339401" lon="12.2122638"><ele>498.25</ele><time>2026-03-29T08:37:57.743Z</time></trkpt><trkpt lat="43.2337158" lon="12.2122893"><ele>497.0</ele><time>2026-03-29T08:37:59.743Z</time></trkpt><trkpt lat="43.2336273" lon="12.2124232"><ele>497.0</ele><time>2026-03-29T08:38:00.743Z</time></trkpt><trkpt lat="43.2335249" lon="12.2125159"><ele>497.00000000000006</ele><time>2026-03-29T08:38:01.743Z</time></trkpt><trkpt lat="43.2334241" lon="12.2126032"><ele>497.00000000000006</ele><time>2026-03-29T08:38:02.743Z</time></trkpt><trkpt lat="43.2333428" lon="12.2126349"><ele>497.0</ele><time>2026-03-29T08:38:03.742Z</time></trkpt><trkpt lat="43.2332479" lon="12.2126236"><ele>497.0</ele><time>2026-03-29T08:38:04.743Z</time></trkpt><trkpt lat="43.2331703" lon="12.2126352"><ele>497.0</ele><time>2026-03-29T08:38:05.743Z</time></trkpt><trkpt lat="43.2330805" lon="12.2124455"><ele>497.00000000000006</ele><time>2026-03-29T08:38:07.743Z</time></trkpt><trkpt lat="43.2330063" lon="12.2123588"><ele>497.00000000000006</ele><time>2026-03-29T08:38:08.743Z</time></trkpt><trkpt lat="43.2329232" lon="12.2122805"><ele>497.0</ele><time>2026-03-29T08:38:09.743Z</time></trkpt><trkpt lat="43.2328463" lon="12.2122428"><ele>497.0</ele><time>2026-03-29T08:38:10.743Z</time></trkpt><trkpt lat="43.2327302" lon="12.2122165"><ele>492.40000000000003</ele><time>2026-03-29T08:38:11.743Z</time></trkpt><trkpt lat="43.2326209" lon="12.2122252"><ele>487.80000000000007</ele><time>2026-03-29T08:38:12.743Z</time></trkpt><trkpt lat="43.232524" lon="12.2122576"><ele>483.2</ele><time>2026-03-29T08:38:13.743Z</time></trkpt><trkpt lat="43.2324293" lon="12.2122882"><ele>478.6</ele><time>2026-03-29T08:38:14.742Z</time></trkpt><trkpt lat="43.2323285" lon="12.212292"><ele>474.0</ele><time>2026-03-29T08:38:15.742Z</time></trkpt><trkpt lat="43.2321995" lon="12.2121721"><ele>474.0</ele><time>2026-03-29T08:38:17.743Z</time></trkpt><trkpt lat="43.2321436" lon="12.2120565"><ele>474.0</ele><time>2026-03-29T08:38:18.743Z</time></trkpt><trkpt lat="43.232073" lon="12.2119682"><ele>474.0</ele><time>2026-03-29T08:38:19.743Z</time></trkpt><trkpt lat="43.2319768" lon="12.2118862"><ele>474.0</ele><time>2026-03-29T08:38:20.743Z</time></trkpt><trkpt lat="43.2318602" lon="12.2119554"><ele>474.0</ele><time>2026-03-29T08:38:21.743Z</time></trkpt><trkpt lat="43.2317433" lon="12.2119459"><ele>474.0</ele><time>2026-03-29T08:38:22.743Z</time></trkpt><trkpt lat="43.2316445" lon="12.2120027"><ele>474.0</ele><time>2026-03-29T08:38:23.742Z</time></trkpt><trkpt lat="43.2315309" lon="12.2120903"><ele>474.0</ele><time>2026-03-29T08:38:24.742Z</time></trkpt><trkpt lat="43.2314046" lon="12.2121167"><ele>474.0</ele><time>2026-03-29T08:38:25.743Z</time></trkpt><trkpt lat="43.2312818" lon="12.2121132"><ele>473.0</ele><time>2026-03-29T08:38:26.743Z</time></trkpt><trkpt lat="43.231184" lon="12.2120944"><ele>472.0</ele><time>2026-03-29T08:38:27.743Z</time></trkpt><trkpt lat="43.2310786" lon="12.2120472"><ele>471.0</ele><time>2026-03-29T08:38:28.743Z</time></trkpt><trkpt lat="43.2309617" lon="12.2119112"><ele>470.0</ele><time>2026-03-29T08:38:29.743Z</time></trkpt><trkpt lat="43.2308684" lon="12.2117802"><ele>470.0</ele><time>2026-03-29T08:38:30.743Z</time></trkpt><trkpt lat="43.2307806" lon="12.2116507"><ele>470.0</ele><time>2026-03-29T08:38:31.743Z</time></trkpt><trkpt lat="43.2307058" lon="12.2115358"><ele>470.0</ele><time>2026-03-29T08:38:32.743Z</time></trkpt><trkpt lat="43.2306421" lon="12.2114184"><ele>470.0</ele><time>2026-03-29T08:38:33.743Z</time></trkpt><trkpt lat="43.230586" lon="12.2112609"><ele>467.25</ele><time>2026-03-29T08:38:34.743Z</time></trkpt><trkpt lat="43.2306261" lon="12.2111313"><ele>464.5</ele><time>2026-03-29T08:38:35.743Z</time></trkpt><trkpt lat="43.2306393" lon="12.2109921"><ele>461.75</ele><time>2026-03-29T08:38:36.743Z</time></trkpt><trkpt lat="43.2306848" lon="12.2108345"><ele>459.0</ele><time>2026-03-29T08:38:37.742Z</time></trkpt><trkpt lat="43.2307299" lon="12.2106658"><ele>457.25</ele><time>2026-03-29T08:38:38.743Z</time></trkpt><trkpt lat="43.230781" lon="12.2104986"><ele>455.5</ele><time>2026-03-29T08:38:39.743Z</time></trkpt><trkpt lat="43.2308301" lon="12.2103193"><ele>453.75</ele><time>2026-03-29T08:38:40.743Z</time></trkpt><trkpt lat="43.2308784" lon="12.2101385"><ele>452.0</ele><time>2026-03-29T08:38:41.743Z</time></trkpt><trkpt lat="43.2309201" lon="12.2099554"><ele>452.0</ele><time>2026-03-29T08:38:42.743Z</time></trkpt><trkpt lat="43.2309624" lon="12.2097662"><ele>452.0</ele><time>2026-03-29T08:38:43.743Z</time></trkpt><trkpt lat="43.2310076" lon="12.2095853"><ele>452.0</ele><time>2026-03-29T08:38:44.743Z</time></trkpt><trkpt lat="43.2310553" lon="12.2094202"><ele>452.0</ele><time>2026-03-29T08:38:45.743Z</time></trkpt><trkpt lat="43.2310988" lon="12.2092568"><ele>452.0</ele><time>2026-03-29T08:38:46.743Z</time></trkpt><trkpt lat="43.2311465" lon="12.2090721"><ele>452.0</ele><time>2026-03-29T08:38:47.742Z</time></trkpt><trkpt lat="43.2312149" lon="12.208689"><ele>452.0</ele><time>2026-03-29T08:38:49.743Z</time></trkpt><trkpt lat="43.2312411" lon="12.2085002"><ele>450.75</ele><time>2026-03-29T08:38:50.743Z</time></trkpt><trkpt lat="43.2312609" lon="12.2083263"><ele>449.5</ele><time>2026-03-29T08:38:51.743Z</time></trkpt><trkpt lat="43.2312845" lon="12.2081507"><ele>448.25</ele><time>2026-03-29T08:38:52.743Z</time></trkpt><trkpt lat="43.2313029" lon="12.2079889"><ele>447.0</ele><time>2026-03-29T08:38:53.743Z</time></trkpt><trkpt lat="43.2313118" lon="12.2078119"><ele>447.0</ele><time>2026-03-29T08:38:54.743Z</time></trkpt><trkpt lat="43.2313221" lon="12.2076414"><ele>447.0</ele><time>2026-03-29T08:38:55.743Z</time></trkpt><trkpt lat="43.2313276" lon="12.2074808"><ele>447.0</ele><time>2026-03-29T08:38:56.743Z</time></trkpt><trkpt lat="43.2313441" lon="12.2073232"><ele>447.0</ele><time>2026-03-29T08:38:57.743Z</time></trkpt><trkpt lat="43.2313616" lon="12.2070571"><ele>448.1666666666667</ele><time>2026-03-29T08:38:59.743Z</time></trkpt><trkpt lat="43.2313338" lon="12.2069669"><ele>449.33333333333337</ele><time>2026-03-29T08:39:00.743Z</time></trkpt><trkpt lat="43.2312469" lon="12.2068674"><ele>450.5</ele><time>2026-03-29T08:39:02.743Z</time></trkpt><trkpt lat="43.2311819" lon="12.2068859"><ele>451.6666666666667</ele><time>2026-03-29T08:39:03.743Z</time></trkpt><trkpt lat="43.2311087" lon="12.2068967"><ele>452.83333333333337</ele><time>2026-03-29T08:39:04.743Z</time></trkpt><trkpt lat="43.2310076" lon="12.2069817"><ele>454.0</ele><time>2026-03-29T08:39:06.743Z</time></trkpt><trkpt lat="43.2309508" lon="12.2070501"><ele>454.0</ele><time>2026-03-29T08:39:07.743Z</time></trkpt><trkpt lat="43.2308826" lon="12.2070936"><ele>454.0</ele><time>2026-03-29T08:39:08.743Z</time></trkpt><trkpt lat="43.230821" lon="12.2071466"><ele>454.0</ele><time>2026-03-29T08:39:09.743Z</time></trkpt><trkpt lat="43.2307379" lon="12.2072048"><ele>454.0</ele><time>2026-03-29T08:39:10.743Z</time></trkpt><trkpt lat="43.2306339" lon="12.2073024"><ele>454.0</ele><time>2026-03-29T08:39:11.743Z</time></trkpt><trkpt lat="43.2304974" lon="12.2073767"><ele>452.83333333333337</ele><time>2026-03-29T08:39:13.743Z</time></trkpt><trkpt lat="43.230428" lon="12.2074577"><ele>451.6666666666667</ele><time>2026-03-29T08:39:14.743Z</time></trkpt><trkpt lat="43.230331" lon="12.2074966"><ele>450.5</ele><time>2026-03-29T08:39:15.742Z</time></trkpt><trkpt lat="43.2302633" lon="12.2075386"><ele>449.33333333333337</ele><time>2026-03-29T08:39:16.743Z</time></trkpt><trkpt lat="43.2301964" lon="12.207548"><ele>448.1666666666667</ele><time>2026-03-29T08:39:17.743Z</time></trkpt><trkpt lat="43.2301252" lon="12.2076091"><ele>447.0</ele><time>2026-03-29T08:39:18.742Z</time></trkpt><trkpt lat="43.2300528" lon="12.2076259"><ele>447.0</ele><time>2026-03-29T08:39:19.743Z</time></trkpt><trkpt lat="43.2299898" lon="12.2076562"><ele>447.00000000000006</ele><time>2026-03-29T08:39:20.743Z</time></trkpt><trkpt lat="43.2299154" lon="12.2076716"><ele>447.00000000000006</ele><time>2026-03-29T08:39:22.743Z</time></trkpt><trkpt lat="43.2298052" lon="12.2077244"><ele>447.0</ele><time>2026-03-29T08:39:24.743Z</time></trkpt><trkpt lat="43.229692" lon="12.20778"><ele>447.0</ele><time>2026-03-29T08:39:25.743Z</time></trkpt><trkpt lat="43.2295835" lon="12.2077936"><ele>446.5</ele><time>2026-03-29T08:39:26.743Z</time></trkpt><trkpt lat="43.2294881" lon="12.2078161"><ele>446.0</ele><time>2026-03-29T08:39:27.743Z</time></trkpt><trkpt lat="43.2293854" lon="12.2078769"><ele>445.5</ele><time>2026-03-29T08:39:28.742Z</time></trkpt><trkpt lat="43.2292505" lon="12.2078491"><ele>445.0</ele><time>2026-03-29T08:39:30.743Z</time></trkpt><trkpt lat="43.2291071" lon="12.2077951"><ele>445.0</ele><time>2026-03-29T08:39:32.742Z</time></trkpt><trkpt lat="43.2290117" lon="12.2077985"><ele>445.0</ele><time>2026-03-29T08:39:33.743Z</time></trkpt><trkpt lat="43.228917" lon="12.2077958"><ele>445.0</ele><time>2026-03-29T08:39:34.743Z</time></trkpt><trkpt lat="43.2288206" lon="12.2078301"><ele>445.0</ele><time>2026-03-29T08:39:36.742Z</time></trkpt><trkpt lat="43.228745" lon="12.2078884"><ele>445.0</ele><time>2026-03-29T08:39:37.743Z</time></trkpt><trkpt lat="43.2286431" lon="12.2079287"><ele>444.2</ele><time>2026-03-29T08:39:38.743Z</time></trkpt><trkpt lat="43.2285564" lon="12.2079582"><ele>443.4</ele><time>2026-03-29T08:39:39.743Z</time></trkpt><trkpt lat="43.2284862" lon="12.2079867"><ele>442.6</ele><time>2026-03-29T08:39:40.743Z</time></trkpt><trkpt lat="43.2284836" lon="12.2080826"><ele>441.8</ele><time>2026-03-29T08:39:52.743Z</time></trkpt><trkpt lat="43.2285552" lon="12.2081285"><ele>441.0</ele><time>2026-03-29T08:39:55.743Z</time></trkpt><trkpt lat="43.2286838" lon="12.2082063"><ele>436.20000000000005</ele><time>2026-03-29T08:39:57.743Z</time></trkpt><trkpt lat="43.2287507" lon="12.2082775"><ele>431.40000000000003</ele><time>2026-03-29T08:39:58.743Z</time></trkpt><trkpt lat="43.2287827" lon="12.2084131"><ele>426.6</ele><time>2026-03-29T08:39:59.743Z</time></trkpt><trkpt lat="43.2287552" lon="12.2084999"><ele>421.8</ele><time>2026-03-29T08:40:00.743Z</time></trkpt><trkpt lat="43.2286874" lon="12.2086364"><ele>417.0</ele><time>2026-03-29T08:40:02.743Z</time></trkpt><trkpt lat="43.2286237" lon="12.2086841"><ele>417.0</ele><time>2026-03-29T08:40:03.743Z</time></trkpt><trkpt lat="43.2285362" lon="12.2087317"><ele>417.0</ele><time>2026-03-29T08:40:05.743Z</time></trkpt><trkpt lat="43.2284648" lon="12.2087513"><ele>417.0</ele><time>2026-03-29T08:40:06.743Z</time></trkpt><trkpt lat="43.2283678" lon="12.2087315"><ele>417.0</ele><time>2026-03-29T08:40:07.742Z</time></trkpt><trkpt lat="43.228281" lon="12.2087002"><ele>417.0</ele><time>2026-03-29T08:40:08.743Z</time></trkpt><trkpt lat="43.2281781" lon="12.2086828"><ele>417.0</ele><time>2026-03-29T08:40:09.743Z</time></trkpt><trkpt lat="43.2280981" lon="12.2086878"><ele>417.0</ele><time>2026-03-29T08:40:10.742Z</time></trkpt><trkpt lat="43.2281823" lon="12.208795"><ele>417.0</ele><time>2026-03-29T08:40:11.742Z</time></trkpt><trkpt lat="43.2281228" lon="12.208836"><ele>417.0</ele><time>2026-03-29T08:40:12.743Z</time></trkpt><trkpt lat="43.2279707" lon="12.2090006"><ele>412.1666666666667</ele><time>2026-03-29T08:40:15.743Z</time></trkpt><trkpt lat="43.227918" lon="12.2090679"><ele>407.33333333333337</ele><time>2026-03-29T08:40:16.743Z</time></trkpt><trkpt lat="43.2278955" lon="12.2091686"><ele>402.5</ele><time>2026-03-29T08:40:18.743Z</time></trkpt><trkpt lat="43.2277736" lon="12.2091044"><ele>397.6666666666667</ele><time>2026-03-29T08:40:21.743Z</time></trkpt><trkpt lat="43.2277084" lon="12.209162"><ele>392.83333333333337</ele><time>2026-03-29T08:40:22.743Z</time></trkpt><trkpt lat="43.2276327" lon="12.2092047"><ele>388.0</ele><time>2026-03-29T08:40:23.743Z</time></trkpt><trkpt lat="43.2275262" lon="12.2092359"><ele>388.0</ele><time>2026-03-29T08:40:24.743Z</time></trkpt><trkpt lat="43.2273535" lon="12.2092583"><ele>388.0</ele><time>2026-03-29T08:40:25.743Z</time></trkpt><trkpt lat="43.2272595" lon="12.2092153"><ele>388.0</ele><time>2026-03-29T08:40:26.742Z</time></trkpt><trkpt lat="43.2271292" lon="12.2092604"><ele>388.0</ele><time>2026-03-29T08:40:27.743Z</time></trkpt><trkpt lat="43.227005" lon="12.2092469"><ele>388.59999999999997</ele><time>2026-03-29T08:40:28.743Z</time></trkpt><trkpt lat="43.2268924" lon="12.2092218"><ele>389.2</ele><time>2026-03-29T08:40:29.743Z</time></trkpt><trkpt lat="43.2267991" lon="12.2091809"><ele>389.8</ele><time>2026-03-29T08:40:30.743Z</time></trkpt><trkpt lat="43.2266824" lon="12.2091814"><ele>390.4</ele><time>2026-03-29T08:40:31.742Z</time></trkpt><trkpt lat="43.2265941" lon="12.2091607"><ele>391.0</ele><time>2026-03-29T08:40:32.743Z</time></trkpt><trkpt lat="43.2265077" lon="12.2091341"><ele>393.8</ele><time>2026-03-29T08:40:33.743Z</time></trkpt><trkpt lat="43.22644" lon="12.2091122"><ele>396.6</ele><time>2026-03-29T08:40:34.743Z</time></trkpt><trkpt lat="43.2263137" lon="12.2090897"><ele>399.4</ele><time>2026-03-29T08:40:36.743Z</time></trkpt><trkpt lat="43.2262826" lon="12.2091967"><ele>402.2</ele><time>2026-03-29T08:40:37.743Z</time></trkpt><trkpt lat="43.2261918" lon="12.2093686"><ele>405.0</ele><time>2026-03-29T08:40:38.743Z</time></trkpt><trkpt lat="43.2261413" lon="12.2095017"><ele>405.0</ele><time>2026-03-29T08:40:39.743Z</time></trkpt><trkpt lat="43.2261102" lon="12.2096574"><ele>405.0</ele><time>2026-03-29T08:40:40.743Z</time></trkpt><trkpt lat="43.2260669" lon="12.2097587"><ele>405.0</ele><time>2026-03-29T08:40:41.743Z</time></trkpt><trkpt lat="43.225994" lon="12.2098495"><ele>405.0</ele><time>2026-03-29T08:40:42.743Z</time></trkpt><trkpt lat="43.2259471" lon="12.2099105"><ele>405.0</ele><time>2026-03-29T08:40:43.743Z</time></trkpt><trkpt lat="43.2258736" lon="12.210019"><ele>400.4285714285714</ele><time>2026-03-29T08:40:45.743Z</time></trkpt><trkpt lat="43.2258358" lon="12.2100973"><ele>395.85714285714283</ele><time>2026-03-29T08:40:46.743Z</time></trkpt><trkpt lat="43.225773" lon="12.2101205"><ele>391.2857142857143</ele><time>2026-03-29T08:40:47.743Z</time></trkpt><trkpt lat="43.2257167" lon="12.2101619"><ele>386.71428571428567</ele><time>2026-03-29T08:40:48.743Z</time></trkpt><trkpt lat="43.225626" lon="12.2101986"><ele>382.14285714285717</ele><time>2026-03-29T08:40:50.743Z</time></trkpt><trkpt lat="43.2255593" lon="12.2102643"><ele>377.57142857142856</ele><time>2026-03-29T08:40:51.743Z</time></trkpt><trkpt lat="43.2254999" lon="12.2103198"><ele>373.0</ele><time>2026-03-29T08:40:52.742Z</time></trkpt><trkpt lat="43.2254359" lon="12.2103901"><ele>372.8333333333333</ele><time>2026-03-29T08:40:53.743Z</time></trkpt><trkpt lat="43.2253381" lon="12.2104971"><ele>372.66666666666663</ele><time>2026-03-29T08:40:55.743Z</time></trkpt><trkpt lat="43.2252709" lon="12.2105345"><ele>372.5</ele><time>2026-03-29T08:40:56.743Z</time></trkpt><trkpt lat="43.2251995" lon="12.2105693"><ele>372.3333333333333</ele><time>2026-03-29T08:40:57.743Z</time></trkpt><trkpt lat="43.225136" lon="12.2106038"><ele>372.1666666666667</ele><time>2026-03-29T08:40:58.743Z</time></trkpt><trkpt lat="43.2250444" lon="12.2106497"><ele>372.0</ele><time>2026-03-29T08:41:00.743Z</time></trkpt><trkpt lat="43.2249188" lon="12.2106365"><ele>372.0</ele><time>2026-03-29T08:41:02.743Z</time></trkpt><trkpt lat="43.2248504" lon="12.210657"><ele>372.0</ele><time>2026-03-29T08:41:03.743Z</time></trkpt><trkpt lat="43.2247207" lon="12.210692"><ele>372.0</ele><time>2026-03-29T08:41:05.743Z</time></trkpt><trkpt lat="43.2246457" lon="12.210697"><ele>372.0</ele><time>2026-03-29T08:41:06.743Z</time></trkpt><trkpt lat="43.2245523" lon="12.2107162"><ele>372.0</ele><time>2026-03-29T08:41:07.743Z</time></trkpt><trkpt lat="43.2244588" lon="12.2107455"><ele>370.3333333333333</ele><time>2026-03-29T08:41:08.743Z</time></trkpt><trkpt lat="43.2243893" lon="12.2107434"><ele>368.6666666666667</ele><time>2026-03-29T08:41:09.743Z</time></trkpt><trkpt lat="43.2243175" lon="12.210722"><ele>367.0</ele><time>2026-03-29T08:41:10.743Z</time></trkpt><trkpt lat="43.2242465" lon="12.2107206"><ele>365.33333333333337</ele><time>2026-03-29T08:41:11.743Z</time></trkpt><trkpt lat="43.2241857" lon="12.2106269"><ele>363.6666666666667</ele><time>2026-03-29T08:41:13.743Z</time></trkpt><trkpt lat="43.2241114" lon="12.2105542"><ele>362.0</ele><time>2026-03-29T08:41:14.743Z</time></trkpt><trkpt lat="43.2240326" lon="12.2105587"><ele>357.8</ele><time>2026-03-29T08:41:15.743Z</time></trkpt><trkpt lat="43.2239623" lon="12.2105739"><ele>353.6</ele><time>2026-03-29T08:41:16.743Z</time></trkpt><trkpt lat="43.2238777" lon="12.2105472"><ele>349.40000000000003</ele><time>2026-03-29T08:41:17.743Z</time></trkpt><trkpt lat="43.223797" lon="12.2105458"><ele>345.20000000000005</ele><time>2026-03-29T08:41:18.743Z</time></trkpt><trkpt lat="43.2237075" lon="12.2104642"><ele>341.0</ele><time>2026-03-29T08:41:19.743Z</time></trkpt><trkpt lat="43.2236302" lon="12.2103213"><ele>341.0</ele><time>2026-03-29T08:41:20.743Z</time></trkpt><trkpt lat="43.2235617" lon="12.210237"><ele>341.0</ele><time>2026-03-29T08:41:21.742Z</time></trkpt><trkpt lat="43.2234911" lon="12.2101348"><ele>341.0</ele><time>2026-03-29T08:41:22.743Z</time></trkpt><trkpt lat="43.2234368" lon="12.2100436"><ele>341.0</ele><time>2026-03-29T08:41:23.743Z</time></trkpt><trkpt lat="43.2233719" lon="12.2099511"><ele>341.0</ele><time>2026-03-29T08:41:24.742Z</time></trkpt><trkpt lat="43.2232172" lon="12.209748"><ele>340.25</ele><time>2026-03-29T08:41:26.743Z</time></trkpt><trkpt lat="43.2231471" lon="12.2096582"><ele>339.5</ele><time>2026-03-29T08:41:27.743Z</time></trkpt><trkpt lat="43.2230226" lon="12.2095884"><ele>338.75</ele><time>2026-03-29T08:41:28.743Z</time></trkpt><trkpt lat="43.222903" lon="12.2095165"><ele>338.0</ele><time>2026-03-29T08:41:29.743Z</time></trkpt><trkpt lat="43.2228035" lon="12.2094514"><ele>338.0</ele><time>2026-03-29T08:41:30.743Z</time></trkpt><trkpt lat="43.2227041" lon="12.2093952"><ele>338.0</ele><time>2026-03-29T08:41:31.743Z</time></trkpt><trkpt lat="43.2226149" lon="12.2093418"><ele>338.0</ele><time>2026-03-29T08:41:32.743Z</time></trkpt><trkpt lat="43.22254" lon="12.209262"><ele>338.0</ele><time>2026-03-29T08:41:33.743Z</time></trkpt><trkpt lat="43.2224633" lon="12.2091922"><ele>338.0</ele><time>2026-03-29T08:41:34.743Z</time></trkpt><trkpt lat="43.2224087" lon="12.2091181"><ele>338.0</ele><time>2026-03-29T08:41:35.743Z</time></trkpt><trkpt lat="43.2223398" lon="12.209053"><ele>338.0</ele><time>2026-03-29T08:41:36.743Z</time></trkpt><trkpt lat="43.2222699" lon="12.2089279"><ele>338.0</ele><time>2026-03-29T08:41:37.743Z</time></trkpt><trkpt lat="43.2222073" lon="12.2088191"><ele>338.0</ele><time>2026-03-29T08:41:38.743Z</time></trkpt><trkpt lat="43.2221402" lon="12.2087326"><ele>338.0</ele><time>2026-03-29T08:41:39.743Z</time></trkpt><trkpt lat="43.2220552" lon="12.2086662"><ele>336.79999999999995</ele><time>2026-03-29T08:41:40.743Z</time></trkpt><trkpt lat="43.2219703" lon="12.2085804"><ele>335.6</ele><time>2026-03-29T08:41:41.743Z</time></trkpt><trkpt lat="43.2219086" lon="12.2085096"><ele>334.4</ele><time>2026-03-29T08:41:42.743Z</time></trkpt><trkpt lat="43.2217894" lon="12.2084127"><ele>333.20000000000005</ele><time>2026-03-29T08:41:43.743Z</time></trkpt><trkpt lat="43.2216986" lon="12.208304"><ele>332.0</ele><time>2026-03-29T08:41:44.743Z</time></trkpt><trkpt lat="43.2215953" lon="12.2081994"><ele>333.0</ele><time>2026-03-29T08:41:45.743Z</time></trkpt><trkpt lat="43.2214695" lon="12.2080983"><ele>334.0</ele><time>2026-03-29T08:41:46.743Z</time></trkpt><trkpt lat="43.2213631" lon="12.2080052"><ele>335.0</ele><time>2026-03-29T08:41:47.743Z</time></trkpt><trkpt lat="43.2212636" lon="12.2079649"><ele>336.0</ele><time>2026-03-29T08:41:48.742Z</time></trkpt><trkpt lat="43.2211635" lon="12.2079322"><ele>336.0</ele><time>2026-03-29T08:41:49.743Z</time></trkpt><trkpt lat="43.2210701" lon="12.2079004"><ele>336.0</ele><time>2026-03-29T08:41:50.743Z</time></trkpt><trkpt lat="43.2209819" lon="12.2079014"><ele>336.0</ele><time>2026-03-29T08:41:51.743Z</time></trkpt><trkpt lat="43.2209078" lon="12.2079306"><ele>336.0</ele><time>2026-03-29T08:41:52.743Z</time></trkpt><trkpt lat="43.2208311" lon="12.207945"><ele>336.0</ele><time>2026-03-29T08:41:53.743Z</time></trkpt><trkpt lat="43.2207382" lon="12.2079284"><ele>336.0</ele><time>2026-03-29T08:41:54.743Z</time></trkpt><trkpt lat="43.2206301" lon="12.2079062"><ele>334.0</ele><time>2026-03-29T08:41:55.743Z</time></trkpt><trkpt lat="43.220529" lon="12.2078933"><ele>332.0</ele><time>2026-03-29T08:41:56.743Z</time></trkpt><trkpt lat="43.2204527" lon="12.2079278"><ele>330.0</ele><time>2026-03-29T08:41:57.743Z</time></trkpt><trkpt lat="43.2203903" lon="12.2079437"><ele>328.0</ele><time>2026-03-29T08:41:58.743Z</time></trkpt><trkpt lat="43.2203136" lon="12.2079594"><ele>326.0</ele><time>2026-03-29T08:41:59.743Z</time></trkpt><trkpt lat="43.2202515" lon="12.2079774"><ele>324.0</ele><time>2026-03-29T08:42:00.743Z</time></trkpt><trkpt lat="43.2201435" lon="12.2079498"><ele>324.0</ele><time>2026-03-29T08:42:02.743Z</time></trkpt><trkpt lat="43.2200477" lon="12.2078765"><ele>324.0</ele><time>2026-03-29T08:42:04.743Z</time></trkpt><trkpt lat="43.2199882" lon="12.2077497"><ele>324.0</ele><time>2026-03-29T08:42:06.743Z</time></trkpt><trkpt lat="43.2199511" lon="12.2076203"><ele>324.0</ele><time>2026-03-29T08:42:08.742Z</time></trkpt><trkpt lat="43.2198967" lon="12.2074984"><ele>324.0</ele><time>2026-03-29T08:42:10.742Z</time></trkpt><trkpt lat="43.2198552" lon="12.2073711"><ele>323.5</ele><time>2026-03-29T08:42:12.743Z</time></trkpt><trkpt lat="43.2198168" lon="12.2072494"><ele>323.0</ele><time>2026-03-29T08:42:14.743Z</time></trkpt><trkpt lat="43.2198017" lon="12.2071336"><ele>322.5</ele><time>2026-03-29T08:42:16.743Z</time></trkpt><trkpt lat="43.2198077" lon="12.2070277"><ele>322.0</ele><time>2026-03-29T08:42:18.743Z</time></trkpt><trkpt lat="43.2198687" lon="12.2069977"><ele>321.5</ele><time>2026-03-29T08:42:21.743Z</time></trkpt><trkpt lat="43.2198695" lon="12.207107"><ele>321.0</ele><time>2026-03-29T08:42:24.743Z</time></trkpt><trkpt lat="43.2198088" lon="12.2071449"><ele>321.0</ele><time>2026-03-29T08:42:27.743Z</time></trkpt><trkpt lat="43.2197642" lon="12.2070714"><ele>321.0</ele><time>2026-03-29T08:42:29.743Z</time></trkpt><trkpt lat="43.2197363" lon="12.2069654"><ele>321.0</ele><time>2026-03-29T08:42:31.743Z</time></trkpt><trkpt lat="43.2197073" lon="12.2068829"><ele>321.0</ele><time>2026-03-29T08:42:35.742Z</time></trkpt><trkpt lat="43.2196544" lon="12.2067696"><ele>321.0</ele><time>2026-03-29T08:43:24.743Z</time></trkpt><trkpt lat="43.219627" lon="12.2066781"><ele>321.0</ele><time>2026-03-29T08:43:25.743Z</time></trkpt><trkpt lat="43.219582" lon="12.2065696"><ele>320.6</ele><time>2026-03-29T08:43:26.743Z</time></trkpt><trkpt lat="43.2195336" lon="12.2064499"><ele>320.20000000000005</ele><time>2026-03-29T08:43:27.743Z</time></trkpt><trkpt lat="43.2194812" lon="12.2063149"><ele>319.79999999999995</ele><time>2026-03-29T08:43:28.743Z</time></trkpt><trkpt lat="43.2194428" lon="12.2061693"><ele>319.4</ele><time>2026-03-29T08:43:29.743Z</time></trkpt><trkpt lat="43.2194033" lon="12.2060168"><ele>319.0</ele><time>2026-03-29T08:43:30.742Z</time></trkpt><trkpt lat="43.2193564" lon="12.2058835"><ele>319.0</ele><time>2026-03-29T08:43:31.743Z</time></trkpt><trkpt lat="43.2193189" lon="12.2057245"><ele>319.0</ele><time>2026-03-29T08:43:32.743Z</time></trkpt><trkpt lat="43.2192946" lon="12.2055697"><ele>319.0</ele><time>2026-03-29T08:43:33.742Z</time></trkpt><trkpt lat="43.2192647" lon="12.2054015"><ele>319.0</ele><time>2026-03-29T08:43:34.742Z</time></trkpt><trkpt lat="43.2192403" lon="12.2052324"><ele>319.25</ele><time>2026-03-29T08:43:35.743Z</time></trkpt><trkpt lat="43.2192203" lon="12.2050568"><ele>319.5</ele><time>2026-03-29T08:43:36.743Z</time></trkpt><trkpt lat="43.2191978" lon="12.2048873"><ele>319.75</ele><time>2026-03-29T08:43:37.743Z</time></trkpt><trkpt lat="43.2192205" lon="12.2047135"><ele>320.0</ele><time>2026-03-29T08:43:38.743Z</time></trkpt><trkpt lat="43.2192639" lon="12.2045784"><ele>320.2</ele><time>2026-03-29T08:43:39.743Z</time></trkpt><trkpt lat="43.219302" lon="12.204445"><ele>320.4</ele><time>2026-03-29T08:43:40.743Z</time></trkpt><trkpt lat="43.2193338" lon="12.2043348"><ele>320.6</ele><time>2026-03-29T08:43:41.742Z</time></trkpt><trkpt lat="43.2193702" lon="12.204225"><ele>320.8</ele><time>2026-03-29T08:43:42.743Z</time></trkpt><trkpt lat="43.2194059" lon="12.2041106"><ele>321.0</ele><time>2026-03-29T08:43:43.743Z</time></trkpt><trkpt lat="43.2194521" lon="12.2038253"><ele>320.25</ele><time>2026-03-29T08:43:45.743Z</time></trkpt><trkpt lat="43.2194729" lon="12.2036591"><ele>319.5</ele><time>2026-03-29T08:43:46.742Z</time></trkpt><trkpt lat="43.2195116" lon="12.2035128"><ele>318.75</ele><time>2026-03-29T08:43:47.743Z</time></trkpt><trkpt lat="43.2195514" lon="12.2033664"><ele>318.0</ele><time>2026-03-29T08:43:48.743Z</time></trkpt><trkpt lat="43.2195899" lon="12.2032071"><ele>318.0</ele><time>2026-03-29T08:43:49.743Z</time></trkpt><trkpt lat="43.2196493" lon="12.2030691"><ele>318.0</ele><time>2026-03-29T08:43:50.742Z</time></trkpt><trkpt lat="43.2197113" lon="12.2029128"><ele>318.0</ele><time>2026-03-29T08:43:51.743Z</time></trkpt><trkpt lat="43.2197843" lon="12.2027618"><ele>318.0</ele><time>2026-03-29T08:43:52.743Z</time></trkpt><trkpt lat="43.2198566" lon="12.2026071"><ele>318.0</ele><time>2026-03-29T08:43:53.743Z</time></trkpt><trkpt lat="43.2199147" lon="12.202464"><ele>318.0</ele><time>2026-03-29T08:43:54.743Z</time></trkpt><trkpt lat="43.219952" lon="12.2023161"><ele>318.0</ele><time>2026-03-29T08:43:55.743Z</time></trkpt><trkpt lat="43.2199681" lon="12.2021565"><ele>318.0</ele><time>2026-03-29T08:43:56.742Z</time></trkpt><trkpt lat="43.2199771" lon="12.2020467"><ele>318.0</ele><time>2026-03-29T08:43:57.743Z</time></trkpt><trkpt lat="43.2199552" lon="12.2019497"><ele>318.0</ele><time>2026-03-29T08:43:58.743Z</time></trkpt><trkpt lat="43.2198447" lon="12.2017933"><ele>318.0</ele><time>2026-03-29T08:44:00.743Z</time></trkpt><trkpt lat="43.219783" lon="12.2017309"><ele>318.0</ele><time>2026-03-29T08:44:01.743Z</time></trkpt><trkpt lat="43.2196627" lon="12.2015961"><ele>318.0</ele><time>2026-03-29T08:44:03.743Z</time></trkpt><trkpt lat="43.219592" lon="12.201562"><ele>317.0</ele><time>2026-03-29T08:44:04.743Z</time></trkpt><trkpt lat="43.2194989" lon="12.2015672"><ele>316.0</ele><time>2026-03-29T08:44:05.743Z</time></trkpt><trkpt lat="43.2193973" lon="12.2016015"><ele>315.0</ele><time>2026-03-29T08:44:06.742Z</time></trkpt><trkpt lat="43.2191595" lon="12.2017636"><ele>315.0</ele><time>2026-03-29T08:44:08.743Z</time></trkpt><trkpt lat="43.2190463" lon="12.2018543"><ele>315.0</ele><time>2026-03-29T08:44:09.743Z</time></trkpt><trkpt lat="43.2189504" lon="12.2019187"><ele>315.0</ele><time>2026-03-29T08:44:10.743Z</time></trkpt><trkpt lat="43.2188686" lon="12.2019688"><ele>315.0</ele><time>2026-03-29T08:44:11.743Z</time></trkpt><trkpt lat="43.2188019" lon="12.2019975"><ele>315.0</ele><time>2026-03-29T08:44:12.743Z</time></trkpt><trkpt lat="43.2187274" lon="12.2020095"><ele>314.8</ele><time>2026-03-29T08:44:14.743Z</time></trkpt><trkpt lat="43.21874" lon="12.2019131"><ele>314.6</ele><time>2026-03-29T08:44:20.743Z</time></trkpt><trkpt lat="43.2187125" lon="12.2017905"><ele>314.4</ele><time>2026-03-29T08:44:22.743Z</time></trkpt><trkpt lat="43.2186768" lon="12.2016724"><ele>314.2</ele><time>2026-03-29T08:44:23.743Z</time></trkpt><trkpt lat="43.2186329" lon="12.2015409"><ele>314.0</ele><time>2026-03-29T08:44:24.743Z</time></trkpt><trkpt lat="43.2185782" lon="12.2014004"><ele>313.33333333333337</ele><time>2026-03-29T08:44:25.743Z</time></trkpt><trkpt lat="43.2185095" lon="12.2012187"><ele>312.6666666666667</ele><time>2026-03-29T08:44:26.743Z</time></trkpt><trkpt lat="43.2184252" lon="12.2010278"><ele>312.0</ele><time>2026-03-29T08:44:27.743Z</time></trkpt><trkpt lat="43.2183471" lon="12.2008239"><ele>311.6666666666667</ele><time>2026-03-29T08:44:28.743Z</time></trkpt><trkpt lat="43.2182674" lon="12.2006197"><ele>311.33333333333337</ele><time>2026-03-29T08:44:29.743Z</time></trkpt><trkpt lat="43.2181823" lon="12.2004307"><ele>311.0</ele><time>2026-03-29T08:44:30.743Z</time></trkpt><trkpt lat="43.2181014" lon="12.200259"><ele>311.0</ele><time>2026-03-29T08:44:31.743Z</time></trkpt><trkpt lat="43.2180311" lon="12.2000935"><ele>311.0</ele><time>2026-03-29T08:44:32.743Z</time></trkpt><trkpt lat="43.2179653" lon="12.199935"><ele>311.0</ele><time>2026-03-29T08:44:33.743Z</time></trkpt><trkpt lat="43.2179091" lon="12.1997852"><ele>311.0</ele><time>2026-03-29T08:44:34.743Z</time></trkpt><trkpt lat="43.2178495" lon="12.1996391"><ele>310.75</ele><time>2026-03-29T08:44:35.743Z</time></trkpt><trkpt lat="43.2177848" lon="12.199487"><ele>310.5</ele><time>2026-03-29T08:44:36.743Z</time></trkpt><trkpt lat="43.2177223" lon="12.1993258"><ele>310.25</ele><time>2026-03-29T08:44:37.743Z</time></trkpt><trkpt lat="43.2176604" lon="12.1991606"><ele>310.0</ele><time>2026-03-29T08:44:38.743Z</time></trkpt><trkpt lat="43.2176029" lon="12.1990083"><ele>310.0</ele><time>2026-03-29T08:44:39.743Z</time></trkpt><trkpt lat="43.2175518" lon="12.198878"><ele>310.0</ele><time>2026-03-29T08:44:40.743Z</time></trkpt><trkpt lat="43.2174969" lon="12.1987176"><ele>310.0</ele><time>2026-03-29T08:44:41.743Z</time></trkpt><trkpt lat="43.2174384" lon="12.1985568"><ele>310.0</ele><time>2026-03-29T08:44:42.743Z</time></trkpt><trkpt lat="43.2174025" lon="12.1983745"><ele>310.0</ele><time>2026-03-29T08:44:43.743Z</time></trkpt><trkpt lat="43.2173784" lon="12.1982042"><ele>310.0</ele><time>2026-03-29T08:44:44.743Z</time></trkpt><trkpt lat="43.2173622" lon="12.1980175"><ele>310.0</ele><time>2026-03-29T08:44:45.743Z</time></trkpt><trkpt lat="43.2173471" lon="12.1978261"><ele>310.0</ele><time>2026-03-29T08:44:46.743Z</time></trkpt><trkpt lat="43.2173273" lon="12.1976512"><ele>310.25</ele><time>2026-03-29T08:44:47.743Z</time></trkpt><trkpt lat="43.2173043" lon="12.1974657"><ele>310.5</ele><time>2026-03-29T08:44:48.742Z</time></trkpt><trkpt lat="43.2172828" lon="12.197284"><ele>310.75</ele><time>2026-03-29T08:44:49.743Z</time></trkpt><trkpt lat="43.2172577" lon="12.1971088"><ele>311.0</ele><time>2026-03-29T08:44:50.743Z</time></trkpt><trkpt lat="43.2172203" lon="12.1969233"><ele>311.0</ele><time>2026-03-29T08:44:51.743Z</time></trkpt><trkpt lat="43.217202" lon="12.1967424"><ele>311.0</ele><time>2026-03-29T08:44:52.743Z</time></trkpt><trkpt lat="43.2171911" lon="12.1965764"><ele>311.0</ele><time>2026-03-29T08:44:53.743Z</time></trkpt><trkpt lat="43.2171922" lon="12.1964015"><ele>311.0</ele><time>2026-03-29T08:44:54.743Z</time></trkpt><trkpt lat="43.2171971" lon="12.1962136"><ele>311.25</ele><time>2026-03-29T08:44:55.743Z</time></trkpt><trkpt lat="43.2172086" lon="12.1960618"><ele>311.5</ele><time>2026-03-29T08:44:56.743Z</time></trkpt><trkpt lat="43.2172463" lon="12.1959069"><ele>311.75</ele><time>2026-03-29T08:44:57.743Z</time></trkpt><trkpt lat="43.2172881" lon="12.195753"><ele>312.0</ele><time>2026-03-29T08:44:58.743Z</time></trkpt><trkpt lat="43.2173168" lon="12.1956127"><ele>312.0</ele><time>2026-03-29T08:44:59.743Z</time></trkpt><trkpt lat="43.217361" lon="12.195465"><ele>312.0</ele><time>2026-03-29T08:45:00.742Z</time></trkpt><trkpt lat="43.2173977" lon="12.1953255"><ele>312.0</ele><time>2026-03-29T08:45:01.743Z</time></trkpt><trkpt lat="43.2174291" lon="12.1951899"><ele>312.0</ele><time>2026-03-29T08:45:02.743Z</time></trkpt><trkpt lat="43.217461" lon="12.1950768"><ele>312.0</ele><time>2026-03-29T08:45:03.743Z</time></trkpt><trkpt lat="43.2174847" lon="12.1949432"><ele>312.0</ele><time>2026-03-29T08:45:04.743Z</time></trkpt><trkpt lat="43.2174913" lon="12.1948236"><ele>312.0</ele><time>2026-03-29T08:45:05.743Z</time></trkpt><trkpt lat="43.2174732" lon="12.1946959"><ele>312.0</ele><time>2026-03-29T08:45:06.742Z</time></trkpt><trkpt lat="43.2174455" lon="12.1945792"><ele>312.0</ele><time>2026-03-29T08:45:07.743Z</time></trkpt><trkpt lat="43.2173641" lon="12.1944441"><ele>312.0</ele><time>2026-03-29T08:45:08.743Z</time></trkpt><trkpt lat="43.2173011" lon="12.1943244"><ele>312.2</ele><time>2026-03-29T08:45:09.741Z</time></trkpt><trkpt lat="43.21724" lon="12.1941945"><ele>312.4</ele><time>2026-03-29T08:45:10.742Z</time></trkpt><trkpt lat="43.2171954" lon="12.1940812"><ele>312.6</ele><time>2026-03-29T08:45:11.742Z</time></trkpt><trkpt lat="43.2171403" lon="12.1939444"><ele>312.8</ele><time>2026-03-29T08:45:12.743Z</time></trkpt><trkpt lat="43.2170934" lon="12.1938182"><ele>313.0</ele><time>2026-03-29T08:45:13.743Z</time></trkpt><trkpt lat="43.2169878" lon="12.1935265"><ele>313.0</ele><time>2026-03-29T08:45:15.743Z</time></trkpt><trkpt lat="43.2169219" lon="12.1933723"><ele>313.0</ele><time>2026-03-29T08:45:16.742Z</time></trkpt><trkpt lat="43.216848" lon="12.1932067"><ele>313.0</ele><time>2026-03-29T08:45:17.743Z</time></trkpt><trkpt lat="43.2167954" lon="12.1930431"><ele>313.0</ele><time>2026-03-29T08:45:18.743Z</time></trkpt><trkpt lat="43.2167193" lon="12.192871"><ele>313.0</ele><time>2026-03-29T08:45:19.743Z</time></trkpt><trkpt lat="43.2166374" lon="12.1926902"><ele>313.0</ele><time>2026-03-29T08:45:20.743Z</time></trkpt><trkpt lat="43.2165557" lon="12.1925145"><ele>313.0</ele><time>2026-03-29T08:45:21.742Z</time></trkpt><trkpt lat="43.2164977" lon="12.1923327"><ele>313.0</ele><time>2026-03-29T08:45:22.742Z</time></trkpt><trkpt lat="43.2164518" lon="12.1921556"><ele>313.0</ele><time>2026-03-29T08:45:23.743Z</time></trkpt><trkpt lat="43.2164556" lon="12.1920278"><ele>313.0</ele><time>2026-03-29T08:45:24.742Z</time></trkpt><trkpt lat="43.2164714" lon="12.1919423"><ele>313.0</ele><time>2026-03-29T08:45:25.743Z</time></trkpt><trkpt lat="43.2165428" lon="12.1918364"><ele>313.0</ele><time>2026-03-29T08:45:27.743Z</time></trkpt><trkpt lat="43.216661" lon="12.1918337"><ele>313.0</ele><time>2026-03-29T08:45:28.743Z</time></trkpt><trkpt lat="43.2167818" lon="12.1918314"><ele>313.0</ele><time>2026-03-29T08:45:29.743Z</time></trkpt><trkpt lat="43.2169075" lon="12.1918164"><ele>313.0</ele><time>2026-03-29T08:45:30.743Z</time></trkpt><trkpt lat="43.2170685" lon="12.1918014"><ele>313.0</ele><time>2026-03-29T08:45:31.743Z</time></trkpt><trkpt lat="43.2172241" lon="12.1917937"><ele>312.66666666666663</ele><time>2026-03-29T08:45:32.743Z</time></trkpt><trkpt lat="43.2173841" lon="12.1917771"><ele>312.3333333333333</ele><time>2026-03-29T08:45:33.743Z</time></trkpt><trkpt lat="43.2175404" lon="12.1917566"><ele>312.0</ele><time>2026-03-29T08:45:34.743Z</time></trkpt><trkpt lat="43.2176974" lon="12.191744"><ele>312.0</ele><time>2026-03-29T08:45:35.743Z</time></trkpt><trkpt lat="43.2180013" lon="12.1917151"><ele>312.0</ele><time>2026-03-29T08:45:37.742Z</time></trkpt><trkpt lat="43.2181492" lon="12.1916949"><ele>312.0</ele><time>2026-03-29T08:45:38.743Z</time></trkpt><trkpt lat="43.2182801" lon="12.1916893"><ele>312.0</ele><time>2026-03-29T08:45:39.743Z</time></trkpt><trkpt lat="43.2184114" lon="12.1916704"><ele>312.0</ele><time>2026-03-29T08:45:40.743Z</time></trkpt><trkpt lat="43.2185643" lon="12.1916525"><ele>312.0</ele><time>2026-03-29T08:45:41.743Z</time></trkpt><trkpt lat="43.2186986" lon="12.1916167"><ele>312.0</ele><time>2026-03-29T08:45:42.743Z</time></trkpt><trkpt lat="43.2188322" lon="12.1915687"><ele>312.0</ele><time>2026-03-29T08:45:43.743Z</time></trkpt><trkpt lat="43.2189596" lon="12.1915145"><ele>312.0</ele><time>2026-03-29T08:45:44.743Z</time></trkpt><trkpt lat="43.2190715" lon="12.1914333"><ele>312.0</ele><time>2026-03-29T08:45:45.743Z</time></trkpt><trkpt lat="43.2191708" lon="12.1913317"><ele>312.75</ele><time>2026-03-29T08:45:46.742Z</time></trkpt><trkpt lat="43.2192437" lon="12.1911852"><ele>313.5</ele><time>2026-03-29T08:45:47.742Z</time></trkpt><trkpt lat="43.219328" lon="12.1910187"><ele>314.25</ele><time>2026-03-29T08:45:48.743Z</time></trkpt><trkpt lat="43.2194315" lon="12.1908329"><ele>315.0</ele><time>2026-03-29T08:45:49.743Z</time></trkpt><trkpt lat="43.2195455" lon="12.1906463"><ele>315.0</ele><time>2026-03-29T08:45:50.743Z</time></trkpt><trkpt lat="43.2196584" lon="12.1904634"><ele>315.0</ele><time>2026-03-29T08:45:51.743Z</time></trkpt><trkpt lat="43.2197548" lon="12.1903154"><ele>315.0</ele><time>2026-03-29T08:45:52.743Z</time></trkpt><trkpt lat="43.2199595" lon="12.1900033"><ele>315.6666666666667</ele><time>2026-03-29T08:45:54.743Z</time></trkpt><trkpt lat="43.2200734" lon="12.1898415"><ele>316.33333333333337</ele><time>2026-03-29T08:45:55.743Z</time></trkpt><trkpt lat="43.220188" lon="12.1896557"><ele>317.0</ele><time>2026-03-29T08:45:56.743Z</time></trkpt><trkpt lat="43.2203004" lon="12.1894805"><ele>317.0</ele><time>2026-03-29T08:45:57.743Z</time></trkpt><trkpt lat="43.2204097" lon="12.1893026"><ele>317.0</ele><time>2026-03-29T08:45:58.743Z</time></trkpt><trkpt lat="43.2205235" lon="12.189131"><ele>317.0</ele><time>2026-03-29T08:45:59.743Z</time></trkpt><trkpt lat="43.2206168" lon="12.18895"><ele>316.6666666666667</ele><time>2026-03-29T08:46:00.743Z</time></trkpt><trkpt lat="43.2206944" lon="12.1887559"><ele>316.3333333333333</ele><time>2026-03-29T08:46:01.743Z</time></trkpt><trkpt lat="43.2207604" lon="12.1885454"><ele>316.0</ele><time>2026-03-29T08:46:02.743Z</time></trkpt><trkpt lat="43.2208115" lon="12.1883311"><ele>317.3333333333333</ele><time>2026-03-29T08:46:03.743Z</time></trkpt><trkpt lat="43.2208437" lon="12.1880902"><ele>318.6666666666667</ele><time>2026-03-29T08:46:04.743Z</time></trkpt><trkpt lat="43.2208616" lon="12.1878504"><ele>320.0</ele><time>2026-03-29T08:46:05.743Z</time></trkpt><trkpt lat="43.2208767" lon="12.1876083"><ele>320.0</ele><time>2026-03-29T08:46:06.743Z</time></trkpt><trkpt lat="43.2208912" lon="12.1873739"><ele>320.0</ele><time>2026-03-29T08:46:07.743Z</time></trkpt><trkpt lat="43.220908" lon="12.1871629"><ele>320.0</ele><time>2026-03-29T08:46:08.743Z</time></trkpt><trkpt lat="43.2209226" lon="12.1869668"><ele>320.75</ele><time>2026-03-29T08:46:09.743Z</time></trkpt><trkpt lat="43.2209278" lon="12.1868252"><ele>321.5</ele><time>2026-03-29T08:46:10.743Z</time></trkpt><trkpt lat="43.2209518" lon="12.1866612"><ele>322.25</ele><time>2026-03-29T08:46:11.743Z</time></trkpt><trkpt lat="43.2209929" lon="12.1865076"><ele>323.0</ele><time>2026-03-29T08:46:12.742Z</time></trkpt><trkpt lat="43.2210553" lon="12.1863507"><ele>323.0</ele><time>2026-03-29T08:46:13.743Z</time></trkpt><trkpt lat="43.2211296" lon="12.1862067"><ele>323.0</ele><time>2026-03-29T08:46:14.743Z</time></trkpt><trkpt lat="43.2212093" lon="12.1860645"><ele>323.0</ele><time>2026-03-29T08:46:15.743Z</time></trkpt><trkpt lat="43.2213363" lon="12.1859423"><ele>323.0</ele><time>2026-03-29T08:46:16.743Z</time></trkpt><trkpt lat="43.2214576" lon="12.1858208"><ele>325.5</ele><time>2026-03-29T08:46:17.743Z</time></trkpt><trkpt lat="43.2215724" lon="12.1857012"><ele>328.0</ele><time>2026-03-29T08:46:18.743Z</time></trkpt><trkpt lat="43.2217054" lon="12.1855713"><ele>330.5</ele><time>2026-03-29T08:46:19.743Z</time></trkpt><trkpt lat="43.2218202" lon="12.1854728"><ele>333.0</ele><time>2026-03-29T08:46:20.743Z</time></trkpt><trkpt lat="43.2219266" lon="12.1854352"><ele>333.0</ele><time>2026-03-29T08:46:21.743Z</time></trkpt><trkpt lat="43.222031" lon="12.1853933"><ele>333.0</ele><time>2026-03-29T08:46:22.743Z</time></trkpt><trkpt lat="43.2220969" lon="12.1855269"><ele>333.0</ele><time>2026-03-29T08:46:23.743Z</time></trkpt><trkpt lat="43.2221719" lon="12.1856274"><ele>333.0</ele><time>2026-03-29T08:46:24.743Z</time></trkpt><trkpt lat="43.2222577" lon="12.1857586"><ele>337.25</ele><time>2026-03-29T08:46:25.743Z</time></trkpt><trkpt lat="43.222338" lon="12.1858993"><ele>341.5</ele><time>2026-03-29T08:46:26.743Z</time></trkpt><trkpt lat="43.2224372" lon="12.1860566"><ele>345.75</ele><time>2026-03-29T08:46:27.743Z</time></trkpt><trkpt lat="43.2225097" lon="12.186201"><ele>350.0</ele><time>2026-03-29T08:46:28.743Z</time></trkpt><trkpt lat="43.2225777" lon="12.1863623"><ele>350.0</ele><time>2026-03-29T08:46:29.743Z</time></trkpt><trkpt lat="43.2226072" lon="12.1865182"><ele>350.0</ele><time>2026-03-29T08:46:30.743Z</time></trkpt><trkpt lat="43.222652" lon="12.1866334"><ele>350.0</ele><time>2026-03-29T08:46:31.743Z</time></trkpt><trkpt lat="43.2227052" lon="12.1867222"><ele>350.0</ele><time>2026-03-29T08:46:32.743Z</time></trkpt><trkpt lat="43.2227762" lon="12.186758"><ele>350.0</ele><time>2026-03-29T08:46:33.743Z</time></trkpt><trkpt lat="43.2228741" lon="12.1867932"><ele>350.0</ele><time>2026-03-29T08:46:34.743Z</time></trkpt><trkpt lat="43.2229913" lon="12.1868222"><ele>350.0</ele><time>2026-03-29T08:46:35.743Z</time></trkpt><trkpt lat="43.2231137" lon="12.1868459"><ele>350.0</ele><time>2026-03-29T08:46:36.743Z</time></trkpt><trkpt lat="43.2232294" lon="12.1868777"><ele>350.0</ele><time>2026-03-29T08:46:37.742Z</time></trkpt><trkpt lat="43.2233353" lon="12.1868845"><ele>353.0</ele><time>2026-03-29T08:46:38.743Z</time></trkpt><trkpt lat="43.2233709" lon="12.1867936"><ele>356.0</ele><time>2026-03-29T08:46:39.743Z</time></trkpt><trkpt lat="43.2234569" lon="12.1867443"><ele>359.0</ele><time>2026-03-29T08:46:40.743Z</time></trkpt><trkpt lat="43.2235548" lon="12.1866916"><ele>362.0</ele><time>2026-03-29T08:46:41.743Z</time></trkpt><trkpt lat="43.2236632" lon="12.1866339"><ele>365.0</ele><time>2026-03-29T08:46:42.742Z</time></trkpt><trkpt lat="43.2237865" lon="12.1865775"><ele>366.25</ele><time>2026-03-29T08:46:43.743Z</time></trkpt><trkpt lat="43.2238959" lon="12.1864944"><ele>367.5</ele><time>2026-03-29T08:46:44.743Z</time></trkpt><trkpt lat="43.224036" lon="12.1864083"><ele>368.75</ele><time>2026-03-29T08:46:45.743Z</time></trkpt><trkpt lat="43.2241696" lon="12.1863447"><ele>370.0</ele><time>2026-03-29T08:46:46.743Z</time></trkpt><trkpt lat="43.2242967" lon="12.1862779"><ele>371.2</ele><time>2026-03-29T08:46:47.743Z</time></trkpt><trkpt lat="43.2244091" lon="12.1862153"><ele>372.4</ele><time>2026-03-29T08:46:48.742Z</time></trkpt><trkpt lat="43.2245099" lon="12.1861566"><ele>373.6</ele><time>2026-03-29T08:46:49.743Z</time></trkpt><trkpt lat="43.2245699" lon="12.1860987"><ele>374.8</ele><time>2026-03-29T08:46:50.743Z</time></trkpt><trkpt lat="43.2246553" lon="12.1860378"><ele>376.0</ele><time>2026-03-29T08:46:51.743Z</time></trkpt><trkpt lat="43.2245106" lon="12.1859993"><ele>376.0</ele><time>2026-03-29T08:46:52.743Z</time></trkpt><trkpt lat="43.2244283" lon="12.1858797"><ele>376.0</ele><time>2026-03-29T08:46:53.743Z</time></trkpt><trkpt lat="43.224365" lon="12.1857599"><ele>376.0</ele><time>2026-03-29T08:46:54.743Z</time></trkpt><trkpt lat="43.2242986" lon="12.185643"><ele>376.0</ele><time>2026-03-29T08:46:55.743Z</time></trkpt><trkpt lat="43.2242479" lon="12.1855466"><ele>376.0</ele><time>2026-03-29T08:46:56.743Z</time></trkpt><trkpt lat="43.2241988" lon="12.1854611"><ele>375.5</ele><time>2026-03-29T08:46:57.743Z</time></trkpt><trkpt lat="43.2242146" lon="12.1852802"><ele>375.0</ele><time>2026-03-29T08:46:59.743Z</time></trkpt><trkpt lat="43.2242242" lon="12.1851284"><ele>374.5</ele><time>2026-03-29T08:47:00.743Z</time></trkpt><trkpt lat="43.2242456" lon="12.1849554"><ele>374.0</ele><time>2026-03-29T08:47:01.743Z</time></trkpt><trkpt lat="43.2242799" lon="12.1848059"><ele>373.79999999999995</ele><time>2026-03-29T08:47:02.743Z</time></trkpt><trkpt lat="43.2243073" lon="12.1846488"><ele>373.59999999999997</ele><time>2026-03-29T08:47:03.743Z</time></trkpt><trkpt lat="43.2243215" lon="12.1844798"><ele>373.4</ele><time>2026-03-29T08:47:04.743Z</time></trkpt><trkpt lat="43.2243429" lon="12.1843542"><ele>373.2</ele><time>2026-03-29T08:47:05.743Z</time></trkpt><trkpt lat="43.2243426" lon="12.1842262"><ele>373.0</ele><time>2026-03-29T08:47:06.742Z</time></trkpt><trkpt lat="43.2243289" lon="12.1840899"><ele>373.75</ele><time>2026-03-29T08:47:07.743Z</time></trkpt><trkpt lat="43.2243498" lon="12.183958"><ele>374.5</ele><time>2026-03-29T08:47:08.743Z</time></trkpt><trkpt lat="43.2243336" lon="12.1838177"><ele>375.25</ele><time>2026-03-29T08:47:09.743Z</time></trkpt><trkpt lat="43.2243222" lon="12.1836472"><ele>376.0</ele><time>2026-03-29T08:47:10.743Z</time></trkpt><trkpt lat="43.2242974" lon="12.1834734"><ele>376.0</ele><time>2026-03-29T08:47:11.742Z</time></trkpt><trkpt lat="43.2242474" lon="12.1833012"><ele>376.0</ele><time>2026-03-29T08:47:12.743Z</time></trkpt><trkpt lat="43.2240814" lon="12.1830647"><ele>376.0</ele><time>2026-03-29T08:47:14.743Z</time></trkpt><trkpt lat="43.223984" lon="12.1829488"><ele>377.5</ele><time>2026-03-29T08:47:15.743Z</time></trkpt><trkpt lat="43.2238879" lon="12.1828605"><ele>379.0</ele><time>2026-03-29T08:47:16.743Z</time></trkpt><trkpt lat="43.2237133" lon="12.1827579"><ele>380.5</ele><time>2026-03-29T08:47:17.743Z</time></trkpt><trkpt lat="43.2235859" lon="12.182684"><ele>382.0</ele><time>2026-03-29T08:47:18.743Z</time></trkpt><trkpt lat="43.2234961" lon="12.1826138"><ele>382.0</ele><time>2026-03-29T08:47:19.743Z</time></trkpt><trkpt lat="43.2234179" lon="12.1824883"><ele>382.0</ele><time>2026-03-29T08:47:20.742Z</time></trkpt><trkpt lat="43.223357" lon="12.1823553"><ele>382.0</ele><time>2026-03-29T08:47:21.743Z</time></trkpt><trkpt lat="43.2232775" lon="12.1821913"><ele>382.0</ele><time>2026-03-29T08:47:22.743Z</time></trkpt><trkpt lat="43.2231958" lon="12.182019"><ele>382.75</ele><time>2026-03-29T08:47:23.743Z</time></trkpt><trkpt lat="43.2231015" lon="12.1818605"><ele>383.5</ele><time>2026-03-29T08:47:24.743Z</time></trkpt><trkpt lat="43.2229997" lon="12.1817067"><ele>384.25</ele><time>2026-03-29T08:47:25.743Z</time></trkpt><trkpt lat="43.2229043" lon="12.1815833"><ele>385.0</ele><time>2026-03-29T08:47:26.743Z</time></trkpt><trkpt lat="43.2228228" lon="12.1814374"><ele>386.6</ele><time>2026-03-29T08:47:27.743Z</time></trkpt><trkpt lat="43.2227552" lon="12.1812784"><ele>388.2</ele><time>2026-03-29T08:47:28.743Z</time></trkpt><trkpt lat="43.2227266" lon="12.1811708"><ele>389.79999999999995</ele><time>2026-03-29T08:47:29.743Z</time></trkpt><trkpt lat="43.2226731" lon="12.181094"><ele>391.4</ele><time>2026-03-29T08:47:30.743Z</time></trkpt><trkpt lat="43.2227713" lon="12.1810715"><ele>393.0</ele><time>2026-03-29T08:47:32.743Z</time></trkpt><trkpt lat="43.2228072" lon="12.180952"><ele>393.0</ele><time>2026-03-29T08:47:34.743Z</time></trkpt><trkpt lat="43.2229022" lon="12.1808289"><ele>393.0</ele><time>2026-03-29T08:47:36.743Z</time></trkpt><trkpt lat="43.2229989" lon="12.1807968"><ele>393.0</ele><time>2026-03-29T08:47:38.743Z</time></trkpt><trkpt lat="43.2230457" lon="12.1809354"><ele>393.0</ele><time>2026-03-29T08:47:39.743Z</time></trkpt><trkpt lat="43.2231035" lon="12.1809745"><ele>393.0</ele><time>2026-03-29T08:47:40.743Z</time></trkpt><trkpt lat="43.223174" lon="12.1809746"><ele>397.25</ele><time>2026-03-29T08:47:41.743Z</time></trkpt><trkpt lat="43.2232883" lon="12.180965"><ele>401.5</ele><time>2026-03-29T08:47:42.743Z</time></trkpt><trkpt lat="43.2234075" lon="12.1809519"><ele>405.75</ele><time>2026-03-29T08:47:43.743Z</time></trkpt><trkpt lat="43.2235105" lon="12.1809609"><ele>410.0</ele><time>2026-03-29T08:47:44.743Z</time></trkpt><trkpt lat="43.2236245" lon="12.1809918"><ele>410.0</ele><time>2026-03-29T08:47:45.743Z</time></trkpt><trkpt lat="43.2237111" lon="12.1810538"><ele>410.0</ele><time>2026-03-29T08:47:46.743Z</time></trkpt><trkpt lat="43.2238083" lon="12.1811042"><ele>410.0</ele><time>2026-03-29T08:47:47.743Z</time></trkpt><trkpt lat="43.2239034" lon="12.181144"><ele>410.0</ele><time>2026-03-29T08:47:48.743Z</time></trkpt><trkpt lat="43.2240131" lon="12.181155"><ele>410.0</ele><time>2026-03-29T08:47:49.743Z</time></trkpt><trkpt lat="43.2241196" lon="12.1811491"><ele>412.8</ele><time>2026-03-29T08:47:50.743Z</time></trkpt><trkpt lat="43.2242177" lon="12.181135"><ele>415.6</ele><time>2026-03-29T08:47:51.743Z</time></trkpt><trkpt lat="43.2243168" lon="12.1811216"><ele>418.4</ele><time>2026-03-29T08:47:52.743Z</time></trkpt><trkpt lat="43.2244026" lon="12.1811029"><ele>421.2</ele><time>2026-03-29T08:47:53.743Z</time></trkpt><trkpt lat="43.2244914" lon="12.1810861"><ele>424.0</ele><time>2026-03-29T08:47:54.742Z</time></trkpt><trkpt lat="43.2245764" lon="12.1810808"><ele>424.00000000000006</ele><time>2026-03-29T08:47:55.743Z</time></trkpt><trkpt lat="43.2246511" lon="12.1810863"><ele>424.0</ele><time>2026-03-29T08:47:56.743Z</time></trkpt><trkpt lat="43.2247375" lon="12.1810786"><ele>424.0</ele><time>2026-03-29T08:47:57.743Z</time></trkpt><trkpt lat="43.2248251" lon="12.1810773"><ele>424.0</ele><time>2026-03-29T08:47:58.743Z</time></trkpt><trkpt lat="43.2249042" lon="12.1810978"><ele>424.00000000000006</ele><time>2026-03-29T08:47:59.743Z</time></trkpt><trkpt lat="43.2250013" lon="12.1811135"><ele>424.0</ele><time>2026-03-29T08:48:00.743Z</time></trkpt><trkpt lat="43.2251004" lon="12.181104"><ele>425.6</ele><time>2026-03-29T08:48:01.743Z</time></trkpt><trkpt lat="43.2252134" lon="12.1811099"><ele>427.2</ele><time>2026-03-29T08:48:02.743Z</time></trkpt><trkpt lat="43.2253295" lon="12.181092"><ele>428.80000000000007</ele><time>2026-03-29T08:48:04.743Z</time></trkpt><trkpt lat="43.2253379" lon="12.1809215"><ele>430.40000000000003</ele><time>2026-03-29T08:48:06.743Z</time></trkpt><trkpt lat="43.2253196" lon="12.1808073"><ele>432.0</ele><time>2026-03-29T08:48:07.742Z</time></trkpt><trkpt lat="43.2252844" lon="12.1806698"><ele>434.1666666666667</ele><time>2026-03-29T08:48:08.743Z</time></trkpt><trkpt lat="43.225228" lon="12.1805464"><ele>436.33333333333337</ele><time>2026-03-29T08:48:09.743Z</time></trkpt><trkpt lat="43.2251699" lon="12.1804629"><ele>438.5</ele><time>2026-03-29T08:48:10.743Z</time></trkpt><trkpt lat="43.2251006" lon="12.1803796"><ele>440.6666666666667</ele><time>2026-03-29T08:48:11.743Z</time></trkpt><trkpt lat="43.2250355" lon="12.1803076"><ele>442.83333333333337</ele><time>2026-03-29T08:48:12.743Z</time></trkpt><trkpt lat="43.224982" lon="12.1802552"><ele>445.0</ele><time>2026-03-29T08:48:13.743Z</time></trkpt><trkpt lat="43.2249156" lon="12.1802097"><ele>445.0</ele><time>2026-03-29T08:48:14.743Z</time></trkpt><trkpt lat="43.2248173" lon="12.180174"><ele>445.0</ele><time>2026-03-29T08:48:16.743Z</time></trkpt><trkpt lat="43.2247445" lon="12.1801073"><ele>445.0</ele><time>2026-03-29T08:48:18.743Z</time></trkpt><trkpt lat="43.2247671" lon="12.1799945"><ele>445.0</ele><time>2026-03-29T08:48:31.743Z</time></trkpt><trkpt lat="43.2248188" lon="12.1798473"><ele>445.0</ele><time>2026-03-29T08:48:33.742Z</time></trkpt><trkpt lat="43.2248982" lon="12.1797212"><ele>444.8</ele><time>2026-03-29T08:48:35.743Z</time></trkpt><trkpt lat="43.2249945" lon="12.1796498"><ele>444.6</ele><time>2026-03-29T08:48:37.743Z</time></trkpt><trkpt lat="43.2250854" lon="12.1796292"><ele>444.4</ele><time>2026-03-29T08:48:38.743Z</time></trkpt><trkpt lat="43.2251778" lon="12.179565"><ele>444.2</ele><time>2026-03-29T08:48:39.743Z</time></trkpt><trkpt lat="43.2252617" lon="12.179509"><ele>444.0</ele><time>2026-03-29T08:48:40.743Z</time></trkpt><trkpt lat="43.2253493" lon="12.1794748"><ele>444.0</ele><time>2026-03-29T08:48:41.743Z</time></trkpt><trkpt lat="43.2254276" lon="12.1793527"><ele>444.0</ele><time>2026-03-29T08:48:43.743Z</time></trkpt><trkpt lat="43.2254566" lon="12.1792752"><ele>444.0</ele><time>2026-03-29T08:48:44.743Z</time></trkpt><trkpt lat="43.2254958" lon="12.1791942"><ele>444.0</ele><time>2026-03-29T08:48:45.743Z</time></trkpt><trkpt lat="43.2255504" lon="12.1791296"><ele>444.0</ele><time>2026-03-29T08:48:46.742Z</time></trkpt><trkpt lat="43.2256036" lon="12.1789983"><ele>444.0</ele><time>2026-03-29T08:48:48.743Z</time></trkpt><trkpt lat="43.2255993" lon="12.1788351"><ele>445.1666666666667</ele><time>2026-03-29T08:48:50.743Z</time></trkpt><trkpt lat="43.2255428" lon="12.1787673"><ele>446.33333333333337</ele><time>2026-03-29T08:48:51.743Z</time></trkpt><trkpt lat="43.2255563" lon="12.1786169"><ele>447.5</ele><time>2026-03-29T08:48:53.742Z</time></trkpt><trkpt lat="43.2256291" lon="12.1785557"><ele>448.6666666666667</ele><time>2026-03-29T08:48:54.743Z</time></trkpt><trkpt lat="43.225682" lon="12.1785047"><ele>449.83333333333337</ele><time>2026-03-29T08:48:55.742Z</time></trkpt><trkpt lat="43.2257484" lon="12.1783951"><ele>451.0</ele><time>2026-03-29T08:48:57.743Z</time></trkpt><trkpt lat="43.225758" lon="12.1782941"><ele>454.33333333333337</ele><time>2026-03-29T08:48:58.743Z</time></trkpt><trkpt lat="43.225781" lon="12.1780573"><ele>457.66666666666663</ele><time>2026-03-29T08:49:00.743Z</time></trkpt><trkpt lat="43.2257352" lon="12.1778956"><ele>461.0</ele><time>2026-03-29T08:49:01.743Z</time></trkpt><trkpt lat="43.2256966" lon="12.1776002"><ele>461.0</ele><time>2026-03-29T08:49:03.743Z</time></trkpt><trkpt lat="43.2256905" lon="12.1774783"><ele>461.0</ele><time>2026-03-29T08:49:04.743Z</time></trkpt><trkpt lat="43.2257126" lon="12.1773494"><ele>461.0</ele><time>2026-03-29T08:49:05.743Z</time></trkpt><trkpt lat="43.225728" lon="12.1772077"><ele>461.0</ele><time>2026-03-29T08:49:06.742Z</time></trkpt><trkpt lat="43.225746" lon="12.1770647"><ele>461.0</ele><time>2026-03-29T08:49:07.743Z</time></trkpt><trkpt lat="43.2257638" lon="12.1769374"><ele>461.5714285714286</ele><time>2026-03-29T08:49:08.743Z</time></trkpt><trkpt lat="43.2257984" lon="12.1768598"><ele>462.1428571428572</ele><time>2026-03-29T08:49:09.743Z</time></trkpt><trkpt lat="43.225817" lon="12.1767506"><ele>462.7142857142857</ele><time>2026-03-29T08:49:10.743Z</time></trkpt><trkpt lat="43.2258735" lon="12.1766841"><ele>463.28571428571433</ele><time>2026-03-29T08:49:11.743Z</time></trkpt><trkpt lat="43.2259191" lon="12.1766126"><ele>463.8571428571429</ele><time>2026-03-29T08:49:12.743Z</time></trkpt><trkpt lat="43.2259774" lon="12.176555"><ele>464.42857142857144</ele><time>2026-03-29T08:49:13.743Z</time></trkpt><trkpt lat="43.2260108" lon="12.1764661"><ele>465.0</ele><time>2026-03-29T08:49:14.743Z</time></trkpt><trkpt lat="43.2260677" lon="12.1763824"><ele>466.1428571428571</ele><time>2026-03-29T08:49:15.743Z</time></trkpt><trkpt lat="43.226111" lon="12.1762835"><ele>467.28571428571433</ele><time>2026-03-29T08:49:16.743Z</time></trkpt><trkpt lat="43.226135" lon="12.1762019"><ele>468.42857142857144</ele><time>2026-03-29T08:49:17.743Z</time></trkpt><trkpt lat="43.2261667" lon="12.1761132"><ele>469.57142857142856</ele><time>2026-03-29T08:49:18.743Z</time></trkpt><trkpt lat="43.2261946" lon="12.1760226"><ele>470.71428571428567</ele><time>2026-03-29T08:49:19.743Z</time></trkpt><trkpt lat="43.2261999" lon="12.1759284"><ele>471.8571428571429</ele><time>2026-03-29T08:49:20.743Z</time></trkpt><trkpt lat="43.2262114" lon="12.175843"><ele>473.0</ele><time>2026-03-29T08:49:21.743Z</time></trkpt><trkpt lat="43.2262571" lon="12.1756457"><ele>475.16666666666663</ele><time>2026-03-29T08:49:23.743Z</time></trkpt><trkpt lat="43.2262512" lon="12.1755177"><ele>477.3333333333333</ele><time>2026-03-29T08:49:25.743Z</time></trkpt><trkpt lat="43.2262438" lon="12.1754202"><ele>479.5</ele><time>2026-03-29T08:49:42.743Z</time></trkpt><trkpt lat="43.2262397" lon="12.1753242"><ele>481.66666666666663</ele><time>2026-03-29T08:50:00.743Z</time></trkpt><trkpt lat="43.2262653" lon="12.1752426"><ele>483.8333333333333</ele><time>2026-03-29T08:50:02.742Z</time></trkpt><trkpt lat="43.2262901" lon="12.1751336"><ele>486.0</ele><time>2026-03-29T08:50:08.743Z</time></trkpt><trkpt lat="43.226253" lon="12.1750176"><ele>486.0</ele><time>2026-03-29T08:50:10.743Z</time></trkpt><trkpt lat="43.2261717" lon="12.1748878"><ele>486.0</ele><time>2026-03-29T08:50:12.743Z</time></trkpt><trkpt lat="43.2261338" lon="12.1748053"><ele>486.0</ele><time>2026-03-29T08:50:13.743Z</time></trkpt><trkpt lat="43.2260847" lon="12.1747286"><ele>486.0</ele><time>2026-03-29T08:50:14.743Z</time></trkpt><trkpt lat="43.2260401" lon="12.1746553"><ele>486.0</ele><time>2026-03-29T08:50:15.743Z</time></trkpt><trkpt lat="43.2259585" lon="12.1745145"><ele>488.4</ele><time>2026-03-29T08:50:17.743Z</time></trkpt><trkpt lat="43.2259362" lon="12.1743871"><ele>490.8</ele><time>2026-03-29T08:50:19.743Z</time></trkpt><trkpt lat="43.22596" lon="12.1742936"><ele>493.19999999999993</ele><time>2026-03-29T08:50:21.743Z</time></trkpt><trkpt lat="43.2260426" lon="12.1742833"><ele>495.59999999999997</ele><time>2026-03-29T08:50:22.743Z</time></trkpt><trkpt lat="43.2261523" lon="12.1742274"><ele>498.0</ele><time>2026-03-29T08:50:24.743Z</time></trkpt><trkpt lat="43.2262439" lon="12.1741657"><ele>498.0</ele><time>2026-03-29T08:50:26.743Z</time></trkpt><trkpt lat="43.2263292" lon="12.1741125"><ele>497.99999999999994</ele><time>2026-03-29T08:50:28.743Z</time></trkpt><trkpt lat="43.2264468" lon="12.1740654"><ele>497.99999999999994</ele><time>2026-03-29T08:50:30.743Z</time></trkpt><trkpt lat="43.226517" lon="12.1740641"><ele>498.0</ele><time>2026-03-29T08:50:31.743Z</time></trkpt><trkpt lat="43.2266192" lon="12.1739959"><ele>498.0</ele><time>2026-03-29T08:50:33.743Z</time></trkpt><trkpt lat="43.2267587" lon="12.1739641"><ele>502.1666666666667</ele><time>2026-03-29T08:50:35.743Z</time></trkpt><trkpt lat="43.2268191" lon="12.1739378"><ele>506.33333333333337</ele><time>2026-03-29T08:50:36.743Z</time></trkpt><trkpt lat="43.2268803" lon="12.1739131"><ele>510.5</ele><time>2026-03-29T08:50:37.743Z</time></trkpt><trkpt lat="43.2269425" lon="12.1738671"><ele>514.6666666666667</ele><time>2026-03-29T08:50:38.743Z</time></trkpt><trkpt lat="43.2268892" lon="12.1737722"><ele>518.8333333333334</ele><time>2026-03-29T08:50:42.743Z</time></trkpt><trkpt lat="43.226876" lon="12.1736709"><ele>523.0</ele><time>2026-03-29T08:50:44.743Z</time></trkpt><trkpt lat="43.2268187" lon="12.1735589"><ele>523.0</ele><time>2026-03-29T08:50:46.743Z</time></trkpt><trkpt lat="43.2267563" lon="12.1734526"><ele>523.0</ele><time>2026-03-29T08:50:48.743Z</time></trkpt><trkpt lat="43.2267216" lon="12.1732966"><ele>523.0</ele><time>2026-03-29T08:50:50.743Z</time></trkpt><trkpt lat="43.2267748" lon="12.1732013"><ele>523.0</ele><time>2026-03-29T08:50:52.743Z</time></trkpt><trkpt lat="43.2268623" lon="12.1731511"><ele>523.0</ele><time>2026-03-29T08:50:54.743Z</time></trkpt><trkpt lat="43.2269389" lon="12.1731051"><ele>525.4</ele><time>2026-03-29T08:50:57.743Z</time></trkpt><trkpt lat="43.2269734" lon="12.1730259"><ele>527.8</ele><time>2026-03-29T08:52:08.742Z</time></trkpt><trkpt lat="43.2269417" lon="12.1729215"><ele>530.2</ele><time>2026-03-29T08:52:10.743Z</time></trkpt><trkpt lat="43.2269131" lon="12.1727803"><ele>532.6</ele><time>2026-03-29T08:52:12.742Z</time></trkpt><trkpt lat="43.2269304" lon="12.1726417"><ele>535.0</ele><time>2026-03-29T08:52:14.743Z</time></trkpt><trkpt lat="43.2269636" lon="12.1725122"><ele>538.0</ele><time>2026-03-29T08:52:16.743Z</time></trkpt><trkpt lat="43.2269296" lon="12.1722504"><ele>541.0</ele><time>2026-03-29T08:52:19.743Z</time></trkpt><trkpt lat="43.2269055" lon="12.1721561"><ele>544.0</ele><time>2026-03-29T08:52:20.743Z</time></trkpt><trkpt lat="43.2268617" lon="12.1720568"><ele>547.0</ele><time>2026-03-29T08:52:21.743Z</time></trkpt><trkpt lat="43.2268161" lon="12.1719599"><ele>550.0</ele><time>2026-03-29T08:52:22.743Z</time></trkpt><trkpt lat="43.2267724" lon="12.171851"><ele>550.0</ele><time>2026-03-29T08:52:23.743Z</time></trkpt><trkpt lat="43.2267175" lon="12.1717545"><ele>550.0</ele><time>2026-03-29T08:52:25.743Z</time></trkpt><trkpt lat="43.2266727" lon="12.1716326"><ele>550.0</ele><time>2026-03-29T08:52:27.743Z</time></trkpt><trkpt lat="43.226784" lon="12.1714804"><ele>550.0</ele><time>2026-03-29T08:52:30.743Z</time></trkpt><trkpt lat="43.2268535" lon="12.1714497"><ele>550.0</ele><time>2026-03-29T08:52:31.743Z</time></trkpt><trkpt lat="43.2269504" lon="12.171449"><ele>551.6666666666667</ele><time>2026-03-29T08:52:32.743Z</time></trkpt><trkpt lat="43.227013" lon="12.1714264"><ele>553.3333333333334</ele><time>2026-03-29T08:52:33.743Z</time></trkpt><trkpt lat="43.2270776" lon="12.1714094"><ele>555.0</ele><time>2026-03-29T08:52:34.743Z</time></trkpt><trkpt lat="43.2270846" lon="12.171283"><ele>556.6666666666666</ele><time>2026-03-29T08:52:36.743Z</time></trkpt><trkpt lat="43.2270306" lon="12.1711387"><ele>558.3333333333333</ele><time>2026-03-29T08:52:38.743Z</time></trkpt><trkpt lat="43.2269347" lon="12.1710696"><ele>560.0</ele><time>2026-03-29T08:52:39.743Z</time></trkpt><trkpt lat="43.226819" lon="12.1709649"><ele>560.0</ele><time>2026-03-29T08:52:41.743Z</time></trkpt><trkpt lat="43.2267628" lon="12.1708146"><ele>560.0</ele><time>2026-03-29T08:52:43.743Z</time></trkpt><trkpt lat="43.2267849" lon="12.1707061"><ele>560.0</ele><time>2026-03-29T08:52:44.743Z</time></trkpt><trkpt lat="43.2268235" lon="12.1705747"><ele>560.0</ele><time>2026-03-29T08:52:46.743Z</time></trkpt><trkpt lat="43.2269447" lon="12.1705605"><ele>560.0</ele><time>2026-03-29T08:52:48.743Z</time></trkpt><trkpt lat="43.2270327" lon="12.1705985"><ele>560.0</ele><time>2026-03-29T08:52:49.743Z</time></trkpt><trkpt lat="43.227123" lon="12.1706356"><ele>560.0</ele><time>2026-03-29T08:52:50.743Z</time></trkpt><trkpt lat="43.2272192" lon="12.1706727"><ele>560.0</ele><time>2026-03-29T08:52:51.743Z</time></trkpt><trkpt lat="43.2272997" lon="12.1707013"><ele>560.0</ele><time>2026-03-29T08:52:52.742Z</time></trkpt><trkpt lat="43.2273729" lon="12.1706813"><ele>560.0</ele><time>2026-03-29T08:52:54.743Z</time></trkpt><trkpt lat="43.2274628" lon="12.1707066"><ele>560.0</ele><time>2026-03-29T08:53:04.742Z</time></trkpt><trkpt lat="43.2275549" lon="12.170792"><ele>562.0</ele><time>2026-03-29T08:53:06.743Z</time></trkpt><trkpt lat="43.2276309" lon="12.1708285"><ele>564.0</ele><time>2026-03-29T08:53:07.743Z</time></trkpt><trkpt lat="43.2277258" lon="12.1708627"><ele>566.0</ele><time>2026-03-29T08:53:08.743Z</time></trkpt><trkpt lat="43.2278223" lon="12.1708931"><ele>568.0</ele><time>2026-03-29T08:53:09.743Z</time></trkpt><trkpt lat="43.2279101" lon="12.1708981"><ele>570.0</ele><time>2026-03-29T08:53:10.743Z</time></trkpt><trkpt lat="43.2280008" lon="12.1708679"><ele>570.4</ele><time>2026-03-29T08:53:11.743Z</time></trkpt><trkpt lat="43.2281806" lon="12.1708383"><ele>570.8</ele><time>2026-03-29T08:53:13.743Z</time></trkpt><trkpt lat="43.2282417" lon="12.1708661"><ele>571.2</ele><time>2026-03-29T08:53:14.743Z</time></trkpt><trkpt lat="43.2283203" lon="12.170948"><ele>571.6</ele><time>2026-03-29T08:53:15.743Z</time></trkpt><trkpt lat="43.2283839" lon="12.1710456"><ele>572.0</ele><time>2026-03-29T08:53:16.743Z</time></trkpt><trkpt lat="43.2284269" lon="12.1711402"><ele>572.0</ele><time>2026-03-29T08:53:17.743Z</time></trkpt><trkpt lat="43.2284696" lon="12.1712139"><ele>572.0</ele><time>2026-03-29T08:53:18.743Z</time></trkpt><trkpt lat="43.2285647" lon="12.1712239"><ele>572.0</ele><time>2026-03-29T08:53:19.743Z</time></trkpt><trkpt lat="43.2286609" lon="12.1712664"><ele>572.0</ele><time>2026-03-29T08:53:20.742Z</time></trkpt><trkpt lat="43.2287627" lon="12.1713253"><ele>572.0</ele><time>2026-03-29T08:53:21.743Z</time></trkpt><trkpt lat="43.2288637" lon="12.1713869"><ele>572.0</ele><time>2026-03-29T08:53:22.743Z</time></trkpt><trkpt lat="43.2289453" lon="12.1714105"><ele>572.0</ele><time>2026-03-29T08:53:23.743Z</time></trkpt><trkpt lat="43.229041" lon="12.1714394"><ele>572.0</ele><time>2026-03-29T08:53:24.743Z</time></trkpt><trkpt lat="43.2292593" lon="12.1715652"><ele>572.0</ele><time>2026-03-29T08:53:26.742Z</time></trkpt><trkpt lat="43.2293827" lon="12.1716611"><ele>570.6</ele><time>2026-03-29T08:53:27.743Z</time></trkpt><trkpt lat="43.2294788" lon="12.171765"><ele>569.2</ele><time>2026-03-29T08:53:28.743Z</time></trkpt><trkpt lat="43.2295652" lon="12.1718623"><ele>567.8</ele><time>2026-03-29T08:53:29.743Z</time></trkpt><trkpt lat="43.2296471" lon="12.171925"><ele>566.4</ele><time>2026-03-29T08:53:30.743Z</time></trkpt><trkpt lat="43.2297222" lon="12.1719609"><ele>565.0</ele><time>2026-03-29T08:53:31.743Z</time></trkpt><trkpt lat="43.2298207" lon="12.1719989"><ele>565.0</ele><time>2026-03-29T08:53:32.743Z</time></trkpt><trkpt lat="43.2299205" lon="12.1720368"><ele>565.0</ele><time>2026-03-29T08:53:33.743Z</time></trkpt><trkpt lat="43.2300303" lon="12.1720962"><ele>565.0</ele><time>2026-03-29T08:53:34.743Z</time></trkpt><trkpt lat="43.2301262" lon="12.1721393"><ele>565.0</ele><time>2026-03-29T08:53:35.743Z</time></trkpt><trkpt lat="43.2302103" lon="12.172139"><ele>565.0</ele><time>2026-03-29T08:53:36.743Z</time></trkpt><trkpt lat="43.2303992" lon="12.1720715"><ele>565.0</ele><time>2026-03-29T08:53:38.743Z</time></trkpt><trkpt lat="43.2304902" lon="12.1720205"><ele>565.0</ele><time>2026-03-29T08:53:39.743Z</time></trkpt><trkpt lat="43.2305931" lon="12.1719607"><ele>565.0</ele><time>2026-03-29T08:53:40.743Z</time></trkpt><trkpt lat="43.2306759" lon="12.1718929"><ele>565.0</ele><time>2026-03-29T08:53:41.743Z</time></trkpt><trkpt lat="43.2307576" lon="12.1717861"><ele>565.0</ele><time>2026-03-29T08:53:42.743Z</time></trkpt><trkpt lat="43.230831" lon="12.1716979"><ele>563.5</ele><time>2026-03-29T08:53:43.742Z</time></trkpt><trkpt lat="43.2308989" lon="12.1716069"><ele>562.0</ele><time>2026-03-29T08:53:44.743Z</time></trkpt><trkpt lat="43.2309104" lon="12.1714815"><ele>560.5</ele><time>2026-03-29T08:53:45.743Z</time></trkpt><trkpt lat="43.2309681" lon="12.1713854"><ele>559.0</ele><time>2026-03-29T08:53:46.742Z</time></trkpt><trkpt lat="43.2310224" lon="12.1712953"><ele>557.5</ele><time>2026-03-29T08:53:47.743Z</time></trkpt><trkpt lat="43.2310576" lon="12.1711986"><ele>556.0</ele><time>2026-03-29T08:53:48.743Z</time></trkpt><trkpt lat="43.2311032" lon="12.17109"><ele>556.0</ele><time>2026-03-29T08:53:49.743Z</time></trkpt><trkpt lat="43.2311177" lon="12.1709745"><ele>556.0</ele><time>2026-03-29T08:53:50.742Z</time></trkpt><trkpt lat="43.2311353" lon="12.1708355"><ele>556.0</ele><time>2026-03-29T08:53:52.743Z</time></trkpt><trkpt lat="43.2312496" lon="12.1707304"><ele>556.0</ele><time>2026-03-29T08:53:54.743Z</time></trkpt><trkpt lat="43.2313341" lon="12.1705863"><ele>557.0</ele><time>2026-03-29T08:53:56.743Z</time></trkpt><trkpt lat="43.2313757" lon="12.1705114"><ele>558.0</ele><time>2026-03-29T08:53:57.743Z</time></trkpt><trkpt lat="43.2314004" lon="12.1704181"><ele>559.0</ele><time>2026-03-29T08:53:58.743Z</time></trkpt><trkpt lat="43.2314755" lon="12.1702772"><ele>560.0</ele><time>2026-03-29T08:54:00.743Z</time></trkpt><trkpt lat="43.2316268" lon="12.1701908"><ele>561.0</ele><time>2026-03-29T08:54:02.743Z</time></trkpt><trkpt lat="43.2317106" lon="12.1701419"><ele>561.0</ele><time>2026-03-29T08:54:03.743Z</time></trkpt><trkpt lat="43.2318022" lon="12.1700759"><ele>561.0</ele><time>2026-03-29T08:54:04.743Z</time></trkpt><trkpt lat="43.2318774" lon="12.1700036"><ele>561.0</ele><time>2026-03-29T08:54:05.743Z</time></trkpt><trkpt lat="43.2319835" lon="12.1699458"><ele>561.0</ele><time>2026-03-29T08:54:06.743Z</time></trkpt><trkpt lat="43.2320777" lon="12.169877"><ele>561.0</ele><time>2026-03-29T08:54:07.743Z</time></trkpt><trkpt lat="43.2321633" lon="12.1698218"><ele>562.5</ele><time>2026-03-29T08:54:08.743Z</time></trkpt><trkpt lat="43.2322272" lon="12.1697163"><ele>564.0</ele><time>2026-03-29T08:54:09.743Z</time></trkpt><trkpt lat="43.2322911" lon="12.169535"><ele>565.5</ele><time>2026-03-29T08:54:10.743Z</time></trkpt><trkpt lat="43.2323311" lon="12.1694078"><ele>567.0</ele><time>2026-03-29T08:54:11.743Z</time></trkpt><trkpt lat="43.2325024" lon="12.1692591"><ele>567.0</ele><time>2026-03-29T08:54:13.743Z</time></trkpt><trkpt lat="43.2325719" lon="12.1691682"><ele>567.0</ele><time>2026-03-29T08:54:14.743Z</time></trkpt><trkpt lat="43.2326551" lon="12.1690806"><ele>567.0</ele><time>2026-03-29T08:54:15.743Z</time></trkpt><trkpt lat="43.2327539" lon="12.1689566"><ele>567.0</ele><time>2026-03-29T08:54:16.743Z</time></trkpt><trkpt lat="43.2328376" lon="12.1688709"><ele>567.0</ele><time>2026-03-29T08:54:17.742Z</time></trkpt><trkpt lat="43.232927" lon="12.1687828"><ele>568.8000000000001</ele><time>2026-03-29T08:54:18.743Z</time></trkpt><trkpt lat="43.2329955" lon="12.1687189"><ele>570.6</ele><time>2026-03-29T08:54:19.743Z</time></trkpt><trkpt lat="43.2330832" lon="12.1687176"><ele>572.4000000000001</ele><time>2026-03-29T08:54:20.743Z</time></trkpt><trkpt lat="43.2331693" lon="12.168722"><ele>574.2</ele><time>2026-03-29T08:54:21.743Z</time></trkpt><trkpt lat="43.2332977" lon="12.1687501"><ele>576.0</ele><time>2026-03-29T08:54:22.743Z</time></trkpt><trkpt lat="43.2333899" lon="12.1687653"><ele>576.0</ele><time>2026-03-29T08:54:23.743Z</time></trkpt><trkpt lat="43.2334737" lon="12.1687687"><ele>576.0</ele><time>2026-03-29T08:54:24.743Z</time></trkpt><trkpt lat="43.2335696" lon="12.1686982"><ele>576.0</ele><time>2026-03-29T08:54:26.743Z</time></trkpt><trkpt lat="43.2334414" lon="12.1686407"><ele>576.0</ele><time>2026-03-29T08:54:27.743Z</time></trkpt><trkpt lat="43.2333294" lon="12.1685668"><ele>576.0</ele><time>2026-03-29T08:54:30.743Z</time></trkpt><trkpt lat="43.2333552" lon="12.1683585"><ele>576.0</ele><time>2026-03-29T08:54:33.743Z</time></trkpt><trkpt lat="43.2333864" lon="12.1682161"><ele>576.0</ele><time>2026-03-29T08:54:34.743Z</time></trkpt><trkpt lat="43.2334001" lon="12.168082"><ele>576.0</ele><time>2026-03-29T08:54:35.743Z</time></trkpt><trkpt lat="43.2334124" lon="12.1679473"><ele>577.0</ele><time>2026-03-29T08:54:36.743Z</time></trkpt><trkpt lat="43.2334071" lon="12.1678287"><ele>578.0</ele><time>2026-03-29T08:54:37.743Z</time></trkpt><trkpt lat="43.2334144" lon="12.1677211"><ele>579.0</ele><time>2026-03-29T08:54:38.743Z</time></trkpt><trkpt lat="43.2333753" lon="12.1675675"><ele>580.0</ele><time>2026-03-29T08:54:39.743Z</time></trkpt><trkpt lat="43.2333616" lon="12.1674202"><ele>581.0</ele><time>2026-03-29T08:54:40.743Z</time></trkpt><trkpt lat="43.2333456" lon="12.1672929"><ele>581.4</ele><time>2026-03-29T08:54:41.743Z</time></trkpt><trkpt lat="43.2333821" lon="12.1670885"><ele>581.8</ele><time>2026-03-29T08:54:43.743Z</time></trkpt><trkpt lat="43.2333962" lon="12.1669819"><ele>582.1999999999999</ele><time>2026-03-29T08:54:44.743Z</time></trkpt><trkpt lat="43.2334054" lon="12.166872"><ele>582.6</ele><time>2026-03-29T08:54:45.743Z</time></trkpt><trkpt lat="43.2334325" lon="12.166757"><ele>583.0</ele><time>2026-03-29T08:54:46.743Z</time></trkpt><trkpt lat="43.2334533" lon="12.1666306"><ele>583.0</ele><time>2026-03-29T08:54:48.743Z</time></trkpt><trkpt lat="43.2335681" lon="12.1666842"><ele>583.0</ele><time>2026-03-29T08:54:51.743Z</time></trkpt><trkpt lat="43.2336637" lon="12.1666721"><ele>583.0</ele><time>2026-03-29T08:54:52.743Z</time></trkpt><trkpt lat="43.2337325" lon="12.1666463"><ele>583.0</ele><time>2026-03-29T08:54:53.743Z</time></trkpt><trkpt lat="43.233833" lon="12.1666322"><ele>583.0</ele><time>2026-03-29T08:54:54.743Z</time></trkpt><trkpt lat="43.2339344" lon="12.1665524"><ele>582.4</ele><time>2026-03-29T08:54:55.743Z</time></trkpt><trkpt lat="43.2340428" lon="12.1664836"><ele>581.8</ele><time>2026-03-29T08:54:56.743Z</time></trkpt><trkpt lat="43.2341517" lon="12.1664021"><ele>581.2</ele><time>2026-03-29T08:54:57.743Z</time></trkpt><trkpt lat="43.234252" lon="12.1663667"><ele>580.6</ele><time>2026-03-29T08:54:58.743Z</time></trkpt><trkpt lat="43.2343176" lon="12.1663266"><ele>580.0</ele><time>2026-03-29T08:54:59.743Z</time></trkpt><trkpt lat="43.2343891" lon="12.1663364"><ele>580.0</ele><time>2026-03-29T08:55:00.743Z</time></trkpt><trkpt lat="43.234503" lon="12.1664042"><ele>580.0</ele><time>2026-03-29T08:55:02.743Z</time></trkpt><trkpt lat="43.2346185" lon="12.166413"><ele>580.0</ele><time>2026-03-29T08:55:03.743Z</time></trkpt><trkpt lat="43.2347576" lon="12.1664559"><ele>580.0</ele><time>2026-03-29T08:55:04.743Z</time></trkpt><trkpt lat="43.2348944" lon="12.1665026"><ele>576.8</ele><time>2026-03-29T08:55:05.743Z</time></trkpt><trkpt lat="43.234993" lon="12.1665538"><ele>573.6</ele><time>2026-03-29T08:55:06.743Z</time></trkpt><trkpt lat="43.2350923" lon="12.1666099"><ele>570.4</ele><time>2026-03-29T08:55:07.742Z</time></trkpt><trkpt lat="43.2351945" lon="12.1667069"><ele>567.2</ele><time>2026-03-29T08:55:08.743Z</time></trkpt><trkpt lat="43.2352834" lon="12.1667978"><ele>564.0</ele><time>2026-03-29T08:55:09.743Z</time></trkpt><trkpt lat="43.2353578" lon="12.1668904"><ele>564.0</ele><time>2026-03-29T08:55:10.743Z</time></trkpt><trkpt lat="43.2354396" lon="12.166969"><ele>564.0</ele><time>2026-03-29T08:55:11.743Z</time></trkpt><trkpt lat="43.2355072" lon="12.1670756"><ele>564.0</ele><time>2026-03-29T08:55:12.742Z</time></trkpt><trkpt lat="43.2355951" lon="12.1671648"><ele>564.0</ele><time>2026-03-29T08:55:13.743Z</time></trkpt><trkpt lat="43.2356802" lon="12.1672717"><ele>564.0</ele><time>2026-03-29T08:55:14.743Z</time></trkpt><trkpt lat="43.2357387" lon="12.167342"><ele>565.0</ele><time>2026-03-29T08:55:15.743Z</time></trkpt><trkpt lat="43.2357908" lon="12.1674107"><ele>566.0</ele><time>2026-03-29T08:55:16.743Z</time></trkpt><trkpt lat="43.2358478" lon="12.1674778"><ele>567.0</ele><time>2026-03-29T08:55:17.743Z</time></trkpt><trkpt lat="43.2359661" lon="12.1674812"><ele>568.0</ele><time>2026-03-29T08:55:19.743Z</time></trkpt><trkpt lat="43.2360713" lon="12.1672532"><ele>568.0</ele><time>2026-03-29T08:55:21.743Z</time></trkpt><trkpt lat="43.2361192" lon="12.1671526"><ele>568.0</ele><time>2026-03-29T08:55:22.743Z</time></trkpt><trkpt lat="43.2361452" lon="12.167035"><ele>568.0</ele><time>2026-03-29T08:55:23.743Z</time></trkpt><trkpt lat="43.2361888" lon="12.1669468"><ele>568.0</ele><time>2026-03-29T08:55:24.743Z</time></trkpt><trkpt lat="43.2362226" lon="12.1668592"><ele>568.0</ele><time>2026-03-29T08:55:25.743Z</time></trkpt><trkpt lat="43.2363129" lon="12.1668197"><ele>568.0</ele><time>2026-03-29T08:55:27.743Z</time></trkpt><trkpt lat="43.2364714" lon="12.1668751"><ele>565.5</ele><time>2026-03-29T08:55:29.743Z</time></trkpt><trkpt lat="43.2365596" lon="12.1668569"><ele>563.0</ele><time>2026-03-29T08:55:30.743Z</time></trkpt><trkpt lat="43.2366483" lon="12.1668927"><ele>560.5</ele><time>2026-03-29T08:55:31.743Z</time></trkpt><trkpt lat="43.2367387" lon="12.1669427"><ele>558.0</ele><time>2026-03-29T08:55:32.743Z</time></trkpt><trkpt lat="43.2368071" lon="12.1670176"><ele>555.5</ele><time>2026-03-29T08:55:33.743Z</time></trkpt><trkpt lat="43.2368628" lon="12.1670977"><ele>553.0</ele><time>2026-03-29T08:55:34.743Z</time></trkpt><trkpt lat="43.2369748" lon="12.1671549"><ele>553.0</ele><time>2026-03-29T08:55:36.743Z</time></trkpt><trkpt lat="43.2370659" lon="12.1671605"><ele>553.0</ele><time>2026-03-29T08:55:37.743Z</time></trkpt><trkpt lat="43.2371856" lon="12.1671216"><ele>553.0</ele><time>2026-03-29T08:55:38.742Z</time></trkpt><trkpt lat="43.2373008" lon="12.1671073"><ele>553.0</ele><time>2026-03-29T08:55:39.743Z</time></trkpt><trkpt lat="43.2373868" lon="12.1670492"><ele>553.0</ele><time>2026-03-29T08:55:40.743Z</time></trkpt><trkpt lat="43.2375965" lon="12.1670051"><ele>551.4</ele><time>2026-03-29T08:55:42.743Z</time></trkpt><trkpt lat="43.2376709" lon="12.1669795"><ele>549.8</ele><time>2026-03-29T08:55:43.743Z</time></trkpt><trkpt lat="43.2377686" lon="12.1669927"><ele>548.2</ele><time>2026-03-29T08:55:44.743Z</time></trkpt><trkpt lat="43.2378698" lon="12.1670218"><ele>546.6</ele><time>2026-03-29T08:55:45.743Z</time></trkpt><trkpt lat="43.2379617" lon="12.1670691"><ele>545.0</ele><time>2026-03-29T08:55:46.743Z</time></trkpt><trkpt lat="43.238068" lon="12.1670731"><ele>541.6</ele><time>2026-03-29T08:55:47.743Z</time></trkpt><trkpt lat="43.2381899" lon="12.1670527"><ele>538.2</ele><time>2026-03-29T08:55:48.743Z</time></trkpt><trkpt lat="43.2382996" lon="12.1670298"><ele>534.8</ele><time>2026-03-29T08:55:49.743Z</time></trkpt><trkpt lat="43.2383674" lon="12.1669893"><ele>531.4</ele><time>2026-03-29T08:55:50.743Z</time></trkpt><trkpt lat="43.2384479" lon="12.1670223"><ele>528.0</ele><time>2026-03-29T08:55:51.743Z</time></trkpt><trkpt lat="43.2385391" lon="12.1670557"><ele>528.0</ele><time>2026-03-29T08:55:52.743Z</time></trkpt><trkpt lat="43.2386205" lon="12.1670643"><ele>528.0</ele><time>2026-03-29T08:55:53.743Z</time></trkpt><trkpt lat="43.238725" lon="12.1670719"><ele>528.0</ele><time>2026-03-29T08:55:55.743Z</time></trkpt><trkpt lat="43.2386814" lon="12.1669566"><ele>528.0</ele><time>2026-03-29T08:56:00.743Z</time></trkpt><trkpt lat="43.2386789" lon="12.1668693"><ele>528.0</ele><time>2026-03-29T08:56:03.743Z</time></trkpt><trkpt lat="43.2386961" lon="12.1667827"><ele>528.0</ele><time>2026-03-29T08:58:34.743Z</time></trkpt><trkpt lat="43.2386921" lon="12.1666578"><ele>529.3333333333334</ele><time>2026-03-29T08:58:37.743Z</time></trkpt><trkpt lat="43.2386284" lon="12.1664012"><ele>530.6666666666667</ele><time>2026-03-29T08:58:40.743Z</time></trkpt><trkpt lat="43.2385887" lon="12.1662498"><ele>532.0</ele><time>2026-03-29T08:58:41.743Z</time></trkpt><trkpt lat="43.2385262" lon="12.1660742"><ele>532.0</ele><time>2026-03-29T08:58:42.743Z</time></trkpt><trkpt lat="43.2384712" lon="12.1658838"><ele>532.0</ele><time>2026-03-29T08:58:43.743Z</time></trkpt><trkpt lat="43.2384224" lon="12.1656711"><ele>532.0</ele><time>2026-03-29T08:58:44.743Z</time></trkpt><trkpt lat="43.2384141" lon="12.1654769"><ele>532.0</ele><time>2026-03-29T08:58:45.742Z</time></trkpt><trkpt lat="43.2384137" lon="12.165265"><ele>532.0</ele><time>2026-03-29T08:58:46.743Z</time></trkpt><trkpt lat="43.2383801" lon="12.1650651"><ele>532.0</ele><time>2026-03-29T08:58:47.742Z</time></trkpt><trkpt lat="43.2383472" lon="12.1649079"><ele>532.0</ele><time>2026-03-29T08:58:48.743Z</time></trkpt><trkpt lat="43.2382375" lon="12.1645437"><ele>532.0</ele><time>2026-03-29T08:58:50.743Z</time></trkpt><trkpt lat="43.2382099" lon="12.1643584"><ele>532.0</ele><time>2026-03-29T08:58:51.742Z</time></trkpt><trkpt lat="43.2381819" lon="12.1641542"><ele>532.0</ele><time>2026-03-29T08:58:52.743Z</time></trkpt><trkpt lat="43.2381894" lon="12.1640188"><ele>532.0</ele><time>2026-03-29T08:58:53.743Z</time></trkpt><trkpt lat="43.2382318" lon="12.1638984"><ele>531.5</ele><time>2026-03-29T08:58:54.743Z</time></trkpt><trkpt lat="43.2382229" lon="12.1637447"><ele>531.0</ele><time>2026-03-29T08:58:55.743Z</time></trkpt><trkpt lat="43.2381821" lon="12.1635989"><ele>530.5</ele><time>2026-03-29T08:58:56.743Z</time></trkpt><trkpt lat="43.2381082" lon="12.1634514"><ele>530.0</ele><time>2026-03-29T08:58:57.743Z</time></trkpt><trkpt lat="43.2380507" lon="12.1633148"><ele>534.5</ele><time>2026-03-29T08:58:58.743Z</time></trkpt><trkpt lat="43.2380207" lon="12.1632113"><ele>539.0</ele><time>2026-03-29T08:58:59.743Z</time></trkpt><trkpt lat="43.2378744" lon="12.1631725"><ele>543.5</ele><time>2026-03-29T08:59:00.743Z</time></trkpt><trkpt lat="43.2377585" lon="12.1631087"><ele>548.0</ele><time>2026-03-29T08:59:01.743Z</time></trkpt><trkpt lat="43.2376658" lon="12.1630564"><ele>548.0</ele><time>2026-03-29T08:59:02.743Z</time></trkpt><trkpt lat="43.2375747" lon="12.16298"><ele>548.0</ele><time>2026-03-29T08:59:03.743Z</time></trkpt><trkpt lat="43.2375415" lon="12.1627985"><ele>548.0</ele><time>2026-03-29T08:59:04.743Z</time></trkpt><trkpt lat="43.2374897" lon="12.1626767"><ele>548.0</ele><time>2026-03-29T08:59:05.743Z</time></trkpt><trkpt lat="43.2374285" lon="12.1625353"><ele>548.0</ele><time>2026-03-29T08:59:06.743Z</time></trkpt><trkpt lat="43.2373822" lon="12.1624696"><ele>548.0</ele><time>2026-03-29T08:59:07.742Z</time></trkpt><trkpt lat="43.2371788" lon="12.1623397"><ele>548.0</ele><time>2026-03-29T08:59:09.743Z</time></trkpt><trkpt lat="43.2370533" lon="12.1623111"><ele>548.0</ele><time>2026-03-29T08:59:10.742Z</time></trkpt><trkpt lat="43.2369903" lon="12.1622083"><ele>552.4</ele><time>2026-03-29T08:59:11.743Z</time></trkpt><trkpt lat="43.2369196" lon="12.1620908"><ele>556.8</ele><time>2026-03-29T08:59:12.743Z</time></trkpt><trkpt lat="43.2369106" lon="12.1619924"><ele>561.2</ele><time>2026-03-29T08:59:13.743Z</time></trkpt><trkpt lat="43.2368614" lon="12.1618401"><ele>565.6</ele><time>2026-03-29T08:59:14.743Z</time></trkpt><trkpt lat="43.2368179" lon="12.1617256"><ele>570.0</ele><time>2026-03-29T08:59:15.743Z</time></trkpt><trkpt lat="43.2367511" lon="12.1616303"><ele>570.0</ele><time>2026-03-29T08:59:16.743Z</time></trkpt><trkpt lat="43.2366855" lon="12.1615648"><ele>570.0</ele><time>2026-03-29T08:59:17.743Z</time></trkpt><trkpt lat="43.2365281" lon="12.1615286"><ele>570.0</ele><time>2026-03-29T08:59:18.743Z</time></trkpt><trkpt lat="43.2364299" lon="12.1614902"><ele>570.0</ele><time>2026-03-29T08:59:19.742Z</time></trkpt><trkpt lat="43.2363548" lon="12.1614431"><ele>570.0</ele><time>2026-03-29T08:59:20.743Z</time></trkpt><trkpt lat="43.2363957" lon="12.161249"><ele>568.75</ele><time>2026-03-29T08:59:22.743Z</time></trkpt><trkpt lat="43.2364117" lon="12.1610978"><ele>567.5</ele><time>2026-03-29T08:59:23.743Z</time></trkpt><trkpt lat="43.2364554" lon="12.1609592"><ele>566.25</ele><time>2026-03-29T08:59:24.743Z</time></trkpt><trkpt lat="43.2364704" lon="12.1607798"><ele>565.0</ele><time>2026-03-29T08:59:25.743Z</time></trkpt><trkpt lat="43.2364576" lon="12.1606052"><ele>570.25</ele><time>2026-03-29T08:59:26.743Z</time></trkpt><trkpt lat="43.2364574" lon="12.1604031"><ele>575.5</ele><time>2026-03-29T08:59:27.743Z</time></trkpt><trkpt lat="43.236434" lon="12.1602057"><ele>580.75</ele><time>2026-03-29T08:59:28.743Z</time></trkpt><trkpt lat="43.2364085" lon="12.1600318"><ele>586.0</ele><time>2026-03-29T08:59:29.743Z</time></trkpt><trkpt lat="43.2363754" lon="12.1599006"><ele>583.0</ele><time>2026-03-29T08:59:30.743Z</time></trkpt><trkpt lat="43.2363221" lon="12.1597864"><ele>580.0</ele><time>2026-03-29T08:59:31.742Z</time></trkpt><trkpt lat="43.2362825" lon="12.159672"><ele>577.0</ele><time>2026-03-29T08:59:33.743Z</time></trkpt><trkpt lat="43.2362583" lon="12.1594738"><ele>574.0</ele><time>2026-03-29T08:59:35.743Z</time></trkpt><trkpt lat="43.2362329" lon="12.1593817"><ele>571.0</ele><time>2026-03-29T08:59:36.743Z</time></trkpt><trkpt lat="43.2362634" lon="12.159284"><ele>571.0</ele><time>2026-03-29T08:59:37.743Z</time></trkpt><trkpt lat="43.2363556" lon="12.1590885"><ele>571.0</ele><time>2026-03-29T08:59:39.743Z</time></trkpt><trkpt lat="43.2364184" lon="12.1589752"><ele>571.0</ele><time>2026-03-29T08:59:40.743Z</time></trkpt><trkpt lat="43.236485" lon="12.158874"><ele>571.0</ele><time>2026-03-29T08:59:41.743Z</time></trkpt><trkpt lat="43.2365373" lon="12.1588124"><ele>571.0</ele><time>2026-03-29T08:59:42.742Z</time></trkpt><trkpt lat="43.2366601" lon="12.1588328"><ele>565.0</ele><time>2026-03-29T08:59:44.743Z</time></trkpt><trkpt lat="43.2367409" lon="12.1588357"><ele>559.0</ele><time>2026-03-29T08:59:45.743Z</time></trkpt><trkpt lat="43.2369071" lon="12.158815"><ele>553.0</ele><time>2026-03-29T08:59:47.743Z</time></trkpt><trkpt lat="43.2369949" lon="12.1588086"><ele>547.0</ele><time>2026-03-29T08:59:48.743Z</time></trkpt><trkpt lat="43.2370645" lon="12.1587727"><ele>541.0</ele><time>2026-03-29T08:59:49.743Z</time></trkpt><trkpt lat="43.2371569" lon="12.1587252"><ele>541.0</ele><time>2026-03-29T08:59:50.743Z</time></trkpt><trkpt lat="43.237235" lon="12.15867"><ele>541.0</ele><time>2026-03-29T08:59:51.743Z</time></trkpt><trkpt lat="43.237287" lon="12.1586119"><ele>541.0</ele><time>2026-03-29T08:59:52.743Z</time></trkpt><trkpt lat="43.2373439" lon="12.1585394"><ele>541.0</ele><time>2026-03-29T08:59:53.743Z</time></trkpt><trkpt lat="43.2373765" lon="12.1584172"><ele>541.0</ele><time>2026-03-29T08:59:54.743Z</time></trkpt><trkpt lat="43.2374483" lon="12.1582562"><ele>536.0</ele><time>2026-03-29T08:59:57.742Z</time></trkpt><trkpt lat="43.2375041" lon="12.1581133"><ele>531.0</ele><time>2026-03-29T08:59:59.743Z</time></trkpt><trkpt lat="43.2375484" lon="12.1579452"><ele>526.0</ele><time>2026-03-29T09:00:01.743Z</time></trkpt><trkpt lat="43.2375461" lon="12.1578234"><ele>521.0</ele><time>2026-03-29T09:00:03.743Z</time></trkpt><trkpt lat="43.237547" lon="12.1576971"><ele>516.0</ele><time>2026-03-29T09:00:05.743Z</time></trkpt><trkpt lat="43.2375461" lon="12.1575274"><ele>516.0</ele><time>2026-03-29T09:00:07.743Z</time></trkpt><trkpt lat="43.2375645" lon="12.1573952"><ele>516.0</ele><time>2026-03-29T09:00:08.743Z</time></trkpt><trkpt lat="43.2375883" lon="12.1572878"><ele>516.0</ele><time>2026-03-29T09:00:09.743Z</time></trkpt><trkpt lat="43.2375856" lon="12.1571839"><ele>516.0</ele><time>2026-03-29T09:00:10.743Z</time></trkpt><trkpt lat="43.2375863" lon="12.157095"><ele>516.0</ele><time>2026-03-29T09:00:11.743Z</time></trkpt><trkpt lat="43.2375598" lon="12.1569649"><ele>516.0</ele><time>2026-03-29T09:00:12.743Z</time></trkpt><trkpt lat="43.2375269" lon="12.1568699"><ele>513.6666666666666</ele><time>2026-03-29T09:00:13.743Z</time></trkpt><trkpt lat="43.2374707" lon="12.1567628"><ele>511.33333333333337</ele><time>2026-03-29T09:00:14.743Z</time></trkpt><trkpt lat="43.2374181" lon="12.1567006"><ele>509.0</ele><time>2026-03-29T09:00:15.743Z</time></trkpt><trkpt lat="43.2373564" lon="12.1566269"><ele>506.6666666666667</ele><time>2026-03-29T09:00:16.743Z</time></trkpt><trkpt lat="43.2373434" lon="12.1564853"><ele>504.33333333333337</ele><time>2026-03-29T09:00:18.743Z</time></trkpt><trkpt lat="43.2373519" lon="12.1563742"><ele>502.0</ele><time>2026-03-29T09:00:19.743Z</time></trkpt><trkpt lat="43.2374058" lon="12.1562985"><ele>497.75</ele><time>2026-03-29T09:00:20.743Z</time></trkpt><trkpt lat="43.2375246" lon="12.1562347"><ele>493.5</ele><time>2026-03-29T09:00:21.742Z</time></trkpt><trkpt lat="43.237615" lon="12.1561455"><ele>489.25</ele><time>2026-03-29T09:00:22.743Z</time></trkpt><trkpt lat="43.2377521" lon="12.155968"><ele>485.0</ele><time>2026-03-29T09:00:24.743Z</time></trkpt><trkpt lat="43.2377829" lon="12.1558896"><ele>485.0</ele><time>2026-03-29T09:00:25.743Z</time></trkpt><trkpt lat="43.2378188" lon="12.1558033"><ele>485.0</ele><time>2026-03-29T09:00:27.743Z</time></trkpt><trkpt lat="43.2376832" lon="12.1557717"><ele>485.0</ele><time>2026-03-29T09:00:31.743Z</time></trkpt><trkpt lat="43.2375636" lon="12.1557111"><ele>485.0</ele><time>2026-03-29T09:00:32.742Z</time></trkpt><trkpt lat="43.2374797" lon="12.155671"><ele>485.0</ele><time>2026-03-29T09:00:33.743Z</time></trkpt><trkpt lat="43.2373674" lon="12.1556434"><ele>483.5</ele><time>2026-03-29T09:00:34.743Z</time></trkpt><trkpt lat="43.2372514" lon="12.1556069"><ele>482.0</ele><time>2026-03-29T09:00:35.743Z</time></trkpt><trkpt lat="43.2371306" lon="12.1555713"><ele>480.5</ele><time>2026-03-29T09:00:36.743Z</time></trkpt><trkpt lat="43.2370053" lon="12.1555353"><ele>479.0</ele><time>2026-03-29T09:00:37.743Z</time></trkpt><trkpt lat="43.2368977" lon="12.1554248"><ele>479.0</ele><time>2026-03-29T09:00:38.743Z</time></trkpt><trkpt lat="43.2367953" lon="12.1553619"><ele>479.0</ele><time>2026-03-29T09:00:39.743Z</time></trkpt><trkpt lat="43.2366887" lon="12.1552891"><ele>479.0</ele><time>2026-03-29T09:00:40.743Z</time></trkpt><trkpt lat="43.2366093" lon="12.155308"><ele>479.0</ele><time>2026-03-29T09:00:41.743Z</time></trkpt><trkpt lat="43.2365983" lon="12.1554419"><ele>479.0</ele><time>2026-03-29T09:00:42.743Z</time></trkpt><trkpt lat="43.2365002" lon="12.1554692"><ele>483.16666666666663</ele><time>2026-03-29T09:00:43.743Z</time></trkpt><trkpt lat="43.2364178" lon="12.1554745"><ele>487.3333333333333</ele><time>2026-03-29T09:00:44.743Z</time></trkpt><trkpt lat="43.236333" lon="12.155409"><ele>491.5</ele><time>2026-03-29T09:00:45.743Z</time></trkpt><trkpt lat="43.2362528" lon="12.1553701"><ele>495.66666666666663</ele><time>2026-03-29T09:00:46.743Z</time></trkpt><trkpt lat="43.2361829" lon="12.155328"><ele>499.8333333333333</ele><time>2026-03-29T09:00:47.743Z</time></trkpt><trkpt lat="43.2361115" lon="12.1553432"><ele>504.0</ele><time>2026-03-29T09:00:48.743Z</time></trkpt><trkpt lat="43.2360566" lon="12.1554263"><ele>504.0</ele><time>2026-03-29T09:00:49.743Z</time></trkpt><trkpt lat="43.2359829" lon="12.1554484"><ele>504.0</ele><time>2026-03-29T09:00:50.742Z</time></trkpt><trkpt lat="43.2358919" lon="12.1553523"><ele>504.0</ele><time>2026-03-29T09:00:52.742Z</time></trkpt><trkpt lat="43.2358537" lon="12.1552242"><ele>504.0</ele><time>2026-03-29T09:00:54.743Z</time></trkpt><trkpt lat="43.2357941" lon="12.1552679"><ele>504.0</ele><time>2026-03-29T09:00:56.743Z</time></trkpt><trkpt lat="43.2357466" lon="12.1553402"><ele>504.0</ele><time>2026-03-29T09:00:57.742Z</time></trkpt><trkpt lat="43.2356694" lon="12.1554217"><ele>513.5</ele><time>2026-03-29T09:00:58.743Z</time></trkpt><trkpt lat="43.2355007" lon="12.1556143"><ele>523.0</ele><time>2026-03-29T09:01:00.743Z</time></trkpt><trkpt lat="43.2354485" lon="12.1557042"><ele>532.5</ele><time>2026-03-29T09:01:01.743Z</time></trkpt><trkpt lat="43.2353424" lon="12.1557501"><ele>542.0</ele><time>2026-03-29T09:01:02.743Z</time></trkpt><trkpt lat="43.2352376" lon="12.1558318"><ele>542.0</ele><time>2026-03-29T09:01:03.743Z</time></trkpt><trkpt lat="43.2351571" lon="12.1558736"><ele>542.0</ele><time>2026-03-29T09:01:04.742Z</time></trkpt><trkpt lat="43.2350835" lon="12.1558828"><ele>542.0</ele><time>2026-03-29T09:01:05.743Z</time></trkpt><trkpt lat="43.2349646" lon="12.1558916"><ele>542.0</ele><time>2026-03-29T09:01:07.743Z</time></trkpt><trkpt lat="43.2349016" lon="12.155815"><ele>542.0</ele><time>2026-03-29T09:01:08.743Z</time></trkpt><trkpt lat="43.2348744" lon="12.1556361"><ele>544.4</ele><time>2026-03-29T09:01:09.743Z</time></trkpt><trkpt lat="43.2349128" lon="12.1555421"><ele>546.8000000000001</ele><time>2026-03-29T09:01:10.743Z</time></trkpt><trkpt lat="43.234934" lon="12.1554162"><ele>549.2</ele><time>2026-03-29T09:01:11.743Z</time></trkpt><trkpt lat="43.2349509" lon="12.1552917"><ele>551.6</ele><time>2026-03-29T09:01:12.743Z</time></trkpt><trkpt lat="43.2349671" lon="12.1551698"><ele>554.0</ele><time>2026-03-29T09:01:13.743Z</time></trkpt><trkpt lat="43.2349986" lon="12.1550141"><ele>554.0</ele><time>2026-03-29T09:01:14.743Z</time></trkpt><trkpt lat="43.234995" lon="12.1548935"><ele>554.0</ele><time>2026-03-29T09:01:15.743Z</time></trkpt><trkpt lat="43.2349879" lon="12.1547833"><ele>554.0</ele><time>2026-03-29T09:01:16.743Z</time></trkpt><trkpt lat="43.2349673" lon="12.1547012"><ele>554.0</ele><time>2026-03-29T09:01:17.743Z</time></trkpt><trkpt lat="43.2348791" lon="12.1545603"><ele>554.0</ele><time>2026-03-29T09:01:19.742Z</time></trkpt><trkpt lat="43.2348335" lon="12.1544433"><ele>561.25</ele><time>2026-03-29T09:01:20.743Z</time></trkpt><trkpt lat="43.2347814" lon="12.1542903"><ele>568.5</ele><time>2026-03-29T09:01:22.743Z</time></trkpt><trkpt lat="43.2346505" lon="12.1542473"><ele>575.75</ele><time>2026-03-29T09:01:24.743Z</time></trkpt><trkpt lat="43.2345573" lon="12.1542538"><ele>583.0</ele><time>2026-03-29T09:01:25.743Z</time></trkpt><trkpt lat="43.2344503" lon="12.1542622"><ele>583.0</ele><time>2026-03-29T09:01:26.743Z</time></trkpt><trkpt lat="43.2343557" lon="12.1542647"><ele>583.0</ele><time>2026-03-29T09:01:27.742Z</time></trkpt><trkpt lat="43.2341806" lon="12.154151"><ele>583.0</ele><time>2026-03-29T09:01:29.743Z</time></trkpt><trkpt lat="43.2340695" lon="12.154055"><ele>583.0</ele><time>2026-03-29T09:01:31.743Z</time></trkpt><trkpt lat="43.2339677" lon="12.1542406"><ele>583.0</ele><time>2026-03-29T09:01:33.743Z</time></trkpt><trkpt lat="43.2339662" lon="12.1543622"><ele>583.0</ele><time>2026-03-29T09:01:34.743Z</time></trkpt><trkpt lat="43.2339494" lon="12.1544838"><ele>583.0</ele><time>2026-03-29T09:01:35.743Z</time></trkpt><trkpt lat="43.2339832" lon="12.1546037"><ele>583.0</ele><time>2026-03-29T09:01:36.743Z</time></trkpt><trkpt lat="43.2340243" lon="12.1547011"><ele>583.0</ele><time>2026-03-29T09:01:37.743Z</time></trkpt><trkpt lat="43.2340582" lon="12.1547886"><ele>583.0</ele><time>2026-03-29T09:01:38.743Z</time></trkpt><trkpt lat="43.2340914" lon="12.1550084"><ele>583.8333333333334</ele><time>2026-03-29T09:01:40.743Z</time></trkpt><trkpt lat="43.2340642" lon="12.1550916"><ele>584.6666666666667</ele><time>2026-03-29T09:01:41.743Z</time></trkpt><trkpt lat="43.2340036" lon="12.1551744"><ele>585.5</ele><time>2026-03-29T09:01:42.742Z</time></trkpt><trkpt lat="43.2339603" lon="12.1552626"><ele>586.3333333333334</ele><time>2026-03-29T09:01:43.743Z</time></trkpt><trkpt lat="43.2338303" lon="12.1552951"><ele>587.1666666666666</ele><time>2026-03-29T09:01:44.743Z</time></trkpt><trkpt lat="43.2337521" lon="12.155333"><ele>588.0</ele><time>2026-03-29T09:01:45.743Z</time></trkpt><trkpt lat="43.2336756" lon="12.1553512"><ele>592.5</ele><time>2026-03-29T09:01:46.743Z</time></trkpt><trkpt lat="43.2336079" lon="12.1553268"><ele>597.0</ele><time>2026-03-29T09:01:47.743Z</time></trkpt><trkpt lat="43.2335328" lon="12.155269"><ele>601.5</ele><time>2026-03-29T09:01:49.742Z</time></trkpt><trkpt lat="43.2334868" lon="12.1552038"><ele>606.0</ele><time>2026-03-29T09:01:50.743Z</time></trkpt><trkpt lat="43.2334389" lon="12.1551291"><ele>610.5</ele><time>2026-03-29T09:01:51.743Z</time></trkpt><trkpt lat="43.2333735" lon="12.1551022"><ele>615.0</ele><time>2026-03-29T09:01:53.743Z</time></trkpt><trkpt lat="43.2332352" lon="12.1551239"><ele>619.2</ele><time>2026-03-29T09:01:55.743Z</time></trkpt><trkpt lat="43.2331303" lon="12.1550831"><ele>623.4</ele><time>2026-03-29T09:01:57.743Z</time></trkpt><trkpt lat="43.2330118" lon="12.1550623"><ele>627.6</ele><time>2026-03-29T09:02:00.743Z</time></trkpt><trkpt lat="43.2329457" lon="12.155052"><ele>631.8</ele><time>2026-03-29T09:02:01.743Z</time></trkpt><trkpt lat="43.2328424" lon="12.1550378"><ele>636.0</ele><time>2026-03-29T09:02:02.743Z</time></trkpt><trkpt lat="43.2327374" lon="12.1550332"><ele>636.0</ele><time>2026-03-29T09:02:03.743Z</time></trkpt><trkpt lat="43.2325172" lon="12.1550033"><ele>636.0</ele><time>2026-03-29T09:02:05.743Z</time></trkpt><trkpt lat="43.2324098" lon="12.1550285"><ele>636.0</ele><time>2026-03-29T09:02:06.743Z</time></trkpt><trkpt lat="43.2323077" lon="12.1550444"><ele>636.0</ele><time>2026-03-29T09:02:07.743Z</time></trkpt><trkpt lat="43.2322456" lon="12.1550604"><ele>639.4</ele><time>2026-03-29T09:02:08.743Z</time></trkpt><trkpt lat="43.2321743" lon="12.155123"><ele>642.8</ele><time>2026-03-29T09:02:09.743Z</time></trkpt><trkpt lat="43.2321183" lon="12.155271"><ele>646.1999999999999</ele><time>2026-03-29T09:02:11.743Z</time></trkpt><trkpt lat="43.2320848" lon="12.1553652"><ele>649.6</ele><time>2026-03-29T09:02:12.743Z</time></trkpt><trkpt lat="43.2321043" lon="12.1554891"><ele>653.0</ele><time>2026-03-29T09:02:13.743Z</time></trkpt><trkpt lat="43.2320566" lon="12.1556239"><ele>650.5999999999999</ele><time>2026-03-29T09:02:14.743Z</time></trkpt><trkpt lat="43.2320439" lon="12.1557463"><ele>648.1999999999999</ele><time>2026-03-29T09:02:15.743Z</time></trkpt><trkpt lat="43.2320167" lon="12.1558268"><ele>645.8</ele><time>2026-03-29T09:02:16.743Z</time></trkpt><trkpt lat="43.2319268" lon="12.1558604"><ele>643.4</ele><time>2026-03-29T09:02:17.743Z</time></trkpt><trkpt lat="43.231751" lon="12.1558518"><ele>641.0</ele><time>2026-03-29T09:02:20.743Z</time></trkpt><trkpt lat="43.2316634" lon="12.1558219"><ele>641.0</ele><time>2026-03-29T09:02:21.743Z</time></trkpt><trkpt lat="43.231549" lon="12.1557817"><ele>641.0</ele><time>2026-03-29T09:02:22.742Z</time></trkpt><trkpt lat="43.2313972" lon="12.1556988"><ele>641.0</ele><time>2026-03-29T09:02:23.743Z</time></trkpt><trkpt lat="43.2312741" lon="12.155639"><ele>641.0</ele><time>2026-03-29T09:02:24.743Z</time></trkpt><trkpt lat="43.2311867" lon="12.1555935"><ele>643.0</ele><time>2026-03-29T09:02:25.743Z</time></trkpt><trkpt lat="43.2310977" lon="12.1555635"><ele>645.0</ele><time>2026-03-29T09:02:26.743Z</time></trkpt><trkpt lat="43.2310392" lon="12.1557984"><ele>647.0</ele><time>2026-03-29T09:02:29.743Z</time></trkpt><trkpt lat="43.2310557" lon="12.1559288"><ele>649.0</ele><time>2026-03-29T09:02:30.743Z</time></trkpt><trkpt lat="43.2310648" lon="12.1560161"><ele>651.0</ele><time>2026-03-29T09:02:31.743Z</time></trkpt><trkpt lat="43.2310975" lon="12.1561104"><ele>651.0</ele><time>2026-03-29T09:02:32.743Z</time></trkpt><trkpt lat="43.2311022" lon="12.1562362"><ele>651.0</ele><time>2026-03-29T09:02:33.743Z</time></trkpt><trkpt lat="43.2311007" lon="12.156369"><ele>651.0</ele><time>2026-03-29T09:02:34.743Z</time></trkpt><trkpt lat="43.2311061" lon="12.1565037"><ele>651.0</ele><time>2026-03-29T09:02:35.743Z</time></trkpt><trkpt lat="43.2311063" lon="12.1566464"><ele>651.0</ele><time>2026-03-29T09:02:36.742Z</time></trkpt><trkpt lat="43.2310725" lon="12.1567838"><ele>650.3333333333334</ele><time>2026-03-29T09:02:37.743Z</time></trkpt><trkpt lat="43.2310403" lon="12.1570234"><ele>649.6666666666667</ele><time>2026-03-29T09:02:39.743Z</time></trkpt><trkpt lat="43.2309791" lon="12.1570954"><ele>649.0</ele><time>2026-03-29T09:02:40.743Z</time></trkpt><trkpt lat="43.2307898" lon="12.157231"><ele>649.0</ele><time>2026-03-29T09:02:42.743Z</time></trkpt><trkpt lat="43.2306702" lon="12.1573314"><ele>649.0</ele><time>2026-03-29T09:02:43.743Z</time></trkpt><trkpt lat="43.2305342" lon="12.1574283"><ele>649.0</ele><time>2026-03-29T09:02:44.743Z</time></trkpt><trkpt lat="43.2303947" lon="12.1575345"><ele>648.0</ele><time>2026-03-29T09:02:45.743Z</time></trkpt><trkpt lat="43.2302725" lon="12.1576379"><ele>647.0</ele><time>2026-03-29T09:02:46.743Z</time></trkpt><trkpt lat="43.2301806" lon="12.1577314"><ele>646.0</ele><time>2026-03-29T09:02:47.743Z</time></trkpt><trkpt lat="43.230064" lon="12.1577179"><ele>645.0</ele><time>2026-03-29T09:02:49.743Z</time></trkpt><trkpt lat="43.2299694" lon="12.1577812"><ele>645.0</ele><time>2026-03-29T09:02:51.743Z</time></trkpt><trkpt lat="43.229961" lon="12.1576491"><ele>645.0</ele><time>2026-03-29T09:03:01.743Z</time></trkpt><trkpt lat="43.2299888" lon="12.1575351"><ele>645.0</ele><time>2026-03-29T09:03:03.743Z</time></trkpt><trkpt lat="43.2300009" lon="12.1574462"><ele>645.0</ele><time>2026-03-29T09:03:04.743Z</time></trkpt><trkpt lat="43.2300046" lon="12.1573478"><ele>645.0</ele><time>2026-03-29T09:03:05.743Z</time></trkpt><trkpt lat="43.2300059" lon="12.1572527"><ele>645.0</ele><time>2026-03-29T09:03:06.742Z</time></trkpt><trkpt lat="43.2299941" lon="12.1571101"><ele>646.8333333333334</ele><time>2026-03-29T09:03:07.743Z</time></trkpt><trkpt lat="43.229983" lon="12.1569992"><ele>648.6666666666666</ele><time>2026-03-29T09:03:08.743Z</time></trkpt><trkpt lat="43.2299942" lon="12.1568967"><ele>650.5</ele><time>2026-03-29T09:03:09.743Z</time></trkpt><trkpt lat="43.2300025" lon="12.1567865"><ele>652.3333333333333</ele><time>2026-03-29T09:03:10.743Z</time></trkpt><trkpt lat="43.2299941" lon="12.1566669"><ele>654.1666666666666</ele><time>2026-03-29T09:03:11.742Z</time></trkpt><trkpt lat="43.2300045" lon="12.1565798"><ele>656.0</ele><time>2026-03-29T09:03:12.743Z</time></trkpt><trkpt lat="43.2300417" lon="12.1564643"><ele>656.0</ele><time>2026-03-29T09:03:13.743Z</time></trkpt><trkpt lat="43.2300954" lon="12.1563328"><ele>656.0</ele><time>2026-03-29T09:03:14.742Z</time></trkpt><trkpt lat="43.2301365" lon="12.1561974"><ele>656.0</ele><time>2026-03-29T09:03:15.743Z</time></trkpt><trkpt lat="43.2301663" lon="12.1560164"><ele>656.0</ele><time>2026-03-29T09:03:16.742Z</time></trkpt><trkpt lat="43.230211" lon="12.1558053"><ele>655.0</ele><time>2026-03-29T09:03:17.742Z</time></trkpt><trkpt lat="43.2302543" lon="12.1556202"><ele>654.0</ele><time>2026-03-29T09:03:18.743Z</time></trkpt><trkpt lat="43.2302895" lon="12.1554375"><ele>653.0</ele><time>2026-03-29T09:03:19.742Z</time></trkpt><trkpt lat="43.2303223" lon="12.1552494"><ele>652.0</ele><time>2026-03-29T09:03:20.743Z</time></trkpt><trkpt lat="43.2303599" lon="12.1550992"><ele>652.0</ele><time>2026-03-29T09:03:21.743Z</time></trkpt><trkpt lat="43.2303891" lon="12.1549714"><ele>652.0</ele><time>2026-03-29T09:03:22.743Z</time></trkpt><trkpt lat="43.2304459" lon="12.1548797"><ele>652.0</ele><time>2026-03-29T09:03:24.742Z</time></trkpt><trkpt lat="43.2305435" lon="12.1548403"><ele>652.0</ele><time>2026-03-29T09:03:26.743Z</time></trkpt><trkpt lat="43.2306332" lon="12.1547939"><ele>652.0</ele><time>2026-03-29T09:03:27.742Z</time></trkpt><trkpt lat="43.2307316" lon="12.1547799"><ele>655.0</ele><time>2026-03-29T09:03:28.743Z</time></trkpt><trkpt lat="43.230854" lon="12.1547881"><ele>658.0</ele><time>2026-03-29T09:03:29.743Z</time></trkpt><trkpt lat="43.230985" lon="12.1548047"><ele>661.0</ele><time>2026-03-29T09:03:30.743Z</time></trkpt><trkpt lat="43.2311136" lon="12.1548343"><ele>664.0</ele><time>2026-03-29T09:03:31.743Z</time></trkpt><trkpt lat="43.2312275" lon="12.1548486"><ele>664.0</ele><time>2026-03-29T09:03:32.743Z</time></trkpt><trkpt lat="43.2313377" lon="12.1548605"><ele>664.0</ele><time>2026-03-29T09:03:33.743Z</time></trkpt><trkpt lat="43.2314287" lon="12.1548435"><ele>664.0</ele><time>2026-03-29T09:03:34.743Z</time></trkpt><trkpt lat="43.2315164" lon="12.1548162"><ele>664.0</ele><time>2026-03-29T09:03:35.743Z</time></trkpt><trkpt lat="43.2315536" lon="12.1547368"><ele>664.0</ele><time>2026-03-29T09:03:36.743Z</time></trkpt><trkpt lat="43.2316064" lon="12.1546816"><ele>664.0</ele><time>2026-03-29T09:03:37.742Z</time></trkpt><trkpt lat="43.2316571" lon="12.1545766"><ele>662.4000000000001</ele><time>2026-03-29T09:03:38.743Z</time></trkpt><trkpt lat="43.2317095" lon="12.1544915"><ele>660.8</ele><time>2026-03-29T09:03:39.743Z</time></trkpt><trkpt lat="43.2317688" lon="12.1543905"><ele>659.2</ele><time>2026-03-29T09:03:41.743Z</time></trkpt><trkpt lat="43.2318417" lon="12.154282"><ele>657.5999999999999</ele><time>2026-03-29T09:03:43.743Z</time></trkpt><trkpt lat="43.2317429" lon="12.1541203"><ele>656.0</ele><time>2026-03-29T09:03:45.743Z</time></trkpt><trkpt lat="43.2317504" lon="12.1539191"><ele>655.1666666666666</ele><time>2026-03-29T09:03:47.743Z</time></trkpt><trkpt lat="43.2317562" lon="12.1537872"><ele>654.3333333333333</ele><time>2026-03-29T09:03:48.743Z</time></trkpt><trkpt lat="43.2317569" lon="12.1536895"><ele>653.5</ele><time>2026-03-29T09:03:49.742Z</time></trkpt><trkpt lat="43.2317791" lon="12.1535978"><ele>652.6666666666666</ele><time>2026-03-29T09:03:50.743Z</time></trkpt><trkpt lat="43.231782" lon="12.153502"><ele>651.8333333333334</ele><time>2026-03-29T09:03:51.743Z</time></trkpt><trkpt lat="43.2317169" lon="12.1533946"><ele>651.0</ele><time>2026-03-29T09:03:52.743Z</time></trkpt><trkpt lat="43.2317054" lon="12.1532709"><ele>651.5999999999999</ele><time>2026-03-29T09:03:53.743Z</time></trkpt><trkpt lat="43.2316045" lon="12.1531417"><ele>652.2</ele><time>2026-03-29T09:03:54.743Z</time></trkpt><trkpt lat="43.231667" lon="12.15299"><ele>652.8</ele><time>2026-03-29T09:03:56.743Z</time></trkpt><trkpt lat="43.2317214" lon="12.1529362"><ele>653.4000000000001</ele><time>2026-03-29T09:03:57.743Z</time></trkpt><trkpt lat="43.2317807" lon="12.1528781"><ele>654.0</ele><time>2026-03-29T09:03:58.742Z</time></trkpt><trkpt lat="43.2317884" lon="12.1527284"><ele>654.0</ele><time>2026-03-29T09:04:00.743Z</time></trkpt><trkpt lat="43.2318965" lon="12.1526591"><ele>654.0</ele><time>2026-03-29T09:04:02.743Z</time></trkpt><trkpt lat="43.231969" lon="12.1526658"><ele>654.0</ele><time>2026-03-29T09:04:03.743Z</time></trkpt><trkpt lat="43.2320583" lon="12.1526614"><ele>654.0</ele><time>2026-03-29T09:04:04.743Z</time></trkpt><trkpt lat="43.2321125" lon="12.1526047"><ele>654.0</ele><time>2026-03-29T09:04:05.743Z</time></trkpt><trkpt lat="43.2321783" lon="12.1524386"><ele>655.6</ele><time>2026-03-29T09:04:06.743Z</time></trkpt><trkpt lat="43.2322944" lon="12.1523394"><ele>657.2</ele><time>2026-03-29T09:04:07.742Z</time></trkpt><trkpt lat="43.2323983" lon="12.1522343"><ele>658.8000000000001</ele><time>2026-03-29T09:04:08.743Z</time></trkpt><trkpt lat="43.2324457" lon="12.1521669"><ele>660.4000000000001</ele><time>2026-03-29T09:04:09.743Z</time></trkpt><trkpt lat="43.2324821" lon="12.1520848"><ele>662.0</ele><time>2026-03-29T09:04:10.743Z</time></trkpt><trkpt lat="43.2325135" lon="12.151988"><ele>658.0</ele><time>2026-03-29T09:04:11.743Z</time></trkpt><trkpt lat="43.2325342" lon="12.1518929"><ele>654.0</ele><time>2026-03-29T09:04:12.743Z</time></trkpt><trkpt lat="43.232533" lon="12.1517487"><ele>650.0</ele><time>2026-03-29T09:04:13.743Z</time></trkpt><trkpt lat="43.2325105" lon="12.1515053"><ele>646.0</ele><time>2026-03-29T09:04:15.743Z</time></trkpt><trkpt lat="43.2324373" lon="12.1514038"><ele>646.0</ele><time>2026-03-29T09:04:16.743Z</time></trkpt><trkpt lat="43.232397" lon="12.1512573"><ele>646.0</ele><time>2026-03-29T09:04:18.743Z</time></trkpt><trkpt lat="43.2324807" lon="12.151169"><ele>646.0</ele><time>2026-03-29T09:04:20.743Z</time></trkpt><trkpt lat="43.2325881" lon="12.1510393"><ele>646.0</ele><time>2026-03-29T09:04:23.743Z</time></trkpt><trkpt lat="43.2326427" lon="12.150949"><ele>646.0</ele><time>2026-03-29T09:04:24.743Z</time></trkpt><trkpt lat="43.2327029" lon="12.1508983"><ele>646.0</ele><time>2026-03-29T09:04:25.743Z</time></trkpt><trkpt lat="43.2328001" lon="12.1508659"><ele>646.0</ele><time>2026-03-29T09:04:26.742Z</time></trkpt><trkpt lat="43.2328575" lon="12.1507997"><ele>646.0</ele><time>2026-03-29T09:04:27.743Z</time></trkpt><trkpt lat="43.2329292" lon="12.1507575"><ele>646.0</ele><time>2026-03-29T09:04:28.743Z</time></trkpt><trkpt lat="43.2329979" lon="12.1507586"><ele>646.0</ele><time>2026-03-29T09:04:29.743Z</time></trkpt><trkpt lat="43.2330616" lon="12.1507273"><ele>646.0</ele><time>2026-03-29T09:04:30.742Z</time></trkpt><trkpt lat="43.2331213" lon="12.1506839"><ele>642.1999999999999</ele><time>2026-03-29T09:04:31.743Z</time></trkpt><trkpt lat="43.2331413" lon="12.1505123"><ele>638.4</ele><time>2026-03-29T09:04:33.743Z</time></trkpt><trkpt lat="43.2332051" lon="12.1504038"><ele>634.6</ele><time>2026-03-29T09:04:34.743Z</time></trkpt><trkpt lat="43.2332666" lon="12.1503049"><ele>630.8</ele><time>2026-03-29T09:04:35.743Z</time></trkpt><trkpt lat="43.2333633" lon="12.1502231"><ele>627.0</ele><time>2026-03-29T09:04:36.743Z</time></trkpt><trkpt lat="43.233527" lon="12.1500544"><ele>627.0</ele><time>2026-03-29T09:04:38.743Z</time></trkpt><trkpt lat="43.2335701" lon="12.1499549"><ele>627.0</ele><time>2026-03-29T09:04:39.743Z</time></trkpt><trkpt lat="43.2336536" lon="12.1498368"><ele>627.0</ele><time>2026-03-29T09:04:40.743Z</time></trkpt><trkpt lat="43.2337165" lon="12.1497474"><ele>627.0</ele><time>2026-03-29T09:04:41.743Z</time></trkpt><trkpt lat="43.2337631" lon="12.1496814"><ele>627.0</ele><time>2026-03-29T09:04:42.743Z</time></trkpt><trkpt lat="43.2338262" lon="12.1496438"><ele>627.0</ele><time>2026-03-29T09:04:43.742Z</time></trkpt><trkpt lat="43.2339221" lon="12.149631"><ele>622.75</ele><time>2026-03-29T09:04:44.742Z</time></trkpt><trkpt lat="43.2341434" lon="12.1495881"><ele>618.5</ele><time>2026-03-29T09:04:46.743Z</time></trkpt><trkpt lat="43.2342454" lon="12.1495613"><ele>614.25</ele><time>2026-03-29T09:04:47.743Z</time></trkpt><trkpt lat="43.2343505" lon="12.1495594"><ele>610.0</ele><time>2026-03-29T09:04:48.743Z</time></trkpt><trkpt lat="43.2344213" lon="12.1495924"><ele>610.0</ele><time>2026-03-29T09:04:49.743Z</time></trkpt><trkpt lat="43.2346275" lon="12.149636"><ele>610.0</ele><time>2026-03-29T09:04:51.743Z</time></trkpt><trkpt lat="43.2347514" lon="12.149674"><ele>610.0</ele><time>2026-03-29T09:04:52.743Z</time></trkpt><trkpt lat="43.234841" lon="12.1496924"><ele>610.0</ele><time>2026-03-29T09:04:53.743Z</time></trkpt><trkpt lat="43.234923" lon="12.1497206"><ele>609.2</ele><time>2026-03-29T09:04:54.742Z</time></trkpt><trkpt lat="43.2349841" lon="12.149778"><ele>608.4</ele><time>2026-03-29T09:04:55.743Z</time></trkpt><trkpt lat="43.2350468" lon="12.1498477"><ele>607.6</ele><time>2026-03-29T09:04:56.743Z</time></trkpt><trkpt lat="43.2351256" lon="12.1499257"><ele>606.8</ele><time>2026-03-29T09:04:57.743Z</time></trkpt><trkpt lat="43.2352259" lon="12.1499877"><ele>606.0</ele><time>2026-03-29T09:04:58.743Z</time></trkpt><trkpt lat="43.2353545" lon="12.1500314"><ele>606.0</ele><time>2026-03-29T09:05:00.743Z</time></trkpt><trkpt lat="43.2354487" lon="12.1501373"><ele>606.0</ele><time>2026-03-29T09:05:02.743Z</time></trkpt><trkpt lat="43.2355022" lon="12.1502297"><ele>606.0</ele><time>2026-03-29T09:05:03.743Z</time></trkpt><trkpt lat="43.2356374" lon="12.1503784"><ele>606.0</ele><time>2026-03-29T09:05:05.743Z</time></trkpt><trkpt lat="43.2357485" lon="12.1504339"><ele>601.2</ele><time>2026-03-29T09:05:06.743Z</time></trkpt><trkpt lat="43.2358947" lon="12.1504738"><ele>596.4000000000001</ele><time>2026-03-29T09:05:08.743Z</time></trkpt><trkpt lat="43.2359956" lon="12.150533"><ele>591.6</ele><time>2026-03-29T09:05:09.742Z</time></trkpt><trkpt lat="43.236086" lon="12.1505542"><ele>586.8000000000001</ele><time>2026-03-29T09:05:10.743Z</time></trkpt><trkpt lat="43.2361672" lon="12.1505133"><ele>582.0</ele><time>2026-03-29T09:05:11.743Z</time></trkpt><trkpt lat="43.2362343" lon="12.1504628"><ele>582.0</ele><time>2026-03-29T09:05:12.743Z</time></trkpt><trkpt lat="43.2363181" lon="12.1504097"><ele>582.0</ele><time>2026-03-29T09:05:13.743Z</time></trkpt><trkpt lat="43.2364837" lon="12.1504384"><ele>582.0</ele><time>2026-03-29T09:05:15.743Z</time></trkpt><trkpt lat="43.2365451" lon="12.1504705"><ele>582.0</ele><time>2026-03-29T09:05:16.743Z</time></trkpt><trkpt lat="43.236617" lon="12.1504935"><ele>582.0</ele><time>2026-03-29T09:05:17.743Z</time></trkpt><trkpt lat="43.2366777" lon="12.1505316"><ele>577.2</ele><time>2026-03-29T09:05:18.743Z</time></trkpt><trkpt lat="43.2367405" lon="12.150543"><ele>572.4000000000001</ele><time>2026-03-29T09:05:19.743Z</time></trkpt><trkpt lat="43.23685" lon="12.1505633"><ele>567.5999999999999</ele><time>2026-03-29T09:05:21.743Z</time></trkpt><trkpt lat="43.2369272" lon="12.1505402"><ele>562.8</ele><time>2026-03-29T09:05:22.742Z</time></trkpt><trkpt lat="43.2370451" lon="12.1504989"><ele>558.0</ele><time>2026-03-29T09:05:24.742Z</time></trkpt><trkpt lat="43.2371351" lon="12.1504451"><ele>558.0</ele><time>2026-03-29T09:05:26.742Z</time></trkpt><trkpt lat="43.2372793" lon="12.150404"><ele>558.0</ele><time>2026-03-29T09:05:29.743Z</time></trkpt><trkpt lat="43.2373764" lon="12.1503909"><ele>558.0</ele><time>2026-03-29T09:05:31.743Z</time></trkpt><trkpt lat="43.2375025" lon="12.1503493"><ele>558.0</ele><time>2026-03-29T09:05:33.743Z</time></trkpt><trkpt lat="43.2375915" lon="12.1503236"><ele>551.75</ele><time>2026-03-29T09:05:34.743Z</time></trkpt><trkpt lat="43.2376671" lon="12.1503341"><ele>545.5</ele><time>2026-03-29T09:05:35.743Z</time></trkpt><trkpt lat="43.2377599" lon="12.1503897"><ele>539.25</ele><time>2026-03-29T09:05:36.743Z</time></trkpt><trkpt lat="43.2378479" lon="12.1504199"><ele>533.0</ele><time>2026-03-29T09:05:37.743Z</time></trkpt><trkpt lat="43.238047" lon="12.1504251"><ele>528.75</ele><time>2026-03-29T09:05:39.743Z</time></trkpt><trkpt lat="43.2381515" lon="12.1504186"><ele>524.5</ele><time>2026-03-29T09:05:40.743Z</time></trkpt><trkpt lat="43.2383494" lon="12.1503682"><ele>520.25</ele><time>2026-03-29T09:05:42.743Z</time></trkpt><trkpt lat="43.2384266" lon="12.1503405"><ele>516.0</ele><time>2026-03-29T09:05:43.743Z</time></trkpt><trkpt lat="43.2386164" lon="12.1503129"><ele>516.0</ele><time>2026-03-29T09:05:45.743Z</time></trkpt><trkpt lat="43.2387194" lon="12.1502941"><ele>516.0</ele><time>2026-03-29T09:05:46.742Z</time></trkpt><trkpt lat="43.2388188" lon="12.1502808"><ele>516.0</ele><time>2026-03-29T09:05:47.743Z</time></trkpt><trkpt lat="43.2388739" lon="12.1502312"><ele>516.0</ele><time>2026-03-29T09:05:48.743Z</time></trkpt><trkpt lat="43.2389305" lon="12.1501659"><ele>516.0</ele><time>2026-03-29T09:05:49.743Z</time></trkpt><trkpt lat="43.2389886" lon="12.1501102"><ele>516.0</ele><time>2026-03-29T09:05:50.743Z</time></trkpt><trkpt lat="43.2390413" lon="12.1500393"><ele>513.8</ele><time>2026-03-29T09:05:51.743Z</time></trkpt><trkpt lat="43.2390983" lon="12.1499782"><ele>511.6</ele><time>2026-03-29T09:05:52.743Z</time></trkpt><trkpt lat="43.2391737" lon="12.149903"><ele>509.4</ele><time>2026-03-29T09:05:54.743Z</time></trkpt><trkpt lat="43.2392435" lon="12.1498409"><ele>507.2</ele><time>2026-03-29T09:05:56.743Z</time></trkpt><trkpt lat="43.2393985" lon="12.1498076"><ele>505.0</ele><time>2026-03-29T09:05:58.743Z</time></trkpt><trkpt lat="43.2394741" lon="12.149781"><ele>503.00000000000006</ele><time>2026-03-29T09:05:59.743Z</time></trkpt><trkpt lat="43.2395235" lon="12.1497243"><ele>501.0</ele><time>2026-03-29T09:06:00.743Z</time></trkpt><trkpt lat="43.2396094" lon="12.1496786"><ele>499.0</ele><time>2026-03-29T09:06:01.743Z</time></trkpt><trkpt lat="43.2396797" lon="12.1496022"><ele>497.0</ele><time>2026-03-29T09:06:02.743Z</time></trkpt><trkpt lat="43.2397638" lon="12.1495296"><ele>495.00000000000006</ele><time>2026-03-29T09:06:03.743Z</time></trkpt><trkpt lat="43.2398041" lon="12.149433"><ele>493.0</ele><time>2026-03-29T09:06:04.743Z</time></trkpt><trkpt lat="43.2398681" lon="12.1493411"><ele>491.83333333333337</ele><time>2026-03-29T09:06:05.743Z</time></trkpt><trkpt lat="43.2399498" lon="12.1492433"><ele>490.6666666666667</ele><time>2026-03-29T09:06:06.743Z</time></trkpt><trkpt lat="43.2399944" lon="12.1491625"><ele>489.5</ele><time>2026-03-29T09:06:07.743Z</time></trkpt><trkpt lat="43.2400503" lon="12.149066"><ele>488.33333333333337</ele><time>2026-03-29T09:06:08.743Z</time></trkpt><trkpt lat="43.2401089" lon="12.1490126"><ele>487.1666666666667</ele><time>2026-03-29T09:06:09.743Z</time></trkpt><trkpt lat="43.2401551" lon="12.1489523"><ele>486.0</ele><time>2026-03-29T09:06:10.743Z</time></trkpt><trkpt lat="43.2401753" lon="12.1488245"><ele>484.4</ele><time>2026-03-29T09:06:12.743Z</time></trkpt><trkpt lat="43.240073" lon="12.1487447"><ele>482.8</ele><time>2026-03-29T09:06:14.743Z</time></trkpt><trkpt lat="43.2400093" lon="12.1487492"><ele>481.19999999999993</ele><time>2026-03-29T09:06:15.743Z</time></trkpt><trkpt lat="43.2399209" lon="12.1487475"><ele>479.59999999999997</ele><time>2026-03-29T09:06:16.743Z</time></trkpt><trkpt lat="43.2398275" lon="12.1487544"><ele>478.0</ele><time>2026-03-29T09:06:17.743Z</time></trkpt><trkpt lat="43.2397218" lon="12.1487523"><ele>478.0</ele><time>2026-03-29T09:06:18.743Z</time></trkpt><trkpt lat="43.2396525" lon="12.1487513"><ele>478.0</ele><time>2026-03-29T09:06:19.743Z</time></trkpt><trkpt lat="43.2395723" lon="12.1487414"><ele>478.0</ele><time>2026-03-29T09:06:21.743Z</time></trkpt><trkpt lat="43.2395487" lon="12.1486591"><ele>478.0</ele><time>2026-03-29T09:06:22.743Z</time></trkpt><trkpt lat="43.2395264" lon="12.1483222"><ele>475.83333333333337</ele><time>2026-03-29T09:06:25.743Z</time></trkpt><trkpt lat="43.2395153" lon="12.1482001"><ele>473.6666666666667</ele><time>2026-03-29T09:06:26.743Z</time></trkpt><trkpt lat="43.2394656" lon="12.1481113"><ele>471.5</ele><time>2026-03-29T09:06:27.743Z</time></trkpt><trkpt lat="43.2394182" lon="12.1479862"><ele>469.33333333333337</ele><time>2026-03-29T09:06:29.743Z</time></trkpt><trkpt lat="43.2394078" lon="12.1478782"><ele>467.1666666666667</ele><time>2026-03-29T09:06:30.743Z</time></trkpt><trkpt lat="43.2394076" lon="12.1477827"><ele>465.0</ele><time>2026-03-29T09:06:31.743Z</time></trkpt><trkpt lat="43.2393815" lon="12.1476951"><ele>465.0</ele><time>2026-03-29T09:06:32.743Z</time></trkpt><trkpt lat="43.2393227" lon="12.1476341"><ele>465.0</ele><time>2026-03-29T09:06:33.743Z</time></trkpt><trkpt lat="43.2391936" lon="12.1475711"><ele>465.0</ele><time>2026-03-29T09:06:35.743Z</time></trkpt><trkpt lat="43.239145" lon="12.1475051"><ele>465.0</ele><time>2026-03-29T09:06:36.743Z</time></trkpt><trkpt lat="43.239094" lon="12.1474198"><ele>465.0</ele><time>2026-03-29T09:06:37.743Z</time></trkpt><trkpt lat="43.2390604" lon="12.1472519"><ele>465.8</ele><time>2026-03-29T09:06:39.743Z</time></trkpt><trkpt lat="43.2390246" lon="12.1471512"><ele>466.6</ele><time>2026-03-29T09:06:40.743Z</time></trkpt><trkpt lat="43.2389963" lon="12.1469211"><ele>467.4</ele><time>2026-03-29T09:06:43.743Z</time></trkpt><trkpt lat="43.2389478" lon="12.1468394"><ele>468.2</ele><time>2026-03-29T09:06:44.743Z</time></trkpt><trkpt lat="43.2389131" lon="12.1467525"><ele>469.0</ele><time>2026-03-29T09:06:45.743Z</time></trkpt><trkpt lat="43.2388682" lon="12.1466566"><ele>469.0</ele><time>2026-03-29T09:06:46.743Z</time></trkpt><trkpt lat="43.2388211" lon="12.1465697"><ele>469.0</ele><time>2026-03-29T09:06:47.743Z</time></trkpt><trkpt lat="43.2387729" lon="12.1463941"><ele>469.0</ele><time>2026-03-29T09:06:49.743Z</time></trkpt><trkpt lat="43.2387489" lon="12.1462897"><ele>469.0</ele><time>2026-03-29T09:06:50.743Z</time></trkpt><trkpt lat="43.2386897" lon="12.1461129"><ele>469.0</ele><time>2026-03-29T09:06:52.743Z</time></trkpt><trkpt lat="43.2386364" lon="12.1460056"><ele>467.33333333333337</ele><time>2026-03-29T09:06:53.743Z</time></trkpt><trkpt lat="43.2385954" lon="12.1459182"><ele>465.6666666666667</ele><time>2026-03-29T09:06:54.743Z</time></trkpt><trkpt lat="43.2385445" lon="12.1458103"><ele>464.0</ele><time>2026-03-29T09:06:56.743Z</time></trkpt><trkpt lat="43.2384729" lon="12.1456931"><ele>462.33333333333337</ele><time>2026-03-29T09:06:58.743Z</time></trkpt><trkpt lat="43.2384313" lon="12.145626"><ele>460.6666666666667</ele><time>2026-03-29T09:06:59.743Z</time></trkpt><trkpt lat="43.2383979" lon="12.1455506"><ele>459.0</ele><time>2026-03-29T09:07:00.743Z</time></trkpt><trkpt lat="43.2383417" lon="12.1454323"><ele>457.5</ele><time>2026-03-29T09:07:01.743Z</time></trkpt><trkpt lat="43.2383136" lon="12.145346"><ele>456.0</ele><time>2026-03-29T09:07:02.743Z</time></trkpt><trkpt lat="43.238288" lon="12.1452512"><ele>454.5</ele><time>2026-03-29T09:07:03.743Z</time></trkpt><trkpt lat="43.2382888" lon="12.1451284"><ele>453.0</ele><time>2026-03-29T09:07:04.743Z</time></trkpt><trkpt lat="43.238306" lon="12.1450443"><ele>451.5</ele><time>2026-03-29T09:07:05.743Z</time></trkpt><trkpt lat="43.2383032" lon="12.1449336"><ele>450.0</ele><time>2026-03-29T09:07:06.743Z</time></trkpt><trkpt lat="43.2383099" lon="12.1448309"><ele>449.8</ele><time>2026-03-29T09:07:07.743Z</time></trkpt><trkpt lat="43.238335" lon="12.144735"><ele>449.6</ele><time>2026-03-29T09:07:08.743Z</time></trkpt><trkpt lat="43.2383809" lon="12.1446318"><ele>449.4</ele><time>2026-03-29T09:07:09.743Z</time></trkpt><trkpt lat="43.238452" lon="12.1444562"><ele>449.2</ele><time>2026-03-29T09:07:11.743Z</time></trkpt><trkpt lat="43.238507" lon="12.1443527"><ele>449.0</ele><time>2026-03-29T09:07:14.743Z</time></trkpt><trkpt lat="43.2385598" lon="12.1442466"><ele>448.99999999999994</ele><time>2026-03-29T09:07:16.743Z</time></trkpt><trkpt lat="43.2386421" lon="12.1441926"><ele>449.0</ele><time>2026-03-29T09:07:18.743Z</time></trkpt><trkpt lat="43.2387413" lon="12.1441003"><ele>449.0</ele><time>2026-03-29T09:07:20.743Z</time></trkpt><trkpt lat="43.2388035" lon="12.1440723"><ele>449.0</ele><time>2026-03-29T09:07:21.743Z</time></trkpt><trkpt lat="43.2388691" lon="12.1440622"><ele>448.99999999999994</ele><time>2026-03-29T09:07:22.743Z</time></trkpt><trkpt lat="43.2389631" lon="12.1440743"><ele>449.0</ele><time>2026-03-29T09:07:23.743Z</time></trkpt><trkpt lat="43.2390275" lon="12.1440534"><ele>445.3333333333333</ele><time>2026-03-29T09:07:24.742Z</time></trkpt><trkpt lat="43.239134" lon="12.1439752"><ele>441.66666666666663</ele><time>2026-03-29T09:07:26.743Z</time></trkpt><trkpt lat="43.2391934" lon="12.1439157"><ele>438.0</ele><time>2026-03-29T09:07:27.743Z</time></trkpt><trkpt lat="43.2392366" lon="12.1438463"><ele>434.33333333333337</ele><time>2026-03-29T09:07:28.743Z</time></trkpt><trkpt lat="43.2392787" lon="12.1437654"><ele>430.6666666666667</ele><time>2026-03-29T09:07:29.743Z</time></trkpt><trkpt lat="43.2393078" lon="12.1436813"><ele>427.0</ele><time>2026-03-29T09:07:30.743Z</time></trkpt><trkpt lat="43.2393718" lon="12.1436486"><ele>427.00000000000006</ele><time>2026-03-29T09:07:31.743Z</time></trkpt><trkpt lat="43.2394475" lon="12.1436438"><ele>427.0</ele><time>2026-03-29T09:07:32.743Z</time></trkpt><trkpt lat="43.2395409" lon="12.1436456"><ele>427.0</ele><time>2026-03-29T09:07:33.743Z</time></trkpt><trkpt lat="43.239624" lon="12.1436901"><ele>427.0</ele><time>2026-03-29T09:07:34.743Z</time></trkpt><trkpt lat="43.2397067" lon="12.143717"><ele>427.00000000000006</ele><time>2026-03-29T09:07:35.743Z</time></trkpt><trkpt lat="43.2397881" lon="12.1437353"><ele>427.0</ele><time>2026-03-29T09:07:36.743Z</time></trkpt><trkpt lat="43.2398763" lon="12.1437186"><ele>421.40000000000003</ele><time>2026-03-29T09:07:37.743Z</time></trkpt><trkpt lat="43.2399737" lon="12.1437008"><ele>415.80000000000007</ele><time>2026-03-29T09:07:38.743Z</time></trkpt><trkpt lat="43.2400753" lon="12.1436813"><ele>410.2</ele><time>2026-03-29T09:07:39.743Z</time></trkpt><trkpt lat="43.2401721" lon="12.1436579"><ele>404.6</ele><time>2026-03-29T09:07:40.743Z</time></trkpt><trkpt lat="43.240255" lon="12.1436603"><ele>399.0</ele><time>2026-03-29T09:07:41.742Z</time></trkpt><trkpt lat="43.2403143" lon="12.1436001"><ele>399.0</ele><time>2026-03-29T09:07:42.742Z</time></trkpt><trkpt lat="43.2403874" lon="12.1435614"><ele>399.0</ele><time>2026-03-29T09:07:43.743Z</time></trkpt><trkpt lat="43.2404395" lon="12.1434364"><ele>399.0</ele><time>2026-03-29T09:07:45.743Z</time></trkpt><trkpt lat="43.2404263" lon="12.1433407"><ele>399.0</ele><time>2026-03-29T09:07:46.743Z</time></trkpt><trkpt lat="43.2404879" lon="12.1431437"><ele>399.0</ele><time>2026-03-29T09:07:49.743Z</time></trkpt><trkpt lat="43.2405361" lon="12.1430732"><ele>397.2</ele><time>2026-03-29T09:07:50.743Z</time></trkpt><trkpt lat="43.2405781" lon="12.1429945"><ele>395.4</ele><time>2026-03-29T09:07:51.743Z</time></trkpt><trkpt lat="43.2404767" lon="12.1428807"><ele>393.6</ele><time>2026-03-29T09:07:53.743Z</time></trkpt><trkpt lat="43.2403622" lon="12.1428155"><ele>391.8</ele><time>2026-03-29T09:07:55.743Z</time></trkpt><trkpt lat="43.2403125" lon="12.1427091"><ele>390.0</ele><time>2026-03-29T09:07:57.743Z</time></trkpt><trkpt lat="43.2403318" lon="12.1425995"><ele>390.0</ele><time>2026-03-29T09:07:58.743Z</time></trkpt><trkpt lat="43.2404532" lon="12.1424453"><ele>390.0</ele><time>2026-03-29T09:08:00.743Z</time></trkpt><trkpt lat="43.2405308" lon="12.14239"><ele>390.0</ele><time>2026-03-29T09:08:01.742Z</time></trkpt><trkpt lat="43.2405982" lon="12.1423341"><ele>390.0</ele><time>2026-03-29T09:08:02.743Z</time></trkpt><trkpt lat="43.2407013" lon="12.1423021"><ele>390.0</ele><time>2026-03-29T09:08:04.743Z</time></trkpt><trkpt lat="43.240739" lon="12.1423825"><ele>385.6</ele><time>2026-03-29T09:16:01.743Z</time></trkpt><trkpt lat="43.2407479" lon="12.1424699"><ele>381.2</ele><time>2026-03-29T09:16:03.743Z</time></trkpt><trkpt lat="43.2407906" lon="12.1425559"><ele>376.79999999999995</ele><time>2026-03-29T09:16:05.743Z</time></trkpt><trkpt lat="43.2409597" lon="12.1425258"><ele>372.4</ele><time>2026-03-29T09:16:06.743Z</time></trkpt><trkpt lat="43.2410328" lon="12.1425297"><ele>368.0</ele><time>2026-03-29T09:16:07.743Z</time></trkpt><trkpt lat="43.2411307" lon="12.1425342"><ele>368.0</ele><time>2026-03-29T09:16:08.743Z</time></trkpt><trkpt lat="43.2412229" lon="12.1425279"><ele>368.0</ele><time>2026-03-29T09:16:09.743Z</time></trkpt><trkpt lat="43.2412968" lon="12.1426154"><ele>368.0</ele><time>2026-03-29T09:16:10.743Z</time></trkpt><trkpt lat="43.2413697" lon="12.1426367"><ele>368.0</ele><time>2026-03-29T09:16:11.743Z</time></trkpt><trkpt lat="43.2414168" lon="12.1427324"><ele>368.0</ele><time>2026-03-29T09:16:12.742Z</time></trkpt><trkpt lat="43.2414825" lon="12.1428081"><ele>368.0</ele><time>2026-03-29T09:16:13.743Z</time></trkpt><trkpt lat="43.241602" lon="12.1428103"><ele>367.0</ele><time>2026-03-29T09:16:15.743Z</time></trkpt><trkpt lat="43.2416707" lon="12.1428332"><ele>366.0</ele><time>2026-03-29T09:16:16.743Z</time></trkpt><trkpt lat="43.2417948" lon="12.1427077"><ele>365.0</ele><time>2026-03-29T09:16:17.743Z</time></trkpt><trkpt lat="43.241877" lon="12.14267"><ele>364.0</ele><time>2026-03-29T09:16:18.743Z</time></trkpt><trkpt lat="43.2419799" lon="12.1426394"><ele>363.0</ele><time>2026-03-29T09:16:19.743Z</time></trkpt><trkpt lat="43.242068" lon="12.1425778"><ele>363.0</ele><time>2026-03-29T09:16:20.743Z</time></trkpt><trkpt lat="43.2422172" lon="12.142444"><ele>363.0</ele><time>2026-03-29T09:16:21.743Z</time></trkpt><trkpt lat="43.2423431" lon="12.1423523"><ele>363.0</ele><time>2026-03-29T09:16:22.742Z</time></trkpt><trkpt lat="43.2424386" lon="12.1422694"><ele>363.0</ele><time>2026-03-29T09:16:23.743Z</time></trkpt><trkpt lat="43.2425652" lon="12.1422045"><ele>361.6666666666667</ele><time>2026-03-29T09:16:24.743Z</time></trkpt><trkpt lat="43.2426844" lon="12.1421718"><ele>360.33333333333337</ele><time>2026-03-29T09:16:25.743Z</time></trkpt><trkpt lat="43.2429064" lon="12.1421965"><ele>359.0</ele><time>2026-03-29T09:16:27.743Z</time></trkpt><trkpt lat="43.2430176" lon="12.1421897"><ele>356.25</ele><time>2026-03-29T09:16:28.743Z</time></trkpt><trkpt lat="43.2431393" lon="12.1422041"><ele>353.5</ele><time>2026-03-29T09:16:29.743Z</time></trkpt><trkpt lat="43.2432624" lon="12.1422048"><ele>350.75</ele><time>2026-03-29T09:16:30.743Z</time></trkpt><trkpt lat="43.243405" lon="12.1422063"><ele>348.0</ele><time>2026-03-29T09:16:31.743Z</time></trkpt><trkpt lat="43.2435424" lon="12.1421934"><ele>348.0</ele><time>2026-03-29T09:16:32.743Z</time></trkpt><trkpt lat="43.2436828" lon="12.1421854"><ele>348.0</ele><time>2026-03-29T09:16:33.743Z</time></trkpt><trkpt lat="43.2438302" lon="12.1421908"><ele>348.0</ele><time>2026-03-29T09:16:34.743Z</time></trkpt><trkpt lat="43.2439666" lon="12.1421829"><ele>348.0</ele><time>2026-03-29T09:16:35.743Z</time></trkpt><trkpt lat="43.2440726" lon="12.1421535"><ele>344.75</ele><time>2026-03-29T09:16:36.743Z</time></trkpt><trkpt lat="43.2441997" lon="12.1421458"><ele>341.5</ele><time>2026-03-29T09:16:37.743Z</time></trkpt><trkpt lat="43.2443034" lon="12.1421695"><ele>338.25</ele><time>2026-03-29T09:16:38.743Z</time></trkpt><trkpt lat="43.2444139" lon="12.1421767"><ele>335.0</ele><time>2026-03-29T09:16:39.743Z</time></trkpt><trkpt lat="43.2445298" lon="12.1422266"><ele>335.0</ele><time>2026-03-29T09:16:40.742Z</time></trkpt><trkpt lat="43.2445951" lon="12.1423138"><ele>335.0</ele><time>2026-03-29T09:16:41.743Z</time></trkpt><trkpt lat="43.2446823" lon="12.1423739"><ele>335.0</ele><time>2026-03-29T09:16:42.743Z</time></trkpt><trkpt lat="43.2447756" lon="12.1424364"><ele>335.0</ele><time>2026-03-29T09:16:43.743Z</time></trkpt><trkpt lat="43.2448572" lon="12.142493"><ele>335.0</ele><time>2026-03-29T09:16:44.743Z</time></trkpt><trkpt lat="43.2449157" lon="12.1425515"><ele>333.0</ele><time>2026-03-29T09:16:45.743Z</time></trkpt><trkpt lat="43.2449894" lon="12.142624"><ele>331.0</ele><time>2026-03-29T09:16:46.743Z</time></trkpt><trkpt lat="43.2450682" lon="12.1426762"><ele>329.0</ele><time>2026-03-29T09:16:47.743Z</time></trkpt><trkpt lat="43.2451545" lon="12.1427194"><ele>327.0</ele><time>2026-03-29T09:16:48.743Z</time></trkpt><trkpt lat="43.2452422" lon="12.1427545"><ele>325.0</ele><time>2026-03-29T09:16:49.743Z</time></trkpt><trkpt lat="43.2453403" lon="12.1427794"><ele>325.0</ele><time>2026-03-29T09:16:50.743Z</time></trkpt><trkpt lat="43.2454402" lon="12.1427963"><ele>325.0</ele><time>2026-03-29T09:16:51.743Z</time></trkpt><trkpt lat="43.2455483" lon="12.142808"><ele>325.0</ele><time>2026-03-29T09:16:52.743Z</time></trkpt><trkpt lat="43.2456466" lon="12.1428227"><ele>325.0</ele><time>2026-03-29T09:16:53.743Z</time></trkpt><trkpt lat="43.2457592" lon="12.1428283"><ele>325.0</ele><time>2026-03-29T09:16:54.743Z</time></trkpt><trkpt lat="43.245847" lon="12.1428617"><ele>323.8</ele><time>2026-03-29T09:16:55.743Z</time></trkpt><trkpt lat="43.2459414" lon="12.1429"><ele>322.6</ele><time>2026-03-29T09:16:56.743Z</time></trkpt><trkpt lat="43.2460416" lon="12.1429424"><ele>321.4</ele><time>2026-03-29T09:16:57.743Z</time></trkpt><trkpt lat="43.246134" lon="12.1429809"><ele>320.2</ele><time>2026-03-29T09:16:58.743Z</time></trkpt><trkpt lat="43.2462265" lon="12.1430433"><ele>319.0</ele><time>2026-03-29T09:16:59.743Z</time></trkpt><trkpt lat="43.2462924" lon="12.1431175"><ele>319.0</ele><time>2026-03-29T09:17:00.743Z</time></trkpt><trkpt lat="43.2463298" lon="12.1432069"><ele>319.0</ele><time>2026-03-29T09:17:01.743Z</time></trkpt><trkpt lat="43.2463459" lon="12.1432971"><ele>319.0</ele><time>2026-03-29T09:17:02.743Z</time></trkpt><trkpt lat="43.2463335" lon="12.143385"><ele>319.0</ele><time>2026-03-29T09:17:03.743Z</time></trkpt><trkpt lat="43.2463076" lon="12.143475"><ele>319.0</ele><time>2026-03-29T09:17:04.743Z</time></trkpt><trkpt lat="43.2462619" lon="12.1435639"><ele>319.0</ele><time>2026-03-29T09:17:05.742Z</time></trkpt><trkpt lat="43.2462189" lon="12.1436514"><ele>319.0</ele><time>2026-03-29T09:17:06.743Z</time></trkpt><trkpt lat="43.2461667" lon="12.1437457"><ele>319.0</ele><time>2026-03-29T09:17:07.743Z</time></trkpt><trkpt lat="43.2460993" lon="12.1439229"><ele>319.0</ele><time>2026-03-29T09:17:09.743Z</time></trkpt><trkpt lat="43.2460902" lon="12.1440104"><ele>319.0</ele><time>2026-03-29T09:17:10.743Z</time></trkpt><trkpt lat="43.2461256" lon="12.1440934"><ele>319.0</ele><time>2026-03-29T09:17:11.743Z</time></trkpt><trkpt lat="43.2461829" lon="12.1441685"><ele>319.0</ele><time>2026-03-29T09:17:12.743Z</time></trkpt><trkpt lat="43.2462434" lon="12.1442444"><ele>319.0</ele><time>2026-03-29T09:17:13.743Z</time></trkpt><trkpt lat="43.2463041" lon="12.1443176"><ele>319.16666666666663</ele><time>2026-03-29T09:17:14.743Z</time></trkpt><trkpt lat="43.2463543" lon="12.1443797"><ele>319.3333333333333</ele><time>2026-03-29T09:17:15.743Z</time></trkpt><trkpt lat="43.2464439" lon="12.1444759"><ele>319.5</ele><time>2026-03-29T09:17:17.743Z</time></trkpt><trkpt lat="43.2465176" lon="12.1445508"><ele>319.6666666666667</ele><time>2026-03-29T09:17:20.743Z</time></trkpt><trkpt lat="43.2465709" lon="12.1445991"><ele>319.83333333333337</ele><time>2026-03-29T09:17:23.743Z</time></trkpt><trkpt lat="43.2466329" lon="12.1446518"><ele>320.0</ele><time>2026-03-29T09:17:27.743Z</time></trkpt><trkpt lat="43.2466959" lon="12.1446693"><ele>318.0</ele><time>2026-03-29T09:17:30.743Z</time></trkpt><trkpt lat="43.2466826" lon="12.1447834"><ele>316.0</ele><time>2026-03-29T09:44:59.743Z</time></trkpt><trkpt lat="43.246722" lon="12.1447027"><ele>314.0</ele><time>2026-03-29T09:47:55.743Z</time></trkpt><trkpt lat="43.2467754" lon="12.1447651"><ele>312.0</ele><time>2026-03-29T09:50:20.742Z</time></trkpt><trkpt lat="43.2468511" lon="12.1448217"><ele>310.0</ele><time>2026-03-29T09:50:23.743Z</time></trkpt><trkpt lat="43.2469309" lon="12.1448769"><ele>308.0</ele><time>2026-03-29T09:50:25.743Z</time></trkpt><trkpt lat="43.24704" lon="12.1449244"><ele>307.5</ele><time>2026-03-29T09:50:27.743Z</time></trkpt><trkpt lat="43.2471148" lon="12.1449223"><ele>307.0</ele><time>2026-03-29T09:50:28.743Z</time></trkpt><trkpt lat="43.2471925" lon="12.1449175"><ele>306.5</ele><time>2026-03-29T09:50:29.743Z</time></trkpt><trkpt lat="43.2472773" lon="12.1449031"><ele>306.0</ele><time>2026-03-29T09:50:30.743Z</time></trkpt><trkpt lat="43.2473419" lon="12.1448663"><ele>305.5</ele><time>2026-03-29T09:50:31.743Z</time></trkpt><trkpt lat="43.2473961" lon="12.1448207"><ele>305.0</ele><time>2026-03-29T09:50:32.743Z</time></trkpt><trkpt lat="43.24744" lon="12.144673"><ele>304.4</ele><time>2026-03-29T09:50:34.743Z</time></trkpt><trkpt lat="43.2474561" lon="12.1444609"><ele>303.8</ele><time>2026-03-29T09:50:36.743Z</time></trkpt><trkpt lat="43.2474579" lon="12.144342"><ele>303.2</ele><time>2026-03-29T09:50:37.743Z</time></trkpt><trkpt lat="43.2474677" lon="12.1442321"><ele>302.6</ele><time>2026-03-29T09:50:38.743Z</time></trkpt><trkpt lat="43.2474735" lon="12.1441188"><ele>302.0</ele><time>2026-03-29T09:50:39.743Z</time></trkpt><trkpt lat="43.2474728" lon="12.1440053"><ele>302.0</ele><time>2026-03-29T09:50:40.743Z</time></trkpt><trkpt lat="43.2474759" lon="12.1438954"><ele>302.0</ele><time>2026-03-29T09:50:41.743Z</time></trkpt><trkpt lat="43.2474669" lon="12.1437063"><ele>302.0</ele><time>2026-03-29T09:50:43.743Z</time></trkpt><trkpt lat="43.2474577" lon="12.1435538"><ele>302.0</ele><time>2026-03-29T09:50:45.743Z</time></trkpt><trkpt lat="43.24746" lon="12.143393"><ele>302.0</ele><time>2026-03-29T09:50:47.743Z</time></trkpt><trkpt lat="43.247448" lon="12.1432877"><ele>302.5</ele><time>2026-03-29T09:50:48.742Z</time></trkpt><trkpt lat="43.2474307" lon="12.1431693"><ele>303.0</ele><time>2026-03-29T09:50:49.743Z</time></trkpt><trkpt lat="43.247404" lon="12.1430485"><ele>303.5</ele><time>2026-03-29T09:50:50.743Z</time></trkpt><trkpt lat="43.2473808" lon="12.1429226"><ele>304.0</ele><time>2026-03-29T09:50:51.743Z</time></trkpt><trkpt lat="43.2473559" lon="12.1428111"><ele>304.5</ele><time>2026-03-29T09:50:52.743Z</time></trkpt><trkpt lat="43.2473306" lon="12.142708"><ele>305.0</ele><time>2026-03-29T09:50:53.743Z</time></trkpt><trkpt lat="43.2472942" lon="12.1425682"><ele>306.33333333333337</ele><time>2026-03-29T09:50:54.743Z</time></trkpt><trkpt lat="43.2472602" lon="12.1424324"><ele>307.6666666666667</ele><time>2026-03-29T09:50:55.742Z</time></trkpt><trkpt lat="43.2472428" lon="12.1422957"><ele>309.0</ele><time>2026-03-29T09:50:56.743Z</time></trkpt><trkpt lat="43.2472402" lon="12.1421826"><ele>310.3333333333333</ele><time>2026-03-29T09:50:57.743Z</time></trkpt><trkpt lat="43.2472383" lon="12.142078"><ele>311.66666666666663</ele><time>2026-03-29T09:50:58.743Z</time></trkpt><trkpt lat="43.2472563" lon="12.1419901"><ele>313.0</ele><time>2026-03-29T09:50:59.743Z</time></trkpt><trkpt lat="43.2472738" lon="12.1418897"><ele>313.0</ele><time>2026-03-29T09:51:00.743Z</time></trkpt><trkpt lat="43.2473052" lon="12.1418002"><ele>313.0</ele><time>2026-03-29T09:51:01.743Z</time></trkpt><trkpt lat="43.2473501" lon="12.1417179"><ele>313.0</ele><time>2026-03-29T09:51:02.743Z</time></trkpt><trkpt lat="43.2474165" lon="12.1416306"><ele>313.0</ele><time>2026-03-29T09:51:03.743Z</time></trkpt><trkpt lat="43.2474953" lon="12.141534"><ele>313.0</ele><time>2026-03-29T09:51:04.743Z</time></trkpt><trkpt lat="43.2475726" lon="12.1414238"><ele>313.0</ele><time>2026-03-29T09:51:05.743Z</time></trkpt><trkpt lat="43.2476672" lon="12.141298"><ele>313.0</ele><time>2026-03-29T09:51:06.743Z</time></trkpt><trkpt lat="43.2477648" lon="12.1411738"><ele>313.0</ele><time>2026-03-29T09:51:07.743Z</time></trkpt><trkpt lat="43.2478527" lon="12.1410434"><ele>313.0</ele><time>2026-03-29T09:51:08.743Z</time></trkpt><trkpt lat="43.2479466" lon="12.1409163"><ele>313.0</ele><time>2026-03-29T09:51:09.743Z</time></trkpt><trkpt lat="43.2480379" lon="12.1408007"><ele>313.0</ele><time>2026-03-29T09:51:10.743Z</time></trkpt><trkpt lat="43.2481195" lon="12.1406832"><ele>313.0</ele><time>2026-03-29T09:51:11.743Z</time></trkpt><trkpt lat="43.248196" lon="12.1405815"><ele>313.0</ele><time>2026-03-29T09:51:12.743Z</time></trkpt><trkpt lat="43.2482755" lon="12.1404779"><ele>311.75</ele><time>2026-03-29T09:51:13.743Z</time></trkpt><trkpt lat="43.248365" lon="12.1403701"><ele>310.5</ele><time>2026-03-29T09:51:14.743Z</time></trkpt><trkpt lat="43.2484616" lon="12.1402577"><ele>309.25</ele><time>2026-03-29T09:51:15.743Z</time></trkpt><trkpt lat="43.2485639" lon="12.1401401"><ele>308.0</ele><time>2026-03-29T09:51:16.743Z</time></trkpt><trkpt lat="43.2486655" lon="12.1400193"><ele>308.0</ele><time>2026-03-29T09:51:17.743Z</time></trkpt><trkpt lat="43.2487617" lon="12.1398911"><ele>308.0</ele><time>2026-03-29T09:51:18.742Z</time></trkpt><trkpt lat="43.2488567" lon="12.1397654"><ele>308.0</ele><time>2026-03-29T09:51:19.743Z</time></trkpt><trkpt lat="43.2489586" lon="12.1396379"><ele>308.0</ele><time>2026-03-29T09:51:20.743Z</time></trkpt><trkpt lat="43.2490447" lon="12.1395036"><ele>307.75</ele><time>2026-03-29T09:51:21.743Z</time></trkpt><trkpt lat="43.2491447" lon="12.1393749"><ele>307.5</ele><time>2026-03-29T09:51:22.742Z</time></trkpt><trkpt lat="43.2492471" lon="12.1392613"><ele>307.25</ele><time>2026-03-29T09:51:23.743Z</time></trkpt><trkpt lat="43.2493415" lon="12.1391407"><ele>307.0</ele><time>2026-03-29T09:51:24.743Z</time></trkpt><trkpt lat="43.2494303" lon="12.1390275"><ele>305.6</ele><time>2026-03-29T09:51:25.743Z</time></trkpt><trkpt lat="43.2494938" lon="12.13895"><ele>304.2</ele><time>2026-03-29T09:51:26.743Z</time></trkpt><trkpt lat="43.2495507" lon="12.1388927"><ele>302.8</ele><time>2026-03-29T09:51:27.743Z</time></trkpt><trkpt lat="43.2496492" lon="12.1388795"><ele>301.4</ele><time>2026-03-29T09:51:28.743Z</time></trkpt><trkpt lat="43.2497401" lon="12.1388814"><ele>300.0</ele><time>2026-03-29T09:51:29.743Z</time></trkpt><trkpt lat="43.2498463" lon="12.1388956"><ele>300.0</ele><time>2026-03-29T09:51:30.743Z</time></trkpt><trkpt lat="43.2499572" lon="12.1389044"><ele>300.0</ele><time>2026-03-29T09:51:31.743Z</time></trkpt><trkpt lat="43.2500785" lon="12.1389243"><ele>300.0</ele><time>2026-03-29T09:51:32.743Z</time></trkpt><trkpt lat="43.2503227" lon="12.1389684"><ele>300.0</ele><time>2026-03-29T09:51:34.743Z</time></trkpt><trkpt lat="43.2504433" lon="12.1389895"><ele>300.0</ele><time>2026-03-29T09:51:35.743Z</time></trkpt><trkpt lat="43.2505686" lon="12.1390108"><ele>300.0</ele><time>2026-03-29T09:51:36.743Z</time></trkpt><trkpt lat="43.2506871" lon="12.1390224"><ele>300.0</ele><time>2026-03-29T09:51:37.743Z</time></trkpt><trkpt lat="43.250825" lon="12.139032"><ele>299.3333333333333</ele><time>2026-03-29T09:51:38.743Z</time></trkpt><trkpt lat="43.2509633" lon="12.139042"><ele>298.66666666666663</ele><time>2026-03-29T09:51:39.743Z</time></trkpt><trkpt lat="43.2511167" lon="12.1390661"><ele>298.0</ele><time>2026-03-29T09:51:40.743Z</time></trkpt><trkpt lat="43.2512849" lon="12.1390936"><ele>298.0</ele><time>2026-03-29T09:51:41.743Z</time></trkpt><trkpt lat="43.2514486" lon="12.1391119"><ele>298.0</ele><time>2026-03-29T09:51:42.742Z</time></trkpt><trkpt lat="43.2516161" lon="12.1391318"><ele>298.0</ele><time>2026-03-29T09:51:43.743Z</time></trkpt><trkpt lat="43.2517857" lon="12.1391544"><ele>298.3333333333333</ele><time>2026-03-29T09:51:44.743Z</time></trkpt><trkpt lat="43.2519456" lon="12.1391709"><ele>298.6666666666667</ele><time>2026-03-29T09:51:45.743Z</time></trkpt><trkpt lat="43.2521164" lon="12.1391911"><ele>299.0</ele><time>2026-03-29T09:51:46.743Z</time></trkpt><trkpt lat="43.2522744" lon="12.1392076"><ele>299.25</ele><time>2026-03-29T09:51:47.743Z</time></trkpt><trkpt lat="43.2524304" lon="12.1392267"><ele>299.5</ele><time>2026-03-29T09:51:48.743Z</time></trkpt><trkpt lat="43.2525696" lon="12.1392429"><ele>299.75</ele><time>2026-03-29T09:51:49.743Z</time></trkpt><trkpt lat="43.2527052" lon="12.1392637"><ele>300.0</ele><time>2026-03-29T09:51:50.743Z</time></trkpt><trkpt lat="43.2528252" lon="12.1392826"><ele>300.0</ele><time>2026-03-29T09:51:51.743Z</time></trkpt><trkpt lat="43.2529432" lon="12.1392938"><ele>300.0</ele><time>2026-03-29T09:51:52.743Z</time></trkpt><trkpt lat="43.2530643" lon="12.1393059"><ele>300.0</ele><time>2026-03-29T09:51:53.743Z</time></trkpt><trkpt lat="43.2531761" lon="12.139314"><ele>300.0</ele><time>2026-03-29T09:51:54.743Z</time></trkpt><trkpt lat="43.2532899" lon="12.1393303"><ele>300.3333333333333</ele><time>2026-03-29T09:51:55.743Z</time></trkpt><trkpt lat="43.2533851" lon="12.1393447"><ele>300.6666666666667</ele><time>2026-03-29T09:51:56.743Z</time></trkpt><trkpt lat="43.2534776" lon="12.1393595"><ele>301.0</ele><time>2026-03-29T09:51:57.743Z</time></trkpt><trkpt lat="43.2535588" lon="12.1393672"><ele>301.33333333333337</ele><time>2026-03-29T09:51:58.743Z</time></trkpt><trkpt lat="43.2536293" lon="12.1393701"><ele>301.6666666666667</ele><time>2026-03-29T09:51:59.743Z</time></trkpt><trkpt lat="43.2536995" lon="12.1393755"><ele>302.0</ele><time>2026-03-29T09:52:00.743Z</time></trkpt><trkpt lat="43.2537694" lon="12.1393589"><ele>302.00000000000006</ele><time>2026-03-29T09:52:03.743Z</time></trkpt><trkpt lat="43.2538401" lon="12.1393205"><ele>302.0</ele><time>2026-03-29T09:55:04.743Z</time></trkpt><trkpt lat="43.2538353" lon="12.1394084"><ele>302.0</ele><time>2026-03-29T09:56:13.742Z</time></trkpt><trkpt lat="43.2538484" lon="12.1395122"><ele>302.0</ele><time>2026-03-29T10:18:31.743Z</time></trkpt><trkpt lat="43.2539041" lon="12.1396082"><ele>302.0</ele><time>2026-03-29T10:18:34.743Z</time></trkpt><trkpt lat="43.2539657" lon="12.1396618"><ele>302.00000000000006</ele><time>2026-03-29T10:18:36.743Z</time></trkpt><trkpt lat="43.2540331" lon="12.13968"><ele>302.0</ele><time>2026-03-29T10:18:38.743Z</time></trkpt><trkpt lat="43.2540985" lon="12.139656"><ele>302.0</ele><time>2026-03-29T10:18:42.743Z</time></trkpt><trkpt lat="43.254169" lon="12.1396307"><ele>302.0</ele><time>2026-03-29T10:23:46.743Z</time></trkpt><trkpt lat="43.2541344" lon="12.1395236"><ele>302.0</ele><time>2026-03-29T10:25:12.743Z</time></trkpt><trkpt lat="43.2541082" lon="12.1394361"><ele>302.0</ele><time>2026-03-29T10:25:16.742Z</time></trkpt><trkpt lat="43.254026" lon="12.1393604"><ele>302.0</ele><time>2026-03-29T10:25:20.743Z</time></trkpt><trkpt lat="43.2539247" lon="12.139362"><ele>302.0</ele><time>2026-03-29T10:25:22.743Z</time></trkpt><trkpt lat="43.2537933" lon="12.1393314"><ele>302.0</ele><time>2026-03-29T10:25:24.743Z</time></trkpt><trkpt lat="43.2537165" lon="12.1393196"><ele>302.0</ele><time>2026-03-29T10:25:25.743Z</time></trkpt><trkpt lat="43.2536408" lon="12.1393098"><ele>302.0</ele><time>2026-03-29T10:25:26.743Z</time></trkpt><trkpt lat="43.2535155" lon="12.1392965"><ele>302.0</ele><time>2026-03-29T10:25:28.743Z</time></trkpt><trkpt lat="43.2534012" lon="12.1392782"><ele>302.0</ele><time>2026-03-29T10:25:30.743Z</time></trkpt><trkpt lat="43.2532772" lon="12.139267"><ele>302.0</ele><time>2026-03-29T10:25:32.743Z</time></trkpt><trkpt lat="43.2531995" lon="12.139259"><ele>302.0</ele><time>2026-03-29T10:25:33.743Z</time></trkpt><trkpt lat="43.2531136" lon="12.1392539"><ele>302.0</ele><time>2026-03-29T10:25:34.743Z</time></trkpt><trkpt lat="43.2530241" lon="12.1392468"><ele>302.0</ele><time>2026-03-29T10:25:35.743Z</time></trkpt><trkpt lat="43.2529346" lon="12.1392351"><ele>302.0</ele><time>2026-03-29T10:25:36.743Z</time></trkpt><trkpt lat="43.2528428" lon="12.1392279"><ele>302.0</ele><time>2026-03-29T10:25:37.743Z</time></trkpt><trkpt lat="43.2527462" lon="12.1392152"><ele>301.6</ele><time>2026-03-29T10:25:38.743Z</time></trkpt><trkpt lat="43.252645" lon="12.1391991"><ele>301.2</ele><time>2026-03-29T10:25:39.743Z</time></trkpt><trkpt lat="43.2525341" lon="12.1391768"><ele>300.8</ele><time>2026-03-29T10:25:40.743Z</time></trkpt><trkpt lat="43.2524211" lon="12.1391651"><ele>300.4</ele><time>2026-03-29T10:25:41.743Z</time></trkpt><trkpt lat="43.252304" lon="12.1391509"><ele>300.0</ele><time>2026-03-29T10:25:42.743Z</time></trkpt><trkpt lat="43.2521839" lon="12.1391385"><ele>299.75</ele><time>2026-03-29T10:25:43.743Z</time></trkpt><trkpt lat="43.2520584" lon="12.1391261"><ele>299.5</ele><time>2026-03-29T10:25:44.742Z</time></trkpt><trkpt lat="43.2519307" lon="12.1391162"><ele>299.25</ele><time>2026-03-29T10:25:45.743Z</time></trkpt><trkpt lat="43.2518046" lon="12.1391072"><ele>299.0</ele><time>2026-03-29T10:25:46.743Z</time></trkpt><trkpt lat="43.2516796" lon="12.1390942"><ele>299.0</ele><time>2026-03-29T10:25:47.743Z</time></trkpt><trkpt lat="43.2515558" lon="12.1390765"><ele>299.0</ele><time>2026-03-29T10:25:48.743Z</time></trkpt><trkpt lat="43.2514264" lon="12.13906"><ele>299.0</ele><time>2026-03-29T10:25:49.742Z</time></trkpt><trkpt lat="43.2512979" lon="12.1390414"><ele>299.0</ele><time>2026-03-29T10:25:50.743Z</time></trkpt><trkpt lat="43.2511712" lon="12.1390243"><ele>298.75</ele><time>2026-03-29T10:25:51.743Z</time></trkpt><trkpt lat="43.2510424" lon="12.1390147"><ele>298.5</ele><time>2026-03-29T10:25:52.743Z</time></trkpt><trkpt lat="43.2509076" lon="12.1390037"><ele>298.25</ele><time>2026-03-29T10:25:53.743Z</time></trkpt><trkpt lat="43.2507755" lon="12.1389875"><ele>298.0</ele><time>2026-03-29T10:25:54.743Z</time></trkpt><trkpt lat="43.2506426" lon="12.1389753"><ele>298.5</ele><time>2026-03-29T10:25:55.743Z</time></trkpt><trkpt lat="43.2505128" lon="12.1389583"><ele>299.0</ele><time>2026-03-29T10:25:56.743Z</time></trkpt><trkpt lat="43.2503855" lon="12.1389401"><ele>299.5</ele><time>2026-03-29T10:25:57.743Z</time></trkpt><trkpt lat="43.2502695" lon="12.1389238"><ele>300.0</ele><time>2026-03-29T10:25:58.743Z</time></trkpt><trkpt lat="43.2501622" lon="12.1389142"><ele>300.0</ele><time>2026-03-29T10:25:59.743Z</time></trkpt><trkpt lat="43.250055" lon="12.1389052"><ele>300.0</ele><time>2026-03-29T10:26:00.743Z</time></trkpt><trkpt lat="43.2499496" lon="12.1388914"><ele>300.0</ele><time>2026-03-29T10:26:01.743Z</time></trkpt><trkpt lat="43.2498508" lon="12.1388701"><ele>300.0</ele><time>2026-03-29T10:26:02.743Z</time></trkpt><trkpt lat="43.2497681" lon="12.1388248"><ele>300.0</ele><time>2026-03-29T10:26:03.743Z</time></trkpt><trkpt lat="43.2497079" lon="12.1387536"><ele>300.8333333333333</ele><time>2026-03-29T10:26:04.743Z</time></trkpt><trkpt lat="43.2496838" lon="12.1386552"><ele>301.6666666666667</ele><time>2026-03-29T10:26:05.743Z</time></trkpt><trkpt lat="43.2496899" lon="12.1385476"><ele>302.5</ele><time>2026-03-29T10:26:06.742Z</time></trkpt><trkpt lat="43.2496975" lon="12.1384394"><ele>303.33333333333337</ele><time>2026-03-29T10:26:07.743Z</time></trkpt><trkpt lat="43.2497316" lon="12.1383059"><ele>304.1666666666667</ele><time>2026-03-29T10:26:08.743Z</time></trkpt><trkpt lat="43.2497603" lon="12.138173"><ele>305.0</ele><time>2026-03-29T10:26:09.743Z</time></trkpt><trkpt lat="43.2498106" lon="12.1380311"><ele>305.0</ele><time>2026-03-29T10:26:10.743Z</time></trkpt><trkpt lat="43.2498572" lon="12.1378881"><ele>305.0</ele><time>2026-03-29T10:26:11.743Z</time></trkpt><trkpt lat="43.2499089" lon="12.1377333"><ele>305.0</ele><time>2026-03-29T10:26:12.743Z</time></trkpt><trkpt lat="43.2499655" lon="12.1375579"><ele>305.0</ele><time>2026-03-29T10:26:13.743Z</time></trkpt><trkpt lat="43.2500225" lon="12.1373705"><ele>306.6666666666667</ele><time>2026-03-29T10:26:14.743Z</time></trkpt><trkpt lat="43.2500967" lon="12.1371793"><ele>308.3333333333333</ele><time>2026-03-29T10:26:15.743Z</time></trkpt><trkpt lat="43.2501911" lon="12.1369959"><ele>310.0</ele><time>2026-03-29T10:26:16.743Z</time></trkpt><trkpt lat="43.2502832" lon="12.1368338"><ele>310.0</ele><time>2026-03-29T10:26:17.743Z</time></trkpt><trkpt lat="43.250383" lon="12.136676"><ele>310.0</ele><time>2026-03-29T10:26:18.743Z</time></trkpt><trkpt lat="43.2504636" lon="12.1365206"><ele>310.0</ele><time>2026-03-29T10:26:19.743Z</time></trkpt><trkpt lat="43.2505483" lon="12.1363444"><ele>310.0</ele><time>2026-03-29T10:26:20.743Z</time></trkpt><trkpt lat="43.2506233" lon="12.1361631"><ele>308.66666666666663</ele><time>2026-03-29T10:26:21.743Z</time></trkpt><trkpt lat="43.2506945" lon="12.1359731"><ele>307.3333333333333</ele><time>2026-03-29T10:26:22.743Z</time></trkpt><trkpt lat="43.250755" lon="12.1357927"><ele>306.0</ele><time>2026-03-29T10:26:23.743Z</time></trkpt><trkpt lat="43.2508215" lon="12.1356045"><ele>308.75</ele><time>2026-03-29T10:26:24.743Z</time></trkpt><trkpt lat="43.2508846" lon="12.1354298"><ele>311.5</ele><time>2026-03-29T10:26:25.743Z</time></trkpt><trkpt lat="43.2509409" lon="12.1352603"><ele>314.25</ele><time>2026-03-29T10:26:26.743Z</time></trkpt><trkpt lat="43.2509998" lon="12.135095"><ele>317.0</ele><time>2026-03-29T10:26:27.743Z</time></trkpt><trkpt lat="43.25105" lon="12.1349204"><ele>320.75</ele><time>2026-03-29T10:26:28.743Z</time></trkpt><trkpt lat="43.2511061" lon="12.1347602"><ele>324.5</ele><time>2026-03-29T10:26:29.743Z</time></trkpt><trkpt lat="43.2511662" lon="12.1346055"><ele>328.25</ele><time>2026-03-29T10:26:30.743Z</time></trkpt><trkpt lat="43.251279" lon="12.1344997"><ele>332.0</ele><time>2026-03-29T10:26:31.743Z</time></trkpt><trkpt lat="43.251388" lon="12.1343884"><ele>330.75</ele><time>2026-03-29T10:26:32.743Z</time></trkpt><trkpt lat="43.2514867" lon="12.1342771"><ele>329.5</ele><time>2026-03-29T10:26:33.743Z</time></trkpt><trkpt lat="43.2515731" lon="12.134144"><ele>328.25</ele><time>2026-03-29T10:26:34.743Z</time></trkpt><trkpt lat="43.2516518" lon="12.1339953"><ele>327.0</ele><time>2026-03-29T10:26:35.743Z</time></trkpt><trkpt lat="43.2517268" lon="12.1338369"><ele>327.0</ele><time>2026-03-29T10:26:36.743Z</time></trkpt><trkpt lat="43.2518017" lon="12.1336737"><ele>327.0</ele><time>2026-03-29T10:26:37.743Z</time></trkpt><trkpt lat="43.2518849" lon="12.1335197"><ele>327.0</ele><time>2026-03-29T10:26:38.743Z</time></trkpt><trkpt lat="43.2519737" lon="12.1333944"><ele>327.0</ele><time>2026-03-29T10:26:39.743Z</time></trkpt><trkpt lat="43.2520641" lon="12.1332677"><ele>328.5</ele><time>2026-03-29T10:26:40.742Z</time></trkpt><trkpt lat="43.2521567" lon="12.1331529"><ele>330.0</ele><time>2026-03-29T10:26:41.743Z</time></trkpt><trkpt lat="43.2522435" lon="12.1330251"><ele>331.5</ele><time>2026-03-29T10:26:42.743Z</time></trkpt><trkpt lat="43.2523128" lon="12.1328861"><ele>333.0</ele><time>2026-03-29T10:26:43.743Z</time></trkpt><trkpt lat="43.252341" lon="12.1327235"><ele>331.0</ele><time>2026-03-29T10:26:44.743Z</time></trkpt><trkpt lat="43.2523328" lon="12.1325646"><ele>329.0</ele><time>2026-03-29T10:26:45.743Z</time></trkpt><trkpt lat="43.2523049" lon="12.1324049"><ele>327.0</ele><time>2026-03-29T10:26:46.743Z</time></trkpt><trkpt lat="43.2522712" lon="12.1322495"><ele>325.0</ele><time>2026-03-29T10:26:47.743Z</time></trkpt><trkpt lat="43.2522476" lon="12.1321117"><ele>325.0</ele><time>2026-03-29T10:26:48.743Z</time></trkpt><trkpt lat="43.2522197" lon="12.1319921"><ele>325.0</ele><time>2026-03-29T10:26:49.743Z</time></trkpt><trkpt lat="43.2521836" lon="12.1318922"><ele>325.0</ele><time>2026-03-29T10:26:50.743Z</time></trkpt><trkpt lat="43.2521002" lon="12.1317962"><ele>325.0</ele><time>2026-03-29T10:26:52.743Z</time></trkpt><trkpt lat="43.2519934" lon="12.131749"><ele>325.0</ele><time>2026-03-29T10:26:54.743Z</time></trkpt><trkpt lat="43.2519106" lon="12.1317566"><ele>325.0</ele><time>2026-03-29T10:26:56.742Z</time></trkpt><trkpt lat="43.2518733" lon="12.1318772"><ele>325.0</ele><time>2026-03-29T10:26:58.743Z</time></trkpt><trkpt lat="43.2518332" lon="12.1319571"><ele>325.0</ele><time>2026-03-29T10:27:00.742Z</time></trkpt><trkpt lat="43.2517371" lon="12.1319047"><ele>325.0</ele><time>2026-03-29T10:27:01.743Z</time></trkpt><trkpt lat="43.251676" lon="12.1319265"><ele>325.0</ele><time>2026-03-29T10:27:02.743Z</time></trkpt><trkpt lat="43.2516113" lon="12.1320734"><ele>325.0</ele><time>2026-03-29T10:27:04.743Z</time></trkpt><trkpt lat="43.2515929" lon="12.1321914"><ele>325.0</ele><time>2026-03-29T10:27:05.743Z</time></trkpt><trkpt lat="43.2515868" lon="12.1323226"><ele>325.0</ele><time>2026-03-29T10:27:06.743Z</time></trkpt><trkpt lat="43.2515891" lon="12.1324498"><ele>325.0</ele><time>2026-03-29T10:27:07.743Z</time></trkpt><trkpt lat="43.2515818" lon="12.1325937"><ele>325.0</ele><time>2026-03-29T10:27:08.743Z</time></trkpt><trkpt lat="43.2515664" lon="12.1327271"><ele>326.3333333333333</ele><time>2026-03-29T10:27:09.743Z</time></trkpt><trkpt lat="43.2515379" lon="12.1328135"><ele>327.66666666666663</ele><time>2026-03-29T10:27:10.743Z</time></trkpt><trkpt lat="43.2514369" lon="12.1328812"><ele>329.0</ele><time>2026-03-29T10:27:12.743Z</time></trkpt><trkpt lat="43.2513701" lon="12.1329198"><ele>330.3333333333333</ele><time>2026-03-29T10:27:13.743Z</time></trkpt><trkpt lat="43.2513068" lon="12.1329584"><ele>331.6666666666667</ele><time>2026-03-29T10:27:14.743Z</time></trkpt><trkpt lat="43.2512104" lon="12.1329666"><ele>333.0</ele><time>2026-03-29T10:27:16.743Z</time></trkpt><trkpt lat="43.2511536" lon="12.1329133"><ele>336.6666666666667</ele><time>2026-03-29T10:27:17.743Z</time></trkpt><trkpt lat="43.2510923" lon="12.1328793"><ele>340.3333333333333</ele><time>2026-03-29T10:27:18.743Z</time></trkpt><trkpt lat="43.2510105" lon="12.132808"><ele>344.0</ele><time>2026-03-29T10:27:20.743Z</time></trkpt><trkpt lat="43.2509491" lon="12.132932"><ele>347.66666666666663</ele><time>2026-03-29T10:27:24.743Z</time></trkpt><trkpt lat="43.2508866" lon="12.1329805"><ele>351.3333333333333</ele><time>2026-03-29T10:27:26.743Z</time></trkpt><trkpt lat="43.2508175" lon="12.1329235"><ele>355.0</ele><time>2026-03-29T10:27:28.743Z</time></trkpt><trkpt lat="43.250724" lon="12.1329149"><ele>355.0</ele><time>2026-03-29T10:27:30.742Z</time></trkpt><trkpt lat="43.2506564" lon="12.1329118"><ele>355.0</ele><time>2026-03-29T10:27:32.743Z</time></trkpt><trkpt lat="43.2505848" lon="12.1328855"><ele>355.0</ele><time>2026-03-29T10:27:34.743Z</time></trkpt><trkpt lat="43.2504591" lon="12.1329017"><ele>355.0</ele><time>2026-03-29T10:27:36.743Z</time></trkpt><trkpt lat="43.250376" lon="12.1329133"><ele>355.0</ele><time>2026-03-29T10:27:37.743Z</time></trkpt><trkpt lat="43.2503024" lon="12.1329246"><ele>355.0</ele><time>2026-03-29T10:27:38.743Z</time></trkpt><trkpt lat="43.2501889" lon="12.1329145"><ele>356.66666666666663</ele><time>2026-03-29T10:27:40.743Z</time></trkpt><trkpt lat="43.2501199" lon="12.1329031"><ele>358.3333333333333</ele><time>2026-03-29T10:27:41.743Z</time></trkpt><trkpt lat="43.2500469" lon="12.1328968"><ele>360.0</ele><time>2026-03-29T10:27:42.743Z</time></trkpt><trkpt lat="43.2499747" lon="12.1329135"><ele>361.6666666666667</ele><time>2026-03-29T10:27:43.743Z</time></trkpt><trkpt lat="43.2498852" lon="12.1329358"><ele>363.33333333333337</ele><time>2026-03-29T10:27:44.742Z</time></trkpt><trkpt lat="43.2497999" lon="12.1329413"><ele>365.0</ele><time>2026-03-29T10:27:45.743Z</time></trkpt><trkpt lat="43.2497212" lon="12.1329148"><ele>366.14285714285717</ele><time>2026-03-29T10:27:46.743Z</time></trkpt><trkpt lat="43.2496547" lon="12.1329115"><ele>367.2857142857143</ele><time>2026-03-29T10:27:47.743Z</time></trkpt><trkpt lat="43.2495863" lon="12.1329251"><ele>368.42857142857144</ele><time>2026-03-29T10:27:48.743Z</time></trkpt><trkpt lat="43.2495169" lon="12.1329711"><ele>369.57142857142856</ele><time>2026-03-29T10:27:49.743Z</time></trkpt><trkpt lat="43.2494553" lon="12.133011"><ele>370.7142857142857</ele><time>2026-03-29T10:27:50.743Z</time></trkpt><trkpt lat="43.2493857" lon="12.1330615"><ele>371.8571428571429</ele><time>2026-03-29T10:27:51.742Z</time></trkpt><trkpt lat="43.2493136" lon="12.1331021"><ele>373.0</ele><time>2026-03-29T10:27:52.743Z</time></trkpt><trkpt lat="43.2492394" lon="12.1331307"><ele>373.0</ele><time>2026-03-29T10:27:53.743Z</time></trkpt><trkpt lat="43.2491793" lon="12.1331687"><ele>373.0</ele><time>2026-03-29T10:27:54.743Z</time></trkpt><trkpt lat="43.2491115" lon="12.1332049"><ele>373.0</ele><time>2026-03-29T10:27:55.743Z</time></trkpt><trkpt lat="43.2490339" lon="12.1332047"><ele>373.0</ele><time>2026-03-29T10:27:56.743Z</time></trkpt><trkpt lat="43.2489599" lon="12.1332239"><ele>373.0</ele><time>2026-03-29T10:27:57.743Z</time></trkpt><trkpt lat="43.2488459" lon="12.1332554"><ele>373.0</ele><time>2026-03-29T10:27:59.743Z</time></trkpt><trkpt lat="43.2487819" lon="12.1332955"><ele>377.2</ele><time>2026-03-29T10:28:00.743Z</time></trkpt><trkpt lat="43.2486702" lon="12.1333138"><ele>381.4</ele><time>2026-03-29T10:28:02.743Z</time></trkpt><trkpt lat="43.2485592" lon="12.1333212"><ele>385.59999999999997</ele><time>2026-03-29T10:28:04.743Z</time></trkpt><trkpt lat="43.2484789" lon="12.1333486"><ele>389.79999999999995</ele><time>2026-03-29T10:28:05.743Z</time></trkpt><trkpt lat="43.2483726" lon="12.133347"><ele>394.0</ele><time>2026-03-29T10:28:07.743Z</time></trkpt><trkpt lat="43.2483014" lon="12.1333289"><ele>394.0</ele><time>2026-03-29T10:28:08.743Z</time></trkpt><trkpt lat="43.248187" lon="12.1333266"><ele>394.0</ele><time>2026-03-29T10:28:10.743Z</time></trkpt><trkpt lat="43.2480689" lon="12.1333057"><ele>394.0</ele><time>2026-03-29T10:28:12.743Z</time></trkpt><trkpt lat="43.2479919" lon="12.1332677"><ele>394.0</ele><time>2026-03-29T10:28:13.743Z</time></trkpt><trkpt lat="43.2479184" lon="12.1332394"><ele>394.0</ele><time>2026-03-29T10:28:14.743Z</time></trkpt><trkpt lat="43.2478431" lon="12.1332048"><ele>394.4</ele><time>2026-03-29T10:28:15.743Z</time></trkpt><trkpt lat="43.2477502" lon="12.1331565"><ele>394.79999999999995</ele><time>2026-03-29T10:28:16.742Z</time></trkpt><trkpt lat="43.2476735" lon="12.133112"><ele>395.20000000000005</ele><time>2026-03-29T10:28:17.742Z</time></trkpt><trkpt lat="43.2475882" lon="12.1330583"><ele>395.6</ele><time>2026-03-29T10:28:18.743Z</time></trkpt><trkpt lat="43.247511" lon="12.1329884"><ele>396.0</ele><time>2026-03-29T10:28:19.743Z</time></trkpt><trkpt lat="43.2474348" lon="12.1329172"><ele>396.0</ele><time>2026-03-29T10:28:20.743Z</time></trkpt><trkpt lat="43.2473682" lon="12.1328476"><ele>396.0</ele><time>2026-03-29T10:28:21.743Z</time></trkpt><trkpt lat="43.2473234" lon="12.1327759"><ele>396.0</ele><time>2026-03-29T10:28:22.743Z</time></trkpt><trkpt lat="43.2472093" lon="12.1326994"><ele>396.0</ele><time>2026-03-29T10:28:24.743Z</time></trkpt><trkpt lat="43.247103" lon="12.1326744"><ele>396.0</ele><time>2026-03-29T10:28:26.743Z</time></trkpt><trkpt lat="43.2470328" lon="12.1327742"><ele>398.8</ele><time>2026-03-29T10:28:28.743Z</time></trkpt><trkpt lat="43.2469369" lon="12.1328672"><ele>401.6</ele><time>2026-03-29T10:28:30.743Z</time></trkpt><trkpt lat="43.2468202" lon="12.1329141"><ele>404.4</ele><time>2026-03-29T10:28:32.743Z</time></trkpt><trkpt lat="43.2467252" lon="12.1329585"><ele>407.2</ele><time>2026-03-29T10:28:34.743Z</time></trkpt><trkpt lat="43.246703" lon="12.1330572"><ele>410.0</ele><time>2026-03-29T10:28:36.742Z</time></trkpt><trkpt lat="43.2467056" lon="12.1331572"><ele>413.4</ele><time>2026-03-29T10:28:38.743Z</time></trkpt><trkpt lat="43.2467146" lon="12.1332759"><ele>416.8</ele><time>2026-03-29T10:28:40.743Z</time></trkpt><trkpt lat="43.2467219" lon="12.133376"><ele>420.20000000000005</ele><time>2026-03-29T10:28:42.743Z</time></trkpt><trkpt lat="43.2467126" lon="12.1335412"><ele>423.6</ele><time>2026-03-29T10:28:44.743Z</time></trkpt><trkpt lat="43.246698" lon="12.1336366"><ele>427.0</ele><time>2026-03-29T10:28:45.743Z</time></trkpt><trkpt lat="43.2467078" lon="12.133776"><ele>427.0</ele><time>2026-03-29T10:28:47.743Z</time></trkpt><trkpt lat="43.2466558" lon="12.1339108"><ele>427.00000000000006</ele><time>2026-03-29T10:28:50.743Z</time></trkpt><trkpt lat="43.2466199" lon="12.1339875"><ele>427.00000000000006</ele><time>2026-03-29T10:28:51.743Z</time></trkpt><trkpt lat="43.2465535" lon="12.1341395"><ele>427.0</ele><time>2026-03-29T10:28:53.743Z</time></trkpt><trkpt lat="43.2464864" lon="12.1342518"><ele>427.0</ele><time>2026-03-29T10:28:55.742Z</time></trkpt><trkpt lat="43.2464897" lon="12.1343952"><ele>429.40000000000003</ele><time>2026-03-29T10:28:58.743Z</time></trkpt><trkpt lat="43.246486" lon="12.1345031"><ele>431.80000000000007</ele><time>2026-03-29T10:29:00.743Z</time></trkpt><trkpt lat="43.2464091" lon="12.1345937"><ele>434.2</ele><time>2026-03-29T10:29:02.743Z</time></trkpt><trkpt lat="43.2463548" lon="12.1346587"><ele>436.6</ele><time>2026-03-29T10:29:05.743Z</time></trkpt><trkpt lat="43.2462694" lon="12.1346076"><ele>439.0</ele><time>2026-03-29T10:29:07.743Z</time></trkpt><trkpt lat="43.2461622" lon="12.1345705"><ele>443.4</ele><time>2026-03-29T10:29:09.742Z</time></trkpt><trkpt lat="43.2460149" lon="12.1345691"><ele>447.79999999999995</ele><time>2026-03-29T10:29:11.743Z</time></trkpt><trkpt lat="43.2459297" lon="12.1345744"><ele>452.20000000000005</ele><time>2026-03-29T10:29:12.743Z</time></trkpt><trkpt lat="43.2458445" lon="12.1345638"><ele>456.6</ele><time>2026-03-29T10:29:13.742Z</time></trkpt><trkpt lat="43.2457617" lon="12.1345399"><ele>461.0</ele><time>2026-03-29T10:29:14.743Z</time></trkpt><trkpt lat="43.2456759" lon="12.1345219"><ele>464.66666666666663</ele><time>2026-03-29T10:29:15.743Z</time></trkpt><trkpt lat="43.2455915" lon="12.1344929"><ele>468.3333333333333</ele><time>2026-03-29T10:29:16.743Z</time></trkpt><trkpt lat="43.2455136" lon="12.1344691"><ele>472.0</ele><time>2026-03-29T10:29:17.743Z</time></trkpt><trkpt lat="43.2454422" lon="12.1344894"><ele>475.66666666666663</ele><time>2026-03-29T10:29:18.743Z</time></trkpt><trkpt lat="43.2453729" lon="12.1345204"><ele>479.3333333333333</ele><time>2026-03-29T10:29:19.743Z</time></trkpt><trkpt lat="43.2452937" lon="12.1345414"><ele>483.0</ele><time>2026-03-29T10:29:20.743Z</time></trkpt><trkpt lat="43.2452064" lon="12.1345541"><ele>483.0</ele><time>2026-03-29T10:29:21.743Z</time></trkpt><trkpt lat="43.2451001" lon="12.1345884"><ele>482.99999999999994</ele><time>2026-03-29T10:29:22.743Z</time></trkpt><trkpt lat="43.2449935" lon="12.1346169"><ele>482.99999999999994</ele><time>2026-03-29T10:29:23.743Z</time></trkpt><trkpt lat="43.2448917" lon="12.1346241"><ele>483.0</ele><time>2026-03-29T10:29:24.743Z</time></trkpt><trkpt lat="43.2448108" lon="12.1346415"><ele>483.0</ele><time>2026-03-29T10:29:25.743Z</time></trkpt><trkpt lat="43.2447249" lon="12.134668"><ele>486.8333333333333</ele><time>2026-03-29T10:29:26.743Z</time></trkpt><trkpt lat="43.2446275" lon="12.1346517"><ele>490.66666666666663</ele><time>2026-03-29T10:29:28.743Z</time></trkpt><trkpt lat="43.2445636" lon="12.1346734"><ele>494.5</ele><time>2026-03-29T10:29:35.746Z</time></trkpt><trkpt lat="43.2444996" lon="12.1346719"><ele>498.3333333333333</ele><time>2026-03-29T10:29:36.743Z</time></trkpt><trkpt lat="43.2444176" lon="12.1346624"><ele>502.16666666666663</ele><time>2026-03-29T10:29:37.743Z</time></trkpt><trkpt lat="43.2443133" lon="12.1346538"><ele>506.0</ele><time>2026-03-29T10:29:38.743Z</time></trkpt><trkpt lat="43.2441951" lon="12.1346545"><ele>506.0</ele><time>2026-03-29T10:29:39.743Z</time></trkpt><trkpt lat="43.2440611" lon="12.1346668"><ele>506.0</ele><time>2026-03-29T10:29:40.743Z</time></trkpt><trkpt lat="43.2439163" lon="12.1346794"><ele>506.0</ele><time>2026-03-29T10:29:41.743Z</time></trkpt><trkpt lat="43.2437757" lon="12.1346804"><ele>506.0</ele><time>2026-03-29T10:29:42.743Z</time></trkpt><trkpt lat="43.2436512" lon="12.1346667"><ele>510.99999999999994</ele><time>2026-03-29T10:29:43.743Z</time></trkpt><trkpt lat="43.2435391" lon="12.1346583"><ele>516.0</ele><time>2026-03-29T10:29:44.743Z</time></trkpt><trkpt lat="43.2434305" lon="12.1346565"><ele>521.0</ele><time>2026-03-29T10:29:45.743Z</time></trkpt><trkpt lat="43.2433503" lon="12.1346373"><ele>526.0</ele><time>2026-03-29T10:29:46.743Z</time></trkpt><trkpt lat="43.2432732" lon="12.1346109"><ele>531.0</ele><time>2026-03-29T10:29:47.743Z</time></trkpt><trkpt lat="43.2432094" lon="12.1345819"><ele>536.0</ele><time>2026-03-29T10:29:48.743Z</time></trkpt><trkpt lat="43.2431385" lon="12.1345277"><ele>539.8333333333333</ele><time>2026-03-29T10:29:50.743Z</time></trkpt><trkpt lat="43.2430697" lon="12.1344717"><ele>543.6666666666666</ele><time>2026-03-29T10:29:52.743Z</time></trkpt><trkpt lat="43.242987" lon="12.134418"><ele>547.5</ele><time>2026-03-29T10:29:54.743Z</time></trkpt><trkpt lat="43.2429205" lon="12.1343728"><ele>551.3333333333334</ele><time>2026-03-29T10:29:56.743Z</time></trkpt><trkpt lat="43.2428414" lon="12.1343175"><ele>555.1666666666667</ele><time>2026-03-29T10:29:58.743Z</time></trkpt><trkpt lat="43.2427749" lon="12.1342951"><ele>559.0</ele><time>2026-03-29T10:29:59.743Z</time></trkpt><trkpt lat="43.2427011" lon="12.1342758"><ele>559.0</ele><time>2026-03-29T10:30:00.743Z</time></trkpt><trkpt lat="43.2426194" lon="12.1342427"><ele>559.0</ele><time>2026-03-29T10:30:01.743Z</time></trkpt><trkpt lat="43.2425342" lon="12.1341938"><ele>559.0</ele><time>2026-03-29T10:30:02.743Z</time></trkpt><trkpt lat="43.2424677" lon="12.134137"><ele>559.0</ele><time>2026-03-29T10:30:03.743Z</time></trkpt><trkpt lat="43.2423963" lon="12.1341041"><ele>559.0</ele><time>2026-03-29T10:30:04.743Z</time></trkpt><trkpt lat="43.2423206" lon="12.1340834"><ele>559.0</ele><time>2026-03-29T10:30:05.743Z</time></trkpt><trkpt lat="43.2422472" lon="12.1340665"><ele>561.6666666666667</ele><time>2026-03-29T10:30:06.743Z</time></trkpt><trkpt lat="43.2421735" lon="12.134036"><ele>564.3333333333334</ele><time>2026-03-29T10:30:07.742Z</time></trkpt><trkpt lat="43.2420941" lon="12.1339988"><ele>567.0</ele><time>2026-03-29T10:30:08.743Z</time></trkpt><trkpt lat="43.2420146" lon="12.1339604"><ele>569.6666666666666</ele><time>2026-03-29T10:30:09.742Z</time></trkpt><trkpt lat="43.2419425" lon="12.1339168"><ele>572.3333333333333</ele><time>2026-03-29T10:30:10.743Z</time></trkpt><trkpt lat="43.2418787" lon="12.1338727"><ele>575.0</ele><time>2026-03-29T10:30:11.743Z</time></trkpt><trkpt lat="43.2418105" lon="12.1338503"><ele>575.0</ele><time>2026-03-29T10:30:12.742Z</time></trkpt><trkpt lat="43.2417381" lon="12.1338252"><ele>575.0</ele><time>2026-03-29T10:30:13.743Z</time></trkpt><trkpt lat="43.2416641" lon="12.1337993"><ele>575.0</ele><time>2026-03-29T10:30:14.743Z</time></trkpt><trkpt lat="43.2415936" lon="12.1337684"><ele>575.0</ele><time>2026-03-29T10:30:15.743Z</time></trkpt><trkpt lat="43.241527" lon="12.1337342"><ele>575.0</ele><time>2026-03-29T10:30:16.743Z</time></trkpt><trkpt lat="43.2414577" lon="12.1337016"><ele>575.0</ele><time>2026-03-29T10:30:17.743Z</time></trkpt><trkpt lat="43.2413798" lon="12.1336736"><ele>578.8571428571429</ele><time>2026-03-29T10:30:18.743Z</time></trkpt><trkpt lat="43.2412989" lon="12.1336478"><ele>582.7142857142857</ele><time>2026-03-29T10:30:19.743Z</time></trkpt><trkpt lat="43.2412235" lon="12.1336386"><ele>586.5714285714286</ele><time>2026-03-29T10:30:20.743Z</time></trkpt><trkpt lat="43.2411528" lon="12.133647"><ele>590.4285714285714</ele><time>2026-03-29T10:30:21.743Z</time></trkpt><trkpt lat="43.2410817" lon="12.1336551"><ele>594.2857142857142</ele><time>2026-03-29T10:30:22.743Z</time></trkpt><trkpt lat="43.2410091" lon="12.1336704"><ele>598.1428571428571</ele><time>2026-03-29T10:30:23.743Z</time></trkpt><trkpt lat="43.240944" lon="12.1336845"><ele>602.0</ele><time>2026-03-29T10:30:24.743Z</time></trkpt><trkpt lat="43.2408658" lon="12.1336706"><ele>602.0</ele><time>2026-03-29T10:30:26.743Z</time></trkpt><trkpt lat="43.2407803" lon="12.1336248"><ele>602.0</ele><time>2026-03-29T10:30:28.743Z</time></trkpt><trkpt lat="43.2406479" lon="12.1335908"><ele>602.0</ele><time>2026-03-29T10:30:30.743Z</time></trkpt><trkpt lat="43.2405814" lon="12.1335691"><ele>602.0</ele><time>2026-03-29T10:30:31.742Z</time></trkpt><trkpt lat="43.2405212" lon="12.1335371"><ele>602.0</ele><time>2026-03-29T10:30:32.743Z</time></trkpt><trkpt lat="43.2404069" lon="12.1334825"><ele>606.3333333333333</ele><time>2026-03-29T10:30:34.743Z</time></trkpt><trkpt lat="43.2403375" lon="12.1334613"><ele>610.6666666666666</ele><time>2026-03-29T10:30:35.743Z</time></trkpt><trkpt lat="43.2402482" lon="12.1334407"><ele>615.0</ele><time>2026-03-29T10:30:36.743Z</time></trkpt><trkpt lat="43.2401523" lon="12.1334199"><ele>619.3333333333334</ele><time>2026-03-29T10:30:37.743Z</time></trkpt><trkpt lat="43.2400841" lon="12.133406"><ele>623.6666666666667</ele><time>2026-03-29T10:30:38.743Z</time></trkpt><trkpt lat="43.2399826" lon="12.1333436"><ele>628.0</ele><time>2026-03-29T10:30:40.743Z</time></trkpt><trkpt lat="43.2398884" lon="12.1332648"><ele>633.75</ele><time>2026-03-29T10:30:42.743Z</time></trkpt><trkpt lat="43.2397728" lon="12.133193"><ele>639.5</ele><time>2026-03-29T10:30:44.743Z</time></trkpt><trkpt lat="43.2396713" lon="12.1331325"><ele>645.25</ele><time>2026-03-29T10:30:46.743Z</time></trkpt><trkpt lat="43.2395762" lon="12.1330529"><ele>651.0</ele><time>2026-03-29T10:30:48.743Z</time></trkpt><trkpt lat="43.2394752" lon="12.1330021"><ele>651.0</ele><time>2026-03-29T10:30:50.743Z</time></trkpt><trkpt lat="43.23936" lon="12.1330357"><ele>651.0</ele><time>2026-03-29T10:30:52.743Z</time></trkpt><trkpt lat="43.2392847" lon="12.1330754"><ele>651.0</ele><time>2026-03-29T10:30:53.743Z</time></trkpt><trkpt lat="43.2392068" lon="12.1330894"><ele>651.0</ele><time>2026-03-29T10:30:54.743Z</time></trkpt><trkpt lat="43.2391049" lon="12.1330849"><ele>651.0</ele><time>2026-03-29T10:30:55.743Z</time></trkpt><trkpt lat="43.2390033" lon="12.1330722"><ele>652.0</ele><time>2026-03-29T10:30:56.743Z</time></trkpt><trkpt lat="43.2389217" lon="12.1330641"><ele>653.0</ele><time>2026-03-29T10:30:57.743Z</time></trkpt><trkpt lat="43.2388537" lon="12.1329152"><ele>654.0</ele><time>2026-03-29T10:30:59.743Z</time></trkpt><trkpt lat="43.2388777" lon="12.1327965"><ele>655.0</ele><time>2026-03-29T10:31:00.743Z</time></trkpt><trkpt lat="43.2388612" lon="12.1326576"><ele>656.0</ele><time>2026-03-29T10:31:02.743Z</time></trkpt><trkpt lat="43.2387996" lon="12.1325961"><ele>656.0</ele><time>2026-03-29T10:34:54.743Z</time></trkpt><trkpt lat="43.2387467" lon="12.1325458"><ele>656.0</ele><time>2026-03-29T10:34:55.743Z</time></trkpt><trkpt lat="43.2386792" lon="12.1324969"><ele>656.0</ele><time>2026-03-29T10:34:56.743Z</time></trkpt><trkpt lat="43.2385842" lon="12.1324391"><ele>656.0</ele><time>2026-03-29T10:34:57.743Z</time></trkpt><trkpt lat="43.238464" lon="12.1323683"><ele>656.0</ele><time>2026-03-29T10:34:58.743Z</time></trkpt><trkpt lat="43.2383345" lon="12.132298"><ele>660.75</ele><time>2026-03-29T10:34:59.743Z</time></trkpt><trkpt lat="43.2381999" lon="12.1322706"><ele>665.5</ele><time>2026-03-29T10:35:00.743Z</time></trkpt><trkpt lat="43.2380636" lon="12.1322564"><ele>670.25</ele><time>2026-03-29T10:35:01.743Z</time></trkpt><trkpt lat="43.2379135" lon="12.1322596"><ele>675.0</ele><time>2026-03-29T10:35:02.743Z</time></trkpt><trkpt lat="43.2377699" lon="12.1322594"><ele>676.0</ele><time>2026-03-29T10:35:03.743Z</time></trkpt><trkpt lat="43.237645" lon="12.1322541"><ele>677.0</ele><time>2026-03-29T10:35:04.743Z</time></trkpt><trkpt lat="43.2375219" lon="12.1322571"><ele>678.0</ele><time>2026-03-29T10:35:05.743Z</time></trkpt><trkpt lat="43.2373995" lon="12.1322701"><ele>679.0</ele><time>2026-03-29T10:35:06.743Z</time></trkpt><trkpt lat="43.2372738" lon="12.1323131"><ele>673.75</ele><time>2026-03-29T10:35:07.743Z</time></trkpt><trkpt lat="43.2371415" lon="12.1324154"><ele>668.5</ele><time>2026-03-29T10:35:08.743Z</time></trkpt><trkpt lat="43.2370276" lon="12.1325074"><ele>663.25</ele><time>2026-03-29T10:35:09.742Z</time></trkpt><trkpt lat="43.2369382" lon="12.1325682"><ele>658.0</ele><time>2026-03-29T10:35:10.743Z</time></trkpt><trkpt lat="43.2368787" lon="12.1326166"><ele>658.0</ele><time>2026-03-29T10:35:11.743Z</time></trkpt><trkpt lat="43.2368072" lon="12.1325332"><ele>658.0</ele><time>2026-03-29T10:35:13.743Z</time></trkpt><trkpt lat="43.2367439" lon="12.1324816"><ele>658.0</ele><time>2026-03-29T10:35:14.743Z</time></trkpt><trkpt lat="43.2366666" lon="12.1323954"><ele>658.0</ele><time>2026-03-29T10:35:15.743Z</time></trkpt><trkpt lat="43.2365742" lon="12.1322866"><ele>658.0</ele><time>2026-03-29T10:35:16.743Z</time></trkpt><trkpt lat="43.2364755" lon="12.1321816"><ele>663.5</ele><time>2026-03-29T10:35:17.743Z</time></trkpt><trkpt lat="43.2363574" lon="12.1320988"><ele>669.0</ele><time>2026-03-29T10:35:18.743Z</time></trkpt><trkpt lat="43.2362319" lon="12.1320288"><ele>674.5</ele><time>2026-03-29T10:35:19.743Z</time></trkpt><trkpt lat="43.2361082" lon="12.1319391"><ele>680.0</ele><time>2026-03-29T10:35:20.743Z</time></trkpt><trkpt lat="43.235998" lon="12.1318371"><ele>680.0</ele><time>2026-03-29T10:35:21.743Z</time></trkpt><trkpt lat="43.2358899" lon="12.1317623"><ele>680.0</ele><time>2026-03-29T10:35:22.743Z</time></trkpt><trkpt lat="43.2357767" lon="12.1316971"><ele>680.0</ele><time>2026-03-29T10:35:23.742Z</time></trkpt><trkpt lat="43.2356695" lon="12.1316462"><ele>680.0</ele><time>2026-03-29T10:35:24.743Z</time></trkpt><trkpt lat="43.2355668" lon="12.131627"><ele>685.5</ele><time>2026-03-29T10:35:25.743Z</time></trkpt><trkpt lat="43.2354871" lon="12.1318618"><ele>691.0</ele><time>2026-03-29T10:35:27.743Z</time></trkpt><trkpt lat="43.2354254" lon="12.1319596"><ele>696.5</ele><time>2026-03-29T10:35:28.743Z</time></trkpt><trkpt lat="43.2353367" lon="12.1320036"><ele>702.0</ele><time>2026-03-29T10:35:29.743Z</time></trkpt><trkpt lat="43.2352345" lon="12.1320018"><ele>702.0</ele><time>2026-03-29T10:35:30.743Z</time></trkpt><trkpt lat="43.2351295" lon="12.1319889"><ele>702.0</ele><time>2026-03-29T10:35:31.743Z</time></trkpt><trkpt lat="43.2350157" lon="12.1319936"><ele>702.0</ele><time>2026-03-29T10:35:32.743Z</time></trkpt><trkpt lat="43.2348703" lon="12.1319938"><ele>702.0</ele><time>2026-03-29T10:35:33.743Z</time></trkpt><trkpt lat="43.2347177" lon="12.1320265"><ele>704.75</ele><time>2026-03-29T10:35:34.743Z</time></trkpt><trkpt lat="43.2345712" lon="12.132049"><ele>707.5</ele><time>2026-03-29T10:35:35.743Z</time></trkpt><trkpt lat="43.2344262" lon="12.1320822"><ele>710.25</ele><time>2026-03-29T10:35:36.743Z</time></trkpt><trkpt lat="43.2343053" lon="12.1320846"><ele>713.0</ele><time>2026-03-29T10:35:37.743Z</time></trkpt><trkpt lat="43.2342201" lon="12.1320515"><ele>713.0</ele><time>2026-03-29T10:35:38.743Z</time></trkpt><trkpt lat="43.2341205" lon="12.1320177"><ele>713.0</ele><time>2026-03-29T10:35:39.743Z</time></trkpt><trkpt lat="43.2340161" lon="12.1319453"><ele>713.0</ele><time>2026-03-29T10:35:40.743Z</time></trkpt><trkpt lat="43.2339025" lon="12.1318567"><ele>713.0</ele><time>2026-03-29T10:35:41.743Z</time></trkpt><trkpt lat="43.2337797" lon="12.1317599"><ele>713.8</ele><time>2026-03-29T10:35:42.743Z</time></trkpt><trkpt lat="43.2336632" lon="12.1316664"><ele>714.5999999999999</ele><time>2026-03-29T10:35:43.743Z</time></trkpt><trkpt lat="43.2335671" lon="12.1315911"><ele>715.4000000000001</ele><time>2026-03-29T10:35:44.743Z</time></trkpt><trkpt lat="43.233479" lon="12.131548"><ele>716.2</ele><time>2026-03-29T10:35:45.743Z</time></trkpt><trkpt lat="43.2333963" lon="12.1315548"><ele>717.0</ele><time>2026-03-29T10:35:46.743Z</time></trkpt><trkpt lat="43.2333025" lon="12.1316056"><ele>717.0</ele><time>2026-03-29T10:35:47.743Z</time></trkpt><trkpt lat="43.2332357" lon="12.1316449"><ele>717.0</ele><time>2026-03-29T10:35:48.743Z</time></trkpt><trkpt lat="43.2332855" lon="12.1318742"><ele>717.0</ele><time>2026-03-29T10:35:49.743Z</time></trkpt><trkpt lat="43.2332292" lon="12.1320217"><ele>717.0</ele><time>2026-03-29T10:35:50.743Z</time></trkpt><trkpt lat="43.2331504" lon="12.1321225"><ele>719.75</ele><time>2026-03-29T10:35:51.742Z</time></trkpt><trkpt lat="43.2330829" lon="12.1322252"><ele>722.5</ele><time>2026-03-29T10:35:52.742Z</time></trkpt><trkpt lat="43.2329797" lon="12.1322936"><ele>725.25</ele><time>2026-03-29T10:35:53.743Z</time></trkpt><trkpt lat="43.2328442" lon="12.1322613"><ele>728.0</ele><time>2026-03-29T10:35:54.743Z</time></trkpt><trkpt lat="43.2327158" lon="12.1322703"><ele>728.0</ele><time>2026-03-29T10:35:55.742Z</time></trkpt><trkpt lat="43.2325758" lon="12.1322512"><ele>728.0</ele><time>2026-03-29T10:35:56.743Z</time></trkpt><trkpt lat="43.2324478" lon="12.1322519"><ele>728.0</ele><time>2026-03-29T10:35:57.743Z</time></trkpt><trkpt lat="43.2323305" lon="12.132271"><ele>728.0</ele><time>2026-03-29T10:35:58.743Z</time></trkpt><trkpt lat="43.2321841" lon="12.1323333"><ele>726.75</ele><time>2026-03-29T10:35:59.743Z</time></trkpt><trkpt lat="43.2320436" lon="12.1324344"><ele>725.5</ele><time>2026-03-29T10:36:00.743Z</time></trkpt><trkpt lat="43.2319189" lon="12.1325092"><ele>724.25</ele><time>2026-03-29T10:36:01.743Z</time></trkpt><trkpt lat="43.2317998" lon="12.1325698"><ele>723.0</ele><time>2026-03-29T10:36:02.743Z</time></trkpt><trkpt lat="43.2316828" lon="12.1326032"><ele>723.0</ele><time>2026-03-29T10:36:03.743Z</time></trkpt><trkpt lat="43.2315743" lon="12.1325941"><ele>723.0</ele><time>2026-03-29T10:36:04.743Z</time></trkpt><trkpt lat="43.2314709" lon="12.1325529"><ele>723.0</ele><time>2026-03-29T10:36:05.742Z</time></trkpt><trkpt lat="43.23138" lon="12.1324994"><ele>723.0</ele><time>2026-03-29T10:36:06.743Z</time></trkpt><trkpt lat="43.2313132" lon="12.1324479"><ele>723.0</ele><time>2026-03-29T10:36:07.743Z</time></trkpt><trkpt lat="43.2312273" lon="12.1323714"><ele>723.2</ele><time>2026-03-29T10:36:09.743Z</time></trkpt><trkpt lat="43.2311468" lon="12.1324192"><ele>723.4</ele><time>2026-03-29T10:36:13.743Z</time></trkpt><trkpt lat="43.231093" lon="12.1325358"><ele>723.6</ele><time>2026-03-29T10:36:16.743Z</time></trkpt><trkpt lat="43.2310391" lon="12.1327265"><ele>723.8000000000001</ele><time>2026-03-29T10:36:18.743Z</time></trkpt><trkpt lat="43.2310266" lon="12.1328543"><ele>724.0</ele><time>2026-03-29T10:36:19.743Z</time></trkpt><trkpt lat="43.2309852" lon="12.1330265"><ele>724.0</ele><time>2026-03-29T10:36:20.743Z</time></trkpt><trkpt lat="43.2309741" lon="12.1331894"><ele>724.0</ele><time>2026-03-29T10:36:21.743Z</time></trkpt><trkpt lat="43.230985" lon="12.1333589"><ele>724.0</ele><time>2026-03-29T10:36:22.743Z</time></trkpt><trkpt lat="43.2309955" lon="12.1335452"><ele>724.0</ele><time>2026-03-29T10:36:23.743Z</time></trkpt><trkpt lat="43.2310225" lon="12.1337418"><ele>724.25</ele><time>2026-03-29T10:36:24.743Z</time></trkpt><trkpt lat="43.2310478" lon="12.1339369"><ele>724.5</ele><time>2026-03-29T10:36:25.743Z</time></trkpt><trkpt lat="43.231075" lon="12.134133"><ele>724.75</ele><time>2026-03-29T10:36:26.743Z</time></trkpt><trkpt lat="43.2310868" lon="12.1342969"><ele>725.0</ele><time>2026-03-29T10:36:27.743Z</time></trkpt><trkpt lat="43.2310997" lon="12.1344632"><ele>725.5</ele><time>2026-03-29T10:36:28.743Z</time></trkpt><trkpt lat="43.2311015" lon="12.1346349"><ele>726.0</ele><time>2026-03-29T10:36:29.743Z</time></trkpt><trkpt lat="43.2311037" lon="12.1348233"><ele>726.5</ele><time>2026-03-29T10:36:30.743Z</time></trkpt><trkpt lat="43.2311301" lon="12.1349922"><ele>727.0</ele><time>2026-03-29T10:36:31.743Z</time></trkpt><trkpt lat="43.231113" lon="12.1352031"><ele>725.25</ele><time>2026-03-29T10:36:32.743Z</time></trkpt><trkpt lat="43.2310888" lon="12.1353788"><ele>723.5</ele><time>2026-03-29T10:36:33.743Z</time></trkpt><trkpt lat="43.2310369" lon="12.1355251"><ele>721.75</ele><time>2026-03-29T10:36:34.743Z</time></trkpt><trkpt lat="43.2309572" lon="12.1356296"><ele>720.0</ele><time>2026-03-29T10:36:35.743Z</time></trkpt><trkpt lat="43.2308948" lon="12.1357589"><ele>720.0</ele><time>2026-03-29T10:36:36.743Z</time></trkpt><trkpt lat="43.2307448" lon="12.1357109"><ele>720.0</ele><time>2026-03-29T10:36:37.743Z</time></trkpt><trkpt lat="43.2306308" lon="12.1357318"><ele>720.0</ele><time>2026-03-29T10:36:38.743Z</time></trkpt><trkpt lat="43.2304945" lon="12.1357856"><ele>720.0</ele><time>2026-03-29T10:36:39.743Z</time></trkpt><trkpt lat="43.2303634" lon="12.1358489"><ele>718.5</ele><time>2026-03-29T10:36:40.743Z</time></trkpt><trkpt lat="43.2302439" lon="12.1359092"><ele>717.0</ele><time>2026-03-29T10:36:41.743Z</time></trkpt><trkpt lat="43.2301175" lon="12.1359725"><ele>715.5</ele><time>2026-03-29T10:36:42.742Z</time></trkpt><trkpt lat="43.2300164" lon="12.1360486"><ele>714.0</ele><time>2026-03-29T10:36:43.743Z</time></trkpt><trkpt lat="43.2299124" lon="12.1361342"><ele>714.0</ele><time>2026-03-29T10:36:44.743Z</time></trkpt><trkpt lat="43.2298306" lon="12.1362629"><ele>714.0</ele><time>2026-03-29T10:36:45.743Z</time></trkpt><trkpt lat="43.2297619" lon="12.1364041"><ele>714.0</ele><time>2026-03-29T10:36:46.743Z</time></trkpt><trkpt lat="43.229688" lon="12.1365694"><ele>714.0</ele><time>2026-03-29T10:36:47.743Z</time></trkpt><trkpt lat="43.2296215" lon="12.1367319"><ele>713.2</ele><time>2026-03-29T10:36:48.743Z</time></trkpt><trkpt lat="43.2295612" lon="12.1368879"><ele>712.4000000000001</ele><time>2026-03-29T10:36:49.743Z</time></trkpt><trkpt lat="43.229595" lon="12.1369903"><ele>711.6</ele><time>2026-03-29T10:36:50.743Z</time></trkpt><trkpt lat="43.2296037" lon="12.1371149"><ele>710.8</ele><time>2026-03-29T10:36:51.743Z</time></trkpt><trkpt lat="43.2295951" lon="12.137264"><ele>710.0</ele><time>2026-03-29T10:36:52.743Z</time></trkpt><trkpt lat="43.2295704" lon="12.1374065"><ele>710.0</ele><time>2026-03-29T10:36:53.743Z</time></trkpt><trkpt lat="43.2295212" lon="12.1375677"><ele>710.0</ele><time>2026-03-29T10:36:54.743Z</time></trkpt><trkpt lat="43.229479" lon="12.1377468"><ele>710.0</ele><time>2026-03-29T10:36:55.743Z</time></trkpt><trkpt lat="43.229464" lon="12.1379169"><ele>710.0</ele><time>2026-03-29T10:36:56.743Z</time></trkpt><trkpt lat="43.2294486" lon="12.1381144"><ele>709.3333333333333</ele><time>2026-03-29T10:36:57.743Z</time></trkpt><trkpt lat="43.2294319" lon="12.1382454"><ele>708.6666666666666</ele><time>2026-03-29T10:36:58.743Z</time></trkpt><trkpt lat="43.2294325" lon="12.1383425"><ele>708.0</ele><time>2026-03-29T10:36:59.743Z</time></trkpt><trkpt lat="43.229465" lon="12.1384808"><ele>707.3333333333334</ele><time>2026-03-29T10:37:01.743Z</time></trkpt><trkpt lat="43.2294951" lon="12.1385734"><ele>706.6666666666667</ele><time>2026-03-29T10:37:02.743Z</time></trkpt><trkpt lat="43.2295315" lon="12.1386776"><ele>706.0</ele><time>2026-03-29T10:37:03.743Z</time></trkpt><trkpt lat="43.2295689" lon="12.138789"><ele>706.0</ele><time>2026-03-29T10:37:04.743Z</time></trkpt><trkpt lat="43.229622" lon="12.1389189"><ele>706.0</ele><time>2026-03-29T10:37:05.743Z</time></trkpt><trkpt lat="43.229681" lon="12.1390474"><ele>706.0</ele><time>2026-03-29T10:37:06.743Z</time></trkpt><trkpt lat="43.2297246" lon="12.1391595"><ele>706.0</ele><time>2026-03-29T10:37:07.742Z</time></trkpt><trkpt lat="43.2297742" lon="12.1392346"><ele>706.0</ele><time>2026-03-29T10:37:08.743Z</time></trkpt><trkpt lat="43.2298447" lon="12.1392824"><ele>706.4</ele><time>2026-03-29T10:37:09.743Z</time></trkpt><trkpt lat="43.229916" lon="12.1393605"><ele>706.8</ele><time>2026-03-29T10:37:10.743Z</time></trkpt><trkpt lat="43.2299817" lon="12.1394756"><ele>707.1999999999999</ele><time>2026-03-29T10:37:11.743Z</time></trkpt><trkpt lat="43.2300516" lon="12.1396182"><ele>707.5999999999999</ele><time>2026-03-29T10:37:12.743Z</time></trkpt><trkpt lat="43.2300999" lon="12.1397764"><ele>708.0</ele><time>2026-03-29T10:37:13.743Z</time></trkpt><trkpt lat="43.2301475" lon="12.1399238"><ele>708.2</ele><time>2026-03-29T10:37:14.743Z</time></trkpt><trkpt lat="43.2302214" lon="12.1400346"><ele>708.4</ele><time>2026-03-29T10:37:15.743Z</time></trkpt><trkpt lat="43.2302723" lon="12.1401658"><ele>708.6</ele><time>2026-03-29T10:37:16.743Z</time></trkpt><trkpt lat="43.2303324" lon="12.1402704"><ele>708.8000000000001</ele><time>2026-03-29T10:37:17.743Z</time></trkpt><trkpt lat="43.2303939" lon="12.1403658"><ele>709.0</ele><time>2026-03-29T10:37:18.743Z</time></trkpt><trkpt lat="43.2304096" lon="12.1404596"><ele>709.0</ele><time>2026-03-29T10:37:19.743Z</time></trkpt><trkpt lat="43.230428" lon="12.1405533"><ele>709.0</ele><time>2026-03-29T10:37:20.743Z</time></trkpt><trkpt lat="43.2304219" lon="12.1407173"><ele>709.0</ele><time>2026-03-29T10:37:22.743Z</time></trkpt><trkpt lat="43.2304049" lon="12.1408147"><ele>709.0</ele><time>2026-03-29T10:37:23.743Z</time></trkpt><trkpt lat="43.2303726" lon="12.1408985"><ele>709.0</ele><time>2026-03-29T10:37:24.742Z</time></trkpt><trkpt lat="43.2303525" lon="12.1410054"><ele>709.0</ele><time>2026-03-29T10:37:25.743Z</time></trkpt><trkpt lat="43.2303156" lon="12.1411206"><ele>705.6</ele><time>2026-03-29T10:37:26.743Z</time></trkpt><trkpt lat="43.230275" lon="12.1412179"><ele>702.2</ele><time>2026-03-29T10:37:27.743Z</time></trkpt><trkpt lat="43.2302286" lon="12.1413362"><ele>698.8000000000001</ele><time>2026-03-29T10:37:28.743Z</time></trkpt><trkpt lat="43.2302074" lon="12.1415016"><ele>695.4000000000001</ele><time>2026-03-29T10:37:29.743Z</time></trkpt><trkpt lat="43.2301734" lon="12.1416673"><ele>692.0</ele><time>2026-03-29T10:37:30.743Z</time></trkpt><trkpt lat="43.230151" lon="12.1418124"><ele>690.2</ele><time>2026-03-29T10:37:31.742Z</time></trkpt><trkpt lat="43.2301276" lon="12.1419524"><ele>688.4000000000001</ele><time>2026-03-29T10:37:32.743Z</time></trkpt><trkpt lat="43.2300834" lon="12.1420714"><ele>686.5999999999999</ele><time>2026-03-29T10:37:33.743Z</time></trkpt><trkpt lat="43.2300335" lon="12.1421903"><ele>684.8</ele><time>2026-03-29T10:37:34.743Z</time></trkpt><trkpt lat="43.229978" lon="12.1423235"><ele>683.0</ele><time>2026-03-29T10:37:35.743Z</time></trkpt><trkpt lat="43.2299412" lon="12.1424976"><ele>681.25</ele><time>2026-03-29T10:37:36.743Z</time></trkpt><trkpt lat="43.2299076" lon="12.1426609"><ele>679.5</ele><time>2026-03-29T10:37:37.743Z</time></trkpt><trkpt lat="43.2298798" lon="12.1428185"><ele>677.75</ele><time>2026-03-29T10:37:38.743Z</time></trkpt><trkpt lat="43.2298308" lon="12.1429441"><ele>676.0</ele><time>2026-03-29T10:37:39.743Z</time></trkpt><trkpt lat="43.2297558" lon="12.1430843"><ele>675.25</ele><time>2026-03-29T10:37:40.742Z</time></trkpt><trkpt lat="43.2296888" lon="12.1432349"><ele>674.5</ele><time>2026-03-29T10:37:41.743Z</time></trkpt><trkpt lat="43.2296297" lon="12.1433786"><ele>673.75</ele><time>2026-03-29T10:37:42.743Z</time></trkpt><trkpt lat="43.2295845" lon="12.1435449"><ele>673.0</ele><time>2026-03-29T10:37:43.743Z</time></trkpt><trkpt lat="43.2295407" lon="12.1436696"><ele>673.0</ele><time>2026-03-29T10:37:44.743Z</time></trkpt><trkpt lat="43.2294963" lon="12.1437945"><ele>673.0</ele><time>2026-03-29T10:37:45.742Z</time></trkpt><trkpt lat="43.229487" lon="12.1438914"><ele>673.0</ele><time>2026-03-29T10:37:46.743Z</time></trkpt><trkpt lat="43.2294928" lon="12.1439985"><ele>673.0</ele><time>2026-03-29T10:37:47.743Z</time></trkpt><trkpt lat="43.2295453" lon="12.1441048"><ele>673.0</ele><time>2026-03-29T10:37:48.743Z</time></trkpt><trkpt lat="43.2295546" lon="12.1442829"><ele>674.8</ele><time>2026-03-29T10:37:50.742Z</time></trkpt><trkpt lat="43.2295594" lon="12.1443745"><ele>676.5999999999999</ele><time>2026-03-29T10:37:51.743Z</time></trkpt><trkpt lat="43.2295431" lon="12.1445003"><ele>678.4000000000001</ele><time>2026-03-29T10:37:52.743Z</time></trkpt><trkpt lat="43.2295275" lon="12.1446456"><ele>680.2</ele><time>2026-03-29T10:37:53.743Z</time></trkpt><trkpt lat="43.2294956" lon="12.1447897"><ele>682.0</ele><time>2026-03-29T10:37:54.743Z</time></trkpt><trkpt lat="43.229487" lon="12.1448943"><ele>684.0</ele><time>2026-03-29T10:37:55.743Z</time></trkpt><trkpt lat="43.2295129" lon="12.1449824"><ele>686.0</ele><time>2026-03-29T10:37:56.743Z</time></trkpt><trkpt lat="43.2295436" lon="12.1451089"><ele>688.0</ele><time>2026-03-29T10:37:57.742Z</time></trkpt><trkpt lat="43.2295628" lon="12.1452177"><ele>690.0</ele><time>2026-03-29T10:37:58.743Z</time></trkpt><trkpt lat="43.2295731" lon="12.1453097"><ele>692.0</ele><time>2026-03-29T10:37:59.743Z</time></trkpt><trkpt lat="43.2295749" lon="12.1453971"><ele>694.0</ele><time>2026-03-29T10:38:00.743Z</time></trkpt><trkpt lat="43.2295633" lon="12.1455292"><ele>694.0</ele><time>2026-03-29T10:38:01.743Z</time></trkpt><trkpt lat="43.229563" lon="12.1456739"><ele>694.0</ele><time>2026-03-29T10:38:02.742Z</time></trkpt><trkpt lat="43.2295718" lon="12.1458446"><ele>694.0</ele><time>2026-03-29T10:38:03.743Z</time></trkpt><trkpt lat="43.2295792" lon="12.1460311"><ele>694.0</ele><time>2026-03-29T10:38:04.743Z</time></trkpt><trkpt lat="43.2295955" lon="12.1461987"><ele>694.4000000000001</ele><time>2026-03-29T10:38:05.743Z</time></trkpt><trkpt lat="43.2296158" lon="12.1463712"><ele>694.8</ele><time>2026-03-29T10:38:06.743Z</time></trkpt><trkpt lat="43.2296446" lon="12.1465079"><ele>695.2</ele><time>2026-03-29T10:38:07.743Z</time></trkpt><trkpt lat="43.2296776" lon="12.1466122"><ele>695.5999999999999</ele><time>2026-03-29T10:38:08.743Z</time></trkpt><trkpt lat="43.2297118" lon="12.1467036"><ele>696.0</ele><time>2026-03-29T10:38:09.743Z</time></trkpt><trkpt lat="43.2297286" lon="12.1467917"><ele>695.8</ele><time>2026-03-29T10:38:10.743Z</time></trkpt><trkpt lat="43.2297292" lon="12.1468897"><ele>695.5999999999999</ele><time>2026-03-29T10:38:11.743Z</time></trkpt><trkpt lat="43.2297341" lon="12.1470044"><ele>695.4</ele><time>2026-03-29T10:38:12.743Z</time></trkpt><trkpt lat="43.2297481" lon="12.1471411"><ele>695.2</ele><time>2026-03-29T10:38:13.743Z</time></trkpt><trkpt lat="43.2297679" lon="12.1472781"><ele>695.0</ele><time>2026-03-29T10:38:14.743Z</time></trkpt><trkpt lat="43.2298212" lon="12.1474085"><ele>695.0</ele><time>2026-03-29T10:38:15.743Z</time></trkpt><trkpt lat="43.2298517" lon="12.1475713"><ele>695.0</ele><time>2026-03-29T10:38:16.743Z</time></trkpt><trkpt lat="43.2299054" lon="12.1477384"><ele>695.0</ele><time>2026-03-29T10:38:17.743Z</time></trkpt><trkpt lat="43.2299676" lon="12.1478901"><ele>695.0</ele><time>2026-03-29T10:38:18.743Z</time></trkpt><trkpt lat="43.2300288" lon="12.1480367"><ele>695.0</ele><time>2026-03-29T10:38:19.743Z</time></trkpt><trkpt lat="43.230092" lon="12.1482058"><ele>695.0</ele><time>2026-03-29T10:38:20.743Z</time></trkpt><trkpt lat="43.2301611" lon="12.1483771"><ele>695.0</ele><time>2026-03-29T10:38:21.743Z</time></trkpt><trkpt lat="43.2302302" lon="12.148552"><ele>695.0</ele><time>2026-03-29T10:38:22.743Z</time></trkpt><trkpt lat="43.2303013" lon="12.1487253"><ele>695.0</ele><time>2026-03-29T10:38:23.743Z</time></trkpt><trkpt lat="43.2303699" lon="12.1489037"><ele>695.0</ele><time>2026-03-29T10:38:24.743Z</time></trkpt><trkpt lat="43.2304361" lon="12.1490839"><ele>695.0</ele><time>2026-03-29T10:38:25.743Z</time></trkpt><trkpt lat="43.2305114" lon="12.1492598"><ele>695.0</ele><time>2026-03-29T10:38:26.743Z</time></trkpt><trkpt lat="43.2305935" lon="12.149424"><ele>694.5</ele><time>2026-03-29T10:38:27.743Z</time></trkpt><trkpt lat="43.2306771" lon="12.1495926"><ele>694.0</ele><time>2026-03-29T10:38:28.743Z</time></trkpt><trkpt lat="43.2307452" lon="12.1497628"><ele>693.5</ele><time>2026-03-29T10:38:29.743Z</time></trkpt><trkpt lat="43.2307976" lon="12.1499251"><ele>693.0</ele><time>2026-03-29T10:38:30.743Z</time></trkpt><trkpt lat="43.2308487" lon="12.1500559"><ele>693.0</ele><time>2026-03-29T10:38:31.743Z</time></trkpt><trkpt lat="43.2309057" lon="12.1501618"><ele>693.0</ele><time>2026-03-29T10:38:32.743Z</time></trkpt><trkpt lat="43.2309663" lon="12.1502545"><ele>693.0</ele><time>2026-03-29T10:38:33.743Z</time></trkpt><trkpt lat="43.2310333" lon="12.1503507"><ele>693.0</ele><time>2026-03-29T10:38:34.743Z</time></trkpt><trkpt lat="43.2310862" lon="12.1504629"><ele>693.0</ele><time>2026-03-29T10:38:35.743Z</time></trkpt><trkpt lat="43.2311359" lon="12.1505674"><ele>693.0</ele><time>2026-03-29T10:38:36.743Z</time></trkpt><trkpt lat="43.2311565" lon="12.1506663"><ele>693.0</ele><time>2026-03-29T10:38:37.743Z</time></trkpt><trkpt lat="43.2311555" lon="12.1507652"><ele>693.0</ele><time>2026-03-29T10:38:38.743Z</time></trkpt><trkpt lat="43.2311351" lon="12.1508631"><ele>693.0</ele><time>2026-03-29T10:38:39.743Z</time></trkpt><trkpt lat="43.2310894" lon="12.1509508"><ele>693.0</ele><time>2026-03-29T10:38:40.743Z</time></trkpt><trkpt lat="43.2310143" lon="12.151011"><ele>693.0</ele><time>2026-03-29T10:38:41.743Z</time></trkpt><trkpt lat="43.2309304" lon="12.1510649"><ele>692.3333333333334</ele><time>2026-03-29T10:38:42.743Z</time></trkpt><trkpt lat="43.2308285" lon="12.1511001"><ele>691.6666666666666</ele><time>2026-03-29T10:38:43.743Z</time></trkpt><trkpt lat="43.2307402" lon="12.1511125"><ele>691.0</ele><time>2026-03-29T10:38:44.743Z</time></trkpt><trkpt lat="43.2306594" lon="12.1511346"><ele>690.3333333333333</ele><time>2026-03-29T10:38:45.743Z</time></trkpt><trkpt lat="43.2305955" lon="12.1511817"><ele>689.6666666666666</ele><time>2026-03-29T10:38:46.743Z</time></trkpt><trkpt lat="43.2305537" lon="12.1512607"><ele>689.0</ele><time>2026-03-29T10:38:47.743Z</time></trkpt><trkpt lat="43.2305549" lon="12.1514278"><ele>687.1666666666666</ele><time>2026-03-29T10:38:49.743Z</time></trkpt><trkpt lat="43.2305752" lon="12.1515345"><ele>685.3333333333333</ele><time>2026-03-29T10:38:50.743Z</time></trkpt><trkpt lat="43.2305925" lon="12.1516371"><ele>683.5</ele><time>2026-03-29T10:38:51.743Z</time></trkpt><trkpt lat="43.2305997" lon="12.1517423"><ele>681.6666666666666</ele><time>2026-03-29T10:38:52.743Z</time></trkpt><trkpt lat="43.2305961" lon="12.1518387"><ele>679.8333333333334</ele><time>2026-03-29T10:38:53.743Z</time></trkpt><trkpt lat="43.2305803" lon="12.1519289"><ele>678.0</ele><time>2026-03-29T10:38:54.743Z</time></trkpt><trkpt lat="43.2305397" lon="12.152098"><ele>676.2</ele><time>2026-03-29T10:38:56.743Z</time></trkpt><trkpt lat="43.2305316" lon="12.152192"><ele>674.4</ele><time>2026-03-29T10:38:57.743Z</time></trkpt><trkpt lat="43.2305368" lon="12.1523557"><ele>672.6</ele><time>2026-03-29T10:38:59.742Z</time></trkpt><trkpt lat="43.2305549" lon="12.1525239"><ele>670.8000000000001</ele><time>2026-03-29T10:39:01.743Z</time></trkpt><trkpt lat="43.2305657" lon="12.1526297"><ele>669.0</ele><time>2026-03-29T10:39:02.743Z</time></trkpt><trkpt lat="43.2305767" lon="12.1527323"><ele>669.0</ele><time>2026-03-29T10:39:03.743Z</time></trkpt><trkpt lat="43.2305894" lon="12.1528398"><ele>669.0</ele><time>2026-03-29T10:39:04.742Z</time></trkpt><trkpt lat="43.2306042" lon="12.1529626"><ele>669.0</ele><time>2026-03-29T10:39:05.743Z</time></trkpt><trkpt lat="43.2306192" lon="12.1530839"><ele>669.0</ele><time>2026-03-29T10:39:06.743Z</time></trkpt><trkpt lat="43.230634" lon="12.1532067"><ele>669.0</ele><time>2026-03-29T10:39:07.742Z</time></trkpt><trkpt lat="43.230659" lon="12.1533287"><ele>669.0</ele><time>2026-03-29T10:39:08.743Z</time></trkpt><trkpt lat="43.230671" lon="12.153443"><ele>668.4000000000001</ele><time>2026-03-29T10:39:09.743Z</time></trkpt><trkpt lat="43.2306809" lon="12.1535715"><ele>667.8</ele><time>2026-03-29T10:39:10.743Z</time></trkpt><trkpt lat="43.230687" lon="12.1537055"><ele>667.2</ele><time>2026-03-29T10:39:11.743Z</time></trkpt><trkpt lat="43.2307043" lon="12.1538373"><ele>666.5999999999999</ele><time>2026-03-29T10:39:12.743Z</time></trkpt><trkpt lat="43.2307152" lon="12.1539641"><ele>666.0</ele><time>2026-03-29T10:39:13.743Z</time></trkpt><trkpt lat="43.2307114" lon="12.1540787"><ele>665.5999999999999</ele><time>2026-03-29T10:39:14.743Z</time></trkpt><trkpt lat="43.2306912" lon="12.1541937"><ele>665.2</ele><time>2026-03-29T10:39:15.742Z</time></trkpt><trkpt lat="43.2306444" lon="12.1543048"><ele>664.8</ele><time>2026-03-29T10:39:16.743Z</time></trkpt><trkpt lat="43.2305667" lon="12.1544261"><ele>664.4000000000001</ele><time>2026-03-29T10:39:17.743Z</time></trkpt><trkpt lat="43.2304832" lon="12.154567"><ele>664.0</ele><time>2026-03-29T10:39:18.743Z</time></trkpt><trkpt lat="43.2304035" lon="12.1547329"><ele>661.0</ele><time>2026-03-29T10:39:19.743Z</time></trkpt><trkpt lat="43.230348" lon="12.1549094"><ele>658.0</ele><time>2026-03-29T10:39:20.743Z</time></trkpt><trkpt lat="43.2303022" lon="12.1550949"><ele>655.0</ele><time>2026-03-29T10:39:21.743Z</time></trkpt><trkpt lat="43.2302577" lon="12.1552681"><ele>652.0</ele><time>2026-03-29T10:39:22.743Z</time></trkpt><trkpt lat="43.2302029" lon="12.1554337"><ele>652.0</ele><time>2026-03-29T10:39:23.743Z</time></trkpt><trkpt lat="43.2301503" lon="12.1556147"><ele>652.0</ele><time>2026-03-29T10:39:24.743Z</time></trkpt><trkpt lat="43.2300954" lon="12.1558074"><ele>652.0</ele><time>2026-03-29T10:39:25.743Z</time></trkpt><trkpt lat="43.2300406" lon="12.1559933"><ele>652.0</ele><time>2026-03-29T10:39:26.743Z</time></trkpt><trkpt lat="43.2299895" lon="12.156168"><ele>653.0</ele><time>2026-03-29T10:39:27.743Z</time></trkpt><trkpt lat="43.2299454" lon="12.1563356"><ele>654.0</ele><time>2026-03-29T10:39:28.743Z</time></trkpt><trkpt lat="43.2298959" lon="12.1565046"><ele>655.0</ele><time>2026-03-29T10:39:29.743Z</time></trkpt><trkpt lat="43.229845" lon="12.1566377"><ele>656.0</ele><time>2026-03-29T10:39:30.743Z</time></trkpt><trkpt lat="43.2298037" lon="12.1567575"><ele>656.1999999999999</ele><time>2026-03-29T10:39:31.743Z</time></trkpt><trkpt lat="43.2297897" lon="12.156886"><ele>656.4</ele><time>2026-03-29T10:39:32.743Z</time></trkpt><trkpt lat="43.2297893" lon="12.1570415"><ele>656.6</ele><time>2026-03-29T10:39:33.743Z</time></trkpt><trkpt lat="43.2298108" lon="12.1571904"><ele>656.8</ele><time>2026-03-29T10:39:34.743Z</time></trkpt><trkpt lat="43.2298452" lon="12.1573427"><ele>657.0</ele><time>2026-03-29T10:39:35.743Z</time></trkpt><trkpt lat="43.2298868" lon="12.1574911"><ele>654.0</ele><time>2026-03-29T10:39:36.743Z</time></trkpt><trkpt lat="43.2299177" lon="12.157631"><ele>651.0</ele><time>2026-03-29T10:39:37.743Z</time></trkpt><trkpt lat="43.2299206" lon="12.1577871"><ele>648.0</ele><time>2026-03-29T10:39:38.743Z</time></trkpt><trkpt lat="43.2299081" lon="12.1579447"><ele>645.0</ele><time>2026-03-29T10:39:39.743Z</time></trkpt><trkpt lat="43.2298765" lon="12.1581081"><ele>644.0</ele><time>2026-03-29T10:39:40.743Z</time></trkpt><trkpt lat="43.2298206" lon="12.1582933"><ele>643.0</ele><time>2026-03-29T10:39:41.742Z</time></trkpt><trkpt lat="43.2297485" lon="12.1584584"><ele>642.0</ele><time>2026-03-29T10:39:42.743Z</time></trkpt><trkpt lat="43.2296582" lon="12.1585892"><ele>641.0</ele><time>2026-03-29T10:39:43.743Z</time></trkpt><trkpt lat="43.2295663" lon="12.1586813"><ele>641.0</ele><time>2026-03-29T10:39:44.743Z</time></trkpt><trkpt lat="43.2294645" lon="12.1587753"><ele>641.0</ele><time>2026-03-29T10:39:45.743Z</time></trkpt><trkpt lat="43.2293832" lon="12.1588735"><ele>641.0</ele><time>2026-03-29T10:39:46.743Z</time></trkpt><trkpt lat="43.2293166" lon="12.1589649"><ele>641.0</ele><time>2026-03-29T10:39:47.743Z</time></trkpt><trkpt lat="43.2292746" lon="12.1590533"><ele>641.0</ele><time>2026-03-29T10:39:48.743Z</time></trkpt><trkpt lat="43.2292458" lon="12.1591514"><ele>641.0</ele><time>2026-03-29T10:39:49.743Z</time></trkpt><trkpt lat="43.2292227" lon="12.1592653"><ele>641.0</ele><time>2026-03-29T10:39:50.743Z</time></trkpt><trkpt lat="43.2292073" lon="12.1593791"><ele>641.0</ele><time>2026-03-29T10:39:51.743Z</time></trkpt><trkpt lat="43.2291964" lon="12.1595011"><ele>641.0</ele><time>2026-03-29T10:39:52.743Z</time></trkpt><trkpt lat="43.2291772" lon="12.1596297"><ele>641.0</ele><time>2026-03-29T10:39:53.743Z</time></trkpt><trkpt lat="43.2291404" lon="12.1597647"><ele>641.8</ele><time>2026-03-29T10:39:54.743Z</time></trkpt><trkpt lat="43.2290937" lon="12.1598951"><ele>642.5999999999999</ele><time>2026-03-29T10:39:55.743Z</time></trkpt><trkpt lat="43.2290347" lon="12.1600136"><ele>643.4</ele><time>2026-03-29T10:39:56.743Z</time></trkpt><trkpt lat="43.2289673" lon="12.1601137"><ele>644.2</ele><time>2026-03-29T10:39:57.743Z</time></trkpt><trkpt lat="43.228885" lon="12.1601973"><ele>645.0</ele><time>2026-03-29T10:39:58.742Z</time></trkpt><trkpt lat="43.2288009" lon="12.1602603"><ele>645.2</ele><time>2026-03-29T10:39:59.743Z</time></trkpt><trkpt lat="43.2287119" lon="12.16034"><ele>645.4</ele><time>2026-03-29T10:40:00.743Z</time></trkpt><trkpt lat="43.2286263" lon="12.1604335"><ele>645.5999999999999</ele><time>2026-03-29T10:40:01.743Z</time></trkpt><trkpt lat="43.2285456" lon="12.1605328"><ele>645.8</ele><time>2026-03-29T10:40:02.743Z</time></trkpt><trkpt lat="43.2284818" lon="12.1606526"><ele>646.0</ele><time>2026-03-29T10:40:03.743Z</time></trkpt><trkpt lat="43.2284431" lon="12.1607816"><ele>646.0</ele><time>2026-03-29T10:40:04.743Z</time></trkpt><trkpt lat="43.2284272" lon="12.1609268"><ele>646.0</ele><time>2026-03-29T10:40:05.743Z</time></trkpt><trkpt lat="43.228433" lon="12.1610988"><ele>646.0</ele><time>2026-03-29T10:40:06.743Z</time></trkpt><trkpt lat="43.2284381" lon="12.1612788"><ele>646.0</ele><time>2026-03-29T10:40:07.743Z</time></trkpt><trkpt lat="43.2284407" lon="12.1614529"><ele>647.0</ele><time>2026-03-29T10:40:08.743Z</time></trkpt><trkpt lat="43.228441" lon="12.1616125"><ele>648.0</ele><time>2026-03-29T10:40:09.743Z</time></trkpt><trkpt lat="43.2284368" lon="12.1617485"><ele>649.0</ele><time>2026-03-29T10:40:10.743Z</time></trkpt><trkpt lat="43.2284234" lon="12.1618624"><ele>650.0</ele><time>2026-03-29T10:40:11.743Z</time></trkpt><trkpt lat="43.2284014" lon="12.1619553"><ele>651.0</ele><time>2026-03-29T10:40:12.743Z</time></trkpt><trkpt lat="43.2283671" lon="12.1620596"><ele>651.0</ele><time>2026-03-29T10:40:14.743Z</time></trkpt><trkpt lat="43.2282704" lon="12.1620849"><ele>651.0</ele><time>2026-03-29T10:40:16.743Z</time></trkpt><trkpt lat="43.2281481" lon="12.1621521"><ele>651.0</ele><time>2026-03-29T10:40:18.743Z</time></trkpt><trkpt lat="43.2280611" lon="12.1622016"><ele>651.0</ele><time>2026-03-29T10:40:19.743Z</time></trkpt><trkpt lat="43.2279608" lon="12.1622768"><ele>651.0</ele><time>2026-03-29T10:40:20.743Z</time></trkpt><trkpt lat="43.2278482" lon="12.1623654"><ele>650.0</ele><time>2026-03-29T10:40:21.743Z</time></trkpt><trkpt lat="43.2277438" lon="12.162445"><ele>649.0</ele><time>2026-03-29T10:40:22.743Z</time></trkpt><trkpt lat="43.2276453" lon="12.1625172"><ele>648.0</ele><time>2026-03-29T10:40:23.743Z</time></trkpt><trkpt lat="43.2275486" lon="12.162584"><ele>647.0</ele><time>2026-03-29T10:40:24.743Z</time></trkpt><trkpt lat="43.2274586" lon="12.1626357"><ele>646.0</ele><time>2026-03-29T10:40:25.743Z</time></trkpt><trkpt lat="43.2273705" lon="12.1626834"><ele>643.8</ele><time>2026-03-29T10:40:26.743Z</time></trkpt><trkpt lat="43.2272811" lon="12.1627417"><ele>641.5999999999999</ele><time>2026-03-29T10:40:27.743Z</time></trkpt><trkpt lat="43.2271737" lon="12.1627971"><ele>639.4</ele><time>2026-03-29T10:40:28.743Z</time></trkpt><trkpt lat="43.2270655" lon="12.1628369"><ele>637.2</ele><time>2026-03-29T10:40:29.743Z</time></trkpt><trkpt lat="43.2269645" lon="12.1628514"><ele>635.0</ele><time>2026-03-29T10:40:30.743Z</time></trkpt><trkpt lat="43.2268594" lon="12.1628369"><ele>635.0</ele><time>2026-03-29T10:40:31.743Z</time></trkpt><trkpt lat="43.226735" lon="12.1627991"><ele>635.0</ele><time>2026-03-29T10:40:32.743Z</time></trkpt><trkpt lat="43.2265977" lon="12.1627583"><ele>635.0</ele><time>2026-03-29T10:40:33.743Z</time></trkpt><trkpt lat="43.226449" lon="12.1627044"><ele>635.0</ele><time>2026-03-29T10:40:34.743Z</time></trkpt><trkpt lat="43.2262867" lon="12.1626385"><ele>632.0</ele><time>2026-03-29T10:40:35.743Z</time></trkpt><trkpt lat="43.2261198" lon="12.1625621"><ele>629.0</ele><time>2026-03-29T10:40:36.743Z</time></trkpt><trkpt lat="43.2259593" lon="12.1625015"><ele>626.0</ele><time>2026-03-29T10:40:37.743Z</time></trkpt><trkpt lat="43.2258065" lon="12.1624461"><ele>626.0</ele><time>2026-03-29T10:40:38.743Z</time></trkpt><trkpt lat="43.2256598" lon="12.162395"><ele>626.0</ele><time>2026-03-29T10:40:39.743Z</time></trkpt><trkpt lat="43.2255206" lon="12.1623462"><ele>626.0</ele><time>2026-03-29T10:40:40.743Z</time></trkpt><trkpt lat="43.2253889" lon="12.162304"><ele>626.0</ele><time>2026-03-29T10:40:41.742Z</time></trkpt><trkpt lat="43.2252565" lon="12.1622665"><ele>622.75</ele><time>2026-03-29T10:40:42.743Z</time></trkpt><trkpt lat="43.2251248" lon="12.1622384"><ele>619.5</ele><time>2026-03-29T10:40:43.743Z</time></trkpt><trkpt lat="43.2249923" lon="12.1622336"><ele>616.25</ele><time>2026-03-29T10:40:44.743Z</time></trkpt><trkpt lat="43.2248536" lon="12.1622327"><ele>613.0</ele><time>2026-03-29T10:40:45.742Z</time></trkpt><trkpt lat="43.2247193" lon="12.1622312"><ele>611.0</ele><time>2026-03-29T10:40:46.743Z</time></trkpt><trkpt lat="43.224589" lon="12.1622133"><ele>609.0</ele><time>2026-03-29T10:40:47.743Z</time></trkpt><trkpt lat="43.2244637" lon="12.1621924"><ele>607.0</ele><time>2026-03-29T10:40:48.743Z</time></trkpt><trkpt lat="43.2243402" lon="12.1621794"><ele>605.0</ele><time>2026-03-29T10:40:49.743Z</time></trkpt><trkpt lat="43.224212" lon="12.1621832"><ele>605.0</ele><time>2026-03-29T10:40:50.743Z</time></trkpt><trkpt lat="43.2240775" lon="12.1622014"><ele>605.0</ele><time>2026-03-29T10:40:51.743Z</time></trkpt><trkpt lat="43.2239423" lon="12.1622265"><ele>605.0</ele><time>2026-03-29T10:40:52.743Z</time></trkpt><trkpt lat="43.223801" lon="12.162248"><ele>605.0</ele><time>2026-03-29T10:40:53.743Z</time></trkpt><trkpt lat="43.2236524" lon="12.1622796"><ele>601.6666666666666</ele><time>2026-03-29T10:40:54.743Z</time></trkpt><trkpt lat="43.2235024" lon="12.1623065"><ele>598.3333333333334</ele><time>2026-03-29T10:40:55.743Z</time></trkpt><trkpt lat="43.2233546" lon="12.1623252"><ele>595.0</ele><time>2026-03-29T10:40:56.743Z</time></trkpt><trkpt lat="43.2232054" lon="12.1623445"><ele>594.25</ele><time>2026-03-29T10:40:57.743Z</time></trkpt><trkpt lat="43.2230647" lon="12.1623678"><ele>593.5</ele><time>2026-03-29T10:40:58.743Z</time></trkpt><trkpt lat="43.2229253" lon="12.1623959"><ele>592.75</ele><time>2026-03-29T10:40:59.743Z</time></trkpt><trkpt lat="43.2228002" lon="12.162426"><ele>592.0</ele><time>2026-03-29T10:41:00.743Z</time></trkpt><trkpt lat="43.2226771" lon="12.1624601"><ele>592.0</ele><time>2026-03-29T10:41:01.743Z</time></trkpt><trkpt lat="43.2225561" lon="12.1624921"><ele>592.0</ele><time>2026-03-29T10:41:02.743Z</time></trkpt><trkpt lat="43.2224419" lon="12.1625242"><ele>592.0</ele><time>2026-03-29T10:41:03.743Z</time></trkpt><trkpt lat="43.2223444" lon="12.1625547"><ele>592.0</ele><time>2026-03-29T10:41:04.743Z</time></trkpt><trkpt lat="43.2222566" lon="12.1625717"><ele>592.0</ele><time>2026-03-29T10:41:05.743Z</time></trkpt><trkpt lat="43.222175" lon="12.1625734"><ele>590.6</ele><time>2026-03-29T10:41:06.743Z</time></trkpt><trkpt lat="43.2221112" lon="12.1625907"><ele>589.2</ele><time>2026-03-29T10:41:07.743Z</time></trkpt><trkpt lat="43.2220318" lon="12.1626285"><ele>587.8</ele><time>2026-03-29T10:41:08.743Z</time></trkpt><trkpt lat="43.2219386" lon="12.1626745"><ele>586.4</ele><time>2026-03-29T10:41:09.743Z</time></trkpt><trkpt lat="43.2218318" lon="12.1626988"><ele>585.0</ele><time>2026-03-29T10:41:10.743Z</time></trkpt><trkpt lat="43.2217127" lon="12.1627031"><ele>585.0</ele><time>2026-03-29T10:41:11.743Z</time></trkpt><trkpt lat="43.2216043" lon="12.1627222"><ele>585.0</ele><time>2026-03-29T10:41:12.743Z</time></trkpt><trkpt lat="43.2214756" lon="12.1627654"><ele>585.0</ele><time>2026-03-29T10:41:13.743Z</time></trkpt><trkpt lat="43.2213334" lon="12.1628144"><ele>585.0</ele><time>2026-03-29T10:41:14.743Z</time></trkpt><trkpt lat="43.2211907" lon="12.1628558"><ele>582.75</ele><time>2026-03-29T10:41:15.743Z</time></trkpt><trkpt lat="43.2210647" lon="12.1628955"><ele>580.5</ele><time>2026-03-29T10:41:16.743Z</time></trkpt><trkpt lat="43.2209453" lon="12.1629489"><ele>578.25</ele><time>2026-03-29T10:41:17.743Z</time></trkpt><trkpt lat="43.2208518" lon="12.1630314"><ele>576.0</ele><time>2026-03-29T10:41:18.743Z</time></trkpt><trkpt lat="43.2207841" lon="12.1631215"><ele>576.0</ele><time>2026-03-29T10:41:19.743Z</time></trkpt><trkpt lat="43.2207416" lon="12.1631939"><ele>576.0</ele><time>2026-03-29T10:41:20.743Z</time></trkpt><trkpt lat="43.2207082" lon="12.1632766"><ele>576.0</ele><time>2026-03-29T10:41:21.742Z</time></trkpt><trkpt lat="43.2206967" lon="12.1633815"><ele>576.0</ele><time>2026-03-29T10:41:22.743Z</time></trkpt><trkpt lat="43.220692" lon="12.1634964"><ele>576.0</ele><time>2026-03-29T10:41:23.743Z</time></trkpt><trkpt lat="43.2207034" lon="12.1636169"><ele>576.0</ele><time>2026-03-29T10:41:24.743Z</time></trkpt><trkpt lat="43.2207284" lon="12.1637287"><ele>576.8</ele><time>2026-03-29T10:41:25.743Z</time></trkpt><trkpt lat="43.2207607" lon="12.1638482"><ele>577.6</ele><time>2026-03-29T10:41:26.743Z</time></trkpt><trkpt lat="43.2208146" lon="12.1639663"><ele>578.4</ele><time>2026-03-29T10:41:27.743Z</time></trkpt><trkpt lat="43.2208885" lon="12.1640775"><ele>579.2</ele><time>2026-03-29T10:41:28.743Z</time></trkpt><trkpt lat="43.2209803" lon="12.164189"><ele>580.0</ele><time>2026-03-29T10:41:29.743Z</time></trkpt><trkpt lat="43.2210672" lon="12.1642899"><ele>578.4</ele><time>2026-03-29T10:41:30.743Z</time></trkpt><trkpt lat="43.2211423" lon="12.1644081"><ele>576.8</ele><time>2026-03-29T10:41:31.743Z</time></trkpt><trkpt lat="43.2212117" lon="12.164526"><ele>575.2</ele><time>2026-03-29T10:41:32.743Z</time></trkpt><trkpt lat="43.221279" lon="12.1646307"><ele>573.6</ele><time>2026-03-29T10:41:33.743Z</time></trkpt><trkpt lat="43.2213392" lon="12.1647236"><ele>572.0</ele><time>2026-03-29T10:41:34.743Z</time></trkpt><trkpt lat="43.2213922" lon="12.164796"><ele>568.6666666666666</ele><time>2026-03-29T10:41:35.743Z</time></trkpt><trkpt lat="43.2214372" lon="12.1648672"><ele>565.3333333333333</ele><time>2026-03-29T10:41:36.743Z</time></trkpt><trkpt lat="43.2214193" lon="12.1649609"><ele>562.0</ele><time>2026-03-29T10:41:38.743Z</time></trkpt><trkpt lat="43.2213055" lon="12.1649829"><ele>558.6666666666666</ele><time>2026-03-29T10:41:40.743Z</time></trkpt><trkpt lat="43.2212426" lon="12.1649749"><ele>555.3333333333334</ele><time>2026-03-29T10:41:41.743Z</time></trkpt><trkpt lat="43.2211818" lon="12.1650559"><ele>552.0</ele><time>2026-03-29T10:41:43.743Z</time></trkpt><trkpt lat="43.2212314" lon="12.1651536"><ele>552.0</ele><time>2026-03-29T10:41:45.743Z</time></trkpt><trkpt lat="43.2213058" lon="12.1652083"><ele>552.0</ele><time>2026-03-29T10:41:46.743Z</time></trkpt><trkpt lat="43.2213739" lon="12.165257"><ele>552.0</ele><time>2026-03-29T10:41:47.743Z</time></trkpt><trkpt lat="43.2214375" lon="12.1653812"><ele>552.0</ele><time>2026-03-29T10:41:49.743Z</time></trkpt><trkpt lat="43.2213764" lon="12.1655405"><ele>552.0</ele><time>2026-03-29T10:41:51.743Z</time></trkpt><trkpt lat="43.2212919" lon="12.1656076"><ele>552.0</ele><time>2026-03-29T10:41:52.743Z</time></trkpt><trkpt lat="43.2212236" lon="12.1656539"><ele>552.0</ele><time>2026-03-29T10:41:53.743Z</time></trkpt><trkpt lat="43.2211464" lon="12.1656898"><ele>552.0</ele><time>2026-03-29T10:41:54.743Z</time></trkpt><trkpt lat="43.2210772" lon="12.1657174"><ele>552.0</ele><time>2026-03-29T10:41:55.743Z</time></trkpt><trkpt lat="43.2210204" lon="12.165757"><ele>552.0</ele><time>2026-03-29T10:41:56.742Z</time></trkpt><trkpt lat="43.2210126" lon="12.1658942"><ele>552.0</ele><time>2026-03-29T10:41:58.743Z</time></trkpt><trkpt lat="43.2209841" lon="12.1660836"><ele>549.2</ele><time>2026-03-29T10:42:00.743Z</time></trkpt><trkpt lat="43.2209398" lon="12.1662222"><ele>546.4000000000001</ele><time>2026-03-29T10:42:01.743Z</time></trkpt><trkpt lat="43.2209223" lon="12.1663435"><ele>543.5999999999999</ele><time>2026-03-29T10:42:02.743Z</time></trkpt><trkpt lat="43.2209147" lon="12.166493"><ele>540.8</ele><time>2026-03-29T10:42:03.743Z</time></trkpt><trkpt lat="43.2209058" lon="12.1666268"><ele>538.0</ele><time>2026-03-29T10:42:04.743Z</time></trkpt><trkpt lat="43.2209166" lon="12.1667279"><ele>536.0</ele><time>2026-03-29T10:42:05.743Z</time></trkpt><trkpt lat="43.2209616" lon="12.1668017"><ele>534.0</ele><time>2026-03-29T10:42:06.743Z</time></trkpt><trkpt lat="43.221016" lon="12.1668819"><ele>532.0</ele><time>2026-03-29T10:42:07.742Z</time></trkpt><trkpt lat="43.2210498" lon="12.1669617"><ele>530.0</ele><time>2026-03-29T10:42:08.743Z</time></trkpt><trkpt lat="43.2210726" lon="12.1670707"><ele>528.0</ele><time>2026-03-29T10:42:09.743Z</time></trkpt><trkpt lat="43.2210832" lon="12.1671678"><ele>526.0</ele><time>2026-03-29T10:42:10.743Z</time></trkpt><trkpt lat="43.2210672" lon="12.167258"><ele>524.0</ele><time>2026-03-29T10:42:11.743Z</time></trkpt><trkpt lat="43.2209704" lon="12.1673954"><ele>521.0</ele><time>2026-03-29T10:42:13.743Z</time></trkpt><trkpt lat="43.2209591" lon="12.1675211"><ele>518.0</ele><time>2026-03-29T10:42:15.743Z</time></trkpt><trkpt lat="43.2210057" lon="12.1676844"><ele>515.0</ele><time>2026-03-29T10:42:17.743Z</time></trkpt><trkpt lat="43.2210226" lon="12.1677724"><ele>512.0</ele><time>2026-03-29T10:42:18.743Z</time></trkpt><trkpt lat="43.2209891" lon="12.1679148"><ele>509.0</ele><time>2026-03-29T10:42:20.743Z</time></trkpt><trkpt lat="43.2209309" lon="12.1679856"><ele>508.99999999999994</ele><time>2026-03-29T10:42:21.742Z</time></trkpt><trkpt lat="43.220864" lon="12.1680287"><ele>509.0</ele><time>2026-03-29T10:42:22.743Z</time></trkpt><trkpt lat="43.2207967" lon="12.1680625"><ele>509.0</ele><time>2026-03-29T10:42:23.743Z</time></trkpt><trkpt lat="43.2207041" lon="12.1681036"><ele>509.0</ele><time>2026-03-29T10:42:25.743Z</time></trkpt><trkpt lat="43.2206167" lon="12.1681485"><ele>508.99999999999994</ele><time>2026-03-29T10:42:27.743Z</time></trkpt><trkpt lat="43.2205587" lon="12.1682318"><ele>509.0</ele><time>2026-03-29T10:42:29.743Z</time></trkpt><trkpt lat="43.220564" lon="12.1683766"><ele>505.2857142857142</ele><time>2026-03-29T10:42:31.743Z</time></trkpt><trkpt lat="43.2205718" lon="12.1684671"><ele>501.57142857142856</ele><time>2026-03-29T10:42:32.743Z</time></trkpt><trkpt lat="43.2205864" lon="12.1685651"><ele>497.85714285714283</ele><time>2026-03-29T10:42:33.743Z</time></trkpt><trkpt lat="43.2205881" lon="12.1686563"><ele>494.1428571428571</ele><time>2026-03-29T10:42:34.743Z</time></trkpt><trkpt lat="43.2205863" lon="12.1687431"><ele>490.42857142857144</ele><time>2026-03-29T10:42:35.743Z</time></trkpt><trkpt lat="43.2205248" lon="12.1687686"><ele>486.7142857142857</ele><time>2026-03-29T10:42:36.743Z</time></trkpt><trkpt lat="43.2204474" lon="12.1688334"><ele>483.0</ele><time>2026-03-29T10:42:37.743Z</time></trkpt><trkpt lat="43.2203481" lon="12.1689113"><ele>483.0</ele><time>2026-03-29T10:42:38.743Z</time></trkpt><trkpt lat="43.2202572" lon="12.1689745"><ele>483.0</ele><time>2026-03-29T10:42:39.742Z</time></trkpt><trkpt lat="43.2201689" lon="12.1690326"><ele>483.0</ele><time>2026-03-29T10:42:40.743Z</time></trkpt><trkpt lat="43.2201106" lon="12.1690758"><ele>483.0</ele><time>2026-03-29T10:42:41.743Z</time></trkpt><trkpt lat="43.2200533" lon="12.1691451"><ele>483.0</ele><time>2026-03-29T10:42:42.743Z</time></trkpt><trkpt lat="43.2199973" lon="12.1692208"><ele>483.0</ele><time>2026-03-29T10:42:43.743Z</time></trkpt><trkpt lat="43.219932" lon="12.1693085"><ele>481.1666666666667</ele><time>2026-03-29T10:42:44.743Z</time></trkpt><trkpt lat="43.2198783" lon="12.1693749"><ele>479.33333333333337</ele><time>2026-03-29T10:42:45.743Z</time></trkpt><trkpt lat="43.2198185" lon="12.1694201"><ele>477.5</ele><time>2026-03-29T10:42:46.743Z</time></trkpt><trkpt lat="43.219704" lon="12.1694809"><ele>475.6666666666667</ele><time>2026-03-29T10:42:48.743Z</time></trkpt><trkpt lat="43.2196023" lon="12.1695197"><ele>473.83333333333337</ele><time>2026-03-29T10:42:50.743Z</time></trkpt><trkpt lat="43.2195375" lon="12.1695353"><ele>472.0</ele><time>2026-03-29T10:42:51.743Z</time></trkpt><trkpt lat="43.2194182" lon="12.1695311"><ele>469.20000000000005</ele><time>2026-03-29T10:42:53.743Z</time></trkpt><trkpt lat="43.2193538" lon="12.1695767"><ele>466.40000000000003</ele><time>2026-03-29T10:42:55.743Z</time></trkpt><trkpt lat="43.2193284" lon="12.1697301"><ele>463.59999999999997</ele><time>2026-03-29T10:42:57.743Z</time></trkpt><trkpt lat="43.219237" lon="12.1698393"><ele>460.79999999999995</ele><time>2026-03-29T10:42:59.743Z</time></trkpt><trkpt lat="43.2191485" lon="12.1699094"><ele>458.0</ele><time>2026-03-29T10:43:00.743Z</time></trkpt><trkpt lat="43.2190812" lon="12.1699626"><ele>457.57142857142856</ele><time>2026-03-29T10:43:01.743Z</time></trkpt><trkpt lat="43.2190303" lon="12.1700357"><ele>457.14285714285717</ele><time>2026-03-29T10:43:02.743Z</time></trkpt><trkpt lat="43.2189944" lon="12.1701221"><ele>456.7142857142857</ele><time>2026-03-29T10:43:03.743Z</time></trkpt><trkpt lat="43.2189681" lon="12.1702147"><ele>456.2857142857143</ele><time>2026-03-29T10:43:04.743Z</time></trkpt><trkpt lat="43.2189441" lon="12.1702949"><ele>455.8571428571429</ele><time>2026-03-29T10:43:05.743Z</time></trkpt><trkpt lat="43.2189884" lon="12.1703811"><ele>455.42857142857144</ele><time>2026-03-29T10:43:08.743Z</time></trkpt><trkpt lat="43.2190384" lon="12.1703212"><ele>455.0</ele><time>2026-03-29T10:43:11.743Z</time></trkpt><trkpt lat="43.2191346" lon="12.1702592"><ele>455.0</ele><time>2026-03-29T10:43:23.743Z</time></trkpt><trkpt lat="43.219205" lon="12.1702401"><ele>455.0</ele><time>2026-03-29T10:43:24.743Z</time></trkpt><trkpt lat="43.2193287" lon="12.1702369"><ele>455.0</ele><time>2026-03-29T10:43:26.743Z</time></trkpt><trkpt lat="43.2194167" lon="12.1702662"><ele>455.0</ele><time>2026-03-29T10:43:27.742Z</time></trkpt><trkpt lat="43.2195025" lon="12.1703285"><ele>455.0</ele><time>2026-03-29T10:43:28.743Z</time></trkpt><trkpt lat="43.219589" lon="12.1703791"><ele>455.0</ele><time>2026-03-29T10:43:29.743Z</time></trkpt><trkpt lat="43.2196791" lon="12.1704121"><ele>455.0</ele><time>2026-03-29T10:43:30.743Z</time></trkpt><trkpt lat="43.2197732" lon="12.1704385"><ele>455.0</ele><time>2026-03-29T10:43:31.743Z</time></trkpt><trkpt lat="43.2198641" lon="12.1704369"><ele>455.0</ele><time>2026-03-29T10:43:32.743Z</time></trkpt><trkpt lat="43.2199612" lon="12.1703509"><ele>455.0</ele><time>2026-03-29T10:43:34.743Z</time></trkpt><trkpt lat="43.2200363" lon="12.1703472"><ele>456.0</ele><time>2026-03-29T10:43:35.743Z</time></trkpt><trkpt lat="43.2201214" lon="12.1703599"><ele>457.0</ele><time>2026-03-29T10:43:36.742Z</time></trkpt><trkpt lat="43.220219" lon="12.1703285"><ele>458.0</ele><time>2026-03-29T10:43:37.742Z</time></trkpt><trkpt lat="43.220315" lon="12.1702921"><ele>459.0</ele><time>2026-03-29T10:43:38.743Z</time></trkpt><trkpt lat="43.2204192" lon="12.1702304"><ele>460.0</ele><time>2026-03-29T10:43:39.742Z</time></trkpt><trkpt lat="43.2204855" lon="12.1701676"><ele>460.0</ele><time>2026-03-29T10:43:40.743Z</time></trkpt><trkpt lat="43.2205515" lon="12.170074"><ele>460.0</ele><time>2026-03-29T10:43:41.743Z</time></trkpt><trkpt lat="43.2206323" lon="12.1699846"><ele>460.0</ele><time>2026-03-29T10:43:42.743Z</time></trkpt><trkpt lat="43.2206919" lon="12.1699475"><ele>460.0</ele><time>2026-03-29T10:43:43.743Z</time></trkpt><trkpt lat="43.2208141" lon="12.1699334"><ele>460.0</ele><time>2026-03-29T10:43:45.743Z</time></trkpt><trkpt lat="43.2209068" lon="12.169917"><ele>457.4</ele><time>2026-03-29T10:43:46.743Z</time></trkpt><trkpt lat="43.2210119" lon="12.1698811"><ele>454.8</ele><time>2026-03-29T10:43:47.743Z</time></trkpt><trkpt lat="43.2211107" lon="12.1698361"><ele>452.20000000000005</ele><time>2026-03-29T10:43:48.743Z</time></trkpt><trkpt lat="43.2212119" lon="12.1697741"><ele>449.6</ele><time>2026-03-29T10:43:49.743Z</time></trkpt><trkpt lat="43.2212957" lon="12.1697069"><ele>447.0</ele><time>2026-03-29T10:43:50.743Z</time></trkpt><trkpt lat="43.221335" lon="12.1696036"><ele>448.3333333333333</ele><time>2026-03-29T10:43:51.743Z</time></trkpt><trkpt lat="43.221387" lon="12.1695229"><ele>449.66666666666663</ele><time>2026-03-29T10:43:52.743Z</time></trkpt><trkpt lat="43.2214223" lon="12.1694347"><ele>451.0</ele><time>2026-03-29T10:43:53.743Z</time></trkpt><trkpt lat="43.2214584" lon="12.1693388"><ele>452.3333333333333</ele><time>2026-03-29T10:43:54.743Z</time></trkpt><trkpt lat="43.2215024" lon="12.1692293"><ele>453.66666666666663</ele><time>2026-03-29T10:43:55.743Z</time></trkpt><trkpt lat="43.2215428" lon="12.1691266"><ele>455.0</ele><time>2026-03-29T10:43:56.743Z</time></trkpt><trkpt lat="43.2215861" lon="12.1690145"><ele>458.16666666666663</ele><time>2026-03-29T10:43:57.743Z</time></trkpt><trkpt lat="43.2216257" lon="12.1689115"><ele>461.3333333333333</ele><time>2026-03-29T10:43:58.742Z</time></trkpt><trkpt lat="43.2216748" lon="12.1688463"><ele>464.5</ele><time>2026-03-29T10:43:59.743Z</time></trkpt><trkpt lat="43.2217287" lon="12.1687882"><ele>467.66666666666663</ele><time>2026-03-29T10:44:00.743Z</time></trkpt><trkpt lat="43.2217742" lon="12.1687214"><ele>470.8333333333333</ele><time>2026-03-29T10:44:01.743Z</time></trkpt><trkpt lat="43.2218439" lon="12.1686481"><ele>474.0</ele><time>2026-03-29T10:44:03.743Z</time></trkpt><trkpt lat="43.2219172" lon="12.1686364"><ele>474.0</ele><time>2026-03-29T10:44:05.743Z</time></trkpt><trkpt lat="43.2219857" lon="12.1687158"><ele>474.0</ele><time>2026-03-29T10:44:07.743Z</time></trkpt><trkpt lat="43.2220485" lon="12.1688718"><ele>474.0</ele><time>2026-03-29T10:44:09.743Z</time></trkpt><trkpt lat="43.2221092" lon="12.1689647"><ele>474.0</ele><time>2026-03-29T10:44:10.742Z</time></trkpt><trkpt lat="43.2221352" lon="12.1690572"><ele>474.0</ele><time>2026-03-29T10:44:11.743Z</time></trkpt><trkpt lat="43.2221675" lon="12.1691326"><ele>474.0</ele><time>2026-03-29T10:44:12.743Z</time></trkpt><trkpt lat="43.2221246" lon="12.1693179"><ele>470.8333333333333</ele><time>2026-03-29T10:44:14.743Z</time></trkpt><trkpt lat="43.2222017" lon="12.1693676"><ele>467.66666666666663</ele><time>2026-03-29T10:44:17.743Z</time></trkpt><trkpt lat="43.2222767" lon="12.1693969"><ele>464.5</ele><time>2026-03-29T10:44:19.743Z</time></trkpt><trkpt lat="43.2222637" lon="12.1695187"><ele>461.3333333333333</ele><time>2026-03-29T10:44:21.743Z</time></trkpt><trkpt lat="43.2222183" lon="12.1696683"><ele>458.16666666666663</ele><time>2026-03-29T10:44:23.743Z</time></trkpt><trkpt lat="43.2221976" lon="12.1697692"><ele>455.0</ele><time>2026-03-29T10:44:24.743Z</time></trkpt><trkpt lat="43.2221667" lon="12.1698816"><ele>450.49999999999994</ele><time>2026-03-29T10:44:25.743Z</time></trkpt><trkpt lat="43.2221158" lon="12.1699615"><ele>446.0</ele><time>2026-03-29T10:44:26.743Z</time></trkpt><trkpt lat="43.2221049" lon="12.1700563"><ele>441.5</ele><time>2026-03-29T10:44:27.743Z</time></trkpt><trkpt lat="43.2221204" lon="12.1701711"><ele>437.0</ele><time>2026-03-29T10:44:28.743Z</time></trkpt><trkpt lat="43.2221332" lon="12.1702992"><ele>432.49999999999994</ele><time>2026-03-29T10:44:29.743Z</time></trkpt><trkpt lat="43.2221665" lon="12.1704"><ele>428.0</ele><time>2026-03-29T10:44:30.743Z</time></trkpt><trkpt lat="43.2222068" lon="12.1704743"><ele>427.99999999999994</ele><time>2026-03-29T10:44:31.743Z</time></trkpt><trkpt lat="43.2222824" lon="12.1705161"><ele>428.0</ele><time>2026-03-29T10:44:32.743Z</time></trkpt><trkpt lat="43.2223472" lon="12.1705694"><ele>428.0</ele><time>2026-03-29T10:44:33.743Z</time></trkpt><trkpt lat="43.2224085" lon="12.1706419"><ele>428.0</ele><time>2026-03-29T10:44:34.743Z</time></trkpt><trkpt lat="43.2224472" lon="12.1707429"><ele>427.99999999999994</ele><time>2026-03-29T10:44:35.743Z</time></trkpt><trkpt lat="43.2224769" lon="12.1708241"><ele>428.0</ele><time>2026-03-29T10:44:36.743Z</time></trkpt><trkpt lat="43.2225282" lon="12.1708992"><ele>427.79999999999995</ele><time>2026-03-29T10:44:37.743Z</time></trkpt><trkpt lat="43.2225839" lon="12.1709724"><ele>427.59999999999997</ele><time>2026-03-29T10:44:38.743Z</time></trkpt><trkpt lat="43.2226309" lon="12.1711253"><ele>427.40000000000003</ele><time>2026-03-29T10:44:40.743Z</time></trkpt><trkpt lat="43.2226378" lon="12.1712997"><ele>427.20000000000005</ele><time>2026-03-29T10:44:41.743Z</time></trkpt><trkpt lat="43.2226873" lon="12.1714407"><ele>427.0</ele><time>2026-03-29T10:44:42.743Z</time></trkpt><trkpt lat="43.2226758" lon="12.171561"><ele>425.75</ele><time>2026-03-29T10:44:43.743Z</time></trkpt><trkpt lat="43.2226873" lon="12.1716953"><ele>424.5</ele><time>2026-03-29T10:44:44.743Z</time></trkpt><trkpt lat="43.2226558" lon="12.1718411"><ele>423.25</ele><time>2026-03-29T10:44:45.743Z</time></trkpt><trkpt lat="43.2225477" lon="12.1721134"><ele>422.0</ele><time>2026-03-29T10:44:46.742Z</time></trkpt><trkpt lat="43.2225019" lon="12.1722725"><ele>422.75</ele><time>2026-03-29T10:44:47.743Z</time></trkpt><trkpt lat="43.2224478" lon="12.1724322"><ele>423.5</ele><time>2026-03-29T10:44:48.743Z</time></trkpt><trkpt lat="43.2224257" lon="12.1725738"><ele>424.25</ele><time>2026-03-29T10:44:49.743Z</time></trkpt><trkpt lat="43.2223808" lon="12.1727392"><ele>425.0</ele><time>2026-03-29T10:44:50.743Z</time></trkpt><trkpt lat="43.2223248" lon="12.1729151"><ele>421.8</ele><time>2026-03-29T10:44:51.743Z</time></trkpt><trkpt lat="43.2222596" lon="12.1730751"><ele>418.6</ele><time>2026-03-29T10:44:52.743Z</time></trkpt><trkpt lat="43.2222026" lon="12.1731699"><ele>415.4</ele><time>2026-03-29T10:44:53.743Z</time></trkpt><trkpt lat="43.2221215" lon="12.1732345"><ele>412.2</ele><time>2026-03-29T10:44:54.742Z</time></trkpt><trkpt lat="43.2220106" lon="12.173272"><ele>409.0</ele><time>2026-03-29T10:44:55.743Z</time></trkpt><trkpt lat="43.2219286" lon="12.1733249"><ele>409.0</ele><time>2026-03-29T10:44:56.743Z</time></trkpt><trkpt lat="43.2218503" lon="12.1733964"><ele>409.0</ele><time>2026-03-29T10:44:57.743Z</time></trkpt><trkpt lat="43.2217361" lon="12.1736113"><ele>409.0</ele><time>2026-03-29T10:44:59.743Z</time></trkpt><trkpt lat="43.2217384" lon="12.1737537"><ele>409.0</ele><time>2026-03-29T10:45:00.743Z</time></trkpt><trkpt lat="43.2217991" lon="12.1739313"><ele>407.75</ele><time>2026-03-29T10:45:01.743Z</time></trkpt><trkpt lat="43.2218609" lon="12.1741754"><ele>406.5</ele><time>2026-03-29T10:45:02.743Z</time></trkpt><trkpt lat="43.2219084" lon="12.1743578"><ele>405.25</ele><time>2026-03-29T10:45:03.743Z</time></trkpt><trkpt lat="43.2219667" lon="12.1744935"><ele>404.0</ele><time>2026-03-29T10:45:04.743Z</time></trkpt><trkpt lat="43.222026" lon="12.1746357"><ele>404.0</ele><time>2026-03-29T10:45:05.743Z</time></trkpt><trkpt lat="43.222122" lon="12.1747428"><ele>404.0</ele><time>2026-03-29T10:45:06.742Z</time></trkpt><trkpt lat="43.2222204" lon="12.1748076"><ele>404.0</ele><time>2026-03-29T10:45:07.743Z</time></trkpt><trkpt lat="43.2223273" lon="12.1748531"><ele>404.0</ele><time>2026-03-29T10:45:08.743Z</time></trkpt><trkpt lat="43.2224518" lon="12.1748579"><ele>404.75</ele><time>2026-03-29T10:45:09.743Z</time></trkpt><trkpt lat="43.2225799" lon="12.1748621"><ele>405.5</ele><time>2026-03-29T10:45:10.743Z</time></trkpt><trkpt lat="43.2226986" lon="12.1748743"><ele>406.25</ele><time>2026-03-29T10:45:11.743Z</time></trkpt><trkpt lat="43.2228096" lon="12.1748894"><ele>407.0</ele><time>2026-03-29T10:45:12.743Z</time></trkpt><trkpt lat="43.2229311" lon="12.1749199"><ele>407.0</ele><time>2026-03-29T10:45:13.743Z</time></trkpt><trkpt lat="43.2230537" lon="12.1749535"><ele>407.0</ele><time>2026-03-29T10:45:14.743Z</time></trkpt><trkpt lat="43.2231598" lon="12.1749827"><ele>407.0</ele><time>2026-03-29T10:45:15.743Z</time></trkpt><trkpt lat="43.223254" lon="12.175018"><ele>407.0</ele><time>2026-03-29T10:45:16.743Z</time></trkpt><trkpt lat="43.2233074" lon="12.1750918"><ele>407.0</ele><time>2026-03-29T10:45:17.743Z</time></trkpt><trkpt lat="43.2233322" lon="12.1751871"><ele>407.0</ele><time>2026-03-29T10:45:18.742Z</time></trkpt><trkpt lat="43.2232995" lon="12.1753023"><ele>407.0</ele><time>2026-03-29T10:45:19.743Z</time></trkpt><trkpt lat="43.2232431" lon="12.1753884"><ele>407.0</ele><time>2026-03-29T10:45:20.743Z</time></trkpt><trkpt lat="43.2231549" lon="12.1754549"><ele>407.0</ele><time>2026-03-29T10:45:21.743Z</time></trkpt><trkpt lat="43.223034" lon="12.1754761"><ele>407.0</ele><time>2026-03-29T10:45:22.743Z</time></trkpt><trkpt lat="43.2229389" lon="12.1755512"><ele>407.0</ele><time>2026-03-29T10:45:23.743Z</time></trkpt><trkpt lat="43.2228217" lon="12.1756682"><ele>407.0</ele><time>2026-03-29T10:45:24.743Z</time></trkpt><trkpt lat="43.2227141" lon="12.1757337"><ele>407.0</ele><time>2026-03-29T10:45:25.743Z</time></trkpt><trkpt lat="43.2225938" lon="12.1757838"><ele>407.0</ele><time>2026-03-29T10:45:26.742Z</time></trkpt><trkpt lat="43.222492" lon="12.1758671"><ele>404.3333333333333</ele><time>2026-03-29T10:45:27.743Z</time></trkpt><trkpt lat="43.2223778" lon="12.1760072"><ele>401.66666666666663</ele><time>2026-03-29T10:45:28.743Z</time></trkpt><trkpt lat="43.2222602" lon="12.176169"><ele>399.0</ele><time>2026-03-29T10:45:29.743Z</time></trkpt><trkpt lat="43.2221551" lon="12.1763128"><ele>396.6</ele><time>2026-03-29T10:45:30.743Z</time></trkpt><trkpt lat="43.2220791" lon="12.176441"><ele>394.2</ele><time>2026-03-29T10:45:31.743Z</time></trkpt><trkpt lat="43.2220093" lon="12.1765172"><ele>391.8</ele><time>2026-03-29T10:45:32.742Z</time></trkpt><trkpt lat="43.2219256" lon="12.1765523"><ele>389.40000000000003</ele><time>2026-03-29T10:45:33.743Z</time></trkpt><trkpt lat="43.221807" lon="12.1765629"><ele>387.0</ele><time>2026-03-29T10:45:34.743Z</time></trkpt><trkpt lat="43.2216916" lon="12.176557"><ele>387.0</ele><time>2026-03-29T10:45:35.743Z</time></trkpt><trkpt lat="43.2215908" lon="12.1765423"><ele>387.0</ele><time>2026-03-29T10:45:36.743Z</time></trkpt><trkpt lat="43.2214901" lon="12.1765171"><ele>387.0</ele><time>2026-03-29T10:45:37.742Z</time></trkpt><trkpt lat="43.2213952" lon="12.1764821"><ele>387.0</ele><time>2026-03-29T10:45:38.743Z</time></trkpt><trkpt lat="43.2212853" lon="12.1764387"><ele>387.0</ele><time>2026-03-29T10:45:39.743Z</time></trkpt><trkpt lat="43.2211787" lon="12.1763955"><ele>385.0</ele><time>2026-03-29T10:45:40.743Z</time></trkpt><trkpt lat="43.2210617" lon="12.1763482"><ele>383.0</ele><time>2026-03-29T10:45:41.742Z</time></trkpt><trkpt lat="43.2209466" lon="12.1763113"><ele>381.0</ele><time>2026-03-29T10:45:42.743Z</time></trkpt><trkpt lat="43.220849" lon="12.1762727"><ele>379.0</ele><time>2026-03-29T10:45:43.742Z</time></trkpt><trkpt lat="43.2207687" lon="12.1762656"><ele>377.0</ele><time>2026-03-29T10:45:44.743Z</time></trkpt><trkpt lat="43.2207081" lon="12.1763143"><ele>374.8</ele><time>2026-03-29T10:45:45.743Z</time></trkpt><trkpt lat="43.2206463" lon="12.1763833"><ele>372.6</ele><time>2026-03-29T10:45:46.743Z</time></trkpt><trkpt lat="43.2205808" lon="12.1764788"><ele>370.40000000000003</ele><time>2026-03-29T10:45:47.743Z</time></trkpt><trkpt lat="43.2205167" lon="12.1765654"><ele>368.20000000000005</ele><time>2026-03-29T10:45:48.743Z</time></trkpt><trkpt lat="43.2204464" lon="12.1766083"><ele>366.0</ele><time>2026-03-29T10:45:49.742Z</time></trkpt><trkpt lat="43.2203454" lon="12.1766602"><ele>364.75</ele><time>2026-03-29T10:45:50.743Z</time></trkpt><trkpt lat="43.2202383" lon="12.1767084"><ele>363.5</ele><time>2026-03-29T10:45:51.743Z</time></trkpt><trkpt lat="43.2201125" lon="12.1767701"><ele>362.25</ele><time>2026-03-29T10:45:52.743Z</time></trkpt><trkpt lat="43.2199755" lon="12.1768418"><ele>361.0</ele><time>2026-03-29T10:45:53.743Z</time></trkpt><trkpt lat="43.2198225" lon="12.1769069"><ele>357.66666666666663</ele><time>2026-03-29T10:45:54.743Z</time></trkpt><trkpt lat="43.2196452" lon="12.1769924"><ele>354.3333333333333</ele><time>2026-03-29T10:45:55.743Z</time></trkpt><trkpt lat="43.2194783" lon="12.1770765"><ele>351.0</ele><time>2026-03-29T10:45:56.743Z</time></trkpt><trkpt lat="43.2193233" lon="12.1771693"><ele>351.0</ele><time>2026-03-29T10:45:57.743Z</time></trkpt><trkpt lat="43.2191795" lon="12.1772768"><ele>351.0</ele><time>2026-03-29T10:45:58.743Z</time></trkpt><trkpt lat="43.2190304" lon="12.1774228"><ele>351.0</ele><time>2026-03-29T10:45:59.743Z</time></trkpt><trkpt lat="43.2188879" lon="12.1775615"><ele>347.3333333333333</ele><time>2026-03-29T10:46:00.743Z</time></trkpt><trkpt lat="43.2187506" lon="12.1776906"><ele>343.66666666666663</ele><time>2026-03-29T10:46:01.743Z</time></trkpt><trkpt lat="43.2186164" lon="12.1778127"><ele>340.0</ele><time>2026-03-29T10:46:02.743Z</time></trkpt><trkpt lat="43.2184958" lon="12.177942"><ele>340.0</ele><time>2026-03-29T10:46:03.743Z</time></trkpt><trkpt lat="43.2183737" lon="12.1780708"><ele>340.0</ele><time>2026-03-29T10:46:04.743Z</time></trkpt><trkpt lat="43.2182288" lon="12.1781772"><ele>340.0</ele><time>2026-03-29T10:46:05.743Z</time></trkpt><trkpt lat="43.2180807" lon="12.1782763"><ele>339.0</ele><time>2026-03-29T10:46:06.743Z</time></trkpt><trkpt lat="43.2179418" lon="12.1783649"><ele>338.0</ele><time>2026-03-29T10:46:07.743Z</time></trkpt><trkpt lat="43.2178138" lon="12.1784402"><ele>337.0</ele><time>2026-03-29T10:46:08.743Z</time></trkpt><trkpt lat="43.2177042" lon="12.1784948"><ele>336.0</ele><time>2026-03-29T10:46:09.743Z</time></trkpt><trkpt lat="43.2176114" lon="12.1785184"><ele>336.0</ele><time>2026-03-29T10:46:10.743Z</time></trkpt><trkpt lat="43.2175301" lon="12.1785185"><ele>336.0</ele><time>2026-03-29T10:46:11.743Z</time></trkpt><trkpt lat="43.2174221" lon="12.17855"><ele>336.0</ele><time>2026-03-29T10:46:13.743Z</time></trkpt><trkpt lat="43.217359" lon="12.1785941"><ele>336.0</ele><time>2026-03-29T10:46:15.743Z</time></trkpt><trkpt lat="43.217297" lon="12.1786432"><ele>336.0</ele><time>2026-03-29T10:46:19.742Z</time></trkpt><trkpt lat="43.2172637" lon="12.178726"><ele>336.0</ele><time>2026-03-29T10:46:22.743Z</time></trkpt><trkpt lat="43.2173238" lon="12.1786547"><ele>336.0</ele><time>2026-03-29T10:46:25.743Z</time></trkpt><trkpt lat="43.2173808" lon="12.1785855"><ele>336.0</ele><time>2026-03-29T10:46:28.743Z</time></trkpt><trkpt lat="43.2173115" lon="12.1786292"><ele>336.0</ele><time>2026-03-29T10:46:38.743Z</time></trkpt><trkpt lat="43.2172678" lon="12.1786927"><ele>336.0</ele><time>2026-03-29T10:46:41.743Z</time></trkpt><trkpt lat="43.2173122" lon="12.1786294"><ele>336.0</ele><time>2026-03-29T10:50:34.743Z</time></trkpt><trkpt lat="43.2173964" lon="12.1785681"><ele>336.0</ele><time>2026-03-29T10:51:15.743Z</time></trkpt><trkpt lat="43.2173589" lon="12.1786717"><ele>334.8</ele><time>2026-03-29T10:51:23.743Z</time></trkpt><trkpt lat="43.2172966" lon="12.1787033"><ele>333.6</ele><time>2026-03-29T10:51:25.743Z</time></trkpt><trkpt lat="43.2172184" lon="12.1787426"><ele>332.4</ele><time>2026-03-29T10:52:13.743Z</time></trkpt><trkpt lat="43.2171465" lon="12.1788291"><ele>331.2</ele><time>2026-03-29T10:52:15.743Z</time></trkpt><trkpt lat="43.2170555" lon="12.1789065"><ele>330.0</ele><time>2026-03-29T10:52:16.743Z</time></trkpt><trkpt lat="43.2168829" lon="12.1790276"><ele>329.6666666666667</ele><time>2026-03-29T10:52:17.743Z</time></trkpt><trkpt lat="43.2167489" lon="12.1791367"><ele>329.33333333333337</ele><time>2026-03-29T10:52:18.743Z</time></trkpt><trkpt lat="43.2166148" lon="12.1792425"><ele>329.0</ele><time>2026-03-29T10:52:19.743Z</time></trkpt><trkpt lat="43.216478" lon="12.1793604"><ele>326.33333333333337</ele><time>2026-03-29T10:52:20.743Z</time></trkpt><trkpt lat="43.2163372" lon="12.1794775"><ele>323.6666666666667</ele><time>2026-03-29T10:52:21.743Z</time></trkpt><trkpt lat="43.2162112" lon="12.1795914"><ele>321.0</ele><time>2026-03-29T10:52:22.743Z</time></trkpt><trkpt lat="43.216084" lon="12.1797051"><ele>321.0</ele><time>2026-03-29T10:52:23.743Z</time></trkpt><trkpt lat="43.215978" lon="12.1798178"><ele>321.0</ele><time>2026-03-29T10:52:24.743Z</time></trkpt><trkpt lat="43.2159016" lon="12.1799471"><ele>321.0</ele><time>2026-03-29T10:52:25.743Z</time></trkpt><trkpt lat="43.2158648" lon="12.1800891"><ele>321.0</ele><time>2026-03-29T10:52:26.743Z</time></trkpt><trkpt lat="43.2158555" lon="12.1802278"><ele>320.5</ele><time>2026-03-29T10:52:27.743Z</time></trkpt><trkpt lat="43.2158458" lon="12.180359"><ele>320.0</ele><time>2026-03-29T10:52:28.743Z</time></trkpt><trkpt lat="43.2159446" lon="12.1804632"><ele>319.5</ele><time>2026-03-29T10:52:29.743Z</time></trkpt><trkpt lat="43.2160222" lon="12.1805691"><ele>319.0</ele><time>2026-03-29T10:52:30.743Z</time></trkpt><trkpt lat="43.2161102" lon="12.1806848"><ele>318.75</ele><time>2026-03-29T10:52:31.743Z</time></trkpt><trkpt lat="43.2161978" lon="12.1807946"><ele>318.5</ele><time>2026-03-29T10:52:32.743Z</time></trkpt><trkpt lat="43.2162927" lon="12.1808855"><ele>318.25</ele><time>2026-03-29T10:52:33.743Z</time></trkpt><trkpt lat="43.2164014" lon="12.18097"><ele>318.0</ele><time>2026-03-29T10:52:34.743Z</time></trkpt><trkpt lat="43.2165027" lon="12.1810659"><ele>318.25</ele><time>2026-03-29T10:52:35.743Z</time></trkpt><trkpt lat="43.2165997" lon="12.1811886"><ele>318.5</ele><time>2026-03-29T10:52:36.743Z</time></trkpt><trkpt lat="43.2167003" lon="12.1813299"><ele>318.75</ele><time>2026-03-29T10:52:37.743Z</time></trkpt><trkpt lat="43.2168076" lon="12.181482"><ele>319.0</ele><time>2026-03-29T10:52:38.743Z</time></trkpt><trkpt lat="43.2169189" lon="12.181644"><ele>319.0</ele><time>2026-03-29T10:52:39.743Z</time></trkpt><trkpt lat="43.2170337" lon="12.1818168"><ele>319.0</ele><time>2026-03-29T10:52:40.743Z</time></trkpt><trkpt lat="43.217147" lon="12.1819857"><ele>319.0</ele><time>2026-03-29T10:52:41.743Z</time></trkpt><trkpt lat="43.2172513" lon="12.1821475"><ele>320.3333333333333</ele><time>2026-03-29T10:52:42.742Z</time></trkpt><trkpt lat="43.2173611" lon="12.1823245"><ele>321.6666666666667</ele><time>2026-03-29T10:52:43.743Z</time></trkpt><trkpt lat="43.2174735" lon="12.182504"><ele>323.0</ele><time>2026-03-29T10:52:44.743Z</time></trkpt><trkpt lat="43.2175914" lon="12.1826836"><ele>323.0</ele><time>2026-03-29T10:52:45.743Z</time></trkpt><trkpt lat="43.2177125" lon="12.1828621"><ele>323.0</ele><time>2026-03-29T10:52:46.743Z</time></trkpt><trkpt lat="43.217829" lon="12.1830402"><ele>323.0</ele><time>2026-03-29T10:52:47.743Z</time></trkpt><trkpt lat="43.2179493" lon="12.1832147"><ele>323.33333333333337</ele><time>2026-03-29T10:52:48.743Z</time></trkpt><trkpt lat="43.2180676" lon="12.1833918"><ele>323.6666666666667</ele><time>2026-03-29T10:52:49.743Z</time></trkpt><trkpt lat="43.2181849" lon="12.1835724"><ele>324.0</ele><time>2026-03-29T10:52:50.743Z</time></trkpt><trkpt lat="43.2183041" lon="12.183746"><ele>324.3333333333333</ele><time>2026-03-29T10:52:51.742Z</time></trkpt><trkpt lat="43.2184265" lon="12.1839277"><ele>324.66666666666663</ele><time>2026-03-29T10:52:52.743Z</time></trkpt><trkpt lat="43.2185401" lon="12.1841036"><ele>325.0</ele><time>2026-03-29T10:52:53.742Z</time></trkpt><trkpt lat="43.2186524" lon="12.1842751"><ele>325.0</ele><time>2026-03-29T10:52:54.743Z</time></trkpt><trkpt lat="43.2187701" lon="12.1844439"><ele>325.0</ele><time>2026-03-29T10:52:55.743Z</time></trkpt><trkpt lat="43.2188843" lon="12.1846017"><ele>325.0</ele><time>2026-03-29T10:52:56.743Z</time></trkpt><trkpt lat="43.2190083" lon="12.1847547"><ele>326.0</ele><time>2026-03-29T10:52:57.743Z</time></trkpt><trkpt lat="43.2191314" lon="12.184907"><ele>327.0</ele><time>2026-03-29T10:52:58.743Z</time></trkpt><trkpt lat="43.219252" lon="12.1850456"><ele>328.0</ele><time>2026-03-29T10:52:59.743Z</time></trkpt><trkpt lat="43.2193714" lon="12.1851542"><ele>328.0</ele><time>2026-03-29T10:53:00.743Z</time></trkpt><trkpt lat="43.2194897" lon="12.1852797"><ele>328.0</ele><time>2026-03-29T10:53:01.743Z</time></trkpt><trkpt lat="43.21961" lon="12.1854079"><ele>328.0</ele><time>2026-03-29T10:53:02.743Z</time></trkpt><trkpt lat="43.2197322" lon="12.1855351"><ele>328.66666666666663</ele><time>2026-03-29T10:53:03.743Z</time></trkpt><trkpt lat="43.2198633" lon="12.1856588"><ele>329.3333333333333</ele><time>2026-03-29T10:53:04.743Z</time></trkpt><trkpt lat="43.2199927" lon="12.1857879"><ele>330.0</ele><time>2026-03-29T10:53:05.743Z</time></trkpt><trkpt lat="43.220135" lon="12.1859155"><ele>327.5</ele><time>2026-03-29T10:53:06.743Z</time></trkpt><trkpt lat="43.2202771" lon="12.1860329"><ele>325.0</ele><time>2026-03-29T10:53:07.743Z</time></trkpt><trkpt lat="43.2204025" lon="12.1861474"><ele>322.5</ele><time>2026-03-29T10:53:08.743Z</time></trkpt><trkpt lat="43.2205103" lon="12.1862481"><ele>320.0</ele><time>2026-03-29T10:53:09.743Z</time></trkpt><trkpt lat="43.2206114" lon="12.1863449"><ele>320.6</ele><time>2026-03-29T10:53:10.742Z</time></trkpt><trkpt lat="43.2207081" lon="12.18643"><ele>321.2</ele><time>2026-03-29T10:53:11.743Z</time></trkpt><trkpt lat="43.2207889" lon="12.1865182"><ele>321.79999999999995</ele><time>2026-03-29T10:53:12.743Z</time></trkpt><trkpt lat="43.2208567" lon="12.1865994"><ele>322.4</ele><time>2026-03-29T10:53:13.743Z</time></trkpt><trkpt lat="43.2208868" lon="12.1866861"><ele>323.0</ele><time>2026-03-29T10:53:14.743Z</time></trkpt><trkpt lat="43.2209196" lon="12.1868035"><ele>323.2</ele><time>2026-03-29T10:53:16.743Z</time></trkpt><trkpt lat="43.2209139" lon="12.1869525"><ele>323.4</ele><time>2026-03-29T10:53:18.743Z</time></trkpt><trkpt lat="43.22091" lon="12.1870453"><ele>323.59999999999997</ele><time>2026-03-29T10:53:19.743Z</time></trkpt><trkpt lat="43.2208925" lon="12.1871776"><ele>323.79999999999995</ele><time>2026-03-29T10:53:20.743Z</time></trkpt><trkpt lat="43.2208762" lon="12.1873436"><ele>324.0</ele><time>2026-03-29T10:53:21.743Z</time></trkpt><trkpt lat="43.2208638" lon="12.1875303"><ele>323.0</ele><time>2026-03-29T10:53:22.743Z</time></trkpt><trkpt lat="43.2208496" lon="12.1877254"><ele>322.0</ele><time>2026-03-29T10:53:23.743Z</time></trkpt><trkpt lat="43.2208288" lon="12.1879359"><ele>321.0</ele><time>2026-03-29T10:53:24.743Z</time></trkpt><trkpt lat="43.2207981" lon="12.1881373"><ele>320.0</ele><time>2026-03-29T10:53:25.743Z</time></trkpt><trkpt lat="43.2207658" lon="12.1883512"><ele>318.6666666666667</ele><time>2026-03-29T10:53:26.743Z</time></trkpt><trkpt lat="43.2207209" lon="12.1885556"><ele>317.3333333333333</ele><time>2026-03-29T10:53:27.743Z</time></trkpt><trkpt lat="43.2206716" lon="12.1887509"><ele>316.0</ele><time>2026-03-29T10:53:28.743Z</time></trkpt><trkpt lat="43.2206019" lon="12.1889264"><ele>316.3333333333333</ele><time>2026-03-29T10:53:29.743Z</time></trkpt><trkpt lat="43.2205183" lon="12.1891017"><ele>316.6666666666667</ele><time>2026-03-29T10:53:30.743Z</time></trkpt><trkpt lat="43.2204071" lon="12.1892706"><ele>317.0</ele><time>2026-03-29T10:53:31.742Z</time></trkpt><trkpt lat="43.2202981" lon="12.1894363"><ele>317.0</ele><time>2026-03-29T10:53:32.743Z</time></trkpt><trkpt lat="43.2201846" lon="12.1896054"><ele>317.0</ele><time>2026-03-29T10:53:33.743Z</time></trkpt><trkpt lat="43.2200758" lon="12.1897718"><ele>317.0</ele><time>2026-03-29T10:53:34.743Z</time></trkpt><trkpt lat="43.2199748" lon="12.1899352"><ele>316.33333333333337</ele><time>2026-03-29T10:53:35.743Z</time></trkpt><trkpt lat="43.2198695" lon="12.1900851"><ele>315.6666666666667</ele><time>2026-03-29T10:53:36.743Z</time></trkpt><trkpt lat="43.2197725" lon="12.1902525"><ele>315.0</ele><time>2026-03-29T10:53:37.742Z</time></trkpt><trkpt lat="43.2196658" lon="12.1904236"><ele>315.0</ele><time>2026-03-29T10:53:38.743Z</time></trkpt><trkpt lat="43.2195581" lon="12.1905856"><ele>315.0</ele><time>2026-03-29T10:53:39.743Z</time></trkpt><trkpt lat="43.219454" lon="12.1907405"><ele>315.0</ele><time>2026-03-29T10:53:40.743Z</time></trkpt><trkpt lat="43.2193628" lon="12.1908891"><ele>315.2</ele><time>2026-03-29T10:53:41.742Z</time></trkpt><trkpt lat="43.2192817" lon="12.1910286"><ele>315.4</ele><time>2026-03-29T10:53:42.743Z</time></trkpt><trkpt lat="43.2192096" lon="12.1911431"><ele>315.6</ele><time>2026-03-29T10:53:43.743Z</time></trkpt><trkpt lat="43.2191627" lon="12.1912462"><ele>315.8</ele><time>2026-03-29T10:53:44.743Z</time></trkpt><trkpt lat="43.2191191" lon="12.1913259"><ele>316.0</ele><time>2026-03-29T10:53:45.743Z</time></trkpt><trkpt lat="43.2190536" lon="12.1913955"><ele>315.2</ele><time>2026-03-29T10:53:46.743Z</time></trkpt><trkpt lat="43.2189555" lon="12.1914487"><ele>314.40000000000003</ele><time>2026-03-29T10:53:47.743Z</time></trkpt><trkpt lat="43.2188467" lon="12.1915094"><ele>313.6</ele><time>2026-03-29T10:53:48.743Z</time></trkpt><trkpt lat="43.2187359" lon="12.1915629"><ele>312.8</ele><time>2026-03-29T10:53:49.743Z</time></trkpt><trkpt lat="43.2186403" lon="12.1915971"><ele>312.0</ele><time>2026-03-29T10:53:50.743Z</time></trkpt><trkpt lat="43.2185658" lon="12.1916304"><ele>312.0</ele><time>2026-03-29T10:53:51.743Z</time></trkpt><trkpt lat="43.2185491" lon="12.1917382"><ele>312.0</ele><time>2026-03-29T10:53:53.743Z</time></trkpt><trkpt lat="43.2185591" lon="12.1918248"><ele>312.0</ele><time>2026-03-29T10:53:54.743Z</time></trkpt><trkpt lat="43.2185883" lon="12.1919111"><ele>312.0</ele><time>2026-03-29T10:53:55.743Z</time></trkpt><trkpt lat="43.218625" lon="12.1920233"><ele>312.0</ele><time>2026-03-29T10:53:56.743Z</time></trkpt><trkpt lat="43.2186593" lon="12.1921211"><ele>312.0</ele><time>2026-03-29T10:53:57.743Z</time></trkpt><trkpt lat="43.2187035" lon="12.192205"><ele>312.0</ele><time>2026-03-29T10:53:58.743Z</time></trkpt><trkpt lat="43.2187414" lon="12.1922899"><ele>312.0</ele><time>2026-03-29T10:53:59.743Z</time></trkpt><trkpt lat="43.2187833" lon="12.1923614"><ele>312.0</ele><time>2026-03-29T10:54:00.742Z</time></trkpt><trkpt lat="43.2188693" lon="12.1924753"><ele>312.0</ele><time>2026-03-29T10:54:02.743Z</time></trkpt><trkpt lat="43.2189332" lon="12.192446"><ele>312.0</ele><time>2026-03-29T10:54:05.743Z</time></trkpt><trkpt lat="43.2188789" lon="12.1923928"><ele>312.0</ele><time>2026-03-29T10:54:07.743Z</time></trkpt><trkpt lat="43.2187917" lon="12.1923904"><ele>312.0</ele><time>2026-03-29T10:54:09.742Z</time></trkpt><trkpt lat="43.2187239" lon="12.1922938"><ele>312.0</ele><time>2026-03-29T10:54:11.743Z</time></trkpt><trkpt lat="43.218687" lon="12.192208"><ele>312.0</ele><time>2026-03-29T10:54:12.743Z</time></trkpt><trkpt lat="43.2186458" lon="12.1921122"><ele>312.0</ele><time>2026-03-29T10:54:13.743Z</time></trkpt><trkpt lat="43.2186027" lon="12.1919971"><ele>312.0</ele><time>2026-03-29T10:54:14.743Z</time></trkpt><trkpt lat="43.2185638" lon="12.1918824"><ele>312.0</ele><time>2026-03-29T10:54:15.743Z</time></trkpt><trkpt lat="43.2185381" lon="12.1917713"><ele>312.0</ele><time>2026-03-29T10:54:16.743Z</time></trkpt><trkpt lat="43.2184519" lon="12.1916634"><ele>312.0</ele><time>2026-03-29T10:54:18.743Z</time></trkpt><trkpt lat="43.2183672" lon="12.1916556"><ele>312.0</ele><time>2026-03-29T10:54:19.742Z</time></trkpt><trkpt lat="43.2182644" lon="12.1916652"><ele>312.0</ele><time>2026-03-29T10:54:20.743Z</time></trkpt><trkpt lat="43.2181371" lon="12.1916817"><ele>312.0</ele><time>2026-03-29T10:54:21.743Z</time></trkpt><trkpt lat="43.2180024" lon="12.1916925"><ele>312.0</ele><time>2026-03-29T10:54:22.742Z</time></trkpt><trkpt lat="43.2178601" lon="12.1917054"><ele>312.0</ele><time>2026-03-29T10:54:23.743Z</time></trkpt><trkpt lat="43.2177148" lon="12.191721"><ele>312.0</ele><time>2026-03-29T10:54:24.743Z</time></trkpt><trkpt lat="43.2175671" lon="12.191734"><ele>312.0</ele><time>2026-03-29T10:54:25.743Z</time></trkpt><trkpt lat="43.2174234" lon="12.1917496"><ele>312.25</ele><time>2026-03-29T10:54:26.743Z</time></trkpt><trkpt lat="43.2172718" lon="12.1917664"><ele>312.5</ele><time>2026-03-29T10:54:27.743Z</time></trkpt><trkpt lat="43.2171394" lon="12.1917766"><ele>312.75</ele><time>2026-03-29T10:54:28.743Z</time></trkpt><trkpt lat="43.2170057" lon="12.1917898"><ele>313.0</ele><time>2026-03-29T10:54:29.743Z</time></trkpt><trkpt lat="43.2168881" lon="12.1918027"><ele>313.0</ele><time>2026-03-29T10:54:30.743Z</time></trkpt><trkpt lat="43.2167892" lon="12.1918079"><ele>313.0</ele><time>2026-03-29T10:54:31.743Z</time></trkpt><trkpt lat="43.2166926" lon="12.1918133"><ele>313.0</ele><time>2026-03-29T10:54:32.743Z</time></trkpt><trkpt lat="43.2166061" lon="12.1918203"><ele>313.0</ele><time>2026-03-29T10:54:33.743Z</time></trkpt><trkpt lat="43.2165355" lon="12.1918278"><ele>313.0</ele><time>2026-03-29T10:54:34.743Z</time></trkpt><trkpt lat="43.2164656" lon="12.1919101"><ele>313.0</ele><time>2026-03-29T10:54:36.743Z</time></trkpt><trkpt lat="43.2164606" lon="12.192076"><ele>313.0</ele><time>2026-03-29T10:54:38.743Z</time></trkpt><trkpt lat="43.2164725" lon="12.1921943"><ele>313.0</ele><time>2026-03-29T10:54:39.743Z</time></trkpt><trkpt lat="43.2164899" lon="12.1923255"><ele>313.0</ele><time>2026-03-29T10:54:40.743Z</time></trkpt><trkpt lat="43.216531" lon="12.1924616"><ele>313.0</ele><time>2026-03-29T10:54:41.742Z</time></trkpt><trkpt lat="43.2165844" lon="12.1926143"><ele>313.0</ele><time>2026-03-29T10:54:42.743Z</time></trkpt><trkpt lat="43.2166516" lon="12.1927661"><ele>313.0</ele><time>2026-03-29T10:54:43.742Z</time></trkpt><trkpt lat="43.2167231" lon="12.1929202"><ele>313.0</ele><time>2026-03-29T10:54:44.743Z</time></trkpt><trkpt lat="43.216788" lon="12.1930699"><ele>313.0</ele><time>2026-03-29T10:54:45.743Z</time></trkpt><trkpt lat="43.2168526" lon="12.1932338"><ele>313.0</ele><time>2026-03-29T10:54:46.743Z</time></trkpt><trkpt lat="43.2169131" lon="12.193395"><ele>313.25</ele><time>2026-03-29T10:54:47.743Z</time></trkpt><trkpt lat="43.2169821" lon="12.1935524"><ele>313.5</ele><time>2026-03-29T10:54:48.743Z</time></trkpt><trkpt lat="43.2170449" lon="12.1937001"><ele>313.75</ele><time>2026-03-29T10:54:49.743Z</time></trkpt><trkpt lat="43.2170998" lon="12.193838"><ele>314.0</ele><time>2026-03-29T10:54:50.743Z</time></trkpt><trkpt lat="43.217152" lon="12.1939685"><ele>313.8</ele><time>2026-03-29T10:54:51.743Z</time></trkpt><trkpt lat="43.217201" lon="12.1940939"><ele>313.59999999999997</ele><time>2026-03-29T10:54:52.743Z</time></trkpt><trkpt lat="43.2172569" lon="12.1942107"><ele>313.4</ele><time>2026-03-29T10:54:53.743Z</time></trkpt><trkpt lat="43.2173085" lon="12.1943141"><ele>313.2</ele><time>2026-03-29T10:54:54.743Z</time></trkpt><trkpt lat="43.2173558" lon="12.1944145"><ele>313.0</ele><time>2026-03-29T10:54:55.743Z</time></trkpt><trkpt lat="43.2174045" lon="12.1945114"><ele>312.8333333333333</ele><time>2026-03-29T10:54:56.743Z</time></trkpt><trkpt lat="43.2174475" lon="12.1946137"><ele>312.66666666666663</ele><time>2026-03-29T10:54:57.743Z</time></trkpt><trkpt lat="43.21747" lon="12.1947269"><ele>312.5</ele><time>2026-03-29T10:54:58.743Z</time></trkpt><trkpt lat="43.2174807" lon="12.194822"><ele>312.3333333333333</ele><time>2026-03-29T10:54:59.743Z</time></trkpt><trkpt lat="43.2174716" lon="12.194925"><ele>312.1666666666667</ele><time>2026-03-29T10:55:00.743Z</time></trkpt><trkpt lat="43.2174479" lon="12.1950595"><ele>312.0</ele><time>2026-03-29T10:55:01.743Z</time></trkpt><trkpt lat="43.2174149" lon="12.1952051"><ele>312.0</ele><time>2026-03-29T10:55:02.743Z</time></trkpt><trkpt lat="43.2173758" lon="12.1953657"><ele>312.0</ele><time>2026-03-29T10:55:03.743Z</time></trkpt><trkpt lat="43.2173351" lon="12.1955277"><ele>312.0</ele><time>2026-03-29T10:55:04.743Z</time></trkpt><trkpt lat="43.2172971" lon="12.1956896"><ele>312.0</ele><time>2026-03-29T10:55:05.743Z</time></trkpt><trkpt lat="43.2172561" lon="12.1958519"><ele>312.0</ele><time>2026-03-29T10:55:06.743Z</time></trkpt><trkpt lat="43.2172183" lon="12.1960251"><ele>312.0</ele><time>2026-03-29T10:55:07.742Z</time></trkpt><trkpt lat="43.2171926" lon="12.196204"><ele>312.0</ele><time>2026-03-29T10:55:08.743Z</time></trkpt><trkpt lat="43.2171796" lon="12.1963898"><ele>312.0</ele><time>2026-03-29T10:55:09.742Z</time></trkpt><trkpt lat="43.2171812" lon="12.1965679"><ele>311.75</ele><time>2026-03-29T10:55:10.743Z</time></trkpt><trkpt lat="43.2171887" lon="12.1967424"><ele>311.5</ele><time>2026-03-29T10:55:11.743Z</time></trkpt><trkpt lat="43.2172125" lon="12.1969251"><ele>311.25</ele><time>2026-03-29T10:55:12.743Z</time></trkpt><trkpt lat="43.2172392" lon="12.1971084"><ele>311.0</ele><time>2026-03-29T10:55:13.743Z</time></trkpt><trkpt lat="43.2172652" lon="12.197294"><ele>311.0</ele><time>2026-03-29T10:55:14.743Z</time></trkpt><trkpt lat="43.2172889" lon="12.197491"><ele>311.0</ele><time>2026-03-29T10:55:15.743Z</time></trkpt><trkpt lat="43.2173095" lon="12.1976875"><ele>311.0</ele><time>2026-03-29T10:55:16.743Z</time></trkpt><trkpt lat="43.2173262" lon="12.1978845"><ele>311.0</ele><time>2026-03-29T10:55:17.743Z</time></trkpt><trkpt lat="43.2173434" lon="12.1980801"><ele>310.75</ele><time>2026-03-29T10:55:18.742Z</time></trkpt><trkpt lat="43.2173704" lon="12.1982592"><ele>310.5</ele><time>2026-03-29T10:55:19.743Z</time></trkpt><trkpt lat="43.2174071" lon="12.1984352"><ele>310.25</ele><time>2026-03-29T10:55:20.743Z</time></trkpt><trkpt lat="43.2174503" lon="12.1986052"><ele>310.0</ele><time>2026-03-29T10:55:21.743Z</time></trkpt><trkpt lat="43.2175143" lon="12.1987767"><ele>310.0</ele><time>2026-03-29T10:55:22.743Z</time></trkpt><trkpt lat="43.2175795" lon="12.1989451"><ele>310.0</ele><time>2026-03-29T10:55:23.743Z</time></trkpt><trkpt lat="43.2176501" lon="12.1991209"><ele>310.0</ele><time>2026-03-29T10:55:24.743Z</time></trkpt><trkpt lat="43.2177228" lon="12.1992945"><ele>310.0</ele><time>2026-03-29T10:55:25.743Z</time></trkpt><trkpt lat="43.2177948" lon="12.1994763"><ele>310.0</ele><time>2026-03-29T10:55:26.743Z</time></trkpt><trkpt lat="43.2178665" lon="12.1996632"><ele>310.0</ele><time>2026-03-29T10:55:27.743Z</time></trkpt><trkpt lat="43.2179398" lon="12.1998522"><ele>310.0</ele><time>2026-03-29T10:55:28.743Z</time></trkpt><trkpt lat="43.2180183" lon="12.2000486"><ele>310.0</ele><time>2026-03-29T10:55:29.743Z</time></trkpt><trkpt lat="43.2180915" lon="12.2002378"><ele>310.0</ele><time>2026-03-29T10:55:30.743Z</time></trkpt><trkpt lat="43.2181607" lon="12.2004169"><ele>310.0</ele><time>2026-03-29T10:55:31.742Z</time></trkpt><trkpt lat="43.218234" lon="12.2005936"><ele>310.66666666666663</ele><time>2026-03-29T10:55:32.743Z</time></trkpt><trkpt lat="43.2183069" lon="12.2007762"><ele>311.3333333333333</ele><time>2026-03-29T10:55:33.743Z</time></trkpt><trkpt lat="43.2183863" lon="12.2009699"><ele>312.0</ele><time>2026-03-29T10:55:34.743Z</time></trkpt><trkpt lat="43.218462" lon="12.201159"><ele>312.0</ele><time>2026-03-29T10:55:35.743Z</time></trkpt><trkpt lat="43.2185319" lon="12.2013421"><ele>312.0</ele><time>2026-03-29T10:55:36.742Z</time></trkpt><trkpt lat="43.2185962" lon="12.2015202"><ele>312.0</ele><time>2026-03-29T10:55:37.743Z</time></trkpt><trkpt lat="43.2186498" lon="12.2016872"><ele>312.0</ele><time>2026-03-29T10:55:38.743Z</time></trkpt><trkpt lat="43.2186908" lon="12.2018327"><ele>312.4</ele><time>2026-03-29T10:55:39.743Z</time></trkpt><trkpt lat="43.2187066" lon="12.2019536"><ele>312.79999999999995</ele><time>2026-03-29T10:55:40.743Z</time></trkpt><trkpt lat="43.2186917" lon="12.2020414"><ele>313.2</ele><time>2026-03-29T10:55:41.742Z</time></trkpt><trkpt lat="43.2185809" lon="12.2021321"><ele>313.59999999999997</ele><time>2026-03-29T10:55:43.743Z</time></trkpt><trkpt lat="43.2184976" lon="12.2021373"><ele>314.0</ele><time>2026-03-29T10:55:44.743Z</time></trkpt><trkpt lat="43.2184047" lon="12.2021457"><ele>314.0</ele><time>2026-03-29T10:55:45.743Z</time></trkpt><trkpt lat="43.218303" lon="12.2021471"><ele>314.0</ele><time>2026-03-29T10:55:46.743Z</time></trkpt><trkpt lat="43.2181915" lon="12.2021557"><ele>314.0</ele><time>2026-03-29T10:55:47.743Z</time></trkpt><trkpt lat="43.2180757" lon="12.2021711"><ele>314.0</ele><time>2026-03-29T10:55:48.742Z</time></trkpt><trkpt lat="43.2179688" lon="12.2021856"><ele>314.0</ele><time>2026-03-29T10:55:49.743Z</time></trkpt><trkpt lat="43.2178578" lon="12.2021965"><ele>314.0</ele><time>2026-03-29T10:55:50.743Z</time></trkpt><trkpt lat="43.2177449" lon="12.2022157"><ele>314.0</ele><time>2026-03-29T10:55:51.743Z</time></trkpt><trkpt lat="43.2176287" lon="12.2022294"><ele>314.0</ele><time>2026-03-29T10:55:52.743Z</time></trkpt><trkpt lat="43.217512" lon="12.2022436"><ele>314.0</ele><time>2026-03-29T10:55:53.743Z</time></trkpt><trkpt lat="43.2173965" lon="12.2022572"><ele>314.0</ele><time>2026-03-29T10:55:54.743Z</time></trkpt><trkpt lat="43.2172894" lon="12.20227"><ele>314.0</ele><time>2026-03-29T10:55:55.743Z</time></trkpt><trkpt lat="43.217185" lon="12.2022987"><ele>314.0</ele><time>2026-03-29T10:55:56.743Z</time></trkpt><trkpt lat="43.2170983" lon="12.2023468"><ele>314.0</ele><time>2026-03-29T10:55:57.743Z</time></trkpt><trkpt lat="43.2170264" lon="12.2024017"><ele>314.0</ele><time>2026-03-29T10:55:58.743Z</time></trkpt><trkpt lat="43.2169613" lon="12.2024739"><ele>314.0</ele><time>2026-03-29T10:55:59.743Z</time></trkpt><trkpt lat="43.2169013" lon="12.2025562"><ele>314.0</ele><time>2026-03-29T10:56:00.743Z</time></trkpt><trkpt lat="43.2168398" lon="12.2026551"><ele>314.0</ele><time>2026-03-29T10:56:01.743Z</time></trkpt><trkpt lat="43.216777" lon="12.2027571"><ele>314.0</ele><time>2026-03-29T10:56:02.742Z</time></trkpt><trkpt lat="43.2167096" lon="12.20288"><ele>314.0</ele><time>2026-03-29T10:56:03.743Z</time></trkpt><trkpt lat="43.2166377" lon="12.2030055"><ele>314.0</ele><time>2026-03-29T10:56:04.743Z</time></trkpt><trkpt lat="43.2165582" lon="12.2031355"><ele>314.0</ele><time>2026-03-29T10:56:05.743Z</time></trkpt><trkpt lat="43.2164745" lon="12.2032625"><ele>314.0</ele><time>2026-03-29T10:56:06.743Z</time></trkpt><trkpt lat="43.2163881" lon="12.2033828"><ele>314.0</ele><time>2026-03-29T10:56:07.743Z</time></trkpt><trkpt lat="43.2163091" lon="12.2034915"><ele>315.2</ele><time>2026-03-29T10:56:08.742Z</time></trkpt><trkpt lat="43.2162347" lon="12.2035875"><ele>316.4</ele><time>2026-03-29T10:56:09.743Z</time></trkpt><trkpt lat="43.216165" lon="12.2037003"><ele>317.6</ele><time>2026-03-29T10:56:10.743Z</time></trkpt><trkpt lat="43.2161012" lon="12.2038217"><ele>318.8</ele><time>2026-03-29T10:56:11.742Z</time></trkpt><trkpt lat="43.216057" lon="12.20395"><ele>320.0</ele><time>2026-03-29T10:56:12.743Z</time></trkpt><trkpt lat="43.2160018" lon="12.2040563"><ele>320.5</ele><time>2026-03-29T10:56:13.743Z</time></trkpt><trkpt lat="43.2159463" lon="12.204143"><ele>321.0</ele><time>2026-03-29T10:56:14.742Z</time></trkpt><trkpt lat="43.2158891" lon="12.2042246"><ele>321.5</ele><time>2026-03-29T10:56:15.743Z</time></trkpt><trkpt lat="43.215829" lon="12.2042968"><ele>322.0</ele><time>2026-03-29T10:56:16.743Z</time></trkpt><trkpt lat="43.2157673" lon="12.2043513"><ele>322.5</ele><time>2026-03-29T10:56:17.743Z</time></trkpt><trkpt lat="43.2156986" lon="12.2044001"><ele>323.0</ele><time>2026-03-29T10:56:18.743Z</time></trkpt><trkpt lat="43.2156347" lon="12.2044446"><ele>323.33333333333337</ele><time>2026-03-29T10:56:19.743Z</time></trkpt><trkpt lat="43.2155771" lon="12.2044993"><ele>323.6666666666667</ele><time>2026-03-29T10:56:20.743Z</time></trkpt><trkpt lat="43.2155198" lon="12.204557"><ele>324.0</ele><time>2026-03-29T10:56:21.743Z</time></trkpt><trkpt lat="43.2154605" lon="12.2046188"><ele>324.3333333333333</ele><time>2026-03-29T10:56:22.742Z</time></trkpt><trkpt lat="43.2153915" lon="12.2047023"><ele>324.66666666666663</ele><time>2026-03-29T10:56:23.743Z</time></trkpt><trkpt lat="43.215322" lon="12.2047897"><ele>325.0</ele><time>2026-03-29T10:56:24.743Z</time></trkpt><trkpt lat="43.21525" lon="12.2048767"><ele>325.6</ele><time>2026-03-29T10:56:25.743Z</time></trkpt><trkpt lat="43.2151712" lon="12.204966"><ele>326.2</ele><time>2026-03-29T10:56:26.743Z</time></trkpt><trkpt lat="43.2150928" lon="12.2050652"><ele>326.79999999999995</ele><time>2026-03-29T10:56:27.743Z</time></trkpt><trkpt lat="43.2150171" lon="12.2051448"><ele>327.4</ele><time>2026-03-29T10:56:28.743Z</time></trkpt><trkpt lat="43.214923" lon="12.2052223"><ele>328.0</ele><time>2026-03-29T10:56:29.743Z</time></trkpt><trkpt lat="43.2148369" lon="12.2052759"><ele>328.0</ele><time>2026-03-29T10:56:30.743Z</time></trkpt><trkpt lat="43.2147583" lon="12.2053264"><ele>328.0</ele><time>2026-03-29T10:56:31.743Z</time></trkpt><trkpt lat="43.2146916" lon="12.2053986"><ele>328.0</ele><time>2026-03-29T10:56:32.743Z</time></trkpt><trkpt lat="43.2146164" lon="12.20547"><ele>328.0</ele><time>2026-03-29T10:56:33.742Z</time></trkpt><trkpt lat="43.2145543" lon="12.2055581"><ele>328.0</ele><time>2026-03-29T10:56:34.743Z</time></trkpt><trkpt lat="43.214495" lon="12.2056631"><ele>328.0</ele><time>2026-03-29T10:56:35.743Z</time></trkpt><trkpt lat="43.2144287" lon="12.2057808"><ele>328.2</ele><time>2026-03-29T10:56:36.743Z</time></trkpt><trkpt lat="43.214368" lon="12.2058995"><ele>328.4</ele><time>2026-03-29T10:56:37.743Z</time></trkpt><trkpt lat="43.2143107" lon="12.2060209"><ele>328.59999999999997</ele><time>2026-03-29T10:56:38.743Z</time></trkpt><trkpt lat="43.214264" lon="12.2061405"><ele>328.79999999999995</ele><time>2026-03-29T10:56:39.743Z</time></trkpt><trkpt lat="43.2142295" lon="12.2062488"><ele>329.0</ele><time>2026-03-29T10:56:40.743Z</time></trkpt><trkpt lat="43.2142184" lon="12.2063568"><ele>329.0</ele><time>2026-03-29T10:56:41.743Z</time></trkpt><trkpt lat="43.2141984" lon="12.2064435"><ele>329.0</ele><time>2026-03-29T10:56:42.743Z</time></trkpt><trkpt lat="43.2141786" lon="12.2065438"><ele>329.0</ele><time>2026-03-29T10:56:43.742Z</time></trkpt><trkpt lat="43.2141431" lon="12.2066441"><ele>329.0</ele><time>2026-03-29T10:56:44.743Z</time></trkpt><trkpt lat="43.2141195" lon="12.2067576"><ele>329.0</ele><time>2026-03-29T10:56:45.743Z</time></trkpt><trkpt lat="43.2140974" lon="12.206846"><ele>329.0</ele><time>2026-03-29T10:56:46.743Z</time></trkpt><trkpt lat="43.2140779" lon="12.2070258"><ele>329.5</ele><time>2026-03-29T10:56:48.743Z</time></trkpt><trkpt lat="43.2140736" lon="12.2071472"><ele>330.0</ele><time>2026-03-29T10:56:50.743Z</time></trkpt><trkpt lat="43.2140734" lon="12.2072696"><ele>330.5</ele><time>2026-03-29T10:56:53.743Z</time></trkpt><trkpt lat="43.2140329" lon="12.2073606"><ele>331.0</ele><time>2026-03-29T10:56:55.743Z</time></trkpt><trkpt lat="43.213992" lon="12.2074316"><ele>331.5</ele><time>2026-03-29T10:56:56.743Z</time></trkpt><trkpt lat="43.2139188" lon="12.2075258"><ele>332.0</ele><time>2026-03-29T10:56:57.743Z</time></trkpt><trkpt lat="43.2138565" lon="12.2076413"><ele>332.83333333333337</ele><time>2026-03-29T10:56:58.743Z</time></trkpt><trkpt lat="43.2138053" lon="12.207729"><ele>333.6666666666667</ele><time>2026-03-29T10:56:59.743Z</time></trkpt><trkpt lat="43.2137524" lon="12.2077898"><ele>334.5</ele><time>2026-03-29T10:57:00.743Z</time></trkpt><trkpt lat="43.2136545" lon="12.207893"><ele>335.3333333333333</ele><time>2026-03-29T10:57:02.743Z</time></trkpt><trkpt lat="43.213602" lon="12.2079567"><ele>336.16666666666663</ele><time>2026-03-29T10:57:03.743Z</time></trkpt><trkpt lat="43.2135352" lon="12.2080023"><ele>337.0</ele><time>2026-03-29T10:57:04.743Z</time></trkpt><trkpt lat="43.2134649" lon="12.2080288"><ele>337.0</ele><time>2026-03-29T10:57:05.742Z</time></trkpt><trkpt lat="43.2133878" lon="12.2080291"><ele>337.0</ele><time>2026-03-29T10:57:06.743Z</time></trkpt><trkpt lat="43.213312" lon="12.2080349"><ele>337.0</ele><time>2026-03-29T10:57:07.743Z</time></trkpt><trkpt lat="43.2132289" lon="12.208065"><ele>337.0</ele><time>2026-03-29T10:57:08.743Z</time></trkpt><trkpt lat="43.2131427" lon="12.2080917"><ele>337.0</ele><time>2026-03-29T10:57:09.743Z</time></trkpt><trkpt lat="43.213073" lon="12.2081177"><ele>337.0</ele><time>2026-03-29T10:57:10.743Z</time></trkpt><trkpt lat="43.213008" lon="12.2081467"><ele>337.8333333333333</ele><time>2026-03-29T10:57:11.743Z</time></trkpt><trkpt lat="43.2129379" lon="12.2081782"><ele>338.66666666666663</ele><time>2026-03-29T10:57:12.743Z</time></trkpt><trkpt lat="43.2128659" lon="12.2082094"><ele>339.5</ele><time>2026-03-29T10:57:13.742Z</time></trkpt><trkpt lat="43.2127828" lon="12.2082359"><ele>340.3333333333333</ele><time>2026-03-29T10:57:14.743Z</time></trkpt><trkpt lat="43.2127164" lon="12.2082624"><ele>341.1666666666667</ele><time>2026-03-29T10:57:15.743Z</time></trkpt><trkpt lat="43.2126451" lon="12.2083143"><ele>342.0</ele><time>2026-03-29T10:57:16.743Z</time></trkpt><trkpt lat="43.2125735" lon="12.2083609"><ele>342.0</ele><time>2026-03-29T10:57:17.743Z</time></trkpt><trkpt lat="43.2125036" lon="12.2084134"><ele>342.0</ele><time>2026-03-29T10:57:18.743Z</time></trkpt><trkpt lat="43.212382" lon="12.2084827"><ele>342.0</ele><time>2026-03-29T10:57:20.743Z</time></trkpt><trkpt lat="43.2123113" lon="12.2085107"><ele>342.0</ele><time>2026-03-29T10:57:21.743Z</time></trkpt><trkpt lat="43.2122549" lon="12.2085769"><ele>342.0</ele><time>2026-03-29T10:57:22.743Z</time></trkpt><trkpt lat="43.2122023" lon="12.2086378"><ele>342.0</ele><time>2026-03-29T10:57:23.743Z</time></trkpt><trkpt lat="43.2121457" lon="12.2087108"><ele>342.8</ele><time>2026-03-29T10:57:24.743Z</time></trkpt><trkpt lat="43.2120898" lon="12.2087933"><ele>343.6</ele><time>2026-03-29T10:57:25.743Z</time></trkpt><trkpt lat="43.2120396" lon="12.2088549"><ele>344.40000000000003</ele><time>2026-03-29T10:57:26.743Z</time></trkpt><trkpt lat="43.2119414" lon="12.2089454"><ele>345.20000000000005</ele><time>2026-03-29T10:57:28.743Z</time></trkpt><trkpt lat="43.2118948" lon="12.209095"><ele>346.0</ele><time>2026-03-29T10:57:30.743Z</time></trkpt><trkpt lat="43.2119156" lon="12.2092001"><ele>346.0</ele><time>2026-03-29T10:57:31.743Z</time></trkpt><trkpt lat="43.2119455" lon="12.2093355"><ele>346.0</ele><time>2026-03-29T10:57:32.743Z</time></trkpt><trkpt lat="43.2119855" lon="12.2094667"><ele>346.0</ele><time>2026-03-29T10:57:33.743Z</time></trkpt><trkpt lat="43.2119969" lon="12.2095832"><ele>346.0</ele><time>2026-03-29T10:57:34.743Z</time></trkpt><trkpt lat="43.2119923" lon="12.2096726"><ele>346.0</ele><time>2026-03-29T10:57:35.743Z</time></trkpt><trkpt lat="43.2119543" lon="12.2098092"><ele>347.0</ele><time>2026-03-29T10:57:37.743Z</time></trkpt><trkpt lat="43.2119837" lon="12.2100094"><ele>348.0</ele><time>2026-03-29T10:57:39.743Z</time></trkpt><trkpt lat="43.2120013" lon="12.2101309"><ele>349.0</ele><time>2026-03-29T10:57:40.743Z</time></trkpt><trkpt lat="43.2119765" lon="12.2102477"><ele>350.0</ele><time>2026-03-29T10:57:41.743Z</time></trkpt><trkpt lat="43.2119568" lon="12.2103694"><ele>351.0</ele><time>2026-03-29T10:57:42.743Z</time></trkpt><trkpt lat="43.2119462" lon="12.2104815"><ele>351.0</ele><time>2026-03-29T10:57:43.743Z</time></trkpt><trkpt lat="43.2119372" lon="12.2105685"><ele>351.0</ele><time>2026-03-29T10:57:44.743Z</time></trkpt><trkpt lat="43.2118909" lon="12.2106787"><ele>351.0</ele><time>2026-03-29T10:57:46.743Z</time></trkpt><trkpt lat="43.2118121" lon="12.2106989"><ele>351.0</ele><time>2026-03-29T10:57:48.743Z</time></trkpt><trkpt lat="43.2117404" lon="12.2106505"><ele>351.0</ele><time>2026-03-29T10:57:51.743Z</time></trkpt><trkpt lat="43.2117435" lon="12.2104914"><ele>351.0</ele><time>2026-03-29T10:57:53.742Z</time></trkpt><trkpt lat="43.2117028" lon="12.2103783"><ele>351.0</ele><time>2026-03-29T10:57:55.743Z</time></trkpt><trkpt lat="43.2116772" lon="12.2102436"><ele>351.0</ele><time>2026-03-29T10:57:57.743Z</time></trkpt><trkpt lat="43.2116681" lon="12.2101097"><ele>351.0</ele><time>2026-03-29T10:57:59.743Z</time></trkpt><trkpt lat="43.2116515" lon="12.2099733"><ele>351.0</ele><time>2026-03-29T10:58:01.743Z</time></trkpt><trkpt lat="43.2116267" lon="12.2098438"><ele>351.0</ele><time>2026-03-29T10:58:03.743Z</time></trkpt><trkpt lat="43.2115734" lon="12.2097396"><ele>350.1666666666667</ele><time>2026-03-29T10:58:05.742Z</time></trkpt><trkpt lat="43.2115246" lon="12.2096755"><ele>349.3333333333333</ele><time>2026-03-29T10:58:07.743Z</time></trkpt><trkpt lat="43.211457" lon="12.2096605"><ele>348.5</ele><time>2026-03-29T10:58:09.743Z</time></trkpt><trkpt lat="43.2113889" lon="12.2095766"><ele>347.66666666666663</ele><time>2026-03-29T10:58:11.743Z</time></trkpt><trkpt lat="43.2113408" lon="12.2095068"><ele>346.8333333333333</ele><time>2026-03-29T10:58:14.743Z</time></trkpt><trkpt lat="43.2112768" lon="12.2095457"><ele>346.0</ele><time>2026-03-29T10:58:16.743Z</time></trkpt><trkpt lat="43.2112483" lon="12.209682"><ele>347.6</ele><time>2026-03-29T10:58:18.743Z</time></trkpt><trkpt lat="43.2111856" lon="12.2097686"><ele>349.20000000000005</ele><time>2026-03-29T10:58:20.743Z</time></trkpt><trkpt lat="43.2110905" lon="12.2098148"><ele>350.79999999999995</ele><time>2026-03-29T10:58:23.743Z</time></trkpt><trkpt lat="43.2109785" lon="12.2098189"><ele>352.4</ele><time>2026-03-29T10:58:25.743Z</time></trkpt><trkpt lat="43.210884" lon="12.2098636"><ele>354.0</ele><time>2026-03-29T10:58:27.743Z</time></trkpt><trkpt lat="43.2107895" lon="12.2099139"><ele>354.0</ele><time>2026-03-29T10:58:29.743Z</time></trkpt><trkpt lat="43.2107297" lon="12.2099614"><ele>354.0</ele><time>2026-03-29T10:58:31.743Z</time></trkpt><trkpt lat="43.2106702" lon="12.2100263"><ele>354.0</ele><time>2026-03-29T10:58:39.743Z</time></trkpt><trkpt lat="43.2106213" lon="12.2100956"><ele>354.0</ele><time>2026-03-29T10:58:41.743Z</time></trkpt><trkpt lat="43.2105463" lon="12.2101686"><ele>354.0</ele><time>2026-03-29T10:58:43.742Z</time></trkpt><trkpt lat="43.2104904" lon="12.2102195"><ele>354.0</ele><time>2026-03-29T10:58:44.743Z</time></trkpt><trkpt lat="43.2104209" lon="12.2102644"><ele>357.6</ele><time>2026-03-29T10:58:45.743Z</time></trkpt><trkpt lat="43.2103625" lon="12.2103094"><ele>361.2</ele><time>2026-03-29T10:58:46.743Z</time></trkpt><trkpt lat="43.2102779" lon="12.2103089"><ele>364.8</ele><time>2026-03-29T10:58:56.743Z</time></trkpt><trkpt lat="43.2102068" lon="12.2104471"><ele>368.40000000000003</ele><time>2026-03-29T10:58:59.743Z</time></trkpt><trkpt lat="43.2101717" lon="12.2105512"><ele>372.0</ele><time>2026-03-29T10:59:00.743Z</time></trkpt><trkpt lat="43.2101026" lon="12.2106467"><ele>372.8333333333333</ele><time>2026-03-29T10:59:02.743Z</time></trkpt><trkpt lat="43.2100195" lon="12.2106947"><ele>373.6666666666667</ele><time>2026-03-29T10:59:07.743Z</time></trkpt><trkpt lat="43.2099499" lon="12.2107463"><ele>374.5</ele><time>2026-03-29T10:59:10.743Z</time></trkpt><trkpt lat="43.2098818" lon="12.2107548"><ele>375.33333333333337</ele><time>2026-03-29T10:59:14.743Z</time></trkpt><trkpt lat="43.2097849" lon="12.2107878"><ele>376.1666666666667</ele><time>2026-03-29T10:59:18.743Z</time></trkpt><trkpt lat="43.2097026" lon="12.2108077"><ele>377.0</ele><time>2026-03-29T10:59:20.743Z</time></trkpt><trkpt lat="43.2096268" lon="12.2108217"><ele>376.99999999999994</ele><time>2026-03-29T10:59:22.743Z</time></trkpt><trkpt lat="43.2095558" lon="12.2108603"><ele>377.0</ele><time>2026-03-29T10:59:24.743Z</time></trkpt><trkpt lat="43.2094874" lon="12.2109292"><ele>377.0</ele><time>2026-03-29T10:59:27.743Z</time></trkpt><trkpt lat="43.2094345" lon="12.2109796"><ele>377.0</ele><time>2026-03-29T10:59:29.743Z</time></trkpt><trkpt lat="43.2093675" lon="12.2110343"><ele>377.0</ele><time>2026-03-29T10:59:32.743Z</time></trkpt><trkpt lat="43.2093259" lon="12.2111124"><ele>376.99999999999994</ele><time>2026-03-29T10:59:34.743Z</time></trkpt><trkpt lat="43.209314" lon="12.2112128"><ele>377.0</ele><time>2026-03-29T10:59:38.743Z</time></trkpt><trkpt lat="43.2093156" lon="12.2112995"><ele>377.0</ele><time>2026-03-29T10:59:40.743Z</time></trkpt><trkpt lat="43.2092737" lon="12.2113923"><ele>377.0</ele><time>2026-03-29T10:59:42.743Z</time></trkpt><trkpt lat="43.2092223" lon="12.2114456"><ele>377.0</ele><time>2026-03-29T10:59:45.743Z</time></trkpt><trkpt lat="43.2091975" lon="12.2115352"><ele>377.0</ele><time>2026-03-29T11:00:10.743Z</time></trkpt><trkpt lat="43.2091856" lon="12.2116787"><ele>377.0</ele><time>2026-03-29T11:02:01.743Z</time></trkpt><trkpt lat="43.2092144" lon="12.2117774"><ele>377.0</ele><time>2026-03-29T11:03:35.743Z</time></trkpt><trkpt lat="43.2092784" lon="12.2118751"><ele>376.33333333333337</ele><time>2026-03-29T11:03:38.742Z</time></trkpt><trkpt lat="43.2093481" lon="12.2118813"><ele>375.6666666666667</ele><time>2026-03-29T11:04:57.743Z</time></trkpt><trkpt lat="43.2093568" lon="12.2120021"><ele>375.0</ele><time>2026-03-29T11:06:14.743Z</time></trkpt><trkpt lat="43.2094049" lon="12.2121276"><ele>374.3333333333333</ele><time>2026-03-29T11:06:16.743Z</time></trkpt><trkpt lat="43.2094264" lon="12.2122305"><ele>373.66666666666663</ele><time>2026-03-29T11:06:17.743Z</time></trkpt><trkpt lat="43.2094439" lon="12.2123507"><ele>373.0</ele><time>2026-03-29T11:06:18.743Z</time></trkpt><trkpt lat="43.2094643" lon="12.2124731"><ele>374.5</ele><time>2026-03-29T11:06:20.743Z</time></trkpt><trkpt lat="43.2094525" lon="12.2125753"><ele>376.0</ele><time>2026-03-29T11:06:23.743Z</time></trkpt><trkpt lat="43.2094701" lon="12.2126811"><ele>377.5</ele><time>2026-03-29T11:06:24.742Z</time></trkpt><trkpt lat="43.2095042" lon="12.2127697"><ele>379.0</ele><time>2026-03-29T11:06:25.743Z</time></trkpt><trkpt lat="43.2095599" lon="12.2129173"><ele>380.5</ele><time>2026-03-29T11:06:26.743Z</time></trkpt><trkpt lat="43.209601" lon="12.2130224"><ele>382.0</ele><time>2026-03-29T11:06:28.743Z</time></trkpt><trkpt lat="43.2095733" lon="12.2131011"><ele>384.66666666666663</ele><time>2026-03-29T11:06:45.743Z</time></trkpt><trkpt lat="43.2095338" lon="12.2131691"><ele>387.3333333333333</ele><time>2026-03-29T11:07:32.743Z</time></trkpt><trkpt lat="43.2095112" lon="12.2132535"><ele>390.0</ele><time>2026-03-29T11:07:34.743Z</time></trkpt><trkpt lat="43.209464" lon="12.2134036"><ele>392.66666666666663</ele><time>2026-03-29T11:07:36.742Z</time></trkpt><trkpt lat="43.2094298" lon="12.2134978"><ele>395.3333333333333</ele><time>2026-03-29T11:07:37.743Z</time></trkpt><trkpt lat="43.2093889" lon="12.2136144"><ele>398.0</ele><time>2026-03-29T11:07:38.743Z</time></trkpt><trkpt lat="43.2093517" lon="12.2137528"><ele>398.0</ele><time>2026-03-29T11:07:39.742Z</time></trkpt><trkpt lat="43.2093152" lon="12.2139216"><ele>398.0</ele><time>2026-03-29T11:07:40.743Z</time></trkpt><trkpt lat="43.2092891" lon="12.2140648"><ele>398.0</ele><time>2026-03-29T11:07:41.743Z</time></trkpt><trkpt lat="43.209261" lon="12.214179"><ele>398.0</ele><time>2026-03-29T11:07:42.743Z</time></trkpt><trkpt lat="43.2092495" lon="12.2143137"><ele>398.0</ele><time>2026-03-29T11:07:43.743Z</time></trkpt><trkpt lat="43.2092492" lon="12.2144297"><ele>400.59999999999997</ele><time>2026-03-29T11:07:44.743Z</time></trkpt><trkpt lat="43.2092235" lon="12.2145117"><ele>403.2</ele><time>2026-03-29T11:07:45.743Z</time></trkpt><trkpt lat="43.2091596" lon="12.2145929"><ele>405.8</ele><time>2026-03-29T11:07:46.743Z</time></trkpt><trkpt lat="43.2090878" lon="12.2146913"><ele>408.4</ele><time>2026-03-29T11:07:47.743Z</time></trkpt><trkpt lat="43.2090197" lon="12.2147961"><ele>411.0</ele><time>2026-03-29T11:07:48.743Z</time></trkpt><trkpt lat="43.2089677" lon="12.2149176"><ele>411.25</ele><time>2026-03-29T11:07:49.743Z</time></trkpt><trkpt lat="43.2089387" lon="12.2150708"><ele>411.5</ele><time>2026-03-29T11:07:50.743Z</time></trkpt><trkpt lat="43.2089108" lon="12.2152425"><ele>411.75</ele><time>2026-03-29T11:07:51.743Z</time></trkpt><trkpt lat="43.2088602" lon="12.2154149"><ele>412.0</ele><time>2026-03-29T11:07:52.743Z</time></trkpt><trkpt lat="43.2088254" lon="12.2156114"><ele>415.5</ele><time>2026-03-29T11:07:53.743Z</time></trkpt><trkpt lat="43.2087992" lon="12.2158271"><ele>419.0</ele><time>2026-03-29T11:07:54.743Z</time></trkpt><trkpt lat="43.208782" lon="12.2159921"><ele>422.5</ele><time>2026-03-29T11:07:55.743Z</time></trkpt><trkpt lat="43.2087865" lon="12.2161255"><ele>426.0</ele><time>2026-03-29T11:07:56.743Z</time></trkpt><trkpt lat="43.2088222" lon="12.2162202"><ele>426.0</ele><time>2026-03-29T11:07:57.743Z</time></trkpt><trkpt lat="43.2088829" lon="12.216304"><ele>426.0</ele><time>2026-03-29T11:07:58.743Z</time></trkpt><trkpt lat="43.2089515" lon="12.2164033"><ele>426.0</ele><time>2026-03-29T11:07:59.743Z</time></trkpt><trkpt lat="43.2090294" lon="12.2165068"><ele>426.0</ele><time>2026-03-29T11:08:00.743Z</time></trkpt><trkpt lat="43.2091624" lon="12.2165705"><ele>426.0</ele><time>2026-03-29T11:08:01.743Z</time></trkpt><trkpt lat="43.2092905" lon="12.2166238"><ele>430.4</ele><time>2026-03-29T11:08:02.742Z</time></trkpt><trkpt lat="43.2093925" lon="12.2166901"><ele>434.8</ele><time>2026-03-29T11:08:03.743Z</time></trkpt><trkpt lat="43.2094954" lon="12.2167501"><ele>439.19999999999993</ele><time>2026-03-29T11:08:04.743Z</time></trkpt><trkpt lat="43.2095438" lon="12.2168809"><ele>443.59999999999997</ele><time>2026-03-29T11:08:05.743Z</time></trkpt><trkpt lat="43.2096263" lon="12.2169746"><ele>448.0</ele><time>2026-03-29T11:08:06.743Z</time></trkpt><trkpt lat="43.2097399" lon="12.2170468"><ele>447.5</ele><time>2026-03-29T11:08:07.743Z</time></trkpt><trkpt lat="43.2098294" lon="12.2171274"><ele>447.0</ele><time>2026-03-29T11:08:08.743Z</time></trkpt><trkpt lat="43.2099455" lon="12.217218"><ele>446.5</ele><time>2026-03-29T11:08:09.743Z</time></trkpt><trkpt lat="43.2100377" lon="12.2173165"><ele>446.0</ele><time>2026-03-29T11:08:10.743Z</time></trkpt><trkpt lat="43.2101213" lon="12.2173885"><ele>449.8</ele><time>2026-03-29T11:08:11.743Z</time></trkpt><trkpt lat="43.2102253" lon="12.2173695"><ele>453.6</ele><time>2026-03-29T11:08:12.743Z</time></trkpt><trkpt lat="43.2103336" lon="12.2173805"><ele>457.4</ele><time>2026-03-29T11:08:13.743Z</time></trkpt><trkpt lat="43.2104383" lon="12.2174173"><ele>461.2</ele><time>2026-03-29T11:08:14.743Z</time></trkpt><trkpt lat="43.2105284" lon="12.2174772"><ele>465.0</ele><time>2026-03-29T11:08:15.742Z</time></trkpt><trkpt lat="43.2106164" lon="12.2175467"><ele>465.0</ele><time>2026-03-29T11:08:16.743Z</time></trkpt><trkpt lat="43.210605" lon="12.2176631"><ele>465.0</ele><time>2026-03-29T11:08:17.743Z</time></trkpt><trkpt lat="43.2105654" lon="12.2178189"><ele>465.0</ele><time>2026-03-29T11:08:19.743Z</time></trkpt><trkpt lat="43.2104595" lon="12.2178905"><ele>465.0</ele><time>2026-03-29T11:08:20.743Z</time></trkpt><trkpt lat="43.210372" lon="12.2180194"><ele>468.0</ele><time>2026-03-29T11:08:21.743Z</time></trkpt><trkpt lat="43.2102721" lon="12.2181706"><ele>471.0</ele><time>2026-03-29T11:08:22.743Z</time></trkpt><trkpt lat="43.2101704" lon="12.2183519"><ele>474.0</ele><time>2026-03-29T11:08:23.743Z</time></trkpt><trkpt lat="43.2100968" lon="12.2185329"><ele>474.0</ele><time>2026-03-29T11:08:24.743Z</time></trkpt><trkpt lat="43.2100158" lon="12.2186852"><ele>474.0</ele><time>2026-03-29T11:08:25.743Z</time></trkpt><trkpt lat="43.2099255" lon="12.2188384"><ele>474.0</ele><time>2026-03-29T11:08:26.743Z</time></trkpt><trkpt lat="43.2098365" lon="12.2190084"><ele>474.0</ele><time>2026-03-29T11:08:27.743Z</time></trkpt><trkpt lat="43.2097446" lon="12.2191783"><ele>478.25</ele><time>2026-03-29T11:08:28.743Z</time></trkpt><trkpt lat="43.2096522" lon="12.2193389"><ele>482.5</ele><time>2026-03-29T11:08:29.743Z</time></trkpt><trkpt lat="43.2095621" lon="12.2194545"><ele>486.75</ele><time>2026-03-29T11:08:30.743Z</time></trkpt><trkpt lat="43.2094801" lon="12.2195166"><ele>491.0</ele><time>2026-03-29T11:08:31.743Z</time></trkpt><trkpt lat="43.2093804" lon="12.2195038"><ele>491.0</ele><time>2026-03-29T11:08:32.743Z</time></trkpt><trkpt lat="43.2092808" lon="12.2194414"><ele>491.0</ele><time>2026-03-29T11:08:33.743Z</time></trkpt><trkpt lat="43.2091652" lon="12.2193456"><ele>491.0</ele><time>2026-03-29T11:08:34.743Z</time></trkpt><trkpt lat="43.2090714" lon="12.2192844"><ele>491.0</ele><time>2026-03-29T11:08:35.743Z</time></trkpt><trkpt lat="43.2089894" lon="12.2192087"><ele>491.0</ele><time>2026-03-29T11:08:36.743Z</time></trkpt><trkpt lat="43.2089087" lon="12.219144"><ele>490.3333333333333</ele><time>2026-03-29T11:08:37.743Z</time></trkpt><trkpt lat="43.2088428" lon="12.2190853"><ele>489.66666666666663</ele><time>2026-03-29T11:08:38.743Z</time></trkpt><trkpt lat="43.2087755" lon="12.2190422"><ele>489.0</ele><time>2026-03-29T11:08:39.742Z</time></trkpt><trkpt lat="43.2087084" lon="12.2190245"><ele>488.33333333333337</ele><time>2026-03-29T11:08:40.743Z</time></trkpt><trkpt lat="43.2085831" lon="12.2190754"><ele>487.6666666666667</ele><time>2026-03-29T11:08:42.743Z</time></trkpt><trkpt lat="43.2085207" lon="12.2191406"><ele>487.0</ele><time>2026-03-29T11:08:43.743Z</time></trkpt><trkpt lat="43.2084627" lon="12.2192276"><ele>487.0</ele><time>2026-03-29T11:08:44.743Z</time></trkpt><trkpt lat="43.2083962" lon="12.2193295"><ele>487.00000000000006</ele><time>2026-03-29T11:08:45.742Z</time></trkpt><trkpt lat="43.2083159" lon="12.2194344"><ele>487.00000000000006</ele><time>2026-03-29T11:08:46.743Z</time></trkpt><trkpt lat="43.2082316" lon="12.21955"><ele>487.0</ele><time>2026-03-29T11:08:47.743Z</time></trkpt><trkpt lat="43.208153" lon="12.219671"><ele>487.0</ele><time>2026-03-29T11:08:48.743Z</time></trkpt><trkpt lat="43.2080741" lon="12.2198006"><ele>491.40000000000003</ele><time>2026-03-29T11:08:49.743Z</time></trkpt><trkpt lat="43.2080003" lon="12.219922"><ele>495.80000000000007</ele><time>2026-03-29T11:08:50.743Z</time></trkpt><trkpt lat="43.2079208" lon="12.2200397"><ele>500.2</ele><time>2026-03-29T11:08:51.743Z</time></trkpt><trkpt lat="43.2078476" lon="12.220152"><ele>504.6</ele><time>2026-03-29T11:08:52.743Z</time></trkpt><trkpt lat="43.2077764" lon="12.2201941"><ele>509.0</ele><time>2026-03-29T11:08:53.743Z</time></trkpt><trkpt lat="43.207678" lon="12.2201416"><ele>508.99999999999994</ele><time>2026-03-29T11:08:55.743Z</time></trkpt><trkpt lat="43.2076405" lon="12.220056"><ele>509.0</ele><time>2026-03-29T11:08:56.743Z</time></trkpt><trkpt lat="43.2076032" lon="12.2199717"><ele>509.0</ele><time>2026-03-29T11:08:57.743Z</time></trkpt><trkpt lat="43.2075369" lon="12.2199271"><ele>509.0</ele><time>2026-03-29T11:08:58.743Z</time></trkpt><trkpt lat="43.2074669" lon="12.2199177"><ele>508.99999999999994</ele><time>2026-03-29T11:08:59.743Z</time></trkpt><trkpt lat="43.2073862" lon="12.2199159"><ele>509.0</ele><time>2026-03-29T11:09:00.743Z</time></trkpt><trkpt lat="43.207298" lon="12.2200502"><ele>510.25</ele><time>2026-03-29T11:09:01.743Z</time></trkpt><trkpt lat="43.2072031" lon="12.2201284"><ele>511.5</ele><time>2026-03-29T11:09:02.743Z</time></trkpt><trkpt lat="43.207099" lon="12.2202215"><ele>512.75</ele><time>2026-03-29T11:09:03.743Z</time></trkpt><trkpt lat="43.2069698" lon="12.2202965"><ele>514.0</ele><time>2026-03-29T11:09:04.743Z</time></trkpt><trkpt lat="43.2068401" lon="12.220372"><ele>514.0</ele><time>2026-03-29T11:09:05.743Z</time></trkpt><trkpt lat="43.2067132" lon="12.2204494"><ele>514.0</ele><time>2026-03-29T11:09:06.743Z</time></trkpt><trkpt lat="43.2065892" lon="12.2205265"><ele>514.0</ele><time>2026-03-29T11:09:07.743Z</time></trkpt><trkpt lat="43.2064693" lon="12.2206138"><ele>514.0</ele><time>2026-03-29T11:09:08.743Z</time></trkpt><trkpt lat="43.2063583" lon="12.2206664"><ele>515.0</ele><time>2026-03-29T11:09:09.743Z</time></trkpt><trkpt lat="43.2062462" lon="12.2206441"><ele>516.0</ele><time>2026-03-29T11:09:10.743Z</time></trkpt><trkpt lat="43.2061524" lon="12.2206045"><ele>517.0</ele><time>2026-03-29T11:09:11.742Z</time></trkpt><trkpt lat="43.2060586" lon="12.2205618"><ele>518.0</ele><time>2026-03-29T11:09:12.743Z</time></trkpt><trkpt lat="43.2059549" lon="12.2205524"><ele>519.0</ele><time>2026-03-29T11:09:13.743Z</time></trkpt><trkpt lat="43.2058504" lon="12.2205761"><ele>519.0</ele><time>2026-03-29T11:09:14.743Z</time></trkpt><trkpt lat="43.2057375" lon="12.2206293"><ele>519.0</ele><time>2026-03-29T11:09:15.742Z</time></trkpt><trkpt lat="43.2056285" lon="12.2206996"><ele>519.0</ele><time>2026-03-29T11:09:16.742Z</time></trkpt><trkpt lat="43.2055029" lon="12.2207572"><ele>519.0</ele><time>2026-03-29T11:09:17.743Z</time></trkpt><trkpt lat="43.205367" lon="12.2208002"><ele>525.5</ele><time>2026-03-29T11:09:18.743Z</time></trkpt><trkpt lat="43.2052399" lon="12.2208416"><ele>532.0</ele><time>2026-03-29T11:09:19.743Z</time></trkpt><trkpt lat="43.2051318" lon="12.2209018"><ele>538.5</ele><time>2026-03-29T11:09:20.743Z</time></trkpt><trkpt lat="43.205029" lon="12.2209633"><ele>545.0</ele><time>2026-03-29T11:09:21.743Z</time></trkpt><trkpt lat="43.204962" lon="12.2210921"><ele>545.0</ele><time>2026-03-29T11:09:22.743Z</time></trkpt><trkpt lat="43.2049013" lon="12.2211913"><ele>545.0</ele><time>2026-03-29T11:09:23.743Z</time></trkpt><trkpt lat="43.2048632" lon="12.2212957"><ele>545.0</ele><time>2026-03-29T11:09:24.743Z</time></trkpt><trkpt lat="43.2049336" lon="12.2214926"><ele>545.0</ele><time>2026-03-29T11:09:26.743Z</time></trkpt><trkpt lat="43.2050603" lon="12.2215419"><ele>547.8</ele><time>2026-03-29T11:09:27.743Z</time></trkpt><trkpt lat="43.2051292" lon="12.2216507"><ele>550.6</ele><time>2026-03-29T11:09:29.742Z</time></trkpt><trkpt lat="43.2050895" lon="12.2217311"><ele>553.4</ele><time>2026-03-29T11:09:30.743Z</time></trkpt><trkpt lat="43.2050603" lon="12.2218096"><ele>556.2</ele><time>2026-03-29T11:09:31.742Z</time></trkpt><trkpt lat="43.2050127" lon="12.221913"><ele>559.0</ele><time>2026-03-29T11:09:32.743Z</time></trkpt><trkpt lat="43.2049015" lon="12.2220356"><ele>559.0</ele><time>2026-03-29T11:09:33.743Z</time></trkpt><trkpt lat="43.2048369" lon="12.222128"><ele>559.0</ele><time>2026-03-29T11:09:34.743Z</time></trkpt><trkpt lat="43.2047208" lon="12.222217"><ele>559.0</ele><time>2026-03-29T11:09:35.743Z</time></trkpt><trkpt lat="43.2045949" lon="12.2222774"><ele>559.0</ele><time>2026-03-29T11:09:36.743Z</time></trkpt><trkpt lat="43.2044707" lon="12.2223237"><ele>563.5</ele><time>2026-03-29T11:09:37.743Z</time></trkpt><trkpt lat="43.2043436" lon="12.2223887"><ele>568.0</ele><time>2026-03-29T11:09:38.743Z</time></trkpt><trkpt lat="43.2042175" lon="12.2224731"><ele>572.5</ele><time>2026-03-29T11:09:39.743Z</time></trkpt><trkpt lat="43.2040961" lon="12.2225502"><ele>577.0</ele><time>2026-03-29T11:09:40.743Z</time></trkpt><trkpt lat="43.20396" lon="12.2226394"><ele>577.5</ele><time>2026-03-29T11:09:41.743Z</time></trkpt><trkpt lat="43.2038444" lon="12.2227504"><ele>578.0</ele><time>2026-03-29T11:09:42.743Z</time></trkpt><trkpt lat="43.2037326" lon="12.2228708"><ele>578.5</ele><time>2026-03-29T11:09:43.743Z</time></trkpt><trkpt lat="43.2036293" lon="12.2229894"><ele>579.0</ele><time>2026-03-29T11:09:44.743Z</time></trkpt><trkpt lat="43.20352" lon="12.223083"><ele>583.5</ele><time>2026-03-29T11:09:45.743Z</time></trkpt><trkpt lat="43.2033887" lon="12.2231652"><ele>588.0</ele><time>2026-03-29T11:09:46.743Z</time></trkpt><trkpt lat="43.2032467" lon="12.2232381"><ele>592.5</ele><time>2026-03-29T11:09:47.743Z</time></trkpt><trkpt lat="43.2031077" lon="12.2232983"><ele>597.0</ele><time>2026-03-29T11:09:48.743Z</time></trkpt><trkpt lat="43.2029748" lon="12.2233233"><ele>597.6</ele><time>2026-03-29T11:09:49.743Z</time></trkpt><trkpt lat="43.2028672" lon="12.2232925"><ele>598.2</ele><time>2026-03-29T11:09:50.743Z</time></trkpt><trkpt lat="43.2027649" lon="12.2232688"><ele>598.8</ele><time>2026-03-29T11:09:51.743Z</time></trkpt><trkpt lat="43.2026637" lon="12.2232823"><ele>599.4</ele><time>2026-03-29T11:09:52.743Z</time></trkpt><trkpt lat="43.2025722" lon="12.2233263"><ele>600.0</ele><time>2026-03-29T11:09:53.743Z</time></trkpt><trkpt lat="43.2025104" lon="12.2234129"><ele>600.0</ele><time>2026-03-29T11:09:54.743Z</time></trkpt><trkpt lat="43.2024753" lon="12.2235231"><ele>600.0</ele><time>2026-03-29T11:09:55.743Z</time></trkpt><trkpt lat="43.2024442" lon="12.2236256"><ele>600.0</ele><time>2026-03-29T11:09:56.743Z</time></trkpt><trkpt lat="43.2023984" lon="12.2236996"><ele>600.0</ele><time>2026-03-29T11:09:57.743Z</time></trkpt><trkpt lat="43.2023542" lon="12.2237669"><ele>600.0</ele><time>2026-03-29T11:09:58.743Z</time></trkpt><trkpt lat="43.2022538" lon="12.223747"><ele>600.0</ele><time>2026-03-29T11:09:59.743Z</time></trkpt><trkpt lat="43.202177" lon="12.2237446"><ele>601.3333333333334</ele><time>2026-03-29T11:10:00.743Z</time></trkpt><trkpt lat="43.2021069" lon="12.223782"><ele>602.6666666666666</ele><time>2026-03-29T11:10:01.743Z</time></trkpt><trkpt lat="43.2020666" lon="12.2238572"><ele>604.0</ele><time>2026-03-29T11:10:02.743Z</time></trkpt><trkpt lat="43.2020629" lon="12.2239509"><ele>605.3333333333333</ele><time>2026-03-29T11:10:03.743Z</time></trkpt><trkpt lat="43.2020646" lon="12.2240463"><ele>606.6666666666666</ele><time>2026-03-29T11:10:04.743Z</time></trkpt><trkpt lat="43.2020189" lon="12.2242"><ele>608.0</ele><time>2026-03-29T11:10:06.742Z</time></trkpt><trkpt lat="43.2019807" lon="12.2242803"><ele>612.4</ele><time>2026-03-29T11:10:07.743Z</time></trkpt><trkpt lat="43.2019089" lon="12.2243492"><ele>616.8</ele><time>2026-03-29T11:10:08.743Z</time></trkpt><trkpt lat="43.2018164" lon="12.2244195"><ele>621.2</ele><time>2026-03-29T11:10:09.743Z</time></trkpt><trkpt lat="43.2017343" lon="12.224517"><ele>625.6</ele><time>2026-03-29T11:10:10.743Z</time></trkpt><trkpt lat="43.2016477" lon="12.2246098"><ele>630.0</ele><time>2026-03-29T11:10:11.743Z</time></trkpt><trkpt lat="43.2015892" lon="12.2246816"><ele>630.25</ele><time>2026-03-29T11:10:12.743Z</time></trkpt><trkpt lat="43.2014977" lon="12.224716"><ele>630.5</ele><time>2026-03-29T11:10:13.743Z</time></trkpt><trkpt lat="43.2013887" lon="12.2247562"><ele>630.75</ele><time>2026-03-29T11:10:14.743Z</time></trkpt><trkpt lat="43.2012643" lon="12.2248061"><ele>631.0</ele><time>2026-03-29T11:10:15.743Z</time></trkpt><trkpt lat="43.2011511" lon="12.2248316"><ele>636.75</ele><time>2026-03-29T11:10:16.743Z</time></trkpt><trkpt lat="43.2010296" lon="12.2248658"><ele>642.5</ele><time>2026-03-29T11:10:17.743Z</time></trkpt><trkpt lat="43.2009052" lon="12.2248879"><ele>648.25</ele><time>2026-03-29T11:10:18.743Z</time></trkpt><trkpt lat="43.2007742" lon="12.2248446"><ele>654.0</ele><time>2026-03-29T11:10:19.743Z</time></trkpt><trkpt lat="43.2006434" lon="12.2248208"><ele>653.25</ele><time>2026-03-29T11:10:20.743Z</time></trkpt><trkpt lat="43.2005116" lon="12.2247838"><ele>652.5</ele><time>2026-03-29T11:10:21.743Z</time></trkpt><trkpt lat="43.2003836" lon="12.2247597"><ele>651.75</ele><time>2026-03-29T11:10:22.743Z</time></trkpt><trkpt lat="43.2002657" lon="12.2247278"><ele>651.0</ele><time>2026-03-29T11:10:23.743Z</time></trkpt><trkpt lat="43.2001556" lon="12.224686"><ele>651.0</ele><time>2026-03-29T11:10:24.743Z</time></trkpt><trkpt lat="43.2000651" lon="12.2246635"><ele>651.0</ele><time>2026-03-29T11:10:25.743Z</time></trkpt><trkpt lat="43.1999809" lon="12.2246324"><ele>651.0</ele><time>2026-03-29T11:10:26.743Z</time></trkpt><trkpt lat="43.1999032" lon="12.2246259"><ele>651.0</ele><time>2026-03-29T11:10:27.743Z</time></trkpt><trkpt lat="43.2000048" lon="12.2247466"><ele>651.0</ele><time>2026-03-29T11:10:28.743Z</time></trkpt><trkpt lat="43.2000302" lon="12.2248586"><ele>651.6666666666666</ele><time>2026-03-29T11:10:30.742Z</time></trkpt><trkpt lat="43.20008" lon="12.2249811"><ele>652.3333333333334</ele><time>2026-03-29T11:10:32.743Z</time></trkpt><trkpt lat="43.2001188" lon="12.2250611"><ele>653.0</ele><time>2026-03-29T11:10:35.743Z</time></trkpt><trkpt lat="43.2001575" lon="12.2251625"><ele>653.6666666666667</ele><time>2026-03-29T11:10:38.743Z</time></trkpt><trkpt lat="43.20023" lon="12.2252726"><ele>654.3333333333334</ele><time>2026-03-29T11:10:40.743Z</time></trkpt><trkpt lat="43.2002565" lon="12.2253538"><ele>655.0</ele><time>2026-03-29T11:10:41.743Z</time></trkpt><trkpt lat="43.2002711" lon="12.2254893"><ele>655.0</ele><time>2026-03-29T11:10:42.743Z</time></trkpt><trkpt lat="43.2002886" lon="12.2256206"><ele>655.0</ele><time>2026-03-29T11:10:43.743Z</time></trkpt><trkpt lat="43.2002991" lon="12.2257721"><ele>655.0</ele><time>2026-03-29T11:10:44.743Z</time></trkpt><trkpt lat="43.2003123" lon="12.2259442"><ele>655.0</ele><time>2026-03-29T11:10:45.743Z</time></trkpt><trkpt lat="43.2003233" lon="12.2261135"><ele>655.0</ele><time>2026-03-29T11:10:46.743Z</time></trkpt><trkpt lat="43.2003358" lon="12.2262818"><ele>655.0</ele><time>2026-03-29T11:10:47.743Z</time></trkpt><trkpt lat="43.2003543" lon="12.2264448"><ele>655.0</ele><time>2026-03-29T11:10:48.743Z</time></trkpt><trkpt lat="43.2003668" lon="12.226637"><ele>655.0</ele><time>2026-03-29T11:10:49.743Z</time></trkpt><trkpt lat="43.200377" lon="12.226818"><ele>655.0</ele><time>2026-03-29T11:10:50.743Z</time></trkpt><trkpt lat="43.2003869" lon="12.2270116"><ele>655.0</ele><time>2026-03-29T11:10:51.743Z</time></trkpt><trkpt lat="43.2003816" lon="12.2271992"><ele>655.0</ele><time>2026-03-29T11:10:52.743Z</time></trkpt><trkpt lat="43.2003972" lon="12.2273839"><ele>655.0</ele><time>2026-03-29T11:10:53.743Z</time></trkpt><trkpt lat="43.2004237" lon="12.2275534"><ele>656.0</ele><time>2026-03-29T11:10:54.743Z</time></trkpt><trkpt lat="43.2004612" lon="12.2277258"><ele>657.0</ele><time>2026-03-29T11:10:55.743Z</time></trkpt><trkpt lat="43.2005155" lon="12.2278908"><ele>658.0</ele><time>2026-03-29T11:10:56.743Z</time></trkpt><trkpt lat="43.2005887" lon="12.2280514"><ele>659.0</ele><time>2026-03-29T11:10:57.743Z</time></trkpt><trkpt lat="43.2006675" lon="12.2282121"><ele>661.75</ele><time>2026-03-29T11:10:58.743Z</time></trkpt><trkpt lat="43.2007552" lon="12.2283724"><ele>664.5</ele><time>2026-03-29T11:10:59.743Z</time></trkpt><trkpt lat="43.2008233" lon="12.2285416"><ele>667.25</ele><time>2026-03-29T11:11:00.743Z</time></trkpt><trkpt lat="43.2008604" lon="12.228722"><ele>670.0</ele><time>2026-03-29T11:11:01.743Z</time></trkpt><trkpt lat="43.2008649" lon="12.2288912"><ele>670.75</ele><time>2026-03-29T11:11:02.743Z</time></trkpt><trkpt lat="43.2008437" lon="12.2290644"><ele>671.5</ele><time>2026-03-29T11:11:03.743Z</time></trkpt><trkpt lat="43.2007911" lon="12.2292234"><ele>672.25</ele><time>2026-03-29T11:11:04.743Z</time></trkpt><trkpt lat="43.2007174" lon="12.2293454"><ele>673.0</ele><time>2026-03-29T11:11:05.743Z</time></trkpt><trkpt lat="43.2006331" lon="12.2294586"><ele>667.3333333333334</ele><time>2026-03-29T11:11:06.742Z</time></trkpt><trkpt lat="43.2005441" lon="12.2295298"><ele>661.6666666666666</ele><time>2026-03-29T11:11:07.743Z</time></trkpt><trkpt lat="43.2003033" lon="12.2295418"><ele>656.0</ele><time>2026-03-29T11:11:08.743Z</time></trkpt><trkpt lat="43.2001448" lon="12.2295911"><ele>656.0</ele><time>2026-03-29T11:11:09.742Z</time></trkpt><trkpt lat="43.2000119" lon="12.229642"><ele>656.0</ele><time>2026-03-29T11:11:10.743Z</time></trkpt><trkpt lat="43.1998905" lon="12.2297128"><ele>656.0</ele><time>2026-03-29T11:11:11.743Z</time></trkpt><trkpt lat="43.1997899" lon="12.2298097"><ele>656.0</ele><time>2026-03-29T11:11:12.743Z</time></trkpt><trkpt lat="43.1997296" lon="12.2299179"><ele>655.8</ele><time>2026-03-29T11:11:13.743Z</time></trkpt><trkpt lat="43.1997053" lon="12.2300393"><ele>655.5999999999999</ele><time>2026-03-29T11:11:14.743Z</time></trkpt><trkpt lat="43.1997092" lon="12.2301554"><ele>655.4</ele><time>2026-03-29T11:11:15.743Z</time></trkpt><trkpt lat="43.1997452" lon="12.2302653"><ele>655.2</ele><time>2026-03-29T11:11:16.743Z</time></trkpt><trkpt lat="43.1998132" lon="12.2303859"><ele>655.0</ele><time>2026-03-29T11:11:17.743Z</time></trkpt><trkpt lat="43.199887" lon="12.230523"><ele>655.5</ele><time>2026-03-29T11:11:18.743Z</time></trkpt><trkpt lat="43.1999686" lon="12.2306567"><ele>656.0</ele><time>2026-03-29T11:11:19.743Z</time></trkpt><trkpt lat="43.2000523" lon="12.2307787"><ele>656.5</ele><time>2026-03-29T11:11:20.743Z</time></trkpt><trkpt lat="43.2001397" lon="12.2308873"><ele>657.0</ele><time>2026-03-29T11:11:21.743Z</time></trkpt><trkpt lat="43.2002316" lon="12.2309824"><ele>657.0</ele><time>2026-03-29T11:11:22.743Z</time></trkpt><trkpt lat="43.2003411" lon="12.2310703"><ele>657.0</ele><time>2026-03-29T11:11:23.743Z</time></trkpt><trkpt lat="43.2004641" lon="12.231148"><ele>657.0</ele><time>2026-03-29T11:11:24.743Z</time></trkpt><trkpt lat="43.2005963" lon="12.2312077"><ele>657.0</ele><time>2026-03-29T11:11:25.743Z</time></trkpt><trkpt lat="43.2007332" lon="12.2312424"><ele>658.25</ele><time>2026-03-29T11:11:26.743Z</time></trkpt><trkpt lat="43.20087" lon="12.2312684"><ele>659.5</ele><time>2026-03-29T11:11:27.743Z</time></trkpt><trkpt lat="43.2009943" lon="12.2312775"><ele>660.75</ele><time>2026-03-29T11:11:28.743Z</time></trkpt><trkpt lat="43.2011221" lon="12.2312951"><ele>662.0</ele><time>2026-03-29T11:11:29.743Z</time></trkpt><trkpt lat="43.2012364" lon="12.2313419"><ele>662.0</ele><time>2026-03-29T11:11:30.743Z</time></trkpt><trkpt lat="43.2013389" lon="12.2313976"><ele>662.0</ele><time>2026-03-29T11:11:31.743Z</time></trkpt><trkpt lat="43.2014162" lon="12.231507"><ele>662.0</ele><time>2026-03-29T11:11:32.743Z</time></trkpt><trkpt lat="43.2014841" lon="12.2316092"><ele>662.0</ele><time>2026-03-29T11:11:33.743Z</time></trkpt><trkpt lat="43.2014537" lon="12.2317997"><ele>656.25</ele><time>2026-03-29T11:11:34.743Z</time></trkpt><trkpt lat="43.2014483" lon="12.231962"><ele>650.5</ele><time>2026-03-29T11:11:35.743Z</time></trkpt><trkpt lat="43.2014199" lon="12.2321465"><ele>644.75</ele><time>2026-03-29T11:11:36.743Z</time></trkpt><trkpt lat="43.2013892" lon="12.232357"><ele>639.0</ele><time>2026-03-29T11:11:37.743Z</time></trkpt><trkpt lat="43.2013688" lon="12.2325769"><ele>634.3333333333334</ele><time>2026-03-29T11:11:38.743Z</time></trkpt><trkpt lat="43.201361" lon="12.2328053"><ele>629.6666666666667</ele><time>2026-03-29T11:11:39.743Z</time></trkpt><trkpt lat="43.2013657" lon="12.2330444"><ele>625.0</ele><time>2026-03-29T11:11:40.743Z</time></trkpt><trkpt lat="43.2013944" lon="12.2332933"><ele>625.0</ele><time>2026-03-29T11:11:41.743Z</time></trkpt><trkpt lat="43.2014321" lon="12.2335472"><ele>625.0</ele><time>2026-03-29T11:11:42.743Z</time></trkpt><trkpt lat="43.2014793" lon="12.2338028"><ele>625.0</ele><time>2026-03-29T11:11:43.743Z</time></trkpt><trkpt lat="43.2015259" lon="12.2340613"><ele>630.3333333333334</ele><time>2026-03-29T11:11:44.743Z</time></trkpt><trkpt lat="43.2015678" lon="12.2343227"><ele>635.6666666666666</ele><time>2026-03-29T11:11:45.743Z</time></trkpt><trkpt lat="43.2016076" lon="12.2345851"><ele>641.0</ele><time>2026-03-29T11:11:46.743Z</time></trkpt><trkpt lat="43.2016528" lon="12.234842"><ele>641.6666666666666</ele><time>2026-03-29T11:11:47.743Z</time></trkpt><trkpt lat="43.2016904" lon="12.2351011"><ele>642.3333333333334</ele><time>2026-03-29T11:11:48.743Z</time></trkpt><trkpt lat="43.2017351" lon="12.2353567"><ele>643.0</ele><time>2026-03-29T11:11:49.743Z</time></trkpt><trkpt lat="43.2017826" lon="12.2356087"><ele>642.6666666666667</ele><time>2026-03-29T11:11:50.743Z</time></trkpt><trkpt lat="43.2018385" lon="12.2358737"><ele>642.3333333333334</ele><time>2026-03-29T11:11:51.743Z</time></trkpt><trkpt lat="43.2018949" lon="12.2361286"><ele>642.0</ele><time>2026-03-29T11:11:52.743Z</time></trkpt><trkpt lat="43.2019631" lon="12.2363745"><ele>641.0</ele><time>2026-03-29T11:11:53.743Z</time></trkpt><trkpt lat="43.2020362" lon="12.2366185"><ele>640.0</ele><time>2026-03-29T11:11:54.743Z</time></trkpt><trkpt lat="43.2021022" lon="12.2368662"><ele>639.0</ele><time>2026-03-29T11:11:55.743Z</time></trkpt><trkpt lat="43.2021587" lon="12.2371144"><ele>638.6666666666666</ele><time>2026-03-29T11:11:56.743Z</time></trkpt><trkpt lat="43.2022046" lon="12.2373671"><ele>638.3333333333333</ele><time>2026-03-29T11:11:57.743Z</time></trkpt><trkpt lat="43.2022529" lon="12.2376153"><ele>638.0</ele><time>2026-03-29T11:11:58.743Z</time></trkpt><trkpt lat="43.2022914" lon="12.237869"><ele>643.0</ele><time>2026-03-29T11:11:59.743Z</time></trkpt><trkpt lat="43.2023366" lon="12.2381138"><ele>648.0</ele><time>2026-03-29T11:12:00.743Z</time></trkpt><trkpt lat="43.2023837" lon="12.2383531"><ele>653.0</ele><time>2026-03-29T11:12:01.743Z</time></trkpt><trkpt lat="43.2024458" lon="12.2385898"><ele>653.3333333333333</ele><time>2026-03-29T11:12:02.743Z</time></trkpt><trkpt lat="43.2025158" lon="12.2388266"><ele>653.6666666666666</ele><time>2026-03-29T11:12:03.743Z</time></trkpt><trkpt lat="43.2026016" lon="12.2390586"><ele>654.0</ele><time>2026-03-29T11:12:04.743Z</time></trkpt><trkpt lat="43.2026871" lon="12.2392902"><ele>653.6666666666666</ele><time>2026-03-29T11:12:05.743Z</time></trkpt><trkpt lat="43.2027786" lon="12.239522"><ele>653.3333333333333</ele><time>2026-03-29T11:12:06.743Z</time></trkpt><trkpt lat="43.2028663" lon="12.2397349"><ele>653.0</ele><time>2026-03-29T11:12:07.743Z</time></trkpt><trkpt lat="43.2029221" lon="12.2399021"><ele>653.0</ele><time>2026-03-29T11:12:08.743Z</time></trkpt><trkpt lat="43.2029561" lon="12.2400011"><ele>653.0</ele><time>2026-03-29T11:12:09.743Z</time></trkpt><trkpt lat="43.2030043" lon="12.2401143"><ele>653.0</ele><time>2026-03-29T11:12:11.743Z</time></trkpt><trkpt lat="43.2030151" lon="12.2400144"><ele>653.0</ele><time>2026-03-29T11:12:15.743Z</time></trkpt><trkpt lat="43.2029744" lon="12.2399302"><ele>653.0</ele><time>2026-03-29T11:12:16.743Z</time></trkpt><trkpt lat="43.2028738" lon="12.2398573"><ele>653.0</ele><time>2026-03-29T11:12:18.742Z</time></trkpt><trkpt lat="43.2028116" lon="12.2398354"><ele>653.0</ele><time>2026-03-29T11:12:19.743Z</time></trkpt><trkpt lat="43.2027311" lon="12.2398637"><ele>653.0</ele><time>2026-03-29T11:12:20.743Z</time></trkpt><trkpt lat="43.2026326" lon="12.2399415"><ele>653.0</ele><time>2026-03-29T11:12:22.743Z</time></trkpt><trkpt lat="43.202592" lon="12.2400244"><ele>653.0</ele><time>2026-03-29T11:12:23.743Z</time></trkpt><trkpt lat="43.2025328" lon="12.2401221"><ele>653.0</ele><time>2026-03-29T11:12:24.743Z</time></trkpt><trkpt lat="43.2024686" lon="12.2402256"><ele>653.0</ele><time>2026-03-29T11:12:25.743Z</time></trkpt><trkpt lat="43.2024069" lon="12.2403135"><ele>653.0</ele><time>2026-03-29T11:12:26.743Z</time></trkpt><trkpt lat="43.2023554" lon="12.2404068"><ele>653.0</ele><time>2026-03-29T11:12:27.743Z</time></trkpt><trkpt lat="43.2023296" lon="12.2405027"><ele>653.0</ele><time>2026-03-29T11:12:28.743Z</time></trkpt><trkpt lat="43.2023219" lon="12.2406043"><ele>653.0</ele><time>2026-03-29T11:12:29.743Z</time></trkpt><trkpt lat="43.2023435" lon="12.2407223"><ele>653.0</ele><time>2026-03-29T11:12:30.743Z</time></trkpt><trkpt lat="43.2023938" lon="12.2408386"><ele>652.5</ele><time>2026-03-29T11:12:31.743Z</time></trkpt><trkpt lat="43.2024594" lon="12.240941"><ele>652.0</ele><time>2026-03-29T11:12:32.743Z</time></trkpt><trkpt lat="43.2025556" lon="12.2410414"><ele>651.5</ele><time>2026-03-29T11:12:33.743Z</time></trkpt><trkpt lat="43.2026653" lon="12.2411278"><ele>651.0</ele><time>2026-03-29T11:12:34.743Z</time></trkpt><trkpt lat="43.2027911" lon="12.2412198"><ele>651.0</ele><time>2026-03-29T11:12:35.743Z</time></trkpt><trkpt lat="43.202913" lon="12.2413113"><ele>651.0</ele><time>2026-03-29T11:12:36.743Z</time></trkpt><trkpt lat="43.2030277" lon="12.2414088"><ele>651.0</ele><time>2026-03-29T11:12:37.743Z</time></trkpt><trkpt lat="43.2031382" lon="12.2415296"><ele>651.0</ele><time>2026-03-29T11:12:38.743Z</time></trkpt><trkpt lat="43.2032441" lon="12.2416429"><ele>649.0</ele><time>2026-03-29T11:12:39.742Z</time></trkpt><trkpt lat="43.203349" lon="12.2417558"><ele>647.0</ele><time>2026-03-29T11:12:40.743Z</time></trkpt><trkpt lat="43.2034537" lon="12.2418513"><ele>645.0</ele><time>2026-03-29T11:12:41.743Z</time></trkpt><trkpt lat="43.2035599" lon="12.2419287"><ele>643.0</ele><time>2026-03-29T11:12:42.743Z</time></trkpt><trkpt lat="43.203648" lon="12.2420137"><ele>643.0</ele><time>2026-03-29T11:12:43.743Z</time></trkpt><trkpt lat="43.2037099" lon="12.2421252"><ele>643.0</ele><time>2026-03-29T11:12:44.743Z</time></trkpt><trkpt lat="43.2037662" lon="12.2422508"><ele>643.0</ele><time>2026-03-29T11:12:45.742Z</time></trkpt><trkpt lat="43.2037935" lon="12.242413"><ele>643.0</ele><time>2026-03-29T11:12:46.742Z</time></trkpt><trkpt lat="43.2038102" lon="12.2425579"><ele>643.0</ele><time>2026-03-29T11:12:47.743Z</time></trkpt><trkpt lat="43.2038087" lon="12.2426868"><ele>638.8</ele><time>2026-03-29T11:12:48.743Z</time></trkpt><trkpt lat="43.2037933" lon="12.2427853"><ele>634.5999999999999</ele><time>2026-03-29T11:12:49.743Z</time></trkpt><trkpt lat="43.2037451" lon="12.2428543"><ele>630.4000000000001</ele><time>2026-03-29T11:12:50.743Z</time></trkpt><trkpt lat="43.2036783" lon="12.2429156"><ele>626.2</ele><time>2026-03-29T11:12:51.743Z</time></trkpt><trkpt lat="43.2035636" lon="12.2429607"><ele>622.0</ele><time>2026-03-29T11:12:52.743Z</time></trkpt><trkpt lat="43.2034295" lon="12.2430124"><ele>622.0</ele><time>2026-03-29T11:12:53.743Z</time></trkpt><trkpt lat="43.203296" lon="12.2430612"><ele>622.0</ele><time>2026-03-29T11:12:54.743Z</time></trkpt><trkpt lat="43.2031683" lon="12.2431507"><ele>622.0</ele><time>2026-03-29T11:12:55.743Z</time></trkpt><trkpt lat="43.203049" lon="12.243212"><ele>622.0</ele><time>2026-03-29T11:12:56.743Z</time></trkpt><trkpt lat="43.2029435" lon="12.2432838"><ele>619.0</ele><time>2026-03-29T11:12:57.743Z</time></trkpt><trkpt lat="43.2028413" lon="12.2433699"><ele>616.0</ele><time>2026-03-29T11:12:58.743Z</time></trkpt><trkpt lat="43.202757" lon="12.2434742"><ele>613.0</ele><time>2026-03-29T11:12:59.743Z</time></trkpt><trkpt lat="43.2026686" lon="12.243574"><ele>610.0</ele><time>2026-03-29T11:13:00.743Z</time></trkpt><trkpt lat="43.2026148" lon="12.2436649"><ele>607.0</ele><time>2026-03-29T11:13:01.742Z</time></trkpt><trkpt lat="43.2025519" lon="12.2437236"><ele>607.0</ele><time>2026-03-29T11:13:02.743Z</time></trkpt><trkpt lat="43.2024439" lon="12.2437298"><ele>607.0</ele><time>2026-03-29T11:13:03.743Z</time></trkpt><trkpt lat="43.2023254" lon="12.243741"><ele>607.0</ele><time>2026-03-29T11:13:04.743Z</time></trkpt><trkpt lat="43.2022348" lon="12.2437678"><ele>607.0</ele><time>2026-03-29T11:13:05.743Z</time></trkpt><trkpt lat="43.202145" lon="12.2438"><ele>607.0</ele><time>2026-03-29T11:13:06.743Z</time></trkpt><trkpt lat="43.2020741" lon="12.2438875"><ele>604.0</ele><time>2026-03-29T11:13:07.743Z</time></trkpt><trkpt lat="43.201989" lon="12.2439854"><ele>601.0</ele><time>2026-03-29T11:13:08.743Z</time></trkpt><trkpt lat="43.2019104" lon="12.2441253"><ele>598.0</ele><time>2026-03-29T11:13:09.743Z</time></trkpt><trkpt lat="43.2018381" lon="12.2442458"><ele>595.0</ele><time>2026-03-29T11:13:10.743Z</time></trkpt><trkpt lat="43.2017784" lon="12.244375"><ele>595.0</ele><time>2026-03-29T11:13:11.743Z</time></trkpt><trkpt lat="43.201725" lon="12.2444975"><ele>595.0</ele><time>2026-03-29T11:13:12.743Z</time></trkpt><trkpt lat="43.2016848" lon="12.244615"><ele>595.0</ele><time>2026-03-29T11:13:13.743Z</time></trkpt><trkpt lat="43.2016866" lon="12.2447282"><ele>595.0</ele><time>2026-03-29T11:13:14.743Z</time></trkpt><trkpt lat="43.2017161" lon="12.244878"><ele>595.0</ele><time>2026-03-29T11:13:16.743Z</time></trkpt><trkpt lat="43.2017965" lon="12.2449636"><ele>595.4</ele><time>2026-03-29T11:13:17.743Z</time></trkpt><trkpt lat="43.2018376" lon="12.2450751"><ele>595.8</ele><time>2026-03-29T11:13:18.743Z</time></trkpt><trkpt lat="43.2018708" lon="12.2452153"><ele>596.2</ele><time>2026-03-29T11:13:19.743Z</time></trkpt><trkpt lat="43.2018953" lon="12.2453696"><ele>596.6</ele><time>2026-03-29T11:13:20.743Z</time></trkpt><trkpt lat="43.2019063" lon="12.2455287"><ele>597.0</ele><time>2026-03-29T11:13:21.743Z</time></trkpt><trkpt lat="43.2019265" lon="12.2456851"><ele>594.8000000000001</ele><time>2026-03-29T11:13:22.742Z</time></trkpt><trkpt lat="43.2019625" lon="12.2458249"><ele>592.6</ele><time>2026-03-29T11:13:23.743Z</time></trkpt><trkpt lat="43.201987" lon="12.2459621"><ele>590.4000000000001</ele><time>2026-03-29T11:13:24.742Z</time></trkpt><trkpt lat="43.2020065" lon="12.2460963"><ele>588.2</ele><time>2026-03-29T11:13:25.743Z</time></trkpt><trkpt lat="43.2019845" lon="12.2462607"><ele>586.0</ele><time>2026-03-29T11:13:26.743Z</time></trkpt><trkpt lat="43.2019308" lon="12.2464127"><ele>586.2</ele><time>2026-03-29T11:13:27.743Z</time></trkpt><trkpt lat="43.2018702" lon="12.2465508"><ele>586.4000000000001</ele><time>2026-03-29T11:13:28.743Z</time></trkpt><trkpt lat="43.2018284" lon="12.2466888"><ele>586.6</ele><time>2026-03-29T11:13:29.743Z</time></trkpt><trkpt lat="43.2018095" lon="12.2468361"><ele>586.8000000000001</ele><time>2026-03-29T11:13:30.743Z</time></trkpt><trkpt lat="43.2018035" lon="12.2469784"><ele>587.0</ele><time>2026-03-29T11:13:31.743Z</time></trkpt><trkpt lat="43.2018079" lon="12.2471156"><ele>587.0</ele><time>2026-03-29T11:13:32.743Z</time></trkpt><trkpt lat="43.2018257" lon="12.2472369"><ele>587.0</ele><time>2026-03-29T11:13:33.743Z</time></trkpt><trkpt lat="43.201849" lon="12.2473405"><ele>587.0</ele><time>2026-03-29T11:13:34.743Z</time></trkpt><trkpt lat="43.2019009" lon="12.247491"><ele>587.0</ele><time>2026-03-29T11:13:36.743Z</time></trkpt><trkpt lat="43.2019312" lon="12.2476427"><ele>587.0</ele><time>2026-03-29T11:13:38.743Z</time></trkpt><trkpt lat="43.2018845" lon="12.2477059"><ele>588.0</ele><time>2026-03-29T11:13:39.743Z</time></trkpt><trkpt lat="43.2018171" lon="12.2478469"><ele>589.0</ele><time>2026-03-29T11:13:41.743Z</time></trkpt><trkpt lat="43.2017751" lon="12.2479359"><ele>590.0</ele><time>2026-03-29T11:13:42.743Z</time></trkpt><trkpt lat="43.2017381" lon="12.2480434"><ele>591.0</ele><time>2026-03-29T11:13:43.743Z</time></trkpt><trkpt lat="43.2017033" lon="12.2481724"><ele>592.0</ele><time>2026-03-29T11:13:44.743Z</time></trkpt><trkpt lat="43.2016943" lon="12.248336"><ele>592.0</ele><time>2026-03-29T11:13:45.743Z</time></trkpt><trkpt lat="43.2016913" lon="12.2485113"><ele>592.0</ele><time>2026-03-29T11:13:46.743Z</time></trkpt><trkpt lat="43.2016772" lon="12.248675"><ele>592.0</ele><time>2026-03-29T11:13:47.743Z</time></trkpt><trkpt lat="43.2016669" lon="12.2488218"><ele>592.0</ele><time>2026-03-29T11:13:48.743Z</time></trkpt><trkpt lat="43.2016691" lon="12.2489238"><ele>592.0</ele><time>2026-03-29T11:13:49.743Z</time></trkpt><trkpt lat="43.2016963" lon="12.2490272"><ele>588.8000000000001</ele><time>2026-03-29T11:13:50.742Z</time></trkpt><trkpt lat="43.2017407" lon="12.2491144"><ele>585.6</ele><time>2026-03-29T11:13:51.743Z</time></trkpt><trkpt lat="43.2018132" lon="12.2491909"><ele>582.4000000000001</ele><time>2026-03-29T11:13:52.743Z</time></trkpt><trkpt lat="43.2018912" lon="12.2492683"><ele>579.2</ele><time>2026-03-29T11:13:53.743Z</time></trkpt><trkpt lat="43.2019881" lon="12.2493611"><ele>576.0</ele><time>2026-03-29T11:13:54.743Z</time></trkpt><trkpt lat="43.2020972" lon="12.2494784"><ele>576.0</ele><time>2026-03-29T11:13:55.743Z</time></trkpt><trkpt lat="43.2021993" lon="12.2495576"><ele>576.0</ele><time>2026-03-29T11:13:56.743Z</time></trkpt><trkpt lat="43.2023027" lon="12.2495942"><ele>576.0</ele><time>2026-03-29T11:13:57.743Z</time></trkpt><trkpt lat="43.2023767" lon="12.2496594"><ele>576.0</ele><time>2026-03-29T11:13:58.743Z</time></trkpt><trkpt lat="43.2024505" lon="12.2497247"><ele>576.0</ele><time>2026-03-29T11:13:59.742Z</time></trkpt><trkpt lat="43.2024972" lon="12.249804"><ele>575.0</ele><time>2026-03-29T11:14:00.743Z</time></trkpt><trkpt lat="43.2024682" lon="12.2499607"><ele>574.0</ele><time>2026-03-29T11:14:01.743Z</time></trkpt><trkpt lat="43.2024452" lon="12.2500915"><ele>573.0</ele><time>2026-03-29T11:14:02.743Z</time></trkpt><trkpt lat="43.2024132" lon="12.2502133"><ele>572.0</ele><time>2026-03-29T11:14:03.743Z</time></trkpt><trkpt lat="43.2023564" lon="12.2502989"><ele>571.0</ele><time>2026-03-29T11:14:04.742Z</time></trkpt><trkpt lat="43.2023092" lon="12.2503742"><ele>568.6</ele><time>2026-03-29T11:14:05.743Z</time></trkpt><trkpt lat="43.2021677" lon="12.2504111"><ele>566.2</ele><time>2026-03-29T11:14:07.743Z</time></trkpt><trkpt lat="43.2020829" lon="12.2504175"><ele>563.8</ele><time>2026-03-29T11:14:08.743Z</time></trkpt><trkpt lat="43.2019612" lon="12.2503724"><ele>561.4</ele><time>2026-03-29T11:14:09.743Z</time></trkpt><trkpt lat="43.2018805" lon="12.250355"><ele>559.0</ele><time>2026-03-29T11:14:10.743Z</time></trkpt><trkpt lat="43.2018034" lon="12.2503367"><ele>559.0</ele><time>2026-03-29T11:14:11.743Z</time></trkpt><trkpt lat="43.2017312" lon="12.2503331"><ele>559.0</ele><time>2026-03-29T11:14:12.743Z</time></trkpt><trkpt lat="43.2016505" lon="12.2503611"><ele>559.0</ele><time>2026-03-29T11:14:13.743Z</time></trkpt><trkpt lat="43.2015878" lon="12.2504192"><ele>559.0</ele><time>2026-03-29T11:14:14.743Z</time></trkpt><trkpt lat="43.2015385" lon="12.2505023"><ele>559.0</ele><time>2026-03-29T11:14:15.743Z</time></trkpt><trkpt lat="43.2015058" lon="12.2505919"><ele>559.0</ele><time>2026-03-29T11:14:16.743Z</time></trkpt><trkpt lat="43.2014993" lon="12.2506878"><ele>558.0</ele><time>2026-03-29T11:14:17.743Z</time></trkpt><trkpt lat="43.2015064" lon="12.2507974"><ele>557.0</ele><time>2026-03-29T11:14:18.743Z</time></trkpt><trkpt lat="43.2015167" lon="12.2509018"><ele>556.0</ele><time>2026-03-29T11:14:19.743Z</time></trkpt><trkpt lat="43.2015201" lon="12.2510036"><ele>555.0</ele><time>2026-03-29T11:14:20.743Z</time></trkpt><trkpt lat="43.2014925" lon="12.2511367"><ele>554.0</ele><time>2026-03-29T11:14:22.743Z</time></trkpt><trkpt lat="43.2014511" lon="12.251218"><ele>553.0</ele><time>2026-03-29T11:14:24.743Z</time></trkpt><trkpt lat="43.2013757" lon="12.2513237"><ele>549.6666666666667</ele><time>2026-03-29T11:14:26.743Z</time></trkpt><trkpt lat="43.2013209" lon="12.2513861"><ele>546.3333333333334</ele><time>2026-03-29T11:14:27.742Z</time></trkpt><trkpt lat="43.2012687" lon="12.2514747"><ele>543.0</ele><time>2026-03-29T11:14:28.743Z</time></trkpt><trkpt lat="43.2012202" lon="12.2515675"><ele>539.6666666666666</ele><time>2026-03-29T11:14:29.743Z</time></trkpt><trkpt lat="43.2011559" lon="12.2516805"><ele>536.3333333333333</ele><time>2026-03-29T11:14:30.743Z</time></trkpt><trkpt lat="43.2010898" lon="12.2517934"><ele>533.0</ele><time>2026-03-29T11:14:31.743Z</time></trkpt><trkpt lat="43.201036" lon="12.2519305"><ele>533.0</ele><time>2026-03-29T11:14:32.742Z</time></trkpt><trkpt lat="43.2009724" lon="12.2520625"><ele>533.0</ele><time>2026-03-29T11:14:33.743Z</time></trkpt><trkpt lat="43.2009097" lon="12.2522221"><ele>533.0</ele><time>2026-03-29T11:14:34.743Z</time></trkpt><trkpt lat="43.2008277" lon="12.2523753"><ele>533.0</ele><time>2026-03-29T11:14:35.743Z</time></trkpt><trkpt lat="43.2007552" lon="12.2525262"><ele>533.25</ele><time>2026-03-29T11:14:36.743Z</time></trkpt><trkpt lat="43.200691" lon="12.2526871"><ele>533.5</ele><time>2026-03-29T11:14:37.743Z</time></trkpt><trkpt lat="43.2006239" lon="12.2528389"><ele>533.75</ele><time>2026-03-29T11:14:38.743Z</time></trkpt><trkpt lat="43.2005624" lon="12.2529692"><ele>534.0</ele><time>2026-03-29T11:14:39.743Z</time></trkpt><trkpt lat="43.2004997" lon="12.2530983"><ele>533.8</ele><time>2026-03-29T11:14:40.743Z</time></trkpt><trkpt lat="43.2004134" lon="12.2532109"><ele>533.5999999999999</ele><time>2026-03-29T11:14:41.743Z</time></trkpt><trkpt lat="43.2003315" lon="12.2532844"><ele>533.4</ele><time>2026-03-29T11:14:42.743Z</time></trkpt><trkpt lat="43.2002391" lon="12.2533435"><ele>533.1999999999999</ele><time>2026-03-29T11:14:43.743Z</time></trkpt><trkpt lat="43.200155" lon="12.2533784"><ele>533.0</ele><time>2026-03-29T11:14:44.743Z</time></trkpt><trkpt lat="43.2000723" lon="12.2534055"><ele>533.0</ele><time>2026-03-29T11:14:45.743Z</time></trkpt><trkpt lat="43.1999995" lon="12.2534264"><ele>533.0</ele><time>2026-03-29T11:14:46.743Z</time></trkpt><trkpt lat="43.1999139" lon="12.2534409"><ele>533.0</ele><time>2026-03-29T11:14:47.743Z</time></trkpt><trkpt lat="43.1998327" lon="12.2534541"><ele>533.0</ele><time>2026-03-29T11:14:48.743Z</time></trkpt><trkpt lat="43.1997383" lon="12.2534733"><ele>533.0</ele><time>2026-03-29T11:14:49.743Z</time></trkpt><trkpt lat="43.1996414" lon="12.2535053"><ele>533.0</ele><time>2026-03-29T11:14:50.743Z</time></trkpt><trkpt lat="43.1995477" lon="12.2535514"><ele>531.5</ele><time>2026-03-29T11:14:51.742Z</time></trkpt><trkpt lat="43.1994425" lon="12.253609"><ele>530.0</ele><time>2026-03-29T11:14:52.743Z</time></trkpt><trkpt lat="43.1993369" lon="12.2536765"><ele>528.5</ele><time>2026-03-29T11:14:53.743Z</time></trkpt><trkpt lat="43.1992144" lon="12.2537495"><ele>527.0</ele><time>2026-03-29T11:14:54.743Z</time></trkpt><trkpt lat="43.1991026" lon="12.2538231"><ele>527.0</ele><time>2026-03-29T11:14:55.743Z</time></trkpt><trkpt lat="43.1990176" lon="12.2538961"><ele>527.0</ele><time>2026-03-29T11:14:56.743Z</time></trkpt><trkpt lat="43.1989578" lon="12.2539777"><ele>527.0</ele><time>2026-03-29T11:14:57.743Z</time></trkpt><trkpt lat="43.1989005" lon="12.2540622"><ele>527.0</ele><time>2026-03-29T11:14:58.743Z</time></trkpt><trkpt lat="43.1988384" lon="12.2541392"><ele>527.0</ele><time>2026-03-29T11:14:59.743Z</time></trkpt><trkpt lat="43.1987642" lon="12.2541974"><ele>527.0</ele><time>2026-03-29T11:15:00.743Z</time></trkpt><trkpt lat="43.1986771" lon="12.254243"><ele>527.6</ele><time>2026-03-29T11:15:01.743Z</time></trkpt><trkpt lat="43.1985849" lon="12.2542833"><ele>528.2</ele><time>2026-03-29T11:15:02.743Z</time></trkpt><trkpt lat="43.1984852" lon="12.2543186"><ele>528.8</ele><time>2026-03-29T11:15:03.743Z</time></trkpt><trkpt lat="43.1983784" lon="12.254338"><ele>529.4</ele><time>2026-03-29T11:15:04.743Z</time></trkpt><trkpt lat="43.1982641" lon="12.254368"><ele>530.0</ele><time>2026-03-29T11:15:05.743Z</time></trkpt><trkpt lat="43.1981546" lon="12.2543933"><ele>527.4</ele><time>2026-03-29T11:15:06.743Z</time></trkpt><trkpt lat="43.1980464" lon="12.254417"><ele>524.8</ele><time>2026-03-29T11:15:07.743Z</time></trkpt><trkpt lat="43.1979364" lon="12.2544383"><ele>522.2</ele><time>2026-03-29T11:15:08.743Z</time></trkpt><trkpt lat="43.1978334" lon="12.2544556"><ele>519.6</ele><time>2026-03-29T11:15:09.743Z</time></trkpt><trkpt lat="43.1977402" lon="12.2544891"><ele>517.0</ele><time>2026-03-29T11:15:10.743Z</time></trkpt><trkpt lat="43.197651" lon="12.2545397"><ele>517.0</ele><time>2026-03-29T11:15:11.743Z</time></trkpt><trkpt lat="43.1975666" lon="12.2546142"><ele>517.0</ele><time>2026-03-29T11:15:12.742Z</time></trkpt><trkpt lat="43.197492" lon="12.2546954"><ele>517.0</ele><time>2026-03-29T11:15:13.743Z</time></trkpt><trkpt lat="43.1974227" lon="12.2547888"><ele>517.0</ele><time>2026-03-29T11:15:14.743Z</time></trkpt><trkpt lat="43.1973779" lon="12.2548821"><ele>517.0</ele><time>2026-03-29T11:15:15.743Z</time></trkpt><trkpt lat="43.1973415" lon="12.2549743"><ele>516.5</ele><time>2026-03-29T11:15:16.743Z</time></trkpt><trkpt lat="43.1973325" lon="12.2550729"><ele>516.0</ele><time>2026-03-29T11:15:17.743Z</time></trkpt><trkpt lat="43.1973431" lon="12.2551852"><ele>515.5</ele><time>2026-03-29T11:15:18.743Z</time></trkpt><trkpt lat="43.1973635" lon="12.2553044"><ele>515.0</ele><time>2026-03-29T11:15:19.743Z</time></trkpt><trkpt lat="43.1973839" lon="12.2554051"><ele>514.5</ele><time>2026-03-29T11:15:20.743Z</time></trkpt><trkpt lat="43.1973366" lon="12.2555283"><ele>514.0</ele><time>2026-03-29T11:15:22.742Z</time></trkpt><trkpt lat="43.1972778" lon="12.2555735"><ele>511.0</ele><time>2026-03-29T11:15:23.743Z</time></trkpt><trkpt lat="43.1972079" lon="12.2556356"><ele>508.0</ele><time>2026-03-29T11:15:24.743Z</time></trkpt><trkpt lat="43.1971112" lon="12.2557097"><ele>505.0</ele><time>2026-03-29T11:15:25.742Z</time></trkpt><trkpt lat="43.1970227" lon="12.2557982"><ele>502.0</ele><time>2026-03-29T11:15:26.743Z</time></trkpt><trkpt lat="43.1969354" lon="12.255891"><ele>499.0</ele><time>2026-03-29T11:15:27.742Z</time></trkpt><trkpt lat="43.196839" lon="12.2559668"><ele>499.0</ele><time>2026-03-29T11:15:28.743Z</time></trkpt><trkpt lat="43.1967381" lon="12.2560224"><ele>499.0</ele><time>2026-03-29T11:15:29.743Z</time></trkpt><trkpt lat="43.1966365" lon="12.2560472"><ele>499.0</ele><time>2026-03-29T11:15:30.743Z</time></trkpt><trkpt lat="43.1965239" lon="12.2560437"><ele>499.0</ele><time>2026-03-29T11:15:31.743Z</time></trkpt><trkpt lat="43.1964213" lon="12.2560459"><ele>499.0</ele><time>2026-03-29T11:15:32.743Z</time></trkpt><trkpt lat="43.1963039" lon="12.2560499"><ele>497.6</ele><time>2026-03-29T11:15:33.743Z</time></trkpt><trkpt lat="43.1961867" lon="12.2560652"><ele>496.2</ele><time>2026-03-29T11:15:34.743Z</time></trkpt><trkpt lat="43.1960834" lon="12.2560934"><ele>494.80000000000007</ele><time>2026-03-29T11:15:35.743Z</time></trkpt><trkpt lat="43.1959755" lon="12.2561429"><ele>493.40000000000003</ele><time>2026-03-29T11:15:36.743Z</time></trkpt><trkpt lat="43.1958792" lon="12.2561748"><ele>492.0</ele><time>2026-03-29T11:15:37.743Z</time></trkpt><trkpt lat="43.1958007" lon="12.256186"><ele>492.0</ele><time>2026-03-29T11:15:38.743Z</time></trkpt><trkpt lat="43.1957021" lon="12.2560967"><ele>492.00000000000006</ele><time>2026-03-29T11:15:40.743Z</time></trkpt><trkpt lat="43.1956618" lon="12.2559946"><ele>492.00000000000006</ele><time>2026-03-29T11:15:41.743Z</time></trkpt><trkpt lat="43.1956005" lon="12.2558827"><ele>492.0</ele><time>2026-03-29T11:15:42.743Z</time></trkpt><trkpt lat="43.1955167" lon="12.2557689"><ele>492.0</ele><time>2026-03-29T11:15:43.743Z</time></trkpt><trkpt lat="43.1954313" lon="12.25565"><ele>490.0</ele><time>2026-03-29T11:15:44.743Z</time></trkpt><trkpt lat="43.1953467" lon="12.2555361"><ele>488.00000000000006</ele><time>2026-03-29T11:15:45.743Z</time></trkpt><trkpt lat="43.1952759" lon="12.2554282"><ele>486.00000000000006</ele><time>2026-03-29T11:15:46.743Z</time></trkpt><trkpt lat="43.1952317" lon="12.2553486"><ele>484.0</ele><time>2026-03-29T11:15:47.743Z</time></trkpt><trkpt lat="43.1951828" lon="12.2552788"><ele>482.0</ele><time>2026-03-29T11:15:48.743Z</time></trkpt><trkpt lat="43.1951097" lon="12.2551806"><ele>482.0</ele><time>2026-03-29T11:15:50.743Z</time></trkpt><trkpt lat="43.1950072" lon="12.2551516"><ele>482.00000000000006</ele><time>2026-03-29T11:15:52.743Z</time></trkpt><trkpt lat="43.1949331" lon="12.2551688"><ele>482.00000000000006</ele><time>2026-03-29T11:15:54.743Z</time></trkpt><trkpt lat="43.194905" lon="12.2552627"><ele>482.0</ele><time>2026-03-29T11:15:56.743Z</time></trkpt><trkpt lat="43.1948461" lon="12.2553569"><ele>482.0</ele><time>2026-03-29T11:15:59.743Z</time></trkpt><trkpt lat="43.1947273" lon="12.2553027"><ele>479.75</ele><time>2026-03-29T11:16:01.743Z</time></trkpt><trkpt lat="43.1946404" lon="12.2552774"><ele>477.5</ele><time>2026-03-29T11:16:02.742Z</time></trkpt><trkpt lat="43.1945339" lon="12.2552903"><ele>475.25</ele><time>2026-03-29T11:16:03.743Z</time></trkpt><trkpt lat="43.1944084" lon="12.2553361"><ele>473.0</ele><time>2026-03-29T11:16:04.743Z</time></trkpt><trkpt lat="43.1942713" lon="12.2553791"><ele>473.0</ele><time>2026-03-29T11:16:05.743Z</time></trkpt><trkpt lat="43.1941363" lon="12.2554345"><ele>473.0</ele><time>2026-03-29T11:16:06.743Z</time></trkpt><trkpt lat="43.1940072" lon="12.2554867"><ele>473.0</ele><time>2026-03-29T11:16:07.742Z</time></trkpt><trkpt lat="43.193876" lon="12.2555593"><ele>473.0</ele><time>2026-03-29T11:16:08.743Z</time></trkpt><trkpt lat="43.1937331" lon="12.2556352"><ele>473.5</ele><time>2026-03-29T11:16:09.743Z</time></trkpt><trkpt lat="43.1936179" lon="12.2557116"><ele>474.0</ele><time>2026-03-29T11:16:10.743Z</time></trkpt><trkpt lat="43.1935096" lon="12.255788"><ele>474.5</ele><time>2026-03-29T11:16:11.743Z</time></trkpt><trkpt lat="43.1933945" lon="12.2558804"><ele>475.0</ele><time>2026-03-29T11:16:12.743Z</time></trkpt><trkpt lat="43.1932876" lon="12.2559633"><ele>475.00000000000006</ele><time>2026-03-29T11:16:13.743Z</time></trkpt><trkpt lat="43.1931938" lon="12.2560092"><ele>475.0</ele><time>2026-03-29T11:16:14.743Z</time></trkpt><trkpt lat="43.1931202" lon="12.2560027"><ele>475.0</ele><time>2026-03-29T11:16:15.743Z</time></trkpt><trkpt lat="43.1930467" lon="12.255971"><ele>475.0</ele><time>2026-03-29T11:16:16.743Z</time></trkpt><trkpt lat="43.1929706" lon="12.2559081"><ele>475.00000000000006</ele><time>2026-03-29T11:16:17.743Z</time></trkpt><trkpt lat="43.1928907" lon="12.2558356"><ele>475.0</ele><time>2026-03-29T11:16:18.743Z</time></trkpt><trkpt lat="43.1928009" lon="12.2557883"><ele>475.6666666666667</ele><time>2026-03-29T11:16:19.743Z</time></trkpt><trkpt lat="43.1927189" lon="12.2557388"><ele>476.33333333333337</ele><time>2026-03-29T11:16:20.743Z</time></trkpt><trkpt lat="43.1926424" lon="12.2557103"><ele>477.0</ele><time>2026-03-29T11:16:21.743Z</time></trkpt><trkpt lat="43.19256" lon="12.2556992"><ele>477.66666666666663</ele><time>2026-03-29T11:16:22.743Z</time></trkpt><trkpt lat="43.1924668" lon="12.2557129"><ele>478.3333333333333</ele><time>2026-03-29T11:16:23.743Z</time></trkpt><trkpt lat="43.1923662" lon="12.2557451"><ele>479.0</ele><time>2026-03-29T11:16:24.743Z</time></trkpt><trkpt lat="43.1922668" lon="12.2557926"><ele>477.49999999999994</ele><time>2026-03-29T11:16:25.743Z</time></trkpt><trkpt lat="43.1921728" lon="12.2558346"><ele>476.0</ele><time>2026-03-29T11:16:26.743Z</time></trkpt><trkpt lat="43.1921025" lon="12.2558618"><ele>474.5</ele><time>2026-03-29T11:16:27.743Z</time></trkpt><trkpt lat="43.192019" lon="12.255828"><ele>473.0</ele><time>2026-03-29T11:16:29.743Z</time></trkpt><trkpt lat="43.1920018" lon="12.2556897"><ele>471.49999999999994</ele><time>2026-03-29T11:16:31.743Z</time></trkpt><trkpt lat="43.1920108" lon="12.2555985"><ele>470.0</ele><time>2026-03-29T11:16:32.743Z</time></trkpt><trkpt lat="43.1920169" lon="12.2554859"><ele>467.0</ele><time>2026-03-29T11:16:33.743Z</time></trkpt><trkpt lat="43.192025" lon="12.2553605"><ele>464.0</ele><time>2026-03-29T11:16:34.743Z</time></trkpt><trkpt lat="43.1920135" lon="12.2552328"><ele>461.0</ele><time>2026-03-29T11:16:35.743Z</time></trkpt><trkpt lat="43.1919866" lon="12.255101"><ele>458.0</ele><time>2026-03-29T11:16:36.743Z</time></trkpt><trkpt lat="43.1919448" lon="12.2549844"><ele>455.0</ele><time>2026-03-29T11:16:37.743Z</time></trkpt><trkpt lat="43.1918964" lon="12.2548636"><ele>452.6</ele><time>2026-03-29T11:16:38.743Z</time></trkpt><trkpt lat="43.1918355" lon="12.2547607"><ele>450.2</ele><time>2026-03-29T11:16:39.743Z</time></trkpt><trkpt lat="43.1917747" lon="12.254683"><ele>447.79999999999995</ele><time>2026-03-29T11:16:40.743Z</time></trkpt><trkpt lat="43.1917598" lon="12.2545536"><ele>445.4</ele><time>2026-03-29T11:16:42.743Z</time></trkpt><trkpt lat="43.1918411" lon="12.2544549"><ele>443.0</ele><time>2026-03-29T11:16:44.743Z</time></trkpt><trkpt lat="43.191915" lon="12.254446"><ele>443.0</ele><time>2026-03-29T11:16:45.743Z</time></trkpt><trkpt lat="43.1919978" lon="12.25446"><ele>442.99999999999994</ele><time>2026-03-29T11:16:46.743Z</time></trkpt><trkpt lat="43.1920867" lon="12.2544536"><ele>442.99999999999994</ele><time>2026-03-29T11:16:47.743Z</time></trkpt><trkpt lat="43.1922028" lon="12.2544179"><ele>443.0</ele><time>2026-03-29T11:16:48.743Z</time></trkpt><trkpt lat="43.1923283" lon="12.2543903"><ele>443.0</ele><time>2026-03-29T11:16:49.743Z</time></trkpt><trkpt lat="43.192438" lon="12.2543579"><ele>445.59999999999997</ele><time>2026-03-29T11:16:50.742Z</time></trkpt><trkpt lat="43.1925186" lon="12.2543534"><ele>448.19999999999993</ele><time>2026-03-29T11:16:51.743Z</time></trkpt><trkpt lat="43.1926059" lon="12.2543748"><ele>450.8</ele><time>2026-03-29T11:16:52.743Z</time></trkpt><trkpt lat="43.1926971" lon="12.2544407"><ele>453.4</ele><time>2026-03-29T11:16:53.743Z</time></trkpt><trkpt lat="43.1927833" lon="12.2544627"><ele>456.0</ele><time>2026-03-29T11:16:54.743Z</time></trkpt><trkpt lat="43.1928759" lon="12.2543992"><ele>456.0</ele><time>2026-03-29T11:16:56.743Z</time></trkpt><trkpt lat="43.1928437" lon="12.2543077"><ele>456.0</ele><time>2026-03-29T11:16:58.743Z</time></trkpt><trkpt lat="43.1927299" lon="12.2542168"><ele>456.0</ele><time>2026-03-29T11:17:00.743Z</time></trkpt><trkpt lat="43.1926545" lon="12.2541624"><ele>456.0</ele><time>2026-03-29T11:17:01.742Z</time></trkpt><trkpt lat="43.1925703" lon="12.2541006"><ele>456.0</ele><time>2026-03-29T11:17:02.743Z</time></trkpt><trkpt lat="43.1924889" lon="12.2540597"><ele>456.0</ele><time>2026-03-29T11:17:03.743Z</time></trkpt><trkpt lat="43.1924051" lon="12.2540298"><ele>456.0</ele><time>2026-03-29T11:17:04.743Z</time></trkpt><trkpt lat="43.1923181" lon="12.2540037"><ele>456.0</ele><time>2026-03-29T11:17:05.743Z</time></trkpt><trkpt lat="43.1922417" lon="12.2539851"><ele>456.0</ele><time>2026-03-29T11:17:06.743Z</time></trkpt><trkpt lat="43.1921475" lon="12.2539901"><ele>456.0</ele><time>2026-03-29T11:17:07.742Z</time></trkpt><trkpt lat="43.192059" lon="12.2539747"><ele>456.0</ele><time>2026-03-29T11:17:08.743Z</time></trkpt><trkpt lat="43.1919784" lon="12.2539585"><ele>450.6666666666667</ele><time>2026-03-29T11:17:09.743Z</time></trkpt><trkpt lat="43.1919059" lon="12.2539416"><ele>445.33333333333337</ele><time>2026-03-29T11:17:10.743Z</time></trkpt><trkpt lat="43.1918354" lon="12.2539119"><ele>440.0</ele><time>2026-03-29T11:17:11.743Z</time></trkpt><trkpt lat="43.1917437" lon="12.253879"><ele>434.6666666666667</ele><time>2026-03-29T11:17:12.743Z</time></trkpt><trkpt lat="43.1916665" lon="12.2538259"><ele>429.33333333333337</ele><time>2026-03-29T11:17:13.743Z</time></trkpt><trkpt lat="43.1915973" lon="12.2537806"><ele>424.0</ele><time>2026-03-29T11:17:14.743Z</time></trkpt><trkpt lat="43.1915245" lon="12.2537595"><ele>420.25</ele><time>2026-03-29T11:17:15.743Z</time></trkpt><trkpt lat="43.1913877" lon="12.2537014"><ele>416.5</ele><time>2026-03-29T11:17:17.743Z</time></trkpt><trkpt lat="43.1912643" lon="12.2536545"><ele>412.75</ele><time>2026-03-29T11:17:19.743Z</time></trkpt><trkpt lat="43.1911635" lon="12.2535772"><ele>409.0</ele><time>2026-03-29T11:17:21.743Z</time></trkpt><trkpt lat="43.1910975" lon="12.2535889"><ele>409.0</ele><time>2026-03-29T11:17:22.743Z</time></trkpt><trkpt lat="43.1910334" lon="12.2535988"><ele>409.0</ele><time>2026-03-29T11:17:23.743Z</time></trkpt><trkpt lat="43.1910161" lon="12.2537787"><ele>409.0</ele><time>2026-03-29T11:17:25.743Z</time></trkpt><trkpt lat="43.1909698" lon="12.2538632"><ele>409.0</ele><time>2026-03-29T11:17:27.743Z</time></trkpt><trkpt lat="43.1909669" lon="12.2539825"><ele>409.0</ele><time>2026-03-29T11:17:29.742Z</time></trkpt><trkpt lat="43.1909432" lon="12.2541258"><ele>411.2</ele><time>2026-03-29T11:17:31.743Z</time></trkpt><trkpt lat="43.1909055" lon="12.2542497"><ele>413.4</ele><time>2026-03-29T11:17:33.743Z</time></trkpt><trkpt lat="43.190814" lon="12.2544009"><ele>415.6</ele><time>2026-03-29T11:17:35.743Z</time></trkpt><trkpt lat="43.1908013" lon="12.2544909"><ele>417.8</ele><time>2026-03-29T11:17:36.742Z</time></trkpt><trkpt lat="43.1907449" lon="12.2546072"><ele>420.0</ele><time>2026-03-29T11:17:37.743Z</time></trkpt><trkpt lat="43.1907116" lon="12.2547347"><ele>419.6</ele><time>2026-03-29T11:17:38.743Z</time></trkpt><trkpt lat="43.1906903" lon="12.2548358"><ele>419.2</ele><time>2026-03-29T11:17:39.743Z</time></trkpt><trkpt lat="43.1905237" lon="12.2548722"><ele>418.79999999999995</ele><time>2026-03-29T11:17:41.743Z</time></trkpt><trkpt lat="43.1904465" lon="12.2547897"><ele>418.4</ele><time>2026-03-29T11:17:42.743Z</time></trkpt><trkpt lat="43.1903533" lon="12.2548237"><ele>418.0</ele><time>2026-03-29T11:17:43.743Z</time></trkpt><trkpt lat="43.1902584" lon="12.2548438"><ele>418.00000000000006</ele><time>2026-03-29T11:17:44.743Z</time></trkpt><trkpt lat="43.190182" lon="12.2548872"><ele>418.0</ele><time>2026-03-29T11:17:45.743Z</time></trkpt><trkpt lat="43.1901017" lon="12.254945"><ele>418.0</ele><time>2026-03-29T11:17:46.743Z</time></trkpt><trkpt lat="43.1900286" lon="12.2550009"><ele>418.0</ele><time>2026-03-29T11:17:47.743Z</time></trkpt><trkpt lat="43.1899871" lon="12.2551074"><ele>418.00000000000006</ele><time>2026-03-29T11:17:48.743Z</time></trkpt><trkpt lat="43.1899286" lon="12.2551624"><ele>418.0</ele><time>2026-03-29T11:17:49.743Z</time></trkpt><trkpt lat="43.189855" lon="12.2552371"><ele>416.0</ele><time>2026-03-29T11:17:50.743Z</time></trkpt><trkpt lat="43.1897781" lon="12.2551638"><ele>414.0</ele><time>2026-03-29T11:17:52.743Z</time></trkpt><trkpt lat="43.1896204" lon="12.2550506"><ele>412.0</ele><time>2026-03-29T11:17:53.742Z</time></trkpt><trkpt lat="43.1895316" lon="12.254994"><ele>410.0</ele><time>2026-03-29T11:17:54.743Z</time></trkpt><trkpt lat="43.1894308" lon="12.2549621"><ele>410.0</ele><time>2026-03-29T11:17:55.743Z</time></trkpt><trkpt lat="43.1893171" lon="12.2549989"><ele>410.0</ele><time>2026-03-29T11:17:56.742Z</time></trkpt><trkpt lat="43.1892339" lon="12.2550501"><ele>410.0</ele><time>2026-03-29T11:17:57.743Z</time></trkpt><trkpt lat="43.18914" lon="12.2550653"><ele>410.0</ele><time>2026-03-29T11:17:58.743Z</time></trkpt><trkpt lat="43.1890605" lon="12.2550645"><ele>410.0</ele><time>2026-03-29T11:17:59.743Z</time></trkpt><trkpt lat="43.1889717" lon="12.255062"><ele>409.66666666666663</ele><time>2026-03-29T11:18:00.743Z</time></trkpt><trkpt lat="43.1888949" lon="12.2550341"><ele>409.3333333333333</ele><time>2026-03-29T11:18:01.743Z</time></trkpt><trkpt lat="43.1888405" lon="12.2549365"><ele>409.0</ele><time>2026-03-29T11:18:02.743Z</time></trkpt><trkpt lat="43.1887447" lon="12.2548902"><ele>408.66666666666663</ele><time>2026-03-29T11:18:03.743Z</time></trkpt><trkpt lat="43.188674" lon="12.2548823"><ele>408.3333333333333</ele><time>2026-03-29T11:18:04.743Z</time></trkpt><trkpt lat="43.1885907" lon="12.2549082"><ele>408.0</ele><time>2026-03-29T11:18:05.743Z</time></trkpt><trkpt lat="43.1885037" lon="12.2549164"><ele>408.0</ele><time>2026-03-29T11:18:06.743Z</time></trkpt><trkpt lat="43.188428" lon="12.2549162"><ele>408.0</ele><time>2026-03-29T11:18:07.743Z</time></trkpt><trkpt lat="43.188353" lon="12.2548952"><ele>408.0</ele><time>2026-03-29T11:18:08.742Z</time></trkpt><trkpt lat="43.1882531" lon="12.2548211"><ele>408.0</ele><time>2026-03-29T11:18:09.743Z</time></trkpt><trkpt lat="43.1881493" lon="12.2547525"><ele>408.0</ele><time>2026-03-29T11:18:10.743Z</time></trkpt><trkpt lat="43.1880716" lon="12.2546571"><ele>404.4</ele><time>2026-03-29T11:18:11.743Z</time></trkpt><trkpt lat="43.188009" lon="12.2545836"><ele>400.79999999999995</ele><time>2026-03-29T11:18:12.743Z</time></trkpt><trkpt lat="43.1878821" lon="12.2544973"><ele>397.2</ele><time>2026-03-29T11:18:14.743Z</time></trkpt><trkpt lat="43.1877725" lon="12.2545254"><ele>393.6</ele><time>2026-03-29T11:18:15.743Z</time></trkpt><trkpt lat="43.1876899" lon="12.2544995"><ele>390.0</ele><time>2026-03-29T11:18:16.743Z</time></trkpt><trkpt lat="43.1876177" lon="12.2545133"><ele>390.0</ele><time>2026-03-29T11:18:17.743Z</time></trkpt><trkpt lat="43.1875226" lon="12.2545347"><ele>390.0</ele><time>2026-03-29T11:18:19.743Z</time></trkpt><trkpt lat="43.1874287" lon="12.2545374"><ele>390.0</ele><time>2026-03-29T11:18:20.743Z</time></trkpt><trkpt lat="43.1873307" lon="12.2545322"><ele>390.0</ele><time>2026-03-29T11:18:21.743Z</time></trkpt><trkpt lat="43.1872341" lon="12.2545433"><ele>390.0</ele><time>2026-03-29T11:18:22.743Z</time></trkpt><trkpt lat="43.1871366" lon="12.2545528"><ele>388.5</ele><time>2026-03-29T11:18:23.743Z</time></trkpt><trkpt lat="43.1870514" lon="12.254583"><ele>387.0</ele><time>2026-03-29T11:18:24.743Z</time></trkpt><trkpt lat="43.1869615" lon="12.254611"><ele>385.5</ele><time>2026-03-29T11:18:25.743Z</time></trkpt><trkpt lat="43.1868773" lon="12.2546851"><ele>384.0</ele><time>2026-03-29T11:18:26.742Z</time></trkpt><trkpt lat="43.1867999" lon="12.2547574"><ele>382.5</ele><time>2026-03-29T11:18:27.743Z</time></trkpt><trkpt lat="43.1867294" lon="12.2547889"><ele>381.0</ele><time>2026-03-29T11:18:28.743Z</time></trkpt><trkpt lat="43.1866279" lon="12.2547913"><ele>383.4</ele><time>2026-03-29T11:18:29.743Z</time></trkpt><trkpt lat="43.1865101" lon="12.2548282"><ele>385.8</ele><time>2026-03-29T11:18:30.743Z</time></trkpt><trkpt lat="43.1864113" lon="12.2548657"><ele>388.2</ele><time>2026-03-29T11:18:31.743Z</time></trkpt><trkpt lat="43.1862963" lon="12.2548657"><ele>390.59999999999997</ele><time>2026-03-29T11:18:32.743Z</time></trkpt><trkpt lat="43.1861962" lon="12.2548702"><ele>393.0</ele><time>2026-03-29T11:18:33.743Z</time></trkpt><trkpt lat="43.1860901" lon="12.2548202"><ele>393.0</ele><time>2026-03-29T11:18:34.743Z</time></trkpt><trkpt lat="43.1859913" lon="12.2548246"><ele>393.0</ele><time>2026-03-29T11:18:35.743Z</time></trkpt><trkpt lat="43.1858923" lon="12.2548534"><ele>393.0</ele><time>2026-03-29T11:18:36.742Z</time></trkpt><trkpt lat="43.185814" lon="12.2548807"><ele>393.0</ele><time>2026-03-29T11:18:37.743Z</time></trkpt><trkpt lat="43.1857347" lon="12.2549084"><ele>393.0</ele><time>2026-03-29T11:18:38.743Z</time></trkpt><trkpt lat="43.1856583" lon="12.2549399"><ele>393.0</ele><time>2026-03-29T11:18:39.743Z</time></trkpt><trkpt lat="43.185574" lon="12.2549736"><ele>390.4</ele><time>2026-03-29T11:18:40.743Z</time></trkpt><trkpt lat="43.1854926" lon="12.2550545"><ele>387.79999999999995</ele><time>2026-03-29T11:18:41.743Z</time></trkpt><trkpt lat="43.1854221" lon="12.2551007"><ele>385.2</ele><time>2026-03-29T11:18:42.743Z</time></trkpt><trkpt lat="43.1852767" lon="12.255066"><ele>382.6</ele><time>2026-03-29T11:18:44.743Z</time></trkpt><trkpt lat="43.185169" lon="12.2550596"><ele>380.0</ele><time>2026-03-29T11:18:45.743Z</time></trkpt><trkpt lat="43.1850773" lon="12.2550303"><ele>380.0</ele><time>2026-03-29T11:18:46.743Z</time></trkpt><trkpt lat="43.1849861" lon="12.2549856"><ele>380.0</ele><time>2026-03-29T11:18:47.743Z</time></trkpt><trkpt lat="43.184887" lon="12.2549643"><ele>380.0</ele><time>2026-03-29T11:18:48.743Z</time></trkpt><trkpt lat="43.1848099" lon="12.2549525"><ele>380.0</ele><time>2026-03-29T11:18:49.743Z</time></trkpt><trkpt lat="43.1847204" lon="12.2549671"><ele>380.0</ele><time>2026-03-29T11:18:50.743Z</time></trkpt><trkpt lat="43.184655" lon="12.2550064"><ele>380.0</ele><time>2026-03-29T11:18:51.743Z</time></trkpt><trkpt lat="43.1846021" lon="12.2550746"><ele>375.75</ele><time>2026-03-29T11:18:52.743Z</time></trkpt><trkpt lat="43.1845301" lon="12.2551797"><ele>371.5</ele><time>2026-03-29T11:18:53.743Z</time></trkpt><trkpt lat="43.1844316" lon="12.2552533"><ele>367.25</ele><time>2026-03-29T11:18:54.743Z</time></trkpt><trkpt lat="43.1843249" lon="12.2553179"><ele>363.0</ele><time>2026-03-29T11:18:55.743Z</time></trkpt><trkpt lat="43.1842171" lon="12.2554123"><ele>363.0</ele><time>2026-03-29T11:18:56.743Z</time></trkpt><trkpt lat="43.1841249" lon="12.2555063"><ele>363.0</ele><time>2026-03-29T11:18:57.742Z</time></trkpt><trkpt lat="43.1840325" lon="12.255601"><ele>363.0</ele><time>2026-03-29T11:18:58.743Z</time></trkpt><trkpt lat="43.1839601" lon="12.2556894"><ele>363.0</ele><time>2026-03-29T11:18:59.743Z</time></trkpt><trkpt lat="43.183922" lon="12.2557751"><ele>363.0</ele><time>2026-03-29T11:19:00.743Z</time></trkpt><trkpt lat="43.1839236" lon="12.2558754"><ele>360.6666666666667</ele><time>2026-03-29T11:19:01.743Z</time></trkpt><trkpt lat="43.1839183" lon="12.2560165"><ele>358.3333333333333</ele><time>2026-03-29T11:19:02.743Z</time></trkpt><trkpt lat="43.1839312" lon="12.2561167"><ele>356.0</ele><time>2026-03-29T11:19:03.743Z</time></trkpt><trkpt lat="43.1839477" lon="12.2562129"><ele>353.66666666666663</ele><time>2026-03-29T11:19:04.743Z</time></trkpt><trkpt lat="43.1839011" lon="12.2562843"><ele>351.3333333333333</ele><time>2026-03-29T11:19:06.742Z</time></trkpt><trkpt lat="43.1838703" lon="12.2561579"><ele>349.0</ele><time>2026-03-29T11:19:08.743Z</time></trkpt><trkpt lat="43.1837856" lon="12.2560146"><ele>349.0</ele><time>2026-03-29T11:19:10.743Z</time></trkpt><trkpt lat="43.1837423" lon="12.2559486"><ele>349.0</ele><time>2026-03-29T11:19:11.743Z</time></trkpt><trkpt lat="43.1836897" lon="12.2558961"><ele>349.0</ele><time>2026-03-29T11:19:12.743Z</time></trkpt><trkpt lat="43.183633" lon="12.2558196"><ele>349.0</ele><time>2026-03-29T11:19:13.742Z</time></trkpt><trkpt lat="43.1835625" lon="12.255763"><ele>349.0</ele><time>2026-03-29T11:19:14.743Z</time></trkpt><trkpt lat="43.1835026" lon="12.2556726"><ele>349.0</ele><time>2026-03-29T11:19:15.743Z</time></trkpt><trkpt lat="43.1834295" lon="12.2555255"><ele>348.5</ele><time>2026-03-29T11:19:17.743Z</time></trkpt><trkpt lat="43.1833774" lon="12.255464"><ele>348.0</ele><time>2026-03-29T11:19:18.743Z</time></trkpt><trkpt lat="43.1833315" lon="12.2553955"><ele>347.5</ele><time>2026-03-29T11:19:19.743Z</time></trkpt><trkpt lat="43.1832259" lon="12.2553175"><ele>347.0</ele><time>2026-03-29T11:19:21.742Z</time></trkpt><trkpt lat="43.1831274" lon="12.2552644"><ele>346.5</ele><time>2026-03-29T11:19:23.743Z</time></trkpt><trkpt lat="43.1830847" lon="12.2551825"><ele>346.0</ele><time>2026-03-29T11:19:26.743Z</time></trkpt><trkpt lat="43.1830771" lon="12.2550816"><ele>341.8</ele><time>2026-03-29T11:19:27.743Z</time></trkpt><trkpt lat="43.1830679" lon="12.2549844"><ele>337.6</ele><time>2026-03-29T11:19:28.743Z</time></trkpt><trkpt lat="43.1829982" lon="12.2548787"><ele>333.4</ele><time>2026-03-29T11:19:30.743Z</time></trkpt><trkpt lat="43.1829274" lon="12.2548989"><ele>329.2</ele><time>2026-03-29T11:19:32.743Z</time></trkpt><trkpt lat="43.182887" lon="12.2549683"><ele>325.0</ele><time>2026-03-29T11:19:33.743Z</time></trkpt><trkpt lat="43.1828755" lon="12.2551758"><ele>325.0</ele><time>2026-03-29T11:19:35.743Z</time></trkpt><trkpt lat="43.1828948" lon="12.2553199"><ele>325.0</ele><time>2026-03-29T11:19:36.743Z</time></trkpt><trkpt lat="43.1829156" lon="12.2554521"><ele>325.0</ele><time>2026-03-29T11:19:37.743Z</time></trkpt><trkpt lat="43.1829617" lon="12.2555727"><ele>325.0</ele><time>2026-03-29T11:19:38.743Z</time></trkpt><trkpt lat="43.1830071" lon="12.2557303"><ele>325.0</ele><time>2026-03-29T11:19:39.743Z</time></trkpt><trkpt lat="43.1830472" lon="12.2558835"><ele>323.5</ele><time>2026-03-29T11:19:40.743Z</time></trkpt><trkpt lat="43.1831005" lon="12.2559933"><ele>322.0</ele><time>2026-03-29T11:19:41.743Z</time></trkpt><trkpt lat="43.1831453" lon="12.2561394"><ele>320.5</ele><time>2026-03-29T11:19:42.743Z</time></trkpt><trkpt lat="43.1831848" lon="12.256301"><ele>319.0</ele><time>2026-03-29T11:19:43.743Z</time></trkpt><trkpt lat="43.1832192" lon="12.2564638"><ele>324.25</ele><time>2026-03-29T11:19:44.743Z</time></trkpt><trkpt lat="43.1832463" lon="12.2566162"><ele>329.5</ele><time>2026-03-29T11:19:45.743Z</time></trkpt><trkpt lat="43.1832629" lon="12.256768"><ele>334.75</ele><time>2026-03-29T11:19:46.743Z</time></trkpt><trkpt lat="43.1832966" lon="12.25692"><ele>340.0</ele><time>2026-03-29T11:19:47.743Z</time></trkpt><trkpt lat="43.1833282" lon="12.2570758"><ele>340.0</ele><time>2026-03-29T11:19:48.743Z</time></trkpt><trkpt lat="43.1833563" lon="12.2572213"><ele>340.0</ele><time>2026-03-29T11:19:49.743Z</time></trkpt><trkpt lat="43.1833823" lon="12.2573527"><ele>340.0</ele><time>2026-03-29T11:19:50.742Z</time></trkpt><trkpt lat="43.1833955" lon="12.2574646"><ele>340.0</ele><time>2026-03-29T11:19:51.743Z</time></trkpt><trkpt lat="43.1834129" lon="12.2575693"><ele>340.0</ele><time>2026-03-29T11:19:52.743Z</time></trkpt><trkpt lat="43.1834441" lon="12.2576792"><ele>337.8333333333333</ele><time>2026-03-29T11:19:53.743Z</time></trkpt><trkpt lat="43.1834487" lon="12.2577749"><ele>335.66666666666663</ele><time>2026-03-29T11:19:54.743Z</time></trkpt><trkpt lat="43.1834365" lon="12.2578731"><ele>333.5</ele><time>2026-03-29T11:19:56.743Z</time></trkpt><trkpt lat="43.1834281" lon="12.2579702"><ele>331.3333333333333</ele><time>2026-03-29T11:19:59.743Z</time></trkpt><trkpt lat="43.1835017" lon="12.258066"><ele>329.1666666666667</ele><time>2026-03-29T11:20:02.743Z</time></trkpt><trkpt lat="43.1835775" lon="12.2581649"><ele>327.0</ele><time>2026-03-29T11:20:04.743Z</time></trkpt><trkpt lat="43.1836259" lon="12.2582205"><ele>325.8333333333333</ele><time>2026-03-29T11:20:05.743Z</time></trkpt><trkpt lat="43.1837165" lon="12.2583009"><ele>324.6666666666667</ele><time>2026-03-29T11:20:07.743Z</time></trkpt><trkpt lat="43.1837768" lon="12.2583869"><ele>323.5</ele><time>2026-03-29T11:20:09.743Z</time></trkpt><trkpt lat="43.1838319" lon="12.2584855"><ele>322.33333333333337</ele><time>2026-03-29T11:20:12.743Z</time></trkpt><trkpt lat="43.183885" lon="12.2585465"><ele>321.1666666666667</ele><time>2026-03-29T11:20:14.743Z</time></trkpt><trkpt lat="43.1838501" lon="12.258427"><ele>320.0</ele><time>2026-03-29T11:21:17.743Z</time></trkpt><trkpt lat="43.1837306" lon="12.2582902"><ele>320.0</ele><time>2026-03-29T11:21:19.743Z</time></trkpt><trkpt lat="43.1836496" lon="12.2582022"><ele>320.0</ele><time>2026-03-29T11:21:20.743Z</time></trkpt><trkpt lat="43.1835628" lon="12.2581092"><ele>320.0</ele><time>2026-03-29T11:21:21.743Z</time></trkpt><trkpt lat="43.183467" lon="12.2580132"><ele>320.0</ele><time>2026-03-29T11:21:22.743Z</time></trkpt><trkpt lat="43.1833717" lon="12.2579334"><ele>320.0</ele><time>2026-03-29T11:21:23.743Z</time></trkpt><trkpt lat="43.1832758" lon="12.2578856"><ele>319.4</ele><time>2026-03-29T11:21:24.743Z</time></trkpt><trkpt lat="43.18318" lon="12.2578596"><ele>318.8</ele><time>2026-03-29T11:21:25.743Z</time></trkpt><trkpt lat="43.1830766" lon="12.2579051"><ele>318.2</ele><time>2026-03-29T11:21:27.743Z</time></trkpt><trkpt lat="43.1830265" lon="12.2579668"><ele>317.6</ele><time>2026-03-29T11:21:29.743Z</time></trkpt><trkpt lat="43.1830956" lon="12.2578601"><ele>317.0</ele><time>2026-03-29T11:21:38.743Z</time></trkpt><trkpt lat="43.1831353" lon="12.257746"><ele>317.0</ele><time>2026-03-29T11:21:39.743Z</time></trkpt><trkpt lat="43.1831738" lon="12.2576098"><ele>317.0</ele><time>2026-03-29T11:21:40.743Z</time></trkpt><trkpt lat="43.1831901" lon="12.2574671"><ele>317.0</ele><time>2026-03-29T11:21:41.743Z</time></trkpt><trkpt lat="43.1831925" lon="12.2573217"><ele>317.0</ele><time>2026-03-29T11:21:42.743Z</time></trkpt><trkpt lat="43.1831784" lon="12.2571836"><ele>317.0</ele><time>2026-03-29T11:21:43.743Z</time></trkpt><trkpt lat="43.1831446" lon="12.2570477"><ele>317.33333333333337</ele><time>2026-03-29T11:21:44.742Z</time></trkpt><trkpt lat="43.1831036" lon="12.2569159"><ele>317.6666666666667</ele><time>2026-03-29T11:21:45.743Z</time></trkpt><trkpt lat="43.1830726" lon="12.2567941"><ele>318.0</ele><time>2026-03-29T11:21:46.743Z</time></trkpt><trkpt lat="43.1830482" lon="12.2566965"><ele>318.3333333333333</ele><time>2026-03-29T11:21:47.743Z</time></trkpt><trkpt lat="43.1830087" lon="12.2566163"><ele>318.66666666666663</ele><time>2026-03-29T11:21:49.742Z</time></trkpt><trkpt lat="43.1829982" lon="12.2564913"><ele>319.0</ele><time>2026-03-29T11:22:05.743Z</time></trkpt><trkpt lat="43.1829536" lon="12.2564093"><ele>319.0</ele><time>2026-03-29T11:25:00.743Z</time></trkpt><trkpt lat="43.1829366" lon="12.2563189"><ele>319.0</ele><time>2026-03-29T11:25:03.743Z</time></trkpt><trkpt lat="43.182952" lon="12.2562293"><ele>319.0</ele><time>2026-03-29T11:25:04.743Z</time></trkpt><trkpt lat="43.1829658" lon="12.2561211"><ele>319.0</ele><time>2026-03-29T11:25:05.743Z</time></trkpt><trkpt lat="43.1829511" lon="12.2560227"><ele>319.0</ele><time>2026-03-29T11:25:06.743Z</time></trkpt><trkpt lat="43.1829113" lon="12.2558983"><ele>319.0</ele><time>2026-03-29T11:25:07.743Z</time></trkpt><trkpt lat="43.1828758" lon="12.2557747"><ele>319.0</ele><time>2026-03-29T11:25:08.742Z</time></trkpt><trkpt lat="43.1828267" lon="12.2556828"><ele>319.0</ele><time>2026-03-29T11:25:09.743Z</time></trkpt><trkpt lat="43.1827583" lon="12.2556067"><ele>319.0</ele><time>2026-03-29T11:25:10.743Z</time></trkpt><trkpt lat="43.1826598" lon="12.255529"><ele>319.0</ele><time>2026-03-29T11:25:11.743Z</time></trkpt><trkpt lat="43.1825851" lon="12.2554469"><ele>319.0</ele><time>2026-03-29T11:25:12.743Z</time></trkpt><trkpt lat="43.1825094" lon="12.2553302"><ele>320.5</ele><time>2026-03-29T11:25:13.743Z</time></trkpt><trkpt lat="43.1824314" lon="12.255187"><ele>322.0</ele><time>2026-03-29T11:25:14.743Z</time></trkpt><trkpt lat="43.1823425" lon="12.255056"><ele>323.5</ele><time>2026-03-29T11:25:15.743Z</time></trkpt><trkpt lat="43.1822541" lon="12.2549353"><ele>325.0</ele><time>2026-03-29T11:25:16.743Z</time></trkpt><trkpt lat="43.1821653" lon="12.2548079"><ele>321.6</ele><time>2026-03-29T11:25:17.743Z</time></trkpt><trkpt lat="43.1820835" lon="12.2546757"><ele>318.2</ele><time>2026-03-29T11:25:18.743Z</time></trkpt><trkpt lat="43.1820198" lon="12.254543"><ele>314.8</ele><time>2026-03-29T11:25:19.743Z</time></trkpt><trkpt lat="43.181961" lon="12.2544332"><ele>311.4</ele><time>2026-03-29T11:25:20.743Z</time></trkpt><trkpt lat="43.1819151" lon="12.2543565"><ele>308.0</ele><time>2026-03-29T11:25:21.743Z</time></trkpt><trkpt lat="43.1818626" lon="12.2543075"><ele>308.0</ele><time>2026-03-29T11:25:22.743Z</time></trkpt><trkpt lat="43.1818022" lon="12.2542688"><ele>308.0</ele><time>2026-03-29T11:25:23.743Z</time></trkpt><trkpt lat="43.181717" lon="12.2542267"><ele>308.0</ele><time>2026-03-29T11:25:24.743Z</time></trkpt><trkpt lat="43.1816295" lon="12.2541957"><ele>308.0</ele><time>2026-03-29T11:25:25.743Z</time></trkpt><trkpt lat="43.1815252" lon="12.2541698"><ele>308.0</ele><time>2026-03-29T11:25:26.743Z</time></trkpt><trkpt lat="43.1814182" lon="12.2541439"><ele>308.0</ele><time>2026-03-29T11:25:27.743Z</time></trkpt><trkpt lat="43.181332" lon="12.2541006"><ele>308.0</ele><time>2026-03-29T11:25:28.743Z</time></trkpt><trkpt lat="43.1812539" lon="12.254036"><ele>308.0</ele><time>2026-03-29T11:25:29.743Z</time></trkpt><trkpt lat="43.1812235" lon="12.2539189"><ele>308.0</ele><time>2026-03-29T11:25:30.743Z</time></trkpt><trkpt lat="43.1812007" lon="12.2538125"><ele>308.0</ele><time>2026-03-29T11:25:31.743Z</time></trkpt><trkpt lat="43.1811582" lon="12.2537414"><ele>308.0</ele><time>2026-03-29T11:25:32.743Z</time></trkpt><trkpt lat="43.1810456" lon="12.2536791"><ele>308.0</ele><time>2026-03-29T11:25:34.743Z</time></trkpt><trkpt lat="43.1809675" lon="12.2536631"><ele>308.0</ele><time>2026-03-29T11:25:35.742Z</time></trkpt><trkpt lat="43.1808861" lon="12.2536503"><ele>308.0</ele><time>2026-03-29T11:25:36.743Z</time></trkpt><trkpt lat="43.1807824" lon="12.2536483"><ele>308.0</ele><time>2026-03-29T11:25:37.743Z</time></trkpt><trkpt lat="43.1806595" lon="12.2535716"><ele>308.0</ele><time>2026-03-29T11:25:38.743Z</time></trkpt><trkpt lat="43.1805453" lon="12.2535241"><ele>309.6</ele><time>2026-03-29T11:25:39.743Z</time></trkpt><trkpt lat="43.180444" lon="12.2534588"><ele>311.20000000000005</ele><time>2026-03-29T11:25:40.743Z</time></trkpt><trkpt lat="43.1803505" lon="12.2533932"><ele>312.8</ele><time>2026-03-29T11:25:41.743Z</time></trkpt><trkpt lat="43.180263" lon="12.2533171"><ele>314.40000000000003</ele><time>2026-03-29T11:25:42.743Z</time></trkpt><trkpt lat="43.1801901" lon="12.2532325"><ele>316.0</ele><time>2026-03-29T11:25:43.743Z</time></trkpt><trkpt lat="43.1801194" lon="12.2531717"><ele>314.2</ele><time>2026-03-29T11:25:44.743Z</time></trkpt><trkpt lat="43.1800813" lon="12.2530786"><ele>312.40000000000003</ele><time>2026-03-29T11:25:45.743Z</time></trkpt><trkpt lat="43.1800339" lon="12.2529691"><ele>310.6</ele><time>2026-03-29T11:25:47.742Z</time></trkpt><trkpt lat="43.179986" lon="12.2529027"><ele>308.8</ele><time>2026-03-29T11:25:50.743Z</time></trkpt><trkpt lat="43.1798652" lon="12.2528925"><ele>307.0</ele><time>2026-03-29T11:25:56.742Z</time></trkpt><trkpt lat="43.1798187" lon="12.2529997"><ele>312.2</ele><time>2026-03-29T11:25:58.743Z</time></trkpt><trkpt lat="43.1797572" lon="12.253062"><ele>317.4</ele><time>2026-03-29T11:26:01.743Z</time></trkpt><trkpt lat="43.1796537" lon="12.253144"><ele>322.59999999999997</ele><time>2026-03-29T11:26:04.743Z</time></trkpt><trkpt lat="43.1796065" lon="12.2532447"><ele>327.79999999999995</ele><time>2026-03-29T11:26:05.743Z</time></trkpt><trkpt lat="43.1795359" lon="12.2533218"><ele>333.0</ele><time>2026-03-29T11:26:06.743Z</time></trkpt><trkpt lat="43.1795499" lon="12.253474"><ele>334.59999999999997</ele><time>2026-03-29T11:26:07.743Z</time></trkpt><trkpt lat="43.1795253" lon="12.253576"><ele>336.2</ele><time>2026-03-29T11:26:08.743Z</time></trkpt><trkpt lat="43.1794335" lon="12.2536581"><ele>337.8</ele><time>2026-03-29T11:26:10.743Z</time></trkpt><trkpt lat="43.1793946" lon="12.2537859"><ele>339.4</ele><time>2026-03-29T11:26:12.742Z</time></trkpt><trkpt lat="43.1793227" lon="12.2538317"><ele>341.0</ele><time>2026-03-29T11:26:14.743Z</time></trkpt><trkpt lat="43.1792393" lon="12.2538656"><ele>341.0</ele><time>2026-03-29T11:26:15.743Z</time></trkpt><trkpt lat="43.179194" lon="12.2539466"><ele>341.0</ele><time>2026-03-29T11:26:19.743Z</time></trkpt><trkpt lat="43.1791914" lon="12.2540862"><ele>341.0</ele><time>2026-03-29T11:26:21.743Z</time></trkpt><trkpt lat="43.1791701" lon="12.2542243"><ele>341.0</ele><time>2026-03-29T11:26:23.743Z</time></trkpt><trkpt lat="43.1791462" lon="12.2543056"><ele>341.0</ele><time>2026-03-29T11:26:24.742Z</time></trkpt><trkpt lat="43.1791593" lon="12.2543929"><ele>341.0</ele><time>2026-03-29T11:26:25.742Z</time></trkpt><trkpt lat="43.1791024" lon="12.2544911"><ele>342.83333333333337</ele><time>2026-03-29T11:26:27.742Z</time></trkpt><trkpt lat="43.1790202" lon="12.2544691"><ele>344.6666666666667</ele><time>2026-03-29T11:28:01.743Z</time></trkpt><trkpt lat="43.1789402" lon="12.2545324"><ele>346.5</ele><time>2026-03-29T11:29:09.743Z</time></trkpt><trkpt lat="43.178888" lon="12.2546362"><ele>348.3333333333333</ele><time>2026-03-29T11:29:11.743Z</time></trkpt><trkpt lat="43.1789248" lon="12.2545145"><ele>350.16666666666663</ele><time>2026-03-29T11:29:19.743Z</time></trkpt><trkpt lat="43.1789151" lon="12.2544165"><ele>352.0</ele><time>2026-03-29T11:29:20.743Z</time></trkpt><trkpt lat="43.1789095" lon="12.2542865"><ele>355.0</ele><time>2026-03-29T11:29:22.743Z</time></trkpt><trkpt lat="43.1789566" lon="12.2542265"><ele>358.0</ele><time>2026-03-29T11:30:50.743Z</time></trkpt><trkpt lat="43.1789145" lon="12.2541597"><ele>361.0</ele><time>2026-03-29T11:31:44.743Z</time></trkpt><trkpt lat="43.178855" lon="12.2540693"><ele>364.0</ele><time>2026-03-29T11:31:46.743Z</time></trkpt><trkpt lat="43.1787663" lon="12.2540628"><ele>367.0</ele><time>2026-03-29T11:31:47.743Z</time></trkpt><trkpt lat="43.1786871" lon="12.2540693"><ele>370.0</ele><time>2026-03-29T11:31:48.743Z</time></trkpt><trkpt lat="43.1786021" lon="12.2540904"><ele>370.0</ele><time>2026-03-29T11:31:49.743Z</time></trkpt><trkpt lat="43.1785365" lon="12.2540981"><ele>370.0</ele><time>2026-03-29T11:31:50.743Z</time></trkpt><trkpt lat="43.1784588" lon="12.2540558"><ele>370.0</ele><time>2026-03-29T11:31:51.743Z</time></trkpt><trkpt lat="43.1783925" lon="12.2540127"><ele>370.0</ele><time>2026-03-29T11:31:52.742Z</time></trkpt><trkpt lat="43.178433" lon="12.2538214"><ele>370.0</ele><time>2026-03-29T11:31:53.743Z</time></trkpt><trkpt lat="43.1784164" lon="12.2537188"><ele>370.0</ele><time>2026-03-29T11:31:54.743Z</time></trkpt><trkpt lat="43.1784145" lon="12.253614"><ele>368.8</ele><time>2026-03-29T11:31:55.743Z</time></trkpt><trkpt lat="43.1784171" lon="12.2535173"><ele>367.6</ele><time>2026-03-29T11:31:56.743Z</time></trkpt><trkpt lat="43.1784328" lon="12.2534009"><ele>366.4</ele><time>2026-03-29T11:31:57.743Z</time></trkpt><trkpt lat="43.1784603" lon="12.2532043"><ele>365.2</ele><time>2026-03-29T11:31:59.743Z</time></trkpt><trkpt lat="43.1784795" lon="12.2530666"><ele>364.0</ele><time>2026-03-29T11:32:00.743Z</time></trkpt><trkpt lat="43.1784996" lon="12.252921"><ele>362.79999999999995</ele><time>2026-03-29T11:32:01.743Z</time></trkpt><trkpt lat="43.1785081" lon="12.2527476"><ele>361.59999999999997</ele><time>2026-03-29T11:32:02.743Z</time></trkpt><trkpt lat="43.1785079" lon="12.2526447"><ele>360.4</ele><time>2026-03-29T11:32:03.743Z</time></trkpt><trkpt lat="43.1784992" lon="12.2525478"><ele>359.2</ele><time>2026-03-29T11:32:04.743Z</time></trkpt><trkpt lat="43.1784154" lon="12.2524491"><ele>358.0</ele><time>2026-03-29T11:32:05.743Z</time></trkpt><trkpt lat="43.1783581" lon="12.2523289"><ele>355.0</ele><time>2026-03-29T11:32:06.743Z</time></trkpt><trkpt lat="43.1783117" lon="12.2521773"><ele>352.0</ele><time>2026-03-29T11:32:07.743Z</time></trkpt><trkpt lat="43.1782846" lon="12.2520772"><ele>349.0</ele><time>2026-03-29T11:32:08.743Z</time></trkpt><trkpt lat="43.1782463" lon="12.2519701"><ele>346.0</ele><time>2026-03-29T11:32:09.743Z</time></trkpt><trkpt lat="43.1782373" lon="12.2518391"><ele>343.0</ele><time>2026-03-29T11:32:11.743Z</time></trkpt><trkpt lat="43.1781551" lon="12.2518933"><ele>344.0</ele><time>2026-03-29T11:32:23.743Z</time></trkpt><trkpt lat="43.1781203" lon="12.252021"><ele>345.0</ele><time>2026-03-29T11:32:25.743Z</time></trkpt><trkpt lat="43.1780966" lon="12.2521101"><ele>346.0</ele><time>2026-03-29T11:32:26.742Z</time></trkpt><trkpt lat="43.1780369" lon="12.2522053"><ele>347.0</ele><time>2026-03-29T11:32:27.743Z</time></trkpt><trkpt lat="43.1779896" lon="12.2523032"><ele>348.0</ele><time>2026-03-29T11:32:28.743Z</time></trkpt><trkpt lat="43.1779328" lon="12.252474"><ele>348.0</ele><time>2026-03-29T11:32:30.743Z</time></trkpt><trkpt lat="43.1779091" lon="12.252591"><ele>348.0</ele><time>2026-03-29T11:32:31.743Z</time></trkpt><trkpt lat="43.1778847" lon="12.2527127"><ele>348.0</ele><time>2026-03-29T11:32:32.743Z</time></trkpt><trkpt lat="43.1778422" lon="12.2528287"><ele>348.0</ele><time>2026-03-29T11:32:33.743Z</time></trkpt><trkpt lat="43.1778366" lon="12.2529494"><ele>348.0</ele><time>2026-03-29T11:32:34.743Z</time></trkpt><trkpt lat="43.1778166" lon="12.2530697"><ele>350.0</ele><time>2026-03-29T11:32:35.743Z</time></trkpt><trkpt lat="43.1777896" lon="12.2531861"><ele>352.0</ele><time>2026-03-29T11:32:36.743Z</time></trkpt><trkpt lat="43.1777926" lon="12.2532804"><ele>354.0</ele><time>2026-03-29T11:32:37.743Z</time></trkpt><trkpt lat="43.1778264" lon="12.2533769"><ele>356.0</ele><time>2026-03-29T11:32:38.743Z</time></trkpt><trkpt lat="43.1778274" lon="12.2534848"><ele>358.0</ele><time>2026-03-29T11:32:39.742Z</time></trkpt><trkpt lat="43.1778177" lon="12.2536674"><ele>360.0</ele><time>2026-03-29T11:32:41.743Z</time></trkpt><trkpt lat="43.1778458" lon="12.2538174"><ele>362.8</ele><time>2026-03-29T11:32:43.743Z</time></trkpt><trkpt lat="43.1778492" lon="12.2540075"><ele>365.6</ele><time>2026-03-29T11:32:45.743Z</time></trkpt><trkpt lat="43.1778164" lon="12.2541534"><ele>368.4</ele><time>2026-03-29T11:32:46.743Z</time></trkpt><trkpt lat="43.177801" lon="12.2542909"><ele>371.2</ele><time>2026-03-29T11:32:47.743Z</time></trkpt><trkpt lat="43.1777979" lon="12.2543805"><ele>374.0</ele><time>2026-03-29T11:32:48.743Z</time></trkpt><trkpt lat="43.1778131" lon="12.2544846"><ele>374.0</ele><time>2026-03-29T11:32:49.742Z</time></trkpt><trkpt lat="43.1778372" lon="12.2545868"><ele>374.0</ele><time>2026-03-29T11:32:50.743Z</time></trkpt><trkpt lat="43.1778927" lon="12.2547319"><ele>374.0</ele><time>2026-03-29T11:32:52.743Z</time></trkpt><trkpt lat="43.1779634" lon="12.2548848"><ele>374.0</ele><time>2026-03-29T11:32:53.743Z</time></trkpt><trkpt lat="43.1780564" lon="12.2550391"><ele>375.0</ele><time>2026-03-29T11:32:54.743Z</time></trkpt><trkpt lat="43.1781153" lon="12.2551498"><ele>376.0</ele><time>2026-03-29T11:32:55.743Z</time></trkpt><trkpt lat="43.1781621" lon="12.2552764"><ele>377.0</ele><time>2026-03-29T11:32:56.743Z</time></trkpt><trkpt lat="43.1781947" lon="12.255391"><ele>378.0</ele><time>2026-03-29T11:32:57.743Z</time></trkpt><trkpt lat="43.1781767" lon="12.2555189"><ele>379.0</ele><time>2026-03-29T11:32:58.743Z</time></trkpt><trkpt lat="43.1781746" lon="12.2556477"><ele>384.79999999999995</ele><time>2026-03-29T11:32:59.743Z</time></trkpt><trkpt lat="43.1781632" lon="12.2558148"><ele>390.59999999999997</ele><time>2026-03-29T11:33:00.743Z</time></trkpt><trkpt lat="43.1781787" lon="12.255941"><ele>396.4</ele><time>2026-03-29T11:33:01.743Z</time></trkpt><trkpt lat="43.1781797" lon="12.256048"><ele>402.2</ele><time>2026-03-29T11:33:02.743Z</time></trkpt><trkpt lat="43.1781574" lon="12.256175"><ele>408.0</ele><time>2026-03-29T11:33:03.742Z</time></trkpt><trkpt lat="43.1780875" lon="12.2563161"><ele>408.0</ele><time>2026-03-29T11:33:04.743Z</time></trkpt><trkpt lat="43.1780758" lon="12.2564275"><ele>408.0</ele><time>2026-03-29T11:33:05.743Z</time></trkpt><trkpt lat="43.1780634" lon="12.2565377"><ele>408.0</ele><time>2026-03-29T11:33:06.743Z</time></trkpt><trkpt lat="43.1781198" lon="12.2566583"><ele>408.0</ele><time>2026-03-29T11:33:08.743Z</time></trkpt><trkpt lat="43.1782326" lon="12.2566364"><ele>408.0</ele><time>2026-03-29T11:33:09.743Z</time></trkpt><trkpt lat="43.1783181" lon="12.2566038"><ele>406.79999999999995</ele><time>2026-03-29T11:33:10.743Z</time></trkpt><trkpt lat="43.1784186" lon="12.2565521"><ele>405.6</ele><time>2026-03-29T11:33:11.743Z</time></trkpt><trkpt lat="43.1785457" lon="12.2565456"><ele>404.4</ele><time>2026-03-29T11:33:12.743Z</time></trkpt><trkpt lat="43.1786504" lon="12.2565247"><ele>403.20000000000005</ele><time>2026-03-29T11:33:13.743Z</time></trkpt><trkpt lat="43.1787469" lon="12.2564952"><ele>402.0</ele><time>2026-03-29T11:33:14.743Z</time></trkpt><trkpt lat="43.1788184" lon="12.2564758"><ele>402.0</ele><time>2026-03-29T11:33:15.742Z</time></trkpt><trkpt lat="43.1788999" lon="12.2564473"><ele>402.0</ele><time>2026-03-29T11:33:16.743Z</time></trkpt><trkpt lat="43.1789906" lon="12.2564922"><ele>402.0</ele><time>2026-03-29T11:33:18.743Z</time></trkpt><trkpt lat="43.178965" lon="12.2566056"><ele>402.0</ele><time>2026-03-29T11:33:20.743Z</time></trkpt><trkpt lat="43.178919" lon="12.2566674"><ele>402.0</ele><time>2026-03-29T11:33:21.743Z</time></trkpt><trkpt lat="43.1788178" lon="12.2568079"><ele>402.0</ele><time>2026-03-29T11:33:22.743Z</time></trkpt><trkpt lat="43.1787649" lon="12.2568948"><ele>402.0</ele><time>2026-03-29T11:33:23.743Z</time></trkpt><trkpt lat="43.1787309" lon="12.2569677"><ele>402.0</ele><time>2026-03-29T11:33:24.743Z</time></trkpt><trkpt lat="43.1787084" lon="12.2570673"><ele>402.0</ele><time>2026-03-29T11:33:25.743Z</time></trkpt><trkpt lat="43.1786448" lon="12.2571442"><ele>402.0</ele><time>2026-03-29T11:33:26.743Z</time></trkpt><trkpt lat="43.178577" lon="12.2572266"><ele>402.0</ele><time>2026-03-29T11:33:27.743Z</time></trkpt><trkpt lat="43.1785008" lon="12.2572962"><ele>403.8</ele><time>2026-03-29T11:33:28.743Z</time></trkpt><trkpt lat="43.1784069" lon="12.2573998"><ele>405.6</ele><time>2026-03-29T11:33:29.743Z</time></trkpt><trkpt lat="43.178317" lon="12.2574952"><ele>407.40000000000003</ele><time>2026-03-29T11:33:30.743Z</time></trkpt><trkpt lat="43.1782125" lon="12.2574961"><ele>409.20000000000005</ele><time>2026-03-29T11:33:31.743Z</time></trkpt><trkpt lat="43.1781252" lon="12.2575164"><ele>411.0</ele><time>2026-03-29T11:33:32.743Z</time></trkpt><trkpt lat="43.1780333" lon="12.2575196"><ele>414.8</ele><time>2026-03-29T11:33:34.743Z</time></trkpt><trkpt lat="43.1780747" lon="12.2576091"><ele>418.6</ele><time>2026-03-29T11:33:36.742Z</time></trkpt><trkpt lat="43.1780979" lon="12.2577199"><ele>422.4</ele><time>2026-03-29T11:33:38.743Z</time></trkpt><trkpt lat="43.1781395" lon="12.2578851"><ele>426.2</ele><time>2026-03-29T11:33:39.743Z</time></trkpt><trkpt lat="43.1781552" lon="12.2579849"><ele>430.0</ele><time>2026-03-29T11:33:40.743Z</time></trkpt><trkpt lat="43.1781647" lon="12.2581335"><ele>431.2</ele><time>2026-03-29T11:33:41.743Z</time></trkpt><trkpt lat="43.1780831" lon="12.2582707"><ele>432.4</ele><time>2026-03-29T11:33:42.743Z</time></trkpt><trkpt lat="43.1780671" lon="12.2583997"><ele>433.6</ele><time>2026-03-29T11:33:43.743Z</time></trkpt><trkpt lat="43.1780898" lon="12.2585317"><ele>434.8</ele><time>2026-03-29T11:33:44.743Z</time></trkpt><trkpt lat="43.1780962" lon="12.2586592"><ele>436.0</ele><time>2026-03-29T11:33:45.743Z</time></trkpt><trkpt lat="43.1780764" lon="12.2588503"><ele>434.8</ele><time>2026-03-29T11:33:47.743Z</time></trkpt><trkpt lat="43.1780906" lon="12.258984"><ele>433.6</ele><time>2026-03-29T11:33:48.743Z</time></trkpt><trkpt lat="43.1780651" lon="12.2590885"><ele>432.4</ele><time>2026-03-29T11:33:49.743Z</time></trkpt><trkpt lat="43.1780254" lon="12.2592297"><ele>431.2</ele><time>2026-03-29T11:33:50.743Z</time></trkpt><trkpt lat="43.1780027" lon="12.2593647"><ele>430.0</ele><time>2026-03-29T11:33:51.742Z</time></trkpt><trkpt lat="43.1780137" lon="12.2594597"><ele>430.0</ele><time>2026-03-29T11:33:52.743Z</time></trkpt><trkpt lat="43.1781734" lon="12.2595531"><ele>430.0</ele><time>2026-03-29T11:33:54.743Z</time></trkpt><trkpt lat="43.1781798" lon="12.2597032"><ele>430.0</ele><time>2026-03-29T11:33:56.743Z</time></trkpt><trkpt lat="43.1782173" lon="12.2598108"><ele>430.0</ele><time>2026-03-29T11:33:58.743Z</time></trkpt><trkpt lat="43.1783629" lon="12.2599024"><ele>426.2</ele><time>2026-03-29T11:34:00.743Z</time></trkpt><trkpt lat="43.1784789" lon="12.2599657"><ele>422.4</ele><time>2026-03-29T11:34:01.743Z</time></trkpt><trkpt lat="43.1785761" lon="12.2600016"><ele>418.6</ele><time>2026-03-29T11:34:02.743Z</time></trkpt><trkpt lat="43.1786916" lon="12.2600913"><ele>414.8</ele><time>2026-03-29T11:34:04.743Z</time></trkpt><trkpt lat="43.1787591" lon="12.2601615"><ele>411.0</ele><time>2026-03-29T11:34:40.742Z</time></trkpt><trkpt lat="43.1788256" lon="12.2602886"><ele>411.0</ele><time>2026-03-29T11:34:42.743Z</time></trkpt><trkpt lat="43.1788566" lon="12.26038"><ele>411.0</ele><time>2026-03-29T11:34:43.742Z</time></trkpt><trkpt lat="43.1788752" lon="12.2604732"><ele>411.0</ele><time>2026-03-29T11:34:44.743Z</time></trkpt><trkpt lat="43.1789072" lon="12.2605639"><ele>411.0</ele><time>2026-03-29T11:34:45.743Z</time></trkpt><trkpt lat="43.178943" lon="12.2606434"><ele>411.0</ele><time>2026-03-29T11:34:46.743Z</time></trkpt><trkpt lat="43.1790284" lon="12.2606343"><ele>411.0</ele><time>2026-03-29T11:34:47.743Z</time></trkpt><trkpt lat="43.1791044" lon="12.2605859"><ele>407.20000000000005</ele><time>2026-03-29T11:34:48.743Z</time></trkpt><trkpt lat="43.1791762" lon="12.2605584"><ele>403.40000000000003</ele><time>2026-03-29T11:34:49.743Z</time></trkpt><trkpt lat="43.1792789" lon="12.2605193"><ele>399.6</ele><time>2026-03-29T11:34:50.743Z</time></trkpt><trkpt lat="43.1793776" lon="12.2604814"><ele>395.8</ele><time>2026-03-29T11:34:51.743Z</time></trkpt><trkpt lat="43.1794699" lon="12.2604655"><ele>392.0</ele><time>2026-03-29T11:34:52.743Z</time></trkpt><trkpt lat="43.1795662" lon="12.2604963"><ele>391.99999999999994</ele><time>2026-03-29T11:34:53.743Z</time></trkpt><trkpt lat="43.1796583" lon="12.2605774"><ele>392.0</ele><time>2026-03-29T11:34:55.743Z</time></trkpt><trkpt lat="43.1797045" lon="12.2606402"><ele>392.0</ele><time>2026-03-29T11:34:56.743Z</time></trkpt><trkpt lat="43.1797751" lon="12.2606883"><ele>392.0</ele><time>2026-03-29T11:34:57.743Z</time></trkpt><trkpt lat="43.1798512" lon="12.2606689"><ele>391.99999999999994</ele><time>2026-03-29T11:34:58.743Z</time></trkpt><trkpt lat="43.1799345" lon="12.2606616"><ele>392.0</ele><time>2026-03-29T11:34:59.743Z</time></trkpt><trkpt lat="43.1800254" lon="12.2606828"><ele>396.16666666666663</ele><time>2026-03-29T11:35:00.743Z</time></trkpt><trkpt lat="43.1801345" lon="12.2607062"><ele>400.3333333333333</ele><time>2026-03-29T11:35:01.743Z</time></trkpt><trkpt lat="43.1802271" lon="12.2607102"><ele>404.5</ele><time>2026-03-29T11:35:02.743Z</time></trkpt><trkpt lat="43.1802981" lon="12.2607015"><ele>408.66666666666663</ele><time>2026-03-29T11:35:03.743Z</time></trkpt><trkpt lat="43.1803698" lon="12.2606689"><ele>412.8333333333333</ele><time>2026-03-29T11:35:04.743Z</time></trkpt><trkpt lat="43.180452" lon="12.2606619"><ele>417.0</ele><time>2026-03-29T11:35:05.743Z</time></trkpt><trkpt lat="43.1805219" lon="12.2606555"><ele>417.0</ele><time>2026-03-29T11:35:06.743Z</time></trkpt><trkpt lat="43.1805881" lon="12.2606512"><ele>417.0</ele><time>2026-03-29T11:35:07.743Z</time></trkpt><trkpt lat="43.1806656" lon="12.2606808"><ele>417.0</ele><time>2026-03-29T11:35:09.743Z</time></trkpt><trkpt lat="43.1807059" lon="12.2607652"><ele>417.0</ele><time>2026-03-29T11:35:11.743Z</time></trkpt><trkpt lat="43.1806781" lon="12.2608971"><ele>417.0</ele><time>2026-03-29T11:35:13.743Z</time></trkpt><trkpt lat="43.1806242" lon="12.2609452"><ele>417.0</ele><time>2026-03-29T11:35:14.743Z</time></trkpt><trkpt lat="43.1805382" lon="12.2610608"><ele>417.0</ele><time>2026-03-29T11:35:16.743Z</time></trkpt><trkpt lat="43.1804671" lon="12.2611317"><ele>417.0</ele><time>2026-03-29T11:35:17.743Z</time></trkpt><trkpt lat="43.1803689" lon="12.2611948"><ele>417.0</ele><time>2026-03-29T11:35:18.743Z</time></trkpt><trkpt lat="43.1802697" lon="12.2612442"><ele>417.0</ele><time>2026-03-29T11:35:19.743Z</time></trkpt><trkpt lat="43.1801493" lon="12.2612816"><ele>417.0</ele><time>2026-03-29T11:35:20.742Z</time></trkpt><trkpt lat="43.1800328" lon="12.2613469"><ele>417.0</ele><time>2026-03-29T11:35:21.743Z</time></trkpt><trkpt lat="43.1799215" lon="12.2614426"><ele>417.0</ele><time>2026-03-29T11:35:22.743Z</time></trkpt><trkpt lat="43.1797954" lon="12.2615219"><ele>417.0</ele><time>2026-03-29T11:35:23.743Z</time></trkpt><trkpt lat="43.1796862" lon="12.2616116"><ele>417.0</ele><time>2026-03-29T11:35:24.743Z</time></trkpt><trkpt lat="43.1795549" lon="12.2616861"><ele>422.25</ele><time>2026-03-29T11:35:25.743Z</time></trkpt><trkpt lat="43.1794493" lon="12.2617641"><ele>427.5</ele><time>2026-03-29T11:35:26.743Z</time></trkpt><trkpt lat="43.1793413" lon="12.2618438"><ele>432.75</ele><time>2026-03-29T11:35:27.743Z</time></trkpt><trkpt lat="43.1792242" lon="12.261934"><ele>438.0</ele><time>2026-03-29T11:35:28.743Z</time></trkpt><trkpt lat="43.179119" lon="12.26202"><ele>439.5</ele><time>2026-03-29T11:35:29.743Z</time></trkpt><trkpt lat="43.1790119" lon="12.2620979"><ele>441.0</ele><time>2026-03-29T11:35:30.743Z</time></trkpt><trkpt lat="43.1789037" lon="12.2621745"><ele>442.5</ele><time>2026-03-29T11:35:31.743Z</time></trkpt><trkpt lat="43.1787961" lon="12.2622018"><ele>444.0</ele><time>2026-03-29T11:35:32.743Z</time></trkpt><trkpt lat="43.1786888" lon="12.262228"><ele>444.0</ele><time>2026-03-29T11:35:34.743Z</time></trkpt><trkpt lat="43.1786082" lon="12.2622514"><ele>444.0</ele><time>2026-03-29T11:35:36.743Z</time></trkpt><trkpt lat="43.1785067" lon="12.2622425"><ele>444.0</ele><time>2026-03-29T11:35:38.743Z</time></trkpt><trkpt lat="43.1784401" lon="12.2622207"><ele>444.0</ele><time>2026-03-29T11:35:39.743Z</time></trkpt><trkpt lat="43.1783714" lon="12.2622126"><ele>444.0</ele><time>2026-03-29T11:35:40.743Z</time></trkpt><trkpt lat="43.1782904" lon="12.2622042"><ele>444.0</ele><time>2026-03-29T11:35:41.743Z</time></trkpt><trkpt lat="43.1782117" lon="12.262185"><ele>445.6</ele><time>2026-03-29T11:35:42.743Z</time></trkpt><trkpt lat="43.1781125" lon="12.2621608"><ele>447.2</ele><time>2026-03-29T11:35:43.743Z</time></trkpt><trkpt lat="43.1780103" lon="12.262125"><ele>448.80000000000007</ele><time>2026-03-29T11:35:44.743Z</time></trkpt><trkpt lat="43.1779057" lon="12.2620913"><ele>450.40000000000003</ele><time>2026-03-29T11:35:45.743Z</time></trkpt><trkpt lat="43.1778016" lon="12.2620335"><ele>452.0</ele><time>2026-03-29T11:35:46.743Z</time></trkpt><trkpt lat="43.1776979" lon="12.2619692"><ele>452.0</ele><time>2026-03-29T11:35:47.743Z</time></trkpt><trkpt lat="43.1776" lon="12.2618837"><ele>452.0</ele><time>2026-03-29T11:35:48.743Z</time></trkpt><trkpt lat="43.1774982" lon="12.2618026"><ele>452.0</ele><time>2026-03-29T11:35:49.743Z</time></trkpt><trkpt lat="43.1773939" lon="12.2617423"><ele>452.0</ele><time>2026-03-29T11:35:50.743Z</time></trkpt><trkpt lat="43.1772805" lon="12.2617359"><ele>452.8</ele><time>2026-03-29T11:35:51.743Z</time></trkpt><trkpt lat="43.1771782" lon="12.2617031"><ele>453.6</ele><time>2026-03-29T11:35:52.743Z</time></trkpt><trkpt lat="43.1770678" lon="12.2616724"><ele>454.40000000000003</ele><time>2026-03-29T11:35:53.743Z</time></trkpt><trkpt lat="43.1769597" lon="12.261645"><ele>455.20000000000005</ele><time>2026-03-29T11:35:54.743Z</time></trkpt><trkpt lat="43.1768525" lon="12.2616116"><ele>456.0</ele><time>2026-03-29T11:35:55.743Z</time></trkpt><trkpt lat="43.1767518" lon="12.2615995"><ele>456.0</ele><time>2026-03-29T11:35:56.743Z</time></trkpt><trkpt lat="43.1766476" lon="12.2615622"><ele>456.0</ele><time>2026-03-29T11:35:57.742Z</time></trkpt><trkpt lat="43.1765592" lon="12.2615023"><ele>456.0</ele><time>2026-03-29T11:35:58.743Z</time></trkpt><trkpt lat="43.1764701" lon="12.2614462"><ele>456.0</ele><time>2026-03-29T11:35:59.743Z</time></trkpt><trkpt lat="43.1764101" lon="12.2613567"><ele>456.0</ele><time>2026-03-29T11:36:00.742Z</time></trkpt><trkpt lat="43.1763347" lon="12.2612734"><ele>455.4</ele><time>2026-03-29T11:36:01.743Z</time></trkpt><trkpt lat="43.1762586" lon="12.2611709"><ele>454.8</ele><time>2026-03-29T11:36:02.743Z</time></trkpt><trkpt lat="43.1761888" lon="12.2610495"><ele>454.19999999999993</ele><time>2026-03-29T11:36:03.743Z</time></trkpt><trkpt lat="43.1761211" lon="12.2609259"><ele>453.59999999999997</ele><time>2026-03-29T11:36:04.743Z</time></trkpt><trkpt lat="43.1760568" lon="12.2608088"><ele>453.0</ele><time>2026-03-29T11:36:05.743Z</time></trkpt><trkpt lat="43.1760227" lon="12.2606946"><ele>454.59999999999997</ele><time>2026-03-29T11:36:06.743Z</time></trkpt><trkpt lat="43.1759875" lon="12.2605907"><ele>456.19999999999993</ele><time>2026-03-29T11:36:07.743Z</time></trkpt><trkpt lat="43.1759834" lon="12.2604989"><ele>457.8</ele><time>2026-03-29T11:36:08.743Z</time></trkpt><trkpt lat="43.1759788" lon="12.2603242"><ele>459.4</ele><time>2026-03-29T11:36:10.742Z</time></trkpt><trkpt lat="43.1760109" lon="12.2602051"><ele>461.0</ele><time>2026-03-29T11:36:11.743Z</time></trkpt><trkpt lat="43.1760306" lon="12.2600931"><ele>461.0</ele><time>2026-03-29T11:36:12.743Z</time></trkpt><trkpt lat="43.1760572" lon="12.2599766"><ele>461.0</ele><time>2026-03-29T11:36:13.743Z</time></trkpt><trkpt lat="43.1760703" lon="12.2598114"><ele>461.0</ele><time>2026-03-29T11:36:14.743Z</time></trkpt><trkpt lat="43.1760853" lon="12.2596398"><ele>461.0</ele><time>2026-03-29T11:36:15.743Z</time></trkpt><trkpt lat="43.1761151" lon="12.2594742"><ele>460.4</ele><time>2026-03-29T11:36:16.743Z</time></trkpt><trkpt lat="43.1761669" lon="12.2593212"><ele>459.8</ele><time>2026-03-29T11:36:17.743Z</time></trkpt><trkpt lat="43.1761901" lon="12.2591969"><ele>459.19999999999993</ele><time>2026-03-29T11:36:18.743Z</time></trkpt><trkpt lat="43.1762085" lon="12.2590775"><ele>458.59999999999997</ele><time>2026-03-29T11:36:19.743Z</time></trkpt><trkpt lat="43.1761311" lon="12.2589722"><ele>458.0</ele><time>2026-03-29T11:36:20.743Z</time></trkpt><trkpt lat="43.1760725" lon="12.2588942"><ele>458.0</ele><time>2026-03-29T11:36:21.743Z</time></trkpt><trkpt lat="43.1759964" lon="12.2588254"><ele>457.99999999999994</ele><time>2026-03-29T11:36:22.743Z</time></trkpt><trkpt lat="43.1759022" lon="12.258774"><ele>457.99999999999994</ele><time>2026-03-29T11:36:23.743Z</time></trkpt><trkpt lat="43.1757987" lon="12.2587475"><ele>458.0</ele><time>2026-03-29T11:36:24.743Z</time></trkpt><trkpt lat="43.1756741" lon="12.2587277"><ele>458.0</ele><time>2026-03-29T11:36:25.743Z</time></trkpt><trkpt lat="43.1755468" lon="12.2587332"><ele>459.25</ele><time>2026-03-29T11:36:26.743Z</time></trkpt><trkpt lat="43.1754179" lon="12.258751"><ele>460.5</ele><time>2026-03-29T11:36:27.743Z</time></trkpt><trkpt lat="43.1752834" lon="12.2587457"><ele>461.75</ele><time>2026-03-29T11:36:28.743Z</time></trkpt><trkpt lat="43.1751431" lon="12.2587369"><ele>463.0</ele><time>2026-03-29T11:36:29.743Z</time></trkpt><trkpt lat="43.1750048" lon="12.2587275"><ele>463.0</ele><time>2026-03-29T11:36:30.743Z</time></trkpt><trkpt lat="43.1748657" lon="12.2587208"><ele>463.0</ele><time>2026-03-29T11:36:31.743Z</time></trkpt><trkpt lat="43.174722" lon="12.2587038"><ele>463.0</ele><time>2026-03-29T11:36:32.743Z</time></trkpt><trkpt lat="43.1745881" lon="12.2586893"><ele>463.0</ele><time>2026-03-29T11:36:33.743Z</time></trkpt><trkpt lat="43.1744534" lon="12.2586637"><ele>464.25</ele><time>2026-03-29T11:36:34.743Z</time></trkpt><trkpt lat="43.1743253" lon="12.258618"><ele>465.5</ele><time>2026-03-29T11:36:35.743Z</time></trkpt><trkpt lat="43.1742082" lon="12.2585512"><ele>466.75</ele><time>2026-03-29T11:36:36.743Z</time></trkpt><trkpt lat="43.1741126" lon="12.2584972"><ele>468.0</ele><time>2026-03-29T11:36:37.743Z</time></trkpt><trkpt lat="43.1740018" lon="12.2584425"><ele>468.2</ele><time>2026-03-29T11:36:38.743Z</time></trkpt><trkpt lat="43.173907" lon="12.2583852"><ele>468.4</ele><time>2026-03-29T11:36:39.743Z</time></trkpt><trkpt lat="43.1738109" lon="12.2583229"><ele>468.59999999999997</ele><time>2026-03-29T11:36:40.743Z</time></trkpt><trkpt lat="43.1737117" lon="12.2582493"><ele>468.79999999999995</ele><time>2026-03-29T11:36:41.743Z</time></trkpt><trkpt lat="43.173613" lon="12.2581647"><ele>469.0</ele><time>2026-03-29T11:36:42.743Z</time></trkpt><trkpt lat="43.1735206" lon="12.2580643"><ele>469.0</ele><time>2026-03-29T11:36:43.743Z</time></trkpt><trkpt lat="43.1734304" lon="12.257958"><ele>469.0</ele><time>2026-03-29T11:36:44.743Z</time></trkpt><trkpt lat="43.1733485" lon="12.2578323"><ele>469.0</ele><time>2026-03-29T11:36:45.743Z</time></trkpt><trkpt lat="43.1732646" lon="12.2577125"><ele>469.0</ele><time>2026-03-29T11:36:46.743Z</time></trkpt><trkpt lat="43.1731833" lon="12.2576089"><ele>468.5</ele><time>2026-03-29T11:36:47.743Z</time></trkpt><trkpt lat="43.1731105" lon="12.2575001"><ele>468.0</ele><time>2026-03-29T11:36:48.743Z</time></trkpt><trkpt lat="43.1730366" lon="12.2573785"><ele>467.5</ele><time>2026-03-29T11:36:49.743Z</time></trkpt><trkpt lat="43.1729602" lon="12.2572602"><ele>467.0</ele><time>2026-03-29T11:36:50.743Z</time></trkpt><trkpt lat="43.172879" lon="12.2571472"><ele>467.0</ele><time>2026-03-29T11:36:51.743Z</time></trkpt><trkpt lat="43.1727912" lon="12.2570546"><ele>467.0</ele><time>2026-03-29T11:36:52.743Z</time></trkpt><trkpt lat="43.1726943" lon="12.2569777"><ele>467.0</ele><time>2026-03-29T11:36:53.743Z</time></trkpt><trkpt lat="43.172593" lon="12.256916"><ele>467.0</ele><time>2026-03-29T11:36:54.742Z</time></trkpt><trkpt lat="43.1724704" lon="12.2568707"><ele>467.0</ele><time>2026-03-29T11:36:55.743Z</time></trkpt><trkpt lat="43.1723623" lon="12.2568176"><ele>467.0</ele><time>2026-03-29T11:36:56.743Z</time></trkpt><trkpt lat="43.1722477" lon="12.2567372"><ele>467.0</ele><time>2026-03-29T11:36:57.743Z</time></trkpt><trkpt lat="43.1721277" lon="12.256659"><ele>467.0</ele><time>2026-03-29T11:36:58.743Z</time></trkpt><trkpt lat="43.1720127" lon="12.2565933"><ele>467.25</ele><time>2026-03-29T11:36:59.742Z</time></trkpt><trkpt lat="43.1718837" lon="12.2565531"><ele>467.5</ele><time>2026-03-29T11:37:00.743Z</time></trkpt><trkpt lat="43.1717673" lon="12.2565361"><ele>467.75</ele><time>2026-03-29T11:37:01.742Z</time></trkpt><trkpt lat="43.1716451" lon="12.2565141"><ele>468.0</ele><time>2026-03-29T11:37:02.743Z</time></trkpt><trkpt lat="43.1715225" lon="12.2564784"><ele>466.59999999999997</ele><time>2026-03-29T11:37:03.743Z</time></trkpt><trkpt lat="43.1714296" lon="12.2564113"><ele>465.19999999999993</ele><time>2026-03-29T11:37:04.743Z</time></trkpt><trkpt lat="43.1713433" lon="12.2563146"><ele>463.8</ele><time>2026-03-29T11:37:05.743Z</time></trkpt><trkpt lat="43.1712833" lon="12.2561956"><ele>462.4</ele><time>2026-03-29T11:37:06.743Z</time></trkpt><trkpt lat="43.17123" lon="12.2560647"><ele>461.0</ele><time>2026-03-29T11:37:07.743Z</time></trkpt><trkpt lat="43.1711724" lon="12.2559379"><ele>461.0</ele><time>2026-03-29T11:37:08.743Z</time></trkpt><trkpt lat="43.1711228" lon="12.2558114"><ele>461.0</ele><time>2026-03-29T11:37:09.742Z</time></trkpt><trkpt lat="43.1710655" lon="12.2556782"><ele>461.0</ele><time>2026-03-29T11:37:10.743Z</time></trkpt><trkpt lat="43.1710081" lon="12.2555449"><ele>461.0</ele><time>2026-03-29T11:37:11.743Z</time></trkpt><trkpt lat="43.1709507" lon="12.2554108"><ele>461.0</ele><time>2026-03-29T11:37:12.743Z</time></trkpt><trkpt lat="43.17092" lon="12.2552627"><ele>459.8333333333333</ele><time>2026-03-29T11:37:13.743Z</time></trkpt><trkpt lat="43.1709264" lon="12.255138"><ele>458.66666666666663</ele><time>2026-03-29T11:37:14.743Z</time></trkpt><trkpt lat="43.1709438" lon="12.2550301"><ele>457.5</ele><time>2026-03-29T11:37:15.743Z</time></trkpt><trkpt lat="43.1709758" lon="12.2549451"><ele>456.33333333333337</ele><time>2026-03-29T11:37:16.743Z</time></trkpt><trkpt lat="43.1710205" lon="12.2548338"><ele>455.1666666666667</ele><time>2026-03-29T11:37:18.743Z</time></trkpt><trkpt lat="43.1710873" lon="12.2547595"><ele>454.0</ele><time>2026-03-29T11:37:21.743Z</time></trkpt><trkpt lat="43.1711529" lon="12.2547729"><ele>454.0</ele><time>2026-03-29T11:37:23.742Z</time></trkpt><trkpt lat="43.1712938" lon="12.2547798"><ele>454.0</ele><time>2026-03-29T11:37:25.743Z</time></trkpt><trkpt lat="43.1713671" lon="12.254777"><ele>454.0</ele><time>2026-03-29T11:37:26.743Z</time></trkpt><trkpt lat="43.1714903" lon="12.2548004"><ele>454.0</ele><time>2026-03-29T11:37:28.743Z</time></trkpt><trkpt lat="43.1716001" lon="12.2548317"><ele>454.1666666666667</ele><time>2026-03-29T11:37:30.743Z</time></trkpt><trkpt lat="43.1717029" lon="12.2548637"><ele>454.33333333333337</ele><time>2026-03-29T11:37:32.743Z</time></trkpt><trkpt lat="43.1717848" lon="12.2548875"><ele>454.5</ele><time>2026-03-29T11:37:34.743Z</time></trkpt><trkpt lat="43.1718895" lon="12.2548865"><ele>454.66666666666663</ele><time>2026-03-29T11:37:36.743Z</time></trkpt><trkpt lat="43.1719507" lon="12.2548647"><ele>454.8333333333333</ele><time>2026-03-29T11:37:41.743Z</time></trkpt><trkpt lat="43.1720119" lon="12.2548289"><ele>455.0</ele><time>2026-03-29T11:37:47.743Z</time></trkpt><trkpt lat="43.1720738" lon="12.2548111"><ele>452.16666666666663</ele><time>2026-03-29T11:39:59.743Z</time></trkpt><trkpt lat="43.1721427" lon="12.25477"><ele>449.3333333333333</ele><time>2026-03-29T11:40:02.743Z</time></trkpt><trkpt lat="43.172246" lon="12.2547296"><ele>446.5</ele><time>2026-03-29T11:40:04.743Z</time></trkpt><trkpt lat="43.1723548" lon="12.2546512"><ele>443.66666666666663</ele><time>2026-03-29T11:40:06.743Z</time></trkpt><trkpt lat="43.1724095" lon="12.2545945"><ele>440.8333333333333</ele><time>2026-03-29T11:40:07.743Z</time></trkpt><trkpt lat="43.1724669" lon="12.2545363"><ele>438.0</ele><time>2026-03-29T11:40:08.743Z</time></trkpt><trkpt lat="43.1725301" lon="12.2544962"><ele>438.0</ele><time>2026-03-29T11:40:09.743Z</time></trkpt><trkpt lat="43.1725995" lon="12.254467"><ele>438.0</ele><time>2026-03-29T11:40:10.743Z</time></trkpt><trkpt lat="43.172669" lon="12.2544364"><ele>438.0</ele><time>2026-03-29T11:40:11.743Z</time></trkpt><trkpt lat="43.1727267" lon="12.2543824"><ele>438.0</ele><time>2026-03-29T11:40:12.743Z</time></trkpt><trkpt lat="43.1727809" lon="12.2543246"><ele>438.0</ele><time>2026-03-29T11:40:13.743Z</time></trkpt><trkpt lat="43.1728577" lon="12.2541958"><ele>438.0</ele><time>2026-03-29T11:40:15.743Z</time></trkpt><trkpt lat="43.17293" lon="12.2541009"><ele>438.0</ele><time>2026-03-29T11:40:17.743Z</time></trkpt><trkpt lat="43.1730182" lon="12.2540376"><ele>437.99999999999994</ele><time>2026-03-29T11:40:19.743Z</time></trkpt><trkpt lat="43.1730874" lon="12.2539911"><ele>437.99999999999994</ele><time>2026-03-29T11:40:20.743Z</time></trkpt><trkpt lat="43.1731805" lon="12.2539233"><ele>438.0</ele><time>2026-03-29T11:40:21.743Z</time></trkpt><trkpt lat="43.1732558" lon="12.2538624"><ele>438.0</ele><time>2026-03-29T11:40:22.743Z</time></trkpt><trkpt lat="43.1734188" lon="12.2537526"><ele>435.79999999999995</ele><time>2026-03-29T11:40:24.743Z</time></trkpt><trkpt lat="43.1734988" lon="12.2537087"><ele>433.59999999999997</ele><time>2026-03-29T11:40:25.743Z</time></trkpt><trkpt lat="43.1735748" lon="12.2536458"><ele>431.40000000000003</ele><time>2026-03-29T11:40:26.742Z</time></trkpt><trkpt lat="43.1736591" lon="12.2535902"><ele>429.20000000000005</ele><time>2026-03-29T11:40:27.743Z</time></trkpt><trkpt lat="43.1737252" lon="12.2535176"><ele>427.0</ele><time>2026-03-29T11:40:28.743Z</time></trkpt><trkpt lat="43.1737983" lon="12.2534311"><ele>427.0</ele><time>2026-03-29T11:40:29.743Z</time></trkpt><trkpt lat="43.173868" lon="12.2533153"><ele>427.00000000000006</ele><time>2026-03-29T11:40:30.743Z</time></trkpt><trkpt lat="43.1739505" lon="12.2532071"><ele>427.00000000000006</ele><time>2026-03-29T11:40:31.743Z</time></trkpt><trkpt lat="43.1740236" lon="12.2531352"><ele>427.0</ele><time>2026-03-29T11:40:32.743Z</time></trkpt><trkpt lat="43.1741053" lon="12.2530549"><ele>427.0</ele><time>2026-03-29T11:40:33.743Z</time></trkpt><trkpt lat="43.1741821" lon="12.2529886"><ele>424.0</ele><time>2026-03-29T11:40:34.742Z</time></trkpt><trkpt lat="43.1742714" lon="12.2529233"><ele>421.00000000000006</ele><time>2026-03-29T11:40:35.743Z</time></trkpt><trkpt lat="43.174358" lon="12.2528517"><ele>418.0</ele><time>2026-03-29T11:40:36.743Z</time></trkpt><trkpt lat="43.1744296" lon="12.2527429"><ele>415.0</ele><time>2026-03-29T11:40:37.743Z</time></trkpt><trkpt lat="43.1745191" lon="12.2525971"><ele>412.0</ele><time>2026-03-29T11:40:38.743Z</time></trkpt><trkpt lat="43.1745964" lon="12.2524686"><ele>412.0</ele><time>2026-03-29T11:40:39.743Z</time></trkpt><trkpt lat="43.1746712" lon="12.2523551"><ele>412.0</ele><time>2026-03-29T11:40:40.743Z</time></trkpt><trkpt lat="43.1747478" lon="12.2522532"><ele>412.0</ele><time>2026-03-29T11:40:41.743Z</time></trkpt><trkpt lat="43.1748128" lon="12.2521722"><ele>412.0</ele><time>2026-03-29T11:40:42.742Z</time></trkpt><trkpt lat="43.1748883" lon="12.252102"><ele>412.0</ele><time>2026-03-29T11:40:43.743Z</time></trkpt><trkpt lat="43.1749983" lon="12.2520547"><ele>408.25</ele><time>2026-03-29T11:40:44.743Z</time></trkpt><trkpt lat="43.1751086" lon="12.2519514"><ele>404.5</ele><time>2026-03-29T11:40:45.743Z</time></trkpt><trkpt lat="43.1752059" lon="12.251919"><ele>400.75</ele><time>2026-03-29T11:40:46.743Z</time></trkpt><trkpt lat="43.1753912" lon="12.2518734"><ele>397.0</ele><time>2026-03-29T11:40:48.743Z</time></trkpt><trkpt lat="43.1754885" lon="12.2518764"><ele>397.0</ele><time>2026-03-29T11:40:49.743Z</time></trkpt><trkpt lat="43.1755811" lon="12.2519164"><ele>397.0</ele><time>2026-03-29T11:40:50.743Z</time></trkpt><trkpt lat="43.1756787" lon="12.2519142"><ele>397.0</ele><time>2026-03-29T11:40:51.743Z</time></trkpt><trkpt lat="43.1757667" lon="12.2519133"><ele>397.0</ele><time>2026-03-29T11:40:52.743Z</time></trkpt><trkpt lat="43.1758569" lon="12.2518959"><ele>397.0</ele><time>2026-03-29T11:40:53.743Z</time></trkpt><trkpt lat="43.1758616" lon="12.2517724"><ele>397.0</ele><time>2026-03-29T11:40:55.743Z</time></trkpt><trkpt lat="43.1757542" lon="12.2516823"><ele>397.0</ele><time>2026-03-29T11:40:56.743Z</time></trkpt><trkpt lat="43.1756107" lon="12.251518"><ele>397.0</ele><time>2026-03-29T11:40:57.742Z</time></trkpt><trkpt lat="43.1755661" lon="12.2514097"><ele>397.0</ele><time>2026-03-29T11:40:58.743Z</time></trkpt><trkpt lat="43.1755188" lon="12.2513393"><ele>392.40000000000003</ele><time>2026-03-29T11:40:59.743Z</time></trkpt><trkpt lat="43.1753826" lon="12.251247"><ele>387.8</ele><time>2026-03-29T11:41:01.743Z</time></trkpt><trkpt lat="43.1753281" lon="12.2511923"><ele>383.2</ele><time>2026-03-29T11:41:02.743Z</time></trkpt><trkpt lat="43.1752908" lon="12.2510586"><ele>378.6</ele><time>2026-03-29T11:41:04.743Z</time></trkpt><trkpt lat="43.1753986" lon="12.2510278"><ele>374.0</ele><time>2026-03-29T11:41:05.743Z</time></trkpt><trkpt lat="43.1754744" lon="12.2509886"><ele>374.0</ele><time>2026-03-29T11:41:06.742Z</time></trkpt><trkpt lat="43.1755775" lon="12.2509498"><ele>374.0</ele><time>2026-03-29T11:41:07.743Z</time></trkpt><trkpt lat="43.1757401" lon="12.2508339"><ele>374.0</ele><time>2026-03-29T11:41:09.743Z</time></trkpt><trkpt lat="43.175812" lon="12.2508117"><ele>374.0</ele><time>2026-03-29T11:41:10.743Z</time></trkpt><trkpt lat="43.1758932" lon="12.250772"><ele>374.0</ele><time>2026-03-29T11:41:11.743Z</time></trkpt><trkpt lat="43.1759629" lon="12.2507362"><ele>374.0</ele><time>2026-03-29T11:41:12.743Z</time></trkpt><trkpt lat="43.1760303" lon="12.250713"><ele>374.0</ele><time>2026-03-29T11:41:13.743Z</time></trkpt><trkpt lat="43.1761112" lon="12.2507175"><ele>374.0</ele><time>2026-03-29T11:41:14.742Z</time></trkpt><trkpt lat="43.1762029" lon="12.2507364"><ele>374.0</ele><time>2026-03-29T11:41:15.742Z</time></trkpt><trkpt lat="43.17632" lon="12.2506831"><ele>374.0</ele><time>2026-03-29T11:41:17.743Z</time></trkpt><trkpt lat="43.1763678" lon="12.2505718"><ele>370.2</ele><time>2026-03-29T11:41:18.743Z</time></trkpt><trkpt lat="43.1763785" lon="12.2504779"><ele>366.4</ele><time>2026-03-29T11:41:19.743Z</time></trkpt><trkpt lat="43.1763801" lon="12.2503279"><ele>362.6</ele><time>2026-03-29T11:41:20.743Z</time></trkpt><trkpt lat="43.1763963" lon="12.2501775"><ele>358.8</ele><time>2026-03-29T11:41:21.743Z</time></trkpt><trkpt lat="43.1764246" lon="12.250012"><ele>355.0</ele><time>2026-03-29T11:41:22.743Z</time></trkpt><trkpt lat="43.1764394" lon="12.249893"><ele>355.0</ele><time>2026-03-29T11:41:23.743Z</time></trkpt><trkpt lat="43.1764539" lon="12.2497986"><ele>355.0</ele><time>2026-03-29T11:41:24.743Z</time></trkpt><trkpt lat="43.176463" lon="12.2496768"><ele>355.0</ele><time>2026-03-29T11:41:25.743Z</time></trkpt><trkpt lat="43.1764662" lon="12.2495273"><ele>355.0</ele><time>2026-03-29T11:41:26.743Z</time></trkpt><trkpt lat="43.1764668" lon="12.249431"><ele>355.0</ele><time>2026-03-29T11:41:27.743Z</time></trkpt><trkpt lat="43.1764546" lon="12.249321"><ele>355.0</ele><time>2026-03-29T11:41:28.743Z</time></trkpt><trkpt lat="43.1764306" lon="12.2491799"><ele>351.4</ele><time>2026-03-29T11:41:29.743Z</time></trkpt><trkpt lat="43.1764423" lon="12.2490644"><ele>347.8</ele><time>2026-03-29T11:41:30.743Z</time></trkpt><trkpt lat="43.1764513" lon="12.2489218"><ele>344.20000000000005</ele><time>2026-03-29T11:41:31.743Z</time></trkpt><trkpt lat="43.1764535" lon="12.2487821"><ele>340.6</ele><time>2026-03-29T11:41:32.743Z</time></trkpt><trkpt lat="43.1764615" lon="12.2486648"><ele>337.0</ele><time>2026-03-29T11:41:33.743Z</time></trkpt><trkpt lat="43.1764619" lon="12.2485385"><ele>335.66666666666663</ele><time>2026-03-29T11:41:34.743Z</time></trkpt><trkpt lat="43.1764768" lon="12.2484387"><ele>334.3333333333333</ele><time>2026-03-29T11:41:35.743Z</time></trkpt><trkpt lat="43.1764702" lon="12.2483258"><ele>333.0</ele><time>2026-03-29T11:41:36.743Z</time></trkpt><trkpt lat="43.1764662" lon="12.2481967"><ele>331.6666666666667</ele><time>2026-03-29T11:41:37.743Z</time></trkpt><trkpt lat="43.1764619" lon="12.248087"><ele>330.33333333333337</ele><time>2026-03-29T11:41:38.743Z</time></trkpt><trkpt lat="43.1764601" lon="12.2479859"><ele>329.0</ele><time>2026-03-29T11:41:39.743Z</time></trkpt><trkpt lat="43.1764582" lon="12.2478774"><ele>330.33333333333337</ele><time>2026-03-29T11:41:40.743Z</time></trkpt><trkpt lat="43.1764484" lon="12.247787"><ele>331.6666666666667</ele><time>2026-03-29T11:41:41.743Z</time></trkpt><trkpt lat="43.1764288" lon="12.2476874"><ele>333.0</ele><time>2026-03-29T11:41:42.743Z</time></trkpt><trkpt lat="43.1764262" lon="12.2475947"><ele>334.3333333333333</ele><time>2026-03-29T11:41:43.743Z</time></trkpt><trkpt lat="43.1764642" lon="12.2474387"><ele>335.66666666666663</ele><time>2026-03-29T11:41:45.743Z</time></trkpt><trkpt lat="43.1765186" lon="12.2473762"><ele>337.0</ele><time>2026-03-29T11:41:46.743Z</time></trkpt><trkpt lat="43.1765638" lon="12.2473027"><ele>333.8</ele><time>2026-03-29T11:41:47.743Z</time></trkpt><trkpt lat="43.1765649" lon="12.2471458"><ele>330.6</ele><time>2026-03-29T11:41:49.743Z</time></trkpt><trkpt lat="43.1764921" lon="12.2470503"><ele>327.40000000000003</ele><time>2026-03-29T11:41:51.743Z</time></trkpt><trkpt lat="43.1764051" lon="12.2471447"><ele>324.20000000000005</ele><time>2026-03-29T11:41:52.743Z</time></trkpt><trkpt lat="43.1763415" lon="12.2471658"><ele>321.0</ele><time>2026-03-29T11:41:53.743Z</time></trkpt><trkpt lat="43.1763138" lon="12.2473182"><ele>320.8</ele><time>2026-03-29T11:41:55.743Z</time></trkpt><trkpt lat="43.1762696" lon="12.2474282"><ele>320.6</ele><time>2026-03-29T11:41:56.741Z</time></trkpt><trkpt lat="43.1762026" lon="12.2475308"><ele>320.4</ele><time>2026-03-29T11:41:57.743Z</time></trkpt><trkpt lat="43.1761483" lon="12.2476451"><ele>320.2</ele><time>2026-03-29T11:41:58.743Z</time></trkpt><trkpt lat="43.1760814" lon="12.2477616"><ele>320.0</ele><time>2026-03-29T11:41:59.743Z</time></trkpt><trkpt lat="43.1760289" lon="12.247867"><ele>320.0</ele><time>2026-03-29T11:42:00.743Z</time></trkpt><trkpt lat="43.1759792" lon="12.2479699"><ele>320.0</ele><time>2026-03-29T11:42:01.743Z</time></trkpt><trkpt lat="43.1759343" lon="12.2480659"><ele>320.0</ele><time>2026-03-29T11:42:02.743Z</time></trkpt><trkpt lat="43.1758952" lon="12.2481627"><ele>320.0</ele><time>2026-03-29T11:42:03.743Z</time></trkpt><trkpt lat="43.1758344" lon="12.2482354"><ele>320.0</ele><time>2026-03-29T11:42:05.743Z</time></trkpt><trkpt lat="43.1758156" lon="12.248132"><ele>320.0</ele><time>2026-03-29T11:42:07.743Z</time></trkpt><trkpt lat="43.1758164" lon="12.2480304"><ele>320.0</ele><time>2026-03-29T11:42:08.743Z</time></trkpt><trkpt lat="43.1758241" lon="12.2479282"><ele>320.0</ele><time>2026-03-29T11:42:09.743Z</time></trkpt><trkpt lat="43.1758285" lon="12.2478082"><ele>320.0</ele><time>2026-03-29T11:42:10.743Z</time></trkpt><trkpt lat="43.1758202" lon="12.2476957"><ele>320.0</ele><time>2026-03-29T11:42:11.743Z</time></trkpt><trkpt lat="43.1758014" lon="12.2475765"><ele>320.0</ele><time>2026-03-29T11:42:12.743Z</time></trkpt><trkpt lat="43.1757898" lon="12.2474503"><ele>320.0</ele><time>2026-03-29T11:42:13.743Z</time></trkpt><trkpt lat="43.1757832" lon="12.247333"><ele>318.33333333333337</ele><time>2026-03-29T11:42:14.743Z</time></trkpt><trkpt lat="43.1757778" lon="12.2472305"><ele>316.6666666666667</ele><time>2026-03-29T11:42:15.743Z</time></trkpt><trkpt lat="43.1757695" lon="12.2471184"><ele>315.0</ele><time>2026-03-29T11:42:16.743Z</time></trkpt><trkpt lat="43.1757915" lon="12.2470323"><ele>313.3333333333333</ele><time>2026-03-29T11:42:17.743Z</time></trkpt><trkpt lat="43.1758526" lon="12.246904"><ele>311.66666666666663</ele><time>2026-03-29T11:42:18.743Z</time></trkpt><trkpt lat="43.1758797" lon="12.2467657"><ele>310.0</ele><time>2026-03-29T11:42:19.743Z</time></trkpt><trkpt lat="43.1759011" lon="12.246646"><ele>310.0</ele><time>2026-03-29T11:42:20.743Z</time></trkpt><trkpt lat="43.175915" lon="12.2465329"><ele>310.0</ele><time>2026-03-29T11:42:21.743Z</time></trkpt><trkpt lat="43.1759454" lon="12.2464393"><ele>310.0</ele><time>2026-03-29T11:42:22.743Z</time></trkpt><trkpt lat="43.1759771" lon="12.2463645"><ele>310.0</ele><time>2026-03-29T11:42:23.743Z</time></trkpt><trkpt lat="43.1760015" lon="12.2462777"><ele>310.0</ele><time>2026-03-29T11:42:24.743Z</time></trkpt><trkpt lat="43.1760256" lon="12.2461959"><ele>310.0</ele><time>2026-03-29T11:42:25.743Z</time></trkpt><trkpt lat="43.1760247" lon="12.2461051"><ele>310.0</ele><time>2026-03-29T11:42:26.743Z</time></trkpt><trkpt lat="43.1760198" lon="12.2459739"><ele>308.75</ele><time>2026-03-29T11:42:27.743Z</time></trkpt><trkpt lat="43.1760584" lon="12.2458586"><ele>307.5</ele><time>2026-03-29T11:42:28.743Z</time></trkpt><trkpt lat="43.1761319" lon="12.2457203"><ele>306.25</ele><time>2026-03-29T11:42:29.743Z</time></trkpt><trkpt lat="43.1761967" lon="12.2455686"><ele>305.0</ele><time>2026-03-29T11:42:30.743Z</time></trkpt><trkpt lat="43.1763283" lon="12.2454096"><ele>305.0</ele><time>2026-03-29T11:42:31.743Z</time></trkpt><trkpt lat="43.1764105" lon="12.2452629"><ele>305.0</ele><time>2026-03-29T11:42:32.743Z</time></trkpt><trkpt lat="43.1764915" lon="12.245134"><ele>305.0</ele><time>2026-03-29T11:42:33.743Z</time></trkpt><trkpt lat="43.1765653" lon="12.2450286"><ele>305.0</ele><time>2026-03-29T11:42:34.743Z</time></trkpt><trkpt lat="43.1766238" lon="12.24492"><ele>303.0</ele><time>2026-03-29T11:42:35.743Z</time></trkpt><trkpt lat="43.1766796" lon="12.2448193"><ele>301.0</ele><time>2026-03-29T11:42:36.743Z</time></trkpt><trkpt lat="43.1767182" lon="12.2447049"><ele>299.0</ele><time>2026-03-29T11:42:37.743Z</time></trkpt><trkpt lat="43.176742" lon="12.2446051"><ele>297.0</ele><time>2026-03-29T11:42:38.743Z</time></trkpt><trkpt lat="43.1767466" lon="12.2445056"><ele>295.0</ele><time>2026-03-29T11:42:39.743Z</time></trkpt><trkpt lat="43.1767417" lon="12.2443552"><ele>293.0</ele><time>2026-03-29T11:42:41.743Z</time></trkpt><trkpt lat="43.1767208" lon="12.2442143"><ele>292.5</ele><time>2026-03-29T11:42:43.743Z</time></trkpt><trkpt lat="43.1767255" lon="12.2440821"><ele>292.0</ele><time>2026-03-29T11:42:45.742Z</time></trkpt><trkpt lat="43.176719" lon="12.2439672"><ele>291.5</ele><time>2026-03-29T11:42:47.743Z</time></trkpt><trkpt lat="43.1767115" lon="12.2438663"><ele>291.0</ele><time>2026-03-29T11:42:49.743Z</time></trkpt><trkpt lat="43.1767518" lon="12.2437867"><ele>290.5</ele><time>2026-03-29T11:42:51.743Z</time></trkpt><trkpt lat="43.1767832" lon="12.243684"><ele>290.0</ele><time>2026-03-29T11:42:54.743Z</time></trkpt><trkpt lat="43.1767354" lon="12.2436243"><ele>290.0</ele><time>2026-03-29T11:42:57.743Z</time></trkpt><trkpt lat="43.176708" lon="12.243727"><ele>290.0</ele><time>2026-03-29T11:43:01.743Z</time></trkpt><trkpt lat="43.1767048" lon="12.2438631"><ele>290.0</ele><time>2026-03-29T11:43:04.743Z</time></trkpt><trkpt lat="43.1766851" lon="12.2439703"><ele>290.0</ele><time>2026-03-29T11:43:06.743Z</time></trkpt><trkpt lat="43.1766918" lon="12.2440636"><ele>290.0</ele><time>2026-03-29T11:43:08.743Z</time></trkpt><trkpt lat="43.1767221" lon="12.2442056"><ele>290.0</ele><time>2026-03-29T11:43:11.743Z</time></trkpt><trkpt lat="43.1767342" lon="12.2442925"><ele>290.0</ele><time>2026-03-29T11:43:14.743Z</time></trkpt><trkpt lat="43.1767551" lon="12.2441907"><ele>290.0</ele><time>2026-03-29T11:43:18.743Z</time></trkpt><trkpt lat="43.1767401" lon="12.2440914"><ele>290.0</ele><time>2026-03-29T11:43:20.742Z</time></trkpt><trkpt lat="43.1767189" lon="12.2440042"><ele>290.0</ele><time>2026-03-29T11:43:22.743Z</time></trkpt><trkpt lat="43.1767135" lon="12.2439067"><ele>290.0</ele><time>2026-03-29T11:43:24.743Z</time></trkpt><trkpt lat="43.1767291" lon="12.2438125"><ele>290.0</ele><time>2026-03-29T11:43:26.743Z</time></trkpt><trkpt lat="43.1767648" lon="12.2437373"><ele>290.0</ele><time>2026-03-29T11:43:28.742Z</time></trkpt><trkpt lat="43.1767831" lon="12.2436446"><ele>289.8</ele><time>2026-03-29T11:43:30.743Z</time></trkpt><trkpt lat="43.1767569" lon="12.2435573"><ele>289.6</ele><time>2026-03-29T11:43:32.743Z</time></trkpt><trkpt lat="43.1767095" lon="12.243497"><ele>289.4</ele><time>2026-03-29T11:43:34.743Z</time></trkpt><trkpt lat="43.1765741" lon="12.243368"><ele>289.2</ele><time>2026-03-29T11:44:49.743Z</time></trkpt><trkpt lat="43.1764708" lon="12.2432475"><ele>289.0</ele><time>2026-03-29T11:44:51.743Z</time></trkpt><trkpt lat="43.176393" lon="12.2431666"><ele>288.59999999999997</ele><time>2026-03-29T11:44:52.743Z</time></trkpt><trkpt lat="43.1763231" lon="12.2430864"><ele>288.2</ele><time>2026-03-29T11:44:53.743Z</time></trkpt><trkpt lat="43.1762629" lon="12.2429679"><ele>287.79999999999995</ele><time>2026-03-29T11:44:54.743Z</time></trkpt><trkpt lat="43.1762336" lon="12.242841"><ele>287.4</ele><time>2026-03-29T11:44:55.743Z</time></trkpt><trkpt lat="43.1762414" lon="12.2427127"><ele>287.0</ele><time>2026-03-29T11:44:56.743Z</time></trkpt><trkpt lat="43.1762272" lon="12.2425598"><ele>287.0</ele><time>2026-03-29T11:44:57.742Z</time></trkpt><trkpt lat="43.1761959" lon="12.2423965"><ele>287.0</ele><time>2026-03-29T11:44:58.743Z</time></trkpt><trkpt lat="43.1761626" lon="12.2422463"><ele>287.0</ele><time>2026-03-29T11:44:59.743Z</time></trkpt><trkpt lat="43.1760567" lon="12.2420473"><ele>287.0</ele><time>2026-03-29T11:45:00.743Z</time></trkpt><trkpt lat="43.1759943" lon="12.2418498"><ele>286.6666666666667</ele><time>2026-03-29T11:45:01.743Z</time></trkpt><trkpt lat="43.1759208" lon="12.241631"><ele>286.3333333333333</ele><time>2026-03-29T11:45:02.743Z</time></trkpt><trkpt lat="43.1758548" lon="12.241408"><ele>286.0</ele><time>2026-03-29T11:45:03.743Z</time></trkpt><trkpt lat="43.1757864" lon="12.2411894"><ele>286.3333333333333</ele><time>2026-03-29T11:45:04.742Z</time></trkpt><trkpt lat="43.175716" lon="12.2409765"><ele>286.6666666666667</ele><time>2026-03-29T11:45:05.742Z</time></trkpt><trkpt lat="43.1756605" lon="12.2407707"><ele>287.0</ele><time>2026-03-29T11:45:06.743Z</time></trkpt><trkpt lat="43.1756011" lon="12.2405389"><ele>286.0</ele><time>2026-03-29T11:45:07.743Z</time></trkpt><trkpt lat="43.1755487" lon="12.2403178"><ele>285.0</ele><time>2026-03-29T11:45:08.743Z</time></trkpt><trkpt lat="43.1755008" lon="12.240083"><ele>284.0</ele><time>2026-03-29T11:45:09.743Z</time></trkpt><trkpt lat="43.1754625" lon="12.2398481"><ele>283.6666666666667</ele><time>2026-03-29T11:45:10.743Z</time></trkpt><trkpt lat="43.1754317" lon="12.2396148"><ele>283.3333333333333</ele><time>2026-03-29T11:45:11.743Z</time></trkpt><trkpt lat="43.1754001" lon="12.2393831"><ele>283.0</ele><time>2026-03-29T11:45:12.743Z</time></trkpt><trkpt lat="43.1753433" lon="12.2391523"><ele>282.66666666666663</ele><time>2026-03-29T11:45:13.743Z</time></trkpt><trkpt lat="43.1752788" lon="12.2389246"><ele>282.3333333333333</ele><time>2026-03-29T11:45:14.742Z</time></trkpt><trkpt lat="43.1752197" lon="12.238699"><ele>282.0</ele><time>2026-03-29T11:45:15.743Z</time></trkpt><trkpt lat="43.1751637" lon="12.238467"><ele>282.0</ele><time>2026-03-29T11:45:16.743Z</time></trkpt><trkpt lat="43.1751008" lon="12.238243"><ele>282.0</ele><time>2026-03-29T11:45:17.743Z</time></trkpt><trkpt lat="43.1750688" lon="12.2380194"><ele>282.0</ele><time>2026-03-29T11:45:18.743Z</time></trkpt><trkpt lat="43.1750386" lon="12.2377948"><ele>283.3333333333333</ele><time>2026-03-29T11:45:19.743Z</time></trkpt><trkpt lat="43.1750188" lon="12.2375733"><ele>284.66666666666663</ele><time>2026-03-29T11:45:20.743Z</time></trkpt><trkpt lat="43.1749719" lon="12.2373531"><ele>286.0</ele><time>2026-03-29T11:45:21.743Z</time></trkpt><trkpt lat="43.1749144" lon="12.2371452"><ele>284.75</ele><time>2026-03-29T11:45:22.743Z</time></trkpt><trkpt lat="43.1748402" lon="12.2369532"><ele>283.5</ele><time>2026-03-29T11:45:23.743Z</time></trkpt><trkpt lat="43.1747583" lon="12.2367857"><ele>282.25</ele><time>2026-03-29T11:45:24.743Z</time></trkpt><trkpt lat="43.1746874" lon="12.2366389"><ele>281.0</ele><time>2026-03-29T11:45:25.743Z</time></trkpt><trkpt lat="43.1746129" lon="12.2365221"><ele>281.0</ele><time>2026-03-29T11:45:26.743Z</time></trkpt><trkpt lat="43.1745477" lon="12.2364314"><ele>281.0</ele><time>2026-03-29T11:45:27.742Z</time></trkpt><trkpt lat="43.1744929" lon="12.236377"><ele>281.0</ele><time>2026-03-29T11:45:28.743Z</time></trkpt><trkpt lat="43.174425" lon="12.2363532"><ele>281.0</ele><time>2026-03-29T11:45:30.743Z</time></trkpt><trkpt lat="43.1743612" lon="12.2364498"><ele>281.0</ele><time>2026-03-29T11:45:32.743Z</time></trkpt><trkpt lat="43.1742971" lon="12.2365305"><ele>281.0</ele><time>2026-03-29T11:45:33.743Z</time></trkpt><trkpt lat="43.1742154" lon="12.2366034"><ele>281.0</ele><time>2026-03-29T11:45:34.743Z</time></trkpt><trkpt lat="43.174114" lon="12.236691"><ele>281.0</ele><time>2026-03-29T11:45:35.743Z</time></trkpt><trkpt lat="43.1740156" lon="12.2367952"><ele>281.0</ele><time>2026-03-29T11:45:36.743Z</time></trkpt><trkpt lat="43.1739041" lon="12.2369019"><ele>281.0</ele><time>2026-03-29T11:45:37.743Z</time></trkpt><trkpt lat="43.1737916" lon="12.236997"><ele>280.40000000000003</ele><time>2026-03-29T11:45:38.743Z</time></trkpt><trkpt lat="43.1736861" lon="12.2370808"><ele>279.8</ele><time>2026-03-29T11:45:39.743Z</time></trkpt><trkpt lat="43.1736184" lon="12.2371454"><ele>279.20000000000005</ele><time>2026-03-29T11:45:40.743Z</time></trkpt><trkpt lat="43.1735742" lon="12.237208"><ele>278.6</ele><time>2026-03-29T11:45:41.743Z</time></trkpt><trkpt lat="43.1735573" lon="12.2373916"><ele>278.0</ele><time>2026-03-29T11:45:43.743Z</time></trkpt><trkpt lat="43.1735843" lon="12.2374898"><ele>277.75</ele><time>2026-03-29T11:45:44.742Z</time></trkpt><trkpt lat="43.1735599" lon="12.2376415"><ele>277.5</ele><time>2026-03-29T11:45:46.743Z</time></trkpt><trkpt lat="43.1734361" lon="12.2377641"><ele>277.25</ele><time>2026-03-29T11:45:48.743Z</time></trkpt><trkpt lat="43.173319" lon="12.2378232"><ele>277.0</ele><time>2026-03-29T11:45:49.743Z</time></trkpt><trkpt lat="43.1731912" lon="12.2378779"><ele>276.5</ele><time>2026-03-29T11:45:50.743Z</time></trkpt><trkpt lat="43.1730718" lon="12.2379263"><ele>276.0</ele><time>2026-03-29T11:45:51.743Z</time></trkpt><trkpt lat="43.17296" lon="12.2379711"><ele>275.5</ele><time>2026-03-29T11:45:52.743Z</time></trkpt><trkpt lat="43.1728849" lon="12.2380697"><ele>275.0</ele><time>2026-03-29T11:45:53.743Z</time></trkpt><trkpt lat="43.1728036" lon="12.2381899"><ele>276.25</ele><time>2026-03-29T11:45:54.743Z</time></trkpt><trkpt lat="43.172715" lon="12.2383219"><ele>277.5</ele><time>2026-03-29T11:45:55.743Z</time></trkpt><trkpt lat="43.1726265" lon="12.2384638"><ele>278.75</ele><time>2026-03-29T11:45:56.743Z</time></trkpt><trkpt lat="43.172534" lon="12.238579"><ele>280.0</ele><time>2026-03-29T11:45:57.742Z</time></trkpt><trkpt lat="43.1724617" lon="12.2386788"><ele>280.0</ele><time>2026-03-29T11:45:58.743Z</time></trkpt><trkpt lat="43.1723892" lon="12.2387842"><ele>280.0</ele><time>2026-03-29T11:45:59.743Z</time></trkpt><trkpt lat="43.1723819" lon="12.2388941"><ele>280.0</ele><time>2026-03-29T11:46:00.743Z</time></trkpt><trkpt lat="43.1723445" lon="12.2390041"><ele>280.0</ele><time>2026-03-29T11:46:01.743Z</time></trkpt><trkpt lat="43.172322" lon="12.2390942"><ele>280.0</ele><time>2026-03-29T11:46:02.742Z</time></trkpt><trkpt lat="43.1722748" lon="12.2392047"><ele>280.0</ele><time>2026-03-29T11:46:03.743Z</time></trkpt><trkpt lat="43.1721904" lon="12.2393462"><ele>281.66666666666663</ele><time>2026-03-29T11:46:04.743Z</time></trkpt><trkpt lat="43.172126" lon="12.2394577"><ele>283.3333333333333</ele><time>2026-03-29T11:46:05.743Z</time></trkpt><trkpt lat="43.1720687" lon="12.2395083"><ele>285.0</ele><time>2026-03-29T11:46:06.743Z</time></trkpt><trkpt lat="43.1720318" lon="12.2395966"><ele>286.6666666666667</ele><time>2026-03-29T11:46:07.743Z</time></trkpt><trkpt lat="43.1719839" lon="12.2396901"><ele>288.33333333333337</ele><time>2026-03-29T11:46:08.743Z</time></trkpt><trkpt lat="43.1719229" lon="12.2397741"><ele>290.0</ele><time>2026-03-29T11:46:09.742Z</time></trkpt><trkpt lat="43.1718413" lon="12.2398694"><ele>290.8</ele><time>2026-03-29T11:46:10.743Z</time></trkpt><trkpt lat="43.1717471" lon="12.2399598"><ele>291.6</ele><time>2026-03-29T11:46:11.743Z</time></trkpt><trkpt lat="43.1716512" lon="12.2400486"><ele>292.4</ele><time>2026-03-29T11:46:12.743Z</time></trkpt><trkpt lat="43.1715838" lon="12.2401307"><ele>293.2</ele><time>2026-03-29T11:46:13.742Z</time></trkpt><trkpt lat="43.1715424" lon="12.2402313"><ele>294.0</ele><time>2026-03-29T11:46:14.743Z</time></trkpt><trkpt lat="43.1715335" lon="12.2403214"><ele>294.0</ele><time>2026-03-29T11:46:15.743Z</time></trkpt><trkpt lat="43.1715415" lon="12.2404191"><ele>294.0</ele><time>2026-03-29T11:46:16.742Z</time></trkpt><trkpt lat="43.1715971" lon="12.2405238"><ele>294.0</ele><time>2026-03-29T11:46:17.742Z</time></trkpt><trkpt lat="43.1716628" lon="12.2406575"><ele>294.0</ele><time>2026-03-29T11:46:18.743Z</time></trkpt><trkpt lat="43.1717476" lon="12.2408051"><ele>294.0</ele><time>2026-03-29T11:46:19.743Z</time></trkpt><trkpt lat="43.1718341" lon="12.2409568"><ele>297.0</ele><time>2026-03-29T11:46:20.743Z</time></trkpt><trkpt lat="43.1719263" lon="12.2411193"><ele>300.0</ele><time>2026-03-29T11:46:21.743Z</time></trkpt><trkpt lat="43.1720254" lon="12.241275"><ele>303.0</ele><time>2026-03-29T11:46:22.743Z</time></trkpt><trkpt lat="43.172098" lon="12.2413913"><ele>306.0</ele><time>2026-03-29T11:46:23.742Z</time></trkpt><trkpt lat="43.1721505" lon="12.2415056"><ele>308.6</ele><time>2026-03-29T11:46:24.743Z</time></trkpt><trkpt lat="43.1721643" lon="12.241638"><ele>311.20000000000005</ele><time>2026-03-29T11:46:25.743Z</time></trkpt><trkpt lat="43.172148" lon="12.241784"><ele>313.79999999999995</ele><time>2026-03-29T11:46:26.743Z</time></trkpt><trkpt lat="43.1721171" lon="12.2419245"><ele>316.4</ele><time>2026-03-29T11:46:27.743Z</time></trkpt><trkpt lat="43.1720962" lon="12.2420824"><ele>319.0</ele><time>2026-03-29T11:46:28.743Z</time></trkpt><trkpt lat="43.1720854" lon="12.2422275"><ele>322.0</ele><time>2026-03-29T11:46:29.743Z</time></trkpt><trkpt lat="43.1720659" lon="12.242358"><ele>325.0</ele><time>2026-03-29T11:46:30.743Z</time></trkpt><trkpt lat="43.1720522" lon="12.2424937"><ele>328.0</ele><time>2026-03-29T11:46:31.743Z</time></trkpt><trkpt lat="43.1720057" lon="12.2425864"><ele>331.0</ele><time>2026-03-29T11:46:32.743Z</time></trkpt><trkpt lat="43.1719628" lon="12.2426694"><ele>334.0</ele><time>2026-03-29T11:46:33.743Z</time></trkpt><trkpt lat="43.1718872" lon="12.2427886"><ele>334.0</ele><time>2026-03-29T11:46:35.742Z</time></trkpt><trkpt lat="43.1718284" lon="12.2429293"><ele>334.0</ele><time>2026-03-29T11:46:37.743Z</time></trkpt><trkpt lat="43.171829" lon="12.243058"><ele>334.0</ele><time>2026-03-29T11:46:38.743Z</time></trkpt><trkpt lat="43.1718444" lon="12.243179"><ele>334.0</ele><time>2026-03-29T11:46:39.742Z</time></trkpt><trkpt lat="43.1718676" lon="12.2433108"><ele>334.0</ele><time>2026-03-29T11:46:40.743Z</time></trkpt><trkpt lat="43.1718889" lon="12.243445"><ele>336.16666666666663</ele><time>2026-03-29T11:46:41.743Z</time></trkpt><trkpt lat="43.1719068" lon="12.2435694"><ele>338.3333333333333</ele><time>2026-03-29T11:46:42.743Z</time></trkpt><trkpt lat="43.1719263" lon="12.2436728"><ele>340.5</ele><time>2026-03-29T11:46:43.743Z</time></trkpt><trkpt lat="43.1719709" lon="12.2437679"><ele>342.6666666666667</ele><time>2026-03-29T11:46:44.743Z</time></trkpt><trkpt lat="43.1720375" lon="12.2438219"><ele>344.83333333333337</ele><time>2026-03-29T11:46:45.743Z</time></trkpt><trkpt lat="43.1721151" lon="12.2438852"><ele>347.0</ele><time>2026-03-29T11:46:46.743Z</time></trkpt><trkpt lat="43.1722212" lon="12.2439631"><ele>349.0</ele><time>2026-03-29T11:46:48.743Z</time></trkpt><trkpt lat="43.1722964" lon="12.2440439"><ele>351.0</ele><time>2026-03-29T11:46:50.743Z</time></trkpt><trkpt lat="43.1723457" lon="12.2441525"><ele>353.0</ele><time>2026-03-29T11:46:52.743Z</time></trkpt><trkpt lat="43.1723293" lon="12.2442872"><ele>355.0</ele><time>2026-03-29T11:46:54.743Z</time></trkpt><trkpt lat="43.1723159" lon="12.244395"><ele>357.0</ele><time>2026-03-29T11:46:56.743Z</time></trkpt><trkpt lat="43.1722656" lon="12.2444472"><ele>359.0</ele><time>2026-03-29T11:46:58.743Z</time></trkpt><trkpt lat="43.1722082" lon="12.2445224"><ele>359.0</ele><time>2026-03-29T11:47:01.743Z</time></trkpt><trkpt lat="43.1721622" lon="12.2446255"><ele>359.0</ele><time>2026-03-29T11:47:04.743Z</time></trkpt><trkpt lat="43.172147" lon="12.2447409"><ele>359.0</ele><time>2026-03-29T11:47:07.743Z</time></trkpt><trkpt lat="43.1721263" lon="12.244855"><ele>359.0</ele><time>2026-03-29T11:47:09.742Z</time></trkpt><trkpt lat="43.1721109" lon="12.2449424"><ele>359.0</ele><time>2026-03-29T11:47:10.743Z</time></trkpt><trkpt lat="43.1721087" lon="12.2450308"><ele>359.0</ele><time>2026-03-29T11:47:11.743Z</time></trkpt><trkpt lat="43.1721009" lon="12.245122"><ele>362.2</ele><time>2026-03-29T11:47:12.743Z</time></trkpt><trkpt lat="43.1721552" lon="12.2451841"><ele>365.4</ele><time>2026-03-29T11:47:14.743Z</time></trkpt><trkpt lat="43.1722334" lon="12.2452602"><ele>368.6</ele><time>2026-03-29T11:47:23.742Z</time></trkpt><trkpt lat="43.1722788" lon="12.2453958"><ele>371.8</ele><time>2026-03-29T11:47:25.743Z</time></trkpt><trkpt lat="43.1722296" lon="12.2455647"><ele>375.0</ele><time>2026-03-29T11:47:27.743Z</time></trkpt><trkpt lat="43.1721884" lon="12.2456496"><ele>378.2</ele><time>2026-03-29T11:47:28.743Z</time></trkpt><trkpt lat="43.172176" lon="12.2457995"><ele>381.4</ele><time>2026-03-29T11:47:29.743Z</time></trkpt><trkpt lat="43.1721752" lon="12.2459214"><ele>384.6</ele><time>2026-03-29T11:47:30.743Z</time></trkpt><trkpt lat="43.1721717" lon="12.246028"><ele>387.8</ele><time>2026-03-29T11:47:31.742Z</time></trkpt><trkpt lat="43.1721628" lon="12.2461298"><ele>391.0</ele><time>2026-03-29T11:47:32.743Z</time></trkpt><trkpt lat="43.1722603" lon="12.2462464"><ele>386.6666666666667</ele><time>2026-03-29T11:47:34.742Z</time></trkpt><trkpt lat="43.1723604" lon="12.2463232"><ele>382.33333333333337</ele><time>2026-03-29T11:47:35.743Z</time></trkpt><trkpt lat="43.172526" lon="12.2463185"><ele>378.0</ele><time>2026-03-29T11:47:36.743Z</time></trkpt><trkpt lat="43.172706" lon="12.2463723"><ele>378.0</ele><time>2026-03-29T11:47:37.742Z</time></trkpt><trkpt lat="43.1728207" lon="12.2464178"><ele>378.0</ele><time>2026-03-29T11:47:38.743Z</time></trkpt><trkpt lat="43.1728725" lon="12.2464836"><ele>378.0</ele><time>2026-03-29T11:47:39.743Z</time></trkpt><trkpt lat="43.1729525" lon="12.2465483"><ele>378.0</ele><time>2026-03-29T11:47:40.743Z</time></trkpt><trkpt lat="43.1730176" lon="12.2466089"><ele>378.0</ele><time>2026-03-29T11:47:41.743Z</time></trkpt><trkpt lat="43.1730177" lon="12.2467266"><ele>378.0</ele><time>2026-03-29T11:47:42.742Z</time></trkpt><trkpt lat="43.1729869" lon="12.2468908"><ele>380.59999999999997</ele><time>2026-03-29T11:47:43.743Z</time></trkpt><trkpt lat="43.1729907" lon="12.2470219"><ele>383.2</ele><time>2026-03-29T11:47:44.743Z</time></trkpt><trkpt lat="43.1729601" lon="12.2471475"><ele>385.8</ele><time>2026-03-29T11:47:45.743Z</time></trkpt><trkpt lat="43.1729184" lon="12.2472627"><ele>388.4</ele><time>2026-03-29T11:47:46.743Z</time></trkpt><trkpt lat="43.1728723" lon="12.2473426"><ele>391.0</ele><time>2026-03-29T11:47:47.743Z</time></trkpt><trkpt lat="43.1728229" lon="12.2474577"><ele>392.6</ele><time>2026-03-29T11:47:48.743Z</time></trkpt><trkpt lat="43.17273" lon="12.2473695"><ele>394.20000000000005</ele><time>2026-03-29T11:47:50.743Z</time></trkpt><trkpt lat="43.1726562" lon="12.2473491"><ele>395.79999999999995</ele><time>2026-03-29T11:47:52.743Z</time></trkpt><trkpt lat="43.1725693" lon="12.2473804"><ele>397.4</ele><time>2026-03-29T11:47:54.742Z</time></trkpt><trkpt lat="43.1724777" lon="12.2474135"><ele>399.0</ele><time>2026-03-29T11:47:56.743Z</time></trkpt><trkpt lat="43.1723932" lon="12.2474988"><ele>401.1666666666667</ele><time>2026-03-29T11:47:58.743Z</time></trkpt><trkpt lat="43.1723283" lon="12.2475507"><ele>403.33333333333337</ele><time>2026-03-29T11:47:59.743Z</time></trkpt><trkpt lat="43.1722445" lon="12.2476"><ele>405.5</ele><time>2026-03-29T11:48:00.743Z</time></trkpt><trkpt lat="43.1721747" lon="12.247656"><ele>407.6666666666667</ele><time>2026-03-29T11:48:01.742Z</time></trkpt><trkpt lat="43.1721208" lon="12.2477323"><ele>409.83333333333337</ele><time>2026-03-29T11:48:02.743Z</time></trkpt><trkpt lat="43.172079" lon="12.2478162"><ele>412.0</ele><time>2026-03-29T11:48:03.743Z</time></trkpt><trkpt lat="43.172029" lon="12.2479268"><ele>411.99999999999994</ele><time>2026-03-29T11:48:05.743Z</time></trkpt><trkpt lat="43.1719594" lon="12.247904"><ele>412.0</ele><time>2026-03-29T11:48:39.743Z</time></trkpt><trkpt lat="43.1719926" lon="12.2479838"><ele>412.0</ele><time>2026-03-29T11:48:45.743Z</time></trkpt><trkpt lat="43.1720541" lon="12.2479528"><ele>412.0</ele><time>2026-03-29T11:48:47.743Z</time></trkpt><trkpt lat="43.1720884" lon="12.2478475"><ele>412.0</ele><time>2026-03-29T11:48:48.743Z</time></trkpt><trkpt lat="43.1721147" lon="12.2477687"><ele>411.99999999999994</ele><time>2026-03-29T11:48:49.743Z</time></trkpt><trkpt lat="43.1721792" lon="12.2476916"><ele>412.0</ele><time>2026-03-29T11:48:51.743Z</time></trkpt><trkpt lat="43.1722412" lon="12.2476526"><ele>411.99999999999994</ele><time>2026-03-29T11:48:53.743Z</time></trkpt><trkpt lat="43.1723042" lon="12.2476006"><ele>412.0</ele><time>2026-03-29T11:48:56.743Z</time></trkpt><trkpt lat="43.1723644" lon="12.2475312"><ele>412.0</ele><time>2026-03-29T11:48:59.743Z</time></trkpt><trkpt lat="43.1724162" lon="12.247458"><ele>412.0</ele><time>2026-03-29T11:49:02.743Z</time></trkpt><trkpt lat="43.1724748" lon="12.2473844"><ele>412.0</ele><time>2026-03-29T11:49:05.743Z</time></trkpt><trkpt lat="43.1725369" lon="12.2473405"><ele>411.99999999999994</ele><time>2026-03-29T11:49:10.743Z</time></trkpt><trkpt lat="43.1724737" lon="12.247323"><ele>412.0</ele><time>2026-03-29T11:50:34.743Z</time></trkpt><trkpt lat="43.1723952" lon="12.2474172"><ele>412.00000000000006</ele><time>2026-03-29T11:52:21.743Z</time></trkpt><trkpt lat="43.1723165" lon="12.2475429"><ele>412.0</ele><time>2026-03-29T11:52:23.743Z</time></trkpt><trkpt lat="43.172259" lon="12.2475951"><ele>412.0</ele><time>2026-03-29T11:52:24.743Z</time></trkpt><trkpt lat="43.1721999" lon="12.2476354"><ele>412.0</ele><time>2026-03-29T11:52:25.743Z</time></trkpt><trkpt lat="43.1721364" lon="12.2477023"><ele>412.00000000000006</ele><time>2026-03-29T11:52:27.743Z</time></trkpt><trkpt lat="43.1720902" lon="12.2478013"><ele>412.0</ele><time>2026-03-29T11:52:45.743Z</time></trkpt><trkpt lat="43.1720541" lon="12.247883"><ele>412.0</ele><time>2026-03-29T11:52:47.743Z</time></trkpt><trkpt lat="43.1720325" lon="12.2479694"><ele>412.0</ele><time>2026-03-29T11:52:49.743Z</time></trkpt><trkpt lat="43.171997" lon="12.2480614"><ele>412.0</ele><time>2026-03-29T11:52:51.743Z</time></trkpt><trkpt lat="43.1719211" lon="12.2481492"><ele>412.0</ele><time>2026-03-29T11:52:53.743Z</time></trkpt><trkpt lat="43.1718495" lon="12.2482461"><ele>412.0</ele><time>2026-03-29T11:52:55.743Z</time></trkpt><trkpt lat="43.1717708" lon="12.2483808"><ele>411.85714285714283</ele><time>2026-03-29T11:52:57.743Z</time></trkpt><trkpt lat="43.1717333" lon="12.2484505"><ele>411.7142857142857</ele><time>2026-03-29T11:52:58.743Z</time></trkpt><trkpt lat="43.1716939" lon="12.2485195"><ele>411.57142857142856</ele><time>2026-03-29T11:52:59.743Z</time></trkpt><trkpt lat="43.1716507" lon="12.2486192"><ele>411.42857142857144</ele><time>2026-03-29T11:53:00.743Z</time></trkpt><trkpt lat="43.1716284" lon="12.248702"><ele>411.2857142857143</ele><time>2026-03-29T11:53:01.743Z</time></trkpt><trkpt lat="43.171617" lon="12.2487884"><ele>411.1428571428571</ele><time>2026-03-29T11:53:02.743Z</time></trkpt><trkpt lat="43.1716393" lon="12.2489229"><ele>411.0</ele><time>2026-03-29T11:53:04.743Z</time></trkpt><trkpt lat="43.1717325" lon="12.2489665"><ele>412.6666666666667</ele><time>2026-03-29T11:53:05.743Z</time></trkpt><trkpt lat="43.1717885" lon="12.2490108"><ele>414.33333333333337</ele><time>2026-03-29T11:53:06.743Z</time></trkpt><trkpt lat="43.1718962" lon="12.2490664"><ele>416.0</ele><time>2026-03-29T11:53:07.743Z</time></trkpt><trkpt lat="43.1719738" lon="12.2490901"><ele>417.6666666666667</ele><time>2026-03-29T11:53:08.743Z</time></trkpt><trkpt lat="43.1720379" lon="12.2491309"><ele>419.33333333333337</ele><time>2026-03-29T11:53:09.743Z</time></trkpt><trkpt lat="43.1720964" lon="12.2492149"><ele>421.0</ele><time>2026-03-29T11:53:11.743Z</time></trkpt><trkpt lat="43.1721678" lon="12.2492919"><ele>421.0</ele><time>2026-03-29T11:53:13.743Z</time></trkpt><trkpt lat="43.1722337" lon="12.2493845"><ele>421.0</ele><time>2026-03-29T11:53:15.743Z</time></trkpt><trkpt lat="43.172278" lon="12.2495278"><ele>421.0</ele><time>2026-03-29T11:53:17.743Z</time></trkpt><trkpt lat="43.1723054" lon="12.2496156"><ele>421.0</ele><time>2026-03-29T11:53:18.743Z</time></trkpt><trkpt lat="43.172363" lon="12.2497695"><ele>421.0</ele><time>2026-03-29T11:53:20.743Z</time></trkpt><trkpt lat="43.1723944" lon="12.2498749"><ele>419.8571428571429</ele><time>2026-03-29T11:53:21.743Z</time></trkpt><trkpt lat="43.1724058" lon="12.2499713"><ele>418.7142857142857</ele><time>2026-03-29T11:53:22.743Z</time></trkpt><trkpt lat="43.1723823" lon="12.2500747"><ele>417.57142857142856</ele><time>2026-03-29T11:53:23.743Z</time></trkpt><trkpt lat="43.1723704" lon="12.2501612"><ele>416.42857142857144</ele><time>2026-03-29T11:53:24.743Z</time></trkpt><trkpt lat="43.1723435" lon="12.2502477"><ele>415.2857142857143</ele><time>2026-03-29T11:53:25.743Z</time></trkpt><trkpt lat="43.172312" lon="12.2503272"><ele>414.14285714285717</ele><time>2026-03-29T11:53:26.743Z</time></trkpt><trkpt lat="43.1722563" lon="12.250398"><ele>413.0</ele><time>2026-03-29T11:53:27.743Z</time></trkpt><trkpt lat="43.1721895" lon="12.2504467"><ele>417.0</ele><time>2026-03-29T11:53:28.742Z</time></trkpt><trkpt lat="43.1720545" lon="12.2504933"><ele>421.0</ele><time>2026-03-29T11:53:30.743Z</time></trkpt><trkpt lat="43.1719612" lon="12.2504823"><ele>424.99999999999994</ele><time>2026-03-29T11:53:33.743Z</time></trkpt><trkpt lat="43.171898" lon="12.2504897"><ele>429.0</ele><time>2026-03-29T11:53:34.742Z</time></trkpt><trkpt lat="43.1718153" lon="12.2504954"><ele>433.0</ele><time>2026-03-29T11:53:35.743Z</time></trkpt><trkpt lat="43.1717399" lon="12.2505208"><ele>433.00000000000006</ele><time>2026-03-29T11:53:36.743Z</time></trkpt><trkpt lat="43.1716696" lon="12.2505807"><ele>433.0</ele><time>2026-03-29T11:53:37.743Z</time></trkpt><trkpt lat="43.1716396" lon="12.2506626"><ele>433.0</ele><time>2026-03-29T11:53:38.743Z</time></trkpt><trkpt lat="43.1715865" lon="12.2507516"><ele>433.0</ele><time>2026-03-29T11:53:39.743Z</time></trkpt><trkpt lat="43.1715663" lon="12.2508533"><ele>433.00000000000006</ele><time>2026-03-29T11:53:40.743Z</time></trkpt><trkpt lat="43.1715671" lon="12.2509883"><ele>433.0</ele><time>2026-03-29T11:53:41.743Z</time></trkpt><trkpt lat="43.1715547" lon="12.2511202"><ele>431.83333333333337</ele><time>2026-03-29T11:53:42.742Z</time></trkpt><trkpt lat="43.1715637" lon="12.2512296"><ele>430.6666666666667</ele><time>2026-03-29T11:53:43.743Z</time></trkpt><trkpt lat="43.1715698" lon="12.2513314"><ele>429.5</ele><time>2026-03-29T11:53:44.743Z</time></trkpt><trkpt lat="43.1715588" lon="12.2514835"><ele>428.33333333333337</ele><time>2026-03-29T11:53:46.743Z</time></trkpt><trkpt lat="43.17153" lon="12.2515639"><ele>427.1666666666667</ele><time>2026-03-29T11:53:47.743Z</time></trkpt><trkpt lat="43.1714787" lon="12.2517029"><ele>426.0</ele><time>2026-03-29T11:53:49.743Z</time></trkpt><trkpt lat="43.1714173" lon="12.2517453"><ele>429.8333333333333</ele><time>2026-03-29T11:53:50.743Z</time></trkpt><trkpt lat="43.1713561" lon="12.2518015"><ele>433.66666666666663</ele><time>2026-03-29T11:53:51.743Z</time></trkpt><trkpt lat="43.1712842" lon="12.2518729"><ele>437.5</ele><time>2026-03-29T11:53:52.743Z</time></trkpt><trkpt lat="43.1712229" lon="12.2519439"><ele>441.3333333333333</ele><time>2026-03-29T11:53:53.743Z</time></trkpt><trkpt lat="43.1711714" lon="12.2520504"><ele>445.16666666666663</ele><time>2026-03-29T11:53:54.743Z</time></trkpt><trkpt lat="43.171171" lon="12.2521672"><ele>449.0</ele><time>2026-03-29T11:53:55.743Z</time></trkpt><trkpt lat="43.1711456" lon="12.252252"><ele>447.4</ele><time>2026-03-29T11:53:56.743Z</time></trkpt><trkpt lat="43.1711044" lon="12.2523608"><ele>445.79999999999995</ele><time>2026-03-29T11:53:58.743Z</time></trkpt><trkpt lat="43.1710504" lon="12.2524271"><ele>444.20000000000005</ele><time>2026-03-29T11:53:59.743Z</time></trkpt><trkpt lat="43.1709" lon="12.2525219"><ele>442.6</ele><time>2026-03-29T11:54:01.742Z</time></trkpt><trkpt lat="43.1708295" lon="12.2525427"><ele>441.0</ele><time>2026-03-29T11:54:02.743Z</time></trkpt><trkpt lat="43.1707454" lon="12.2525669"><ele>439.5</ele><time>2026-03-29T11:54:03.742Z</time></trkpt><trkpt lat="43.1706724" lon="12.2526098"><ele>438.0</ele><time>2026-03-29T11:54:04.743Z</time></trkpt><trkpt lat="43.1706128" lon="12.2526441"><ele>436.5</ele><time>2026-03-29T11:54:05.743Z</time></trkpt><trkpt lat="43.1705501" lon="12.252655"><ele>435.0</ele><time>2026-03-29T11:54:06.743Z</time></trkpt><trkpt lat="43.1704736" lon="12.2525819"><ele>433.5</ele><time>2026-03-29T11:54:08.743Z</time></trkpt><trkpt lat="43.1705273" lon="12.2524831"><ele>432.0</ele><time>2026-03-29T11:54:09.743Z</time></trkpt><trkpt lat="43.1705087" lon="12.2523169"><ele>434.0</ele><time>2026-03-29T11:54:11.743Z</time></trkpt><trkpt lat="43.1704937" lon="12.2521837"><ele>436.00000000000006</ele><time>2026-03-29T11:54:12.743Z</time></trkpt><trkpt lat="43.1704765" lon="12.2520407"><ele>438.00000000000006</ele><time>2026-03-29T11:54:13.743Z</time></trkpt><trkpt lat="43.1704588" lon="12.251887"><ele>440.0</ele><time>2026-03-29T11:54:14.743Z</time></trkpt><trkpt lat="43.1704218" lon="12.2517392"><ele>442.0</ele><time>2026-03-29T11:54:15.743Z</time></trkpt><trkpt lat="43.1703812" lon="12.2515985"><ele>442.0</ele><time>2026-03-29T11:54:16.743Z</time></trkpt><trkpt lat="43.1702684" lon="12.2515158"><ele>442.0</ele><time>2026-03-29T11:54:17.743Z</time></trkpt><trkpt lat="43.170166" lon="12.2514371"><ele>442.0</ele><time>2026-03-29T11:54:18.743Z</time></trkpt><trkpt lat="43.1700494" lon="12.2513437"><ele>442.0</ele><time>2026-03-29T11:54:19.743Z</time></trkpt><trkpt lat="43.1699437" lon="12.2512818"><ele>444.0</ele><time>2026-03-29T11:54:20.743Z</time></trkpt><trkpt lat="43.1698417" lon="12.2512153"><ele>446.00000000000006</ele><time>2026-03-29T11:54:21.743Z</time></trkpt><trkpt lat="43.1697523" lon="12.2511271"><ele>448.00000000000006</ele><time>2026-03-29T11:54:22.743Z</time></trkpt><trkpt lat="43.1696677" lon="12.2510395"><ele>450.0</ele><time>2026-03-29T11:54:23.743Z</time></trkpt><trkpt lat="43.1695952" lon="12.250942"><ele>452.0</ele><time>2026-03-29T11:54:24.743Z</time></trkpt><trkpt lat="43.1695263" lon="12.2508329"><ele>452.0</ele><time>2026-03-29T11:54:25.743Z</time></trkpt><trkpt lat="43.1694629" lon="12.2507108"><ele>452.00000000000006</ele><time>2026-03-29T11:54:26.743Z</time></trkpt><trkpt lat="43.169397" lon="12.2505927"><ele>452.00000000000006</ele><time>2026-03-29T11:54:27.743Z</time></trkpt><trkpt lat="43.1693238" lon="12.2504844"><ele>452.0</ele><time>2026-03-29T11:54:28.743Z</time></trkpt><trkpt lat="43.1692542" lon="12.2503845"><ele>452.0</ele><time>2026-03-29T11:54:29.743Z</time></trkpt><trkpt lat="43.1691482" lon="12.2503044"><ele>454.20000000000005</ele><time>2026-03-29T11:54:30.743Z</time></trkpt><trkpt lat="43.1690735" lon="12.2502067"><ele>456.40000000000003</ele><time>2026-03-29T11:54:31.743Z</time></trkpt><trkpt lat="43.1690138" lon="12.2500997"><ele>458.59999999999997</ele><time>2026-03-29T11:54:32.743Z</time></trkpt><trkpt lat="43.1689542" lon="12.2499967"><ele>460.79999999999995</ele><time>2026-03-29T11:54:33.743Z</time></trkpt><trkpt lat="43.1689522" lon="12.2499099"><ele>463.0</ele><time>2026-03-29T11:54:34.743Z</time></trkpt><trkpt lat="43.1688824" lon="12.2497937"><ele>462.79999999999995</ele><time>2026-03-29T11:54:36.743Z</time></trkpt><trkpt lat="43.1688301" lon="12.2497401"><ele>462.59999999999997</ele><time>2026-03-29T11:54:37.743Z</time></trkpt><trkpt lat="43.1687341" lon="12.2495634"><ele>462.40000000000003</ele><time>2026-03-29T11:54:39.742Z</time></trkpt><trkpt lat="43.168668" lon="12.24948"><ele>462.20000000000005</ele><time>2026-03-29T11:54:40.743Z</time></trkpt><trkpt lat="43.1685825" lon="12.2494092"><ele>462.0</ele><time>2026-03-29T11:54:41.742Z</time></trkpt><trkpt lat="43.1684941" lon="12.2493064"><ele>462.0</ele><time>2026-03-29T11:54:42.743Z</time></trkpt><trkpt lat="43.1684034" lon="12.2491937"><ele>462.0</ele><time>2026-03-29T11:54:43.743Z</time></trkpt><trkpt lat="43.1683204" lon="12.2490501"><ele>462.0</ele><time>2026-03-29T11:54:44.743Z</time></trkpt><trkpt lat="43.1682283" lon="12.2488997"><ele>462.0</ele><time>2026-03-29T11:54:45.743Z</time></trkpt><trkpt lat="43.1681264" lon="12.2487474"><ele>462.0</ele><time>2026-03-29T11:54:46.743Z</time></trkpt><trkpt lat="43.1680159" lon="12.2485795"><ele>462.0</ele><time>2026-03-29T11:54:47.743Z</time></trkpt><trkpt lat="43.1679061" lon="12.2484473"><ele>462.0</ele><time>2026-03-29T11:54:48.743Z</time></trkpt><trkpt lat="43.1678007" lon="12.2483149"><ele>462.0</ele><time>2026-03-29T11:54:49.743Z</time></trkpt><trkpt lat="43.1677227" lon="12.248204"><ele>462.00000000000006</ele><time>2026-03-29T11:54:50.743Z</time></trkpt><trkpt lat="43.1676461" lon="12.2481225"><ele>462.00000000000006</ele><time>2026-03-29T11:54:51.743Z</time></trkpt><trkpt lat="43.1675613" lon="12.2480848"><ele>462.0</ele><time>2026-03-29T11:54:52.743Z</time></trkpt><trkpt lat="43.1674571" lon="12.2480773"><ele>462.0</ele><time>2026-03-29T11:54:53.743Z</time></trkpt><trkpt lat="43.1673426" lon="12.248094"><ele>459.6</ele><time>2026-03-29T11:54:54.743Z</time></trkpt><trkpt lat="43.1672264" lon="12.2481004"><ele>457.20000000000005</ele><time>2026-03-29T11:54:55.743Z</time></trkpt><trkpt lat="43.1671033" lon="12.248083"><ele>454.8</ele><time>2026-03-29T11:54:56.743Z</time></trkpt><trkpt lat="43.1670036" lon="12.2480634"><ele>452.4</ele><time>2026-03-29T11:54:57.743Z</time></trkpt><trkpt lat="43.1669007" lon="12.2480771"><ele>450.0</ele><time>2026-03-29T11:54:58.743Z</time></trkpt><trkpt lat="43.166794" lon="12.2481088"><ele>451.75</ele><time>2026-03-29T11:54:59.743Z</time></trkpt><trkpt lat="43.1666832" lon="12.2481624"><ele>453.5</ele><time>2026-03-29T11:55:00.743Z</time></trkpt><trkpt lat="43.1665653" lon="12.2482355"><ele>455.25</ele><time>2026-03-29T11:55:01.743Z</time></trkpt><trkpt lat="43.1664588" lon="12.2483103"><ele>457.0</ele><time>2026-03-29T11:55:02.742Z</time></trkpt><trkpt lat="43.1663355" lon="12.2483679"><ele>457.0</ele><time>2026-03-29T11:55:03.743Z</time></trkpt><trkpt lat="43.1662163" lon="12.2484476"><ele>457.0</ele><time>2026-03-29T11:55:04.743Z</time></trkpt><trkpt lat="43.1661118" lon="12.2485447"><ele>457.0</ele><time>2026-03-29T11:55:05.743Z</time></trkpt><trkpt lat="43.166009" lon="12.2486587"><ele>457.0</ele><time>2026-03-29T11:55:06.743Z</time></trkpt><trkpt lat="43.1659179" lon="12.2487835"><ele>457.0</ele><time>2026-03-29T11:55:07.743Z</time></trkpt><trkpt lat="43.1658333" lon="12.2489149"><ele>457.0</ele><time>2026-03-29T11:55:08.742Z</time></trkpt><trkpt lat="43.1657473" lon="12.2490499"><ele>457.0</ele><time>2026-03-29T11:55:09.743Z</time></trkpt><trkpt lat="43.1656664" lon="12.2491866"><ele>457.0</ele><time>2026-03-29T11:55:10.743Z</time></trkpt><trkpt lat="43.1655882" lon="12.2493121"><ele>458.00000000000006</ele><time>2026-03-29T11:55:11.743Z</time></trkpt><trkpt lat="43.1655154" lon="12.2494106"><ele>459.0</ele><time>2026-03-29T11:55:12.743Z</time></trkpt><trkpt lat="43.1654472" lon="12.2494985"><ele>460.0</ele><time>2026-03-29T11:55:13.743Z</time></trkpt><trkpt lat="43.1653969" lon="12.2495691"><ele>461.0</ele><time>2026-03-29T11:55:14.743Z</time></trkpt><trkpt lat="43.1653477" lon="12.2496264"><ele>462.00000000000006</ele><time>2026-03-29T11:55:15.743Z</time></trkpt><trkpt lat="43.1652858" lon="12.2496661"><ele>463.0</ele><time>2026-03-29T11:55:16.743Z</time></trkpt><trkpt lat="43.165201" lon="12.2496932"><ele>463.0</ele><time>2026-03-29T11:55:17.743Z</time></trkpt><trkpt lat="43.1651115" lon="12.2497099"><ele>462.99999999999994</ele><time>2026-03-29T11:55:18.743Z</time></trkpt><trkpt lat="43.1650101" lon="12.249711"><ele>462.99999999999994</ele><time>2026-03-29T11:55:19.743Z</time></trkpt><trkpt lat="43.1648991" lon="12.2497073"><ele>463.0</ele><time>2026-03-29T11:55:20.743Z</time></trkpt><trkpt lat="43.16479" lon="12.2496945"><ele>463.0</ele><time>2026-03-29T11:55:21.743Z</time></trkpt><trkpt lat="43.1646944" lon="12.2496618"><ele>464.1666666666667</ele><time>2026-03-29T11:55:22.743Z</time></trkpt><trkpt lat="43.1645937" lon="12.2496399"><ele>465.33333333333337</ele><time>2026-03-29T11:55:23.743Z</time></trkpt><trkpt lat="43.1645153" lon="12.2496213"><ele>466.5</ele><time>2026-03-29T11:55:24.743Z</time></trkpt><trkpt lat="43.1644476" lon="12.2495794"><ele>467.66666666666663</ele><time>2026-03-29T11:55:25.742Z</time></trkpt><trkpt lat="43.164398" lon="12.2494872"><ele>468.8333333333333</ele><time>2026-03-29T11:55:26.743Z</time></trkpt><trkpt lat="43.1643577" lon="12.2493967"><ele>470.0</ele><time>2026-03-29T11:55:27.743Z</time></trkpt><trkpt lat="43.164299" lon="12.2492882"><ele>469.99999999999994</ele><time>2026-03-29T11:55:28.742Z</time></trkpt><trkpt lat="43.1642458" lon="12.2491974"><ele>470.0</ele><time>2026-03-29T11:55:29.743Z</time></trkpt><trkpt lat="43.1641897" lon="12.2491337"><ele>470.0</ele><time>2026-03-29T11:55:30.743Z</time></trkpt><trkpt lat="43.1641402" lon="12.2490546"><ele>470.0</ele><time>2026-03-29T11:55:31.742Z</time></trkpt><trkpt lat="43.1640694" lon="12.2490137"><ele>469.99999999999994</ele><time>2026-03-29T11:55:32.743Z</time></trkpt><trkpt lat="43.1639894" lon="12.2490082"><ele>470.0</ele><time>2026-03-29T11:55:33.743Z</time></trkpt><trkpt lat="43.1639158" lon="12.2489922"><ele>471.99999999999994</ele><time>2026-03-29T11:55:34.743Z</time></trkpt><trkpt lat="43.1638414" lon="12.2489376"><ele>474.0</ele><time>2026-03-29T11:55:35.743Z</time></trkpt><trkpt lat="43.1637868" lon="12.2488562"><ele>476.0</ele><time>2026-03-29T11:55:36.743Z</time></trkpt><trkpt lat="43.1637402" lon="12.2487457"><ele>478.0</ele><time>2026-03-29T11:55:37.743Z</time></trkpt><trkpt lat="43.1637033" lon="12.2486447"><ele>479.99999999999994</ele><time>2026-03-29T11:55:38.743Z</time></trkpt><trkpt lat="43.1636664" lon="12.2485504"><ele>482.0</ele><time>2026-03-29T11:55:39.743Z</time></trkpt><trkpt lat="43.163635" lon="12.2484478"><ele>481.99999999999994</ele><time>2026-03-29T11:55:40.743Z</time></trkpt><trkpt lat="43.1635944" lon="12.2483557"><ele>482.0</ele><time>2026-03-29T11:55:41.743Z</time></trkpt><trkpt lat="43.1635497" lon="12.2482936"><ele>482.0</ele><time>2026-03-29T11:55:42.743Z</time></trkpt><trkpt lat="43.1634756" lon="12.2482631"><ele>482.0</ele><time>2026-03-29T11:55:43.743Z</time></trkpt><trkpt lat="43.1634032" lon="12.2482572"><ele>481.99999999999994</ele><time>2026-03-29T11:55:44.743Z</time></trkpt><trkpt lat="43.163266" lon="12.2482247"><ele>482.0</ele><time>2026-03-29T11:55:46.743Z</time></trkpt><trkpt lat="43.1631731" lon="12.2482339"><ele>482.8333333333333</ele><time>2026-03-29T11:55:47.742Z</time></trkpt><trkpt lat="43.1630953" lon="12.2482687"><ele>483.66666666666663</ele><time>2026-03-29T11:55:48.743Z</time></trkpt><trkpt lat="43.1630037" lon="12.2483026"><ele>484.5</ele><time>2026-03-29T11:55:49.743Z</time></trkpt><trkpt lat="43.1629376" lon="12.2483915"><ele>485.33333333333337</ele><time>2026-03-29T11:55:50.743Z</time></trkpt><trkpt lat="43.1628849" lon="12.2484988"><ele>486.1666666666667</ele><time>2026-03-29T11:55:51.743Z</time></trkpt><trkpt lat="43.1628192" lon="12.2485622"><ele>487.0</ele><time>2026-03-29T11:55:52.743Z</time></trkpt><trkpt lat="43.1627476" lon="12.2486076"><ele>487.0</ele><time>2026-03-29T11:55:53.743Z</time></trkpt><trkpt lat="43.1626783" lon="12.2486402"><ele>487.00000000000006</ele><time>2026-03-29T11:55:54.743Z</time></trkpt><trkpt lat="43.162593" lon="12.2486106"><ele>487.00000000000006</ele><time>2026-03-29T11:55:55.743Z</time></trkpt><trkpt lat="43.1624974" lon="12.2485598"><ele>487.0</ele><time>2026-03-29T11:55:56.743Z</time></trkpt><trkpt lat="43.1623995" lon="12.2485075"><ele>487.0</ele><time>2026-03-29T11:55:58.743Z</time></trkpt><trkpt lat="43.1623069" lon="12.2484725"><ele>488.20000000000005</ele><time>2026-03-29T11:56:00.743Z</time></trkpt><trkpt lat="43.1622395" lon="12.2484307"><ele>489.40000000000003</ele><time>2026-03-29T11:56:01.743Z</time></trkpt><trkpt lat="43.1621538" lon="12.2483938"><ele>490.59999999999997</ele><time>2026-03-29T11:56:02.743Z</time></trkpt><trkpt lat="43.1620512" lon="12.2483374"><ele>491.79999999999995</ele><time>2026-03-29T11:56:03.743Z</time></trkpt><trkpt lat="43.1619531" lon="12.2482797"><ele>493.0</ele><time>2026-03-29T11:56:04.742Z</time></trkpt><trkpt lat="43.1618605" lon="12.2482111"><ele>493.0</ele><time>2026-03-29T11:56:05.743Z</time></trkpt><trkpt lat="43.1617732" lon="12.2481375"><ele>492.99999999999994</ele><time>2026-03-29T11:56:06.743Z</time></trkpt><trkpt lat="43.1616703" lon="12.2480666"><ele>492.99999999999994</ele><time>2026-03-29T11:56:07.743Z</time></trkpt><trkpt lat="43.1615611" lon="12.2480088"><ele>493.0</ele><time>2026-03-29T11:56:08.743Z</time></trkpt><trkpt lat="43.1614716" lon="12.2479439"><ele>493.0</ele><time>2026-03-29T11:56:09.743Z</time></trkpt><trkpt lat="43.1613657" lon="12.2478768"><ele>493.5</ele><time>2026-03-29T11:56:10.743Z</time></trkpt><trkpt lat="43.1612688" lon="12.2478061"><ele>494.0</ele><time>2026-03-29T11:56:11.743Z</time></trkpt><trkpt lat="43.1611694" lon="12.2477275"><ele>494.5</ele><time>2026-03-29T11:56:12.743Z</time></trkpt><trkpt lat="43.16106" lon="12.2476587"><ele>495.0</ele><time>2026-03-29T11:56:13.743Z</time></trkpt><trkpt lat="43.1609538" lon="12.2476007"><ele>495.0</ele><time>2026-03-29T11:56:14.743Z</time></trkpt><trkpt lat="43.1608727" lon="12.247533"><ele>495.0</ele><time>2026-03-29T11:56:15.743Z</time></trkpt><trkpt lat="43.1608062" lon="12.2474347"><ele>495.0</ele><time>2026-03-29T11:56:16.743Z</time></trkpt><trkpt lat="43.1607494" lon="12.2473162"><ele>495.0</ele><time>2026-03-29T11:56:17.743Z</time></trkpt><trkpt lat="43.1606996" lon="12.2471773"><ele>495.0</ele><time>2026-03-29T11:56:18.743Z</time></trkpt><trkpt lat="43.1606468" lon="12.2470372"><ele>497.8</ele><time>2026-03-29T11:56:19.743Z</time></trkpt><trkpt lat="43.1605949" lon="12.2468965"><ele>500.6</ele><time>2026-03-29T11:56:20.742Z</time></trkpt><trkpt lat="43.16053" lon="12.2467593"><ele>503.4</ele><time>2026-03-29T11:56:21.743Z</time></trkpt><trkpt lat="43.160461" lon="12.246641"><ele>506.2</ele><time>2026-03-29T11:56:22.742Z</time></trkpt><trkpt lat="43.1603947" lon="12.2465301"><ele>509.0</ele><time>2026-03-29T11:56:23.743Z</time></trkpt><trkpt lat="43.1603176" lon="12.2464327"><ele>509.0</ele><time>2026-03-29T11:56:24.742Z</time></trkpt><trkpt lat="43.1602141" lon="12.2463155"><ele>509.0</ele><time>2026-03-29T11:56:25.743Z</time></trkpt><trkpt lat="43.1601249" lon="12.2461987"><ele>509.0</ele><time>2026-03-29T11:56:26.743Z</time></trkpt><trkpt lat="43.1600489" lon="12.2460653"><ele>509.0</ele><time>2026-03-29T11:56:27.743Z</time></trkpt><trkpt lat="43.1599927" lon="12.2459093"><ele>509.0</ele><time>2026-03-29T11:56:28.742Z</time></trkpt><trkpt lat="43.1600149" lon="12.2457826"><ele>509.0</ele><time>2026-03-29T11:56:29.743Z</time></trkpt><trkpt lat="43.1600189" lon="12.2456232"><ele>509.0</ele><time>2026-03-29T11:56:30.743Z</time></trkpt><trkpt lat="43.1600429" lon="12.2454689"><ele>509.0</ele><time>2026-03-29T11:56:31.743Z</time></trkpt><trkpt lat="43.1600749" lon="12.2453097"><ele>509.0</ele><time>2026-03-29T11:56:32.743Z</time></trkpt><trkpt lat="43.1600853" lon="12.2451654"><ele>509.2</ele><time>2026-03-29T11:56:33.743Z</time></trkpt><trkpt lat="43.1600863" lon="12.2450331"><ele>509.4</ele><time>2026-03-29T11:56:34.743Z</time></trkpt><trkpt lat="43.1600796" lon="12.2448996"><ele>509.6</ele><time>2026-03-29T11:56:35.743Z</time></trkpt><trkpt lat="43.1600413" lon="12.2447563"><ele>509.8</ele><time>2026-03-29T11:56:36.743Z</time></trkpt><trkpt lat="43.1599951" lon="12.2446056"><ele>510.0</ele><time>2026-03-29T11:56:37.743Z</time></trkpt><trkpt lat="43.1599479" lon="12.244457"><ele>509.0</ele><time>2026-03-29T11:56:38.743Z</time></trkpt><trkpt lat="43.1598907" lon="12.2443015"><ele>508.0</ele><time>2026-03-29T11:56:39.743Z</time></trkpt><trkpt lat="43.1598424" lon="12.2441403"><ele>507.0</ele><time>2026-03-29T11:56:40.743Z</time></trkpt><trkpt lat="43.1597985" lon="12.2439755"><ele>506.0</ele><time>2026-03-29T11:56:41.743Z</time></trkpt><trkpt lat="43.1597551" lon="12.2438172"><ele>503.6</ele><time>2026-03-29T11:56:42.743Z</time></trkpt><trkpt lat="43.1597182" lon="12.2436684"><ele>501.20000000000005</ele><time>2026-03-29T11:56:43.743Z</time></trkpt><trkpt lat="43.1596818" lon="12.2435277"><ele>498.79999999999995</ele><time>2026-03-29T11:56:44.743Z</time></trkpt><trkpt lat="43.1596347" lon="12.2433965"><ele>496.4</ele><time>2026-03-29T11:56:45.743Z</time></trkpt><trkpt lat="43.1595924" lon="12.2432752"><ele>494.0</ele><time>2026-03-29T11:56:46.743Z</time></trkpt><trkpt lat="43.1595414" lon="12.24315"><ele>491.2</ele><time>2026-03-29T11:56:47.742Z</time></trkpt><trkpt lat="43.1594941" lon="12.2430434"><ele>488.4</ele><time>2026-03-29T11:56:48.743Z</time></trkpt><trkpt lat="43.1594448" lon="12.2429359"><ele>485.6</ele><time>2026-03-29T11:56:49.743Z</time></trkpt><trkpt lat="43.1594027" lon="12.2428259"><ele>482.8</ele><time>2026-03-29T11:56:50.742Z</time></trkpt><trkpt lat="43.1593704" lon="12.2427074"><ele>480.0</ele><time>2026-03-29T11:56:51.743Z</time></trkpt><trkpt lat="43.1593485" lon="12.2425849"><ele>480.0</ele><time>2026-03-29T11:56:52.743Z</time></trkpt><trkpt lat="43.1593265" lon="12.2424642"><ele>480.0</ele><time>2026-03-29T11:56:53.743Z</time></trkpt><trkpt lat="43.1593007" lon="12.2423444"><ele>480.0</ele><time>2026-03-29T11:56:54.743Z</time></trkpt><trkpt lat="43.159263" lon="12.2422213"><ele>480.0</ele><time>2026-03-29T11:56:55.743Z</time></trkpt><trkpt lat="43.1592295" lon="12.2420931"><ele>480.0</ele><time>2026-03-29T11:56:56.743Z</time></trkpt><trkpt lat="43.1591845" lon="12.2419642"><ele>478.4</ele><time>2026-03-29T11:56:57.743Z</time></trkpt><trkpt lat="43.1591436" lon="12.2418439"><ele>476.8</ele><time>2026-03-29T11:56:58.743Z</time></trkpt><trkpt lat="43.1591141" lon="12.2417179"><ele>475.20000000000005</ele><time>2026-03-29T11:56:59.743Z</time></trkpt><trkpt lat="43.1590674" lon="12.2415902"><ele>473.6</ele><time>2026-03-29T11:57:00.743Z</time></trkpt><trkpt lat="43.1590348" lon="12.2414746"><ele>472.0</ele><time>2026-03-29T11:57:01.743Z</time></trkpt><trkpt lat="43.1590063" lon="12.2413673"><ele>470.20000000000005</ele><time>2026-03-29T11:57:02.742Z</time></trkpt><trkpt lat="43.1589933" lon="12.2412729"><ele>468.40000000000003</ele><time>2026-03-29T11:57:03.743Z</time></trkpt><trkpt lat="43.1589883" lon="12.2411787"><ele>466.59999999999997</ele><time>2026-03-29T11:57:04.743Z</time></trkpt><trkpt lat="43.1590483" lon="12.2410334"><ele>464.79999999999995</ele><time>2026-03-29T11:57:06.743Z</time></trkpt><trkpt lat="43.1591223" lon="12.2409615"><ele>463.0</ele><time>2026-03-29T11:57:07.743Z</time></trkpt><trkpt lat="43.159201" lon="12.2408741"><ele>463.00000000000006</ele><time>2026-03-29T11:57:08.743Z</time></trkpt><trkpt lat="43.1592672" lon="12.2407971"><ele>463.0</ele><time>2026-03-29T11:57:09.743Z</time></trkpt><trkpt lat="43.1593343" lon="12.2407319"><ele>463.0</ele><time>2026-03-29T11:57:10.743Z</time></trkpt><trkpt lat="43.1594027" lon="12.2406669"><ele>463.0</ele><time>2026-03-29T11:57:11.743Z</time></trkpt><trkpt lat="43.1594587" lon="12.240602"><ele>463.00000000000006</ele><time>2026-03-29T11:57:12.743Z</time></trkpt><trkpt lat="43.1595102" lon="12.2405374"><ele>463.0</ele><time>2026-03-29T11:57:13.743Z</time></trkpt><trkpt lat="43.1595565" lon="12.2404709"><ele>461.83333333333337</ele><time>2026-03-29T11:57:14.743Z</time></trkpt><trkpt lat="43.1596353" lon="12.2403643"><ele>460.6666666666667</ele><time>2026-03-29T11:57:16.743Z</time></trkpt><trkpt lat="43.159733" lon="12.2403136"><ele>459.5</ele><time>2026-03-29T11:57:18.743Z</time></trkpt><trkpt lat="43.1597958" lon="12.2402967"><ele>458.33333333333337</ele><time>2026-03-29T11:57:19.743Z</time></trkpt><trkpt lat="43.1598639" lon="12.2403019"><ele>457.1666666666667</ele><time>2026-03-29T11:57:20.743Z</time></trkpt><trkpt lat="43.1599386" lon="12.2402802"><ele>456.0</ele><time>2026-03-29T11:57:21.743Z</time></trkpt><trkpt lat="43.1600216" lon="12.2402521"><ele>455.3333333333333</ele><time>2026-03-29T11:57:22.743Z</time></trkpt><trkpt lat="43.1601035" lon="12.2402418"><ele>454.66666666666663</ele><time>2026-03-29T11:57:23.743Z</time></trkpt><trkpt lat="43.1601758" lon="12.2402505"><ele>454.0</ele><time>2026-03-29T11:57:24.743Z</time></trkpt><trkpt lat="43.1602529" lon="12.2402624"><ele>453.3333333333333</ele><time>2026-03-29T11:57:25.743Z</time></trkpt><trkpt lat="43.1603383" lon="12.2402429"><ele>452.66666666666663</ele><time>2026-03-29T11:57:26.743Z</time></trkpt><trkpt lat="43.1604334" lon="12.2402252"><ele>452.0</ele><time>2026-03-29T11:57:27.743Z</time></trkpt><trkpt lat="43.160539" lon="12.2402074"><ele>452.0</ele><time>2026-03-29T11:57:28.743Z</time></trkpt><trkpt lat="43.1606347" lon="12.2402053"><ele>452.00000000000006</ele><time>2026-03-29T11:57:29.743Z</time></trkpt><trkpt lat="43.1607208" lon="12.2402048"><ele>452.00000000000006</ele><time>2026-03-29T11:57:30.743Z</time></trkpt><trkpt lat="43.1608056" lon="12.2402244"><ele>452.0</ele><time>2026-03-29T11:57:31.743Z</time></trkpt><trkpt lat="43.1608927" lon="12.2402703"><ele>452.0</ele><time>2026-03-29T11:57:32.743Z</time></trkpt><trkpt lat="43.1609782" lon="12.2403188"><ele>449.16666666666663</ele><time>2026-03-29T11:57:33.743Z</time></trkpt><trkpt lat="43.1610569" lon="12.2403451"><ele>446.3333333333333</ele><time>2026-03-29T11:57:34.743Z</time></trkpt><trkpt lat="43.161128" lon="12.2403789"><ele>443.5</ele><time>2026-03-29T11:57:35.743Z</time></trkpt><trkpt lat="43.1612054" lon="12.2403864"><ele>440.66666666666663</ele><time>2026-03-29T11:57:36.743Z</time></trkpt><trkpt lat="43.1612781" lon="12.2404341"><ele>437.8333333333333</ele><time>2026-03-29T11:57:37.743Z</time></trkpt><trkpt lat="43.1613611" lon="12.2404876"><ele>435.0</ele><time>2026-03-29T11:57:38.743Z</time></trkpt><trkpt lat="43.1614547" lon="12.2405498"><ele>435.6</ele><time>2026-03-29T11:57:39.743Z</time></trkpt><trkpt lat="43.1615557" lon="12.2406054"><ele>436.2</ele><time>2026-03-29T11:57:40.743Z</time></trkpt><trkpt lat="43.1616459" lon="12.2406392"><ele>436.79999999999995</ele><time>2026-03-29T11:57:41.743Z</time></trkpt><trkpt lat="43.1617431" lon="12.2406656"><ele>437.4</ele><time>2026-03-29T11:57:42.743Z</time></trkpt><trkpt lat="43.1618338" lon="12.2406682"><ele>438.0</ele><time>2026-03-29T11:57:43.743Z</time></trkpt><trkpt lat="43.1619288" lon="12.2406422"><ele>435.0</ele><time>2026-03-29T11:57:44.742Z</time></trkpt><trkpt lat="43.1620281" lon="12.2406133"><ele>431.99999999999994</ele><time>2026-03-29T11:57:45.743Z</time></trkpt><trkpt lat="43.1621196" lon="12.240563"><ele>429.0</ele><time>2026-03-29T11:57:46.742Z</time></trkpt><trkpt lat="43.162198" lon="12.240493"><ele>426.0</ele><time>2026-03-29T11:57:47.743Z</time></trkpt><trkpt lat="43.1622812" lon="12.2404054"><ele>423.0</ele><time>2026-03-29T11:57:48.743Z</time></trkpt><trkpt lat="43.1623673" lon="12.2403217"><ele>422.59999999999997</ele><time>2026-03-29T11:57:49.743Z</time></trkpt><trkpt lat="43.1624537" lon="12.2402317"><ele>422.2</ele><time>2026-03-29T11:57:50.743Z</time></trkpt><trkpt lat="43.1625366" lon="12.2401397"><ele>421.8</ele><time>2026-03-29T11:57:51.742Z</time></trkpt><trkpt lat="43.1626216" lon="12.2400508"><ele>421.4</ele><time>2026-03-29T11:57:52.743Z</time></trkpt><trkpt lat="43.1626969" lon="12.2399542"><ele>421.0</ele><time>2026-03-29T11:57:53.743Z</time></trkpt><trkpt lat="43.1627818" lon="12.2398528"><ele>418.8</ele><time>2026-03-29T11:57:54.743Z</time></trkpt><trkpt lat="43.1628682" lon="12.2397521"><ele>416.6</ele><time>2026-03-29T11:57:55.743Z</time></trkpt><trkpt lat="43.1629594" lon="12.2396511"><ele>414.4</ele><time>2026-03-29T11:57:56.743Z</time></trkpt><trkpt lat="43.1630446" lon="12.2395592"><ele>412.2</ele><time>2026-03-29T11:57:57.743Z</time></trkpt><trkpt lat="43.1631272" lon="12.239466"><ele>410.0</ele><time>2026-03-29T11:57:58.743Z</time></trkpt><trkpt lat="43.1632168" lon="12.2393751"><ele>409.2</ele><time>2026-03-29T11:57:59.743Z</time></trkpt><trkpt lat="43.1632904" lon="12.239279"><ele>408.4</ele><time>2026-03-29T11:58:00.743Z</time></trkpt><trkpt lat="43.1633704" lon="12.2391934"><ele>407.6</ele><time>2026-03-29T11:58:01.743Z</time></trkpt><trkpt lat="43.1634385" lon="12.239135"><ele>406.8</ele><time>2026-03-29T11:58:02.743Z</time></trkpt><trkpt lat="43.1635086" lon="12.2390559"><ele>406.0</ele><time>2026-03-29T11:58:03.743Z</time></trkpt><trkpt lat="43.1635773" lon="12.2389769"><ele>403.33333333333337</ele><time>2026-03-29T11:58:04.743Z</time></trkpt><trkpt lat="43.1636423" lon="12.2389011"><ele>400.6666666666667</ele><time>2026-03-29T11:58:05.743Z</time></trkpt><trkpt lat="43.1636979" lon="12.2388424"><ele>398.0</ele><time>2026-03-29T11:58:06.743Z</time></trkpt><trkpt lat="43.1637547" lon="12.2387957"><ele>395.33333333333337</ele><time>2026-03-29T11:58:07.742Z</time></trkpt><trkpt lat="43.1638622" lon="12.2387425"><ele>392.6666666666667</ele><time>2026-03-29T11:58:09.742Z</time></trkpt><trkpt lat="43.1639623" lon="12.2387669"><ele>390.0</ele><time>2026-03-29T11:58:11.743Z</time></trkpt><trkpt lat="43.1640292" lon="12.2387714"><ele>388.0</ele><time>2026-03-29T11:58:12.743Z</time></trkpt><trkpt lat="43.1641312" lon="12.2387718"><ele>386.0</ele><time>2026-03-29T11:58:14.743Z</time></trkpt><trkpt lat="43.1641952" lon="12.2386494"><ele>384.0</ele><time>2026-03-29T11:58:16.743Z</time></trkpt><trkpt lat="43.1642264" lon="12.2385613"><ele>382.0</ele><time>2026-03-29T11:58:17.743Z</time></trkpt><trkpt lat="43.1642588" lon="12.2384413"><ele>380.0</ele><time>2026-03-29T11:58:18.743Z</time></trkpt><trkpt lat="43.1642332" lon="12.2382828"><ele>380.0</ele><time>2026-03-29T11:58:20.743Z</time></trkpt><trkpt lat="43.1641573" lon="12.2381402"><ele>380.0</ele><time>2026-03-29T11:58:22.743Z</time></trkpt><trkpt lat="43.1641132" lon="12.2380668"><ele>380.0</ele><time>2026-03-29T11:58:23.743Z</time></trkpt><trkpt lat="43.1640657" lon="12.2379409"><ele>380.0</ele><time>2026-03-29T11:58:25.743Z</time></trkpt><trkpt lat="43.1639786" lon="12.2378487"><ele>380.0</ele><time>2026-03-29T11:58:27.743Z</time></trkpt><trkpt lat="43.163897" lon="12.237758"><ele>379.1666666666667</ele><time>2026-03-29T11:58:29.743Z</time></trkpt><trkpt lat="43.1639106" lon="12.2376501"><ele>378.33333333333337</ele><time>2026-03-29T11:58:31.743Z</time></trkpt><trkpt lat="43.164004" lon="12.2375633"><ele>377.5</ele><time>2026-03-29T11:58:33.743Z</time></trkpt><trkpt lat="43.1640728" lon="12.237551"><ele>376.6666666666667</ele><time>2026-03-29T11:58:34.743Z</time></trkpt><trkpt lat="43.1641484" lon="12.2375311"><ele>375.8333333333333</ele><time>2026-03-29T11:58:35.742Z</time></trkpt><trkpt lat="43.1642322" lon="12.2375153"><ele>375.0</ele><time>2026-03-29T11:58:36.743Z</time></trkpt><trkpt lat="43.1643082" lon="12.2375175"><ele>373.3333333333333</ele><time>2026-03-29T11:58:37.743Z</time></trkpt><trkpt lat="43.164375" lon="12.2375184"><ele>371.6666666666667</ele><time>2026-03-29T11:58:38.743Z</time></trkpt><trkpt lat="43.1644453" lon="12.237513"><ele>370.0</ele><time>2026-03-29T11:58:39.743Z</time></trkpt><trkpt lat="43.1645184" lon="12.2375122"><ele>368.33333333333337</ele><time>2026-03-29T11:58:40.743Z</time></trkpt><trkpt lat="43.1646049" lon="12.2375209"><ele>366.6666666666667</ele><time>2026-03-29T11:58:41.743Z</time></trkpt><trkpt lat="43.1646841" lon="12.2375198"><ele>365.0</ele><time>2026-03-29T11:58:42.743Z</time></trkpt><trkpt lat="43.1647583" lon="12.2375049"><ele>365.0</ele><time>2026-03-29T11:58:43.743Z</time></trkpt><trkpt lat="43.1648373" lon="12.237505"><ele>365.0</ele><time>2026-03-29T11:58:44.742Z</time></trkpt><trkpt lat="43.1649251" lon="12.237491"><ele>365.0</ele><time>2026-03-29T11:58:45.743Z</time></trkpt><trkpt lat="43.1650044" lon="12.2374858"><ele>365.0</ele><time>2026-03-29T11:58:46.743Z</time></trkpt><trkpt lat="43.1650669" lon="12.2375211"><ele>365.0</ele><time>2026-03-29T11:58:47.743Z</time></trkpt><trkpt lat="43.165142" lon="12.2375478"><ele>365.0</ele><time>2026-03-29T11:58:48.743Z</time></trkpt><trkpt lat="43.165218" lon="12.2375377"><ele>363.7142857142857</ele><time>2026-03-29T11:58:49.742Z</time></trkpt><trkpt lat="43.1652819" lon="12.2374993"><ele>362.42857142857144</ele><time>2026-03-29T11:58:50.743Z</time></trkpt><trkpt lat="43.1653417" lon="12.2374362"><ele>361.1428571428571</ele><time>2026-03-29T11:58:51.743Z</time></trkpt><trkpt lat="43.1654046" lon="12.2373649"><ele>359.8571428571429</ele><time>2026-03-29T11:58:52.743Z</time></trkpt><trkpt lat="43.1654531" lon="12.2372875"><ele>358.57142857142856</ele><time>2026-03-29T11:58:53.743Z</time></trkpt><trkpt lat="43.1654909" lon="12.2372023"><ele>357.2857142857143</ele><time>2026-03-29T11:58:54.743Z</time></trkpt><trkpt lat="43.1655155" lon="12.2371206"><ele>356.0</ele><time>2026-03-29T11:58:55.743Z</time></trkpt><trkpt lat="43.1655399" lon="12.2370403"><ele>353.25</ele><time>2026-03-29T11:58:56.743Z</time></trkpt><trkpt lat="43.1655737" lon="12.2368909"><ele>350.5</ele><time>2026-03-29T11:58:58.743Z</time></trkpt><trkpt lat="43.1656687" lon="12.2367817"><ele>347.75</ele><time>2026-03-29T11:59:00.743Z</time></trkpt><trkpt lat="43.1657662" lon="12.2366616"><ele>345.0</ele><time>2026-03-29T11:59:02.743Z</time></trkpt><trkpt lat="43.1658252" lon="12.2365789"><ele>343.5</ele><time>2026-03-29T11:59:03.742Z</time></trkpt><trkpt lat="43.165874" lon="12.2365126"><ele>342.0</ele><time>2026-03-29T11:59:04.743Z</time></trkpt><trkpt lat="43.1659905" lon="12.2364262"><ele>340.5</ele><time>2026-03-29T11:59:06.743Z</time></trkpt><trkpt lat="43.1660563" lon="12.2363968"><ele>339.0</ele><time>2026-03-29T11:59:07.743Z</time></trkpt><trkpt lat="43.1661217" lon="12.2363619"><ele>337.5</ele><time>2026-03-29T11:59:08.743Z</time></trkpt><trkpt lat="43.1662151" lon="12.2363125"><ele>336.0</ele><time>2026-03-29T11:59:09.743Z</time></trkpt><trkpt lat="43.1662905" lon="12.2362534"><ele>335.1666666666667</ele><time>2026-03-29T11:59:10.743Z</time></trkpt><trkpt lat="43.1663572" lon="12.2361994"><ele>334.3333333333333</ele><time>2026-03-29T11:59:11.743Z</time></trkpt><trkpt lat="43.1664174" lon="12.2361327"><ele>333.5</ele><time>2026-03-29T11:59:12.743Z</time></trkpt><trkpt lat="43.1664799" lon="12.2360444"><ele>332.66666666666663</ele><time>2026-03-29T11:59:13.743Z</time></trkpt><trkpt lat="43.1665418" lon="12.235964"><ele>331.8333333333333</ele><time>2026-03-29T11:59:14.743Z</time></trkpt><trkpt lat="43.166581" lon="12.235867"><ele>331.0</ele><time>2026-03-29T11:59:15.743Z</time></trkpt><trkpt lat="43.1666323" lon="12.2357578"><ele>329.4</ele><time>2026-03-29T11:59:16.743Z</time></trkpt><trkpt lat="43.1666724" lon="12.2356456"><ele>327.8</ele><time>2026-03-29T11:59:17.743Z</time></trkpt><trkpt lat="43.1666979" lon="12.2355415"><ele>326.2</ele><time>2026-03-29T11:59:18.743Z</time></trkpt><trkpt lat="43.1667401" lon="12.2354707"><ele>324.59999999999997</ele><time>2026-03-29T11:59:19.743Z</time></trkpt><trkpt lat="43.1667939" lon="12.2354093"><ele>323.0</ele><time>2026-03-29T11:59:20.743Z</time></trkpt><trkpt lat="43.1669195" lon="12.2353196"><ele>322.5</ele><time>2026-03-29T11:59:22.743Z</time></trkpt><trkpt lat="43.1669635" lon="12.235251"><ele>322.0</ele><time>2026-03-29T11:59:23.743Z</time></trkpt><trkpt lat="43.1670071" lon="12.235183"><ele>321.5</ele><time>2026-03-29T11:59:24.742Z</time></trkpt><trkpt lat="43.1670291" lon="12.2350865"><ele>321.0</ele><time>2026-03-29T11:59:25.743Z</time></trkpt><trkpt lat="43.1670312" lon="12.2349949"><ele>320.5</ele><time>2026-03-29T11:59:26.743Z</time></trkpt><trkpt lat="43.1670205" lon="12.2349006"><ele>320.0</ele><time>2026-03-29T11:59:27.743Z</time></trkpt><trkpt lat="43.1669344" lon="12.2347549"><ele>318.0</ele><time>2026-03-29T11:59:29.743Z</time></trkpt><trkpt lat="43.1668687" lon="12.2346853"><ele>316.0</ele><time>2026-03-29T11:59:30.743Z</time></trkpt><trkpt lat="43.1668063" lon="12.2346193"><ele>314.0</ele><time>2026-03-29T11:59:31.743Z</time></trkpt><trkpt lat="43.1667612" lon="12.2345466"><ele>312.0</ele><time>2026-03-29T11:59:32.743Z</time></trkpt><trkpt lat="43.1667517" lon="12.2343867"><ele>310.0</ele><time>2026-03-29T11:59:34.743Z</time></trkpt><trkpt lat="43.166703" lon="12.2342746"><ele>308.0</ele><time>2026-03-29T11:59:35.743Z</time></trkpt><trkpt lat="43.1666608" lon="12.234137"><ele>308.0</ele><time>2026-03-29T11:59:36.743Z</time></trkpt><trkpt lat="43.1666096" lon="12.2340377"><ele>308.0</ele><time>2026-03-29T11:59:37.743Z</time></trkpt><trkpt lat="43.1665718" lon="12.2339195"><ele>308.0</ele><time>2026-03-29T11:59:38.743Z</time></trkpt><trkpt lat="43.1665393" lon="12.2338026"><ele>308.0</ele><time>2026-03-29T11:59:39.743Z</time></trkpt><trkpt lat="43.1665039" lon="12.2336879"><ele>308.0</ele><time>2026-03-29T11:59:40.743Z</time></trkpt><trkpt lat="43.1664701" lon="12.2335748"><ele>305.4</ele><time>2026-03-29T11:59:41.743Z</time></trkpt><trkpt lat="43.1664401" lon="12.233443"><ele>302.8</ele><time>2026-03-29T11:59:42.743Z</time></trkpt><trkpt lat="43.1664042" lon="12.2333226"><ele>300.2</ele><time>2026-03-29T11:59:43.742Z</time></trkpt><trkpt lat="43.1663745" lon="12.2332005"><ele>297.6</ele><time>2026-03-29T11:59:44.743Z</time></trkpt><trkpt lat="43.1663417" lon="12.2330751"><ele>295.0</ele><time>2026-03-29T11:59:45.743Z</time></trkpt><trkpt lat="43.1663077" lon="12.2329468"><ele>293.6</ele><time>2026-03-29T11:59:46.743Z</time></trkpt><trkpt lat="43.1662845" lon="12.2328213"><ele>292.2</ele><time>2026-03-29T11:59:47.743Z</time></trkpt><trkpt lat="43.1662595" lon="12.2327011"><ele>290.8</ele><time>2026-03-29T11:59:48.743Z</time></trkpt><trkpt lat="43.1662705" lon="12.2325157"><ele>289.4</ele><time>2026-03-29T11:59:50.743Z</time></trkpt><trkpt lat="43.1662746" lon="12.2323936"><ele>288.0</ele><time>2026-03-29T11:59:51.743Z</time></trkpt><trkpt lat="43.1662682" lon="12.2322816"><ele>287.1666666666667</ele><time>2026-03-29T11:59:52.743Z</time></trkpt><trkpt lat="43.1662698" lon="12.2321793"><ele>286.3333333333333</ele><time>2026-03-29T11:59:53.743Z</time></trkpt><trkpt lat="43.1662711" lon="12.2320657"><ele>285.5</ele><time>2026-03-29T11:59:54.743Z</time></trkpt><trkpt lat="43.1662686" lon="12.2319429"><ele>284.66666666666663</ele><time>2026-03-29T11:59:55.743Z</time></trkpt><trkpt lat="43.166248" lon="12.2318331"><ele>283.8333333333333</ele><time>2026-03-29T11:59:56.743Z</time></trkpt><trkpt lat="43.1662118" lon="12.2317376"><ele>283.0</ele><time>2026-03-29T11:59:57.743Z</time></trkpt><trkpt lat="43.1662233" lon="12.2315892"><ele>281.5</ele><time>2026-03-29T11:59:59.743Z</time></trkpt><trkpt lat="43.1662617" lon="12.2314737"><ele>280.0</ele><time>2026-03-29T12:00:01.743Z</time></trkpt><trkpt lat="43.1662665" lon="12.2313479"><ele>278.5</ele><time>2026-03-29T12:00:03.743Z</time></trkpt><trkpt lat="43.1662288" lon="12.231247"><ele>277.0</ele><time>2026-03-29T12:00:05.743Z</time></trkpt><trkpt lat="43.1661642" lon="12.2311686"><ele>275.5</ele><time>2026-03-29T12:00:07.743Z</time></trkpt><trkpt lat="43.166085" lon="12.2311392"><ele>274.0</ele><time>2026-03-29T12:00:09.743Z</time></trkpt><trkpt lat="43.1660011" lon="12.2311366"><ele>274.0</ele><time>2026-03-29T12:00:11.743Z</time></trkpt><trkpt lat="43.1659104" lon="12.2311752"><ele>274.0</ele><time>2026-03-29T12:00:14.743Z</time></trkpt><trkpt lat="43.1658235" lon="12.2312104"><ele>274.0</ele><time>2026-03-29T12:00:17.743Z</time></trkpt><trkpt lat="43.1657593" lon="12.2313213"><ele>274.0</ele><time>2026-03-29T12:00:19.743Z</time></trkpt><trkpt lat="43.1657312" lon="12.2314035"><ele>274.0</ele><time>2026-03-29T12:00:20.743Z</time></trkpt><trkpt lat="43.1657153" lon="12.2314895"><ele>274.0</ele><time>2026-03-29T12:00:21.743Z</time></trkpt><trkpt lat="43.1656997" lon="12.2316537"><ele>274.4</ele><time>2026-03-29T12:00:23.743Z</time></trkpt><trkpt lat="43.165678" lon="12.2317842"><ele>274.79999999999995</ele><time>2026-03-29T12:00:25.743Z</time></trkpt><trkpt lat="43.1656405" lon="12.2318959"><ele>275.20000000000005</ele><time>2026-03-29T12:00:27.743Z</time></trkpt><trkpt lat="43.1655862" lon="12.2319756"><ele>275.6</ele><time>2026-03-29T12:00:29.743Z</time></trkpt><trkpt lat="43.1654998" lon="12.231981"><ele>276.0</ele><time>2026-03-29T12:00:31.743Z</time></trkpt><trkpt lat="43.1653976" lon="12.2318977"><ele>276.0</ele><time>2026-03-29T12:00:33.743Z</time></trkpt><trkpt lat="43.1653503" lon="12.231838"><ele>276.0</ele><time>2026-03-29T12:00:34.743Z</time></trkpt><trkpt lat="43.1652991" lon="12.2317767"><ele>276.0</ele><time>2026-03-29T12:00:35.743Z</time></trkpt><trkpt lat="43.1652598" lon="12.2317083"><ele>276.0</ele><time>2026-03-29T12:00:36.743Z</time></trkpt><trkpt lat="43.1652166" lon="12.2316239"><ele>276.0</ele><time>2026-03-29T12:00:37.743Z</time></trkpt><trkpt lat="43.1651712" lon="12.2315317"><ele>276.0</ele><time>2026-03-29T12:00:38.743Z</time></trkpt><trkpt lat="43.1651258" lon="12.2314428"><ele>276.0</ele><time>2026-03-29T12:00:39.743Z</time></trkpt><trkpt lat="43.1650878" lon="12.2313603"><ele>275.2</ele><time>2026-03-29T12:00:40.743Z</time></trkpt><trkpt lat="43.1650349" lon="12.2312585"><ele>274.40000000000003</ele><time>2026-03-29T12:00:41.743Z</time></trkpt><trkpt lat="43.1649706" lon="12.2311433"><ele>273.6</ele><time>2026-03-29T12:00:42.743Z</time></trkpt><trkpt lat="43.1649023" lon="12.2310241"><ele>272.8</ele><time>2026-03-29T12:00:43.743Z</time></trkpt><trkpt lat="43.1648202" lon="12.2308962"><ele>272.0</ele><time>2026-03-29T12:00:44.743Z</time></trkpt><trkpt lat="43.164743" lon="12.2307604"><ele>271.5</ele><time>2026-03-29T12:00:45.743Z</time></trkpt><trkpt lat="43.1646774" lon="12.23061"><ele>271.0</ele><time>2026-03-29T12:00:46.743Z</time></trkpt><trkpt lat="43.1646302" lon="12.2304377"><ele>270.5</ele><time>2026-03-29T12:00:47.743Z</time></trkpt><trkpt lat="43.1646036" lon="12.2302638"><ele>270.0</ele><time>2026-03-29T12:00:48.743Z</time></trkpt><trkpt lat="43.164601" lon="12.2300897"><ele>270.0</ele><time>2026-03-29T12:00:49.743Z</time></trkpt><trkpt lat="43.1646135" lon="12.2299125"><ele>270.0</ele><time>2026-03-29T12:00:50.743Z</time></trkpt><trkpt lat="43.1646458" lon="12.229729"><ele>270.0</ele><time>2026-03-29T12:00:51.743Z</time></trkpt><trkpt lat="43.1646846" lon="12.2295563"><ele>270.0</ele><time>2026-03-29T12:00:52.743Z</time></trkpt><trkpt lat="43.1647332" lon="12.2293869"><ele>269.5</ele><time>2026-03-29T12:00:53.743Z</time></trkpt><trkpt lat="43.16479" lon="12.2292134"><ele>269.0</ele><time>2026-03-29T12:00:54.742Z</time></trkpt><trkpt lat="43.1648622" lon="12.2290442"><ele>268.5</ele><time>2026-03-29T12:00:55.743Z</time></trkpt><trkpt lat="43.1649279" lon="12.2288697"><ele>268.0</ele><time>2026-03-29T12:00:56.743Z</time></trkpt><trkpt lat="43.1650011" lon="12.2286987"><ele>267.25</ele><time>2026-03-29T12:00:57.743Z</time></trkpt><trkpt lat="43.165082" lon="12.2285383"><ele>266.5</ele><time>2026-03-29T12:00:58.743Z</time></trkpt><trkpt lat="43.1651658" lon="12.2283818"><ele>265.75</ele><time>2026-03-29T12:00:59.743Z</time></trkpt><trkpt lat="43.1652571" lon="12.2282436"><ele>265.0</ele><time>2026-03-29T12:01:00.743Z</time></trkpt><trkpt lat="43.1653426" lon="12.2281373"><ele>264.4</ele><time>2026-03-29T12:01:01.743Z</time></trkpt><trkpt lat="43.1654207" lon="12.2280245"><ele>263.8</ele><time>2026-03-29T12:01:02.743Z</time></trkpt><trkpt lat="43.1654856" lon="12.2279281"><ele>263.2</ele><time>2026-03-29T12:01:03.743Z</time></trkpt><trkpt lat="43.1655676" lon="12.2278559"><ele>262.6</ele><time>2026-03-29T12:01:04.743Z</time></trkpt><trkpt lat="43.1656619" lon="12.2277814"><ele>262.0</ele><time>2026-03-29T12:01:05.743Z</time></trkpt><trkpt lat="43.1657848" lon="12.2277114"><ele>261.75</ele><time>2026-03-29T12:01:06.743Z</time></trkpt><trkpt lat="43.1658953" lon="12.2276075"><ele>261.5</ele><time>2026-03-29T12:01:07.743Z</time></trkpt><trkpt lat="43.1660011" lon="12.227493"><ele>261.25</ele><time>2026-03-29T12:01:08.743Z</time></trkpt><trkpt lat="43.1661072" lon="12.2273719"><ele>261.0</ele><time>2026-03-29T12:01:09.743Z</time></trkpt><trkpt lat="43.1662191" lon="12.227253"><ele>261.0</ele><time>2026-03-29T12:01:10.743Z</time></trkpt><trkpt lat="43.1663385" lon="12.2271526"><ele>261.0</ele><time>2026-03-29T12:01:11.743Z</time></trkpt><trkpt lat="43.1664514" lon="12.2270456"><ele>261.0</ele><time>2026-03-29T12:01:12.743Z</time></trkpt><trkpt lat="43.1665574" lon="12.2269237"><ele>261.0</ele><time>2026-03-29T12:01:13.743Z</time></trkpt><trkpt lat="43.1666516" lon="12.2267957"><ele>261.0</ele><time>2026-03-29T12:01:14.743Z</time></trkpt><trkpt lat="43.1667334" lon="12.2266514"><ele>261.0</ele><time>2026-03-29T12:01:15.743Z</time></trkpt><trkpt lat="43.1668036" lon="12.226523"><ele>261.0</ele><time>2026-03-29T12:01:16.743Z</time></trkpt><trkpt lat="43.1668628" lon="12.2264102"><ele>261.0</ele><time>2026-03-29T12:01:17.743Z</time></trkpt><trkpt lat="43.1669092" lon="12.2263153"><ele>261.0</ele><time>2026-03-29T12:01:18.743Z</time></trkpt><trkpt lat="43.1669476" lon="12.2262356"><ele>261.2</ele><time>2026-03-29T12:01:19.742Z</time></trkpt><trkpt lat="43.1669552" lon="12.2261149"><ele>261.40000000000003</ele><time>2026-03-29T12:01:21.743Z</time></trkpt><trkpt lat="43.1668892" lon="12.2259888"><ele>261.6</ele><time>2026-03-29T12:01:23.743Z</time></trkpt><trkpt lat="43.1668232" lon="12.2259205"><ele>261.8</ele><time>2026-03-29T12:01:24.743Z</time></trkpt><trkpt lat="43.1667442" lon="12.2258458"><ele>262.0</ele><time>2026-03-29T12:01:25.743Z</time></trkpt><trkpt lat="43.1666537" lon="12.2257645"><ele>262.0</ele><time>2026-03-29T12:01:26.743Z</time></trkpt><trkpt lat="43.1665607" lon="12.2256732"><ele>262.0</ele><time>2026-03-29T12:01:27.743Z</time></trkpt><trkpt lat="43.1664607" lon="12.225575"><ele>262.0</ele><time>2026-03-29T12:01:28.743Z</time></trkpt><trkpt lat="43.1663589" lon="12.2254763"><ele>262.0</ele><time>2026-03-29T12:01:29.743Z</time></trkpt><trkpt lat="43.1662557" lon="12.225376"><ele>261.25</ele><time>2026-03-29T12:01:30.743Z</time></trkpt><trkpt lat="43.1661522" lon="12.2252787"><ele>260.5</ele><time>2026-03-29T12:01:31.743Z</time></trkpt><trkpt lat="43.166056" lon="12.2251752"><ele>259.75</ele><time>2026-03-29T12:01:32.743Z</time></trkpt><trkpt lat="43.1659549" lon="12.2250729"><ele>259.0</ele><time>2026-03-29T12:01:33.743Z</time></trkpt><trkpt lat="43.1658539" lon="12.2249682"><ele>259.0</ele><time>2026-03-29T12:01:34.743Z</time></trkpt><trkpt lat="43.1657503" lon="12.2248619"><ele>259.0</ele><time>2026-03-29T12:01:35.743Z</time></trkpt><trkpt lat="43.1656466" lon="12.2247499"><ele>259.0</ele><time>2026-03-29T12:01:36.743Z</time></trkpt><trkpt lat="43.1655482" lon="12.2246362"><ele>259.0</ele><time>2026-03-29T12:01:37.743Z</time></trkpt><trkpt lat="43.1654456" lon="12.224522"><ele>258.75</ele><time>2026-03-29T12:01:38.743Z</time></trkpt><trkpt lat="43.16535" lon="12.2244033"><ele>258.5</ele><time>2026-03-29T12:01:39.743Z</time></trkpt><trkpt lat="43.1652508" lon="12.224287"><ele>258.25</ele><time>2026-03-29T12:01:40.743Z</time></trkpt><trkpt lat="43.1651564" lon="12.2241715"><ele>258.0</ele><time>2026-03-29T12:01:41.743Z</time></trkpt><trkpt lat="43.1650639" lon="12.2240522"><ele>257.75</ele><time>2026-03-29T12:01:42.743Z</time></trkpt><trkpt lat="43.1649726" lon="12.2239395"><ele>257.5</ele><time>2026-03-29T12:01:43.743Z</time></trkpt><trkpt lat="43.1648821" lon="12.2238171"><ele>257.25</ele><time>2026-03-29T12:01:44.743Z</time></trkpt><trkpt lat="43.1647913" lon="12.2236937"><ele>257.0</ele><time>2026-03-29T12:01:45.743Z</time></trkpt><trkpt lat="43.1646986" lon="12.2235772"><ele>256.5</ele><time>2026-03-29T12:01:46.743Z</time></trkpt><trkpt lat="43.1646023" lon="12.2234539"><ele>256.0</ele><time>2026-03-29T12:01:47.743Z</time></trkpt><trkpt lat="43.1645077" lon="12.2233312"><ele>255.5</ele><time>2026-03-29T12:01:48.743Z</time></trkpt><trkpt lat="43.1644142" lon="12.2232113"><ele>255.0</ele><time>2026-03-29T12:01:49.743Z</time></trkpt><trkpt lat="43.1643149" lon="12.2230838"><ele>255.0</ele><time>2026-03-29T12:01:50.743Z</time></trkpt><trkpt lat="43.1642222" lon="12.2229518"><ele>255.0</ele><time>2026-03-29T12:01:51.743Z</time></trkpt><trkpt lat="43.1641295" lon="12.2228233"><ele>255.0</ele><time>2026-03-29T12:01:52.743Z</time></trkpt><trkpt lat="43.1640325" lon="12.2226987"><ele>255.0</ele><time>2026-03-29T12:01:53.743Z</time></trkpt><trkpt lat="43.1639366" lon="12.2225696"><ele>255.0</ele><time>2026-03-29T12:01:54.743Z</time></trkpt><trkpt lat="43.1638527" lon="12.2224524"><ele>255.0</ele><time>2026-03-29T12:01:55.743Z</time></trkpt><trkpt lat="43.163783" lon="12.222356"><ele>255.0</ele><time>2026-03-29T12:01:56.743Z</time></trkpt><trkpt lat="43.1637208" lon="12.2222717"><ele>255.0</ele><time>2026-03-29T12:01:57.743Z</time></trkpt><trkpt lat="43.1636675" lon="12.2221988"><ele>255.0</ele><time>2026-03-29T12:01:58.743Z</time></trkpt><trkpt lat="43.1636222" lon="12.222138"><ele>255.0</ele><time>2026-03-29T12:01:59.743Z</time></trkpt><trkpt lat="43.1636069" lon="12.2220378"><ele>255.0</ele><time>2026-03-29T12:02:01.743Z</time></trkpt><trkpt lat="43.163676" lon="12.2219526"><ele>255.0</ele><time>2026-03-29T12:02:03.743Z</time></trkpt><trkpt lat="43.1637388" lon="12.2219039"><ele>255.0</ele><time>2026-03-29T12:02:04.743Z</time></trkpt><trkpt lat="43.1638094" lon="12.2218488"><ele>255.0</ele><time>2026-03-29T12:02:05.743Z</time></trkpt><trkpt lat="43.1638937" lon="12.221784"><ele>255.0</ele><time>2026-03-29T12:02:06.742Z</time></trkpt><trkpt lat="43.1639839" lon="12.2217145"><ele>255.0</ele><time>2026-03-29T12:02:07.743Z</time></trkpt><trkpt lat="43.1640864" lon="12.2216277"><ele>255.5</ele><time>2026-03-29T12:02:08.743Z</time></trkpt><trkpt lat="43.1642067" lon="12.221534"><ele>256.0</ele><time>2026-03-29T12:02:09.743Z</time></trkpt><trkpt lat="43.1643204" lon="12.2214451"><ele>256.5</ele><time>2026-03-29T12:02:10.743Z</time></trkpt><trkpt lat="43.1644195" lon="12.2213705"><ele>257.0</ele><time>2026-03-29T12:02:11.743Z</time></trkpt><trkpt lat="43.1645123" lon="12.2212955"><ele>257.0</ele><time>2026-03-29T12:02:12.743Z</time></trkpt><trkpt lat="43.1646097" lon="12.2212154"><ele>257.0</ele><time>2026-03-29T12:02:13.743Z</time></trkpt><trkpt lat="43.1647068" lon="12.221131"><ele>257.0</ele><time>2026-03-29T12:02:14.743Z</time></trkpt><trkpt lat="43.1648109" lon="12.2210431"><ele>257.0</ele><time>2026-03-29T12:02:15.743Z</time></trkpt><trkpt lat="43.1649247" lon="12.2209572"><ele>257.25</ele><time>2026-03-29T12:02:16.743Z</time></trkpt><trkpt lat="43.1650513" lon="12.2208758"><ele>257.5</ele><time>2026-03-29T12:02:17.743Z</time></trkpt><trkpt lat="43.1651889" lon="12.2207922"><ele>257.75</ele><time>2026-03-29T12:02:18.743Z</time></trkpt><trkpt lat="43.1653309" lon="12.2207132"><ele>258.0</ele><time>2026-03-29T12:02:19.743Z</time></trkpt><trkpt lat="43.1654701" lon="12.2206416"><ele>258.3333333333333</ele><time>2026-03-29T12:02:20.743Z</time></trkpt><trkpt lat="43.165616" lon="12.2205756"><ele>258.66666666666663</ele><time>2026-03-29T12:02:21.743Z</time></trkpt><trkpt lat="43.1657556" lon="12.2204981"><ele>259.0</ele><time>2026-03-29T12:02:22.743Z</time></trkpt><trkpt lat="43.1659011" lon="12.2204199"><ele>259.0</ele><time>2026-03-29T12:02:23.743Z</time></trkpt><trkpt lat="43.1660435" lon="12.2203301"><ele>259.0</ele><time>2026-03-29T12:02:24.743Z</time></trkpt><trkpt lat="43.1662049" lon="12.2202404"><ele>259.0</ele><time>2026-03-29T12:02:25.743Z</time></trkpt><trkpt lat="43.1663727" lon="12.220145"><ele>259.3333333333333</ele><time>2026-03-29T12:02:26.743Z</time></trkpt><trkpt lat="43.1665425" lon="12.2200534"><ele>259.6666666666667</ele><time>2026-03-29T12:02:27.742Z</time></trkpt><trkpt lat="43.166713" lon="12.2199595"><ele>260.0</ele><time>2026-03-29T12:02:28.743Z</time></trkpt><trkpt lat="43.1668859" lon="12.2198649"><ele>260.0</ele><time>2026-03-29T12:02:29.743Z</time></trkpt><trkpt lat="43.1670591" lon="12.2197716"><ele>260.0</ele><time>2026-03-29T12:02:30.743Z</time></trkpt><trkpt lat="43.167225" lon="12.2196738"><ele>260.0</ele><time>2026-03-29T12:02:31.743Z</time></trkpt><trkpt lat="43.1673993" lon="12.2195777"><ele>260.33333333333337</ele><time>2026-03-29T12:02:32.743Z</time></trkpt><trkpt lat="43.1675736" lon="12.2194859"><ele>260.6666666666667</ele><time>2026-03-29T12:02:33.742Z</time></trkpt><trkpt lat="43.1677443" lon="12.2193942"><ele>261.0</ele><time>2026-03-29T12:02:34.743Z</time></trkpt><trkpt lat="43.1679069" lon="12.2193037"><ele>261.0</ele><time>2026-03-29T12:02:35.743Z</time></trkpt><trkpt lat="43.1680712" lon="12.219214"><ele>261.0</ele><time>2026-03-29T12:02:36.743Z</time></trkpt><trkpt lat="43.1682403" lon="12.2191237"><ele>261.0</ele><time>2026-03-29T12:02:37.743Z</time></trkpt><trkpt lat="43.1684057" lon="12.2190372"><ele>261.6666666666667</ele><time>2026-03-29T12:02:38.743Z</time></trkpt><trkpt lat="43.1685722" lon="12.2189476"><ele>262.33333333333337</ele><time>2026-03-29T12:02:39.743Z</time></trkpt><trkpt lat="43.1687382" lon="12.2188637"><ele>263.0</ele><time>2026-03-29T12:02:40.743Z</time></trkpt><trkpt lat="43.1689025" lon="12.2187738"><ele>264.33333333333337</ele><time>2026-03-29T12:02:41.743Z</time></trkpt><trkpt lat="43.1690668" lon="12.2186876"><ele>265.6666666666667</ele><time>2026-03-29T12:02:42.743Z</time></trkpt><trkpt lat="43.1692156" lon="12.2186004"><ele>267.0</ele><time>2026-03-29T12:02:43.743Z</time></trkpt><trkpt lat="43.1693644" lon="12.2185186"><ele>267.0</ele><time>2026-03-29T12:02:44.743Z</time></trkpt><trkpt lat="43.1694959" lon="12.218449"><ele>267.0</ele><time>2026-03-29T12:02:45.743Z</time></trkpt><trkpt lat="43.1696161" lon="12.2183855"><ele>267.0</ele><time>2026-03-29T12:02:46.742Z</time></trkpt><trkpt lat="43.169722" lon="12.2183225"><ele>267.0</ele><time>2026-03-29T12:02:47.743Z</time></trkpt><trkpt lat="43.1698031" lon="12.2182684"><ele>267.4</ele><time>2026-03-29T12:02:48.743Z</time></trkpt><trkpt lat="43.1698641" lon="12.2182369"><ele>267.79999999999995</ele><time>2026-03-29T12:02:49.743Z</time></trkpt><trkpt lat="43.1699869" lon="12.2182234"><ele>268.2</ele><time>2026-03-29T12:02:51.743Z</time></trkpt><trkpt lat="43.1700636" lon="12.2182058"><ele>268.59999999999997</ele><time>2026-03-29T12:02:52.743Z</time></trkpt><trkpt lat="43.1701537" lon="12.218166"><ele>269.0</ele><time>2026-03-29T12:02:53.743Z</time></trkpt><trkpt lat="43.1702633" lon="12.2181247"><ele>269.0</ele><time>2026-03-29T12:02:54.743Z</time></trkpt><trkpt lat="43.1703732" lon="12.2180814"><ele>269.0</ele><time>2026-03-29T12:02:55.743Z</time></trkpt><trkpt lat="43.1704666" lon="12.2180417"><ele>269.0</ele><time>2026-03-29T12:02:56.743Z</time></trkpt><trkpt lat="43.1705743" lon="12.217998"><ele>269.0</ele><time>2026-03-29T12:02:57.743Z</time></trkpt><trkpt lat="43.1706882" lon="12.2179462"><ele>269.0</ele><time>2026-03-29T12:02:58.743Z</time></trkpt><trkpt lat="43.1708123" lon="12.2178862"><ele>270.5</ele><time>2026-03-29T12:02:59.743Z</time></trkpt><trkpt lat="43.1709475" lon="12.2178412"><ele>272.0</ele><time>2026-03-29T12:03:00.743Z</time></trkpt><trkpt lat="43.1710806" lon="12.2178005"><ele>273.5</ele><time>2026-03-29T12:03:01.743Z</time></trkpt><trkpt lat="43.1712277" lon="12.2177429"><ele>275.0</ele><time>2026-03-29T12:03:02.743Z</time></trkpt><trkpt lat="43.1713746" lon="12.2176875"><ele>275.0</ele><time>2026-03-29T12:03:03.743Z</time></trkpt><trkpt lat="43.1715206" lon="12.2176295"><ele>275.0</ele><time>2026-03-29T12:03:04.743Z</time></trkpt><trkpt lat="43.1716678" lon="12.2175803"><ele>275.0</ele><time>2026-03-29T12:03:05.743Z</time></trkpt><trkpt lat="43.17178" lon="12.2175596"><ele>275.0</ele><time>2026-03-29T12:03:06.743Z</time></trkpt><trkpt lat="43.1718957" lon="12.2175923"><ele>276.5</ele><time>2026-03-29T12:03:07.743Z</time></trkpt><trkpt lat="43.1720139" lon="12.2176607"><ele>278.0</ele><time>2026-03-29T12:03:08.743Z</time></trkpt><trkpt lat="43.1721331" lon="12.2177278"><ele>279.5</ele><time>2026-03-29T12:03:09.743Z</time></trkpt><trkpt lat="43.1722801" lon="12.2177847"><ele>281.0</ele><time>2026-03-29T12:03:10.743Z</time></trkpt><trkpt lat="43.1724431" lon="12.2178485"><ele>283.0</ele><time>2026-03-29T12:03:11.743Z</time></trkpt><trkpt lat="43.1725971" lon="12.2179058"><ele>285.0</ele><time>2026-03-29T12:03:12.743Z</time></trkpt><trkpt lat="43.1727453" lon="12.2179685"><ele>287.0</ele><time>2026-03-29T12:03:13.743Z</time></trkpt><trkpt lat="43.1728912" lon="12.2180294"><ele>287.0</ele><time>2026-03-29T12:03:14.743Z</time></trkpt><trkpt lat="43.1730446" lon="12.218094"><ele>287.0</ele><time>2026-03-29T12:03:15.743Z</time></trkpt><trkpt lat="43.1731763" lon="12.2181549"><ele>287.0</ele><time>2026-03-29T12:03:16.743Z</time></trkpt><trkpt lat="43.1732927" lon="12.2181969"><ele>287.0</ele><time>2026-03-29T12:03:17.743Z</time></trkpt><trkpt lat="43.1733859" lon="12.2181451"><ele>288.25</ele><time>2026-03-29T12:03:19.743Z</time></trkpt><trkpt lat="43.1734092" lon="12.2180552"><ele>289.5</ele><time>2026-03-29T12:03:20.743Z</time></trkpt><trkpt lat="43.1734232" lon="12.2179116"><ele>290.75</ele><time>2026-03-29T12:03:21.743Z</time></trkpt><trkpt lat="43.1734464" lon="12.2177311"><ele>292.0</ele><time>2026-03-29T12:03:22.743Z</time></trkpt><trkpt lat="43.1734795" lon="12.2175158"><ele>290.3333333333333</ele><time>2026-03-29T12:03:23.743Z</time></trkpt><trkpt lat="43.1735143" lon="12.2173014"><ele>288.6666666666667</ele><time>2026-03-29T12:03:24.743Z</time></trkpt><trkpt lat="43.1735468" lon="12.21706"><ele>287.0</ele><time>2026-03-29T12:03:25.743Z</time></trkpt><trkpt lat="43.1735817" lon="12.2168112"><ele>287.0</ele><time>2026-03-29T12:03:26.743Z</time></trkpt><trkpt lat="43.1736098" lon="12.2165764"><ele>287.0</ele><time>2026-03-29T12:03:27.743Z</time></trkpt><trkpt lat="43.1736435" lon="12.216357"><ele>287.0</ele><time>2026-03-29T12:03:28.743Z</time></trkpt><trkpt lat="43.1736764" lon="12.2161431"><ele>286.5</ele><time>2026-03-29T12:03:29.743Z</time></trkpt><trkpt lat="43.1736998" lon="12.2159486"><ele>286.0</ele><time>2026-03-29T12:03:30.743Z</time></trkpt><trkpt lat="43.1737242" lon="12.2157729"><ele>285.5</ele><time>2026-03-29T12:03:31.743Z</time></trkpt><trkpt lat="43.1737425" lon="12.2156241"><ele>285.0</ele><time>2026-03-29T12:03:32.742Z</time></trkpt><trkpt lat="43.1737563" lon="12.2155001"><ele>284.8333333333333</ele><time>2026-03-29T12:03:33.743Z</time></trkpt><trkpt lat="43.1737635" lon="12.2153926"><ele>284.6666666666667</ele><time>2026-03-29T12:03:34.743Z</time></trkpt><trkpt lat="43.1737701" lon="12.2152979"><ele>284.5</ele><time>2026-03-29T12:03:35.743Z</time></trkpt><trkpt lat="43.173781" lon="12.2152035"><ele>284.33333333333337</ele><time>2026-03-29T12:03:36.743Z</time></trkpt><trkpt lat="43.1737862" lon="12.2150555"><ele>284.1666666666667</ele><time>2026-03-29T12:03:38.743Z</time></trkpt><trkpt lat="43.1737255" lon="12.2149445"><ele>284.0</ele><time>2026-03-29T12:03:40.743Z</time></trkpt><trkpt lat="43.1736156" lon="12.2148895"><ele>284.0</ele><time>2026-03-29T12:03:42.743Z</time></trkpt><trkpt lat="43.1735361" lon="12.214878"><ele>284.0</ele><time>2026-03-29T12:03:43.742Z</time></trkpt><trkpt lat="43.173439" lon="12.2148624"><ele>284.0</ele><time>2026-03-29T12:03:44.743Z</time></trkpt><trkpt lat="43.1733239" lon="12.2148234"><ele>284.0</ele><time>2026-03-29T12:03:45.743Z</time></trkpt><trkpt lat="43.1732356" lon="12.2147953"><ele>284.0</ele><time>2026-03-29T12:03:46.743Z</time></trkpt><trkpt lat="43.1731507" lon="12.2147631"><ele>283.33333333333337</ele><time>2026-03-29T12:03:47.743Z</time></trkpt><trkpt lat="43.1730763" lon="12.214726"><ele>282.6666666666667</ele><time>2026-03-29T12:03:48.743Z</time></trkpt><trkpt lat="43.1730025" lon="12.2146755"><ele>282.0</ele><time>2026-03-29T12:03:49.743Z</time></trkpt><trkpt lat="43.1729366" lon="12.2146234"><ele>281.3333333333333</ele><time>2026-03-29T12:03:50.743Z</time></trkpt><trkpt lat="43.1728796" lon="12.2145843"><ele>280.66666666666663</ele><time>2026-03-29T12:03:51.742Z</time></trkpt><trkpt lat="43.1727721" lon="12.2144793"><ele>280.0</ele><time>2026-03-29T12:03:53.743Z</time></trkpt><trkpt lat="43.1727204" lon="12.2144124"><ele>280.0</ele><time>2026-03-29T12:03:54.743Z</time></trkpt><trkpt lat="43.1726834" lon="12.2143409"><ele>280.0</ele><time>2026-03-29T12:03:55.743Z</time></trkpt><trkpt lat="43.1726505" lon="12.2142549"><ele>280.0</ele><time>2026-03-29T12:03:56.743Z</time></trkpt><trkpt lat="43.1726273" lon="12.2141516"><ele>280.0</ele><time>2026-03-29T12:03:57.743Z</time></trkpt><trkpt lat="43.1726114" lon="12.2140293"><ele>280.0</ele><time>2026-03-29T12:03:58.743Z</time></trkpt><trkpt lat="43.1726195" lon="12.213898"><ele>280.0</ele><time>2026-03-29T12:03:59.743Z</time></trkpt><trkpt lat="43.1726446" lon="12.2137711"><ele>279.5</ele><time>2026-03-29T12:04:00.743Z</time></trkpt><trkpt lat="43.1726797" lon="12.2136532"><ele>279.0</ele><time>2026-03-29T12:04:01.743Z</time></trkpt><trkpt lat="43.1727406" lon="12.213528"><ele>278.5</ele><time>2026-03-29T12:04:02.743Z</time></trkpt><trkpt lat="43.1728297" lon="12.2133841"><ele>278.0</ele><time>2026-03-29T12:04:03.743Z</time></trkpt><trkpt lat="43.1729235" lon="12.2132242"><ele>278.0</ele><time>2026-03-29T12:04:04.743Z</time></trkpt><trkpt lat="43.1730291" lon="12.2130406"><ele>278.0</ele><time>2026-03-29T12:04:05.742Z</time></trkpt><trkpt lat="43.1731185" lon="12.212862"><ele>278.0</ele><time>2026-03-29T12:04:06.742Z</time></trkpt><trkpt lat="43.1732026" lon="12.2126723"><ele>278.0</ele><time>2026-03-29T12:04:07.743Z</time></trkpt><trkpt lat="43.1732763" lon="12.2124879"><ele>278.0</ele><time>2026-03-29T12:04:08.743Z</time></trkpt><trkpt lat="43.1733422" lon="12.212315"><ele>278.0</ele><time>2026-03-29T12:04:09.743Z</time></trkpt><trkpt lat="43.1733984" lon="12.2121576"><ele>278.0</ele><time>2026-03-29T12:04:10.743Z</time></trkpt><trkpt lat="43.1734526" lon="12.2120066"><ele>278.0</ele><time>2026-03-29T12:04:11.743Z</time></trkpt><trkpt lat="43.1734967" lon="12.2118503"><ele>278.0</ele><time>2026-03-29T12:04:12.743Z</time></trkpt><trkpt lat="43.1735245" lon="12.2116858"><ele>278.0</ele><time>2026-03-29T12:04:13.743Z</time></trkpt><trkpt lat="43.1735481" lon="12.2115238"><ele>278.0</ele><time>2026-03-29T12:04:14.743Z</time></trkpt><trkpt lat="43.1735931" lon="12.2113658"><ele>277.75</ele><time>2026-03-29T12:04:15.742Z</time></trkpt><trkpt lat="43.1736573" lon="12.2112146"><ele>277.5</ele><time>2026-03-29T12:04:16.743Z</time></trkpt><trkpt lat="43.1737369" lon="12.2110942"><ele>277.25</ele><time>2026-03-29T12:04:17.743Z</time></trkpt><trkpt lat="43.173857" lon="12.2110021"><ele>277.0</ele><time>2026-03-29T12:04:18.742Z</time></trkpt><trkpt lat="43.1739813" lon="12.2109357"><ele>277.75</ele><time>2026-03-29T12:04:19.743Z</time></trkpt><trkpt lat="43.1741026" lon="12.2108647"><ele>278.5</ele><time>2026-03-29T12:04:20.742Z</time></trkpt><trkpt lat="43.1742258" lon="12.2107705"><ele>279.25</ele><time>2026-03-29T12:04:21.743Z</time></trkpt><trkpt lat="43.1743493" lon="12.2106478"><ele>280.0</ele><time>2026-03-29T12:04:22.743Z</time></trkpt><trkpt lat="43.1744502" lon="12.2105183"><ele>280.0</ele><time>2026-03-29T12:04:23.743Z</time></trkpt><trkpt lat="43.1745618" lon="12.2104136"><ele>280.0</ele><time>2026-03-29T12:04:24.743Z</time></trkpt><trkpt lat="43.1746769" lon="12.2103301"><ele>280.0</ele><time>2026-03-29T12:04:25.743Z</time></trkpt><trkpt lat="43.1747959" lon="12.2102659"><ele>280.0</ele><time>2026-03-29T12:04:26.743Z</time></trkpt><trkpt lat="43.1749045" lon="12.2102253"><ele>280.66666666666663</ele><time>2026-03-29T12:04:27.742Z</time></trkpt><trkpt lat="43.1749969" lon="12.2101842"><ele>281.3333333333333</ele><time>2026-03-29T12:04:28.743Z</time></trkpt><trkpt lat="43.175085" lon="12.210128"><ele>282.0</ele><time>2026-03-29T12:04:29.743Z</time></trkpt><trkpt lat="43.1751441" lon="12.2100537"><ele>282.6666666666667</ele><time>2026-03-29T12:04:30.743Z</time></trkpt><trkpt lat="43.1751789" lon="12.2099536"><ele>283.33333333333337</ele><time>2026-03-29T12:04:31.743Z</time></trkpt><trkpt lat="43.1752096" lon="12.2098564"><ele>284.0</ele><time>2026-03-29T12:04:32.743Z</time></trkpt><trkpt lat="43.1751758" lon="12.2097729"><ele>284.0</ele><time>2026-03-29T12:04:33.743Z</time></trkpt><trkpt lat="43.1751759" lon="12.2096864"><ele>284.0</ele><time>2026-03-29T12:04:34.743Z</time></trkpt><trkpt lat="43.175166" lon="12.20956"><ele>284.0</ele><time>2026-03-29T12:04:36.743Z</time></trkpt><trkpt lat="43.1751404" lon="12.2094493"><ele>284.0</ele><time>2026-03-29T12:04:38.743Z</time></trkpt><trkpt lat="43.1751329" lon="12.2093402"><ele>284.0</ele><time>2026-03-29T12:04:40.743Z</time></trkpt><trkpt lat="43.1751101" lon="12.2092451"><ele>284.0</ele><time>2026-03-29T12:04:42.743Z</time></trkpt><trkpt lat="43.1750932" lon="12.2090827"><ele>285.59999999999997</ele><time>2026-03-29T12:04:44.742Z</time></trkpt><trkpt lat="43.1750944" lon="12.2089789"><ele>287.2</ele><time>2026-03-29T12:04:45.743Z</time></trkpt><trkpt lat="43.175088" lon="12.2088487"><ele>288.79999999999995</ele><time>2026-03-29T12:04:46.743Z</time></trkpt><trkpt lat="43.175113" lon="12.2087248"><ele>290.4</ele><time>2026-03-29T12:04:47.743Z</time></trkpt><trkpt lat="43.1751425" lon="12.2085969"><ele>292.0</ele><time>2026-03-29T12:04:48.743Z</time></trkpt><trkpt lat="43.1751851" lon="12.2084836"><ele>292.0</ele><time>2026-03-29T12:04:49.742Z</time></trkpt><trkpt lat="43.1752231" lon="12.2084046"><ele>292.0</ele><time>2026-03-29T12:04:50.743Z</time></trkpt><trkpt lat="43.1752713" lon="12.2083131"><ele>292.0</ele><time>2026-03-29T12:04:51.743Z</time></trkpt><trkpt lat="43.1753237" lon="12.2082222"><ele>292.0</ele><time>2026-03-29T12:04:52.743Z</time></trkpt><trkpt lat="43.1753889" lon="12.2081244"><ele>292.0</ele><time>2026-03-29T12:04:53.743Z</time></trkpt><trkpt lat="43.1755101" lon="12.2080346"><ele>293.0</ele><time>2026-03-29T12:04:54.743Z</time></trkpt><trkpt lat="43.1755965" lon="12.207919"><ele>294.0</ele><time>2026-03-29T12:04:55.743Z</time></trkpt><trkpt lat="43.1756662" lon="12.207788"><ele>295.0</ele><time>2026-03-29T12:04:56.743Z</time></trkpt><trkpt lat="43.1757414" lon="12.2076925"><ele>296.0</ele><time>2026-03-29T12:04:57.742Z</time></trkpt><trkpt lat="43.1756289" lon="12.207572"><ele>297.6</ele><time>2026-03-29T12:04:59.743Z</time></trkpt><trkpt lat="43.1755135" lon="12.2075431"><ele>299.20000000000005</ele><time>2026-03-29T12:05:00.743Z</time></trkpt><trkpt lat="43.1754508" lon="12.207426"><ele>300.79999999999995</ele><time>2026-03-29T12:05:02.743Z</time></trkpt><trkpt lat="43.1755308" lon="12.2073162"><ele>302.4</ele><time>2026-03-29T12:05:04.743Z</time></trkpt><trkpt lat="43.1755721" lon="12.2072406"><ele>304.0</ele><time>2026-03-29T12:05:05.743Z</time></trkpt><trkpt lat="43.1756321" lon="12.2070856"><ele>306.3333333333333</ele><time>2026-03-29T12:05:07.743Z</time></trkpt><trkpt lat="43.1756499" lon="12.2069948"><ele>308.66666666666663</ele><time>2026-03-29T12:05:08.743Z</time></trkpt><trkpt lat="43.1756537" lon="12.2069076"><ele>311.0</ele><time>2026-03-29T12:05:09.743Z</time></trkpt><trkpt lat="43.1756461" lon="12.2067898"><ele>313.3333333333333</ele><time>2026-03-29T12:05:10.743Z</time></trkpt><trkpt lat="43.1756387" lon="12.2066484"><ele>315.6666666666667</ele><time>2026-03-29T12:05:11.743Z</time></trkpt><trkpt lat="43.1756415" lon="12.2065204"><ele>318.0</ele><time>2026-03-29T12:05:12.743Z</time></trkpt><trkpt lat="43.1756336" lon="12.2064302"><ele>319.1666666666667</ele><time>2026-03-29T12:05:13.743Z</time></trkpt><trkpt lat="43.1756214" lon="12.2063432"><ele>320.3333333333333</ele><time>2026-03-29T12:05:14.743Z</time></trkpt><trkpt lat="43.1755173" lon="12.2062536"><ele>321.5</ele><time>2026-03-29T12:05:16.743Z</time></trkpt><trkpt lat="43.1754864" lon="12.2061493"><ele>322.66666666666663</ele><time>2026-03-29T12:05:17.743Z</time></trkpt><trkpt lat="43.175438" lon="12.2060644"><ele>323.8333333333333</ele><time>2026-03-29T12:05:18.743Z</time></trkpt><trkpt lat="43.1753732" lon="12.2059833"><ele>325.0</ele><time>2026-03-29T12:05:19.742Z</time></trkpt><trkpt lat="43.1753149" lon="12.2058888"><ele>325.0</ele><time>2026-03-29T12:05:20.743Z</time></trkpt><trkpt lat="43.1752707" lon="12.2058184"><ele>325.0</ele><time>2026-03-29T12:05:21.743Z</time></trkpt><trkpt lat="43.1752109" lon="12.20576"><ele>325.0</ele><time>2026-03-29T12:05:22.743Z</time></trkpt><trkpt lat="43.1751585" lon="12.2056993"><ele>325.0</ele><time>2026-03-29T12:05:23.743Z</time></trkpt><trkpt lat="43.1751103" lon="12.2055845"><ele>325.0</ele><time>2026-03-29T12:05:25.743Z</time></trkpt><trkpt lat="43.1750792" lon="12.2056657"><ele>325.0</ele><time>2026-03-29T12:05:30.743Z</time></trkpt><trkpt lat="43.1750912" lon="12.2058135"><ele>325.0</ele><time>2026-03-29T12:05:32.742Z</time></trkpt><trkpt lat="43.1751156" lon="12.2059285"><ele>325.0</ele><time>2026-03-29T12:05:34.743Z</time></trkpt><trkpt lat="43.1751855" lon="12.206048"><ele>325.0</ele><time>2026-03-29T12:05:36.743Z</time></trkpt><trkpt lat="43.1752387" lon="12.2061626"><ele>325.0</ele><time>2026-03-29T12:05:37.742Z</time></trkpt><trkpt lat="43.1752682" lon="12.2062542"><ele>325.0</ele><time>2026-03-29T12:05:38.743Z</time></trkpt><trkpt lat="43.1752773" lon="12.2063542"><ele>325.0</ele><time>2026-03-29T12:05:39.743Z</time></trkpt><trkpt lat="43.1752689" lon="12.2064555"><ele>323.8333333333333</ele><time>2026-03-29T12:05:40.743Z</time></trkpt><trkpt lat="43.1752438" lon="12.2065671"><ele>322.66666666666663</ele><time>2026-03-29T12:05:41.743Z</time></trkpt><trkpt lat="43.1752049" lon="12.2066571"><ele>321.5</ele><time>2026-03-29T12:05:42.743Z</time></trkpt><trkpt lat="43.17515" lon="12.206716"><ele>320.3333333333333</ele><time>2026-03-29T12:05:43.743Z</time></trkpt><trkpt lat="43.1750757" lon="12.2067812"><ele>319.1666666666667</ele><time>2026-03-29T12:05:44.743Z</time></trkpt><trkpt lat="43.17501" lon="12.2068302"><ele>318.0</ele><time>2026-03-29T12:05:45.743Z</time></trkpt><trkpt lat="43.1749218" lon="12.2068555"><ele>321.2</ele><time>2026-03-29T12:05:46.743Z</time></trkpt><trkpt lat="43.1748456" lon="12.2068958"><ele>324.4</ele><time>2026-03-29T12:05:47.742Z</time></trkpt><trkpt lat="43.1747389" lon="12.2069507"><ele>327.59999999999997</ele><time>2026-03-29T12:05:49.743Z</time></trkpt><trkpt lat="43.1746264" lon="12.20705"><ele>330.8</ele><time>2026-03-29T12:05:51.743Z</time></trkpt><trkpt lat="43.1745477" lon="12.2071213"><ele>334.0</ele><time>2026-03-29T12:05:52.743Z</time></trkpt><trkpt lat="43.1744797" lon="12.2071941"><ele>334.0</ele><time>2026-03-29T12:05:53.743Z</time></trkpt><trkpt lat="43.1744181" lon="12.2072615"><ele>334.0</ele><time>2026-03-29T12:05:54.743Z</time></trkpt><trkpt lat="43.1743365" lon="12.2073334"><ele>334.0</ele><time>2026-03-29T12:05:55.743Z</time></trkpt><trkpt lat="43.1742506" lon="12.2074217"><ele>334.0</ele><time>2026-03-29T12:05:56.743Z</time></trkpt><trkpt lat="43.1741849" lon="12.2075093"><ele>334.0</ele><time>2026-03-29T12:05:57.743Z</time></trkpt><trkpt lat="43.1741051" lon="12.2076073"><ele>333.5</ele><time>2026-03-29T12:05:58.743Z</time></trkpt><trkpt lat="43.1740207" lon="12.2076899"><ele>333.0</ele><time>2026-03-29T12:05:59.743Z</time></trkpt><trkpt lat="43.1739179" lon="12.2077831"><ele>332.5</ele><time>2026-03-29T12:06:00.743Z</time></trkpt><trkpt lat="43.1738252" lon="12.2078762"><ele>332.0</ele><time>2026-03-29T12:06:01.743Z</time></trkpt><trkpt lat="43.1737202" lon="12.207956"><ele>332.0</ele><time>2026-03-29T12:06:02.742Z</time></trkpt><trkpt lat="43.1736041" lon="12.2080127"><ele>332.0</ele><time>2026-03-29T12:06:03.743Z</time></trkpt><trkpt lat="43.173483" lon="12.208072"><ele>332.0</ele><time>2026-03-29T12:06:04.743Z</time></trkpt><trkpt lat="43.1733533" lon="12.208126"><ele>332.0</ele><time>2026-03-29T12:06:05.743Z</time></trkpt><trkpt lat="43.1732387" lon="12.2081796"><ele>328.25</ele><time>2026-03-29T12:06:06.743Z</time></trkpt><trkpt lat="43.1731032" lon="12.2082521"><ele>324.5</ele><time>2026-03-29T12:06:07.743Z</time></trkpt><trkpt lat="43.1729783" lon="12.2083241"><ele>320.75</ele><time>2026-03-29T12:06:08.743Z</time></trkpt><trkpt lat="43.1728489" lon="12.2083904"><ele>317.0</ele><time>2026-03-29T12:06:09.743Z</time></trkpt><trkpt lat="43.1727453" lon="12.2084413"><ele>317.0</ele><time>2026-03-29T12:06:10.743Z</time></trkpt><trkpt lat="43.1726517" lon="12.2084789"><ele>317.0</ele><time>2026-03-29T12:06:11.743Z</time></trkpt><trkpt lat="43.172561" lon="12.2085081"><ele>317.0</ele><time>2026-03-29T12:06:12.743Z</time></trkpt><trkpt lat="43.1724821" lon="12.2084948"><ele>317.0</ele><time>2026-03-29T12:06:13.743Z</time></trkpt><trkpt lat="43.1723941" lon="12.2084663"><ele>317.0</ele><time>2026-03-29T12:06:14.743Z</time></trkpt><trkpt lat="43.1723153" lon="12.2084594"><ele>317.0</ele><time>2026-03-29T12:06:15.743Z</time></trkpt><trkpt lat="43.1722213" lon="12.2085039"><ele>318.1666666666667</ele><time>2026-03-29T12:06:16.743Z</time></trkpt><trkpt lat="43.1721295" lon="12.2085438"><ele>319.33333333333337</ele><time>2026-03-29T12:06:17.743Z</time></trkpt><trkpt lat="43.1720473" lon="12.2085367"><ele>320.5</ele><time>2026-03-29T12:06:18.743Z</time></trkpt><trkpt lat="43.1719701" lon="12.2085273"><ele>321.6666666666667</ele><time>2026-03-29T12:06:19.743Z</time></trkpt><trkpt lat="43.1718913" lon="12.2085116"><ele>322.8333333333333</ele><time>2026-03-29T12:06:20.743Z</time></trkpt><trkpt lat="43.1718222" lon="12.2085207"><ele>324.0</ele><time>2026-03-29T12:06:21.743Z</time></trkpt><trkpt lat="43.1717624" lon="12.2085745"><ele>324.0</ele><time>2026-03-29T12:06:23.743Z</time></trkpt><trkpt lat="43.1717271" lon="12.2084828"><ele>324.0</ele><time>2026-03-29T12:06:25.743Z</time></trkpt><trkpt lat="43.1716406" lon="12.2084149"><ele>324.0</ele><time>2026-03-29T12:06:27.743Z</time></trkpt><trkpt lat="43.1715813" lon="12.2083743"><ele>324.0</ele><time>2026-03-29T12:06:28.743Z</time></trkpt><trkpt lat="43.1715212" lon="12.2083356"><ele>324.0</ele><time>2026-03-29T12:06:29.743Z</time></trkpt><trkpt lat="43.1714085" lon="12.2083017"><ele>324.0</ele><time>2026-03-29T12:06:31.743Z</time></trkpt><trkpt lat="43.1712819" lon="12.2082796"><ele>325.1666666666667</ele><time>2026-03-29T12:06:33.743Z</time></trkpt><trkpt lat="43.1712366" lon="12.2082023"><ele>326.3333333333333</ele><time>2026-03-29T12:06:35.743Z</time></trkpt><trkpt lat="43.1712376" lon="12.2081011"><ele>327.5</ele><time>2026-03-29T12:06:37.743Z</time></trkpt><trkpt lat="43.1711813" lon="12.2080167"><ele>328.66666666666663</ele><time>2026-03-29T12:06:39.743Z</time></trkpt><trkpt lat="43.1710781" lon="12.2079208"><ele>329.8333333333333</ele><time>2026-03-29T12:06:41.743Z</time></trkpt><trkpt lat="43.1710207" lon="12.2078805"><ele>331.0</ele><time>2026-03-29T12:06:42.743Z</time></trkpt><trkpt lat="43.1709503" lon="12.2078408"><ele>334.2857142857143</ele><time>2026-03-29T12:06:43.743Z</time></trkpt><trkpt lat="43.1708836" lon="12.2077962"><ele>337.57142857142856</ele><time>2026-03-29T12:06:44.743Z</time></trkpt><trkpt lat="43.1708221" lon="12.2077352"><ele>340.8571428571429</ele><time>2026-03-29T12:06:45.742Z</time></trkpt><trkpt lat="43.170775" lon="12.2076739"><ele>344.1428571428571</ele><time>2026-03-29T12:06:46.743Z</time></trkpt><trkpt lat="43.1707407" lon="12.2075899"><ele>347.4285714285714</ele><time>2026-03-29T12:06:47.743Z</time></trkpt><trkpt lat="43.1707517" lon="12.2075028"><ele>350.7142857142857</ele><time>2026-03-29T12:06:49.743Z</time></trkpt><trkpt lat="43.1708207" lon="12.2075095"><ele>354.0</ele><time>2026-03-29T12:06:51.743Z</time></trkpt><trkpt lat="43.1709067" lon="12.2075136"><ele>354.0</ele><time>2026-03-29T12:06:53.743Z</time></trkpt><trkpt lat="43.1709813" lon="12.2074748"><ele>354.0</ele><time>2026-03-29T12:06:55.743Z</time></trkpt><trkpt lat="43.1710219" lon="12.2074078"><ele>354.0</ele><time>2026-03-29T12:06:56.743Z</time></trkpt><trkpt lat="43.1710843" lon="12.2072658"><ele>354.0</ele><time>2026-03-29T12:06:58.743Z</time></trkpt><trkpt lat="43.1711433" lon="12.2072169"><ele>354.0</ele><time>2026-03-29T12:06:59.743Z</time></trkpt><trkpt lat="43.1711782" lon="12.2071278"><ele>354.0</ele><time>2026-03-29T12:07:00.743Z</time></trkpt><trkpt lat="43.1712156" lon="12.2070303"><ele>356.5</ele><time>2026-03-29T12:07:01.743Z</time></trkpt><trkpt lat="43.1712564" lon="12.2069426"><ele>359.0</ele><time>2026-03-29T12:07:02.743Z</time></trkpt><trkpt lat="43.1713068" lon="12.206881"><ele>361.5</ele><time>2026-03-29T12:07:03.743Z</time></trkpt><trkpt lat="43.1713503" lon="12.2068132"><ele>364.0</ele><time>2026-03-29T12:07:04.743Z</time></trkpt><trkpt lat="43.1713597" lon="12.2067262"><ele>366.5</ele><time>2026-03-29T12:07:06.743Z</time></trkpt><trkpt lat="43.1712535" lon="12.2066608"><ele>369.0</ele><time>2026-03-29T12:07:09.743Z</time></trkpt><trkpt lat="43.1711877" lon="12.2065958"><ele>369.0</ele><time>2026-03-29T12:07:11.743Z</time></trkpt><trkpt lat="43.1711393" lon="12.2065156"><ele>369.0</ele><time>2026-03-29T12:07:13.743Z</time></trkpt><trkpt lat="43.1710957" lon="12.2064262"><ele>369.0</ele><time>2026-03-29T12:07:15.743Z</time></trkpt><trkpt lat="43.1709827" lon="12.20639"><ele>369.0</ele><time>2026-03-29T12:07:17.743Z</time></trkpt><trkpt lat="43.1708814" lon="12.2063378"><ele>369.0</ele><time>2026-03-29T12:07:19.743Z</time></trkpt><trkpt lat="43.1707664" lon="12.2063112"><ele>373.2</ele><time>2026-03-29T12:07:21.742Z</time></trkpt><trkpt lat="43.1707331" lon="12.206222"><ele>377.4</ele><time>2026-03-29T12:07:24.743Z</time></trkpt><trkpt lat="43.1708458" lon="12.2061295"><ele>381.6</ele><time>2026-03-29T12:07:26.743Z</time></trkpt><trkpt lat="43.170921" lon="12.2060492"><ele>385.8</ele><time>2026-03-29T12:07:27.743Z</time></trkpt><trkpt lat="43.1709964" lon="12.205965"><ele>390.0</ele><time>2026-03-29T12:07:28.743Z</time></trkpt><trkpt lat="43.1710669" lon="12.2058548"><ele>390.0</ele><time>2026-03-29T12:07:29.743Z</time></trkpt><trkpt lat="43.1711333" lon="12.2057229"><ele>390.0</ele><time>2026-03-29T12:07:30.743Z</time></trkpt><trkpt lat="43.1712069" lon="12.2056073"><ele>390.0</ele><time>2026-03-29T12:07:31.743Z</time></trkpt><trkpt lat="43.1712678" lon="12.2054788"><ele>390.0</ele><time>2026-03-29T12:07:32.743Z</time></trkpt><trkpt lat="43.1713295" lon="12.2053414"><ele>392.8</ele><time>2026-03-29T12:07:33.743Z</time></trkpt><trkpt lat="43.1713803" lon="12.2051963"><ele>395.6</ele><time>2026-03-29T12:07:34.743Z</time></trkpt><trkpt lat="43.1714262" lon="12.2050674"><ele>398.4</ele><time>2026-03-29T12:07:35.743Z</time></trkpt><trkpt lat="43.1714985" lon="12.2049134"><ele>401.2</ele><time>2026-03-29T12:07:37.743Z</time></trkpt><trkpt lat="43.1715785" lon="12.2048857"><ele>404.0</ele><time>2026-03-29T12:07:38.743Z</time></trkpt><trkpt lat="43.1716644" lon="12.2049127"><ele>404.0</ele><time>2026-03-29T12:07:39.743Z</time></trkpt><trkpt lat="43.1717335" lon="12.2049002"><ele>404.0</ele><time>2026-03-29T12:07:40.743Z</time></trkpt><trkpt lat="43.1718119" lon="12.2048747"><ele>404.0</ele><time>2026-03-29T12:07:41.742Z</time></trkpt><trkpt lat="43.171876" lon="12.2047945"><ele>404.0</ele><time>2026-03-29T12:07:42.743Z</time></trkpt><trkpt lat="43.1719891" lon="12.2047478"><ele>404.0</ele><time>2026-03-29T12:07:43.743Z</time></trkpt><trkpt lat="43.1720855" lon="12.2047152"><ele>404.66666666666663</ele><time>2026-03-29T12:07:44.743Z</time></trkpt><trkpt lat="43.1721746" lon="12.2046908"><ele>405.3333333333333</ele><time>2026-03-29T12:07:45.743Z</time></trkpt><trkpt lat="43.1722409" lon="12.2046623"><ele>406.0</ele><time>2026-03-29T12:07:46.743Z</time></trkpt><trkpt lat="43.1723168" lon="12.2046369"><ele>406.66666666666663</ele><time>2026-03-29T12:07:47.743Z</time></trkpt><trkpt lat="43.1723527" lon="12.2045386"><ele>407.3333333333333</ele><time>2026-03-29T12:07:49.743Z</time></trkpt><trkpt lat="43.1723922" lon="12.2044609"><ele>408.0</ele><time>2026-03-29T12:07:50.742Z</time></trkpt><trkpt lat="43.1724243" lon="12.2043517"><ele>408.0</ele><time>2026-03-29T12:07:51.743Z</time></trkpt><trkpt lat="43.1724803" lon="12.2041662"><ele>408.0</ele><time>2026-03-29T12:07:52.743Z</time></trkpt><trkpt lat="43.1725249" lon="12.2040255"><ele>408.0</ele><time>2026-03-29T12:07:53.743Z</time></trkpt><trkpt lat="43.1725692" lon="12.2038704"><ele>408.0</ele><time>2026-03-29T12:07:54.743Z</time></trkpt><trkpt lat="43.1726187" lon="12.2037141"><ele>411.1666666666667</ele><time>2026-03-29T12:07:55.743Z</time></trkpt><trkpt lat="43.1726651" lon="12.2035965"><ele>414.33333333333337</ele><time>2026-03-29T12:07:56.743Z</time></trkpt><trkpt lat="43.1727109" lon="12.2035221"><ele>417.5</ele><time>2026-03-29T12:07:57.743Z</time></trkpt><trkpt lat="43.1728036" lon="12.2034548"><ele>420.6666666666667</ele><time>2026-03-29T12:07:59.743Z</time></trkpt><trkpt lat="43.1728547" lon="12.2033808"><ele>423.83333333333337</ele><time>2026-03-29T12:08:00.743Z</time></trkpt><trkpt lat="43.1728903" lon="12.2032778"><ele>427.0</ele><time>2026-03-29T12:08:02.743Z</time></trkpt><trkpt lat="43.172923" lon="12.2032039"><ele>429.33333333333337</ele><time>2026-03-29T12:08:05.742Z</time></trkpt><trkpt lat="43.172955" lon="12.2031108"><ele>431.6666666666667</ele><time>2026-03-29T12:08:15.743Z</time></trkpt><trkpt lat="43.1729503" lon="12.2029884"><ele>434.0</ele><time>2026-03-29T12:08:17.743Z</time></trkpt><trkpt lat="43.1729485" lon="12.2028326"><ele>436.33333333333337</ele><time>2026-03-29T12:08:19.743Z</time></trkpt><trkpt lat="43.1729685" lon="12.2027218"><ele>438.6666666666667</ele><time>2026-03-29T12:08:20.743Z</time></trkpt><trkpt lat="43.1729939" lon="12.2026319"><ele>441.0</ele><time>2026-03-29T12:08:21.742Z</time></trkpt><trkpt lat="43.1730282" lon="12.2025251"><ele>441.0</ele><time>2026-03-29T12:08:22.743Z</time></trkpt><trkpt lat="43.1730682" lon="12.2024093"><ele>441.0</ele><time>2026-03-29T12:08:23.743Z</time></trkpt><trkpt lat="43.1731218" lon="12.2023048"><ele>441.0</ele><time>2026-03-29T12:08:24.743Z</time></trkpt><trkpt lat="43.1731513" lon="12.2022208"><ele>441.0</ele><time>2026-03-29T12:08:25.743Z</time></trkpt><trkpt lat="43.1731714" lon="12.2021125"><ele>441.0</ele><time>2026-03-29T12:08:26.743Z</time></trkpt><trkpt lat="43.1731961" lon="12.2020037"><ele>441.0</ele><time>2026-03-29T12:08:27.743Z</time></trkpt><trkpt lat="43.1731684" lon="12.2019032"><ele>440.20000000000005</ele><time>2026-03-29T12:08:28.743Z</time></trkpt><trkpt lat="43.1731331" lon="12.2018001"><ele>439.40000000000003</ele><time>2026-03-29T12:08:29.743Z</time></trkpt><trkpt lat="43.1730893" lon="12.2016762"><ele>438.6</ele><time>2026-03-29T12:08:30.743Z</time></trkpt><trkpt lat="43.1730606" lon="12.2015219"><ele>437.8</ele><time>2026-03-29T12:08:31.743Z</time></trkpt><trkpt lat="43.1730371" lon="12.201376"><ele>437.0</ele><time>2026-03-29T12:08:32.743Z</time></trkpt><trkpt lat="43.172994" lon="12.2012335"><ele>435.0</ele><time>2026-03-29T12:08:33.743Z</time></trkpt><trkpt lat="43.1729462" lon="12.2011385"><ele>433.0</ele><time>2026-03-29T12:08:34.743Z</time></trkpt><trkpt lat="43.1729067" lon="12.2010449"><ele>431.0</ele><time>2026-03-29T12:08:35.743Z</time></trkpt><trkpt lat="43.1728827" lon="12.2009453"><ele>429.0</ele><time>2026-03-29T12:08:36.743Z</time></trkpt><trkpt lat="43.1728483" lon="12.2008614"><ele>427.0</ele><time>2026-03-29T12:08:37.743Z</time></trkpt><trkpt lat="43.1728032" lon="12.2007978"><ele>425.0</ele><time>2026-03-29T12:08:38.743Z</time></trkpt><trkpt lat="43.1727468" lon="12.2007551"><ele>423.0</ele><time>2026-03-29T12:08:39.742Z</time></trkpt><trkpt lat="43.1726835" lon="12.2006291"><ele>422.3333333333333</ele><time>2026-03-29T12:08:41.743Z</time></trkpt><trkpt lat="43.1726288" lon="12.2005568"><ele>421.66666666666663</ele><time>2026-03-29T12:08:42.743Z</time></trkpt><trkpt lat="43.1725823" lon="12.2004824"><ele>421.0</ele><time>2026-03-29T12:08:43.743Z</time></trkpt><trkpt lat="43.1725413" lon="12.2004073"><ele>420.3333333333333</ele><time>2026-03-29T12:08:44.743Z</time></trkpt><trkpt lat="43.1724835" lon="12.2003289"><ele>419.66666666666663</ele><time>2026-03-29T12:08:45.743Z</time></trkpt><trkpt lat="43.1724336" lon="12.2002445"><ele>419.0</ele><time>2026-03-29T12:08:46.743Z</time></trkpt><trkpt lat="43.1723431" lon="12.2001604"><ele>418.99999999999994</ele><time>2026-03-29T12:08:48.742Z</time></trkpt><trkpt lat="43.1722668" lon="12.2001534"><ele>419.0</ele><time>2026-03-29T12:08:49.743Z</time></trkpt><trkpt lat="43.1722014" lon="12.2001329"><ele>419.0</ele><time>2026-03-29T12:08:51.743Z</time></trkpt><trkpt lat="43.172125" lon="12.2001354"><ele>419.0</ele><time>2026-03-29T12:09:20.743Z</time></trkpt><trkpt lat="43.1720381" lon="12.2001559"><ele>419.0</ele><time>2026-03-29T12:09:22.743Z</time></trkpt><trkpt lat="43.1719729" lon="12.2001709"><ele>418.99999999999994</ele><time>2026-03-29T12:09:23.743Z</time></trkpt><trkpt lat="43.171909" lon="12.2001804"><ele>419.0</ele><time>2026-03-29T12:09:24.742Z</time></trkpt><trkpt lat="43.1718094" lon="12.2002288"><ele>419.0</ele><time>2026-03-29T12:09:26.743Z</time></trkpt><trkpt lat="43.171716" lon="12.2002647"><ele>419.0</ele><time>2026-03-29T12:09:28.743Z</time></trkpt><trkpt lat="43.1716386" lon="12.2003089"><ele>419.0</ele><time>2026-03-29T12:09:30.743Z</time></trkpt><trkpt lat="43.171559" lon="12.2003498"><ele>419.0</ele><time>2026-03-29T12:09:32.743Z</time></trkpt><trkpt lat="43.171456" lon="12.2003914"><ele>419.0</ele><time>2026-03-29T12:09:34.743Z</time></trkpt><trkpt lat="43.1713804" lon="12.2004481"><ele>421.0</ele><time>2026-03-29T12:09:36.743Z</time></trkpt><trkpt lat="43.1713234" lon="12.2005474"><ele>423.0</ele><time>2026-03-29T12:09:38.743Z</time></trkpt><trkpt lat="43.1712615" lon="12.2005729"><ele>425.0</ele><time>2026-03-29T12:09:40.743Z</time></trkpt><trkpt lat="43.1711699" lon="12.2005833"><ele>427.0</ele><time>2026-03-29T12:09:42.743Z</time></trkpt><trkpt lat="43.1710418" lon="12.2006496"><ele>429.0</ele><time>2026-03-29T12:09:44.743Z</time></trkpt><trkpt lat="43.1709512" lon="12.2006961"><ele>432.0</ele><time>2026-03-29T12:09:45.743Z</time></trkpt><trkpt lat="43.1708604" lon="12.2007308"><ele>435.0</ele><time>2026-03-29T12:09:46.743Z</time></trkpt><trkpt lat="43.1707769" lon="12.2007611"><ele>438.0</ele><time>2026-03-29T12:09:47.743Z</time></trkpt><trkpt lat="43.1706641" lon="12.2008492"><ele>441.0</ele><time>2026-03-29T12:09:49.743Z</time></trkpt><trkpt lat="43.170587" lon="12.2009168"><ele>444.0</ele><time>2026-03-29T12:09:50.743Z</time></trkpt><trkpt lat="43.1705117" lon="12.2009503"><ele>444.5</ele><time>2026-03-29T12:09:51.743Z</time></trkpt><trkpt lat="43.1704457" lon="12.2009541"><ele>445.0</ele><time>2026-03-29T12:09:52.743Z</time></trkpt><trkpt lat="43.1703766" lon="12.2009873"><ele>445.5</ele><time>2026-03-29T12:09:53.743Z</time></trkpt><trkpt lat="43.1703139" lon="12.2010335"><ele>446.0</ele><time>2026-03-29T12:09:54.743Z</time></trkpt><trkpt lat="43.1702582" lon="12.2010741"><ele>446.5</ele><time>2026-03-29T12:09:55.743Z</time></trkpt><trkpt lat="43.1701476" lon="12.2011206"><ele>447.0</ele><time>2026-03-29T12:09:57.743Z</time></trkpt><trkpt lat="43.1700812" lon="12.2011436"><ele>447.0</ele><time>2026-03-29T12:13:26.743Z</time></trkpt><trkpt lat="43.1700165" lon="12.2012133"><ele>447.00000000000006</ele><time>2026-03-29T12:13:29.743Z</time></trkpt><trkpt lat="43.169935" lon="12.2012133"><ele>447.00000000000006</ele><time>2026-03-29T12:14:11.743Z</time></trkpt><trkpt lat="43.1698299" lon="12.2012262"><ele>447.0</ele><time>2026-03-29T12:14:13.743Z</time></trkpt><trkpt lat="43.1697218" lon="12.2012069"><ele>447.0</ele><time>2026-03-29T12:14:15.743Z</time></trkpt><trkpt lat="43.1696378" lon="12.2012123"><ele>446.8333333333333</ele><time>2026-03-29T12:14:17.743Z</time></trkpt><trkpt lat="43.1695781" lon="12.2012561"><ele>446.66666666666663</ele><time>2026-03-29T12:14:19.743Z</time></trkpt><trkpt lat="43.1695098" lon="12.2012801"><ele>446.5</ele><time>2026-03-29T12:14:22.743Z</time></trkpt><trkpt lat="43.1694207" lon="12.201272"><ele>446.3333333333333</ele><time>2026-03-29T12:14:25.743Z</time></trkpt><trkpt lat="43.169322" lon="12.2012783"><ele>446.16666666666663</ele><time>2026-03-29T12:14:27.743Z</time></trkpt><trkpt lat="43.1692026" lon="12.2012807"><ele>446.0</ele><time>2026-03-29T12:14:29.743Z</time></trkpt><trkpt lat="43.1691284" lon="12.2012617"><ele>445.99999999999994</ele><time>2026-03-29T12:14:30.743Z</time></trkpt><trkpt lat="43.1690588" lon="12.2012498"><ele>446.0</ele><time>2026-03-29T12:14:31.743Z</time></trkpt><trkpt lat="43.1689754" lon="12.2012388"><ele>446.0</ele><time>2026-03-29T12:14:32.743Z</time></trkpt><trkpt lat="43.1688902" lon="12.2012323"><ele>446.0</ele><time>2026-03-29T12:14:33.743Z</time></trkpt><trkpt lat="43.1688" lon="12.2012179"><ele>445.99999999999994</ele><time>2026-03-29T12:14:34.743Z</time></trkpt><trkpt lat="43.168713" lon="12.2011975"><ele>446.0</ele><time>2026-03-29T12:14:35.742Z</time></trkpt><trkpt lat="43.1685894" lon="12.2011742"><ele>446.0</ele><time>2026-03-29T12:14:36.743Z</time></trkpt><trkpt lat="43.1684688" lon="12.2011578"><ele>446.0</ele><time>2026-03-29T12:14:37.743Z</time></trkpt><trkpt lat="43.1683583" lon="12.2011305"><ele>446.0</ele><time>2026-03-29T12:14:38.743Z</time></trkpt><trkpt lat="43.1682559" lon="12.2011153"><ele>446.0</ele><time>2026-03-29T12:14:39.743Z</time></trkpt><trkpt lat="43.1681557" lon="12.2010982"><ele>446.0</ele><time>2026-03-29T12:14:40.743Z</time></trkpt><trkpt lat="43.1680819" lon="12.2010866"><ele>445.99999999999994</ele><time>2026-03-29T12:14:41.743Z</time></trkpt><trkpt lat="43.1680106" lon="12.201082"><ele>446.0</ele><time>2026-03-29T12:14:42.743Z</time></trkpt><trkpt lat="43.167943" lon="12.2010658"><ele>446.0</ele><time>2026-03-29T12:14:44.743Z</time></trkpt><trkpt lat="43.1678618" lon="12.2010665"><ele>446.0</ele><time>2026-03-29T12:14:46.743Z</time></trkpt><trkpt lat="43.1677324" lon="12.2010197"><ele>445.99999999999994</ele><time>2026-03-29T12:14:48.743Z</time></trkpt><trkpt lat="43.167649" lon="12.2009804"><ele>446.0</ele><time>2026-03-29T12:14:49.743Z</time></trkpt><trkpt lat="43.1675664" lon="12.2009524"><ele>446.0</ele><time>2026-03-29T12:14:50.742Z</time></trkpt><trkpt lat="43.1674883" lon="12.2009205"><ele>446.0</ele><time>2026-03-29T12:14:51.743Z</time></trkpt><trkpt lat="43.1674125" lon="12.2008868"><ele>446.0</ele><time>2026-03-29T12:14:52.743Z</time></trkpt><trkpt lat="43.1673437" lon="12.2008597"><ele>446.0</ele><time>2026-03-29T12:14:53.743Z</time></trkpt><trkpt lat="43.1672765" lon="12.200832"><ele>446.0</ele><time>2026-03-29T12:14:54.743Z</time></trkpt><trkpt lat="43.1672105" lon="12.200821"><ele>446.0</ele><time>2026-03-29T12:14:55.743Z</time></trkpt><trkpt lat="43.1671455" lon="12.2007978"><ele>446.0</ele><time>2026-03-29T12:14:56.743Z</time></trkpt><trkpt lat="43.1670177" lon="12.20078"><ele>445.4</ele><time>2026-03-29T12:14:58.743Z</time></trkpt><trkpt lat="43.1669535" lon="12.2007752"><ele>444.8</ele><time>2026-03-29T12:14:59.743Z</time></trkpt><trkpt lat="43.1668453" lon="12.2007603"><ele>444.19999999999993</ele><time>2026-03-29T12:15:01.743Z</time></trkpt><trkpt lat="43.1667498" lon="12.200722"><ele>443.59999999999997</ele><time>2026-03-29T12:15:03.743Z</time></trkpt><trkpt lat="43.1666257" lon="12.2006852"><ele>443.0</ele><time>2026-03-29T12:15:05.743Z</time></trkpt><trkpt lat="43.1665361" lon="12.2006984"><ele>441.4</ele><time>2026-03-29T12:15:06.743Z</time></trkpt><trkpt lat="43.1664519" lon="12.2007185"><ele>439.79999999999995</ele><time>2026-03-29T12:15:07.743Z</time></trkpt><trkpt lat="43.1663721" lon="12.2007437"><ele>438.2</ele><time>2026-03-29T12:15:08.743Z</time></trkpt><trkpt lat="43.1662794" lon="12.2007681"><ele>436.6</ele><time>2026-03-29T12:15:09.743Z</time></trkpt><trkpt lat="43.1661856" lon="12.2008021"><ele>435.0</ele><time>2026-03-29T12:15:10.743Z</time></trkpt><trkpt lat="43.1660753" lon="12.2008403"><ele>435.0</ele><time>2026-03-29T12:15:11.743Z</time></trkpt><trkpt lat="43.1659599" lon="12.2008672"><ele>435.0</ele><time>2026-03-29T12:15:12.743Z</time></trkpt><trkpt lat="43.1658478" lon="12.2009045"><ele>435.0</ele><time>2026-03-29T12:15:13.743Z</time></trkpt><trkpt lat="43.1657266" lon="12.200931"><ele>435.0</ele><time>2026-03-29T12:15:14.743Z</time></trkpt><trkpt lat="43.165587" lon="12.2009704"><ele>433.25</ele><time>2026-03-29T12:15:15.743Z</time></trkpt><trkpt lat="43.165461" lon="12.2010116"><ele>431.5</ele><time>2026-03-29T12:15:16.743Z</time></trkpt><trkpt lat="43.1653397" lon="12.2010432"><ele>429.75</ele><time>2026-03-29T12:15:17.743Z</time></trkpt><trkpt lat="43.1652278" lon="12.2010686"><ele>428.0</ele><time>2026-03-29T12:15:18.742Z</time></trkpt><trkpt lat="43.1651188" lon="12.2010922"><ele>428.0</ele><time>2026-03-29T12:15:19.743Z</time></trkpt><trkpt lat="43.1650076" lon="12.201117"><ele>427.99999999999994</ele><time>2026-03-29T12:15:20.743Z</time></trkpt><trkpt lat="43.1649059" lon="12.2011348"><ele>427.99999999999994</ele><time>2026-03-29T12:15:21.743Z</time></trkpt><trkpt lat="43.1648041" lon="12.2011604"><ele>428.0</ele><time>2026-03-29T12:15:22.743Z</time></trkpt><trkpt lat="43.1647046" lon="12.2011905"><ele>428.0</ele><time>2026-03-29T12:15:23.743Z</time></trkpt><trkpt lat="43.1646065" lon="12.201221"><ele>426.16666666666663</ele><time>2026-03-29T12:15:24.743Z</time></trkpt><trkpt lat="43.1645184" lon="12.2012592"><ele>424.3333333333333</ele><time>2026-03-29T12:15:25.743Z</time></trkpt><trkpt lat="43.1644357" lon="12.2012723"><ele>422.5</ele><time>2026-03-29T12:15:26.743Z</time></trkpt><trkpt lat="43.1643718" lon="12.201288"><ele>420.66666666666663</ele><time>2026-03-29T12:15:27.743Z</time></trkpt><trkpt lat="43.1643211" lon="12.2013747"><ele>418.8333333333333</ele><time>2026-03-29T12:15:29.743Z</time></trkpt><trkpt lat="43.1643391" lon="12.2014731"><ele>417.0</ele><time>2026-03-29T12:15:31.742Z</time></trkpt><trkpt lat="43.1643292" lon="12.201576"><ele>416.0</ele><time>2026-03-29T12:15:33.743Z</time></trkpt><trkpt lat="43.1643314" lon="12.2016998"><ele>415.0</ele><time>2026-03-29T12:15:35.743Z</time></trkpt><trkpt lat="43.1643321" lon="12.2018062"><ele>414.0</ele><time>2026-03-29T12:15:37.743Z</time></trkpt><trkpt lat="43.1642798" lon="12.2018728"><ele>413.0</ele><time>2026-03-29T12:15:39.743Z</time></trkpt><trkpt lat="43.1641927" lon="12.2018525"><ele>412.0</ele><time>2026-03-29T12:15:41.743Z</time></trkpt><trkpt lat="43.1641188" lon="12.2018347"><ele>411.0</ele><time>2026-03-29T12:15:42.743Z</time></trkpt><trkpt lat="43.164032" lon="12.2017866"><ele>409.8333333333333</ele><time>2026-03-29T12:15:43.743Z</time></trkpt><trkpt lat="43.1639543" lon="12.2017426"><ele>408.66666666666663</ele><time>2026-03-29T12:15:44.743Z</time></trkpt><trkpt lat="43.1638762" lon="12.2016834"><ele>407.5</ele><time>2026-03-29T12:15:45.743Z</time></trkpt><trkpt lat="43.1637925" lon="12.2016459"><ele>406.3333333333333</ele><time>2026-03-29T12:15:46.743Z</time></trkpt><trkpt lat="43.1637203" lon="12.2016323"><ele>405.16666666666663</ele><time>2026-03-29T12:15:47.743Z</time></trkpt><trkpt lat="43.1636557" lon="12.2016286"><ele>404.0</ele><time>2026-03-29T12:15:48.743Z</time></trkpt><trkpt lat="43.1635855" lon="12.2016418"><ele>403.99999999999994</ele><time>2026-03-29T12:15:49.743Z</time></trkpt><trkpt lat="43.1635168" lon="12.2016635"><ele>404.0</ele><time>2026-03-29T12:15:50.743Z</time></trkpt><trkpt lat="43.1634513" lon="12.2016997"><ele>404.0</ele><time>2026-03-29T12:15:51.743Z</time></trkpt><trkpt lat="43.1633679" lon="12.2017217"><ele>404.0</ele><time>2026-03-29T12:15:52.743Z</time></trkpt><trkpt lat="43.1632886" lon="12.2017306"><ele>403.99999999999994</ele><time>2026-03-29T12:15:53.743Z</time></trkpt><trkpt lat="43.163204" lon="12.2017357"><ele>404.0</ele><time>2026-03-29T12:15:54.742Z</time></trkpt><trkpt lat="43.1631221" lon="12.2017255"><ele>404.3333333333333</ele><time>2026-03-29T12:15:55.743Z</time></trkpt><trkpt lat="43.1630446" lon="12.2017025"><ele>404.66666666666663</ele><time>2026-03-29T12:15:56.743Z</time></trkpt><trkpt lat="43.1629691" lon="12.2016902"><ele>405.0</ele><time>2026-03-29T12:15:57.743Z</time></trkpt><trkpt lat="43.1628844" lon="12.2016845"><ele>405.33333333333337</ele><time>2026-03-29T12:15:58.743Z</time></trkpt><trkpt lat="43.1628004" lon="12.2016893"><ele>405.6666666666667</ele><time>2026-03-29T12:15:59.743Z</time></trkpt><trkpt lat="43.1627136" lon="12.2016942"><ele>406.0</ele><time>2026-03-29T12:16:00.743Z</time></trkpt><trkpt lat="43.1626211" lon="12.2017116"><ele>406.0</ele><time>2026-03-29T12:16:01.743Z</time></trkpt><trkpt lat="43.1625326" lon="12.201742"><ele>406.0</ele><time>2026-03-29T12:16:02.743Z</time></trkpt><trkpt lat="43.1624412" lon="12.2017844"><ele>406.0</ele><time>2026-03-29T12:16:03.743Z</time></trkpt><trkpt lat="43.1623521" lon="12.2018352"><ele>406.0</ele><time>2026-03-29T12:16:04.743Z</time></trkpt><trkpt lat="43.1622663" lon="12.2018565"><ele>406.0</ele><time>2026-03-29T12:16:05.743Z</time></trkpt><trkpt lat="43.1621755" lon="12.2018599"><ele>404.4</ele><time>2026-03-29T12:16:06.743Z</time></trkpt><trkpt lat="43.1620853" lon="12.2018567"><ele>402.8</ele><time>2026-03-29T12:16:07.743Z</time></trkpt><trkpt lat="43.1620005" lon="12.2018714"><ele>401.2</ele><time>2026-03-29T12:16:08.743Z</time></trkpt><trkpt lat="43.1619253" lon="12.2019379"><ele>399.59999999999997</ele><time>2026-03-29T12:16:09.743Z</time></trkpt><trkpt lat="43.161852" lon="12.2019985"><ele>398.0</ele><time>2026-03-29T12:16:10.743Z</time></trkpt><trkpt lat="43.1617675" lon="12.2020947"><ele>398.0</ele><time>2026-03-29T12:16:11.743Z</time></trkpt><trkpt lat="43.161676" lon="12.2021744"><ele>398.0</ele><time>2026-03-29T12:16:12.743Z</time></trkpt><trkpt lat="43.1615718" lon="12.2022502"><ele>398.0</ele><time>2026-03-29T12:16:13.743Z</time></trkpt><trkpt lat="43.1614701" lon="12.2023095"><ele>398.0</ele><time>2026-03-29T12:16:14.742Z</time></trkpt><trkpt lat="43.1613738" lon="12.2023656"><ele>398.0</ele><time>2026-03-29T12:16:15.742Z</time></trkpt><trkpt lat="43.161277" lon="12.202407"><ele>398.79999999999995</ele><time>2026-03-29T12:16:16.743Z</time></trkpt><trkpt lat="43.1611851" lon="12.2024746"><ele>399.6</ele><time>2026-03-29T12:16:17.742Z</time></trkpt><trkpt lat="43.161095" lon="12.2025576"><ele>400.4</ele><time>2026-03-29T12:16:18.743Z</time></trkpt><trkpt lat="43.1610122" lon="12.2026349"><ele>401.20000000000005</ele><time>2026-03-29T12:16:19.743Z</time></trkpt><trkpt lat="43.160932" lon="12.2027022"><ele>402.0</ele><time>2026-03-29T12:16:20.743Z</time></trkpt><trkpt lat="43.1608626" lon="12.2027874"><ele>402.0</ele><time>2026-03-29T12:16:21.743Z</time></trkpt><trkpt lat="43.1607838" lon="12.202886"><ele>402.0</ele><time>2026-03-29T12:16:22.743Z</time></trkpt><trkpt lat="43.1607103" lon="12.2029753"><ele>402.0</ele><time>2026-03-29T12:16:23.743Z</time></trkpt><trkpt lat="43.1606331" lon="12.2030613"><ele>402.0</ele><time>2026-03-29T12:16:24.743Z</time></trkpt><trkpt lat="43.1605445" lon="12.2031309"><ele>402.0</ele><time>2026-03-29T12:16:25.743Z</time></trkpt><trkpt lat="43.160457" lon="12.2031723"><ele>403.0</ele><time>2026-03-29T12:16:26.743Z</time></trkpt><trkpt lat="43.1603883" lon="12.2032219"><ele>404.0</ele><time>2026-03-29T12:16:27.743Z</time></trkpt><trkpt lat="43.1603173" lon="12.2032564"><ele>405.0</ele><time>2026-03-29T12:16:28.743Z</time></trkpt><trkpt lat="43.1602428" lon="12.2032978"><ele>406.0</ele><time>2026-03-29T12:16:29.743Z</time></trkpt><trkpt lat="43.1601628" lon="12.2033424"><ele>407.0</ele><time>2026-03-29T12:16:30.743Z</time></trkpt><trkpt lat="43.1600781" lon="12.2033938"><ele>408.0</ele><time>2026-03-29T12:16:31.743Z</time></trkpt><trkpt lat="43.1599994" lon="12.2034438"><ele>408.0</ele><time>2026-03-29T12:16:32.742Z</time></trkpt><trkpt lat="43.1599216" lon="12.2035091"><ele>408.0</ele><time>2026-03-29T12:16:33.743Z</time></trkpt><trkpt lat="43.1598524" lon="12.2035617"><ele>408.0</ele><time>2026-03-29T12:16:34.743Z</time></trkpt><trkpt lat="43.1597831" lon="12.2036139"><ele>408.0</ele><time>2026-03-29T12:16:35.743Z</time></trkpt><trkpt lat="43.159713" lon="12.2036531"><ele>408.0</ele><time>2026-03-29T12:16:36.743Z</time></trkpt><trkpt lat="43.15962" lon="12.2036919"><ele>408.0</ele><time>2026-03-29T12:16:37.743Z</time></trkpt><trkpt lat="43.1595269" lon="12.2037174"><ele>406.25</ele><time>2026-03-29T12:16:38.743Z</time></trkpt><trkpt lat="43.1594176" lon="12.2037667"><ele>404.5</ele><time>2026-03-29T12:16:39.743Z</time></trkpt><trkpt lat="43.1593088" lon="12.203792"><ele>402.75</ele><time>2026-03-29T12:16:40.743Z</time></trkpt><trkpt lat="43.1591837" lon="12.2038027"><ele>401.0</ele><time>2026-03-29T12:16:41.742Z</time></trkpt><trkpt lat="43.1590558" lon="12.2037924"><ele>400.75</ele><time>2026-03-29T12:16:42.742Z</time></trkpt><trkpt lat="43.1589243" lon="12.2037994"><ele>400.5</ele><time>2026-03-29T12:16:43.743Z</time></trkpt><trkpt lat="43.1587868" lon="12.2038071"><ele>400.25</ele><time>2026-03-29T12:16:44.743Z</time></trkpt><trkpt lat="43.1586521" lon="12.2038138"><ele>400.0</ele><time>2026-03-29T12:16:45.743Z</time></trkpt><trkpt lat="43.158524" lon="12.2038334"><ele>400.0</ele><time>2026-03-29T12:16:46.743Z</time></trkpt><trkpt lat="43.1583929" lon="12.2038522"><ele>400.0</ele><time>2026-03-29T12:16:47.742Z</time></trkpt><trkpt lat="43.1582704" lon="12.2039314"><ele>400.0</ele><time>2026-03-29T12:16:48.743Z</time></trkpt><trkpt lat="43.1581417" lon="12.2039831"><ele>400.0</ele><time>2026-03-29T12:16:49.743Z</time></trkpt><trkpt lat="43.1579905" lon="12.2040329"><ele>404.0</ele><time>2026-03-29T12:16:50.743Z</time></trkpt><trkpt lat="43.1578308" lon="12.2040891"><ele>408.0</ele><time>2026-03-29T12:16:51.743Z</time></trkpt><trkpt lat="43.1576521" lon="12.2041479"><ele>412.0</ele><time>2026-03-29T12:16:52.743Z</time></trkpt><trkpt lat="43.1574957" lon="12.2041973"><ele>414.33333333333337</ele><time>2026-03-29T12:16:53.743Z</time></trkpt><trkpt lat="43.1573341" lon="12.2042452"><ele>416.66666666666663</ele><time>2026-03-29T12:16:54.743Z</time></trkpt><trkpt lat="43.1571818" lon="12.2042624"><ele>419.0</ele><time>2026-03-29T12:16:55.743Z</time></trkpt><trkpt lat="43.1570397" lon="12.2042855"><ele>419.0</ele><time>2026-03-29T12:16:56.743Z</time></trkpt><trkpt lat="43.1569187" lon="12.2042919"><ele>419.0</ele><time>2026-03-29T12:16:57.743Z</time></trkpt><trkpt lat="43.1568187" lon="12.2042871"><ele>419.0</ele><time>2026-03-29T12:16:58.743Z</time></trkpt><trkpt lat="43.1567126" lon="12.2042568"><ele>419.0</ele><time>2026-03-29T12:16:59.743Z</time></trkpt><trkpt lat="43.1566106" lon="12.204207"><ele>419.0</ele><time>2026-03-29T12:17:00.743Z</time></trkpt><trkpt lat="43.1565337" lon="12.2040948"><ele>418.0</ele><time>2026-03-29T12:17:01.743Z</time></trkpt><trkpt lat="43.1564418" lon="12.2040103"><ele>417.0</ele><time>2026-03-29T12:17:02.743Z</time></trkpt><trkpt lat="43.1563266" lon="12.203948"><ele>416.0</ele><time>2026-03-29T12:17:03.743Z</time></trkpt><trkpt lat="43.156194" lon="12.2038663"><ele>415.0</ele><time>2026-03-29T12:17:04.743Z</time></trkpt><trkpt lat="43.1560543" lon="12.2037679"><ele>415.0</ele><time>2026-03-29T12:17:05.743Z</time></trkpt><trkpt lat="43.1559201" lon="12.2036651"><ele>415.0</ele><time>2026-03-29T12:17:06.743Z</time></trkpt><trkpt lat="43.1558087" lon="12.2035503"><ele>415.0</ele><time>2026-03-29T12:17:07.743Z</time></trkpt><trkpt lat="43.155704" lon="12.203424"><ele>415.0</ele><time>2026-03-29T12:17:08.743Z</time></trkpt><trkpt lat="43.1556087" lon="12.2032855"><ele>413.25</ele><time>2026-03-29T12:17:09.743Z</time></trkpt><trkpt lat="43.1555138" lon="12.2031276"><ele>411.5</ele><time>2026-03-29T12:17:10.743Z</time></trkpt><trkpt lat="43.1554124" lon="12.2029818"><ele>409.75</ele><time>2026-03-29T12:17:11.742Z</time></trkpt><trkpt lat="43.1553129" lon="12.2028491"><ele>408.0</ele><time>2026-03-29T12:17:12.743Z</time></trkpt><trkpt lat="43.1552239" lon="12.2027274"><ele>408.0</ele><time>2026-03-29T12:17:13.743Z</time></trkpt><trkpt lat="43.1551412" lon="12.202604"><ele>408.0</ele><time>2026-03-29T12:17:14.743Z</time></trkpt><trkpt lat="43.1550736" lon="12.202482"><ele>408.0</ele><time>2026-03-29T12:17:15.743Z</time></trkpt><trkpt lat="43.1550131" lon="12.2023524"><ele>408.0</ele><time>2026-03-29T12:17:16.743Z</time></trkpt><trkpt lat="43.1549466" lon="12.2022219"><ele>408.75</ele><time>2026-03-29T12:17:17.743Z</time></trkpt><trkpt lat="43.1548624" lon="12.202106"><ele>409.5</ele><time>2026-03-29T12:17:18.743Z</time></trkpt><trkpt lat="43.1547721" lon="12.202006"><ele>410.25</ele><time>2026-03-29T12:17:19.743Z</time></trkpt><trkpt lat="43.1546807" lon="12.2019044"><ele>411.0</ele><time>2026-03-29T12:17:20.743Z</time></trkpt><trkpt lat="43.1545839" lon="12.201803"><ele>411.0</ele><time>2026-03-29T12:17:21.743Z</time></trkpt><trkpt lat="43.1544844" lon="12.2016991"><ele>411.0</ele><time>2026-03-29T12:17:22.743Z</time></trkpt><trkpt lat="43.1543893" lon="12.2015985"><ele>411.0</ele><time>2026-03-29T12:17:23.743Z</time></trkpt><trkpt lat="43.1542903" lon="12.201509"><ele>411.0</ele><time>2026-03-29T12:17:24.743Z</time></trkpt><trkpt lat="43.1542137" lon="12.2014535"><ele>410.3333333333333</ele><time>2026-03-29T12:17:25.743Z</time></trkpt><trkpt lat="43.1541317" lon="12.2014229"><ele>409.66666666666663</ele><time>2026-03-29T12:17:27.743Z</time></trkpt><trkpt lat="43.154058" lon="12.2014771"><ele>409.0</ele><time>2026-03-29T12:17:29.743Z</time></trkpt><trkpt lat="43.1539629" lon="12.2015002"><ele>408.3333333333333</ele><time>2026-03-29T12:17:31.743Z</time></trkpt><trkpt lat="43.1538952" lon="12.201499"><ele>407.66666666666663</ele><time>2026-03-29T12:17:32.743Z</time></trkpt><trkpt lat="43.1537962" lon="12.2014942"><ele>407.0</ele><time>2026-03-29T12:17:33.743Z</time></trkpt><trkpt lat="43.1536947" lon="12.2014911"><ele>409.0</ele><time>2026-03-29T12:17:34.743Z</time></trkpt><trkpt lat="43.1535817" lon="12.2014798"><ele>411.0</ele><time>2026-03-29T12:17:35.743Z</time></trkpt><trkpt lat="43.1534601" lon="12.2014383"><ele>413.0</ele><time>2026-03-29T12:17:36.743Z</time></trkpt><trkpt lat="43.1533424" lon="12.2013795"><ele>415.0</ele><time>2026-03-29T12:17:37.743Z</time></trkpt><trkpt lat="43.1532252" lon="12.2013085"><ele>416.25</ele><time>2026-03-29T12:17:38.743Z</time></trkpt><trkpt lat="43.1531053" lon="12.2012445"><ele>417.5</ele><time>2026-03-29T12:17:39.743Z</time></trkpt><trkpt lat="43.1529833" lon="12.2011909"><ele>418.75</ele><time>2026-03-29T12:17:40.743Z</time></trkpt><trkpt lat="43.1528681" lon="12.2011646"><ele>420.0</ele><time>2026-03-29T12:17:41.743Z</time></trkpt><trkpt lat="43.1527466" lon="12.2011637"><ele>420.0</ele><time>2026-03-29T12:17:42.743Z</time></trkpt><trkpt lat="43.1526185" lon="12.2011701"><ele>420.0</ele><time>2026-03-29T12:17:43.743Z</time></trkpt><trkpt lat="43.1524894" lon="12.2011734"><ele>420.0</ele><time>2026-03-29T12:17:44.743Z</time></trkpt><trkpt lat="43.1523636" lon="12.2011654"><ele>420.0</ele><time>2026-03-29T12:17:45.743Z</time></trkpt><trkpt lat="43.1522553" lon="12.2011231"><ele>420.8</ele><time>2026-03-29T12:17:46.743Z</time></trkpt><trkpt lat="43.1521421" lon="12.2010551"><ele>421.6</ele><time>2026-03-29T12:17:47.743Z</time></trkpt><trkpt lat="43.1520394" lon="12.2009855"><ele>422.4</ele><time>2026-03-29T12:17:48.743Z</time></trkpt><trkpt lat="43.1519652" lon="12.2009245"><ele>423.2</ele><time>2026-03-29T12:17:49.743Z</time></trkpt><trkpt lat="43.1519098" lon="12.2008324"><ele>424.0</ele><time>2026-03-29T12:17:51.743Z</time></trkpt><trkpt lat="43.1519748" lon="12.2007832"><ele>424.00000000000006</ele><time>2026-03-29T12:19:34.743Z</time></trkpt><trkpt lat="43.1520052" lon="12.2007049"><ele>424.0</ele><time>2026-03-29T12:19:36.743Z</time></trkpt><trkpt lat="43.1519504" lon="12.2005531"><ele>424.0</ele><time>2026-03-29T12:19:38.743Z</time></trkpt><trkpt lat="43.1518993" lon="12.2004422"><ele>424.0</ele><time>2026-03-29T12:19:39.743Z</time></trkpt><trkpt lat="43.1518753" lon="12.2003525"><ele>424.00000000000006</ele><time>2026-03-29T12:19:40.743Z</time></trkpt><trkpt lat="43.1518661" lon="12.2002566"><ele>424.0</ele><time>2026-03-29T12:19:41.743Z</time></trkpt><trkpt lat="43.1518599" lon="12.2001576"><ele>422.79999999999995</ele><time>2026-03-29T12:19:42.743Z</time></trkpt><trkpt lat="43.1518576" lon="12.2000302"><ele>421.59999999999997</ele><time>2026-03-29T12:19:43.743Z</time></trkpt><trkpt lat="43.1518575" lon="12.1998908"><ele>420.4</ele><time>2026-03-29T12:19:44.743Z</time></trkpt><trkpt lat="43.1518445" lon="12.1997368"><ele>419.2</ele><time>2026-03-29T12:19:45.743Z</time></trkpt><trkpt lat="43.1518353" lon="12.1995815"><ele>418.0</ele><time>2026-03-29T12:19:46.743Z</time></trkpt><trkpt lat="43.1518214" lon="12.1994357"><ele>414.5</ele><time>2026-03-29T12:19:47.743Z</time></trkpt><trkpt lat="43.151802" lon="12.1993045"><ele>411.0</ele><time>2026-03-29T12:19:48.743Z</time></trkpt><trkpt lat="43.1517667" lon="12.1991478"><ele>407.5</ele><time>2026-03-29T12:19:49.743Z</time></trkpt><trkpt lat="43.151729" lon="12.1989824"><ele>404.0</ele><time>2026-03-29T12:19:50.743Z</time></trkpt><trkpt lat="43.1516825" lon="12.1988071"><ele>402.2</ele><time>2026-03-29T12:19:51.743Z</time></trkpt><trkpt lat="43.1516453" lon="12.1986565"><ele>400.4</ele><time>2026-03-29T12:19:52.743Z</time></trkpt><trkpt lat="43.1515981" lon="12.1985111"><ele>398.6</ele><time>2026-03-29T12:19:53.743Z</time></trkpt><trkpt lat="43.1515628" lon="12.1983843"><ele>396.8</ele><time>2026-03-29T12:19:54.743Z</time></trkpt><trkpt lat="43.1515075" lon="12.1982508"><ele>395.0</ele><time>2026-03-29T12:19:55.743Z</time></trkpt><trkpt lat="43.1514328" lon="12.1980933"><ele>392.5</ele><time>2026-03-29T12:19:56.743Z</time></trkpt><trkpt lat="43.1513483" lon="12.1979405"><ele>390.0</ele><time>2026-03-29T12:19:57.743Z</time></trkpt><trkpt lat="43.1512587" lon="12.1977871"><ele>387.5</ele><time>2026-03-29T12:19:58.743Z</time></trkpt><trkpt lat="43.1511736" lon="12.1976325"><ele>385.0</ele><time>2026-03-29T12:19:59.743Z</time></trkpt><trkpt lat="43.1510923" lon="12.1974786"><ele>386.25</ele><time>2026-03-29T12:20:00.743Z</time></trkpt><trkpt lat="43.1510118" lon="12.1973251"><ele>387.5</ele><time>2026-03-29T12:20:01.743Z</time></trkpt><trkpt lat="43.1509472" lon="12.1971891"><ele>388.75</ele><time>2026-03-29T12:20:02.743Z</time></trkpt><trkpt lat="43.15088" lon="12.1970652"><ele>390.0</ele><time>2026-03-29T12:20:03.742Z</time></trkpt><trkpt lat="43.1508241" lon="12.1969446"><ele>390.0</ele><time>2026-03-29T12:20:04.743Z</time></trkpt><trkpt lat="43.150753" lon="12.1968401"><ele>390.0</ele><time>2026-03-29T12:20:05.743Z</time></trkpt><trkpt lat="43.1507145" lon="12.1967396"><ele>390.0</ele><time>2026-03-29T12:20:06.743Z</time></trkpt><trkpt lat="43.1506791" lon="12.1966526"><ele>390.0</ele><time>2026-03-29T12:20:07.743Z</time></trkpt><trkpt lat="43.1506113" lon="12.1965801"><ele>390.0</ele><time>2026-03-29T12:20:09.743Z</time></trkpt><trkpt lat="43.1505473" lon="12.196661"><ele>390.0</ele><time>2026-03-29T12:20:11.742Z</time></trkpt><trkpt lat="43.150461" lon="12.196707"><ele>384.25</ele><time>2026-03-29T12:20:13.743Z</time></trkpt><trkpt lat="43.15038" lon="12.1966439"><ele>378.5</ele><time>2026-03-29T12:20:15.743Z</time></trkpt><trkpt lat="43.1502664" lon="12.1964115"><ele>372.75</ele><time>2026-03-29T12:20:17.743Z</time></trkpt><trkpt lat="43.1502086" lon="12.1962913"><ele>367.0</ele><time>2026-03-29T12:20:18.743Z</time></trkpt><trkpt lat="43.1501739" lon="12.1961714"><ele>366.8</ele><time>2026-03-29T12:20:19.743Z</time></trkpt><trkpt lat="43.1501487" lon="12.196047"><ele>366.6</ele><time>2026-03-29T12:20:20.743Z</time></trkpt><trkpt lat="43.1501512" lon="12.195919"><ele>366.40000000000003</ele><time>2026-03-29T12:20:21.743Z</time></trkpt><trkpt lat="43.1501989" lon="12.1958357"><ele>366.20000000000005</ele><time>2026-03-29T12:20:22.742Z</time></trkpt><trkpt lat="43.1502479" lon="12.1957244"><ele>366.0</ele><time>2026-03-29T12:20:23.743Z</time></trkpt><trkpt lat="43.1503181" lon="12.1956419"><ele>363.5</ele><time>2026-03-29T12:20:24.743Z</time></trkpt><trkpt lat="43.1504094" lon="12.1955693"><ele>361.0</ele><time>2026-03-29T12:20:25.743Z</time></trkpt><trkpt lat="43.1505169" lon="12.1954667"><ele>358.5</ele><time>2026-03-29T12:20:26.743Z</time></trkpt><trkpt lat="43.150612" lon="12.1953578"><ele>356.0</ele><time>2026-03-29T12:20:27.743Z</time></trkpt><trkpt lat="43.1506995" lon="12.1952416"><ele>357.5</ele><time>2026-03-29T12:20:28.743Z</time></trkpt><trkpt lat="43.1507882" lon="12.1951424"><ele>359.0</ele><time>2026-03-29T12:20:29.742Z</time></trkpt><trkpt lat="43.1508933" lon="12.1950659"><ele>360.5</ele><time>2026-03-29T12:20:30.743Z</time></trkpt><trkpt lat="43.1510166" lon="12.1949925"><ele>362.0</ele><time>2026-03-29T12:20:31.743Z</time></trkpt><trkpt lat="43.1511179" lon="12.1949396"><ele>362.0</ele><time>2026-03-29T12:20:32.743Z</time></trkpt><trkpt lat="43.1512384" lon="12.194875"><ele>362.0</ele><time>2026-03-29T12:20:33.743Z</time></trkpt><trkpt lat="43.1513599" lon="12.1948287"><ele>362.0</ele><time>2026-03-29T12:20:34.743Z</time></trkpt><trkpt lat="43.1514648" lon="12.1948381"><ele>362.0</ele><time>2026-03-29T12:20:35.743Z</time></trkpt><trkpt lat="43.1515569" lon="12.1948339"><ele>361.8</ele><time>2026-03-29T12:20:36.743Z</time></trkpt><trkpt lat="43.1516324" lon="12.1948691"><ele>361.6</ele><time>2026-03-29T12:20:37.743Z</time></trkpt><trkpt lat="43.1517058" lon="12.1948594"><ele>361.40000000000003</ele><time>2026-03-29T12:20:40.743Z</time></trkpt><trkpt lat="43.1516551" lon="12.1947758"><ele>361.20000000000005</ele><time>2026-03-29T12:20:43.743Z</time></trkpt><trkpt lat="43.1515152" lon="12.1947386"><ele>361.0</ele><time>2026-03-29T12:20:45.743Z</time></trkpt><trkpt lat="43.1514298" lon="12.1947221"><ele>361.0</ele><time>2026-03-29T12:20:46.743Z</time></trkpt><trkpt lat="43.1513302" lon="12.194693"><ele>361.0</ele><time>2026-03-29T12:20:47.743Z</time></trkpt><trkpt lat="43.1512333" lon="12.1946531"><ele>361.0</ele><time>2026-03-29T12:20:48.743Z</time></trkpt><trkpt lat="43.1511442" lon="12.194637"><ele>361.0</ele><time>2026-03-29T12:20:49.743Z</time></trkpt><trkpt lat="43.1510721" lon="12.1946223"><ele>361.0</ele><time>2026-03-29T12:20:50.743Z</time></trkpt><trkpt lat="43.1509783" lon="12.1946238"><ele>361.0</ele><time>2026-03-29T12:20:51.743Z</time></trkpt><trkpt lat="43.1508769" lon="12.194637"><ele>361.0</ele><time>2026-03-29T12:20:52.743Z</time></trkpt><trkpt lat="43.1507758" lon="12.19467"><ele>361.0</ele><time>2026-03-29T12:20:53.743Z</time></trkpt><trkpt lat="43.1506773" lon="12.1946979"><ele>361.0</ele><time>2026-03-29T12:20:54.743Z</time></trkpt><trkpt lat="43.1505783" lon="12.1947281"><ele>361.0</ele><time>2026-03-29T12:20:55.743Z</time></trkpt><trkpt lat="43.1504866" lon="12.1947613"><ele>360.4</ele><time>2026-03-29T12:20:56.742Z</time></trkpt><trkpt lat="43.1504088" lon="12.1947943"><ele>359.8</ele><time>2026-03-29T12:20:57.743Z</time></trkpt><trkpt lat="43.1503373" lon="12.1948232"><ele>359.2</ele><time>2026-03-29T12:20:58.743Z</time></trkpt><trkpt lat="43.1502289" lon="12.1948184"><ele>358.59999999999997</ele><time>2026-03-29T12:21:00.743Z</time></trkpt><trkpt lat="43.1501675" lon="12.1947106"><ele>358.0</ele><time>2026-03-29T12:21:02.743Z</time></trkpt><trkpt lat="43.1501264" lon="12.1944862"><ele>358.0</ele><time>2026-03-29T12:21:04.743Z</time></trkpt><trkpt lat="43.1500882" lon="12.1943524"><ele>358.0</ele><time>2026-03-29T12:21:05.743Z</time></trkpt><trkpt lat="43.1500309" lon="12.194227"><ele>358.0</ele><time>2026-03-29T12:21:06.743Z</time></trkpt><trkpt lat="43.1499626" lon="12.1941288"><ele>358.0</ele><time>2026-03-29T12:21:07.743Z</time></trkpt><trkpt lat="43.1499003" lon="12.1940453"><ele>358.0</ele><time>2026-03-29T12:21:08.743Z</time></trkpt><trkpt lat="43.1498391" lon="12.193982"><ele>358.00000000000006</ele><time>2026-03-29T12:21:09.742Z</time></trkpt><trkpt lat="43.1497852" lon="12.193927"><ele>358.0</ele><time>2026-03-29T12:21:10.743Z</time></trkpt><trkpt lat="43.1497321" lon="12.193867"><ele>358.0</ele><time>2026-03-29T12:21:11.743Z</time></trkpt><trkpt lat="43.1496745" lon="12.1938111"><ele>358.0</ele><time>2026-03-29T12:21:12.743Z</time></trkpt><trkpt lat="43.1496258" lon="12.1937553"><ele>358.0</ele><time>2026-03-29T12:21:13.742Z</time></trkpt><trkpt lat="43.149578" lon="12.1936846"><ele>358.00000000000006</ele><time>2026-03-29T12:21:14.743Z</time></trkpt><trkpt lat="43.1495124" lon="12.1935823"><ele>358.0</ele><time>2026-03-29T12:21:15.743Z</time></trkpt><trkpt lat="43.1494522" lon="12.1934751"><ele>358.0</ele><time>2026-03-29T12:21:16.743Z</time></trkpt><trkpt lat="43.1493989" lon="12.1933482"><ele>358.0</ele><time>2026-03-29T12:21:17.742Z</time></trkpt><trkpt lat="43.1493371" lon="12.1932038"><ele>358.0</ele><time>2026-03-29T12:21:18.743Z</time></trkpt><trkpt lat="43.1492665" lon="12.1930684"><ele>358.0</ele><time>2026-03-29T12:21:19.743Z</time></trkpt><trkpt lat="43.1492024" lon="12.1928976"><ele>360.0</ele><time>2026-03-29T12:21:20.743Z</time></trkpt><trkpt lat="43.1491379" lon="12.1927227"><ele>362.0</ele><time>2026-03-29T12:21:21.743Z</time></trkpt><trkpt lat="43.1490779" lon="12.192573"><ele>364.0</ele><time>2026-03-29T12:21:22.743Z</time></trkpt><trkpt lat="43.1490282" lon="12.1924266"><ele>366.0</ele><time>2026-03-29T12:21:23.743Z</time></trkpt><trkpt lat="43.1490065" lon="12.1922813"><ele>366.25</ele><time>2026-03-29T12:21:24.743Z</time></trkpt><trkpt lat="43.149001" lon="12.1921178"><ele>366.5</ele><time>2026-03-29T12:21:25.743Z</time></trkpt><trkpt lat="43.1490161" lon="12.1919378"><ele>366.75</ele><time>2026-03-29T12:21:26.743Z</time></trkpt><trkpt lat="43.1490561" lon="12.1917657"><ele>367.0</ele><time>2026-03-29T12:21:27.743Z</time></trkpt><trkpt lat="43.1490988" lon="12.1915777"><ele>367.0</ele><time>2026-03-29T12:21:28.743Z</time></trkpt><trkpt lat="43.1491482" lon="12.1913887"><ele>367.0</ele><time>2026-03-29T12:21:29.743Z</time></trkpt><trkpt lat="43.1491953" lon="12.1912147"><ele>367.0</ele><time>2026-03-29T12:21:30.743Z</time></trkpt><trkpt lat="43.1492492" lon="12.1910499"><ele>367.0</ele><time>2026-03-29T12:21:31.743Z</time></trkpt><trkpt lat="43.1492986" lon="12.1908989"><ele>367.0</ele><time>2026-03-29T12:21:32.743Z</time></trkpt><trkpt lat="43.1493459" lon="12.1907682"><ele>367.0</ele><time>2026-03-29T12:21:33.743Z</time></trkpt><trkpt lat="43.1493836" lon="12.1906521"><ele>367.0</ele><time>2026-03-29T12:21:34.743Z</time></trkpt><trkpt lat="43.1494159" lon="12.1905215"><ele>367.0</ele><time>2026-03-29T12:21:35.743Z</time></trkpt><trkpt lat="43.1494318" lon="12.1903777"><ele>367.0</ele><time>2026-03-29T12:21:36.743Z</time></trkpt><trkpt lat="43.149435" lon="12.190218"><ele>367.8</ele><time>2026-03-29T12:21:37.743Z</time></trkpt><trkpt lat="43.1494214" lon="12.1900413"><ele>368.6</ele><time>2026-03-29T12:21:38.743Z</time></trkpt><trkpt lat="43.1494115" lon="12.1898662"><ele>369.40000000000003</ele><time>2026-03-29T12:21:39.743Z</time></trkpt><trkpt lat="43.1494054" lon="12.1897042"><ele>370.20000000000005</ele><time>2026-03-29T12:21:40.742Z</time></trkpt><trkpt lat="43.1494248" lon="12.1896114"><ele>371.0</ele><time>2026-03-29T12:21:41.743Z</time></trkpt><trkpt lat="43.1494304" lon="12.1894973"><ele>372.6</ele><time>2026-03-29T12:21:42.743Z</time></trkpt><trkpt lat="43.1494139" lon="12.1893431"><ele>374.20000000000005</ele><time>2026-03-29T12:21:44.743Z</time></trkpt><trkpt lat="43.1493889" lon="12.18924"><ele>375.79999999999995</ele><time>2026-03-29T12:21:46.743Z</time></trkpt><trkpt lat="43.1493626" lon="12.1891453"><ele>377.4</ele><time>2026-03-29T12:21:49.743Z</time></trkpt><trkpt lat="43.1493646" lon="12.1892783"><ele>379.0</ele><time>2026-03-29T12:21:52.743Z</time></trkpt><trkpt lat="43.1493874" lon="12.1894244"><ele>379.0</ele><time>2026-03-29T12:21:54.743Z</time></trkpt><trkpt lat="43.1493904" lon="12.1896018"><ele>379.0</ele><time>2026-03-29T12:21:56.743Z</time></trkpt><trkpt lat="43.1493902" lon="12.1896894"><ele>379.0</ele><time>2026-03-29T12:21:57.743Z</time></trkpt><trkpt lat="43.1493857" lon="12.1897795"><ele>379.0</ele><time>2026-03-29T12:21:58.742Z</time></trkpt><trkpt lat="43.1493749" lon="12.1898828"><ele>379.0</ele><time>2026-03-29T12:22:00.743Z</time></trkpt><trkpt lat="43.1492768" lon="12.1899011"><ele>379.0</ele><time>2026-03-29T12:22:02.743Z</time></trkpt><trkpt lat="43.1492107" lon="12.1898814"><ele>379.0</ele><time>2026-03-29T12:22:03.743Z</time></trkpt><trkpt lat="43.1491307" lon="12.1898614"><ele>379.0</ele><time>2026-03-29T12:22:04.742Z</time></trkpt><trkpt lat="43.1490474" lon="12.1898415"><ele>379.0</ele><time>2026-03-29T12:22:05.743Z</time></trkpt><trkpt lat="43.1489673" lon="12.1898269"><ele>379.0</ele><time>2026-03-29T12:22:06.743Z</time></trkpt><trkpt lat="43.1488836" lon="12.189806"><ele>379.0</ele><time>2026-03-29T12:22:07.743Z</time></trkpt><trkpt lat="43.1487992" lon="12.1897718"><ele>379.0</ele><time>2026-03-29T12:22:08.743Z</time></trkpt><trkpt lat="43.1487071" lon="12.1897263"><ele>379.4</ele><time>2026-03-29T12:22:09.743Z</time></trkpt><trkpt lat="43.1486098" lon="12.1896634"><ele>379.79999999999995</ele><time>2026-03-29T12:22:10.743Z</time></trkpt><trkpt lat="43.1485068" lon="12.1896129"><ele>380.20000000000005</ele><time>2026-03-29T12:22:11.743Z</time></trkpt><trkpt lat="43.1484071" lon="12.1895554"><ele>380.6</ele><time>2026-03-29T12:22:12.743Z</time></trkpt><trkpt lat="43.1483031" lon="12.1895205"><ele>381.0</ele><time>2026-03-29T12:22:13.743Z</time></trkpt><trkpt lat="43.1481905" lon="12.1894916"><ele>378.25</ele><time>2026-03-29T12:22:14.743Z</time></trkpt><trkpt lat="43.1480698" lon="12.189476"><ele>375.5</ele><time>2026-03-29T12:22:15.743Z</time></trkpt><trkpt lat="43.1479283" lon="12.1894748"><ele>372.75</ele><time>2026-03-29T12:22:16.743Z</time></trkpt><trkpt lat="43.1477924" lon="12.1894582"><ele>370.0</ele><time>2026-03-29T12:22:17.743Z</time></trkpt><trkpt lat="43.1476544" lon="12.1894246"><ele>370.0</ele><time>2026-03-29T12:22:18.743Z</time></trkpt><trkpt lat="43.1475193" lon="12.1893903"><ele>370.0</ele><time>2026-03-29T12:22:19.743Z</time></trkpt><trkpt lat="43.1473862" lon="12.1893555"><ele>370.0</ele><time>2026-03-29T12:22:20.743Z</time></trkpt><trkpt lat="43.1472574" lon="12.1893343"><ele>370.0</ele><time>2026-03-29T12:22:21.743Z</time></trkpt><trkpt lat="43.1471439" lon="12.1893148"><ele>367.6</ele><time>2026-03-29T12:22:22.743Z</time></trkpt><trkpt lat="43.1470433" lon="12.1893084"><ele>365.2</ele><time>2026-03-29T12:22:23.743Z</time></trkpt><trkpt lat="43.1469376" lon="12.1893194"><ele>362.79999999999995</ele><time>2026-03-29T12:22:24.743Z</time></trkpt><trkpt lat="43.1468392" lon="12.1893395"><ele>360.4</ele><time>2026-03-29T12:22:25.743Z</time></trkpt><trkpt lat="43.1467458" lon="12.189368"><ele>358.0</ele><time>2026-03-29T12:22:26.743Z</time></trkpt><trkpt lat="43.1466515" lon="12.1893798"><ele>358.0</ele><time>2026-03-29T12:22:27.743Z</time></trkpt><trkpt lat="43.1465775" lon="12.1893765"><ele>358.0</ele><time>2026-03-29T12:22:28.743Z</time></trkpt><trkpt lat="43.1464693" lon="12.1893211"><ele>358.0</ele><time>2026-03-29T12:22:30.743Z</time></trkpt><trkpt lat="43.1464417" lon="12.1891814"><ele>358.0</ele><time>2026-03-29T12:22:31.743Z</time></trkpt><trkpt lat="43.1464017" lon="12.1890827"><ele>358.0</ele><time>2026-03-29T12:22:32.743Z</time></trkpt><trkpt lat="43.1463042" lon="12.1888999"><ele>356.75</ele><time>2026-03-29T12:22:33.743Z</time></trkpt><trkpt lat="43.1462349" lon="12.1887353"><ele>355.5</ele><time>2026-03-29T12:22:34.742Z</time></trkpt><trkpt lat="43.1461548" lon="12.1885597"><ele>354.25</ele><time>2026-03-29T12:22:35.743Z</time></trkpt><trkpt lat="43.146076" lon="12.1884527"><ele>353.0</ele><time>2026-03-29T12:22:36.743Z</time></trkpt><trkpt lat="43.1459699" lon="12.18834"><ele>353.0</ele><time>2026-03-29T12:22:37.742Z</time></trkpt><trkpt lat="43.1458542" lon="12.1882266"><ele>353.0</ele><time>2026-03-29T12:22:38.743Z</time></trkpt><trkpt lat="43.1457555" lon="12.1881079"><ele>353.0</ele><time>2026-03-29T12:22:39.743Z</time></trkpt><trkpt lat="43.1456387" lon="12.1879815"><ele>353.0</ele><time>2026-03-29T12:22:40.743Z</time></trkpt><trkpt lat="43.1455378" lon="12.1878653"><ele>354.5</ele><time>2026-03-29T12:22:41.743Z</time></trkpt><trkpt lat="43.1454492" lon="12.187774"><ele>356.0</ele><time>2026-03-29T12:22:42.743Z</time></trkpt><trkpt lat="43.1453621" lon="12.1876967"><ele>357.5</ele><time>2026-03-29T12:22:43.743Z</time></trkpt><trkpt lat="43.1452586" lon="12.1876149"><ele>359.0</ele><time>2026-03-29T12:22:44.743Z</time></trkpt><trkpt lat="43.1451434" lon="12.1875508"><ele>359.0</ele><time>2026-03-29T12:22:45.743Z</time></trkpt><trkpt lat="43.1450237" lon="12.1874978"><ele>359.0</ele><time>2026-03-29T12:22:46.743Z</time></trkpt><trkpt lat="43.1449211" lon="12.1875728"><ele>359.0</ele><time>2026-03-29T12:22:47.742Z</time></trkpt><trkpt lat="43.1447951" lon="12.1876257"><ele>359.0</ele><time>2026-03-29T12:22:48.743Z</time></trkpt><trkpt lat="43.1446712" lon="12.187702"><ele>358.0</ele><time>2026-03-29T12:22:49.743Z</time></trkpt><trkpt lat="43.1445776" lon="12.1877412"><ele>357.0</ele><time>2026-03-29T12:22:50.743Z</time></trkpt><trkpt lat="43.1444862" lon="12.1877574"><ele>356.0</ele><time>2026-03-29T12:22:51.743Z</time></trkpt><trkpt lat="43.144405" lon="12.1877484"><ele>355.0</ele><time>2026-03-29T12:22:52.743Z</time></trkpt><trkpt lat="43.1443642" lon="12.1876819"><ele>354.0</ele><time>2026-03-29T12:22:53.742Z</time></trkpt><trkpt lat="43.1443452" lon="12.1875791"><ele>353.0</ele><time>2026-03-29T12:22:54.743Z</time></trkpt><trkpt lat="43.1443487" lon="12.1874447"><ele>355.33333333333337</ele><time>2026-03-29T12:22:55.743Z</time></trkpt><trkpt lat="43.144349" lon="12.1872366"><ele>357.6666666666667</ele><time>2026-03-29T12:22:56.743Z</time></trkpt><trkpt lat="43.1443536" lon="12.1870458"><ele>360.0</ele><time>2026-03-29T12:22:57.743Z</time></trkpt><trkpt lat="43.1443435" lon="12.1868174"><ele>360.0</ele><time>2026-03-29T12:22:58.743Z</time></trkpt><trkpt lat="43.1443444" lon="12.1866412"><ele>360.0</ele><time>2026-03-29T12:22:59.742Z</time></trkpt><trkpt lat="43.1443444" lon="12.1865135"><ele>360.0</ele><time>2026-03-29T12:23:00.743Z</time></trkpt><trkpt lat="43.1442816" lon="12.18638"><ele>360.0</ele><time>2026-03-29T12:23:02.743Z</time></trkpt><trkpt lat="43.1443107" lon="12.1862399"><ele>360.0</ele><time>2026-03-29T12:23:05.743Z</time></trkpt><trkpt lat="43.1443494" lon="12.1861535"><ele>362.0</ele><time>2026-03-29T12:23:06.743Z</time></trkpt><trkpt lat="43.1443798" lon="12.1860585"><ele>364.0</ele><time>2026-03-29T12:23:07.743Z</time></trkpt><trkpt lat="43.1443762" lon="12.185937"><ele>366.0</ele><time>2026-03-29T12:23:08.743Z</time></trkpt><trkpt lat="43.1443684" lon="12.1858054"><ele>368.0</ele><time>2026-03-29T12:23:09.743Z</time></trkpt><trkpt lat="43.1443426" lon="12.1856666"><ele>370.0</ele><time>2026-03-29T12:23:10.742Z</time></trkpt><trkpt lat="43.144298" lon="12.1855186"><ele>373.25</ele><time>2026-03-29T12:23:11.743Z</time></trkpt><trkpt lat="43.1442522" lon="12.1853436"><ele>376.5</ele><time>2026-03-29T12:23:12.743Z</time></trkpt><trkpt lat="43.1441928" lon="12.1851669"><ele>379.75</ele><time>2026-03-29T12:23:13.743Z</time></trkpt><trkpt lat="43.1441484" lon="12.1850232"><ele>383.0</ele><time>2026-03-29T12:23:14.743Z</time></trkpt><trkpt lat="43.1441189" lon="12.1848778"><ele>384.0</ele><time>2026-03-29T12:23:15.742Z</time></trkpt><trkpt lat="43.1440953" lon="12.184717"><ele>385.0</ele><time>2026-03-29T12:23:16.742Z</time></trkpt><trkpt lat="43.1440689" lon="12.1845674"><ele>386.0</ele><time>2026-03-29T12:23:17.743Z</time></trkpt><trkpt lat="43.1440153" lon="12.1844426"><ele>387.0</ele><time>2026-03-29T12:23:18.742Z</time></trkpt><trkpt lat="43.1439575" lon="12.1842955"><ele>387.0</ele><time>2026-03-29T12:23:19.742Z</time></trkpt><trkpt lat="43.1438654" lon="12.1841523"><ele>387.0</ele><time>2026-03-29T12:23:20.743Z</time></trkpt><trkpt lat="43.1437916" lon="12.1840318"><ele>387.0</ele><time>2026-03-29T12:23:21.743Z</time></trkpt><trkpt lat="43.1437077" lon="12.1839645"><ele>387.0</ele><time>2026-03-29T12:23:22.743Z</time></trkpt><trkpt lat="43.1436492" lon="12.1838766"><ele>387.0</ele><time>2026-03-29T12:23:23.743Z</time></trkpt><trkpt lat="43.1435681" lon="12.1837642"><ele>389.75</ele><time>2026-03-29T12:23:24.743Z</time></trkpt><trkpt lat="43.143477" lon="12.1836683"><ele>392.5</ele><time>2026-03-29T12:23:25.743Z</time></trkpt><trkpt lat="43.1433699" lon="12.1835364"><ele>395.25</ele><time>2026-03-29T12:23:26.743Z</time></trkpt><trkpt lat="43.1432714" lon="12.1834059"><ele>398.0</ele><time>2026-03-29T12:23:27.743Z</time></trkpt><trkpt lat="43.1431883" lon="12.1833184"><ele>398.0</ele><time>2026-03-29T12:23:28.743Z</time></trkpt><trkpt lat="43.1430797" lon="12.1832452"><ele>398.0</ele><time>2026-03-29T12:23:29.743Z</time></trkpt><trkpt lat="43.1429464" lon="12.1831644"><ele>398.0</ele><time>2026-03-29T12:23:30.743Z</time></trkpt><trkpt lat="43.1428159" lon="12.1831051"><ele>398.0</ele><time>2026-03-29T12:23:31.743Z</time></trkpt><trkpt lat="43.1426782" lon="12.1830702"><ele>400.4</ele><time>2026-03-29T12:23:32.743Z</time></trkpt><trkpt lat="43.1425612" lon="12.1830308"><ele>402.79999999999995</ele><time>2026-03-29T12:23:33.743Z</time></trkpt><trkpt lat="43.1424582" lon="12.1829993"><ele>405.2</ele><time>2026-03-29T12:23:34.743Z</time></trkpt><trkpt lat="43.1423575" lon="12.1829539"><ele>407.6</ele><time>2026-03-29T12:23:35.742Z</time></trkpt><trkpt lat="43.1422668" lon="12.1829303"><ele>410.0</ele><time>2026-03-29T12:23:36.743Z</time></trkpt><trkpt lat="43.1421644" lon="12.1828724"><ele>410.0</ele><time>2026-03-29T12:23:37.743Z</time></trkpt><trkpt lat="43.1420475" lon="12.182803"><ele>410.0</ele><time>2026-03-29T12:23:38.743Z</time></trkpt><trkpt lat="43.1419458" lon="12.1827472"><ele>410.0</ele><time>2026-03-29T12:23:39.743Z</time></trkpt><trkpt lat="43.1418459" lon="12.1827013"><ele>410.0</ele><time>2026-03-29T12:23:40.743Z</time></trkpt><trkpt lat="43.1417687" lon="12.1826892"><ele>410.0</ele><time>2026-03-29T12:23:41.742Z</time></trkpt><trkpt lat="43.1416798" lon="12.1826789"><ele>409.99999999999994</ele><time>2026-03-29T12:23:43.742Z</time></trkpt><trkpt lat="43.1415794" lon="12.182667"><ele>410.0</ele><time>2026-03-29T12:23:45.743Z</time></trkpt><trkpt lat="43.141514" lon="12.1826447"><ele>410.0</ele><time>2026-03-29T12:23:46.742Z</time></trkpt><trkpt lat="43.1414509" lon="12.182625"><ele>410.0</ele><time>2026-03-29T12:23:47.743Z</time></trkpt><trkpt lat="43.1413826" lon="12.182633"><ele>409.99999999999994</ele><time>2026-03-29T12:23:48.743Z</time></trkpt><trkpt lat="43.1413165" lon="12.182652"><ele>410.0</ele><time>2026-03-29T12:23:49.743Z</time></trkpt><trkpt lat="43.1412357" lon="12.1826953"><ele>410.3333333333333</ele><time>2026-03-29T12:23:50.742Z</time></trkpt><trkpt lat="43.1411444" lon="12.1827327"><ele>410.66666666666663</ele><time>2026-03-29T12:23:51.742Z</time></trkpt><trkpt lat="43.1410504" lon="12.1827719"><ele>411.0</ele><time>2026-03-29T12:23:52.743Z</time></trkpt><trkpt lat="43.1409707" lon="12.1827854"><ele>411.33333333333337</ele><time>2026-03-29T12:23:53.743Z</time></trkpt><trkpt lat="43.1408932" lon="12.1827808"><ele>411.6666666666667</ele><time>2026-03-29T12:23:55.743Z</time></trkpt><trkpt lat="43.1408316" lon="12.1828061"><ele>412.0</ele><time>2026-03-29T12:23:57.743Z</time></trkpt><trkpt lat="43.1407684" lon="12.1828259"><ele>412.33333333333337</ele><time>2026-03-29T12:23:59.743Z</time></trkpt><trkpt lat="43.1407083" lon="12.1828686"><ele>412.6666666666667</ele><time>2026-03-29T12:24:01.743Z</time></trkpt><trkpt lat="43.1406428" lon="12.1829009"><ele>413.0</ele><time>2026-03-29T12:24:03.742Z</time></trkpt><trkpt lat="43.1405683" lon="12.1829214"><ele>413.33333333333337</ele><time>2026-03-29T12:24:05.743Z</time></trkpt><trkpt lat="43.140479" lon="12.1829426"><ele>413.6666666666667</ele><time>2026-03-29T12:24:07.743Z</time></trkpt><trkpt lat="43.140392" lon="12.182977"><ele>414.0</ele><time>2026-03-29T12:24:09.743Z</time></trkpt><trkpt lat="43.1403129" lon="12.182991"><ele>414.0</ele><time>2026-03-29T12:24:11.743Z</time></trkpt><trkpt lat="43.1402351" lon="12.1830012"><ele>414.0</ele><time>2026-03-29T12:24:13.743Z</time></trkpt><trkpt lat="43.1401588" lon="12.1830281"><ele>414.0</ele><time>2026-03-29T12:24:15.743Z</time></trkpt><trkpt lat="43.1400899" lon="12.1830228"><ele>414.0</ele><time>2026-03-29T12:24:17.743Z</time></trkpt><trkpt lat="43.140013" lon="12.183019"><ele>414.0</ele><time>2026-03-29T12:24:19.743Z</time></trkpt><trkpt lat="43.1399266" lon="12.1830285"><ele>414.0</ele><time>2026-03-29T12:24:21.742Z</time></trkpt><trkpt lat="43.1398506" lon="12.1830322"><ele>414.0</ele><time>2026-03-29T12:24:23.743Z</time></trkpt><trkpt lat="43.1400316" lon="12.1830416"><ele>414.0</ele><time>2026-03-29T12:24:31.743Z</time></trkpt><trkpt lat="43.1401006" lon="12.1830425"><ele>414.0</ele><time>2026-03-29T12:24:33.743Z</time></trkpt><trkpt lat="43.1401655" lon="12.1830513"><ele>414.0</ele><time>2026-03-29T12:24:58.743Z</time></trkpt><trkpt lat="43.1402225" lon="12.1829967"><ele>414.0</ele><time>2026-03-29T12:25:01.743Z</time></trkpt><trkpt lat="43.1401211" lon="12.18306"><ele>414.00000000000006</ele><time>2026-03-29T12:25:07.743Z</time></trkpt><trkpt lat="43.1400562" lon="12.1830583"><ele>414.0</ele><time>2026-03-29T12:25:08.743Z</time></trkpt><trkpt lat="43.1399848" lon="12.1830507"><ele>414.0</ele><time>2026-03-29T12:25:09.743Z</time></trkpt><trkpt lat="43.1399101" lon="12.1830458"><ele>414.0</ele><time>2026-03-29T12:25:10.743Z</time></trkpt><trkpt lat="43.1398364" lon="12.1830428"><ele>414.0</ele><time>2026-03-29T12:25:11.743Z</time></trkpt><trkpt lat="43.1397621" lon="12.1830419"><ele>414.00000000000006</ele><time>2026-03-29T12:25:12.742Z</time></trkpt><trkpt lat="43.1396853" lon="12.1830512"><ele>414.0</ele><time>2026-03-29T12:25:13.743Z</time></trkpt><trkpt lat="43.1395989" lon="12.1830652"><ele>414.4</ele><time>2026-03-29T12:25:14.743Z</time></trkpt><trkpt lat="43.1395102" lon="12.1830778"><ele>414.79999999999995</ele><time>2026-03-29T12:25:15.743Z</time></trkpt><trkpt lat="43.139418" lon="12.1830726"><ele>415.20000000000005</ele><time>2026-03-29T12:25:16.743Z</time></trkpt><trkpt lat="43.1393115" lon="12.183078"><ele>415.6</ele><time>2026-03-29T12:25:17.743Z</time></trkpt><trkpt lat="43.1392049" lon="12.1830963"><ele>416.0</ele><time>2026-03-29T12:25:18.743Z</time></trkpt><trkpt lat="43.1390956" lon="12.1831316"><ele>415.6</ele><time>2026-03-29T12:25:19.743Z</time></trkpt><trkpt lat="43.1389875" lon="12.1831496"><ele>415.20000000000005</ele><time>2026-03-29T12:25:20.743Z</time></trkpt><trkpt lat="43.1388855" lon="12.1831519"><ele>414.79999999999995</ele><time>2026-03-29T12:25:21.743Z</time></trkpt><trkpt lat="43.1387834" lon="12.1831481"><ele>414.4</ele><time>2026-03-29T12:25:22.743Z</time></trkpt><trkpt lat="43.138674" lon="12.1831307"><ele>414.0</ele><time>2026-03-29T12:25:23.743Z</time></trkpt><trkpt lat="43.1385573" lon="12.1831146"><ele>414.0</ele><time>2026-03-29T12:25:24.743Z</time></trkpt><trkpt lat="43.1384417" lon="12.1830936"><ele>414.0</ele><time>2026-03-29T12:25:25.743Z</time></trkpt><trkpt lat="43.1383264" lon="12.1830774"><ele>414.0</ele><time>2026-03-29T12:25:26.743Z</time></trkpt><trkpt lat="43.1382131" lon="12.1830623"><ele>414.0</ele><time>2026-03-29T12:25:27.743Z</time></trkpt><trkpt lat="43.1381044" lon="12.1830503"><ele>412.6</ele><time>2026-03-29T12:25:28.743Z</time></trkpt><trkpt lat="43.1380058" lon="12.1830367"><ele>411.2</ele><time>2026-03-29T12:25:29.743Z</time></trkpt><trkpt lat="43.1379168" lon="12.1830288"><ele>409.8</ele><time>2026-03-29T12:25:30.743Z</time></trkpt><trkpt lat="43.1378356" lon="12.183011"><ele>408.40000000000003</ele><time>2026-03-29T12:25:31.743Z</time></trkpt><trkpt lat="43.1377709" lon="12.1830005"><ele>407.0</ele><time>2026-03-29T12:25:32.743Z</time></trkpt><trkpt lat="43.1376547" lon="12.1829913"><ele>406.99999999999994</ele><time>2026-03-29T12:25:34.743Z</time></trkpt><trkpt lat="43.1375412" lon="12.1830204"><ele>407.0</ele><time>2026-03-29T12:25:36.743Z</time></trkpt><trkpt lat="43.1374675" lon="12.1831066"><ele>407.0</ele><time>2026-03-29T12:25:38.743Z</time></trkpt><trkpt lat="43.1374314" lon="12.1831781"><ele>407.0</ele><time>2026-03-29T12:25:39.743Z</time></trkpt><trkpt lat="43.1374076" lon="12.1832689"><ele>406.99999999999994</ele><time>2026-03-29T12:25:40.743Z</time></trkpt><trkpt lat="43.1373901" lon="12.1833886"><ele>407.0</ele><time>2026-03-29T12:25:41.743Z</time></trkpt><trkpt lat="43.1373624" lon="12.1835268"><ele>406.8</ele><time>2026-03-29T12:25:42.743Z</time></trkpt><trkpt lat="43.1373304" lon="12.1836779"><ele>406.6</ele><time>2026-03-29T12:25:43.743Z</time></trkpt><trkpt lat="43.137299" lon="12.1838275"><ele>406.40000000000003</ele><time>2026-03-29T12:25:44.743Z</time></trkpt><trkpt lat="43.137257" lon="12.1839419"><ele>406.20000000000005</ele><time>2026-03-29T12:25:45.743Z</time></trkpt><trkpt lat="43.1371968" lon="12.1840261"><ele>406.0</ele><time>2026-03-29T12:25:46.743Z</time></trkpt><trkpt lat="43.1371076" lon="12.1840623"><ele>408.25</ele><time>2026-03-29T12:25:47.743Z</time></trkpt><trkpt lat="43.1370142" lon="12.184102"><ele>410.5</ele><time>2026-03-29T12:25:48.743Z</time></trkpt><trkpt lat="43.1368637" lon="12.184109"><ele>412.75</ele><time>2026-03-29T12:25:49.743Z</time></trkpt><trkpt lat="43.1367218" lon="12.1841478"><ele>415.0</ele><time>2026-03-29T12:25:50.743Z</time></trkpt><trkpt lat="43.1365856" lon="12.1841993"><ele>412.33333333333337</ele><time>2026-03-29T12:25:51.743Z</time></trkpt><trkpt lat="43.1364467" lon="12.1842721"><ele>409.66666666666663</ele><time>2026-03-29T12:25:52.743Z</time></trkpt><trkpt lat="43.1363003" lon="12.1843961"><ele>407.0</ele><time>2026-03-29T12:25:53.743Z</time></trkpt><trkpt lat="43.1361716" lon="12.1844646"><ele>407.0</ele><time>2026-03-29T12:25:54.743Z</time></trkpt><trkpt lat="43.136065" lon="12.1844985"><ele>407.0</ele><time>2026-03-29T12:25:55.743Z</time></trkpt><trkpt lat="43.1359677" lon="12.1844882"><ele>407.0</ele><time>2026-03-29T12:25:56.743Z</time></trkpt><trkpt lat="43.1358719" lon="12.184439"><ele>407.0</ele><time>2026-03-29T12:25:57.743Z</time></trkpt><trkpt lat="43.1357969" lon="12.1844081"><ele>407.0</ele><time>2026-03-29T12:25:58.743Z</time></trkpt><trkpt lat="43.1356913" lon="12.1843973"><ele>404.8333333333333</ele><time>2026-03-29T12:25:59.743Z</time></trkpt><trkpt lat="43.1355836" lon="12.1843921"><ele>402.66666666666663</ele><time>2026-03-29T12:26:00.743Z</time></trkpt><trkpt lat="43.135503" lon="12.1844007"><ele>400.5</ele><time>2026-03-29T12:26:01.743Z</time></trkpt><trkpt lat="43.135402" lon="12.1843998"><ele>398.33333333333337</ele><time>2026-03-29T12:26:03.742Z</time></trkpt><trkpt lat="43.1353911" lon="12.1842946"><ele>396.1666666666667</ele><time>2026-03-29T12:26:05.743Z</time></trkpt><trkpt lat="43.1354034" lon="12.1841979"><ele>394.0</ele><time>2026-03-29T12:26:06.743Z</time></trkpt><trkpt lat="43.1354355" lon="12.1840833"><ele>394.25</ele><time>2026-03-29T12:26:07.743Z</time></trkpt><trkpt lat="43.1354838" lon="12.1839577"><ele>394.5</ele><time>2026-03-29T12:26:08.743Z</time></trkpt><trkpt lat="43.1355492" lon="12.1838499"><ele>394.75</ele><time>2026-03-29T12:26:09.743Z</time></trkpt><trkpt lat="43.1356488" lon="12.1837475"><ele>395.0</ele><time>2026-03-29T12:26:10.743Z</time></trkpt><trkpt lat="43.1357596" lon="12.1836208"><ele>395.0</ele><time>2026-03-29T12:26:11.743Z</time></trkpt><trkpt lat="43.1358516" lon="12.1834943"><ele>395.0</ele><time>2026-03-29T12:26:12.743Z</time></trkpt><trkpt lat="43.1359264" lon="12.1833512"><ele>395.0</ele><time>2026-03-29T12:26:13.743Z</time></trkpt><trkpt lat="43.1359726" lon="12.1832131"><ele>395.0</ele><time>2026-03-29T12:26:14.742Z</time></trkpt><trkpt lat="43.1359884" lon="12.183064"><ele>394.5</ele><time>2026-03-29T12:26:15.743Z</time></trkpt><trkpt lat="43.13597" lon="12.1829229"><ele>394.0</ele><time>2026-03-29T12:26:16.743Z</time></trkpt><trkpt lat="43.1359125" lon="12.1827827"><ele>393.5</ele><time>2026-03-29T12:26:17.743Z</time></trkpt><trkpt lat="43.1358328" lon="12.1826632"><ele>393.0</ele><time>2026-03-29T12:26:18.742Z</time></trkpt><trkpt lat="43.1357561" lon="12.1825302"><ele>392.4</ele><time>2026-03-29T12:26:19.743Z</time></trkpt><trkpt lat="43.1356913" lon="12.1824142"><ele>391.79999999999995</ele><time>2026-03-29T12:26:20.743Z</time></trkpt><trkpt lat="43.1356398" lon="12.1823178"><ele>391.2</ele><time>2026-03-29T12:26:21.742Z</time></trkpt><trkpt lat="43.1355913" lon="12.1822289"><ele>390.6</ele><time>2026-03-29T12:26:22.743Z</time></trkpt><trkpt lat="43.1354962" lon="12.1821264"><ele>390.0</ele><time>2026-03-29T12:26:24.743Z</time></trkpt><trkpt lat="43.1354408" lon="12.1820733"><ele>390.0</ele><time>2026-03-29T12:26:25.743Z</time></trkpt><trkpt lat="43.135377" lon="12.1820153"><ele>390.0</ele><time>2026-03-29T12:26:26.743Z</time></trkpt><trkpt lat="43.1353214" lon="12.181956"><ele>390.0</ele><time>2026-03-29T12:26:27.743Z</time></trkpt><trkpt lat="43.1352625" lon="12.1818904"><ele>390.0</ele><time>2026-03-29T12:26:28.743Z</time></trkpt><trkpt lat="43.1351906" lon="12.1818232"><ele>390.0</ele><time>2026-03-29T12:26:29.743Z</time></trkpt><trkpt lat="43.1351253" lon="12.1817606"><ele>390.0</ele><time>2026-03-29T12:26:30.743Z</time></trkpt><trkpt lat="43.1350497" lon="12.181694"><ele>390.0</ele><time>2026-03-29T12:26:31.743Z</time></trkpt><trkpt lat="43.1349808" lon="12.1816369"><ele>390.0</ele><time>2026-03-29T12:26:32.743Z</time></trkpt><trkpt lat="43.134919" lon="12.1815771"><ele>390.0</ele><time>2026-03-29T12:26:33.743Z</time></trkpt><trkpt lat="43.1348502" lon="12.1815221"><ele>390.0</ele><time>2026-03-29T12:26:34.743Z</time></trkpt><trkpt lat="43.1347723" lon="12.181455"><ele>390.0</ele><time>2026-03-29T12:26:35.743Z</time></trkpt><trkpt lat="43.1346809" lon="12.1813947"><ele>390.0</ele><time>2026-03-29T12:26:36.743Z</time></trkpt><trkpt lat="43.1345647" lon="12.1813221"><ele>390.75</ele><time>2026-03-29T12:26:37.743Z</time></trkpt><trkpt lat="43.1344454" lon="12.1812679"><ele>391.5</ele><time>2026-03-29T12:26:38.743Z</time></trkpt><trkpt lat="43.1343163" lon="12.1811769"><ele>392.25</ele><time>2026-03-29T12:26:39.743Z</time></trkpt><trkpt lat="43.1341768" lon="12.1811003"><ele>393.0</ele><time>2026-03-29T12:26:40.743Z</time></trkpt><trkpt lat="43.1340358" lon="12.1810247"><ele>390.66666666666663</ele><time>2026-03-29T12:26:41.743Z</time></trkpt><trkpt lat="43.1338854" lon="12.1809422"><ele>388.3333333333333</ele><time>2026-03-29T12:26:42.743Z</time></trkpt><trkpt lat="43.1337302" lon="12.1808718"><ele>386.0</ele><time>2026-03-29T12:26:43.743Z</time></trkpt><trkpt lat="43.1335604" lon="12.1807916"><ele>386.0</ele><time>2026-03-29T12:26:44.743Z</time></trkpt><trkpt lat="43.133383" lon="12.1807068"><ele>386.0</ele><time>2026-03-29T12:26:45.743Z</time></trkpt><trkpt lat="43.1332114" lon="12.1806352"><ele>386.0</ele><time>2026-03-29T12:26:46.743Z</time></trkpt><trkpt lat="43.1330367" lon="12.1805589"><ele>386.0</ele><time>2026-03-29T12:26:47.743Z</time></trkpt><trkpt lat="43.1328698" lon="12.1804886"><ele>386.0</ele><time>2026-03-29T12:26:48.742Z</time></trkpt><trkpt lat="43.1327117" lon="12.1804225"><ele>386.0</ele><time>2026-03-29T12:26:49.743Z</time></trkpt><trkpt lat="43.13257" lon="12.1803616"><ele>386.0</ele><time>2026-03-29T12:26:50.743Z</time></trkpt><trkpt lat="43.1324293" lon="12.1802942"><ele>386.0</ele><time>2026-03-29T12:26:51.743Z</time></trkpt><trkpt lat="43.1322903" lon="12.1802299"><ele>386.0</ele><time>2026-03-29T12:26:52.743Z</time></trkpt><trkpt lat="43.1321635" lon="12.1801689"><ele>386.0</ele><time>2026-03-29T12:26:53.743Z</time></trkpt><trkpt lat="43.1320412" lon="12.1800961"><ele>385.25</ele><time>2026-03-29T12:26:54.743Z</time></trkpt><trkpt lat="43.1319021" lon="12.1800427"><ele>384.5</ele><time>2026-03-29T12:26:55.743Z</time></trkpt><trkpt lat="43.1317731" lon="12.1799986"><ele>383.75</ele><time>2026-03-29T12:26:56.743Z</time></trkpt><trkpt lat="43.1316585" lon="12.1799628"><ele>383.0</ele><time>2026-03-29T12:26:57.743Z</time></trkpt><trkpt lat="43.1315476" lon="12.1799284"><ele>381.5</ele><time>2026-03-29T12:26:58.743Z</time></trkpt><trkpt lat="43.131452" lon="12.1798535"><ele>380.0</ele><time>2026-03-29T12:26:59.743Z</time></trkpt><trkpt lat="43.1313512" lon="12.1797798"><ele>378.5</ele><time>2026-03-29T12:27:00.743Z</time></trkpt><trkpt lat="43.131245" lon="12.179721"><ele>377.0</ele><time>2026-03-29T12:27:01.743Z</time></trkpt><trkpt lat="43.1311318" lon="12.1796698"><ele>377.0</ele><time>2026-03-29T12:27:02.743Z</time></trkpt><trkpt lat="43.1310203" lon="12.1796204"><ele>377.0</ele><time>2026-03-29T12:27:03.743Z</time></trkpt><trkpt lat="43.130917" lon="12.179582"><ele>377.0</ele><time>2026-03-29T12:27:04.743Z</time></trkpt><trkpt lat="43.1308111" lon="12.1795485"><ele>377.0</ele><time>2026-03-29T12:27:05.743Z</time></trkpt><trkpt lat="43.1307125" lon="12.1795058"><ele>377.0</ele><time>2026-03-29T12:27:06.743Z</time></trkpt><trkpt lat="43.1306151" lon="12.1794763"><ele>377.40000000000003</ele><time>2026-03-29T12:27:07.743Z</time></trkpt><trkpt lat="43.130519" lon="12.1794387"><ele>377.8</ele><time>2026-03-29T12:27:08.743Z</time></trkpt><trkpt lat="43.1304161" lon="12.1793938"><ele>378.2</ele><time>2026-03-29T12:27:09.743Z</time></trkpt><trkpt lat="43.1303226" lon="12.1793488"><ele>378.6</ele><time>2026-03-29T12:27:10.743Z</time></trkpt><trkpt lat="43.1302283" lon="12.1793066"><ele>379.0</ele><time>2026-03-29T12:27:11.743Z</time></trkpt><trkpt lat="43.1301344" lon="12.1792632"><ele>379.0</ele><time>2026-03-29T12:27:12.743Z</time></trkpt><trkpt lat="43.1300421" lon="12.1792293"><ele>379.0</ele><time>2026-03-29T12:27:13.743Z</time></trkpt><trkpt lat="43.1299486" lon="12.17918"><ele>379.0</ele><time>2026-03-29T12:27:14.743Z</time></trkpt><trkpt lat="43.1298535" lon="12.1791391"><ele>379.0</ele><time>2026-03-29T12:27:15.743Z</time></trkpt><trkpt lat="43.129759" lon="12.1790964"><ele>379.0</ele><time>2026-03-29T12:27:16.742Z</time></trkpt><trkpt lat="43.1296594" lon="12.1790472"><ele>377.79999999999995</ele><time>2026-03-29T12:27:17.743Z</time></trkpt><trkpt lat="43.1295579" lon="12.1790083"><ele>376.59999999999997</ele><time>2026-03-29T12:27:18.743Z</time></trkpt><trkpt lat="43.1294568" lon="12.178963"><ele>375.4</ele><time>2026-03-29T12:27:19.743Z</time></trkpt><trkpt lat="43.1293597" lon="12.1789045"><ele>374.2</ele><time>2026-03-29T12:27:20.743Z</time></trkpt><trkpt lat="43.1292583" lon="12.1788442"><ele>373.0</ele><time>2026-03-29T12:27:21.743Z</time></trkpt><trkpt lat="43.1291501" lon="12.178788"><ele>373.75</ele><time>2026-03-29T12:27:22.742Z</time></trkpt><trkpt lat="43.129043" lon="12.1787236"><ele>374.5</ele><time>2026-03-29T12:27:23.743Z</time></trkpt><trkpt lat="43.1289228" lon="12.1786665"><ele>375.25</ele><time>2026-03-29T12:27:24.742Z</time></trkpt><trkpt lat="43.1287999" lon="12.1786014"><ele>376.0</ele><time>2026-03-29T12:27:25.743Z</time></trkpt><trkpt lat="43.1286721" lon="12.1785287"><ele>376.0</ele><time>2026-03-29T12:27:26.743Z</time></trkpt><trkpt lat="43.1285417" lon="12.1784636"><ele>376.0</ele><time>2026-03-29T12:27:27.743Z</time></trkpt><trkpt lat="43.128407" lon="12.1783956"><ele>376.0</ele><time>2026-03-29T12:27:28.743Z</time></trkpt><trkpt lat="43.1282772" lon="12.1783138"><ele>376.0</ele><time>2026-03-29T12:27:29.743Z</time></trkpt><trkpt lat="43.1281494" lon="12.1782092"><ele>375.25</ele><time>2026-03-29T12:27:30.743Z</time></trkpt><trkpt lat="43.1280282" lon="12.1781072"><ele>374.5</ele><time>2026-03-29T12:27:31.743Z</time></trkpt><trkpt lat="43.1279233" lon="12.1779855"><ele>373.75</ele><time>2026-03-29T12:27:32.743Z</time></trkpt><trkpt lat="43.1278011" lon="12.1778566"><ele>373.0</ele><time>2026-03-29T12:27:33.743Z</time></trkpt><trkpt lat="43.1276961" lon="12.1777046"><ele>373.0</ele><time>2026-03-29T12:27:34.743Z</time></trkpt><trkpt lat="43.1275972" lon="12.1775659"><ele>373.0</ele><time>2026-03-29T12:27:35.743Z</time></trkpt><trkpt lat="43.1275119" lon="12.1774557"><ele>373.0</ele><time>2026-03-29T12:27:36.743Z</time></trkpt><trkpt lat="43.1274329" lon="12.1773728"><ele>373.0</ele><time>2026-03-29T12:27:37.743Z</time></trkpt><trkpt lat="43.1273726" lon="12.1773057"><ele>373.0</ele><time>2026-03-29T12:27:38.743Z</time></trkpt><trkpt lat="43.1272988" lon="12.1772713"><ele>371.79999999999995</ele><time>2026-03-29T12:27:39.743Z</time></trkpt><trkpt lat="43.1272185" lon="12.1772678"><ele>370.6</ele><time>2026-03-29T12:27:40.743Z</time></trkpt><trkpt lat="43.1271521" lon="12.1772474"><ele>369.4</ele><time>2026-03-29T12:27:41.743Z</time></trkpt><trkpt lat="43.127085" lon="12.1771944"><ele>368.20000000000005</ele><time>2026-03-29T12:27:42.743Z</time></trkpt><trkpt lat="43.1269885" lon="12.1771311"><ele>367.0</ele><time>2026-03-29T12:27:43.743Z</time></trkpt><trkpt lat="43.1268671" lon="12.1770074"><ele>367.0</ele><time>2026-03-29T12:27:44.743Z</time></trkpt><trkpt lat="43.1267778" lon="12.1769082"><ele>367.0</ele><time>2026-03-29T12:27:45.743Z</time></trkpt><trkpt lat="43.1266789" lon="12.1767936"><ele>367.0</ele><time>2026-03-29T12:27:46.743Z</time></trkpt><trkpt lat="43.1265879" lon="12.1766729"><ele>367.0</ele><time>2026-03-29T12:27:47.743Z</time></trkpt><trkpt lat="43.1265141" lon="12.1765224"><ele>368.25</ele><time>2026-03-29T12:27:48.743Z</time></trkpt><trkpt lat="43.126433" lon="12.1763748"><ele>369.5</ele><time>2026-03-29T12:27:49.743Z</time></trkpt><trkpt lat="43.1263595" lon="12.1762429"><ele>370.75</ele><time>2026-03-29T12:27:50.743Z</time></trkpt><trkpt lat="43.1262594" lon="12.1761052"><ele>372.0</ele><time>2026-03-29T12:27:51.743Z</time></trkpt><trkpt lat="43.1261688" lon="12.1759657"><ele>372.0</ele><time>2026-03-29T12:27:52.743Z</time></trkpt><trkpt lat="43.1260627" lon="12.175849"><ele>372.0</ele><time>2026-03-29T12:27:53.743Z</time></trkpt><trkpt lat="43.1259952" lon="12.1757605"><ele>372.0</ele><time>2026-03-29T12:27:54.743Z</time></trkpt><trkpt lat="43.1259101" lon="12.1756665"><ele>372.0</ele><time>2026-03-29T12:27:55.743Z</time></trkpt><trkpt lat="43.1258446" lon="12.1756078"><ele>372.0</ele><time>2026-03-29T12:27:56.743Z</time></trkpt><trkpt lat="43.1257451" lon="12.1755106"><ele>371.0</ele><time>2026-03-29T12:27:57.743Z</time></trkpt><trkpt lat="43.1256906" lon="12.175436"><ele>370.0</ele><time>2026-03-29T12:27:58.743Z</time></trkpt><trkpt lat="43.1256258" lon="12.1753501"><ele>369.0</ele><time>2026-03-29T12:27:59.743Z</time></trkpt><trkpt lat="43.1255944" lon="12.1752026"><ele>368.0</ele><time>2026-03-29T12:28:00.743Z</time></trkpt><trkpt lat="43.1255834" lon="12.1750252"><ele>367.0</ele><time>2026-03-29T12:28:01.743Z</time></trkpt><trkpt lat="43.125567" lon="12.174774"><ele>367.0</ele><time>2026-03-29T12:28:02.743Z</time></trkpt><trkpt lat="43.1255427" lon="12.1746047"><ele>367.0</ele><time>2026-03-29T12:28:03.743Z</time></trkpt><trkpt lat="43.1255396" lon="12.1744806"><ele>367.0</ele><time>2026-03-29T12:28:04.743Z</time></trkpt><trkpt lat="43.1254862" lon="12.1743176"><ele>367.0</ele><time>2026-03-29T12:28:05.743Z</time></trkpt><trkpt lat="43.1254312" lon="12.1741888"><ele>367.0</ele><time>2026-03-29T12:28:06.743Z</time></trkpt><trkpt lat="43.1253539" lon="12.1741381"><ele>367.0</ele><time>2026-03-29T12:28:07.743Z</time></trkpt><trkpt lat="43.1252699" lon="12.1740521"><ele>367.0</ele><time>2026-03-29T12:28:08.743Z</time></trkpt><trkpt lat="43.125165" lon="12.1739777"><ele>367.0</ele><time>2026-03-29T12:28:09.743Z</time></trkpt><trkpt lat="43.1250318" lon="12.173907"><ele>364.0</ele><time>2026-03-29T12:28:10.743Z</time></trkpt><trkpt lat="43.1249197" lon="12.1738857"><ele>361.0</ele><time>2026-03-29T12:28:11.742Z</time></trkpt><trkpt lat="43.1248113" lon="12.173861"><ele>358.0</ele><time>2026-03-29T12:28:12.743Z</time></trkpt><trkpt lat="43.1246875" lon="12.1738556"><ele>355.0</ele><time>2026-03-29T12:28:13.743Z</time></trkpt><trkpt lat="43.1245495" lon="12.1738736"><ele>355.0</ele><time>2026-03-29T12:28:14.743Z</time></trkpt><trkpt lat="43.1244433" lon="12.1738835"><ele>355.0</ele><time>2026-03-29T12:28:15.743Z</time></trkpt><trkpt lat="43.1243186" lon="12.1738706"><ele>355.0</ele><time>2026-03-29T12:28:16.742Z</time></trkpt><trkpt lat="43.1242304" lon="12.1738337"><ele>355.0</ele><time>2026-03-29T12:28:17.743Z</time></trkpt><trkpt lat="43.1241384" lon="12.1737887"><ele>355.0</ele><time>2026-03-29T12:28:18.743Z</time></trkpt><trkpt lat="43.1240618" lon="12.1737253"><ele>358.4</ele><time>2026-03-29T12:28:19.742Z</time></trkpt><trkpt lat="43.1239887" lon="12.1736321"><ele>361.8</ele><time>2026-03-29T12:28:20.743Z</time></trkpt><trkpt lat="43.1239229" lon="12.1735495"><ele>365.20000000000005</ele><time>2026-03-29T12:28:21.743Z</time></trkpt><trkpt lat="43.1238657" lon="12.1734506"><ele>368.6</ele><time>2026-03-29T12:28:22.743Z</time></trkpt><trkpt lat="43.1237785" lon="12.1733677"><ele>372.0</ele><time>2026-03-29T12:28:23.743Z</time></trkpt><trkpt lat="43.1236825" lon="12.1732764"><ele>372.0</ele><time>2026-03-29T12:28:24.743Z</time></trkpt><trkpt lat="43.1235829" lon="12.1732"><ele>372.0</ele><time>2026-03-29T12:28:25.743Z</time></trkpt><trkpt lat="43.1234773" lon="12.173114"><ele>372.0</ele><time>2026-03-29T12:28:26.743Z</time></trkpt><trkpt lat="43.1233723" lon="12.1730048"><ele>372.0</ele><time>2026-03-29T12:28:27.743Z</time></trkpt><trkpt lat="43.123291" lon="12.1729051"><ele>369.6</ele><time>2026-03-29T12:28:28.743Z</time></trkpt><trkpt lat="43.1232366" lon="12.172791"><ele>367.20000000000005</ele><time>2026-03-29T12:28:29.743Z</time></trkpt><trkpt lat="43.1231802" lon="12.1727158"><ele>364.8</ele><time>2026-03-29T12:28:30.743Z</time></trkpt><trkpt lat="43.12311" lon="12.1726604"><ele>362.4</ele><time>2026-03-29T12:28:31.743Z</time></trkpt><trkpt lat="43.1230324" lon="12.1725939"><ele>360.0</ele><time>2026-03-29T12:28:32.742Z</time></trkpt><trkpt lat="43.1229381" lon="12.1725049"><ele>360.0</ele><time>2026-03-29T12:28:33.743Z</time></trkpt><trkpt lat="43.1228509" lon="12.1723937"><ele>360.0</ele><time>2026-03-29T12:28:34.743Z</time></trkpt><trkpt lat="43.1227845" lon="12.1722742"><ele>360.0</ele><time>2026-03-29T12:28:35.743Z</time></trkpt><trkpt lat="43.1227444" lon="12.1721965"><ele>360.0</ele><time>2026-03-29T12:28:36.743Z</time></trkpt><trkpt lat="43.1226929" lon="12.1721012"><ele>360.0</ele><time>2026-03-29T12:28:37.743Z</time></trkpt><trkpt lat="43.122611" lon="12.1719887"><ele>357.0</ele><time>2026-03-29T12:28:39.743Z</time></trkpt><trkpt lat="43.122566" lon="12.1719249"><ele>354.0</ele><time>2026-03-29T12:28:40.743Z</time></trkpt><trkpt lat="43.1224847" lon="12.1717754"><ele>351.0</ele><time>2026-03-29T12:28:42.743Z</time></trkpt><trkpt lat="43.1223994" lon="12.1716749"><ele>348.0</ele><time>2026-03-29T12:28:44.742Z</time></trkpt><trkpt lat="43.1222936" lon="12.1715409"><ele>346.3333333333333</ele><time>2026-03-29T12:28:46.743Z</time></trkpt><trkpt lat="43.1222353" lon="12.1714256"><ele>344.6666666666667</ele><time>2026-03-29T12:28:47.742Z</time></trkpt><trkpt lat="43.1221949" lon="12.1713339"><ele>343.0</ele><time>2026-03-29T12:28:48.743Z</time></trkpt><trkpt lat="43.1221754" lon="12.171192"><ele>341.33333333333337</ele><time>2026-03-29T12:28:50.743Z</time></trkpt><trkpt lat="43.1221549" lon="12.1711057"><ele>339.6666666666667</ele><time>2026-03-29T12:28:51.743Z</time></trkpt><trkpt lat="43.1221149" lon="12.1710069"><ele>338.0</ele><time>2026-03-29T12:28:52.743Z</time></trkpt><trkpt lat="43.122051" lon="12.1708837"><ele>338.0</ele><time>2026-03-29T12:28:53.743Z</time></trkpt><trkpt lat="43.121984" lon="12.1707105"><ele>338.0</ele><time>2026-03-29T12:28:54.743Z</time></trkpt><trkpt lat="43.1219324" lon="12.1705667"><ele>338.0</ele><time>2026-03-29T12:28:55.743Z</time></trkpt><trkpt lat="43.1218905" lon="12.1704412"><ele>338.0</ele><time>2026-03-29T12:28:56.743Z</time></trkpt><trkpt lat="43.1218443" lon="12.170312"><ele>336.83333333333337</ele><time>2026-03-29T12:28:57.743Z</time></trkpt><trkpt lat="43.1218131" lon="12.1702101"><ele>335.6666666666667</ele><time>2026-03-29T12:28:58.743Z</time></trkpt><trkpt lat="43.1217872" lon="12.1701137"><ele>334.5</ele><time>2026-03-29T12:28:59.743Z</time></trkpt><trkpt lat="43.1217781" lon="12.1700246"><ele>333.3333333333333</ele><time>2026-03-29T12:29:00.743Z</time></trkpt><trkpt lat="43.1217891" lon="12.1699368"><ele>332.16666666666663</ele><time>2026-03-29T12:29:01.743Z</time></trkpt><trkpt lat="43.1217373" lon="12.1697605"><ele>331.0</ele><time>2026-03-29T12:29:03.743Z</time></trkpt><trkpt lat="43.1217063" lon="12.169663"><ele>329.0</ele><time>2026-03-29T12:29:04.743Z</time></trkpt><trkpt lat="43.1216369" lon="12.1695342"><ele>327.0</ele><time>2026-03-29T12:29:06.743Z</time></trkpt><trkpt lat="43.1215551" lon="12.1694591"><ele>325.0</ele><time>2026-03-29T12:29:08.743Z</time></trkpt><trkpt lat="43.1214533" lon="12.1693332"><ele>323.0</ele><time>2026-03-29T12:29:10.743Z</time></trkpt><trkpt lat="43.1214039" lon="12.1692466"><ele>321.0</ele><time>2026-03-29T12:29:11.743Z</time></trkpt><trkpt lat="43.1213607" lon="12.1691412"><ele>319.5</ele><time>2026-03-29T12:29:12.743Z</time></trkpt><trkpt lat="43.1213074" lon="12.1690395"><ele>318.0</ele><time>2026-03-29T12:29:13.743Z</time></trkpt><trkpt lat="43.1212601" lon="12.168928"><ele>316.5</ele><time>2026-03-29T12:29:14.743Z</time></trkpt><trkpt lat="43.1212201" lon="12.1688272"><ele>315.0</ele><time>2026-03-29T12:29:15.743Z</time></trkpt><trkpt lat="43.1211832" lon="12.168728"><ele>313.5</ele><time>2026-03-29T12:29:16.743Z</time></trkpt><trkpt lat="43.1211505" lon="12.1686384"><ele>312.0</ele><time>2026-03-29T12:29:17.743Z</time></trkpt><trkpt lat="43.1211115" lon="12.1685614"><ele>310.4</ele><time>2026-03-29T12:29:18.743Z</time></trkpt><trkpt lat="43.1210273" lon="12.1684989"><ele>308.79999999999995</ele><time>2026-03-29T12:29:20.743Z</time></trkpt><trkpt lat="43.1209072" lon="12.1684689"><ele>307.2</ele><time>2026-03-29T12:29:22.743Z</time></trkpt><trkpt lat="43.1208125" lon="12.1683723"><ele>305.59999999999997</ele><time>2026-03-29T12:29:24.743Z</time></trkpt><trkpt lat="43.1207561" lon="12.1683129"><ele>304.0</ele><time>2026-03-29T12:29:25.743Z</time></trkpt><trkpt lat="43.1206623" lon="12.1682073"><ele>300.2</ele><time>2026-03-29T12:29:27.743Z</time></trkpt><trkpt lat="43.1206135" lon="12.1681401"><ele>296.4</ele><time>2026-03-29T12:29:28.743Z</time></trkpt><trkpt lat="43.1205642" lon="12.1679638"><ele>292.6</ele><time>2026-03-29T12:29:30.743Z</time></trkpt><trkpt lat="43.120531" lon="12.1678727"><ele>288.8</ele><time>2026-03-29T12:29:31.743Z</time></trkpt><trkpt lat="43.1204789" lon="12.1677835"><ele>285.0</ele><time>2026-03-29T12:29:32.743Z</time></trkpt><trkpt lat="43.12041" lon="12.1677104"><ele>285.0</ele><time>2026-03-29T12:29:33.743Z</time></trkpt><trkpt lat="43.1203325" lon="12.1676397"><ele>285.0</ele><time>2026-03-29T12:29:34.743Z</time></trkpt><trkpt lat="43.120257" lon="12.1675634"><ele>285.0</ele><time>2026-03-29T12:29:35.743Z</time></trkpt><trkpt lat="43.1201929" lon="12.167493"><ele>285.0</ele><time>2026-03-29T12:29:36.743Z</time></trkpt><trkpt lat="43.1201538" lon="12.1674075"><ele>285.0</ele><time>2026-03-29T12:29:37.743Z</time></trkpt><trkpt lat="43.1201162" lon="12.1672867"><ele>285.0</ele><time>2026-03-29T12:29:38.743Z</time></trkpt><trkpt lat="43.1200694" lon="12.1671615"><ele>282.8</ele><time>2026-03-29T12:29:39.743Z</time></trkpt><trkpt lat="43.1200164" lon="12.1670422"><ele>280.6</ele><time>2026-03-29T12:29:40.743Z</time></trkpt><trkpt lat="43.1199518" lon="12.1669536"><ele>278.4</ele><time>2026-03-29T12:29:41.743Z</time></trkpt><trkpt lat="43.1198834" lon="12.1668834"><ele>276.2</ele><time>2026-03-29T12:29:42.743Z</time></trkpt><trkpt lat="43.1198013" lon="12.1668374"><ele>274.0</ele><time>2026-03-29T12:29:43.743Z</time></trkpt><trkpt lat="43.1197035" lon="12.1668331"><ele>273.4</ele><time>2026-03-29T12:29:44.743Z</time></trkpt><trkpt lat="43.1195995" lon="12.1668423"><ele>272.79999999999995</ele><time>2026-03-29T12:29:45.743Z</time></trkpt><trkpt lat="43.1194962" lon="12.166857"><ele>272.20000000000005</ele><time>2026-03-29T12:29:46.743Z</time></trkpt><trkpt lat="43.1194021" lon="12.1668815"><ele>271.6</ele><time>2026-03-29T12:29:47.743Z</time></trkpt><trkpt lat="43.119322" lon="12.1669117"><ele>271.0</ele><time>2026-03-29T12:29:48.743Z</time></trkpt><trkpt lat="43.1192485" lon="12.1669434"><ele>271.0</ele><time>2026-03-29T12:29:49.743Z</time></trkpt><trkpt lat="43.1191842" lon="12.1669747"><ele>271.0</ele><time>2026-03-29T12:29:50.743Z</time></trkpt><trkpt lat="43.1191192" lon="12.1670233"><ele>271.0</ele><time>2026-03-29T12:29:52.743Z</time></trkpt><trkpt lat="43.1191777" lon="12.1670661"><ele>271.0</ele><time>2026-03-29T12:31:29.743Z</time></trkpt><trkpt lat="43.1192593" lon="12.1669949"><ele>271.0</ele><time>2026-03-29T12:31:31.742Z</time></trkpt><trkpt lat="43.1193624" lon="12.16692"><ele>271.0</ele><time>2026-03-29T12:31:33.743Z</time></trkpt><trkpt lat="43.1194383" lon="12.1669108"><ele>271.0</ele><time>2026-03-29T12:31:34.742Z</time></trkpt><trkpt lat="43.119519" lon="12.1668989"><ele>271.0</ele><time>2026-03-29T12:31:35.743Z</time></trkpt><trkpt lat="43.1196005" lon="12.1668837"><ele>271.0</ele><time>2026-03-29T12:31:36.743Z</time></trkpt><trkpt lat="43.1196864" lon="12.1668811"><ele>271.0</ele><time>2026-03-29T12:31:37.743Z</time></trkpt><trkpt lat="43.1197738" lon="12.1668862"><ele>271.0</ele><time>2026-03-29T12:31:38.743Z</time></trkpt><trkpt lat="43.1198404" lon="12.1669062"><ele>271.0</ele><time>2026-03-29T12:31:39.743Z</time></trkpt><trkpt lat="43.1199062" lon="12.1669387"><ele>271.5</ele><time>2026-03-29T12:31:40.743Z</time></trkpt><trkpt lat="43.1199665" lon="12.1670045"><ele>272.0</ele><time>2026-03-29T12:31:41.743Z</time></trkpt><trkpt lat="43.1200121" lon="12.1670835"><ele>272.5</ele><time>2026-03-29T12:31:42.743Z</time></trkpt><trkpt lat="43.1200626" lon="12.1671853"><ele>273.0</ele><time>2026-03-29T12:31:43.743Z</time></trkpt><trkpt lat="43.120094" lon="12.1673012"><ele>273.5</ele><time>2026-03-29T12:31:44.743Z</time></trkpt><trkpt lat="43.1201297" lon="12.1674153"><ele>274.0</ele><time>2026-03-29T12:31:45.743Z</time></trkpt><trkpt lat="43.1201778" lon="12.1675026"><ele>276.2</ele><time>2026-03-29T12:31:46.743Z</time></trkpt><trkpt lat="43.1202457" lon="12.1675854"><ele>278.4</ele><time>2026-03-29T12:31:47.742Z</time></trkpt><trkpt lat="43.1203334" lon="12.1676574"><ele>280.6</ele><time>2026-03-29T12:31:48.743Z</time></trkpt><trkpt lat="43.1204223" lon="12.1677256"><ele>282.8</ele><time>2026-03-29T12:31:49.743Z</time></trkpt><trkpt lat="43.1204949" lon="12.1678057"><ele>285.0</ele><time>2026-03-29T12:31:50.743Z</time></trkpt><trkpt lat="43.1205452" lon="12.1679024"><ele>285.0</ele><time>2026-03-29T12:31:51.743Z</time></trkpt><trkpt lat="43.1205659" lon="12.1680363"><ele>285.0</ele><time>2026-03-29T12:31:52.743Z</time></trkpt><trkpt lat="43.1206137" lon="12.1681497"><ele>285.0</ele><time>2026-03-29T12:31:53.743Z</time></trkpt><trkpt lat="43.1206699" lon="12.1682701"><ele>285.0</ele><time>2026-03-29T12:31:54.743Z</time></trkpt><trkpt lat="43.1207422" lon="12.1683438"><ele>285.0</ele><time>2026-03-29T12:31:55.743Z</time></trkpt><trkpt lat="43.1208109" lon="12.1684194"><ele>288.1666666666667</ele><time>2026-03-29T12:31:56.743Z</time></trkpt><trkpt lat="43.1208853" lon="12.1684844"><ele>291.3333333333333</ele><time>2026-03-29T12:31:57.743Z</time></trkpt><trkpt lat="43.120957" lon="12.1685155"><ele>294.5</ele><time>2026-03-29T12:31:58.743Z</time></trkpt><trkpt lat="43.1210192" lon="12.1685368"><ele>297.66666666666663</ele><time>2026-03-29T12:31:59.743Z</time></trkpt><trkpt lat="43.1211171" lon="12.1685905"><ele>300.8333333333333</ele><time>2026-03-29T12:32:01.743Z</time></trkpt><trkpt lat="43.1211836" lon="12.1687179"><ele>304.0</ele><time>2026-03-29T12:32:03.743Z</time></trkpt><trkpt lat="43.1212475" lon="12.1688937"><ele>304.0</ele><time>2026-03-29T12:32:05.743Z</time></trkpt><trkpt lat="43.1212923" lon="12.1689996"><ele>304.0</ele><time>2026-03-29T12:32:06.743Z</time></trkpt><trkpt lat="43.1213476" lon="12.1691144"><ele>304.0</ele><time>2026-03-29T12:32:07.742Z</time></trkpt><trkpt lat="43.1214074" lon="12.1692407"><ele>304.0</ele><time>2026-03-29T12:32:08.743Z</time></trkpt><trkpt lat="43.121479" lon="12.1693749"><ele>304.0</ele><time>2026-03-29T12:32:09.743Z</time></trkpt><trkpt lat="43.1215513" lon="12.1694586"><ele>306.8333333333333</ele><time>2026-03-29T12:32:10.743Z</time></trkpt><trkpt lat="43.1216262" lon="12.169512"><ele>309.66666666666663</ele><time>2026-03-29T12:32:11.743Z</time></trkpt><trkpt lat="43.1216785" lon="12.1695988"><ele>312.5</ele><time>2026-03-29T12:32:12.743Z</time></trkpt><trkpt lat="43.1217277" lon="12.1697092"><ele>315.3333333333333</ele><time>2026-03-29T12:32:13.743Z</time></trkpt><trkpt lat="43.1217708" lon="12.1698378"><ele>318.1666666666667</ele><time>2026-03-29T12:32:14.743Z</time></trkpt><trkpt lat="43.1217862" lon="12.1699526"><ele>321.0</ele><time>2026-03-29T12:32:15.743Z</time></trkpt><trkpt lat="43.1217913" lon="12.1700635"><ele>323.0</ele><time>2026-03-29T12:32:16.743Z</time></trkpt><trkpt lat="43.1218188" lon="12.1701846"><ele>325.0</ele><time>2026-03-29T12:32:17.743Z</time></trkpt><trkpt lat="43.1218665" lon="12.1703006"><ele>327.0</ele><time>2026-03-29T12:32:18.743Z</time></trkpt><trkpt lat="43.1219083" lon="12.1704315"><ele>329.0</ele><time>2026-03-29T12:32:19.743Z</time></trkpt><trkpt lat="43.1219475" lon="12.1705607"><ele>331.0</ele><time>2026-03-29T12:32:20.743Z</time></trkpt><trkpt lat="43.1219971" lon="12.1707033"><ele>332.4</ele><time>2026-03-29T12:32:21.743Z</time></trkpt><trkpt lat="43.1220515" lon="12.1708376"><ele>333.8</ele><time>2026-03-29T12:32:22.742Z</time></trkpt><trkpt lat="43.122103" lon="12.1709659"><ele>335.2</ele><time>2026-03-29T12:32:23.743Z</time></trkpt><trkpt lat="43.1221562" lon="12.1710686"><ele>336.59999999999997</ele><time>2026-03-29T12:32:24.743Z</time></trkpt><trkpt lat="43.1221889" lon="12.1712365"><ele>338.0</ele><time>2026-03-29T12:32:26.743Z</time></trkpt><trkpt lat="43.1222025" lon="12.1713507"><ele>338.0</ele><time>2026-03-29T12:32:29.743Z</time></trkpt><trkpt lat="43.1222584" lon="12.1714678"><ele>338.0</ele><time>2026-03-29T12:32:31.743Z</time></trkpt><trkpt lat="43.1223321" lon="12.1715764"><ele>338.0</ele><time>2026-03-29T12:32:33.743Z</time></trkpt><trkpt lat="43.122382" lon="12.1716578"><ele>338.0</ele><time>2026-03-29T12:32:34.742Z</time></trkpt><trkpt lat="43.1224329" lon="12.1717206"><ele>338.0</ele><time>2026-03-29T12:32:35.743Z</time></trkpt><trkpt lat="43.1225071" lon="12.1718499"><ele>339.6666666666667</ele><time>2026-03-29T12:32:37.743Z</time></trkpt><trkpt lat="43.1225471" lon="12.1719167"><ele>341.33333333333337</ele><time>2026-03-29T12:32:38.743Z</time></trkpt><trkpt lat="43.122587" lon="12.1719867"><ele>343.0</ele><time>2026-03-29T12:32:39.742Z</time></trkpt><trkpt lat="43.1226241" lon="12.1720639"><ele>344.6666666666667</ele><time>2026-03-29T12:32:40.743Z</time></trkpt><trkpt lat="43.122679" lon="12.1721558"><ele>346.3333333333333</ele><time>2026-03-29T12:32:42.743Z</time></trkpt><trkpt lat="43.1225992" lon="12.1722428"><ele>348.0</ele><time>2026-03-29T12:33:20.743Z</time></trkpt><trkpt lat="43.1226611" lon="12.172196"><ele>348.0</ele><time>2026-03-29T12:33:40.743Z</time></trkpt><trkpt lat="43.1227273" lon="12.1722269"><ele>348.0</ele><time>2026-03-29T12:33:43.743Z</time></trkpt><trkpt lat="43.1227908" lon="12.1723005"><ele>348.0</ele><time>2026-03-29T12:33:46.743Z</time></trkpt><trkpt lat="43.1228568" lon="12.172416"><ele>348.0</ele><time>2026-03-29T12:33:48.743Z</time></trkpt><trkpt lat="43.1229418" lon="12.1725189"><ele>348.0</ele><time>2026-03-29T12:33:50.743Z</time></trkpt><trkpt lat="43.1230088" lon="12.1725656"><ele>348.0</ele><time>2026-03-29T12:33:51.743Z</time></trkpt><trkpt lat="43.123107" lon="12.1726742"><ele>349.3333333333333</ele><time>2026-03-29T12:33:53.743Z</time></trkpt><trkpt lat="43.1231935" lon="12.1727696"><ele>350.6666666666667</ele><time>2026-03-29T12:33:55.743Z</time></trkpt><trkpt lat="43.123271" lon="12.1728874"><ele>352.0</ele><time>2026-03-29T12:33:57.743Z</time></trkpt><trkpt lat="43.1233251" lon="12.17295"><ele>353.33333333333337</ele><time>2026-03-29T12:33:58.743Z</time></trkpt><trkpt lat="43.1233752" lon="12.1730108"><ele>354.6666666666667</ele><time>2026-03-29T12:33:59.743Z</time></trkpt><trkpt lat="43.1234319" lon="12.1730568"><ele>356.0</ele><time>2026-03-29T12:34:00.743Z</time></trkpt><trkpt lat="43.1234838" lon="12.1731135"><ele>359.20000000000005</ele><time>2026-03-29T12:34:01.743Z</time></trkpt><trkpt lat="43.1235737" lon="12.1732114"><ele>362.40000000000003</ele><time>2026-03-29T12:34:03.742Z</time></trkpt><trkpt lat="43.1236544" lon="12.17327"><ele>365.6</ele><time>2026-03-29T12:34:05.743Z</time></trkpt><trkpt lat="43.1237556" lon="12.1733816"><ele>368.8</ele><time>2026-03-29T12:34:07.743Z</time></trkpt><trkpt lat="43.1238127" lon="12.1734222"><ele>372.0</ele><time>2026-03-29T12:34:08.743Z</time></trkpt><trkpt lat="43.1238699" lon="12.1734918"><ele>372.0</ele><time>2026-03-29T12:34:09.743Z</time></trkpt><trkpt lat="43.123949" lon="12.1736025"><ele>372.0</ele><time>2026-03-29T12:34:11.743Z</time></trkpt><trkpt lat="43.123998" lon="12.1736752"><ele>372.0</ele><time>2026-03-29T12:34:13.743Z</time></trkpt><trkpt lat="43.1240661" lon="12.1737673"><ele>372.0</ele><time>2026-03-29T12:34:15.743Z</time></trkpt><trkpt lat="43.1241601" lon="12.1738582"><ele>372.0</ele><time>2026-03-29T12:34:17.743Z</time></trkpt><trkpt lat="43.1242818" lon="12.1739005"><ele>369.5714285714286</ele><time>2026-03-29T12:34:19.743Z</time></trkpt><trkpt lat="43.1243493" lon="12.1739084"><ele>367.14285714285717</ele><time>2026-03-29T12:34:20.743Z</time></trkpt><trkpt lat="43.124434" lon="12.1739075"><ele>364.7142857142857</ele><time>2026-03-29T12:34:21.743Z</time></trkpt><trkpt lat="43.1245001" lon="12.1738915"><ele>362.28571428571433</ele><time>2026-03-29T12:34:22.743Z</time></trkpt><trkpt lat="43.1245763" lon="12.1738772"><ele>359.8571428571429</ele><time>2026-03-29T12:34:23.743Z</time></trkpt><trkpt lat="43.1246424" lon="12.1738521"><ele>357.42857142857144</ele><time>2026-03-29T12:34:24.743Z</time></trkpt><trkpt lat="43.1247202" lon="12.1738595"><ele>355.0</ele><time>2026-03-29T12:34:25.743Z</time></trkpt><trkpt lat="43.1248029" lon="12.1738692"><ele>355.0</ele><time>2026-03-29T12:34:26.743Z</time></trkpt><trkpt lat="43.1248784" lon="12.1738811"><ele>355.0</ele><time>2026-03-29T12:34:27.743Z</time></trkpt><trkpt lat="43.1250142" lon="12.1739121"><ele>355.0</ele><time>2026-03-29T12:34:29.742Z</time></trkpt><trkpt lat="43.1250898" lon="12.1739496"><ele>355.0</ele><time>2026-03-29T12:34:30.743Z</time></trkpt><trkpt lat="43.1251546" lon="12.1739938"><ele>355.0</ele><time>2026-03-29T12:34:31.743Z</time></trkpt><trkpt lat="43.1252292" lon="12.1740582"><ele>357.0</ele><time>2026-03-29T12:34:32.743Z</time></trkpt><trkpt lat="43.1252882" lon="12.1741134"><ele>359.0</ele><time>2026-03-29T12:34:33.743Z</time></trkpt><trkpt lat="43.125384" lon="12.1742052"><ele>361.0</ele><time>2026-03-29T12:34:35.743Z</time></trkpt><trkpt lat="43.1254353" lon="12.1742686"><ele>363.0</ele><time>2026-03-29T12:34:36.743Z</time></trkpt><trkpt lat="43.1254632" lon="12.1743645"><ele>365.0</ele><time>2026-03-29T12:34:37.742Z</time></trkpt><trkpt lat="43.1254845" lon="12.1745036"><ele>367.0</ele><time>2026-03-29T12:34:39.743Z</time></trkpt><trkpt lat="43.1255167" lon="12.1746418"><ele>367.0</ele><time>2026-03-29T12:34:41.743Z</time></trkpt><trkpt lat="43.1255387" lon="12.1748006"><ele>367.0</ele><time>2026-03-29T12:34:43.743Z</time></trkpt><trkpt lat="43.1255657" lon="12.1749033"><ele>367.0</ele><time>2026-03-29T12:34:44.743Z</time></trkpt><trkpt lat="43.1255757" lon="12.1750069"><ele>367.0</ele><time>2026-03-29T12:34:45.743Z</time></trkpt><trkpt lat="43.1256006" lon="12.1751826"><ele>367.0</ele><time>2026-03-29T12:34:47.743Z</time></trkpt><trkpt lat="43.1256326" lon="12.1753451"><ele>367.8333333333333</ele><time>2026-03-29T12:34:49.743Z</time></trkpt><trkpt lat="43.1256768" lon="12.1754296"><ele>368.66666666666663</ele><time>2026-03-29T12:34:50.743Z</time></trkpt><trkpt lat="43.1257194" lon="12.175495"><ele>369.5</ele><time>2026-03-29T12:34:51.743Z</time></trkpt><trkpt lat="43.1257882" lon="12.1755722"><ele>370.3333333333333</ele><time>2026-03-29T12:34:52.743Z</time></trkpt><trkpt lat="43.1258513" lon="12.1756392"><ele>371.1666666666667</ele><time>2026-03-29T12:34:53.743Z</time></trkpt><trkpt lat="43.1259614" lon="12.175708"><ele>372.0</ele><time>2026-03-29T12:34:55.743Z</time></trkpt><trkpt lat="43.1260453" lon="12.1758034"><ele>372.0</ele><time>2026-03-29T12:34:57.743Z</time></trkpt><trkpt lat="43.1260876" lon="12.17588"><ele>372.0</ele><time>2026-03-29T12:34:58.743Z</time></trkpt><trkpt lat="43.1261409" lon="12.1759649"><ele>372.0</ele><time>2026-03-29T12:34:59.743Z</time></trkpt><trkpt lat="43.1262047" lon="12.1760412"><ele>372.0</ele><time>2026-03-29T12:35:00.743Z</time></trkpt><trkpt lat="43.1262551" lon="12.1761123"><ele>372.0</ele><time>2026-03-29T12:35:01.743Z</time></trkpt><trkpt lat="43.126303" lon="12.1761795"><ele>372.0</ele><time>2026-03-29T12:35:02.743Z</time></trkpt><trkpt lat="43.1263527" lon="12.1762541"><ele>372.0</ele><time>2026-03-29T12:35:03.743Z</time></trkpt><trkpt lat="43.1264073" lon="12.176333"><ele>372.0</ele><time>2026-03-29T12:35:04.743Z</time></trkpt><trkpt lat="43.1264564" lon="12.1764284"><ele>372.0</ele><time>2026-03-29T12:35:05.742Z</time></trkpt><trkpt lat="43.1265083" lon="12.1765335"><ele>372.0</ele><time>2026-03-29T12:35:06.743Z</time></trkpt><trkpt lat="43.1265609" lon="12.1766314"><ele>372.0</ele><time>2026-03-29T12:35:07.743Z</time></trkpt><trkpt lat="43.1266305" lon="12.1767343"><ele>372.0</ele><time>2026-03-29T12:35:08.743Z</time></trkpt><trkpt lat="43.1266935" lon="12.1768125"><ele>371.1666666666667</ele><time>2026-03-29T12:35:09.743Z</time></trkpt><trkpt lat="43.1267536" lon="12.1768849"><ele>370.3333333333333</ele><time>2026-03-29T12:35:10.742Z</time></trkpt><trkpt lat="43.1268232" lon="12.1769608"><ele>369.5</ele><time>2026-03-29T12:35:11.743Z</time></trkpt><trkpt lat="43.126881" lon="12.1770304"><ele>368.66666666666663</ele><time>2026-03-29T12:35:12.743Z</time></trkpt><trkpt lat="43.1269431" lon="12.177073"><ele>367.8333333333333</ele><time>2026-03-29T12:35:13.743Z</time></trkpt><trkpt lat="43.1270455" lon="12.1771562"><ele>367.0</ele><time>2026-03-29T12:35:15.743Z</time></trkpt><trkpt lat="43.1271083" lon="12.1772159"><ele>367.0</ele><time>2026-03-29T12:35:17.743Z</time></trkpt><trkpt lat="43.1271473" lon="12.1773211"><ele>367.0</ele><time>2026-03-29T12:35:21.742Z</time></trkpt><trkpt lat="43.1271086" lon="12.177416"><ele>367.0</ele><time>2026-03-29T12:35:23.743Z</time></trkpt><trkpt lat="43.1270687" lon="12.1774857"><ele>367.0</ele><time>2026-03-29T12:35:27.743Z</time></trkpt><trkpt lat="43.126986" lon="12.1776152"><ele>367.0</ele><time>2026-03-29T12:36:25.742Z</time></trkpt><trkpt lat="43.126912" lon="12.177694"><ele>367.0</ele><time>2026-03-29T12:36:26.743Z</time></trkpt><trkpt lat="43.1268247" lon="12.177781"><ele>369.0</ele><time>2026-03-29T12:36:27.743Z</time></trkpt><trkpt lat="43.126734" lon="12.1778535"><ele>371.0</ele><time>2026-03-29T12:36:28.743Z</time></trkpt><trkpt lat="43.1266237" lon="12.1778703"><ele>373.0</ele><time>2026-03-29T12:36:29.743Z</time></trkpt><trkpt lat="43.1265017" lon="12.1778943"><ele>375.0</ele><time>2026-03-29T12:36:30.743Z</time></trkpt><trkpt lat="43.1263761" lon="12.1779006"><ele>377.5</ele><time>2026-03-29T12:36:31.742Z</time></trkpt><trkpt lat="43.1262333" lon="12.1779153"><ele>380.0</ele><time>2026-03-29T12:36:32.743Z</time></trkpt><trkpt lat="43.1260877" lon="12.1779227"><ele>382.5</ele><time>2026-03-29T12:36:33.743Z</time></trkpt><trkpt lat="43.1259422" lon="12.1779397"><ele>385.0</ele><time>2026-03-29T12:36:34.743Z</time></trkpt><trkpt lat="43.1258075" lon="12.1779504"><ele>387.75</ele><time>2026-03-29T12:36:35.743Z</time></trkpt><trkpt lat="43.12568" lon="12.1779726"><ele>390.5</ele><time>2026-03-29T12:36:36.743Z</time></trkpt><trkpt lat="43.1255551" lon="12.1780115"><ele>393.25</ele><time>2026-03-29T12:36:37.743Z</time></trkpt><trkpt lat="43.1254405" lon="12.1780794"><ele>396.0</ele><time>2026-03-29T12:36:38.743Z</time></trkpt><trkpt lat="43.1253471" lon="12.1781589"><ele>392.5</ele><time>2026-03-29T12:36:39.743Z</time></trkpt><trkpt lat="43.1252566" lon="12.1782436"><ele>389.0</ele><time>2026-03-29T12:36:40.743Z</time></trkpt><trkpt lat="43.1251791" lon="12.1783747"><ele>385.5</ele><time>2026-03-29T12:36:41.743Z</time></trkpt><trkpt lat="43.1251027" lon="12.1784927"><ele>382.0</ele><time>2026-03-29T12:36:42.743Z</time></trkpt><trkpt lat="43.1250151" lon="12.1785958"><ele>382.0</ele><time>2026-03-29T12:36:43.743Z</time></trkpt><trkpt lat="43.1249497" lon="12.1786649"><ele>382.0</ele><time>2026-03-29T12:36:44.742Z</time></trkpt><trkpt lat="43.124908" lon="12.1787338"><ele>382.0</ele><time>2026-03-29T12:36:45.743Z</time></trkpt><trkpt lat="43.1248353" lon="12.1787699"><ele>382.0</ele><time>2026-03-29T12:36:48.743Z</time></trkpt><trkpt lat="43.1248095" lon="12.1788757"><ele>382.0</ele><time>2026-03-29T12:36:50.743Z</time></trkpt><trkpt lat="43.1247971" lon="12.1789925"><ele>382.0</ele><time>2026-03-29T12:36:51.743Z</time></trkpt><trkpt lat="43.1247876" lon="12.1790794"><ele>380.8</ele><time>2026-03-29T12:36:52.742Z</time></trkpt><trkpt lat="43.1247666" lon="12.1792406"><ele>379.6</ele><time>2026-03-29T12:36:54.743Z</time></trkpt><trkpt lat="43.124739" lon="12.1793341"><ele>378.40000000000003</ele><time>2026-03-29T12:36:55.743Z</time></trkpt><trkpt lat="43.1247313" lon="12.1794801"><ele>377.20000000000005</ele><time>2026-03-29T12:36:56.743Z</time></trkpt><trkpt lat="43.124714" lon="12.1795908"><ele>376.0</ele><time>2026-03-29T12:36:57.743Z</time></trkpt><trkpt lat="43.1247008" lon="12.1796858"><ele>376.0</ele><time>2026-03-29T12:36:58.743Z</time></trkpt><trkpt lat="43.124695" lon="12.1798344"><ele>376.0</ele><time>2026-03-29T12:37:00.743Z</time></trkpt><trkpt lat="43.1246929" lon="12.180003"><ele>376.0</ele><time>2026-03-29T12:37:02.743Z</time></trkpt><trkpt lat="43.1246846" lon="12.1801163"><ele>376.0</ele><time>2026-03-29T12:37:03.743Z</time></trkpt><trkpt lat="43.1246657" lon="12.1802629"><ele>376.0</ele><time>2026-03-29T12:37:04.743Z</time></trkpt><trkpt lat="43.1246468" lon="12.1804211"><ele>378.0</ele><time>2026-03-29T12:37:05.743Z</time></trkpt><trkpt lat="43.12463" lon="12.1805982"><ele>380.0</ele><time>2026-03-29T12:37:06.743Z</time></trkpt><trkpt lat="43.1246257" lon="12.1807863"><ele>382.0</ele><time>2026-03-29T12:37:07.743Z</time></trkpt><trkpt lat="43.1246309" lon="12.180984"><ele>384.0</ele><time>2026-03-29T12:37:08.743Z</time></trkpt><trkpt lat="43.1246567" lon="12.1811842"><ele>384.0</ele><time>2026-03-29T12:37:09.743Z</time></trkpt><trkpt lat="43.124678" lon="12.1813873"><ele>384.0</ele><time>2026-03-29T12:37:10.743Z</time></trkpt><trkpt lat="43.1246933" lon="12.1815793"><ele>384.0</ele><time>2026-03-29T12:37:11.743Z</time></trkpt><trkpt lat="43.1247134" lon="12.1817694"><ele>384.0</ele><time>2026-03-29T12:37:12.743Z</time></trkpt><trkpt lat="43.1247276" lon="12.1819624"><ele>384.79999999999995</ele><time>2026-03-29T12:37:13.743Z</time></trkpt><trkpt lat="43.1247401" lon="12.1821519"><ele>385.59999999999997</ele><time>2026-03-29T12:37:14.743Z</time></trkpt><trkpt lat="43.1247378" lon="12.1823116"><ele>386.4</ele><time>2026-03-29T12:37:15.743Z</time></trkpt><trkpt lat="43.1247236" lon="12.1824373"><ele>387.2</ele><time>2026-03-29T12:37:16.743Z</time></trkpt><trkpt lat="43.1246662" lon="12.1825388"><ele>388.0</ele><time>2026-03-29T12:37:17.743Z</time></trkpt><trkpt lat="43.1245992" lon="12.1826498"><ele>388.0</ele><time>2026-03-29T12:37:18.743Z</time></trkpt><trkpt lat="43.1244946" lon="12.1827537"><ele>388.0</ele><time>2026-03-29T12:37:19.743Z</time></trkpt><trkpt lat="43.1243773" lon="12.1828179"><ele>388.0</ele><time>2026-03-29T12:37:20.742Z</time></trkpt><trkpt lat="43.1242575" lon="12.1828584"><ele>388.0</ele><time>2026-03-29T12:37:21.743Z</time></trkpt><trkpt lat="43.1241569" lon="12.1829118"><ele>388.0</ele><time>2026-03-29T12:37:22.743Z</time></trkpt><trkpt lat="43.1240548" lon="12.182994"><ele>388.0</ele><time>2026-03-29T12:37:23.743Z</time></trkpt><trkpt lat="43.1239719" lon="12.1830366"><ele>388.0</ele><time>2026-03-29T12:37:24.743Z</time></trkpt><trkpt lat="43.1238968" lon="12.1830411"><ele>388.0</ele><time>2026-03-29T12:37:25.743Z</time></trkpt><trkpt lat="43.1238022" lon="12.1830183"><ele>388.0</ele><time>2026-03-29T12:37:26.743Z</time></trkpt><trkpt lat="43.1237025" lon="12.1830309"><ele>388.00000000000006</ele><time>2026-03-29T12:37:27.743Z</time></trkpt><trkpt lat="43.1236257" lon="12.1830459"><ele>388.0</ele><time>2026-03-29T12:37:28.743Z</time></trkpt><trkpt lat="43.1235712" lon="12.1831003"><ele>388.0</ele><time>2026-03-29T12:37:29.742Z</time></trkpt><trkpt lat="43.1235267" lon="12.1832053"><ele>388.0</ele><time>2026-03-29T12:37:30.743Z</time></trkpt><trkpt lat="43.123464" lon="12.1833077"><ele>388.00000000000006</ele><time>2026-03-29T12:37:31.743Z</time></trkpt><trkpt lat="43.1234021" lon="12.1834023"><ele>388.0</ele><time>2026-03-29T12:37:32.743Z</time></trkpt><trkpt lat="43.1233674" lon="12.1835006"><ele>388.79999999999995</ele><time>2026-03-29T12:37:33.743Z</time></trkpt><trkpt lat="43.1233494" lon="12.1836106"><ele>389.6</ele><time>2026-03-29T12:37:34.743Z</time></trkpt><trkpt lat="43.1232333" lon="12.1837065"><ele>390.4</ele><time>2026-03-29T12:37:36.743Z</time></trkpt><trkpt lat="43.1231299" lon="12.1837443"><ele>391.20000000000005</ele><time>2026-03-29T12:37:37.743Z</time></trkpt><trkpt lat="43.123021" lon="12.1838106"><ele>392.0</ele><time>2026-03-29T12:37:38.743Z</time></trkpt><trkpt lat="43.1228781" lon="12.1838491"><ele>392.0</ele><time>2026-03-29T12:37:39.743Z</time></trkpt><trkpt lat="43.1227137" lon="12.1838963"><ele>392.0</ele><time>2026-03-29T12:37:40.743Z</time></trkpt><trkpt lat="43.1225712" lon="12.183927"><ele>392.0</ele><time>2026-03-29T12:37:41.743Z</time></trkpt><trkpt lat="43.1224675" lon="12.1839644"><ele>392.0</ele><time>2026-03-29T12:37:42.743Z</time></trkpt><trkpt lat="43.1223746" lon="12.1840301"><ele>395.25</ele><time>2026-03-29T12:37:43.743Z</time></trkpt><trkpt lat="43.1222822" lon="12.1841302"><ele>398.5</ele><time>2026-03-29T12:37:44.743Z</time></trkpt><trkpt lat="43.1221925" lon="12.184247"><ele>401.75</ele><time>2026-03-29T12:37:45.743Z</time></trkpt><trkpt lat="43.1221287" lon="12.1843613"><ele>405.0</ele><time>2026-03-29T12:37:46.742Z</time></trkpt><trkpt lat="43.1220792" lon="12.184485"><ele>405.0</ele><time>2026-03-29T12:37:47.743Z</time></trkpt><trkpt lat="43.1220346" lon="12.1846124"><ele>405.0</ele><time>2026-03-29T12:37:48.743Z</time></trkpt><trkpt lat="43.1220053" lon="12.1847509"><ele>405.0</ele><time>2026-03-29T12:37:49.743Z</time></trkpt><trkpt lat="43.1219673" lon="12.1848948"><ele>405.0</ele><time>2026-03-29T12:37:50.743Z</time></trkpt><trkpt lat="43.1219179" lon="12.1850092"><ele>405.0</ele><time>2026-03-29T12:37:51.742Z</time></trkpt><trkpt lat="43.1218709" lon="12.1850883"><ele>405.0</ele><time>2026-03-29T12:37:52.743Z</time></trkpt><trkpt lat="43.1217867" lon="12.185179"><ele>405.0</ele><time>2026-03-29T12:37:53.743Z</time></trkpt><trkpt lat="43.1217018" lon="12.18526"><ele>405.0</ele><time>2026-03-29T12:37:54.743Z</time></trkpt><trkpt lat="43.1216095" lon="12.1853411"><ele>405.0</ele><time>2026-03-29T12:37:55.743Z</time></trkpt><trkpt lat="43.1215082" lon="12.1854584"><ele>404.0</ele><time>2026-03-29T12:37:56.743Z</time></trkpt><trkpt lat="43.1213964" lon="12.1855765"><ele>403.0</ele><time>2026-03-29T12:37:57.743Z</time></trkpt><trkpt lat="43.1212957" lon="12.1856666"><ele>402.0</ele><time>2026-03-29T12:37:58.743Z</time></trkpt><trkpt lat="43.1212011" lon="12.1857652"><ele>401.0</ele><time>2026-03-29T12:37:59.743Z</time></trkpt><trkpt lat="43.121137" lon="12.1858566"><ele>401.0</ele><time>2026-03-29T12:38:00.743Z</time></trkpt><trkpt lat="43.1210786" lon="12.185933"><ele>401.0</ele><time>2026-03-29T12:38:01.743Z</time></trkpt><trkpt lat="43.1210912" lon="12.1860303"><ele>401.0</ele><time>2026-03-29T12:38:02.743Z</time></trkpt><trkpt lat="43.1210533" lon="12.1862026"><ele>401.0</ele><time>2026-03-29T12:38:04.742Z</time></trkpt><trkpt lat="43.1210565" lon="12.1863232"><ele>401.0</ele><time>2026-03-29T12:38:06.743Z</time></trkpt><trkpt lat="43.1209922" lon="12.1863924"><ele>401.0</ele><time>2026-03-29T12:38:07.742Z</time></trkpt><trkpt lat="43.1209371" lon="12.1864784"><ele>401.0</ele><time>2026-03-29T12:38:08.743Z</time></trkpt><trkpt lat="43.1208628" lon="12.1865889"><ele>401.0</ele><time>2026-03-29T12:38:09.743Z</time></trkpt><trkpt lat="43.1207954" lon="12.1867049"><ele>401.0</ele><time>2026-03-29T12:38:10.743Z</time></trkpt><trkpt lat="43.1207501" lon="12.1867938"><ele>401.0</ele><time>2026-03-29T12:38:11.743Z</time></trkpt><trkpt lat="43.1206781" lon="12.1868728"><ele>399.6</ele><time>2026-03-29T12:38:12.743Z</time></trkpt><trkpt lat="43.1205975" lon="12.1869322"><ele>398.20000000000005</ele><time>2026-03-29T12:38:13.743Z</time></trkpt><trkpt lat="43.1205109" lon="12.1870005"><ele>396.79999999999995</ele><time>2026-03-29T12:38:14.743Z</time></trkpt><trkpt lat="43.1203977" lon="12.187081"><ele>395.4</ele><time>2026-03-29T12:38:15.743Z</time></trkpt><trkpt lat="43.1202867" lon="12.1871437"><ele>394.0</ele><time>2026-03-29T12:38:16.743Z</time></trkpt><trkpt lat="43.1201876" lon="12.1871903"><ele>394.0</ele><time>2026-03-29T12:38:17.743Z</time></trkpt><trkpt lat="43.1201125" lon="12.1872561"><ele>394.0</ele><time>2026-03-29T12:38:18.743Z</time></trkpt><trkpt lat="43.120038" lon="12.1873523"><ele>394.0</ele><time>2026-03-29T12:38:19.743Z</time></trkpt><trkpt lat="43.1199644" lon="12.1874389"><ele>394.0</ele><time>2026-03-29T12:38:20.743Z</time></trkpt><trkpt lat="43.1199035" lon="12.1875062"><ele>394.0</ele><time>2026-03-29T12:38:21.743Z</time></trkpt><trkpt lat="43.1198277" lon="12.1875822"><ele>391.33333333333337</ele><time>2026-03-29T12:38:23.743Z</time></trkpt><trkpt lat="43.1197534" lon="12.187597"><ele>388.6666666666667</ele><time>2026-03-29T12:38:25.743Z</time></trkpt><trkpt lat="43.1196708" lon="12.1876344"><ele>386.0</ele><time>2026-03-29T12:38:27.743Z</time></trkpt><trkpt lat="43.1195968" lon="12.187645"><ele>383.33333333333337</ele><time>2026-03-29T12:38:29.742Z</time></trkpt><trkpt lat="43.1195327" lon="12.1877095"><ele>380.6666666666667</ele><time>2026-03-29T12:38:30.743Z</time></trkpt><trkpt lat="43.1194584" lon="12.1877296"><ele>378.0</ele><time>2026-03-29T12:38:31.743Z</time></trkpt><trkpt lat="43.119403" lon="12.1877884"><ele>378.0</ele><time>2026-03-29T12:38:32.742Z</time></trkpt><trkpt lat="43.119327" lon="12.1878679"><ele>378.0</ele><time>2026-03-29T12:38:33.743Z</time></trkpt><trkpt lat="43.119248" lon="12.1879282"><ele>378.0</ele><time>2026-03-29T12:38:34.743Z</time></trkpt><trkpt lat="43.1191738" lon="12.1879839"><ele>378.0</ele><time>2026-03-29T12:38:35.743Z</time></trkpt><trkpt lat="43.1191047" lon="12.1880337"><ele>378.0</ele><time>2026-03-29T12:38:36.743Z</time></trkpt><trkpt lat="43.1190527" lon="12.18809"><ele>378.0</ele><time>2026-03-29T12:38:37.743Z</time></trkpt><trkpt lat="43.1190136" lon="12.1881771"><ele>376.79999999999995</ele><time>2026-03-29T12:38:38.743Z</time></trkpt><trkpt lat="43.1189705" lon="12.188304"><ele>375.6</ele><time>2026-03-29T12:38:39.743Z</time></trkpt><trkpt lat="43.1189161" lon="12.1883976"><ele>374.4</ele><time>2026-03-29T12:38:40.743Z</time></trkpt><trkpt lat="43.1188378" lon="12.1885058"><ele>373.20000000000005</ele><time>2026-03-29T12:38:41.743Z</time></trkpt><trkpt lat="43.1187677" lon="12.1885925"><ele>372.0</ele><time>2026-03-29T12:38:42.743Z</time></trkpt><trkpt lat="43.1186842" lon="12.1886668"><ele>372.0</ele><time>2026-03-29T12:38:43.743Z</time></trkpt><trkpt lat="43.1186157" lon="12.188739"><ele>372.0</ele><time>2026-03-29T12:38:44.743Z</time></trkpt><trkpt lat="43.1185084" lon="12.1888546"><ele>372.0</ele><time>2026-03-29T12:38:46.743Z</time></trkpt><trkpt lat="43.1184456" lon="12.1888832"><ele>372.0</ele><time>2026-03-29T12:38:47.743Z</time></trkpt><trkpt lat="43.1183818" lon="12.1888825"><ele>372.0</ele><time>2026-03-29T12:38:48.743Z</time></trkpt><trkpt lat="43.1183065" lon="12.1889363"><ele>372.0</ele><time>2026-03-29T12:38:49.743Z</time></trkpt><trkpt lat="43.1182067" lon="12.1889722"><ele>371.1666666666667</ele><time>2026-03-29T12:38:50.743Z</time></trkpt><trkpt lat="43.1181159" lon="12.1889803"><ele>370.3333333333333</ele><time>2026-03-29T12:38:51.743Z</time></trkpt><trkpt lat="43.1180503" lon="12.188982"><ele>369.5</ele><time>2026-03-29T12:38:52.743Z</time></trkpt><trkpt lat="43.1179925" lon="12.1890309"><ele>368.66666666666663</ele><time>2026-03-29T12:38:53.743Z</time></trkpt><trkpt lat="43.1179065" lon="12.1890561"><ele>367.8333333333333</ele><time>2026-03-29T12:38:54.743Z</time></trkpt><trkpt lat="43.1178044" lon="12.1890579"><ele>367.0</ele><time>2026-03-29T12:38:55.743Z</time></trkpt><trkpt lat="43.1177134" lon="12.1890546"><ele>366.0</ele><time>2026-03-29T12:38:56.743Z</time></trkpt><trkpt lat="43.1176117" lon="12.1890418"><ele>365.0</ele><time>2026-03-29T12:38:57.743Z</time></trkpt><trkpt lat="43.1175315" lon="12.1890438"><ele>364.0</ele><time>2026-03-29T12:38:58.743Z</time></trkpt><trkpt lat="43.117433" lon="12.1890998"><ele>363.0</ele><time>2026-03-29T12:39:00.743Z</time></trkpt><trkpt lat="43.1173728" lon="12.1891369"><ele>362.0</ele><time>2026-03-29T12:39:01.743Z</time></trkpt><trkpt lat="43.1172992" lon="12.1891775"><ele>361.0</ele><time>2026-03-29T12:39:02.743Z</time></trkpt><trkpt lat="43.1172319" lon="12.1892127"><ele>361.0</ele><time>2026-03-29T12:39:03.743Z</time></trkpt><trkpt lat="43.117137" lon="12.1893156"><ele>361.0</ele><time>2026-03-29T12:39:05.743Z</time></trkpt><trkpt lat="43.1170792" lon="12.1893676"><ele>361.0</ele><time>2026-03-29T12:39:06.742Z</time></trkpt><trkpt lat="43.1170078" lon="12.1894114"><ele>361.0</ele><time>2026-03-29T12:39:08.743Z</time></trkpt><trkpt lat="43.11698" lon="12.189558"><ele>361.0</ele><time>2026-03-29T12:39:10.743Z</time></trkpt><trkpt lat="43.1169025" lon="12.1897182"><ele>361.0</ele><time>2026-03-29T12:39:12.743Z</time></trkpt><trkpt lat="43.1168802" lon="12.1898245"><ele>361.0</ele><time>2026-03-29T12:39:13.743Z</time></trkpt><trkpt lat="43.1168867" lon="12.1899547"><ele>361.0</ele><time>2026-03-29T12:39:14.743Z</time></trkpt><trkpt lat="43.1168584" lon="12.1900469"><ele>361.0</ele><time>2026-03-29T12:39:15.743Z</time></trkpt><trkpt lat="43.1167996" lon="12.1901639"><ele>361.0</ele><time>2026-03-29T12:39:16.743Z</time></trkpt><trkpt lat="43.1167313" lon="12.1902776"><ele>361.6</ele><time>2026-03-29T12:39:17.743Z</time></trkpt><trkpt lat="43.1166417" lon="12.1903913"><ele>362.20000000000005</ele><time>2026-03-29T12:39:18.742Z</time></trkpt><trkpt lat="43.1165615" lon="12.1904871"><ele>362.79999999999995</ele><time>2026-03-29T12:39:19.743Z</time></trkpt><trkpt lat="43.1164959" lon="12.190594"><ele>363.4</ele><time>2026-03-29T12:39:20.743Z</time></trkpt><trkpt lat="43.1164301" lon="12.190687"><ele>364.0</ele><time>2026-03-29T12:39:21.743Z</time></trkpt><trkpt lat="43.1163755" lon="12.190815"><ele>364.2</ele><time>2026-03-29T12:39:22.743Z</time></trkpt><trkpt lat="43.1163407" lon="12.1909176"><ele>364.4</ele><time>2026-03-29T12:39:23.743Z</time></trkpt><trkpt lat="43.1162942" lon="12.1910278"><ele>364.6</ele><time>2026-03-29T12:39:24.743Z</time></trkpt><trkpt lat="43.1162523" lon="12.1911239"><ele>364.8</ele><time>2026-03-29T12:39:25.743Z</time></trkpt><trkpt lat="43.1161348" lon="12.1912506"><ele>365.0</ele><time>2026-03-29T12:39:27.743Z</time></trkpt><trkpt lat="43.1160714" lon="12.1913556"><ele>365.0</ele><time>2026-03-29T12:39:28.743Z</time></trkpt><trkpt lat="43.1160047" lon="12.1914683"><ele>365.0</ele><time>2026-03-29T12:39:29.743Z</time></trkpt><trkpt lat="43.1159359" lon="12.191586"><ele>365.0</ele><time>2026-03-29T12:39:30.743Z</time></trkpt><trkpt lat="43.1158801" lon="12.1917252"><ele>365.0</ele><time>2026-03-29T12:39:31.742Z</time></trkpt><trkpt lat="43.1158535" lon="12.1918557"><ele>365.0</ele><time>2026-03-29T12:39:32.743Z</time></trkpt><trkpt lat="43.1158481" lon="12.1919601"><ele>363.6</ele><time>2026-03-29T12:39:33.743Z</time></trkpt><trkpt lat="43.115853" lon="12.1921031"><ele>362.2</ele><time>2026-03-29T12:39:34.743Z</time></trkpt><trkpt lat="43.1158334" lon="12.1922182"><ele>360.79999999999995</ele><time>2026-03-29T12:39:35.743Z</time></trkpt><trkpt lat="43.1157977" lon="12.1923262"><ele>359.4</ele><time>2026-03-29T12:39:36.742Z</time></trkpt><trkpt lat="43.1157061" lon="12.1924196"><ele>358.0</ele><time>2026-03-29T12:39:38.743Z</time></trkpt><trkpt lat="43.1156333" lon="12.192465"><ele>357.0</ele><time>2026-03-29T12:39:39.743Z</time></trkpt><trkpt lat="43.1155404" lon="12.1925094"><ele>356.0</ele><time>2026-03-29T12:39:40.743Z</time></trkpt><trkpt lat="43.1154387" lon="12.1925701"><ele>355.0</ele><time>2026-03-29T12:39:41.743Z</time></trkpt><trkpt lat="43.1153479" lon="12.1926161"><ele>354.0</ele><time>2026-03-29T12:39:42.743Z</time></trkpt><trkpt lat="43.1152668" lon="12.1926538"><ele>353.0</ele><time>2026-03-29T12:39:43.743Z</time></trkpt><trkpt lat="43.1151979" lon="12.1926842"><ele>353.0</ele><time>2026-03-29T12:39:44.743Z</time></trkpt><trkpt lat="43.1151328" lon="12.1927468"><ele>353.0</ele><time>2026-03-29T12:39:45.743Z</time></trkpt><trkpt lat="43.1150787" lon="12.1928336"><ele>353.0</ele><time>2026-03-29T12:39:46.743Z</time></trkpt><trkpt lat="43.1150353" lon="12.1929465"><ele>353.0</ele><time>2026-03-29T12:39:47.743Z</time></trkpt><trkpt lat="43.1150024" lon="12.1930346"><ele>353.0</ele><time>2026-03-29T12:39:48.743Z</time></trkpt><trkpt lat="43.1149765" lon="12.1931223"><ele>353.0</ele><time>2026-03-29T12:39:50.743Z</time></trkpt><trkpt lat="43.1149908" lon="12.1932087"><ele>349.5</ele><time>2026-03-29T12:40:02.743Z</time></trkpt><trkpt lat="43.115133" lon="12.1932257"><ele>346.0</ele><time>2026-03-29T12:40:29.743Z</time></trkpt><trkpt lat="43.1152249" lon="12.1932848"><ele>342.5</ele><time>2026-03-29T12:40:30.743Z</time></trkpt><trkpt lat="43.1153324" lon="12.1933487"><ele>339.0</ele><time>2026-03-29T12:40:31.743Z</time></trkpt><trkpt lat="43.1154503" lon="12.1934245"><ele>339.0</ele><time>2026-03-29T12:40:32.743Z</time></trkpt><trkpt lat="43.1155661" lon="12.193499"><ele>339.0</ele><time>2026-03-29T12:40:33.743Z</time></trkpt><trkpt lat="43.1156788" lon="12.1935824"><ele>339.0</ele><time>2026-03-29T12:40:34.743Z</time></trkpt><trkpt lat="43.1157687" lon="12.1936784"><ele>339.0</ele><time>2026-03-29T12:40:35.743Z</time></trkpt><trkpt lat="43.1158426" lon="12.1937819"><ele>336.6666666666667</ele><time>2026-03-29T12:40:36.743Z</time></trkpt><trkpt lat="43.1159015" lon="12.1938657"><ele>334.3333333333333</ele><time>2026-03-29T12:40:37.743Z</time></trkpt><trkpt lat="43.1159559" lon="12.193923"><ele>332.0</ele><time>2026-03-29T12:40:38.743Z</time></trkpt><trkpt lat="43.1160219" lon="12.1939527"><ele>329.66666666666663</ele><time>2026-03-29T12:40:39.743Z</time></trkpt><trkpt lat="43.1161077" lon="12.1939772"><ele>327.3333333333333</ele><time>2026-03-29T12:40:40.743Z</time></trkpt><trkpt lat="43.1161968" lon="12.1939748"><ele>325.0</ele><time>2026-03-29T12:40:41.743Z</time></trkpt><trkpt lat="43.1162798" lon="12.1940003"><ele>323.0</ele><time>2026-03-29T12:40:42.743Z</time></trkpt><trkpt lat="43.1163621" lon="12.194033"><ele>321.0</ele><time>2026-03-29T12:40:43.743Z</time></trkpt><trkpt lat="43.1164302" lon="12.194157"><ele>319.0</ele><time>2026-03-29T12:40:44.743Z</time></trkpt><trkpt lat="43.116505" lon="12.1942764"><ele>317.0</ele><time>2026-03-29T12:40:45.743Z</time></trkpt><trkpt lat="43.1165637" lon="12.1943805"><ele>315.0</ele><time>2026-03-29T12:40:46.743Z</time></trkpt><trkpt lat="43.1166217" lon="12.1944583"><ele>312.8</ele><time>2026-03-29T12:40:47.743Z</time></trkpt><trkpt lat="43.1166863" lon="12.1945124"><ele>310.6</ele><time>2026-03-29T12:40:48.743Z</time></trkpt><trkpt lat="43.1167642" lon="12.1945626"><ele>308.4</ele><time>2026-03-29T12:40:49.743Z</time></trkpt><trkpt lat="43.1168251" lon="12.1946345"><ele>306.2</ele><time>2026-03-29T12:40:50.743Z</time></trkpt><trkpt lat="43.116888" lon="12.1947482"><ele>304.0</ele><time>2026-03-29T12:40:51.743Z</time></trkpt><trkpt lat="43.1169695" lon="12.194883"><ele>303.0</ele><time>2026-03-29T12:40:52.743Z</time></trkpt><trkpt lat="43.1170675" lon="12.1950394"><ele>302.0</ele><time>2026-03-29T12:40:53.743Z</time></trkpt><trkpt lat="43.1171475" lon="12.1951922"><ele>301.0</ele><time>2026-03-29T12:40:54.743Z</time></trkpt><trkpt lat="43.1172253" lon="12.19536"><ele>300.0</ele><time>2026-03-29T12:40:55.743Z</time></trkpt><trkpt lat="43.1173097" lon="12.1955243"><ele>298.2</ele><time>2026-03-29T12:40:56.743Z</time></trkpt><trkpt lat="43.1173838" lon="12.1956752"><ele>296.4</ele><time>2026-03-29T12:40:57.743Z</time></trkpt><trkpt lat="43.1174575" lon="12.1958097"><ele>294.6</ele><time>2026-03-29T12:40:58.743Z</time></trkpt><trkpt lat="43.1175299" lon="12.1959085"><ele>292.8</ele><time>2026-03-29T12:40:59.743Z</time></trkpt><trkpt lat="43.1176059" lon="12.1959633"><ele>291.0</ele><time>2026-03-29T12:41:00.743Z</time></trkpt><trkpt lat="43.1177119" lon="12.1959987"><ele>289.8</ele><time>2026-03-29T12:41:01.743Z</time></trkpt><trkpt lat="43.1178186" lon="12.1960381"><ele>288.6</ele><time>2026-03-29T12:41:02.743Z</time></trkpt><trkpt lat="43.1179056" lon="12.1960836"><ele>287.4</ele><time>2026-03-29T12:41:03.743Z</time></trkpt><trkpt lat="43.1179956" lon="12.1961465"><ele>286.2</ele><time>2026-03-29T12:41:04.743Z</time></trkpt><trkpt lat="43.1180534" lon="12.1962704"><ele>285.0</ele><time>2026-03-29T12:41:05.743Z</time></trkpt><trkpt lat="43.1181066" lon="12.1964128"><ele>284.2</ele><time>2026-03-29T12:41:06.743Z</time></trkpt><trkpt lat="43.1181457" lon="12.1965308"><ele>283.4</ele><time>2026-03-29T12:41:07.743Z</time></trkpt><trkpt lat="43.1181458" lon="12.1966732"><ele>282.6</ele><time>2026-03-29T12:41:08.743Z</time></trkpt><trkpt lat="43.1181436" lon="12.1968201"><ele>281.8</ele><time>2026-03-29T12:41:09.743Z</time></trkpt><trkpt lat="43.1181229" lon="12.1969681"><ele>281.0</ele><time>2026-03-29T12:41:10.743Z</time></trkpt><trkpt lat="43.118081" lon="12.1970957"><ele>281.0</ele><time>2026-03-29T12:41:11.743Z</time></trkpt><trkpt lat="43.1180241" lon="12.1972069"><ele>281.0</ele><time>2026-03-29T12:41:12.743Z</time></trkpt><trkpt lat="43.1179729" lon="12.1972979"><ele>281.0</ele><time>2026-03-29T12:41:13.743Z</time></trkpt><trkpt lat="43.1179329" lon="12.197396"><ele>281.0</ele><time>2026-03-29T12:41:14.743Z</time></trkpt><trkpt lat="43.117912" lon="12.1975134"><ele>281.0</ele><time>2026-03-29T12:41:15.743Z</time></trkpt><trkpt lat="43.1179037" lon="12.1976334"><ele>281.0</ele><time>2026-03-29T12:41:16.743Z</time></trkpt><trkpt lat="43.1179219" lon="12.1978073"><ele>277.33333333333337</ele><time>2026-03-29T12:41:17.743Z</time></trkpt><trkpt lat="43.1179407" lon="12.1980048"><ele>273.6666666666667</ele><time>2026-03-29T12:41:18.743Z</time></trkpt><trkpt lat="43.1179351" lon="12.1982148"><ele>270.0</ele><time>2026-03-29T12:41:19.743Z</time></trkpt><trkpt lat="43.11795" lon="12.198428"><ele>266.0</ele><time>2026-03-29T12:41:20.743Z</time></trkpt><trkpt lat="43.1179665" lon="12.1986565"><ele>262.0</ele><time>2026-03-29T12:41:21.743Z</time></trkpt><trkpt lat="43.117985" lon="12.1988853"><ele>258.0</ele><time>2026-03-29T12:41:22.743Z</time></trkpt><trkpt lat="43.1180164" lon="12.1991116"><ele>256.0</ele><time>2026-03-29T12:41:23.743Z</time></trkpt><trkpt lat="43.1180411" lon="12.1993456"><ele>254.0</ele><time>2026-03-29T12:41:24.743Z</time></trkpt><trkpt lat="43.1180579" lon="12.1995563"><ele>252.0</ele><time>2026-03-29T12:41:25.743Z</time></trkpt><trkpt lat="43.1180736" lon="12.1997665"><ele>250.75</ele><time>2026-03-29T12:41:26.743Z</time></trkpt><trkpt lat="43.1180889" lon="12.1999617"><ele>249.5</ele><time>2026-03-29T12:41:27.743Z</time></trkpt><trkpt lat="43.1181029" lon="12.2001437"><ele>248.25</ele><time>2026-03-29T12:41:28.743Z</time></trkpt><trkpt lat="43.118117" lon="12.2003006"><ele>247.0</ele><time>2026-03-29T12:41:29.743Z</time></trkpt><trkpt lat="43.1181294" lon="12.2004217"><ele>246.99999999999997</ele><time>2026-03-29T12:41:30.743Z</time></trkpt><trkpt lat="43.1181447" lon="12.2005085"><ele>247.0</ele><time>2026-03-29T12:41:31.743Z</time></trkpt><trkpt lat="43.1181693" lon="12.2005942"><ele>247.0</ele><time>2026-03-29T12:41:33.743Z</time></trkpt><trkpt lat="43.118252" lon="12.2007054"><ele>247.0</ele><time>2026-03-29T12:41:35.742Z</time></trkpt><trkpt lat="43.1183006" lon="12.2007627"><ele>246.99999999999997</ele><time>2026-03-29T12:41:36.743Z</time></trkpt><trkpt lat="43.118347" lon="12.2008596"><ele>247.0</ele><time>2026-03-29T12:41:38.742Z</time></trkpt><trkpt lat="43.1183557" lon="12.2009476"><ele>246.2</ele><time>2026-03-29T12:41:42.743Z</time></trkpt><trkpt lat="43.1183619" lon="12.2010489"><ele>245.39999999999998</ele><time>2026-03-29T12:41:45.743Z</time></trkpt><trkpt lat="43.1183618" lon="12.2011987"><ele>244.60000000000002</ele><time>2026-03-29T12:41:48.743Z</time></trkpt><trkpt lat="43.1183568" lon="12.2012848"><ele>243.8</ele><time>2026-03-29T12:41:49.743Z</time></trkpt><trkpt lat="43.1183464" lon="12.2014173"><ele>243.0</ele><time>2026-03-29T12:41:50.743Z</time></trkpt><trkpt lat="43.118342" lon="12.2015655"><ele>242.75</ele><time>2026-03-29T12:41:51.743Z</time></trkpt><trkpt lat="43.1183426" lon="12.2017451"><ele>242.5</ele><time>2026-03-29T12:41:52.743Z</time></trkpt><trkpt lat="43.1183473" lon="12.2019265"><ele>242.25</ele><time>2026-03-29T12:41:53.743Z</time></trkpt><trkpt lat="43.1183514" lon="12.2021168"><ele>242.0</ele><time>2026-03-29T12:41:54.743Z</time></trkpt><trkpt lat="43.1183507" lon="12.2023072"><ele>242.0</ele><time>2026-03-29T12:41:55.743Z</time></trkpt><trkpt lat="43.1183555" lon="12.2025016"><ele>242.0</ele><time>2026-03-29T12:41:56.742Z</time></trkpt><trkpt lat="43.1183591" lon="12.2027017"><ele>242.0</ele><time>2026-03-29T12:41:57.743Z</time></trkpt><trkpt lat="43.1183602" lon="12.2028992"><ele>242.0</ele><time>2026-03-29T12:41:58.743Z</time></trkpt><trkpt lat="43.1183586" lon="12.2030691"><ele>242.0</ele><time>2026-03-29T12:41:59.743Z</time></trkpt><trkpt lat="43.1183321" lon="12.2031932"><ele>242.0</ele><time>2026-03-29T12:42:00.743Z</time></trkpt><trkpt lat="43.1182754" lon="12.2032811"><ele>242.0</ele><time>2026-03-29T12:42:01.743Z</time></trkpt><trkpt lat="43.1181869" lon="12.2033335"><ele>242.0</ele><time>2026-03-29T12:42:02.743Z</time></trkpt><trkpt lat="43.1180902" lon="12.2033744"><ele>242.0</ele><time>2026-03-29T12:42:03.743Z</time></trkpt><trkpt lat="43.1179914" lon="12.2034232"><ele>242.39999999999998</ele><time>2026-03-29T12:42:04.743Z</time></trkpt><trkpt lat="43.1178994" lon="12.2034737"><ele>242.79999999999998</ele><time>2026-03-29T12:42:05.743Z</time></trkpt><trkpt lat="43.1178182" lon="12.2035336"><ele>243.2</ele><time>2026-03-29T12:42:06.743Z</time></trkpt><trkpt lat="43.117745" lon="12.2036191"><ele>243.6</ele><time>2026-03-29T12:42:07.743Z</time></trkpt><trkpt lat="43.1176897" lon="12.2037176"><ele>244.0</ele><time>2026-03-29T12:42:08.743Z</time></trkpt><trkpt lat="43.1176496" lon="12.2038271"><ele>243.99999999999997</ele><time>2026-03-29T12:42:09.743Z</time></trkpt><trkpt lat="43.1176148" lon="12.2039356"><ele>244.0</ele><time>2026-03-29T12:42:10.742Z</time></trkpt><trkpt lat="43.1175834" lon="12.2040386"><ele>244.0</ele><time>2026-03-29T12:42:11.743Z</time></trkpt><trkpt lat="43.1175554" lon="12.2041465"><ele>244.0</ele><time>2026-03-29T12:42:12.743Z</time></trkpt><trkpt lat="43.1175111" lon="12.2042548"><ele>243.99999999999997</ele><time>2026-03-29T12:42:13.743Z</time></trkpt><trkpt lat="43.1174658" lon="12.2043447"><ele>244.0</ele><time>2026-03-29T12:42:14.742Z</time></trkpt><trkpt lat="43.1174043" lon="12.2044355"><ele>244.39999999999998</ele><time>2026-03-29T12:42:15.743Z</time></trkpt><trkpt lat="43.1173312" lon="12.2045128"><ele>244.79999999999998</ele><time>2026-03-29T12:42:16.743Z</time></trkpt><trkpt lat="43.117254" lon="12.2045826"><ele>245.20000000000002</ele><time>2026-03-29T12:42:17.742Z</time></trkpt><trkpt lat="43.1171736" lon="12.2046505"><ele>245.60000000000002</ele><time>2026-03-29T12:42:18.743Z</time></trkpt><trkpt lat="43.1170974" lon="12.2047164"><ele>246.0</ele><time>2026-03-29T12:42:19.743Z</time></trkpt><trkpt lat="43.1170318" lon="12.2047887"><ele>246.60000000000002</ele><time>2026-03-29T12:42:20.743Z</time></trkpt><trkpt lat="43.1169886" lon="12.2048792"><ele>247.20000000000002</ele><time>2026-03-29T12:42:21.743Z</time></trkpt><trkpt lat="43.1169444" lon="12.2049905"><ele>247.79999999999998</ele><time>2026-03-29T12:42:22.743Z</time></trkpt><trkpt lat="43.1168958" lon="12.2051001"><ele>248.39999999999998</ele><time>2026-03-29T12:42:23.743Z</time></trkpt><trkpt lat="43.1168234" lon="12.2052026"><ele>249.0</ele><time>2026-03-29T12:42:24.743Z</time></trkpt><trkpt lat="43.1167401" lon="12.2053118"><ele>249.0</ele><time>2026-03-29T12:42:25.743Z</time></trkpt><trkpt lat="43.1166458" lon="12.2054175"><ele>249.0</ele><time>2026-03-29T12:42:26.743Z</time></trkpt><trkpt lat="43.1165455" lon="12.2055303"><ele>249.0</ele><time>2026-03-29T12:42:27.743Z</time></trkpt><trkpt lat="43.1164427" lon="12.2056393"><ele>249.0</ele><time>2026-03-29T12:42:28.743Z</time></trkpt><trkpt lat="43.1163353" lon="12.2057543"><ele>249.0</ele><time>2026-03-29T12:42:29.742Z</time></trkpt><trkpt lat="43.116235" lon="12.2058579"><ele>249.0</ele><time>2026-03-29T12:42:30.743Z</time></trkpt><trkpt lat="43.1161434" lon="12.2059673"><ele>249.0</ele><time>2026-03-29T12:42:31.742Z</time></trkpt><trkpt lat="43.116061" lon="12.2060824"><ele>249.0</ele><time>2026-03-29T12:42:32.743Z</time></trkpt><trkpt lat="43.1159914" lon="12.2062206"><ele>249.0</ele><time>2026-03-29T12:42:33.743Z</time></trkpt><trkpt lat="43.1159271" lon="12.2063544"><ele>249.0</ele><time>2026-03-29T12:42:34.743Z</time></trkpt><trkpt lat="43.1158635" lon="12.2065075"><ele>249.0</ele><time>2026-03-29T12:42:35.743Z</time></trkpt><trkpt lat="43.1157978" lon="12.2066581"><ele>249.0</ele><time>2026-03-29T12:42:36.743Z</time></trkpt><trkpt lat="43.1157254" lon="12.2068175"><ele>250.75</ele><time>2026-03-29T12:42:37.743Z</time></trkpt><trkpt lat="43.1156462" lon="12.2069625"><ele>252.5</ele><time>2026-03-29T12:42:38.743Z</time></trkpt><trkpt lat="43.1155491" lon="12.2070799"><ele>254.25</ele><time>2026-03-29T12:42:39.743Z</time></trkpt><trkpt lat="43.1154513" lon="12.2071678"><ele>256.0</ele><time>2026-03-29T12:42:40.743Z</time></trkpt><trkpt lat="43.1153646" lon="12.2072687"><ele>256.25</ele><time>2026-03-29T12:42:41.743Z</time></trkpt><trkpt lat="43.1152946" lon="12.2074006"><ele>256.5</ele><time>2026-03-29T12:42:42.743Z</time></trkpt><trkpt lat="43.1152615" lon="12.2075454"><ele>256.75</ele><time>2026-03-29T12:42:43.743Z</time></trkpt><trkpt lat="43.1152566" lon="12.2077142"><ele>257.0</ele><time>2026-03-29T12:42:44.743Z</time></trkpt><trkpt lat="43.1152614" lon="12.2078808"><ele>257.0</ele><time>2026-03-29T12:42:45.743Z</time></trkpt><trkpt lat="43.1152797" lon="12.2080645"><ele>257.0</ele><time>2026-03-29T12:42:46.743Z</time></trkpt><trkpt lat="43.1152989" lon="12.208257"><ele>257.0</ele><time>2026-03-29T12:42:47.743Z</time></trkpt><trkpt lat="43.1153116" lon="12.2084414"><ele>257.0</ele><time>2026-03-29T12:42:48.743Z</time></trkpt><trkpt lat="43.1153154" lon="12.2086309"><ele>257.0</ele><time>2026-03-29T12:42:49.743Z</time></trkpt><trkpt lat="43.1153166" lon="12.2088201"><ele>257.0</ele><time>2026-03-29T12:42:50.743Z</time></trkpt><trkpt lat="43.1153271" lon="12.2090017"><ele>257.0</ele><time>2026-03-29T12:42:51.743Z</time></trkpt><trkpt lat="43.1153498" lon="12.209174"><ele>257.0</ele><time>2026-03-29T12:42:52.743Z</time></trkpt><trkpt lat="43.1153916" lon="12.2093328"><ele>259.25</ele><time>2026-03-29T12:42:53.743Z</time></trkpt><trkpt lat="43.1154456" lon="12.209492"><ele>261.5</ele><time>2026-03-29T12:42:54.743Z</time></trkpt><trkpt lat="43.1155025" lon="12.2096483"><ele>263.75</ele><time>2026-03-29T12:42:55.743Z</time></trkpt><trkpt lat="43.1155434" lon="12.209812"><ele>266.0</ele><time>2026-03-29T12:42:56.743Z</time></trkpt><trkpt lat="43.1155846" lon="12.2099646"><ele>266.25</ele><time>2026-03-29T12:42:57.743Z</time></trkpt><trkpt lat="43.1156278" lon="12.2101125"><ele>266.5</ele><time>2026-03-29T12:42:58.743Z</time></trkpt><trkpt lat="43.1156688" lon="12.210278"><ele>266.75</ele><time>2026-03-29T12:42:59.742Z</time></trkpt><trkpt lat="43.1157042" lon="12.2104484"><ele>267.0</ele><time>2026-03-29T12:43:00.743Z</time></trkpt><trkpt lat="43.1157399" lon="12.2106322"><ele>267.5</ele><time>2026-03-29T12:43:01.743Z</time></trkpt><trkpt lat="43.115777" lon="12.2108245"><ele>268.0</ele><time>2026-03-29T12:43:02.743Z</time></trkpt><trkpt lat="43.1158186" lon="12.2110193"><ele>268.5</ele><time>2026-03-29T12:43:03.743Z</time></trkpt><trkpt lat="43.1158537" lon="12.2112228"><ele>269.0</ele><time>2026-03-29T12:43:04.743Z</time></trkpt><trkpt lat="43.1158804" lon="12.2114152"><ele>270.0</ele><time>2026-03-29T12:43:05.743Z</time></trkpt><trkpt lat="43.1159073" lon="12.2116042"><ele>271.0</ele><time>2026-03-29T12:43:06.743Z</time></trkpt><trkpt lat="43.1159323" lon="12.2117824"><ele>272.0</ele><time>2026-03-29T12:43:07.743Z</time></trkpt><trkpt lat="43.1159475" lon="12.2119471"><ele>273.0</ele><time>2026-03-29T12:43:08.743Z</time></trkpt><trkpt lat="43.1159441" lon="12.2121181"><ele>273.0</ele><time>2026-03-29T12:43:09.743Z</time></trkpt><trkpt lat="43.1159236" lon="12.2123013"><ele>273.0</ele><time>2026-03-29T12:43:10.743Z</time></trkpt><trkpt lat="43.1158983" lon="12.2124769"><ele>273.0</ele><time>2026-03-29T12:43:11.743Z</time></trkpt><trkpt lat="43.1158738" lon="12.2126396"><ele>273.0</ele><time>2026-03-29T12:43:12.743Z</time></trkpt><trkpt lat="43.1158526" lon="12.2127978"><ele>273.0</ele><time>2026-03-29T12:43:13.743Z</time></trkpt><trkpt lat="43.1158568" lon="12.2129453"><ele>273.0</ele><time>2026-03-29T12:43:14.743Z</time></trkpt><trkpt lat="43.1158949" lon="12.2130823"><ele>273.0</ele><time>2026-03-29T12:43:15.743Z</time></trkpt><trkpt lat="43.115955" lon="12.213201"><ele>273.0</ele><time>2026-03-29T12:43:16.742Z</time></trkpt><trkpt lat="43.1160316" lon="12.2133187"><ele>273.0</ele><time>2026-03-29T12:43:17.743Z</time></trkpt><trkpt lat="43.1161099" lon="12.2134391"><ele>273.0</ele><time>2026-03-29T12:43:18.743Z</time></trkpt><trkpt lat="43.1161775" lon="12.2135435"><ele>273.0</ele><time>2026-03-29T12:43:19.743Z</time></trkpt><trkpt lat="43.1162189" lon="12.2136443"><ele>273.0</ele><time>2026-03-29T12:43:20.743Z</time></trkpt><trkpt lat="43.116206" lon="12.2137732"><ele>273.0</ele><time>2026-03-29T12:43:22.743Z</time></trkpt><trkpt lat="43.1161005" lon="12.2138448"><ele>273.0</ele><time>2026-03-29T12:43:24.743Z</time></trkpt><trkpt lat="43.1160195" lon="12.2138755"><ele>273.0</ele><time>2026-03-29T12:43:25.743Z</time></trkpt><trkpt lat="43.115927" lon="12.2138962"><ele>273.0</ele><time>2026-03-29T12:43:26.743Z</time></trkpt><trkpt lat="43.1158305" lon="12.2139097"><ele>273.0</ele><time>2026-03-29T12:43:27.743Z</time></trkpt><trkpt lat="43.1157261" lon="12.213935"><ele>273.0</ele><time>2026-03-29T12:43:28.743Z</time></trkpt><trkpt lat="43.1156457" lon="12.2139701"><ele>273.0</ele><time>2026-03-29T12:43:29.743Z</time></trkpt><trkpt lat="43.115583" lon="12.2140268"><ele>275.5</ele><time>2026-03-29T12:43:30.743Z</time></trkpt><trkpt lat="43.1155377" lon="12.214107"><ele>278.0</ele><time>2026-03-29T12:43:31.743Z</time></trkpt><trkpt lat="43.1155066" lon="12.2141872"><ele>280.5</ele><time>2026-03-29T12:43:32.743Z</time></trkpt><trkpt lat="43.115497" lon="12.2142913"><ele>283.0</ele><time>2026-03-29T12:43:33.742Z</time></trkpt><trkpt lat="43.1154984" lon="12.2144093"><ele>285.5</ele><time>2026-03-29T12:43:34.743Z</time></trkpt><trkpt lat="43.1155054" lon="12.214544"><ele>288.0</ele><time>2026-03-29T12:43:35.743Z</time></trkpt><trkpt lat="43.1155228" lon="12.2146397"><ele>288.0</ele><time>2026-03-29T12:43:36.743Z</time></trkpt><trkpt lat="43.1155548" lon="12.2147402"><ele>288.0</ele><time>2026-03-29T12:43:37.743Z</time></trkpt><trkpt lat="43.1156464" lon="12.2148082"><ele>288.0</ele><time>2026-03-29T12:43:38.743Z</time></trkpt><trkpt lat="43.1157277" lon="12.2149003"><ele>288.0</ele><time>2026-03-29T12:43:39.742Z</time></trkpt><trkpt lat="43.1158029" lon="12.2150002"><ele>288.0</ele><time>2026-03-29T12:43:40.743Z</time></trkpt><trkpt lat="43.1159215" lon="12.2151036"><ele>287.0</ele><time>2026-03-29T12:43:41.742Z</time></trkpt><trkpt lat="43.1160266" lon="12.2151935"><ele>286.0</ele><time>2026-03-29T12:43:42.743Z</time></trkpt><trkpt lat="43.1161198" lon="12.2152773"><ele>285.0</ele><time>2026-03-29T12:43:43.743Z</time></trkpt><trkpt lat="43.1162003" lon="12.2153722"><ele>284.0</ele><time>2026-03-29T12:43:44.742Z</time></trkpt><trkpt lat="43.1162918" lon="12.2154694"><ele>284.0</ele><time>2026-03-29T12:43:45.743Z</time></trkpt><trkpt lat="43.1163792" lon="12.2155564"><ele>284.0</ele><time>2026-03-29T12:43:46.743Z</time></trkpt><trkpt lat="43.1164583" lon="12.2156155"><ele>284.0</ele><time>2026-03-29T12:43:48.743Z</time></trkpt><trkpt lat="43.1164224" lon="12.215695"><ele>284.0</ele><time>2026-03-29T12:43:51.743Z</time></trkpt><trkpt lat="43.1162786" lon="12.2157293"><ele>284.0</ele><time>2026-03-29T12:43:53.743Z</time></trkpt><trkpt lat="43.1161819" lon="12.2157505"><ele>287.0</ele><time>2026-03-29T12:43:54.743Z</time></trkpt><trkpt lat="43.1160578" lon="12.2157665"><ele>290.0</ele><time>2026-03-29T12:43:55.743Z</time></trkpt><trkpt lat="43.115928" lon="12.2157891"><ele>293.0</ele><time>2026-03-29T12:43:56.742Z</time></trkpt><trkpt lat="43.1158109" lon="12.2158402"><ele>296.0</ele><time>2026-03-29T12:43:57.743Z</time></trkpt><trkpt lat="43.1157121" lon="12.2158846"><ele>296.6</ele><time>2026-03-29T12:43:58.743Z</time></trkpt><trkpt lat="43.1156153" lon="12.2159575"><ele>297.20000000000005</ele><time>2026-03-29T12:43:59.743Z</time></trkpt><trkpt lat="43.115522" lon="12.2160401"><ele>297.79999999999995</ele><time>2026-03-29T12:44:00.743Z</time></trkpt><trkpt lat="43.1154184" lon="12.216101"><ele>298.4</ele><time>2026-03-29T12:44:01.743Z</time></trkpt><trkpt lat="43.1153239" lon="12.216162"><ele>299.0</ele><time>2026-03-29T12:44:02.743Z</time></trkpt><trkpt lat="43.1152381" lon="12.216219"><ele>299.0</ele><time>2026-03-29T12:44:03.743Z</time></trkpt><trkpt lat="43.1151758" lon="12.2162903"><ele>299.0</ele><time>2026-03-29T12:44:04.743Z</time></trkpt><trkpt lat="43.1151103" lon="12.2163775"><ele>299.0</ele><time>2026-03-29T12:44:05.742Z</time></trkpt><trkpt lat="43.1150397" lon="12.2164862"><ele>299.0</ele><time>2026-03-29T12:44:06.743Z</time></trkpt><trkpt lat="43.114978" lon="12.2165697"><ele>299.0</ele><time>2026-03-29T12:44:07.743Z</time></trkpt><trkpt lat="43.1149251" lon="12.2166308"><ele>299.0</ele><time>2026-03-29T12:44:08.743Z</time></trkpt><trkpt lat="43.114863" lon="12.2167021"><ele>301.4</ele><time>2026-03-29T12:44:09.743Z</time></trkpt><trkpt lat="43.114813" lon="12.216779"><ele>303.79999999999995</ele><time>2026-03-29T12:44:10.743Z</time></trkpt><trkpt lat="43.1148123" lon="12.2169169"><ele>306.20000000000005</ele><time>2026-03-29T12:44:12.743Z</time></trkpt><trkpt lat="43.1149138" lon="12.2169926"><ele>308.6</ele><time>2026-03-29T12:44:14.743Z</time></trkpt><trkpt lat="43.1149886" lon="12.2169784"><ele>311.0</ele><time>2026-03-29T12:44:15.743Z</time></trkpt><trkpt lat="43.1150336" lon="12.2168715"><ele>311.0</ele><time>2026-03-29T12:44:16.743Z</time></trkpt><trkpt lat="43.115145" lon="12.2168147"><ele>311.0</ele><time>2026-03-29T12:44:18.742Z</time></trkpt><trkpt lat="43.1152085" lon="12.2167799"><ele>311.0</ele><time>2026-03-29T12:44:19.743Z</time></trkpt><trkpt lat="43.1153268" lon="12.2167789"><ele>311.0</ele><time>2026-03-29T12:44:20.743Z</time></trkpt><trkpt lat="43.1154333" lon="12.2168192"><ele>311.0</ele><time>2026-03-29T12:44:21.743Z</time></trkpt><trkpt lat="43.115516" lon="12.2168386"><ele>311.0</ele><time>2026-03-29T12:44:22.743Z</time></trkpt><trkpt lat="43.115579" lon="12.2168941"><ele>311.0</ele><time>2026-03-29T12:44:24.743Z</time></trkpt><trkpt lat="43.1155168" lon="12.2169843"><ele>311.0</ele><time>2026-03-29T12:44:26.743Z</time></trkpt><trkpt lat="43.1154069" lon="12.217059"><ele>311.0</ele><time>2026-03-29T12:44:28.743Z</time></trkpt><trkpt lat="43.1153414" lon="12.2172153"><ele>311.0</ele><time>2026-03-29T12:44:30.743Z</time></trkpt><trkpt lat="43.1153012" lon="12.2172841"><ele>314.4</ele><time>2026-03-29T12:44:31.742Z</time></trkpt><trkpt lat="43.1152612" lon="12.2173742"><ele>317.8</ele><time>2026-03-29T12:44:32.743Z</time></trkpt><trkpt lat="43.1152013" lon="12.2174614"><ele>321.2</ele><time>2026-03-29T12:44:33.743Z</time></trkpt><trkpt lat="43.1151324" lon="12.2175432"><ele>324.59999999999997</ele><time>2026-03-29T12:44:34.743Z</time></trkpt><trkpt lat="43.1150614" lon="12.2176312"><ele>328.0</ele><time>2026-03-29T12:44:35.743Z</time></trkpt><trkpt lat="43.1149782" lon="12.2177252"><ele>328.4</ele><time>2026-03-29T12:44:36.743Z</time></trkpt><trkpt lat="43.1148966" lon="12.2178116"><ele>328.79999999999995</ele><time>2026-03-29T12:44:37.743Z</time></trkpt><trkpt lat="43.1148203" lon="12.2178682"><ele>329.2</ele><time>2026-03-29T12:44:38.743Z</time></trkpt><trkpt lat="43.1147356" lon="12.2179657"><ele>329.6</ele><time>2026-03-29T12:44:40.743Z</time></trkpt><trkpt lat="43.1148046" lon="12.2180522"><ele>330.0</ele><time>2026-03-29T12:44:42.743Z</time></trkpt><trkpt lat="43.114887" lon="12.2180787"><ele>329.6</ele><time>2026-03-29T12:44:43.743Z</time></trkpt><trkpt lat="43.1149828" lon="12.2181496"><ele>329.2</ele><time>2026-03-29T12:44:45.743Z</time></trkpt><trkpt lat="43.1150449" lon="12.2182862"><ele>328.79999999999995</ele><time>2026-03-29T12:44:47.742Z</time></trkpt><trkpt lat="43.1150862" lon="12.2183866"><ele>328.4</ele><time>2026-03-29T12:44:48.743Z</time></trkpt><trkpt lat="43.115113" lon="12.218501"><ele>328.0</ele><time>2026-03-29T12:44:49.743Z</time></trkpt><trkpt lat="43.1151088" lon="12.2186011"><ele>331.0</ele><time>2026-03-29T12:44:50.743Z</time></trkpt><trkpt lat="43.1150737" lon="12.218704"><ele>334.0</ele><time>2026-03-29T12:44:51.743Z</time></trkpt><trkpt lat="43.1150124" lon="12.2187922"><ele>337.0</ele><time>2026-03-29T12:44:52.743Z</time></trkpt><trkpt lat="43.1149537" lon="12.2188872"><ele>340.0</ele><time>2026-03-29T12:44:53.743Z</time></trkpt><trkpt lat="43.1149065" lon="12.2190041"><ele>343.0</ele><time>2026-03-29T12:44:54.742Z</time></trkpt><trkpt lat="43.1148609" lon="12.2191335"><ele>346.3333333333333</ele><time>2026-03-29T12:44:55.743Z</time></trkpt><trkpt lat="43.1148163" lon="12.2192563"><ele>349.66666666666663</ele><time>2026-03-29T12:44:56.743Z</time></trkpt><trkpt lat="43.1147765" lon="12.2193685"><ele>353.0</ele><time>2026-03-29T12:44:57.743Z</time></trkpt><trkpt lat="43.1147508" lon="12.219472"><ele>356.3333333333333</ele><time>2026-03-29T12:44:58.743Z</time></trkpt><trkpt lat="43.1147005" lon="12.2195688"><ele>359.6666666666667</ele><time>2026-03-29T12:44:59.743Z</time></trkpt><trkpt lat="43.1146444" lon="12.2196517"><ele>363.0</ele><time>2026-03-29T12:45:00.743Z</time></trkpt><trkpt lat="43.1145904" lon="12.2197376"><ele>364.79999999999995</ele><time>2026-03-29T12:45:01.742Z</time></trkpt><trkpt lat="43.1145217" lon="12.219827"><ele>366.6</ele><time>2026-03-29T12:45:02.743Z</time></trkpt><trkpt lat="43.1144491" lon="12.2199225"><ele>368.4</ele><time>2026-03-29T12:45:03.743Z</time></trkpt><trkpt lat="43.1143839" lon="12.2199927"><ele>370.20000000000005</ele><time>2026-03-29T12:45:04.743Z</time></trkpt><trkpt lat="43.114304" lon="12.22003"><ele>372.0</ele><time>2026-03-29T12:45:05.743Z</time></trkpt><trkpt lat="43.114216" lon="12.2200551"><ele>372.0</ele><time>2026-03-29T12:45:06.743Z</time></trkpt><trkpt lat="43.1141183" lon="12.2201044"><ele>372.0</ele><time>2026-03-29T12:45:07.743Z</time></trkpt><trkpt lat="43.1140263" lon="12.2201368"><ele>372.0</ele><time>2026-03-29T12:45:08.743Z</time></trkpt><trkpt lat="43.1139421" lon="12.2201426"><ele>372.0</ele><time>2026-03-29T12:45:09.742Z</time></trkpt><trkpt lat="43.1138443" lon="12.2201622"><ele>372.0</ele><time>2026-03-29T12:45:10.743Z</time></trkpt><trkpt lat="43.1137312" lon="12.2201813"><ele>374.0</ele><time>2026-03-29T12:45:11.743Z</time></trkpt><trkpt lat="43.1136141" lon="12.2202051"><ele>376.0</ele><time>2026-03-29T12:45:12.743Z</time></trkpt><trkpt lat="43.1134939" lon="12.2202202"><ele>378.0</ele><time>2026-03-29T12:45:13.743Z</time></trkpt><trkpt lat="43.113409" lon="12.2202483"><ele>380.0</ele><time>2026-03-29T12:45:14.743Z</time></trkpt><trkpt lat="43.1133504" lon="12.2202886"><ele>382.0</ele><time>2026-03-29T12:45:15.743Z</time></trkpt><trkpt lat="43.1133534" lon="12.2203882"><ele>382.0</ele><time>2026-03-29T12:45:16.743Z</time></trkpt><trkpt lat="43.11341" lon="12.2205648"><ele>382.0</ele><time>2026-03-29T12:45:18.743Z</time></trkpt><trkpt lat="43.1133993" lon="12.2207383"><ele>382.0</ele><time>2026-03-29T12:45:20.743Z</time></trkpt><trkpt lat="43.1133869" lon="12.2208442"><ele>382.0</ele><time>2026-03-29T12:45:21.743Z</time></trkpt><trkpt lat="43.1133881" lon="12.220936"><ele>382.0</ele><time>2026-03-29T12:45:22.743Z</time></trkpt><trkpt lat="43.1134135" lon="12.221034"><ele>387.66666666666663</ele><time>2026-03-29T12:45:23.743Z</time></trkpt><trkpt lat="43.1135908" lon="12.2211713"><ele>393.3333333333333</ele><time>2026-03-29T12:45:25.743Z</time></trkpt><trkpt lat="43.1137126" lon="12.2212269"><ele>399.0</ele><time>2026-03-29T12:45:26.743Z</time></trkpt><trkpt lat="43.1137996" lon="12.2213615"><ele>399.0</ele><time>2026-03-29T12:45:27.743Z</time></trkpt><trkpt lat="43.113871" lon="12.2214462"><ele>399.0</ele><time>2026-03-29T12:45:28.743Z</time></trkpt><trkpt lat="43.1139612" lon="12.2215598"><ele>399.0</ele><time>2026-03-29T12:45:30.743Z</time></trkpt><trkpt lat="43.1140513" lon="12.2216221"><ele>399.0</ele><time>2026-03-29T12:45:31.743Z</time></trkpt><trkpt lat="43.1141309" lon="12.2216736"><ele>399.0</ele><time>2026-03-29T12:45:32.742Z</time></trkpt><trkpt lat="43.1142097" lon="12.2217192"><ele>399.0</ele><time>2026-03-29T12:45:33.743Z</time></trkpt><trkpt lat="43.1142862" lon="12.2217965"><ele>399.0</ele><time>2026-03-29T12:45:34.742Z</time></trkpt><trkpt lat="43.1143401" lon="12.2219072"><ele>399.0</ele><time>2026-03-29T12:45:35.743Z</time></trkpt><trkpt lat="43.1143979" lon="12.2220067"><ele>399.0</ele><time>2026-03-29T12:45:36.743Z</time></trkpt><trkpt lat="43.1144552" lon="12.2221069"><ele>399.0</ele><time>2026-03-29T12:45:37.743Z</time></trkpt><trkpt lat="43.1145079" lon="12.2222227"><ele>401.4</ele><time>2026-03-29T12:45:38.743Z</time></trkpt><trkpt lat="43.1145545" lon="12.222333"><ele>403.79999999999995</ele><time>2026-03-29T12:45:39.743Z</time></trkpt><trkpt lat="43.1145653" lon="12.2224621"><ele>406.20000000000005</ele><time>2026-03-29T12:45:40.743Z</time></trkpt><trkpt lat="43.1145308" lon="12.2226146"><ele>408.6</ele><time>2026-03-29T12:45:41.743Z</time></trkpt><trkpt lat="43.1145138" lon="12.2227292"><ele>411.0</ele><time>2026-03-29T12:45:42.743Z</time></trkpt><trkpt lat="43.1144989" lon="12.2228495"><ele>411.0</ele><time>2026-03-29T12:45:43.743Z</time></trkpt><trkpt lat="43.1145533" lon="12.2229969"><ele>411.0</ele><time>2026-03-29T12:45:45.743Z</time></trkpt><trkpt lat="43.1146884" lon="12.2230085"><ele>411.0</ele><time>2026-03-29T12:45:47.743Z</time></trkpt><trkpt lat="43.1147822" lon="12.2229763"><ele>411.0</ele><time>2026-03-29T12:45:48.743Z</time></trkpt><trkpt lat="43.1149165" lon="12.2229252"><ele>405.0</ele><time>2026-03-29T12:45:49.742Z</time></trkpt><trkpt lat="43.1150355" lon="12.2229001"><ele>399.0</ele><time>2026-03-29T12:45:50.743Z</time></trkpt><trkpt lat="43.1151628" lon="12.2228664"><ele>393.0</ele><time>2026-03-29T12:45:51.743Z</time></trkpt><trkpt lat="43.1152809" lon="12.2228552"><ele>387.0</ele><time>2026-03-29T12:45:52.743Z</time></trkpt><trkpt lat="43.1154156" lon="12.2228639"><ele>387.0</ele><time>2026-03-29T12:45:53.743Z</time></trkpt><trkpt lat="43.1155334" lon="12.2228467"><ele>387.0</ele><time>2026-03-29T12:45:54.743Z</time></trkpt><trkpt lat="43.1156434" lon="12.2228167"><ele>387.0</ele><time>2026-03-29T12:45:55.743Z</time></trkpt><trkpt lat="43.1157469" lon="12.2227971"><ele>387.0</ele><time>2026-03-29T12:45:56.743Z</time></trkpt><trkpt lat="43.1158551" lon="12.2227944"><ele>387.0</ele><time>2026-03-29T12:45:57.743Z</time></trkpt><trkpt lat="43.11596" lon="12.2228111"><ele>384.20000000000005</ele><time>2026-03-29T12:45:58.743Z</time></trkpt><trkpt lat="43.1160566" lon="12.222839"><ele>381.4</ele><time>2026-03-29T12:45:59.742Z</time></trkpt><trkpt lat="43.1161604" lon="12.2228679"><ele>378.6</ele><time>2026-03-29T12:46:00.743Z</time></trkpt><trkpt lat="43.1162707" lon="12.2228943"><ele>375.79999999999995</ele><time>2026-03-29T12:46:01.743Z</time></trkpt><trkpt lat="43.1163906" lon="12.2229221"><ele>373.0</ele><time>2026-03-29T12:46:02.743Z</time></trkpt><trkpt lat="43.1165277" lon="12.222924"><ele>371.5</ele><time>2026-03-29T12:46:03.743Z</time></trkpt><trkpt lat="43.1166612" lon="12.2229197"><ele>370.0</ele><time>2026-03-29T12:46:04.743Z</time></trkpt><trkpt lat="43.116803" lon="12.2229196"><ele>368.5</ele><time>2026-03-29T12:46:05.743Z</time></trkpt><trkpt lat="43.1169376" lon="12.2229273"><ele>367.0</ele><time>2026-03-29T12:46:06.743Z</time></trkpt><trkpt lat="43.1170648" lon="12.2229355"><ele>367.0</ele><time>2026-03-29T12:46:07.743Z</time></trkpt><trkpt lat="43.1171581" lon="12.2229423"><ele>367.0</ele><time>2026-03-29T12:46:08.743Z</time></trkpt><trkpt lat="43.1172209" lon="12.2229505"><ele>367.0</ele><time>2026-03-29T12:46:09.743Z</time></trkpt><trkpt lat="43.1172844" lon="12.2229697"><ele>367.0</ele><time>2026-03-29T12:46:13.743Z</time></trkpt><trkpt lat="43.1171954" lon="12.2230139"><ele>367.0</ele><time>2026-03-29T12:46:19.743Z</time></trkpt><trkpt lat="43.1171184" lon="12.223075"><ele>367.0</ele><time>2026-03-29T12:46:21.743Z</time></trkpt><trkpt lat="43.1170366" lon="12.2231632"><ele>372.5</ele><time>2026-03-29T12:46:23.743Z</time></trkpt><trkpt lat="43.1169677" lon="12.2232666"><ele>378.0</ele><time>2026-03-29T12:46:25.743Z</time></trkpt><trkpt lat="43.116887" lon="12.2233954"><ele>383.5</ele><time>2026-03-29T12:46:27.743Z</time></trkpt><trkpt lat="43.1167902" lon="12.2235086"><ele>389.0</ele><time>2026-03-29T12:46:29.743Z</time></trkpt><trkpt lat="43.1167042" lon="12.2235684"><ele>389.0</ele><time>2026-03-29T12:46:30.743Z</time></trkpt><trkpt lat="43.1166034" lon="12.2236142"><ele>389.0</ele><time>2026-03-29T12:46:31.743Z</time></trkpt><trkpt lat="43.1164994" lon="12.2236511"><ele>389.0</ele><time>2026-03-29T12:46:32.743Z</time></trkpt><trkpt lat="43.1163962" lon="12.2236914"><ele>389.0</ele><time>2026-03-29T12:46:33.743Z</time></trkpt><trkpt lat="43.1163118" lon="12.2237645"><ele>389.0</ele><time>2026-03-29T12:46:34.743Z</time></trkpt><trkpt lat="43.1162299" lon="12.2237979"><ele>389.79999999999995</ele><time>2026-03-29T12:46:35.743Z</time></trkpt><trkpt lat="43.1160968" lon="12.2238414"><ele>390.59999999999997</ele><time>2026-03-29T12:46:37.743Z</time></trkpt><trkpt lat="43.1160279" lon="12.223875"><ele>391.4</ele><time>2026-03-29T12:46:38.743Z</time></trkpt><trkpt lat="43.1159844" lon="12.2239586"><ele>392.2</ele><time>2026-03-29T12:46:39.743Z</time></trkpt><trkpt lat="43.1159934" lon="12.2241119"><ele>393.0</ele><time>2026-03-29T12:46:41.742Z</time></trkpt><trkpt lat="43.1160623" lon="12.2241897"><ele>396.4</ele><time>2026-03-29T12:46:42.743Z</time></trkpt><trkpt lat="43.1161197" lon="12.2242739"><ele>399.79999999999995</ele><time>2026-03-29T12:46:43.743Z</time></trkpt><trkpt lat="43.1161536" lon="12.2244104"><ele>403.2</ele><time>2026-03-29T12:46:45.743Z</time></trkpt><trkpt lat="43.1160367" lon="12.2245028"><ele>406.6</ele><time>2026-03-29T12:46:47.743Z</time></trkpt><trkpt lat="43.1159631" lon="12.2245375"><ele>410.0</ele><time>2026-03-29T12:46:48.743Z</time></trkpt><trkpt lat="43.1158434" lon="12.2245509"><ele>411.8</ele><time>2026-03-29T12:46:49.743Z</time></trkpt><trkpt lat="43.1157337" lon="12.224597"><ele>413.6</ele><time>2026-03-29T12:46:50.743Z</time></trkpt><trkpt lat="43.1156208" lon="12.2246154"><ele>415.4</ele><time>2026-03-29T12:46:51.743Z</time></trkpt><trkpt lat="43.1155085" lon="12.224642"><ele>417.2</ele><time>2026-03-29T12:46:52.743Z</time></trkpt><trkpt lat="43.1154076" lon="12.2246491"><ele>419.0</ele><time>2026-03-29T12:46:53.743Z</time></trkpt><trkpt lat="43.1153343" lon="12.2246259"><ele>419.0</ele><time>2026-03-29T12:46:54.743Z</time></trkpt><trkpt lat="43.1152453" lon="12.2245237"><ele>419.0</ele><time>2026-03-29T12:46:56.743Z</time></trkpt><trkpt lat="43.1151371" lon="12.2245191"><ele>419.0</ele><time>2026-03-29T12:46:58.743Z</time></trkpt><trkpt lat="43.1150998" lon="12.224624"><ele>419.0</ele><time>2026-03-29T12:46:59.743Z</time></trkpt><trkpt lat="43.1150442" lon="12.2247814"><ele>419.0</ele><time>2026-03-29T12:47:01.743Z</time></trkpt><trkpt lat="43.1149788" lon="12.2248453"><ele>422.79999999999995</ele><time>2026-03-29T12:47:02.743Z</time></trkpt><trkpt lat="43.1148905" lon="12.2249121"><ele>426.59999999999997</ele><time>2026-03-29T12:47:03.743Z</time></trkpt><trkpt lat="43.1147985" lon="12.2249621"><ele>430.4</ele><time>2026-03-29T12:47:04.742Z</time></trkpt><trkpt lat="43.1147178" lon="12.2250051"><ele>434.2</ele><time>2026-03-29T12:47:05.743Z</time></trkpt><trkpt lat="43.1146659" lon="12.2250682"><ele>438.0</ele><time>2026-03-29T12:47:06.742Z</time></trkpt><trkpt lat="43.1145888" lon="12.2251541"><ele>438.0</ele><time>2026-03-29T12:47:08.742Z</time></trkpt><trkpt lat="43.1144861" lon="12.2251813"><ele>438.0</ele><time>2026-03-29T12:47:10.743Z</time></trkpt><trkpt lat="43.1143729" lon="12.2251593"><ele>438.0</ele><time>2026-03-29T12:47:12.743Z</time></trkpt><trkpt lat="43.1143102" lon="12.2251361"><ele>438.0</ele><time>2026-03-29T12:47:13.743Z</time></trkpt><trkpt lat="43.1142437" lon="12.2251134"><ele>438.0</ele><time>2026-03-29T12:47:14.743Z</time></trkpt><trkpt lat="43.1141602" lon="12.2250622"><ele>438.0</ele><time>2026-03-29T12:47:15.743Z</time></trkpt><trkpt lat="43.1140938" lon="12.2249889"><ele>437.5</ele><time>2026-03-29T12:47:16.743Z</time></trkpt><trkpt lat="43.114022" lon="12.2249365"><ele>437.0</ele><time>2026-03-29T12:47:17.743Z</time></trkpt><trkpt lat="43.1139696" lon="12.2248769"><ele>436.5</ele><time>2026-03-29T12:47:18.743Z</time></trkpt><trkpt lat="43.1139126" lon="12.2248242"><ele>436.0</ele><time>2026-03-29T12:47:19.743Z</time></trkpt><trkpt lat="43.1138566" lon="12.2247363"><ele>435.5</ele><time>2026-03-29T12:47:22.743Z</time></trkpt><trkpt lat="43.1137328" lon="12.2247266"><ele>435.0</ele><time>2026-03-29T12:47:24.743Z</time></trkpt><trkpt lat="43.1136634" lon="12.2246958"><ele>437.1666666666667</ele><time>2026-03-29T12:47:25.743Z</time></trkpt><trkpt lat="43.1135976" lon="12.2246603"><ele>439.33333333333337</ele><time>2026-03-29T12:47:26.743Z</time></trkpt><trkpt lat="43.1135224" lon="12.2246212"><ele>441.5</ele><time>2026-03-29T12:47:27.743Z</time></trkpt><trkpt lat="43.1134516" lon="12.224578"><ele>443.6666666666667</ele><time>2026-03-29T12:47:28.743Z</time></trkpt><trkpt lat="43.1133803" lon="12.2245214"><ele>445.83333333333337</ele><time>2026-03-29T12:47:29.743Z</time></trkpt><trkpt lat="43.1133213" lon="12.224479"><ele>448.0</ele><time>2026-03-29T12:47:30.743Z</time></trkpt><trkpt lat="43.1132161" lon="12.2244194"><ele>449.79999999999995</ele><time>2026-03-29T12:47:32.743Z</time></trkpt><trkpt lat="43.113153" lon="12.2243177"><ele>451.59999999999997</ele><time>2026-03-29T12:47:34.743Z</time></trkpt><trkpt lat="43.1131833" lon="12.2242054"><ele>453.40000000000003</ele><time>2026-03-29T12:47:36.743Z</time></trkpt><trkpt lat="43.1131107" lon="12.2240423"><ele>455.20000000000005</ele><time>2026-03-29T12:47:38.743Z</time></trkpt><trkpt lat="43.1130557" lon="12.2239824"><ele>457.0</ele><time>2026-03-29T12:47:39.743Z</time></trkpt><trkpt lat="43.1129851" lon="12.223859"><ele>457.00000000000006</ele><time>2026-03-29T12:47:41.743Z</time></trkpt><trkpt lat="43.1129794" lon="12.2237457"><ele>457.0</ele><time>2026-03-29T12:47:42.743Z</time></trkpt><trkpt lat="43.1129585" lon="12.223644"><ele>457.0</ele><time>2026-03-29T12:47:43.743Z</time></trkpt><trkpt lat="43.1129275" lon="12.2235507"><ele>457.0</ele><time>2026-03-29T12:47:44.743Z</time></trkpt><trkpt lat="43.1128944" lon="12.2234577"><ele>457.00000000000006</ele><time>2026-03-29T12:47:45.743Z</time></trkpt><trkpt lat="43.1128547" lon="12.2232998"><ele>457.0</ele><time>2026-03-29T12:47:47.743Z</time></trkpt><trkpt lat="43.1127814" lon="12.2232044"><ele>457.0</ele><time>2026-03-29T12:47:49.743Z</time></trkpt><trkpt lat="43.1126739" lon="12.2231897"><ele>457.00000000000006</ele><time>2026-03-29T12:47:51.743Z</time></trkpt><trkpt lat="43.1126424" lon="12.2232883"><ele>457.00000000000006</ele><time>2026-03-29T12:47:52.743Z</time></trkpt><trkpt lat="43.1125896" lon="12.2233846"><ele>457.0</ele><time>2026-03-29T12:47:53.743Z</time></trkpt><trkpt lat="43.112515" lon="12.223475"><ele>457.0</ele><time>2026-03-29T12:47:54.743Z</time></trkpt><trkpt lat="43.1124454" lon="12.2235561"><ele>459.50000000000006</ele><time>2026-03-29T12:47:55.743Z</time></trkpt><trkpt lat="43.112395" lon="12.2236384"><ele>462.0</ele><time>2026-03-29T12:47:56.743Z</time></trkpt><trkpt lat="43.1123581" lon="12.223712"><ele>464.5</ele><time>2026-03-29T12:47:57.743Z</time></trkpt><trkpt lat="43.1123222" lon="12.223795"><ele>467.0</ele><time>2026-03-29T12:47:58.743Z</time></trkpt><trkpt lat="43.1122732" lon="12.223862"><ele>469.50000000000006</ele><time>2026-03-29T12:47:59.743Z</time></trkpt><trkpt lat="43.1122157" lon="12.2239064"><ele>472.0</ele><time>2026-03-29T12:48:00.743Z</time></trkpt><trkpt lat="43.1121427" lon="12.224012"><ele>474.0</ele><time>2026-03-29T12:48:02.743Z</time></trkpt><trkpt lat="43.1120462" lon="12.2240547"><ele>476.00000000000006</ele><time>2026-03-29T12:48:04.743Z</time></trkpt><trkpt lat="43.1119438" lon="12.2241382"><ele>478.00000000000006</ele><time>2026-03-29T12:48:06.743Z</time></trkpt><trkpt lat="43.1118217" lon="12.2242161"><ele>480.0</ele><time>2026-03-29T12:48:08.743Z</time></trkpt><trkpt lat="43.111741" lon="12.2242325"><ele>482.0</ele><time>2026-03-29T12:48:09.743Z</time></trkpt><trkpt lat="43.111669" lon="12.2242699"><ele>481.99999999999994</ele><time>2026-03-29T12:48:10.743Z</time></trkpt><trkpt lat="43.1116198" lon="12.2243635"><ele>482.0</ele><time>2026-03-29T12:48:11.743Z</time></trkpt><trkpt lat="43.1115454" lon="12.224439"><ele>482.0</ele><time>2026-03-29T12:48:12.743Z</time></trkpt><trkpt lat="43.111474" lon="12.2244856"><ele>482.0</ele><time>2026-03-29T12:48:13.743Z</time></trkpt><trkpt lat="43.1113974" lon="12.224546"><ele>481.99999999999994</ele><time>2026-03-29T12:48:14.743Z</time></trkpt><trkpt lat="43.1113125" lon="12.2245731"><ele>482.0</ele><time>2026-03-29T12:48:15.743Z</time></trkpt><trkpt lat="43.1112368" lon="12.2246234"><ele>482.99999999999994</ele><time>2026-03-29T12:48:16.743Z</time></trkpt><trkpt lat="43.1111676" lon="12.2246572"><ele>484.0</ele><time>2026-03-29T12:48:17.743Z</time></trkpt><trkpt lat="43.1111018" lon="12.2247192"><ele>485.0</ele><time>2026-03-29T12:48:18.743Z</time></trkpt><trkpt lat="43.1110333" lon="12.2247355"><ele>486.0</ele><time>2026-03-29T12:48:19.743Z</time></trkpt><trkpt lat="43.1109464" lon="12.2247197"><ele>486.99999999999994</ele><time>2026-03-29T12:48:20.743Z</time></trkpt><trkpt lat="43.1108795" lon="12.224687"><ele>488.0</ele><time>2026-03-29T12:48:21.743Z</time></trkpt><trkpt lat="43.1108249" lon="12.224621"><ele>488.0</ele><time>2026-03-29T12:48:22.743Z</time></trkpt><trkpt lat="43.1107731" lon="12.2244782"><ele>487.99999999999994</ele><time>2026-03-29T12:48:24.743Z</time></trkpt><trkpt lat="43.1107181" lon="12.2242965"><ele>487.99999999999994</ele><time>2026-03-29T12:48:26.743Z</time></trkpt><trkpt lat="43.1106899" lon="12.2241875"><ele>488.0</ele><time>2026-03-29T12:48:27.743Z</time></trkpt><trkpt lat="43.1106614" lon="12.2240864"><ele>488.0</ele><time>2026-03-29T12:48:28.743Z</time></trkpt><trkpt lat="43.1106379" lon="12.2239437"><ele>486.4</ele><time>2026-03-29T12:48:30.742Z</time></trkpt><trkpt lat="43.1106005" lon="12.2238472"><ele>484.79999999999995</ele><time>2026-03-29T12:48:32.743Z</time></trkpt><trkpt lat="43.1105389" lon="12.2237474"><ele>483.2</ele><time>2026-03-29T12:48:33.743Z</time></trkpt><trkpt lat="43.1104773" lon="12.2236615"><ele>481.6</ele><time>2026-03-29T12:48:34.743Z</time></trkpt><trkpt lat="43.1103746" lon="12.2235435"><ele>480.0</ele><time>2026-03-29T12:48:35.743Z</time></trkpt><trkpt lat="43.1102912" lon="12.2234432"><ele>480.0</ele><time>2026-03-29T12:48:36.743Z</time></trkpt><trkpt lat="43.1102242" lon="12.2233241"><ele>480.0</ele><time>2026-03-29T12:48:37.743Z</time></trkpt><trkpt lat="43.1101484" lon="12.2232226"><ele>480.0</ele><time>2026-03-29T12:48:38.743Z</time></trkpt><trkpt lat="43.1100754" lon="12.2231392"><ele>480.0</ele><time>2026-03-29T12:48:39.743Z</time></trkpt><trkpt lat="43.1100152" lon="12.2230178"><ele>480.0</ele><time>2026-03-29T12:48:40.742Z</time></trkpt><trkpt lat="43.1100119" lon="12.2228873"><ele>479.0</ele><time>2026-03-29T12:48:41.743Z</time></trkpt><trkpt lat="43.1099653" lon="12.2227644"><ele>478.0</ele><time>2026-03-29T12:48:42.743Z</time></trkpt><trkpt lat="43.1099277" lon="12.2226253"><ele>477.0</ele><time>2026-03-29T12:48:43.742Z</time></trkpt><trkpt lat="43.1098722" lon="12.2225152"><ele>476.0</ele><time>2026-03-29T12:48:44.743Z</time></trkpt><trkpt lat="43.1098196" lon="12.2224038"><ele>475.0</ele><time>2026-03-29T12:48:45.743Z</time></trkpt><trkpt lat="43.1097649" lon="12.2222836"><ele>473.33333333333337</ele><time>2026-03-29T12:48:46.743Z</time></trkpt><trkpt lat="43.109703" lon="12.2221742"><ele>471.6666666666667</ele><time>2026-03-29T12:48:47.743Z</time></trkpt><trkpt lat="43.1096476" lon="12.222083"><ele>470.0</ele><time>2026-03-29T12:48:48.742Z</time></trkpt><trkpt lat="43.1096008" lon="12.2220005"><ele>468.33333333333337</ele><time>2026-03-29T12:48:49.743Z</time></trkpt><trkpt lat="43.1095855" lon="12.2219113"><ele>466.6666666666667</ele><time>2026-03-29T12:48:50.743Z</time></trkpt><trkpt lat="43.109555" lon="12.2218111"><ele>465.0</ele><time>2026-03-29T12:48:51.743Z</time></trkpt><trkpt lat="43.1095376" lon="12.2217223"><ele>465.0</ele><time>2026-03-29T12:48:52.743Z</time></trkpt><trkpt lat="43.1095324" lon="12.2216258"><ele>465.0</ele><time>2026-03-29T12:48:53.743Z</time></trkpt><trkpt lat="43.1095078" lon="12.221544"><ele>465.0</ele><time>2026-03-29T12:48:54.743Z</time></trkpt><trkpt lat="43.1094257" lon="12.221438"><ele>465.0</ele><time>2026-03-29T12:48:56.743Z</time></trkpt><trkpt lat="43.1094165" lon="12.2213499"><ele>465.0</ele><time>2026-03-29T12:48:57.743Z</time></trkpt><trkpt lat="43.1093586" lon="12.2212324"><ele>465.0</ele><time>2026-03-29T12:48:59.743Z</time></trkpt><trkpt lat="43.1092745" lon="12.2211659"><ele>463.8333333333333</ele><time>2026-03-29T12:49:01.743Z</time></trkpt><trkpt lat="43.1092307" lon="12.2210936"><ele>462.66666666666663</ele><time>2026-03-29T12:49:02.743Z</time></trkpt><trkpt lat="43.1091805" lon="12.2210016"><ele>461.5</ele><time>2026-03-29T12:49:03.743Z</time></trkpt><trkpt lat="43.1091287" lon="12.2209113"><ele>460.3333333333333</ele><time>2026-03-29T12:49:04.743Z</time></trkpt><trkpt lat="43.1090787" lon="12.220823"><ele>459.16666666666663</ele><time>2026-03-29T12:49:05.743Z</time></trkpt><trkpt lat="43.1090113" lon="12.2207652"><ele>458.0</ele><time>2026-03-29T12:49:06.742Z</time></trkpt><trkpt lat="43.1089291" lon="12.2207057"><ele>457.2</ele><time>2026-03-29T12:49:07.743Z</time></trkpt><trkpt lat="43.1088286" lon="12.2206514"><ele>456.4</ele><time>2026-03-29T12:49:08.743Z</time></trkpt><trkpt lat="43.1087371" lon="12.2205866"><ele>455.59999999999997</ele><time>2026-03-29T12:49:09.743Z</time></trkpt><trkpt lat="43.1086603" lon="12.2205096"><ele>454.79999999999995</ele><time>2026-03-29T12:49:10.743Z</time></trkpt><trkpt lat="43.1085865" lon="12.2204166"><ele>454.0</ele><time>2026-03-29T12:49:11.743Z</time></trkpt><trkpt lat="43.1085327" lon="12.2203307"><ele>454.00000000000006</ele><time>2026-03-29T12:49:12.743Z</time></trkpt><trkpt lat="43.1084858" lon="12.2202371"><ele>454.0</ele><time>2026-03-29T12:49:13.743Z</time></trkpt><trkpt lat="43.1084348" lon="12.220148"><ele>454.0</ele><time>2026-03-29T12:49:14.743Z</time></trkpt><trkpt lat="43.1083807" lon="12.2200666"><ele>454.0</ele><time>2026-03-29T12:49:15.743Z</time></trkpt><trkpt lat="43.10834" lon="12.2199875"><ele>454.00000000000006</ele><time>2026-03-29T12:49:16.743Z</time></trkpt><trkpt lat="43.1082931" lon="12.2199129"><ele>454.0</ele><time>2026-03-29T12:49:17.743Z</time></trkpt><trkpt lat="43.1082306" lon="12.2198517"><ele>456.00000000000006</ele><time>2026-03-29T12:49:18.743Z</time></trkpt><trkpt lat="43.1081512" lon="12.2197901"><ele>458.0</ele><time>2026-03-29T12:49:19.743Z</time></trkpt><trkpt lat="43.1080645" lon="12.2197006"><ele>460.0</ele><time>2026-03-29T12:49:21.743Z</time></trkpt><trkpt lat="43.1080119" lon="12.2196336"><ele>462.0</ele><time>2026-03-29T12:49:28.743Z</time></trkpt><trkpt lat="43.107953" lon="12.2196982"><ele>464.00000000000006</ele><time>2026-03-29T13:04:23.742Z</time></trkpt><trkpt lat="43.1078776" lon="12.2197058"><ele>466.0</ele><time>2026-03-29T13:04:25.743Z</time></trkpt><trkpt lat="43.1077716" lon="12.2196607"><ele>466.00000000000006</ele><time>2026-03-29T13:04:27.743Z</time></trkpt><trkpt lat="43.1076893" lon="12.2196694"><ele>466.0</ele><time>2026-03-29T13:04:28.743Z</time></trkpt><trkpt lat="43.1076113" lon="12.2196876"><ele>466.0</ele><time>2026-03-29T13:04:29.743Z</time></trkpt><trkpt lat="43.1075366" lon="12.2196878"><ele>466.0</ele><time>2026-03-29T13:04:30.743Z</time></trkpt><trkpt lat="43.1074548" lon="12.2196625"><ele>466.00000000000006</ele><time>2026-03-29T13:04:32.743Z</time></trkpt><trkpt lat="43.107412" lon="12.219765"><ele>466.0</ele><time>2026-03-29T13:04:35.743Z</time></trkpt><trkpt lat="43.1075416" lon="12.2197934"><ele>462.50000000000006</ele><time>2026-03-29T13:04:36.743Z</time></trkpt><trkpt lat="43.107619" lon="12.2198519"><ele>459.0</ele><time>2026-03-29T13:04:37.743Z</time></trkpt><trkpt lat="43.10768" lon="12.2199333"><ele>455.5</ele><time>2026-03-29T13:04:38.743Z</time></trkpt><trkpt lat="43.1077332" lon="12.2200034"><ele>452.0</ele><time>2026-03-29T13:04:39.743Z</time></trkpt><trkpt lat="43.1077943" lon="12.2201272"><ele>448.50000000000006</ele><time>2026-03-29T13:04:41.743Z</time></trkpt><trkpt lat="43.1078264" lon="12.2202055"><ele>445.0</ele><time>2026-03-29T13:04:42.743Z</time></trkpt><trkpt lat="43.1078511" lon="12.2202976"><ele>445.00000000000006</ele><time>2026-03-29T13:04:43.743Z</time></trkpt><trkpt lat="43.1078764" lon="12.220394"><ele>445.0</ele><time>2026-03-29T13:04:44.743Z</time></trkpt><trkpt lat="43.1079217" lon="12.2204867"><ele>445.0</ele><time>2026-03-29T13:04:45.743Z</time></trkpt><trkpt lat="43.1079485" lon="12.2205819"><ele>445.0</ele><time>2026-03-29T13:04:46.743Z</time></trkpt><trkpt lat="43.1079642" lon="12.2206703"><ele>445.00000000000006</ele><time>2026-03-29T13:04:47.743Z</time></trkpt><trkpt lat="43.108004" lon="12.2207617"><ele>445.0</ele><time>2026-03-29T13:04:48.743Z</time></trkpt><trkpt lat="43.1080546" lon="12.220846"><ele>445.2</ele><time>2026-03-29T13:04:49.743Z</time></trkpt><trkpt lat="43.1081127" lon="12.2209009"><ele>445.4</ele><time>2026-03-29T13:04:50.743Z</time></trkpt><trkpt lat="43.1081736" lon="12.2210432"><ele>445.6</ele><time>2026-03-29T13:04:52.743Z</time></trkpt><trkpt lat="43.1082337" lon="12.2212099"><ele>445.8</ele><time>2026-03-29T13:04:54.743Z</time></trkpt><trkpt lat="43.1082613" lon="12.221337"><ele>446.0</ele><time>2026-03-29T13:04:55.743Z</time></trkpt><trkpt lat="43.1082659" lon="12.2214509"><ele>444.20000000000005</ele><time>2026-03-29T13:04:56.743Z</time></trkpt><trkpt lat="43.1082787" lon="12.22157"><ele>442.40000000000003</ele><time>2026-03-29T13:04:57.742Z</time></trkpt><trkpt lat="43.108263" lon="12.2217345"><ele>440.6</ele><time>2026-03-29T13:04:58.743Z</time></trkpt><trkpt lat="43.1082659" lon="12.2218549"><ele>438.8</ele><time>2026-03-29T13:04:59.743Z</time></trkpt><trkpt lat="43.1082504" lon="12.221988"><ele>437.0</ele><time>2026-03-29T13:05:00.742Z</time></trkpt><trkpt lat="43.1082423" lon="12.2221169"><ele>435.49999999999994</ele><time>2026-03-29T13:05:01.743Z</time></trkpt><trkpt lat="43.1082425" lon="12.2222393"><ele>434.0</ele><time>2026-03-29T13:05:02.743Z</time></trkpt><trkpt lat="43.1082389" lon="12.2223377"><ele>432.5</ele><time>2026-03-29T13:05:03.742Z</time></trkpt><trkpt lat="43.1082153" lon="12.2224453"><ele>431.0</ele><time>2026-03-29T13:05:04.743Z</time></trkpt><trkpt lat="43.1082052" lon="12.2225891"><ele>429.49999999999994</ele><time>2026-03-29T13:05:06.743Z</time></trkpt><trkpt lat="43.1082053" lon="12.2226847"><ele>428.0</ele><time>2026-03-29T13:05:07.743Z</time></trkpt><trkpt lat="43.1082645" lon="12.2227875"><ele>427.99999999999994</ele><time>2026-03-29T13:05:08.743Z</time></trkpt><trkpt lat="43.108283" lon="12.2228902"><ele>428.0</ele><time>2026-03-29T13:05:09.743Z</time></trkpt><trkpt lat="43.1083081" lon="12.223036"><ele>428.0</ele><time>2026-03-29T13:05:11.743Z</time></trkpt><trkpt lat="43.1082531" lon="12.2231158"><ele>428.0</ele><time>2026-03-29T13:05:13.743Z</time></trkpt><trkpt lat="43.1081755" lon="12.2231104"><ele>427.99999999999994</ele><time>2026-03-29T13:05:15.743Z</time></trkpt><trkpt lat="43.1081285" lon="12.2230089"><ele>428.0</ele><time>2026-03-29T13:05:16.743Z</time></trkpt><trkpt lat="43.1080723" lon="12.2229582"><ele>422.59999999999997</ele><time>2026-03-29T13:05:17.743Z</time></trkpt><trkpt lat="43.1080146" lon="12.2228703"><ele>417.19999999999993</ele><time>2026-03-29T13:05:18.743Z</time></trkpt><trkpt lat="43.1079404" lon="12.2227864"><ele>411.8</ele><time>2026-03-29T13:05:19.743Z</time></trkpt><trkpt lat="43.1078799" lon="12.2226324"><ele>406.4</ele><time>2026-03-29T13:05:20.743Z</time></trkpt><trkpt lat="43.1078391" lon="12.222497"><ele>401.0</ele><time>2026-03-29T13:05:21.743Z</time></trkpt><trkpt lat="43.1077871" lon="12.2224205"><ele>401.0</ele><time>2026-03-29T13:05:22.743Z</time></trkpt><trkpt lat="43.1077186" lon="12.2224456"><ele>401.0</ele><time>2026-03-29T13:05:24.743Z</time></trkpt><trkpt lat="43.1077504" lon="12.2225601"><ele>401.0</ele><time>2026-03-29T13:05:26.743Z</time></trkpt><trkpt lat="43.1078218" lon="12.2228191"><ele>401.0</ele><time>2026-03-29T13:05:28.743Z</time></trkpt><trkpt lat="43.1078905" lon="12.2229828"><ele>401.0</ele><time>2026-03-29T13:05:29.743Z</time></trkpt><trkpt lat="43.1079288" lon="12.2231147"><ele>401.0</ele><time>2026-03-29T13:05:30.743Z</time></trkpt><trkpt lat="43.1079559" lon="12.2232395"><ele>401.0</ele><time>2026-03-29T13:05:31.743Z</time></trkpt><trkpt lat="43.1079745" lon="12.223338"><ele>401.0</ele><time>2026-03-29T13:05:32.743Z</time></trkpt><trkpt lat="43.1079388" lon="12.2234771"><ele>401.0</ele><time>2026-03-29T13:05:33.743Z</time></trkpt><trkpt lat="43.1079223" lon="12.2235701"><ele>399.0</ele><time>2026-03-29T13:05:34.743Z</time></trkpt><trkpt lat="43.1079251" lon="12.2237083"><ele>397.0</ele><time>2026-03-29T13:05:35.743Z</time></trkpt><trkpt lat="43.1078978" lon="12.2238181"><ele>395.0</ele><time>2026-03-29T13:05:36.743Z</time></trkpt><trkpt lat="43.1078619" lon="12.2239252"><ele>393.0</ele><time>2026-03-29T13:05:37.743Z</time></trkpt><trkpt lat="43.1078964" lon="12.2240862"><ele>391.0</ele><time>2026-03-29T13:05:39.743Z</time></trkpt><trkpt lat="43.1079173" lon="12.2242233"><ele>390.6</ele><time>2026-03-29T13:05:40.743Z</time></trkpt><trkpt lat="43.1079232" lon="12.22435"><ele>390.20000000000005</ele><time>2026-03-29T13:05:41.743Z</time></trkpt><trkpt lat="43.1079639" lon="12.2244718"><ele>389.79999999999995</ele><time>2026-03-29T13:05:42.743Z</time></trkpt><trkpt lat="43.1080379" lon="12.2246177"><ele>389.4</ele><time>2026-03-29T13:05:43.743Z</time></trkpt><trkpt lat="43.1081007" lon="12.2247503"><ele>389.0</ele><time>2026-03-29T13:05:44.743Z</time></trkpt><trkpt lat="43.1081314" lon="12.2248729"><ele>390.0</ele><time>2026-03-29T13:05:45.743Z</time></trkpt><trkpt lat="43.1081799" lon="12.2249897"><ele>391.0</ele><time>2026-03-29T13:05:46.743Z</time></trkpt><trkpt lat="43.1081692" lon="12.2250863"><ele>392.0</ele><time>2026-03-29T13:05:47.743Z</time></trkpt><trkpt lat="43.1080337" lon="12.2251919"><ele>393.0</ele><time>2026-03-29T13:05:49.742Z</time></trkpt><trkpt lat="43.107899" lon="12.2252645"><ele>393.0</ele><time>2026-03-29T13:05:50.743Z</time></trkpt><trkpt lat="43.1078187" lon="12.2253273"><ele>393.0</ele><time>2026-03-29T13:05:51.743Z</time></trkpt><trkpt lat="43.1077378" lon="12.2253963"><ele>393.0</ele><time>2026-03-29T13:05:52.743Z</time></trkpt><trkpt lat="43.1077062" lon="12.2254715"><ele>393.0</ele><time>2026-03-29T13:05:53.743Z</time></trkpt><trkpt lat="43.1077371" lon="12.2256055"><ele>393.0</ele><time>2026-03-29T13:05:55.743Z</time></trkpt><trkpt lat="43.107785" lon="12.2256802"><ele>393.0</ele><time>2026-03-29T13:05:56.743Z</time></trkpt><trkpt lat="43.1078624" lon="12.2257665"><ele>392.79999999999995</ele><time>2026-03-29T13:05:57.742Z</time></trkpt><trkpt lat="43.1079691" lon="12.225835"><ele>392.6</ele><time>2026-03-29T13:05:58.743Z</time></trkpt><trkpt lat="43.1080469" lon="12.2259017"><ele>392.4</ele><time>2026-03-29T13:05:59.743Z</time></trkpt><trkpt lat="43.1081129" lon="12.2259719"><ele>392.20000000000005</ele><time>2026-03-29T13:06:00.743Z</time></trkpt><trkpt lat="43.1081793" lon="12.2260493"><ele>392.0</ele><time>2026-03-29T13:06:01.743Z</time></trkpt><trkpt lat="43.1082246" lon="12.2261382"><ele>391.3333333333333</ele><time>2026-03-29T13:06:02.743Z</time></trkpt><trkpt lat="43.1082702" lon="12.2262292"><ele>390.66666666666663</ele><time>2026-03-29T13:06:03.743Z</time></trkpt><trkpt lat="43.1083163" lon="12.2263333"><ele>390.0</ele><time>2026-03-29T13:06:04.743Z</time></trkpt><trkpt lat="43.1083385" lon="12.2264526"><ele>389.33333333333337</ele><time>2026-03-29T13:06:05.743Z</time></trkpt><trkpt lat="43.1083734" lon="12.2265376"><ele>388.6666666666667</ele><time>2026-03-29T13:06:06.743Z</time></trkpt><trkpt lat="43.1083945" lon="12.2266364"><ele>388.0</ele><time>2026-03-29T13:06:07.743Z</time></trkpt><trkpt lat="43.1084307" lon="12.2267494"><ele>388.0</ele><time>2026-03-29T13:06:08.743Z</time></trkpt><trkpt lat="43.108484" lon="12.226865"><ele>388.0</ele><time>2026-03-29T13:06:09.743Z</time></trkpt><trkpt lat="43.108541" lon="12.2270048"><ele>388.0</ele><time>2026-03-29T13:06:10.743Z</time></trkpt><trkpt lat="43.1085916" lon="12.2271131"><ele>388.0</ele><time>2026-03-29T13:06:11.743Z</time></trkpt><trkpt lat="43.1086401" lon="12.2272318"><ele>388.0</ele><time>2026-03-29T13:06:12.743Z</time></trkpt><trkpt lat="43.1087015" lon="12.2273352"><ele>388.00000000000006</ele><time>2026-03-29T13:06:13.743Z</time></trkpt><trkpt lat="43.1087604" lon="12.2274209"><ele>388.0</ele><time>2026-03-29T13:06:14.743Z</time></trkpt><trkpt lat="43.1088179" lon="12.2274929"><ele>388.0</ele><time>2026-03-29T13:06:15.743Z</time></trkpt><trkpt lat="43.1088827" lon="12.2275586"><ele>388.0</ele><time>2026-03-29T13:06:16.743Z</time></trkpt><trkpt lat="43.1089578" lon="12.2275854"><ele>388.00000000000006</ele><time>2026-03-29T13:06:17.743Z</time></trkpt><trkpt lat="43.1090702" lon="12.2276639"><ele>388.0</ele><time>2026-03-29T13:06:18.743Z</time></trkpt><trkpt lat="43.1091473" lon="12.2277418"><ele>388.0</ele><time>2026-03-29T13:06:19.743Z</time></trkpt><trkpt lat="43.1091876" lon="12.2278862"><ele>388.0</ele><time>2026-03-29T13:06:20.743Z</time></trkpt><trkpt lat="43.1092266" lon="12.2280384"><ele>388.0</ele><time>2026-03-29T13:06:21.742Z</time></trkpt><trkpt lat="43.1092514" lon="12.2281981"><ele>388.0</ele><time>2026-03-29T13:06:22.743Z</time></trkpt><trkpt lat="43.1092504" lon="12.228359"><ele>385.79999999999995</ele><time>2026-03-29T13:06:23.743Z</time></trkpt><trkpt lat="43.1091613" lon="12.2284448"><ele>383.6</ele><time>2026-03-29T13:06:24.742Z</time></trkpt><trkpt lat="43.1091397" lon="12.2286492"><ele>381.4</ele><time>2026-03-29T13:07:40.743Z</time></trkpt><trkpt lat="43.1091563" lon="12.2287614"><ele>379.20000000000005</ele><time>2026-03-29T13:07:41.743Z</time></trkpt><trkpt lat="43.1091763" lon="12.2288673"><ele>377.0</ele><time>2026-03-29T13:07:42.743Z</time></trkpt><trkpt lat="43.1092079" lon="12.2289921"><ele>376.0</ele><time>2026-03-29T13:07:43.743Z</time></trkpt><trkpt lat="43.1091951" lon="12.2291191"><ele>375.0</ele><time>2026-03-29T13:07:44.743Z</time></trkpt><trkpt lat="43.1091946" lon="12.2292214"><ele>374.0</ele><time>2026-03-29T13:07:45.743Z</time></trkpt><trkpt lat="43.1091936" lon="12.2293356"><ele>373.0</ele><time>2026-03-29T13:07:46.743Z</time></trkpt><trkpt lat="43.1091538" lon="12.2295034"><ele>372.0</ele><time>2026-03-29T13:07:47.743Z</time></trkpt><trkpt lat="43.1091119" lon="12.2296381"><ele>372.0</ele><time>2026-03-29T13:07:48.743Z</time></trkpt><trkpt lat="43.1090788" lon="12.2297771"><ele>372.0</ele><time>2026-03-29T13:07:49.743Z</time></trkpt><trkpt lat="43.1090437" lon="12.229897"><ele>372.0</ele><time>2026-03-29T13:07:50.743Z</time></trkpt><trkpt lat="43.1090011" lon="12.23"><ele>372.0</ele><time>2026-03-29T13:07:51.742Z</time></trkpt><trkpt lat="43.1089819" lon="12.2301131"><ele>372.0</ele><time>2026-03-29T13:07:52.743Z</time></trkpt><trkpt lat="43.108983" lon="12.230221"><ele>370.6</ele><time>2026-03-29T13:07:53.743Z</time></trkpt><trkpt lat="43.1089942" lon="12.2303746"><ele>369.20000000000005</ele><time>2026-03-29T13:07:54.743Z</time></trkpt><trkpt lat="43.1089908" lon="12.2305401"><ele>367.8</ele><time>2026-03-29T13:07:55.743Z</time></trkpt><trkpt lat="43.1089809" lon="12.2306927"><ele>366.4</ele><time>2026-03-29T13:07:56.743Z</time></trkpt><trkpt lat="43.1089472" lon="12.2308167"><ele>365.0</ele><time>2026-03-29T13:07:57.743Z</time></trkpt><trkpt lat="43.1089134" lon="12.2309622"><ele>365.0</ele><time>2026-03-29T13:07:58.743Z</time></trkpt><trkpt lat="43.1088332" lon="12.2310863"><ele>365.0</ele><time>2026-03-29T13:07:59.743Z</time></trkpt><trkpt lat="43.1087907" lon="12.2312273"><ele>365.0</ele><time>2026-03-29T13:08:00.743Z</time></trkpt><trkpt lat="43.1087412" lon="12.2313563"><ele>365.0</ele><time>2026-03-29T13:08:01.743Z</time></trkpt><trkpt lat="43.1086968" lon="12.2314731"><ele>365.0</ele><time>2026-03-29T13:08:02.743Z</time></trkpt><trkpt lat="43.1086565" lon="12.2316045"><ele>364.2</ele><time>2026-03-29T13:08:03.743Z</time></trkpt><trkpt lat="43.1086257" lon="12.2317219"><ele>363.4</ele><time>2026-03-29T13:08:04.742Z</time></trkpt><trkpt lat="43.1085822" lon="12.2318243"><ele>362.6</ele><time>2026-03-29T13:08:05.743Z</time></trkpt><trkpt lat="43.1085395" lon="12.2319097"><ele>361.8</ele><time>2026-03-29T13:08:06.743Z</time></trkpt><trkpt lat="43.1084387" lon="12.2319926"><ele>361.0</ele><time>2026-03-29T13:08:08.743Z</time></trkpt><trkpt lat="43.1083578" lon="12.2319955"><ele>361.0</ele><time>2026-03-29T13:08:09.743Z</time></trkpt><trkpt lat="43.108275" lon="12.2320152"><ele>361.0</ele><time>2026-03-29T13:08:10.743Z</time></trkpt><trkpt lat="43.1081784" lon="12.2320264"><ele>361.0</ele><time>2026-03-29T13:08:11.743Z</time></trkpt><trkpt lat="43.1080994" lon="12.2320474"><ele>361.0</ele><time>2026-03-29T13:08:12.743Z</time></trkpt><trkpt lat="43.108018" lon="12.2320875"><ele>361.0</ele><time>2026-03-29T13:08:13.743Z</time></trkpt><trkpt lat="43.1079393" lon="12.232131"><ele>361.0</ele><time>2026-03-29T13:08:14.743Z</time></trkpt><trkpt lat="43.1078696" lon="12.2321779"><ele>358.8333333333333</ele><time>2026-03-29T13:08:15.742Z</time></trkpt><trkpt lat="43.1077835" lon="12.2322104"><ele>356.66666666666663</ele><time>2026-03-29T13:08:16.743Z</time></trkpt><trkpt lat="43.1077196" lon="12.2322522"><ele>354.5</ele><time>2026-03-29T13:08:17.743Z</time></trkpt><trkpt lat="43.1076609" lon="12.2323045"><ele>352.3333333333333</ele><time>2026-03-29T13:08:18.743Z</time></trkpt><trkpt lat="43.1075974" lon="12.2324032"><ele>350.1666666666667</ele><time>2026-03-29T13:08:19.743Z</time></trkpt><trkpt lat="43.1075298" lon="12.2324955"><ele>348.0</ele><time>2026-03-29T13:08:20.743Z</time></trkpt><trkpt lat="43.1074808" lon="12.2325939"><ele>347.5</ele><time>2026-03-29T13:08:21.743Z</time></trkpt><trkpt lat="43.1074376" lon="12.2326806"><ele>347.0</ele><time>2026-03-29T13:08:22.743Z</time></trkpt><trkpt lat="43.1074027" lon="12.2327611"><ele>346.5</ele><time>2026-03-29T13:08:23.743Z</time></trkpt><trkpt lat="43.107374" lon="12.2328478"><ele>346.0</ele><time>2026-03-29T13:08:24.743Z</time></trkpt><trkpt lat="43.1073356" lon="12.2329719"><ele>345.5</ele><time>2026-03-29T13:08:26.743Z</time></trkpt><trkpt lat="43.1073377" lon="12.2330877"><ele>345.0</ele><time>2026-03-29T13:08:29.743Z</time></trkpt><trkpt lat="43.107336" lon="12.2332133"><ele>344.25</ele><time>2026-03-29T13:08:32.743Z</time></trkpt><trkpt lat="43.1073066" lon="12.2333565"><ele>343.5</ele><time>2026-03-29T13:08:34.743Z</time></trkpt><trkpt lat="43.1072378" lon="12.2334872"><ele>342.75</ele><time>2026-03-29T13:08:36.743Z</time></trkpt><trkpt lat="43.1071281" lon="12.2335954"><ele>342.0</ele><time>2026-03-29T13:08:38.743Z</time></trkpt><trkpt lat="43.1070761" lon="12.2336977"><ele>342.0</ele><time>2026-03-29T13:08:40.743Z</time></trkpt><trkpt lat="43.1071589" lon="12.2337673"><ele>342.0</ele><time>2026-03-29T13:08:42.743Z</time></trkpt><trkpt lat="43.107268" lon="12.2337897"><ele>342.0</ele><time>2026-03-29T13:08:44.743Z</time></trkpt><trkpt lat="43.107379" lon="12.2337267"><ele>342.0</ele><time>2026-03-29T13:08:46.742Z</time></trkpt><trkpt lat="43.1074612" lon="12.2336604"><ele>342.0</ele><time>2026-03-29T13:08:48.743Z</time></trkpt><trkpt lat="43.1074453" lon="12.2337577"><ele>340.8333333333333</ele><time>2026-03-29T13:08:50.743Z</time></trkpt><trkpt lat="43.1074205" lon="12.2338753"><ele>339.6666666666667</ele><time>2026-03-29T13:08:52.743Z</time></trkpt><trkpt lat="43.1073817" lon="12.2339958"><ele>338.5</ele><time>2026-03-29T13:08:53.743Z</time></trkpt><trkpt lat="43.1073556" lon="12.2340817"><ele>337.33333333333337</ele><time>2026-03-29T13:08:54.743Z</time></trkpt><trkpt lat="43.1073168" lon="12.2341749"><ele>336.1666666666667</ele><time>2026-03-29T13:08:55.743Z</time></trkpt><trkpt lat="43.1072628" lon="12.2342554"><ele>335.0</ele><time>2026-03-29T13:08:56.742Z</time></trkpt><trkpt lat="43.1072047" lon="12.2343187"><ele>333.0</ele><time>2026-03-29T13:08:57.743Z</time></trkpt><trkpt lat="43.1071294" lon="12.2343487"><ele>331.0</ele><time>2026-03-29T13:08:58.743Z</time></trkpt><trkpt lat="43.1070623" lon="12.2343622"><ele>329.0</ele><time>2026-03-29T13:08:59.743Z</time></trkpt><trkpt lat="43.1069565" lon="12.234363"><ele>327.0</ele><time>2026-03-29T13:09:00.743Z</time></trkpt><trkpt lat="43.1068722" lon="12.2343743"><ele>325.0</ele><time>2026-03-29T13:09:01.743Z</time></trkpt><trkpt lat="43.1068014" lon="12.2343963"><ele>323.0</ele><time>2026-03-29T13:09:02.743Z</time></trkpt><trkpt lat="43.1067023" lon="12.2344475"><ele>323.0</ele><time>2026-03-29T13:09:04.743Z</time></trkpt><trkpt lat="43.1066895" lon="12.2345388"><ele>323.0</ele><time>2026-03-29T13:09:06.743Z</time></trkpt><trkpt lat="43.1067591" lon="12.234571"><ele>323.0</ele><time>2026-03-29T13:09:08.742Z</time></trkpt><trkpt lat="43.1068614" lon="12.2346368"><ele>323.0</ele><time>2026-03-29T13:09:10.743Z</time></trkpt><trkpt lat="43.106935" lon="12.2346786"><ele>323.0</ele><time>2026-03-29T13:09:11.743Z</time></trkpt><trkpt lat="43.1070227" lon="12.2347425"><ele>323.0</ele><time>2026-03-29T13:09:12.743Z</time></trkpt><trkpt lat="43.107112" lon="12.23481"><ele>319.79999999999995</ele><time>2026-03-29T13:09:13.743Z</time></trkpt><trkpt lat="43.1071967" lon="12.2348889"><ele>316.59999999999997</ele><time>2026-03-29T13:09:14.743Z</time></trkpt><trkpt lat="43.1072577" lon="12.2349792"><ele>313.4</ele><time>2026-03-29T13:09:15.743Z</time></trkpt><trkpt lat="43.10732" lon="12.2350724"><ele>310.2</ele><time>2026-03-29T13:09:16.742Z</time></trkpt><trkpt lat="43.1073838" lon="12.2351686"><ele>307.0</ele><time>2026-03-29T13:09:17.743Z</time></trkpt><trkpt lat="43.107447" lon="12.2352442"><ele>307.0</ele><time>2026-03-29T13:09:18.743Z</time></trkpt><trkpt lat="43.1075097" lon="12.2353067"><ele>307.0</ele><time>2026-03-29T13:09:19.743Z</time></trkpt><trkpt lat="43.1075728" lon="12.2353671"><ele>307.0</ele><time>2026-03-29T13:09:20.742Z</time></trkpt><trkpt lat="43.1076465" lon="12.2354361"><ele>307.0</ele><time>2026-03-29T13:09:22.743Z</time></trkpt><trkpt lat="43.1077157" lon="12.2354026"><ele>307.0</ele><time>2026-03-29T13:09:29.743Z</time></trkpt><trkpt lat="43.1078025" lon="12.2352261"><ele>307.0</ele><time>2026-03-29T13:09:31.743Z</time></trkpt><trkpt lat="43.1078505" lon="12.2351454"><ele>307.0</ele><time>2026-03-29T13:09:32.743Z</time></trkpt><trkpt lat="43.1078973" lon="12.2350368"><ele>307.0</ele><time>2026-03-29T13:09:33.743Z</time></trkpt><trkpt lat="43.1079252" lon="12.2349094"><ele>307.0</ele><time>2026-03-29T13:09:34.742Z</time></trkpt><trkpt lat="43.1079432" lon="12.2347822"><ele>307.0</ele><time>2026-03-29T13:09:35.743Z</time></trkpt><trkpt lat="43.1079535" lon="12.2346473"><ele>308.8</ele><time>2026-03-29T13:09:36.743Z</time></trkpt><trkpt lat="43.1079672" lon="12.2345246"><ele>310.6</ele><time>2026-03-29T13:09:37.742Z</time></trkpt><trkpt lat="43.1079876" lon="12.2344119"><ele>312.40000000000003</ele><time>2026-03-29T13:09:38.743Z</time></trkpt><trkpt lat="43.1080492" lon="12.2342997"><ele>314.2</ele><time>2026-03-29T13:09:40.743Z</time></trkpt><trkpt lat="43.1081594" lon="12.2342889"><ele>316.0</ele><time>2026-03-29T13:09:42.743Z</time></trkpt><trkpt lat="43.1082246" lon="12.234324"><ele>314.25</ele><time>2026-03-29T13:09:43.742Z</time></trkpt><trkpt lat="43.1082921" lon="12.234377"><ele>312.5</ele><time>2026-03-29T13:10:10.742Z</time></trkpt><trkpt lat="43.1083736" lon="12.2343974"><ele>310.75</ele><time>2026-03-29T13:10:13.743Z</time></trkpt><trkpt lat="43.108565" lon="12.2345152"><ele>309.0</ele><time>2026-03-29T13:10:15.743Z</time></trkpt><trkpt lat="43.1086706" lon="12.2345407"><ele>309.0</ele><time>2026-03-29T13:10:16.743Z</time></trkpt><trkpt lat="43.108777" lon="12.2345735"><ele>309.0</ele><time>2026-03-29T13:10:17.743Z</time></trkpt><trkpt lat="43.1088771" lon="12.2346133"><ele>309.0</ele><time>2026-03-29T13:10:18.743Z</time></trkpt><trkpt lat="43.1089868" lon="12.2346892"><ele>309.0</ele><time>2026-03-29T13:10:19.743Z</time></trkpt><trkpt lat="43.1090858" lon="12.2347468"><ele>309.0</ele><time>2026-03-29T13:10:20.743Z</time></trkpt><trkpt lat="43.1091735" lon="12.2347903"><ele>305.6666666666667</ele><time>2026-03-29T13:10:21.743Z</time></trkpt><trkpt lat="43.1092604" lon="12.2348345"><ele>302.3333333333333</ele><time>2026-03-29T13:10:22.743Z</time></trkpt><trkpt lat="43.1093392" lon="12.2348565"><ele>299.0</ele><time>2026-03-29T13:10:23.743Z</time></trkpt><trkpt lat="43.109428" lon="12.2348605"><ele>295.66666666666663</ele><time>2026-03-29T13:10:24.743Z</time></trkpt><trkpt lat="43.1095213" lon="12.2348535"><ele>292.3333333333333</ele><time>2026-03-29T13:10:25.743Z</time></trkpt><trkpt lat="43.1096074" lon="12.2348489"><ele>289.0</ele><time>2026-03-29T13:10:26.743Z</time></trkpt><trkpt lat="43.1096964" lon="12.2348797"><ele>289.0</ele><time>2026-03-29T13:10:27.743Z</time></trkpt><trkpt lat="43.1098443" lon="12.2348368"><ele>289.0</ele><time>2026-03-29T13:10:29.743Z</time></trkpt><trkpt lat="43.1099076" lon="12.2347903"><ele>289.0</ele><time>2026-03-29T13:10:30.743Z</time></trkpt><trkpt lat="43.1099817" lon="12.234672"><ele>289.0</ele><time>2026-03-29T13:10:31.743Z</time></trkpt><trkpt lat="43.1100484" lon="12.2345919"><ele>289.0</ele><time>2026-03-29T13:10:32.743Z</time></trkpt><trkpt lat="43.1101205" lon="12.2345123"><ele>288.2</ele><time>2026-03-29T13:10:33.742Z</time></trkpt><trkpt lat="43.1101825" lon="12.2344207"><ele>287.4</ele><time>2026-03-29T13:10:34.743Z</time></trkpt><trkpt lat="43.1102348" lon="12.2343103"><ele>286.6</ele><time>2026-03-29T13:10:35.743Z</time></trkpt><trkpt lat="43.1102932" lon="12.2341997"><ele>285.8</ele><time>2026-03-29T13:10:36.743Z</time></trkpt><trkpt lat="43.110349" lon="12.2340784"><ele>285.0</ele><time>2026-03-29T13:10:37.743Z</time></trkpt><trkpt lat="43.1104029" lon="12.2339693"><ele>285.0</ele><time>2026-03-29T13:10:38.743Z</time></trkpt><trkpt lat="43.1104447" lon="12.2339001"><ele>285.0</ele><time>2026-03-29T13:10:39.743Z</time></trkpt><trkpt lat="43.1104847" lon="12.2338155"><ele>285.0</ele><time>2026-03-29T13:10:40.742Z</time></trkpt><trkpt lat="43.1105519" lon="12.2339301"><ele>285.0</ele><time>2026-03-29T13:10:41.743Z</time></trkpt><trkpt lat="43.1105936" lon="12.234061"><ele>285.0</ele><time>2026-03-29T13:10:43.743Z</time></trkpt><trkpt lat="43.1105747" lon="12.2341842"><ele>285.0</ele><time>2026-03-29T13:10:44.743Z</time></trkpt><trkpt lat="43.110531" lon="12.2343567"><ele>285.0</ele><time>2026-03-29T13:10:45.743Z</time></trkpt><trkpt lat="43.1104832" lon="12.2344998"><ele>285.0</ele><time>2026-03-29T13:10:46.743Z</time></trkpt><trkpt lat="43.1104524" lon="12.2346586"><ele>285.0</ele><time>2026-03-29T13:10:47.743Z</time></trkpt><trkpt lat="43.1104121" lon="12.2348449"><ele>285.0</ele><time>2026-03-29T13:10:48.743Z</time></trkpt><trkpt lat="43.1103719" lon="12.2350022"><ele>282.4</ele><time>2026-03-29T13:10:49.743Z</time></trkpt><trkpt lat="43.1103458" lon="12.2351739"><ele>279.8</ele><time>2026-03-29T13:10:50.743Z</time></trkpt><trkpt lat="43.1103414" lon="12.2353117"><ele>277.2</ele><time>2026-03-29T13:10:51.743Z</time></trkpt><trkpt lat="43.1103366" lon="12.2354531"><ele>274.6</ele><time>2026-03-29T13:10:52.743Z</time></trkpt><trkpt lat="43.1103459" lon="12.2355924"><ele>272.0</ele><time>2026-03-29T13:10:53.743Z</time></trkpt><trkpt lat="43.1103427" lon="12.2357109"><ele>271.1666666666667</ele><time>2026-03-29T13:10:54.743Z</time></trkpt><trkpt lat="43.1103284" lon="12.2358257"><ele>270.33333333333337</ele><time>2026-03-29T13:10:55.743Z</time></trkpt><trkpt lat="43.1103006" lon="12.2359447"><ele>269.5</ele><time>2026-03-29T13:10:56.743Z</time></trkpt><trkpt lat="43.1103158" lon="12.2360717"><ele>268.6666666666667</ele><time>2026-03-29T13:10:57.743Z</time></trkpt><trkpt lat="43.1103428" lon="12.2361791"><ele>267.8333333333333</ele><time>2026-03-29T13:10:58.743Z</time></trkpt><trkpt lat="43.1103899" lon="12.2362833"><ele>267.0</ele><time>2026-03-29T13:10:59.743Z</time></trkpt><trkpt lat="43.110446" lon="12.2363636"><ele>267.0</ele><time>2026-03-29T13:11:00.742Z</time></trkpt><trkpt lat="43.1105312" lon="12.2364692"><ele>267.0</ele><time>2026-03-29T13:11:02.743Z</time></trkpt><trkpt lat="43.1106091" lon="12.2365179"><ele>267.0</ele><time>2026-03-29T13:11:03.743Z</time></trkpt><trkpt lat="43.1106907" lon="12.2365482"><ele>267.0</ele><time>2026-03-29T13:11:04.743Z</time></trkpt><trkpt lat="43.1107589" lon="12.236583"><ele>267.0</ele><time>2026-03-29T13:11:05.743Z</time></trkpt><trkpt lat="43.1108389" lon="12.2366777"><ele>263.5</ele><time>2026-03-29T13:11:07.742Z</time></trkpt><trkpt lat="43.1108662" lon="12.2367648"><ele>260.0</ele><time>2026-03-29T13:11:08.743Z</time></trkpt><trkpt lat="43.11088" lon="12.2368851"><ele>256.5</ele><time>2026-03-29T13:11:09.743Z</time></trkpt><trkpt lat="43.1108727" lon="12.2369992"><ele>253.0</ele><time>2026-03-29T13:11:10.743Z</time></trkpt><trkpt lat="43.1108439" lon="12.237098"><ele>249.5</ele><time>2026-03-29T13:11:11.743Z</time></trkpt><trkpt lat="43.1108063" lon="12.2371961"><ele>246.0</ele><time>2026-03-29T13:11:12.743Z</time></trkpt><trkpt lat="43.1107744" lon="12.2372807"><ele>246.0</ele><time>2026-03-29T13:11:13.743Z</time></trkpt><trkpt lat="43.1108073" lon="12.2374297"><ele>246.0</ele><time>2026-03-29T13:11:15.743Z</time></trkpt><trkpt lat="43.1108538" lon="12.2375477"><ele>246.0</ele><time>2026-03-29T13:11:16.743Z</time></trkpt><trkpt lat="43.1108897" lon="12.237706"><ele>246.0</ele><time>2026-03-29T13:11:17.743Z</time></trkpt><trkpt lat="43.1109437" lon="12.2378712"><ele>246.0</ele><time>2026-03-29T13:11:18.743Z</time></trkpt><trkpt lat="43.1110075" lon="12.2380524"><ele>246.00000000000003</ele><time>2026-03-29T13:11:19.743Z</time></trkpt><trkpt lat="43.1110667" lon="12.2382061"><ele>246.00000000000003</ele><time>2026-03-29T13:11:20.743Z</time></trkpt><trkpt lat="43.1111111" lon="12.2383307"><ele>246.0</ele><time>2026-03-29T13:11:21.743Z</time></trkpt><trkpt lat="43.1111192" lon="12.2384245"><ele>246.0</ele><time>2026-03-29T13:11:22.743Z</time></trkpt><trkpt lat="43.1110428" lon="12.2385476"><ele>246.16666666666666</ele><time>2026-03-29T13:11:24.743Z</time></trkpt><trkpt lat="43.110988" lon="12.2386219"><ele>246.33333333333331</ele><time>2026-03-29T13:11:25.743Z</time></trkpt><trkpt lat="43.1109376" lon="12.2387194"><ele>246.5</ele><time>2026-03-29T13:11:26.743Z</time></trkpt><trkpt lat="43.1109011" lon="12.2388272"><ele>246.66666666666666</ele><time>2026-03-29T13:11:27.743Z</time></trkpt><trkpt lat="43.1108817" lon="12.2389512"><ele>246.83333333333331</ele><time>2026-03-29T13:11:28.742Z</time></trkpt><trkpt lat="43.1108754" lon="12.2390821"><ele>247.0</ele><time>2026-03-29T13:11:29.743Z</time></trkpt><trkpt lat="43.1108863" lon="12.2392225"><ele>246.5</ele><time>2026-03-29T13:11:30.743Z</time></trkpt><trkpt lat="43.110904" lon="12.2393783"><ele>246.0</ele><time>2026-03-29T13:11:31.743Z</time></trkpt><trkpt lat="43.1109174" lon="12.2395352"><ele>245.5</ele><time>2026-03-29T13:11:32.743Z</time></trkpt><trkpt lat="43.1109206" lon="12.2396969"><ele>245.0</ele><time>2026-03-29T13:11:33.743Z</time></trkpt><trkpt lat="43.1109136" lon="12.2398635"><ele>244.25</ele><time>2026-03-29T13:11:34.743Z</time></trkpt><trkpt lat="43.1109138" lon="12.2400367"><ele>243.5</ele><time>2026-03-29T13:11:35.743Z</time></trkpt><trkpt lat="43.1109113" lon="12.2402057"><ele>242.75</ele><time>2026-03-29T13:11:36.743Z</time></trkpt><trkpt lat="43.1109278" lon="12.240373"><ele>242.0</ele><time>2026-03-29T13:11:37.743Z</time></trkpt><trkpt lat="43.1109548" lon="12.2405484"><ele>241.0</ele><time>2026-03-29T13:11:38.742Z</time></trkpt><trkpt lat="43.1109774" lon="12.2407143"><ele>240.0</ele><time>2026-03-29T13:11:39.743Z</time></trkpt><trkpt lat="43.1109985" lon="12.2408717"><ele>239.0</ele><time>2026-03-29T13:11:40.743Z</time></trkpt><trkpt lat="43.1110205" lon="12.2410227"><ele>238.0</ele><time>2026-03-29T13:11:41.743Z</time></trkpt><trkpt lat="43.111039" lon="12.2411704"><ele>238.0</ele><time>2026-03-29T13:11:42.743Z</time></trkpt><trkpt lat="43.1110614" lon="12.2413177"><ele>238.0</ele><time>2026-03-29T13:11:43.743Z</time></trkpt><trkpt lat="43.1110759" lon="12.2414605"><ele>238.0</ele><time>2026-03-29T13:11:44.742Z</time></trkpt><trkpt lat="43.1110852" lon="12.2416059"><ele>238.0</ele><time>2026-03-29T13:11:45.743Z</time></trkpt><trkpt lat="43.111096" lon="12.2417361"><ele>238.0</ele><time>2026-03-29T13:11:46.743Z</time></trkpt><trkpt lat="43.111099" lon="12.241858"><ele>237.66666666666666</ele><time>2026-03-29T13:11:47.743Z</time></trkpt><trkpt lat="43.1111053" lon="12.2419765"><ele>237.33333333333331</ele><time>2026-03-29T13:11:48.743Z</time></trkpt><trkpt lat="43.1111078" lon="12.2420825"><ele>237.0</ele><time>2026-03-29T13:11:49.743Z</time></trkpt><trkpt lat="43.1111159" lon="12.2421689"><ele>236.66666666666669</ele><time>2026-03-29T13:11:50.743Z</time></trkpt><trkpt lat="43.1111451" lon="12.2422567"><ele>236.33333333333334</ele><time>2026-03-29T13:11:52.743Z</time></trkpt><trkpt lat="43.1112094" lon="12.2422632"><ele>236.0</ele><time>2026-03-29T13:11:54.743Z</time></trkpt><trkpt lat="43.1113062" lon="12.2422041"><ele>236.0</ele><time>2026-03-29T13:11:56.743Z</time></trkpt><trkpt lat="43.1113708" lon="12.2421618"><ele>236.00000000000003</ele><time>2026-03-29T13:11:57.743Z</time></trkpt><trkpt lat="43.1114466" lon="12.2421152"><ele>236.00000000000003</ele><time>2026-03-29T13:11:58.743Z</time></trkpt><trkpt lat="43.1115297" lon="12.2420651"><ele>236.0</ele><time>2026-03-29T13:11:59.742Z</time></trkpt><trkpt lat="43.111615" lon="12.2420069"><ele>236.0</ele><time>2026-03-29T13:12:00.743Z</time></trkpt><trkpt lat="43.1117152" lon="12.2419364"><ele>233.75</ele><time>2026-03-29T13:12:01.743Z</time></trkpt><trkpt lat="43.1118217" lon="12.2418664"><ele>231.5</ele><time>2026-03-29T13:12:02.743Z</time></trkpt><trkpt lat="43.111923" lon="12.2417901"><ele>229.25</ele><time>2026-03-29T13:12:03.743Z</time></trkpt><trkpt lat="43.1120256" lon="12.2417204"><ele>227.0</ele><time>2026-03-29T13:12:04.743Z</time></trkpt><trkpt lat="43.1121248" lon="12.2416528"><ele>227.0</ele><time>2026-03-29T13:12:05.743Z</time></trkpt><trkpt lat="43.1122252" lon="12.2415786"><ele>227.0</ele><time>2026-03-29T13:12:06.743Z</time></trkpt><trkpt lat="43.1123281" lon="12.2415053"><ele>227.0</ele><time>2026-03-29T13:12:07.743Z</time></trkpt><trkpt lat="43.112427" lon="12.2414349"><ele>227.0</ele><time>2026-03-29T13:12:08.743Z</time></trkpt><trkpt lat="43.1125316" lon="12.2413618"><ele>228.0</ele><time>2026-03-29T13:12:09.743Z</time></trkpt><trkpt lat="43.1126433" lon="12.2412849"><ele>229.0</ele><time>2026-03-29T13:12:10.743Z</time></trkpt><trkpt lat="43.1127575" lon="12.2412023"><ele>230.0</ele><time>2026-03-29T13:12:11.743Z</time></trkpt><trkpt lat="43.1128778" lon="12.2411169"><ele>231.0</ele><time>2026-03-29T13:12:12.743Z</time></trkpt><trkpt lat="43.112999" lon="12.2410309"><ele>231.0</ele><time>2026-03-29T13:12:13.743Z</time></trkpt><trkpt lat="43.1131178" lon="12.2409436"><ele>231.0</ele><time>2026-03-29T13:12:14.743Z</time></trkpt><trkpt lat="43.1132373" lon="12.2408588"><ele>231.0</ele><time>2026-03-29T13:12:15.743Z</time></trkpt><trkpt lat="43.1133549" lon="12.2407738"><ele>231.0</ele><time>2026-03-29T13:12:16.743Z</time></trkpt><trkpt lat="43.1134692" lon="12.2406852"><ele>230.25</ele><time>2026-03-29T13:12:17.743Z</time></trkpt><trkpt lat="43.1135847" lon="12.2405973"><ele>229.5</ele><time>2026-03-29T13:12:18.743Z</time></trkpt><trkpt lat="43.1137051" lon="12.2405039"><ele>228.75</ele><time>2026-03-29T13:12:19.743Z</time></trkpt><trkpt lat="43.1138249" lon="12.2404124"><ele>228.0</ele><time>2026-03-29T13:12:20.743Z</time></trkpt><trkpt lat="43.1139419" lon="12.2403177"><ele>228.0</ele><time>2026-03-29T13:12:21.742Z</time></trkpt><trkpt lat="43.1140585" lon="12.2402199"><ele>228.0</ele><time>2026-03-29T13:12:22.743Z</time></trkpt><trkpt lat="43.1141761" lon="12.2401281"><ele>228.0</ele><time>2026-03-29T13:12:23.742Z</time></trkpt><trkpt lat="43.1142903" lon="12.2400292"><ele>228.0</ele><time>2026-03-29T13:12:24.743Z</time></trkpt><trkpt lat="43.1144063" lon="12.2399399"><ele>228.5</ele><time>2026-03-29T13:12:25.743Z</time></trkpt><trkpt lat="43.1145233" lon="12.2398483"><ele>229.0</ele><time>2026-03-29T13:12:26.743Z</time></trkpt><trkpt lat="43.1146429" lon="12.2397617"><ele>229.5</ele><time>2026-03-29T13:12:27.742Z</time></trkpt><trkpt lat="43.1147656" lon="12.2396797"><ele>230.0</ele><time>2026-03-29T13:12:28.743Z</time></trkpt><trkpt lat="43.1148947" lon="12.2396196"><ele>233.5</ele><time>2026-03-29T13:12:29.743Z</time></trkpt><trkpt lat="43.1150261" lon="12.2395968"><ele>237.0</ele><time>2026-03-29T13:12:30.743Z</time></trkpt><trkpt lat="43.1151568" lon="12.2396018"><ele>240.5</ele><time>2026-03-29T13:12:31.742Z</time></trkpt><trkpt lat="43.1152816" lon="12.2396221"><ele>244.0</ele><time>2026-03-29T13:12:32.743Z</time></trkpt><trkpt lat="43.1153969" lon="12.2396431"><ele>243.99999999999997</ele><time>2026-03-29T13:12:33.743Z</time></trkpt><trkpt lat="43.1155053" lon="12.2396581"><ele>244.0</ele><time>2026-03-29T13:12:34.743Z</time></trkpt><trkpt lat="43.1156001" lon="12.239677"><ele>244.0</ele><time>2026-03-29T13:12:35.743Z</time></trkpt><trkpt lat="43.1156851" lon="12.2396991"><ele>244.0</ele><time>2026-03-29T13:12:36.743Z</time></trkpt><trkpt lat="43.1157622" lon="12.2397169"><ele>243.99999999999997</ele><time>2026-03-29T13:12:37.743Z</time></trkpt><trkpt lat="43.1158288" lon="12.2397386"><ele>244.0</ele><time>2026-03-29T13:12:38.743Z</time></trkpt><trkpt lat="43.1159334" lon="12.239777"><ele>241.79999999999998</ele><time>2026-03-29T13:12:40.743Z</time></trkpt><trkpt lat="43.1160562" lon="12.2398489"><ele>239.59999999999997</ele><time>2026-03-29T13:12:42.743Z</time></trkpt><trkpt lat="43.1161282" lon="12.2398955"><ele>237.4</ele><time>2026-03-29T13:12:43.743Z</time></trkpt><trkpt lat="43.116204" lon="12.2399506"><ele>235.2</ele><time>2026-03-29T13:12:44.742Z</time></trkpt><trkpt lat="43.116284" lon="12.2400049"><ele>233.0</ele><time>2026-03-29T13:12:45.743Z</time></trkpt><trkpt lat="43.116359" lon="12.2400585"><ele>233.00000000000003</ele><time>2026-03-29T13:12:46.743Z</time></trkpt><trkpt lat="43.1164225" lon="12.24013"><ele>233.0</ele><time>2026-03-29T13:12:47.743Z</time></trkpt><trkpt lat="43.1164821" lon="12.2402116"><ele>233.0</ele><time>2026-03-29T13:12:48.742Z</time></trkpt><trkpt lat="43.1165297" lon="12.2403197"><ele>233.0</ele><time>2026-03-29T13:12:49.743Z</time></trkpt><trkpt lat="43.1165777" lon="12.2404083"><ele>233.00000000000003</ele><time>2026-03-29T13:12:50.743Z</time></trkpt><trkpt lat="43.1166354" lon="12.2404936"><ele>233.0</ele><time>2026-03-29T13:12:51.743Z</time></trkpt><trkpt lat="43.1167027" lon="12.2405704"><ele>232.16666666666669</ele><time>2026-03-29T13:12:52.743Z</time></trkpt><trkpt lat="43.1167566" lon="12.2406417"><ele>231.33333333333334</ele><time>2026-03-29T13:12:53.743Z</time></trkpt><trkpt lat="43.1168102" lon="12.2407256"><ele>230.5</ele><time>2026-03-29T13:12:55.743Z</time></trkpt><trkpt lat="43.116858" lon="12.2408506"><ele>229.66666666666669</ele><time>2026-03-29T13:12:57.743Z</time></trkpt><trkpt lat="43.1168921" lon="12.2409413"><ele>228.83333333333334</ele><time>2026-03-29T13:12:58.743Z</time></trkpt><trkpt lat="43.1169291" lon="12.2410458"><ele>228.0</ele><time>2026-03-29T13:12:59.742Z</time></trkpt><trkpt lat="43.1169572" lon="12.2411454"><ele>228.0</ele><time>2026-03-29T13:13:00.743Z</time></trkpt><trkpt lat="43.1169752" lon="12.2412494"><ele>228.0</ele><time>2026-03-29T13:13:01.743Z</time></trkpt><trkpt lat="43.1169839" lon="12.2413448"><ele>228.0</ele><time>2026-03-29T13:13:02.743Z</time></trkpt><trkpt lat="43.1169837" lon="12.2414487"><ele>228.0</ele><time>2026-03-29T13:13:03.743Z</time></trkpt><trkpt lat="43.1169791" lon="12.2415452"><ele>228.0</ele><time>2026-03-29T13:13:04.743Z</time></trkpt><trkpt lat="43.1169586" lon="12.2416518"><ele>228.0</ele><time>2026-03-29T13:13:05.743Z</time></trkpt><trkpt lat="43.1169397" lon="12.2417625"><ele>228.0</ele><time>2026-03-29T13:13:06.743Z</time></trkpt><trkpt lat="43.1169214" lon="12.2418826"><ele>228.0</ele><time>2026-03-29T13:13:07.743Z</time></trkpt><trkpt lat="43.1169277" lon="12.2420044"><ele>228.0</ele><time>2026-03-29T13:13:08.743Z</time></trkpt><trkpt lat="43.1169456" lon="12.2421231"><ele>228.0</ele><time>2026-03-29T13:13:09.743Z</time></trkpt><trkpt lat="43.1169754" lon="12.2422304"><ele>228.0</ele><time>2026-03-29T13:13:10.743Z</time></trkpt><trkpt lat="43.1170137" lon="12.2423404"><ele>228.0</ele><time>2026-03-29T13:13:11.743Z</time></trkpt><trkpt lat="43.1170484" lon="12.242471"><ele>228.16666666666666</ele><time>2026-03-29T13:13:12.743Z</time></trkpt><trkpt lat="43.117075" lon="12.242593"><ele>228.33333333333331</ele><time>2026-03-29T13:13:13.743Z</time></trkpt><trkpt lat="43.1170974" lon="12.2427061"><ele>228.5</ele><time>2026-03-29T13:13:14.743Z</time></trkpt><trkpt lat="43.1171244" lon="12.2427897"><ele>228.66666666666666</ele><time>2026-03-29T13:13:15.743Z</time></trkpt><trkpt lat="43.1171695" lon="12.2428632"><ele>228.83333333333331</ele><time>2026-03-29T13:13:16.743Z</time></trkpt><trkpt lat="43.1172306" lon="12.2429004"><ele>229.0</ele><time>2026-03-29T13:13:17.743Z</time></trkpt><trkpt lat="43.11732" lon="12.2429578"><ele>229.33333333333331</ele><time>2026-03-29T13:13:19.743Z</time></trkpt><trkpt lat="43.1174297" lon="12.2430168"><ele>229.66666666666666</ele><time>2026-03-29T13:13:21.743Z</time></trkpt><trkpt lat="43.1174966" lon="12.2430401"><ele>230.0</ele><time>2026-03-29T13:13:22.743Z</time></trkpt><trkpt lat="43.117576" lon="12.2430699"><ele>230.33333333333331</ele><time>2026-03-29T13:13:23.743Z</time></trkpt><trkpt lat="43.1176395" lon="12.243115"><ele>230.66666666666666</ele><time>2026-03-29T13:13:24.743Z</time></trkpt><trkpt lat="43.1176936" lon="12.2431961"><ele>231.0</ele><time>2026-03-29T13:13:25.743Z</time></trkpt><trkpt lat="43.1177586" lon="12.2433034"><ele>231.20000000000002</ele><time>2026-03-29T13:13:26.743Z</time></trkpt><trkpt lat="43.1178264" lon="12.2434172"><ele>231.40000000000003</ele><time>2026-03-29T13:13:27.743Z</time></trkpt><trkpt lat="43.1178728" lon="12.2435388"><ele>231.6</ele><time>2026-03-29T13:13:28.743Z</time></trkpt><trkpt lat="43.1179211" lon="12.2436439"><ele>231.8</ele><time>2026-03-29T13:13:29.743Z</time></trkpt><trkpt lat="43.1179369" lon="12.2437469"><ele>232.0</ele><time>2026-03-29T13:13:30.743Z</time></trkpt><trkpt lat="43.1179293" lon="12.2438639"><ele>231.66666666666666</ele><time>2026-03-29T13:13:31.743Z</time></trkpt><trkpt lat="43.1179406" lon="12.2439871"><ele>231.33333333333331</ele><time>2026-03-29T13:13:32.743Z</time></trkpt><trkpt lat="43.117954" lon="12.2441018"><ele>231.0</ele><time>2026-03-29T13:13:33.743Z</time></trkpt><trkpt lat="43.1179709" lon="12.2442152"><ele>230.66666666666669</ele><time>2026-03-29T13:13:34.743Z</time></trkpt><trkpt lat="43.1179859" lon="12.2443409"><ele>230.33333333333334</ele><time>2026-03-29T13:13:35.742Z</time></trkpt><trkpt lat="43.1180086" lon="12.2444617"><ele>230.0</ele><time>2026-03-29T13:13:36.743Z</time></trkpt><trkpt lat="43.1180287" lon="12.244582"><ele>230.00000000000003</ele><time>2026-03-29T13:13:37.743Z</time></trkpt><trkpt lat="43.118049" lon="12.2446798"><ele>230.0</ele><time>2026-03-29T13:13:38.742Z</time></trkpt><trkpt lat="43.1180688" lon="12.244786"><ele>230.0</ele><time>2026-03-29T13:13:39.743Z</time></trkpt><trkpt lat="43.118078" lon="12.2448745"><ele>230.0</ele><time>2026-03-29T13:13:40.742Z</time></trkpt><trkpt lat="43.1181109" lon="12.2449751"><ele>230.00000000000003</ele><time>2026-03-29T13:13:42.743Z</time></trkpt><trkpt lat="43.1181396" lon="12.2451356"><ele>230.0</ele><time>2026-03-29T13:13:44.743Z</time></trkpt><trkpt lat="43.1181645" lon="12.2453101"><ele>229.83333333333334</ele><time>2026-03-29T13:13:46.743Z</time></trkpt><trkpt lat="43.1181848" lon="12.2454083"><ele>229.66666666666669</ele><time>2026-03-29T13:13:47.743Z</time></trkpt><trkpt lat="43.1182053" lon="12.2455235"><ele>229.5</ele><time>2026-03-29T13:13:48.743Z</time></trkpt><trkpt lat="43.1182266" lon="12.245631"><ele>229.33333333333331</ele><time>2026-03-29T13:13:49.743Z</time></trkpt><trkpt lat="43.1182518" lon="12.2457439"><ele>229.16666666666666</ele><time>2026-03-29T13:13:50.743Z</time></trkpt><trkpt lat="43.1182712" lon="12.2458879"><ele>229.0</ele><time>2026-03-29T13:13:51.743Z</time></trkpt><trkpt lat="43.1182904" lon="12.2460564"><ele>229.25</ele><time>2026-03-29T13:13:52.743Z</time></trkpt><trkpt lat="43.118325" lon="12.2462462"><ele>229.5</ele><time>2026-03-29T13:13:53.743Z</time></trkpt><trkpt lat="43.1183545" lon="12.2464138"><ele>229.75</ele><time>2026-03-29T13:13:54.743Z</time></trkpt><trkpt lat="43.1183838" lon="12.2465721"><ele>230.0</ele><time>2026-03-29T13:13:55.743Z</time></trkpt><trkpt lat="43.1184194" lon="12.246759"><ele>230.0</ele><time>2026-03-29T13:13:56.743Z</time></trkpt><trkpt lat="43.1184468" lon="12.2469388"><ele>230.0</ele><time>2026-03-29T13:13:57.743Z</time></trkpt><trkpt lat="43.1184756" lon="12.2471052"><ele>230.0</ele><time>2026-03-29T13:13:58.743Z</time></trkpt><trkpt lat="43.1184921" lon="12.2472565"><ele>230.0</ele><time>2026-03-29T13:13:59.743Z</time></trkpt><trkpt lat="43.1184816" lon="12.2473797"><ele>230.50000000000003</ele><time>2026-03-29T13:14:00.743Z</time></trkpt><trkpt lat="43.1184707" lon="12.2474935"><ele>231.0</ele><time>2026-03-29T13:14:01.742Z</time></trkpt><trkpt lat="43.1184577" lon="12.2476097"><ele>231.5</ele><time>2026-03-29T13:14:02.743Z</time></trkpt><trkpt lat="43.1184464" lon="12.2477276"><ele>232.0</ele><time>2026-03-29T13:14:03.743Z</time></trkpt><trkpt lat="43.1184379" lon="12.2478308"><ele>232.50000000000003</ele><time>2026-03-29T13:14:04.743Z</time></trkpt><trkpt lat="43.1184262" lon="12.2479472"><ele>233.0</ele><time>2026-03-29T13:14:05.743Z</time></trkpt><trkpt lat="43.1184138" lon="12.2480599"><ele>233.33333333333334</ele><time>2026-03-29T13:14:06.743Z</time></trkpt><trkpt lat="43.1183955" lon="12.2481764"><ele>233.66666666666669</ele><time>2026-03-29T13:14:07.743Z</time></trkpt><trkpt lat="43.1183832" lon="12.2482851"><ele>234.0</ele><time>2026-03-29T13:14:08.743Z</time></trkpt><trkpt lat="43.1183739" lon="12.2483886"><ele>234.33333333333331</ele><time>2026-03-29T13:14:09.743Z</time></trkpt><trkpt lat="43.1183627" lon="12.2484786"><ele>234.66666666666666</ele><time>2026-03-29T13:14:10.743Z</time></trkpt><trkpt lat="43.1183709" lon="12.2486181"><ele>235.0</ele><time>2026-03-29T13:14:12.743Z</time></trkpt><trkpt lat="43.1184212" lon="12.248681"><ele>235.0</ele><time>2026-03-29T13:14:14.743Z</time></trkpt><trkpt lat="43.1184968" lon="12.2487145"><ele>235.0</ele><time>2026-03-29T13:14:16.743Z</time></trkpt><trkpt lat="43.1185992" lon="12.2487475"><ele>235.0</ele><time>2026-03-29T13:14:18.742Z</time></trkpt><trkpt lat="43.1186971" lon="12.2487792"><ele>235.0</ele><time>2026-03-29T13:14:20.743Z</time></trkpt><trkpt lat="43.1188067" lon="12.2488125"><ele>235.0</ele><time>2026-03-29T13:14:22.743Z</time></trkpt><trkpt lat="43.1189072" lon="12.248845"><ele>234.99999999999997</ele><time>2026-03-29T13:14:24.743Z</time></trkpt><trkpt lat="43.1190272" lon="12.2488703"><ele>235.0</ele><time>2026-03-29T13:14:26.743Z</time></trkpt><trkpt lat="43.1190964" lon="12.2488793"><ele>235.0</ele><time>2026-03-29T13:14:27.743Z</time></trkpt><trkpt lat="43.1191586" lon="12.2489028"><ele>235.0</ele><time>2026-03-29T13:14:28.743Z</time></trkpt><trkpt lat="43.1192185" lon="12.2489666"><ele>234.99999999999997</ele><time>2026-03-29T13:14:29.743Z</time></trkpt><trkpt lat="43.119313" lon="12.2490431"><ele>235.0</ele><time>2026-03-29T13:14:31.743Z</time></trkpt><trkpt lat="43.119361" lon="12.2491148"><ele>235.6</ele><time>2026-03-29T13:14:33.743Z</time></trkpt><trkpt lat="43.1193421" lon="12.2492086"><ele>236.2</ele><time>2026-03-29T13:14:35.743Z</time></trkpt><trkpt lat="43.1193376" lon="12.249337"><ele>236.8</ele><time>2026-03-29T13:14:37.743Z</time></trkpt><trkpt lat="43.1193422" lon="12.2494249"><ele>237.4</ele><time>2026-03-29T13:14:38.743Z</time></trkpt><trkpt lat="43.1193472" lon="12.2496277"><ele>238.0</ele><time>2026-03-29T13:14:40.743Z</time></trkpt><trkpt lat="43.1193475" lon="12.2497645"><ele>240.0</ele><time>2026-03-29T13:14:41.743Z</time></trkpt><trkpt lat="43.1193437" lon="12.2499261"><ele>242.0</ele><time>2026-03-29T13:14:42.742Z</time></trkpt><trkpt lat="43.1193381" lon="12.2501077"><ele>244.0</ele><time>2026-03-29T13:14:43.743Z</time></trkpt><trkpt lat="43.119336" lon="12.2502876"><ele>246.0</ele><time>2026-03-29T13:14:44.743Z</time></trkpt><trkpt lat="43.1193329" lon="12.2504841"><ele>247.4</ele><time>2026-03-29T13:14:45.743Z</time></trkpt><trkpt lat="43.1193252" lon="12.2506702"><ele>248.8</ele><time>2026-03-29T13:14:46.743Z</time></trkpt><trkpt lat="43.1193168" lon="12.2508504"><ele>250.20000000000002</ele><time>2026-03-29T13:14:47.743Z</time></trkpt><trkpt lat="43.1193122" lon="12.2509851"><ele>251.60000000000002</ele><time>2026-03-29T13:14:48.743Z</time></trkpt><trkpt lat="43.1193164" lon="12.2510772"><ele>253.0</ele><time>2026-03-29T13:14:49.743Z</time></trkpt><trkpt lat="43.119314" lon="12.2511812"><ele>252.99999999999997</ele><time>2026-03-29T13:14:50.743Z</time></trkpt><trkpt lat="43.1192909" lon="12.2513456"><ele>253.0</ele><time>2026-03-29T13:14:52.743Z</time></trkpt><trkpt lat="43.1192682" lon="12.2514355"><ele>253.0</ele><time>2026-03-29T13:14:54.743Z</time></trkpt><trkpt lat="43.1192582" lon="12.2515341"><ele>253.0</ele><time>2026-03-29T13:14:56.743Z</time></trkpt><trkpt lat="43.1192334" lon="12.2516302"><ele>252.99999999999997</ele><time>2026-03-29T13:14:57.743Z</time></trkpt><trkpt lat="43.1192176" lon="12.2517406"><ele>253.0</ele><time>2026-03-29T13:14:58.743Z</time></trkpt><trkpt lat="43.1192071" lon="12.2518361"><ele>254.14285714285717</ele><time>2026-03-29T13:14:59.743Z</time></trkpt><trkpt lat="43.1191911" lon="12.2519242"><ele>255.28571428571428</ele><time>2026-03-29T13:15:00.743Z</time></trkpt><trkpt lat="43.1191733" lon="12.2520163"><ele>256.42857142857144</ele><time>2026-03-29T13:15:01.743Z</time></trkpt><trkpt lat="43.1191435" lon="12.2520989"><ele>257.57142857142856</ele><time>2026-03-29T13:15:02.743Z</time></trkpt><trkpt lat="43.1191227" lon="12.2521893"><ele>258.7142857142857</ele><time>2026-03-29T13:15:03.743Z</time></trkpt><trkpt lat="43.1191069" lon="12.2522755"><ele>259.8571428571429</ele><time>2026-03-29T13:15:04.743Z</time></trkpt><trkpt lat="43.1190704" lon="12.2523724"><ele>261.0</ele><time>2026-03-29T13:15:05.743Z</time></trkpt><trkpt lat="43.119039" lon="12.2524689"><ele>261.5</ele><time>2026-03-29T13:15:06.743Z</time></trkpt><trkpt lat="43.1190039" lon="12.2525742"><ele>262.0</ele><time>2026-03-29T13:15:07.743Z</time></trkpt><trkpt lat="43.1189831" lon="12.2526574"><ele>262.5</ele><time>2026-03-29T13:15:08.742Z</time></trkpt><trkpt lat="43.1190046" lon="12.2528115"><ele>263.0</ele><time>2026-03-29T13:15:10.743Z</time></trkpt><trkpt lat="43.119048" lon="12.2529134"><ele>263.5</ele><time>2026-03-29T13:15:11.743Z</time></trkpt><trkpt lat="43.1190834" lon="12.252991"><ele>264.0</ele><time>2026-03-29T13:15:12.743Z</time></trkpt><trkpt lat="43.119111" lon="12.2530753"><ele>267.3333333333333</ele><time>2026-03-29T13:15:13.743Z</time></trkpt><trkpt lat="43.1191425" lon="12.2531548"><ele>270.6666666666667</ele><time>2026-03-29T13:15:14.743Z</time></trkpt><trkpt lat="43.1191443" lon="12.2532921"><ele>274.0</ele><time>2026-03-29T13:15:15.743Z</time></trkpt><trkpt lat="43.1191689" lon="12.2534017"><ele>277.33333333333337</ele><time>2026-03-29T13:15:16.743Z</time></trkpt><trkpt lat="43.1191852" lon="12.2535107"><ele>280.6666666666667</ele><time>2026-03-29T13:15:17.743Z</time></trkpt><trkpt lat="43.11919" lon="12.2536248"><ele>284.0</ele><time>2026-03-29T13:15:18.743Z</time></trkpt><trkpt lat="43.1192038" lon="12.2537307"><ele>284.0</ele><time>2026-03-29T13:15:19.743Z</time></trkpt><trkpt lat="43.1192104" lon="12.2538435"><ele>284.0</ele><time>2026-03-29T13:15:20.743Z</time></trkpt><trkpt lat="43.1192027" lon="12.2539643"><ele>284.0</ele><time>2026-03-29T13:15:21.743Z</time></trkpt><trkpt lat="43.1192152" lon="12.2540692"><ele>284.0</ele><time>2026-03-29T13:15:22.743Z</time></trkpt><trkpt lat="43.1192078" lon="12.2541572"><ele>284.0</ele><time>2026-03-29T13:15:23.742Z</time></trkpt><trkpt lat="43.1191245" lon="12.2541729"><ele>284.0</ele><time>2026-03-29T13:15:26.743Z</time></trkpt><trkpt lat="43.1190501" lon="12.2541004"><ele>284.4</ele><time>2026-03-29T13:15:27.743Z</time></trkpt><trkpt lat="43.118985" lon="12.25409"><ele>284.79999999999995</ele><time>2026-03-29T13:15:28.743Z</time></trkpt><trkpt lat="43.1189055" lon="12.2540869"><ele>285.20000000000005</ele><time>2026-03-29T13:15:29.743Z</time></trkpt><trkpt lat="43.1188419" lon="12.2541411"><ele>285.6</ele><time>2026-03-29T13:15:30.743Z</time></trkpt><trkpt lat="43.1187835" lon="12.2541773"><ele>286.0</ele><time>2026-03-29T13:15:31.743Z</time></trkpt><trkpt lat="43.1188239" lon="12.2544076"><ele>286.0</ele><time>2026-03-29T13:15:32.743Z</time></trkpt><trkpt lat="43.1188363" lon="12.2546211"><ele>286.0</ele><time>2026-03-29T13:15:33.743Z</time></trkpt><trkpt lat="43.118821" lon="12.2547732"><ele>286.0</ele><time>2026-03-29T13:15:34.743Z</time></trkpt><trkpt lat="43.1188154" lon="12.2548942"><ele>286.0</ele><time>2026-03-29T13:15:35.743Z</time></trkpt><trkpt lat="43.118809" lon="12.255043"><ele>287.3333333333333</ele><time>2026-03-29T13:15:36.743Z</time></trkpt><trkpt lat="43.1188206" lon="12.2551403"><ele>288.66666666666663</ele><time>2026-03-29T13:15:37.743Z</time></trkpt><trkpt lat="43.1188194" lon="12.255247"><ele>290.0</ele><time>2026-03-29T13:15:38.743Z</time></trkpt><trkpt lat="43.1188126" lon="12.2553524"><ele>291.3333333333333</ele><time>2026-03-29T13:15:39.743Z</time></trkpt><trkpt lat="43.1188382" lon="12.2554995"><ele>292.6666666666667</ele><time>2026-03-29T13:15:40.743Z</time></trkpt><trkpt lat="43.1188693" lon="12.2556179"><ele>294.0</ele><time>2026-03-29T13:15:41.743Z</time></trkpt><trkpt lat="43.1189332" lon="12.2556871"><ele>295.4</ele><time>2026-03-29T13:15:42.743Z</time></trkpt><trkpt lat="43.1190266" lon="12.2557416"><ele>296.79999999999995</ele><time>2026-03-29T13:15:44.743Z</time></trkpt><trkpt lat="43.1190938" lon="12.2556851"><ele>298.20000000000005</ele><time>2026-03-29T13:15:45.743Z</time></trkpt><trkpt lat="43.1191742" lon="12.2556555"><ele>299.6</ele><time>2026-03-29T13:15:46.742Z</time></trkpt><trkpt lat="43.1192579" lon="12.2556198"><ele>301.0</ele><time>2026-03-29T13:15:47.743Z</time></trkpt><trkpt lat="43.1193555" lon="12.2556004"><ele>302.8</ele><time>2026-03-29T13:15:48.743Z</time></trkpt><trkpt lat="43.1194382" lon="12.2555908"><ele>304.6</ele><time>2026-03-29T13:15:49.743Z</time></trkpt><trkpt lat="43.1195356" lon="12.2555973"><ele>306.4</ele><time>2026-03-29T13:15:50.743Z</time></trkpt><trkpt lat="43.1196375" lon="12.2556"><ele>308.2</ele><time>2026-03-29T13:15:51.743Z</time></trkpt><trkpt lat="43.1197338" lon="12.2556217"><ele>310.0</ele><time>2026-03-29T13:15:52.743Z</time></trkpt><trkpt lat="43.1198427" lon="12.2556621"><ele>314.0</ele><time>2026-03-29T13:15:53.743Z</time></trkpt><trkpt lat="43.1199317" lon="12.2556971"><ele>318.0</ele><time>2026-03-29T13:15:54.742Z</time></trkpt><trkpt lat="43.120013" lon="12.2556955"><ele>322.0</ele><time>2026-03-29T13:15:55.743Z</time></trkpt><trkpt lat="43.1201057" lon="12.2557124"><ele>326.0</ele><time>2026-03-29T13:15:56.743Z</time></trkpt><trkpt lat="43.1201705" lon="12.2557337"><ele>330.0</ele><time>2026-03-29T13:15:57.743Z</time></trkpt><trkpt lat="43.1202959" lon="12.2558314"><ele>330.0</ele><time>2026-03-29T13:15:59.743Z</time></trkpt><trkpt lat="43.120393" lon="12.2558908"><ele>330.0</ele><time>2026-03-29T13:16:00.743Z</time></trkpt><trkpt lat="43.1204806" lon="12.2559221"><ele>330.0</ele><time>2026-03-29T13:16:01.743Z</time></trkpt><trkpt lat="43.1205811" lon="12.2559325"><ele>330.0</ele><time>2026-03-29T13:16:02.743Z</time></trkpt><trkpt lat="43.1206685" lon="12.2559221"><ele>330.0</ele><time>2026-03-29T13:16:03.743Z</time></trkpt><trkpt lat="43.1207431" lon="12.2559474"><ele>330.0</ele><time>2026-03-29T13:16:04.743Z</time></trkpt><trkpt lat="43.1208123" lon="12.2559807"><ele>330.0</ele><time>2026-03-29T13:16:05.743Z</time></trkpt><trkpt lat="43.1208292" lon="12.2560675"><ele>330.0</ele><time>2026-03-29T13:16:07.743Z</time></trkpt><trkpt lat="43.1207878" lon="12.2561738"><ele>330.0</ele><time>2026-03-29T13:16:09.743Z</time></trkpt><trkpt lat="43.1207142" lon="12.2562948"><ele>330.0</ele><time>2026-03-29T13:16:11.743Z</time></trkpt><trkpt lat="43.1206276" lon="12.2564002"><ele>333.8</ele><time>2026-03-29T13:16:13.743Z</time></trkpt><trkpt lat="43.1205663" lon="12.256457"><ele>337.6</ele><time>2026-03-29T13:16:14.743Z</time></trkpt><trkpt lat="43.1205113" lon="12.2565388"><ele>341.4</ele><time>2026-03-29T13:16:15.743Z</time></trkpt><trkpt lat="43.1204662" lon="12.2566231"><ele>345.2</ele><time>2026-03-29T13:16:16.743Z</time></trkpt><trkpt lat="43.1203309" lon="12.2567101"><ele>349.0</ele><time>2026-03-29T13:16:18.743Z</time></trkpt><trkpt lat="43.1202578" lon="12.2567507"><ele>349.0</ele><time>2026-03-29T13:16:19.743Z</time></trkpt><trkpt lat="43.1201689" lon="12.2568392"><ele>349.0</ele><time>2026-03-29T13:16:20.743Z</time></trkpt><trkpt lat="43.1200846" lon="12.256915"><ele>349.0</ele><time>2026-03-29T13:16:21.743Z</time></trkpt><trkpt lat="43.1200039" lon="12.2569611"><ele>349.0</ele><time>2026-03-29T13:16:22.743Z</time></trkpt><trkpt lat="43.1199187" lon="12.2570319"><ele>349.0</ele><time>2026-03-29T13:16:24.743Z</time></trkpt><trkpt lat="43.1198611" lon="12.2572048"><ele>348.75</ele><time>2026-03-29T13:16:26.743Z</time></trkpt><trkpt lat="43.1198109" lon="12.2573216"><ele>348.5</ele><time>2026-03-29T13:16:27.743Z</time></trkpt><trkpt lat="43.1197626" lon="12.2574402"><ele>348.25</ele><time>2026-03-29T13:16:28.743Z</time></trkpt><trkpt lat="43.1196932" lon="12.2576371"><ele>348.0</ele><time>2026-03-29T13:16:29.743Z</time></trkpt><trkpt lat="43.1196304" lon="12.2578272"><ele>348.0</ele><time>2026-03-29T13:16:30.743Z</time></trkpt><trkpt lat="43.1195831" lon="12.2579866"><ele>348.0</ele><time>2026-03-29T13:16:31.743Z</time></trkpt><trkpt lat="43.1195316" lon="12.2581468"><ele>348.0</ele><time>2026-03-29T13:16:32.743Z</time></trkpt><trkpt lat="43.1194657" lon="12.2582586"><ele>348.0</ele><time>2026-03-29T13:16:33.743Z</time></trkpt><trkpt lat="43.1193979" lon="12.2583845"><ele>352.0</ele><time>2026-03-29T13:16:34.743Z</time></trkpt><trkpt lat="43.1193527" lon="12.2585367"><ele>356.0</ele><time>2026-03-29T13:16:35.743Z</time></trkpt><trkpt lat="43.1192809" lon="12.2586785"><ele>360.0</ele><time>2026-03-29T13:16:36.743Z</time></trkpt><trkpt lat="43.1192475" lon="12.258823"><ele>364.0</ele><time>2026-03-29T13:16:37.743Z</time></trkpt><trkpt lat="43.1191965" lon="12.2589628"><ele>364.25</ele><time>2026-03-29T13:16:38.743Z</time></trkpt><trkpt lat="43.1191448" lon="12.2590911"><ele>364.5</ele><time>2026-03-29T13:16:39.743Z</time></trkpt><trkpt lat="43.1190628" lon="12.2593036"><ele>364.75</ele><time>2026-03-29T13:16:41.743Z</time></trkpt><trkpt lat="43.1189982" lon="12.2594058"><ele>365.0</ele><time>2026-03-29T13:16:42.743Z</time></trkpt><trkpt lat="43.1189256" lon="12.2595229"><ele>365.0</ele><time>2026-03-29T13:16:43.743Z</time></trkpt><trkpt lat="43.118862" lon="12.259645"><ele>365.0</ele><time>2026-03-29T13:16:44.743Z</time></trkpt><trkpt lat="43.1188208" lon="12.2597655"><ele>365.0</ele><time>2026-03-29T13:16:45.743Z</time></trkpt><trkpt lat="43.1187543" lon="12.2599013"><ele>365.0</ele><time>2026-03-29T13:16:47.743Z</time></trkpt><trkpt lat="43.1187047" lon="12.2600011"><ele>365.0</ele><time>2026-03-29T13:16:48.743Z</time></trkpt><trkpt lat="43.1186583" lon="12.2600895"><ele>367.75</ele><time>2026-03-29T13:16:49.743Z</time></trkpt><trkpt lat="43.1185822" lon="12.2602901"><ele>370.5</ele><time>2026-03-29T13:16:50.743Z</time></trkpt><trkpt lat="43.1185225" lon="12.2604068"><ele>373.25</ele><time>2026-03-29T13:16:51.743Z</time></trkpt><trkpt lat="43.1184531" lon="12.260516"><ele>376.0</ele><time>2026-03-29T13:16:52.742Z</time></trkpt><trkpt lat="43.1183922" lon="12.2606275"><ele>375.20000000000005</ele><time>2026-03-29T13:16:53.743Z</time></trkpt><trkpt lat="43.1183098" lon="12.2607206"><ele>374.40000000000003</ele><time>2026-03-29T13:16:54.743Z</time></trkpt><trkpt lat="43.1182185" lon="12.2607711"><ele>373.6</ele><time>2026-03-29T13:16:55.743Z</time></trkpt><trkpt lat="43.1181317" lon="12.2608271"><ele>372.8</ele><time>2026-03-29T13:16:56.743Z</time></trkpt><trkpt lat="43.1180607" lon="12.2608635"><ele>372.0</ele><time>2026-03-29T13:16:57.743Z</time></trkpt><trkpt lat="43.1179928" lon="12.2609018"><ele>372.0</ele><time>2026-03-29T13:16:59.743Z</time></trkpt><trkpt lat="43.1180602" lon="12.2609495"><ele>372.0</ele><time>2026-03-29T13:17:49.743Z</time></trkpt><trkpt lat="43.1181998" lon="12.2609859"><ele>372.0</ele><time>2026-03-29T13:17:51.743Z</time></trkpt><trkpt lat="43.1183009" lon="12.2609607"><ele>372.0</ele><time>2026-03-29T13:17:53.742Z</time></trkpt><trkpt lat="43.1184026" lon="12.2609375"><ele>372.0</ele><time>2026-03-29T13:17:56.743Z</time></trkpt><trkpt lat="43.1184873" lon="12.2609026"><ele>373.8333333333333</ele><time>2026-03-29T13:17:59.743Z</time></trkpt><trkpt lat="43.1185599" lon="12.2608176"><ele>375.6666666666667</ele><time>2026-03-29T13:18:01.743Z</time></trkpt><trkpt lat="43.1186188" lon="12.2607528"><ele>377.5</ele><time>2026-03-29T13:18:04.742Z</time></trkpt><trkpt lat="43.1186873" lon="12.2607711"><ele>379.33333333333337</ele><time>2026-03-29T13:19:14.743Z</time></trkpt><trkpt lat="43.1187588" lon="12.2607608"><ele>381.1666666666667</ele><time>2026-03-29T13:19:16.742Z</time></trkpt><trkpt lat="43.118821" lon="12.2607469"><ele>383.0</ele><time>2026-03-29T13:19:18.743Z</time></trkpt><trkpt lat="43.1188591" lon="12.260842"><ele>383.0</ele><time>2026-03-29T13:19:21.743Z</time></trkpt><trkpt lat="43.1189314" lon="12.2609025"><ele>383.0</ele><time>2026-03-29T13:19:23.743Z</time></trkpt><trkpt lat="43.1190175" lon="12.2609146"><ele>383.0</ele><time>2026-03-29T13:19:24.743Z</time></trkpt><trkpt lat="43.1190876" lon="12.2609463"><ele>383.0</ele><time>2026-03-29T13:19:25.743Z</time></trkpt><trkpt lat="43.1191888" lon="12.2610522"><ele>383.0</ele><time>2026-03-29T13:19:27.743Z</time></trkpt><trkpt lat="43.1192314" lon="12.2611298"><ele>383.0</ele><time>2026-03-29T13:19:28.743Z</time></trkpt><trkpt lat="43.1193226" lon="12.2612552"><ele>382.79999999999995</ele><time>2026-03-29T13:19:30.743Z</time></trkpt><trkpt lat="43.119372" lon="12.2613193"><ele>382.6</ele><time>2026-03-29T13:19:31.743Z</time></trkpt><trkpt lat="43.1194829" lon="12.2613789"><ele>382.4</ele><time>2026-03-29T13:19:33.743Z</time></trkpt><trkpt lat="43.1195296" lon="12.2614375"><ele>382.20000000000005</ele><time>2026-03-29T13:19:34.743Z</time></trkpt><trkpt lat="43.1196262" lon="12.2615188"><ele>382.0</ele><time>2026-03-29T13:19:36.743Z</time></trkpt><trkpt lat="43.1197245" lon="12.261545"><ele>382.0</ele><time>2026-03-29T13:19:38.743Z</time></trkpt><trkpt lat="43.1197777" lon="12.2616439"><ele>382.0</ele><time>2026-03-29T13:19:40.743Z</time></trkpt><trkpt lat="43.119846" lon="12.2617265"><ele>382.0</ele><time>2026-03-29T13:19:42.743Z</time></trkpt><trkpt lat="43.1198886" lon="12.2617963"><ele>382.0</ele><time>2026-03-29T13:19:43.743Z</time></trkpt><trkpt lat="43.1199402" lon="12.2618516"><ele>382.0</ele><time>2026-03-29T13:19:44.743Z</time></trkpt><trkpt lat="43.1199907" lon="12.2619081"><ele>382.0</ele><time>2026-03-29T13:19:45.743Z</time></trkpt><trkpt lat="43.1200461" lon="12.262018"><ele>381.0</ele><time>2026-03-29T13:19:47.743Z</time></trkpt><trkpt lat="43.1200793" lon="12.2621573"><ele>380.0</ele><time>2026-03-29T13:19:49.743Z</time></trkpt><trkpt lat="43.1201323" lon="12.2622209"><ele>379.0</ele><time>2026-03-29T13:19:50.743Z</time></trkpt><trkpt lat="43.1201763" lon="12.2623598"><ele>378.0</ele><time>2026-03-29T13:19:52.743Z</time></trkpt><trkpt lat="43.1201933" lon="12.2624453"><ele>377.0</ele><time>2026-03-29T13:19:53.743Z</time></trkpt><trkpt lat="43.1202231" lon="12.2625308"><ele>376.0</ele><time>2026-03-29T13:19:54.743Z</time></trkpt><trkpt lat="43.1203097" lon="12.2626689"><ele>373.6</ele><time>2026-03-29T13:19:56.743Z</time></trkpt><trkpt lat="43.1203395" lon="12.262812"><ele>371.20000000000005</ele><time>2026-03-29T13:19:58.743Z</time></trkpt><trkpt lat="43.1204007" lon="12.2629004"><ele>368.79999999999995</ele><time>2026-03-29T13:20:00.743Z</time></trkpt><trkpt lat="43.1204412" lon="12.2629945"><ele>366.4</ele><time>2026-03-29T13:20:02.743Z</time></trkpt><trkpt lat="43.1204825" lon="12.2631242"><ele>364.0</ele><time>2026-03-29T13:20:04.743Z</time></trkpt><trkpt lat="43.1205238" lon="12.2632397"><ele>361.6</ele><time>2026-03-29T13:20:06.743Z</time></trkpt><trkpt lat="43.1205183" lon="12.2633614"><ele>359.2</ele><time>2026-03-29T13:20:08.743Z</time></trkpt><trkpt lat="43.1205657" lon="12.263475"><ele>356.8</ele><time>2026-03-29T13:20:10.743Z</time></trkpt><trkpt lat="43.1206034" lon="12.2635912"><ele>354.40000000000003</ele><time>2026-03-29T13:20:13.743Z</time></trkpt><trkpt lat="43.1205455" lon="12.2636622"><ele>352.0</ele><time>2026-03-29T13:20:15.743Z</time></trkpt><trkpt lat="43.1205022" lon="12.2637829"><ele>352.0</ele><time>2026-03-29T13:20:18.743Z</time></trkpt><trkpt lat="43.1205599" lon="12.2637412"><ele>352.0</ele><time>2026-03-29T13:20:23.742Z</time></trkpt><trkpt lat="43.1206323" lon="12.2637272"><ele>352.0</ele><time>2026-03-29T13:20:24.743Z</time></trkpt><trkpt lat="43.1207286" lon="12.2636943"><ele>352.0</ele><time>2026-03-29T13:20:25.743Z</time></trkpt><trkpt lat="43.1208124" lon="12.2636636"><ele>352.0</ele><time>2026-03-29T13:20:26.743Z</time></trkpt><trkpt lat="43.1208757" lon="12.2636597"><ele>352.0</ele><time>2026-03-29T13:20:27.743Z</time></trkpt><trkpt lat="43.1209575" lon="12.2636738"><ele>350.6</ele><time>2026-03-29T13:20:28.743Z</time></trkpt><trkpt lat="43.1210551" lon="12.2636766"><ele>349.20000000000005</ele><time>2026-03-29T13:20:29.743Z</time></trkpt><trkpt lat="43.1211541" lon="12.2636912"><ele>347.8</ele><time>2026-03-29T13:20:30.743Z</time></trkpt><trkpt lat="43.1212557" lon="12.2637138"><ele>346.4</ele><time>2026-03-29T13:20:31.743Z</time></trkpt><trkpt lat="43.1213798" lon="12.2637194"><ele>345.0</ele><time>2026-03-29T13:20:32.743Z</time></trkpt><trkpt lat="43.1214876" lon="12.2637332"><ele>342.6666666666667</ele><time>2026-03-29T13:20:33.743Z</time></trkpt><trkpt lat="43.1215847" lon="12.2637351"><ele>340.3333333333333</ele><time>2026-03-29T13:20:34.743Z</time></trkpt><trkpt lat="43.1216728" lon="12.2637295"><ele>338.0</ele><time>2026-03-29T13:20:35.742Z</time></trkpt><trkpt lat="43.1217425" lon="12.2637242"><ele>335.66666666666663</ele><time>2026-03-29T13:20:36.743Z</time></trkpt><trkpt lat="43.1218176" lon="12.263729"><ele>333.3333333333333</ele><time>2026-03-29T13:20:37.743Z</time></trkpt><trkpt lat="43.1218875" lon="12.2637365"><ele>331.0</ele><time>2026-03-29T13:20:38.743Z</time></trkpt><trkpt lat="43.1219862" lon="12.2637438"><ele>331.0</ele><time>2026-03-29T13:20:39.743Z</time></trkpt><trkpt lat="43.1220812" lon="12.2637739"><ele>331.0</ele><time>2026-03-29T13:20:40.743Z</time></trkpt><trkpt lat="43.1221565" lon="12.2637843"><ele>331.0</ele><time>2026-03-29T13:20:41.743Z</time></trkpt><trkpt lat="43.1222377" lon="12.2637782"><ele>331.0</ele><time>2026-03-29T13:20:42.743Z</time></trkpt><trkpt lat="43.1223117" lon="12.263773"><ele>331.0</ele><time>2026-03-29T13:20:43.743Z</time></trkpt><trkpt lat="43.1223828" lon="12.2637396"><ele>331.0</ele><time>2026-03-29T13:20:44.743Z</time></trkpt><trkpt lat="43.1224611" lon="12.2637293"><ele>332.16666666666663</ele><time>2026-03-29T13:20:45.743Z</time></trkpt><trkpt lat="43.1225398" lon="12.26371"><ele>333.3333333333333</ele><time>2026-03-29T13:20:46.743Z</time></trkpt><trkpt lat="43.1226831" lon="12.263708"><ele>334.5</ele><time>2026-03-29T13:20:48.743Z</time></trkpt><trkpt lat="43.1227632" lon="12.2637402"><ele>335.6666666666667</ele><time>2026-03-29T13:20:49.743Z</time></trkpt><trkpt lat="43.1228268" lon="12.2637887"><ele>336.83333333333337</ele><time>2026-03-29T13:20:50.743Z</time></trkpt><trkpt lat="43.1228592" lon="12.2638715"><ele>338.0</ele><time>2026-03-29T13:20:51.743Z</time></trkpt><trkpt lat="43.122917" lon="12.2639686"><ele>338.0</ele><time>2026-03-29T13:20:52.743Z</time></trkpt><trkpt lat="43.1229614" lon="12.2640334"><ele>338.0</ele><time>2026-03-29T13:20:53.743Z</time></trkpt><trkpt lat="43.1230126" lon="12.2640842"><ele>338.0</ele><time>2026-03-29T13:20:54.743Z</time></trkpt><trkpt lat="43.1231122" lon="12.2641247"><ele>338.0</ele><time>2026-03-29T13:20:55.743Z</time></trkpt><trkpt lat="43.1231902" lon="12.2642023"><ele>338.0</ele><time>2026-03-29T13:20:56.743Z</time></trkpt><trkpt lat="43.1232844" lon="12.264273"><ele>338.0</ele><time>2026-03-29T13:20:57.743Z</time></trkpt><trkpt lat="43.1233769" lon="12.2643513"><ele>334.2</ele><time>2026-03-29T13:20:58.743Z</time></trkpt><trkpt lat="43.1234679" lon="12.2644189"><ele>330.4</ele><time>2026-03-29T13:20:59.743Z</time></trkpt><trkpt lat="43.1235476" lon="12.2644996"><ele>326.59999999999997</ele><time>2026-03-29T13:21:00.742Z</time></trkpt><trkpt lat="43.1236287" lon="12.2645661"><ele>322.79999999999995</ele><time>2026-03-29T13:21:01.743Z</time></trkpt><trkpt lat="43.1236599" lon="12.2646478"><ele>319.0</ele><time>2026-03-29T13:21:02.743Z</time></trkpt><trkpt lat="43.1236092" lon="12.2647741"><ele>318.8</ele><time>2026-03-29T13:21:04.743Z</time></trkpt><trkpt lat="43.1235922" lon="12.2649007"><ele>318.59999999999997</ele><time>2026-03-29T13:21:06.743Z</time></trkpt><trkpt lat="43.1236608" lon="12.2649479"><ele>318.4</ele><time>2026-03-29T13:21:08.743Z</time></trkpt><trkpt lat="43.1237734" lon="12.2649359"><ele>318.2</ele><time>2026-03-29T13:21:10.743Z</time></trkpt><trkpt lat="43.1238567" lon="12.2649401"><ele>318.0</ele><time>2026-03-29T13:21:11.743Z</time></trkpt><trkpt lat="43.1239638" lon="12.2648802"><ele>318.0</ele><time>2026-03-29T13:21:12.743Z</time></trkpt><trkpt lat="43.1240478" lon="12.2648559"><ele>318.0</ele><time>2026-03-29T13:21:13.743Z</time></trkpt><trkpt lat="43.1241316" lon="12.2648353"><ele>318.0</ele><time>2026-03-29T13:21:14.743Z</time></trkpt><trkpt lat="43.1242212" lon="12.2648265"><ele>318.0</ele><time>2026-03-29T13:21:15.743Z</time></trkpt><trkpt lat="43.1242962" lon="12.2648294"><ele>318.0</ele><time>2026-03-29T13:21:16.743Z</time></trkpt><trkpt lat="43.1243716" lon="12.2648476"><ele>318.0</ele><time>2026-03-29T13:21:17.743Z</time></trkpt><trkpt lat="43.1244486" lon="12.2648862"><ele>315.0</ele><time>2026-03-29T13:21:18.743Z</time></trkpt><trkpt lat="43.1245326" lon="12.2649251"><ele>312.0</ele><time>2026-03-29T13:21:19.743Z</time></trkpt><trkpt lat="43.1246166" lon="12.2649747"><ele>309.0</ele><time>2026-03-29T13:21:20.743Z</time></trkpt><trkpt lat="43.1247069" lon="12.2650113"><ele>306.0</ele><time>2026-03-29T13:21:21.743Z</time></trkpt><trkpt lat="43.1248015" lon="12.2650593"><ele>303.0</ele><time>2026-03-29T13:21:22.743Z</time></trkpt><trkpt lat="43.1248947" lon="12.2650994"><ele>302.5</ele><time>2026-03-29T13:21:23.743Z</time></trkpt><trkpt lat="43.1249894" lon="12.2651668"><ele>302.0</ele><time>2026-03-29T13:21:24.743Z</time></trkpt><trkpt lat="43.1250961" lon="12.2652063"><ele>301.5</ele><time>2026-03-29T13:21:25.743Z</time></trkpt><trkpt lat="43.1252064" lon="12.2652606"><ele>301.0</ele><time>2026-03-29T13:21:26.743Z</time></trkpt><trkpt lat="43.1253249" lon="12.2653035"><ele>301.0</ele><time>2026-03-29T13:21:27.743Z</time></trkpt><trkpt lat="43.1254516" lon="12.2653537"><ele>301.0</ele><time>2026-03-29T13:21:28.743Z</time></trkpt><trkpt lat="43.1255739" lon="12.2653964"><ele>301.0</ele><time>2026-03-29T13:21:29.743Z</time></trkpt><trkpt lat="43.1256958" lon="12.2654431"><ele>301.0</ele><time>2026-03-29T13:21:30.743Z</time></trkpt><trkpt lat="43.1258238" lon="12.2654806"><ele>300.5</ele><time>2026-03-29T13:21:31.743Z</time></trkpt><trkpt lat="43.1259598" lon="12.2655187"><ele>300.0</ele><time>2026-03-29T13:21:32.742Z</time></trkpt><trkpt lat="43.1260938" lon="12.2655392"><ele>299.5</ele><time>2026-03-29T13:21:33.743Z</time></trkpt><trkpt lat="43.1262301" lon="12.2655737"><ele>299.0</ele><time>2026-03-29T13:21:34.743Z</time></trkpt><trkpt lat="43.1263661" lon="12.2656103"><ele>296.25</ele><time>2026-03-29T13:21:35.743Z</time></trkpt><trkpt lat="43.1264951" lon="12.265668"><ele>293.5</ele><time>2026-03-29T13:21:36.743Z</time></trkpt><trkpt lat="43.1266223" lon="12.2657044"><ele>290.75</ele><time>2026-03-29T13:21:37.743Z</time></trkpt><trkpt lat="43.1267373" lon="12.2657367"><ele>288.0</ele><time>2026-03-29T13:21:38.743Z</time></trkpt><trkpt lat="43.1268452" lon="12.2657736"><ele>288.0</ele><time>2026-03-29T13:21:39.743Z</time></trkpt><trkpt lat="43.1269492" lon="12.2658013"><ele>288.0</ele><time>2026-03-29T13:21:40.743Z</time></trkpt><trkpt lat="43.127057" lon="12.265837"><ele>288.0</ele><time>2026-03-29T13:21:41.743Z</time></trkpt><trkpt lat="43.1271794" lon="12.2658789"><ele>288.0</ele><time>2026-03-29T13:21:42.743Z</time></trkpt><trkpt lat="43.1273016" lon="12.265917"><ele>287.5</ele><time>2026-03-29T13:21:43.743Z</time></trkpt><trkpt lat="43.1274211" lon="12.2659553"><ele>287.0</ele><time>2026-03-29T13:21:44.743Z</time></trkpt><trkpt lat="43.1275406" lon="12.2659873"><ele>286.5</ele><time>2026-03-29T13:21:45.743Z</time></trkpt><trkpt lat="43.1276582" lon="12.2660011"><ele>286.0</ele><time>2026-03-29T13:21:46.742Z</time></trkpt><trkpt lat="43.127774" lon="12.2660096"><ele>286.0</ele><time>2026-03-29T13:21:47.743Z</time></trkpt><trkpt lat="43.1278947" lon="12.2660022"><ele>286.0</ele><time>2026-03-29T13:21:48.743Z</time></trkpt><trkpt lat="43.1280252" lon="12.2659829"><ele>286.0</ele><time>2026-03-29T13:21:49.743Z</time></trkpt><trkpt lat="43.1281537" lon="12.2659615"><ele>286.0</ele><time>2026-03-29T13:21:50.743Z</time></trkpt><trkpt lat="43.1282868" lon="12.2659325"><ele>284.0</ele><time>2026-03-29T13:21:51.743Z</time></trkpt><trkpt lat="43.1284227" lon="12.2658882"><ele>282.0</ele><time>2026-03-29T13:21:52.743Z</time></trkpt><trkpt lat="43.128536" lon="12.2658332"><ele>280.0</ele><time>2026-03-29T13:21:53.743Z</time></trkpt><trkpt lat="43.1286505" lon="12.2657729"><ele>278.0</ele><time>2026-03-29T13:21:54.743Z</time></trkpt><trkpt lat="43.1287636" lon="12.265715"><ele>278.0</ele><time>2026-03-29T13:21:55.743Z</time></trkpt><trkpt lat="43.1288753" lon="12.2656536"><ele>278.0</ele><time>2026-03-29T13:21:56.742Z</time></trkpt><trkpt lat="43.1289959" lon="12.265613"><ele>278.0</ele><time>2026-03-29T13:21:57.743Z</time></trkpt><trkpt lat="43.1291226" lon="12.2655615"><ele>278.0</ele><time>2026-03-29T13:21:58.743Z</time></trkpt><trkpt lat="43.1292309" lon="12.2655135"><ele>277.2</ele><time>2026-03-29T13:21:59.743Z</time></trkpt><trkpt lat="43.1293425" lon="12.2654587"><ele>276.4</ele><time>2026-03-29T13:22:00.743Z</time></trkpt><trkpt lat="43.1294358" lon="12.2653853"><ele>275.59999999999997</ele><time>2026-03-29T13:22:01.743Z</time></trkpt><trkpt lat="43.1295283" lon="12.2653015"><ele>274.8</ele><time>2026-03-29T13:22:02.743Z</time></trkpt><trkpt lat="43.1296132" lon="12.2652085"><ele>274.0</ele><time>2026-03-29T13:22:03.743Z</time></trkpt><trkpt lat="43.1296915" lon="12.2651067"><ele>274.0</ele><time>2026-03-29T13:22:04.743Z</time></trkpt><trkpt lat="43.1297384" lon="12.2649849"><ele>274.0</ele><time>2026-03-29T13:22:05.743Z</time></trkpt><trkpt lat="43.1297624" lon="12.264833"><ele>274.0</ele><time>2026-03-29T13:22:06.743Z</time></trkpt><trkpt lat="43.1297893" lon="12.264674"><ele>274.0</ele><time>2026-03-29T13:22:07.743Z</time></trkpt><trkpt lat="43.1298103" lon="12.2645131"><ele>273.59999999999997</ele><time>2026-03-29T13:22:08.743Z</time></trkpt><trkpt lat="43.1298279" lon="12.2643536"><ele>273.2</ele><time>2026-03-29T13:22:09.743Z</time></trkpt><trkpt lat="43.1298302" lon="12.2641974"><ele>272.79999999999995</ele><time>2026-03-29T13:22:10.743Z</time></trkpt><trkpt lat="43.1298132" lon="12.2640638"><ele>272.4</ele><time>2026-03-29T13:22:11.743Z</time></trkpt><trkpt lat="43.1298014" lon="12.2639515"><ele>272.0</ele><time>2026-03-29T13:22:12.743Z</time></trkpt><trkpt lat="43.1297961" lon="12.2638429"><ele>270.2</ele><time>2026-03-29T13:22:13.743Z</time></trkpt><trkpt lat="43.1298677" lon="12.2637465"><ele>268.4</ele><time>2026-03-29T13:22:15.743Z</time></trkpt><trkpt lat="43.129938" lon="12.2638035"><ele>266.6</ele><time>2026-03-29T13:22:16.743Z</time></trkpt><trkpt lat="43.1300669" lon="12.2638619"><ele>264.8</ele><time>2026-03-29T13:22:17.743Z</time></trkpt><trkpt lat="43.1301476" lon="12.2639363"><ele>263.0</ele><time>2026-03-29T13:22:18.743Z</time></trkpt><trkpt lat="43.1302405" lon="12.2639864"><ele>263.0</ele><time>2026-03-29T13:22:19.743Z</time></trkpt><trkpt lat="43.1303041" lon="12.2640605"><ele>263.0</ele><time>2026-03-29T13:22:20.743Z</time></trkpt><trkpt lat="43.130385" lon="12.2641244"><ele>263.0</ele><time>2026-03-29T13:22:21.743Z</time></trkpt><trkpt lat="43.1304717" lon="12.2641885"><ele>263.0</ele><time>2026-03-29T13:22:22.743Z</time></trkpt><trkpt lat="43.1305573" lon="12.2642231"><ele>263.0</ele><time>2026-03-29T13:22:23.743Z</time></trkpt><trkpt lat="43.1306553" lon="12.2642086"><ele>260.6</ele><time>2026-03-29T13:22:24.743Z</time></trkpt><trkpt lat="43.130751" lon="12.2641789"><ele>258.20000000000005</ele><time>2026-03-29T13:22:25.743Z</time></trkpt><trkpt lat="43.1308507" lon="12.2641464"><ele>255.8</ele><time>2026-03-29T13:22:26.743Z</time></trkpt><trkpt lat="43.130951" lon="12.264114"><ele>253.4</ele><time>2026-03-29T13:22:27.743Z</time></trkpt><trkpt lat="43.1310547" lon="12.2640782"><ele>251.0</ele><time>2026-03-29T13:22:28.743Z</time></trkpt><trkpt lat="43.1311619" lon="12.2640368"><ele>251.0</ele><time>2026-03-29T13:22:29.743Z</time></trkpt><trkpt lat="43.1312706" lon="12.263998"><ele>251.00000000000003</ele><time>2026-03-29T13:22:30.743Z</time></trkpt><trkpt lat="43.1313725" lon="12.263956"><ele>251.00000000000003</ele><time>2026-03-29T13:22:31.743Z</time></trkpt><trkpt lat="43.1314659" lon="12.2639102"><ele>251.0</ele><time>2026-03-29T13:22:32.743Z</time></trkpt><trkpt lat="43.131546" lon="12.2638658"><ele>251.0</ele><time>2026-03-29T13:22:33.743Z</time></trkpt><trkpt lat="43.1316578" lon="12.2638535"><ele>249.1428571428571</ele><time>2026-03-29T13:22:35.743Z</time></trkpt><trkpt lat="43.1317138" lon="12.2638996"><ele>247.28571428571428</ele><time>2026-03-29T13:22:39.743Z</time></trkpt><trkpt lat="43.1317995" lon="12.2638978"><ele>245.42857142857142</ele><time>2026-03-29T13:22:43.743Z</time></trkpt><trkpt lat="43.1318569" lon="12.2638292"><ele>243.57142857142856</ele><time>2026-03-29T13:22:45.743Z</time></trkpt><trkpt lat="43.1318875" lon="12.2637338"><ele>241.71428571428572</ele><time>2026-03-29T13:22:48.743Z</time></trkpt><trkpt lat="43.1318968" lon="12.2636444"><ele>239.85714285714286</ele><time>2026-03-29T13:22:51.743Z</time></trkpt><trkpt lat="43.1319296" lon="12.263546"><ele>238.0</ele><time>2026-03-29T13:22:53.743Z</time></trkpt><trkpt lat="43.131995" lon="12.2634167"><ele>238.0</ele><time>2026-03-29T13:22:55.743Z</time></trkpt><trkpt lat="43.1320273" lon="12.2633195"><ele>238.0</ele><time>2026-03-29T13:22:56.743Z</time></trkpt><trkpt lat="43.1320628" lon="12.2632065"><ele>238.0</ele><time>2026-03-29T13:22:57.743Z</time></trkpt><trkpt lat="43.1320958" lon="12.2630917"><ele>238.0</ele><time>2026-03-29T13:22:58.743Z</time></trkpt><trkpt lat="43.1321251" lon="12.2629689"><ele>238.0</ele><time>2026-03-29T13:22:59.743Z</time></trkpt><trkpt lat="43.132159" lon="12.2628367"><ele>237.66666666666666</ele><time>2026-03-29T13:23:00.743Z</time></trkpt><trkpt lat="43.1321906" lon="12.2627116"><ele>237.33333333333331</ele><time>2026-03-29T13:23:01.743Z</time></trkpt><trkpt lat="43.1322188" lon="12.2625915"><ele>237.0</ele><time>2026-03-29T13:23:02.743Z</time></trkpt><trkpt lat="43.1322487" lon="12.262481"><ele>236.66666666666669</ele><time>2026-03-29T13:23:03.743Z</time></trkpt><trkpt lat="43.132286" lon="12.2623891"><ele>236.33333333333334</ele><time>2026-03-29T13:23:04.742Z</time></trkpt><trkpt lat="43.1323391" lon="12.2623042"><ele>236.0</ele><time>2026-03-29T13:23:05.743Z</time></trkpt><trkpt lat="43.132401" lon="12.2622363"><ele>235.66666666666669</ele><time>2026-03-29T13:23:06.743Z</time></trkpt><trkpt lat="43.1324702" lon="12.2621756"><ele>235.33333333333334</ele><time>2026-03-29T13:23:07.743Z</time></trkpt><trkpt lat="43.1325503" lon="12.2621247"><ele>235.0</ele><time>2026-03-29T13:23:08.743Z</time></trkpt><trkpt lat="43.1326366" lon="12.2621033"><ele>234.66666666666669</ele><time>2026-03-29T13:23:09.743Z</time></trkpt><trkpt lat="43.1327236" lon="12.2621097"><ele>234.33333333333334</ele><time>2026-03-29T13:23:10.743Z</time></trkpt><trkpt lat="43.1328069" lon="12.2621504"><ele>234.0</ele><time>2026-03-29T13:23:11.743Z</time></trkpt><trkpt lat="43.1328891" lon="12.2622202"><ele>234.39999999999998</ele><time>2026-03-29T13:23:12.743Z</time></trkpt><trkpt lat="43.1329735" lon="12.2622885"><ele>234.79999999999998</ele><time>2026-03-29T13:23:13.743Z</time></trkpt><trkpt lat="43.1330563" lon="12.2623631"><ele>235.20000000000002</ele><time>2026-03-29T13:23:14.743Z</time></trkpt><trkpt lat="43.1331346" lon="12.2624586"><ele>235.60000000000002</ele><time>2026-03-29T13:23:15.743Z</time></trkpt><trkpt lat="43.1332297" lon="12.262563"><ele>236.0</ele><time>2026-03-29T13:23:16.743Z</time></trkpt><trkpt lat="43.1333271" lon="12.2626721"><ele>236.0</ele><time>2026-03-29T13:23:17.743Z</time></trkpt><trkpt lat="43.133418" lon="12.2627607"><ele>236.0</ele><time>2026-03-29T13:23:18.743Z</time></trkpt><trkpt lat="43.1335169" lon="12.2628545"><ele>236.0</ele><time>2026-03-29T13:23:19.743Z</time></trkpt><trkpt lat="43.1336213" lon="12.262946"><ele>236.0</ele><time>2026-03-29T13:23:20.743Z</time></trkpt><trkpt lat="43.1337269" lon="12.2630363"><ele>235.75</ele><time>2026-03-29T13:23:21.743Z</time></trkpt><trkpt lat="43.1338391" lon="12.2631238"><ele>235.5</ele><time>2026-03-29T13:23:22.743Z</time></trkpt><trkpt lat="43.1339551" lon="12.2632064"><ele>235.25</ele><time>2026-03-29T13:23:23.743Z</time></trkpt><trkpt lat="43.1340729" lon="12.2632882"><ele>235.0</ele><time>2026-03-29T13:23:24.743Z</time></trkpt><trkpt lat="43.1341935" lon="12.2633665"><ele>235.0</ele><time>2026-03-29T13:23:25.743Z</time></trkpt><trkpt lat="43.1343214" lon="12.2634255"><ele>235.0</ele><time>2026-03-29T13:23:26.743Z</time></trkpt><trkpt lat="43.1344562" lon="12.2634799"><ele>235.0</ele><time>2026-03-29T13:23:27.743Z</time></trkpt><trkpt lat="43.1345916" lon="12.2635209"><ele>235.0</ele><time>2026-03-29T13:23:28.743Z</time></trkpt><trkpt lat="43.1347242" lon="12.2635523"><ele>235.0</ele><time>2026-03-29T13:23:29.743Z</time></trkpt><trkpt lat="43.1348591" lon="12.2635663"><ele>235.0</ele><time>2026-03-29T13:23:30.743Z</time></trkpt><trkpt lat="43.1349779" lon="12.263578"><ele>235.0</ele><time>2026-03-29T13:23:31.743Z</time></trkpt><trkpt lat="43.1350943" lon="12.263599"><ele>235.0</ele><time>2026-03-29T13:23:32.742Z</time></trkpt><trkpt lat="43.1352141" lon="12.2636273"><ele>234.75</ele><time>2026-03-29T13:23:33.743Z</time></trkpt><trkpt lat="43.1353391" lon="12.2636568"><ele>234.5</ele><time>2026-03-29T13:23:34.742Z</time></trkpt><trkpt lat="43.1354609" lon="12.2636957"><ele>234.25</ele><time>2026-03-29T13:23:35.743Z</time></trkpt><trkpt lat="43.135572" lon="12.2637653"><ele>234.0</ele><time>2026-03-29T13:23:36.742Z</time></trkpt><trkpt lat="43.1356596" lon="12.2638683"><ele>233.75</ele><time>2026-03-29T13:23:37.743Z</time></trkpt><trkpt lat="43.1357383" lon="12.2640084"><ele>233.5</ele><time>2026-03-29T13:23:38.743Z</time></trkpt><trkpt lat="43.1358173" lon="12.2641641"><ele>233.25</ele><time>2026-03-29T13:23:39.743Z</time></trkpt><trkpt lat="43.1359044" lon="12.2643381"><ele>233.0</ele><time>2026-03-29T13:23:40.743Z</time></trkpt><trkpt lat="43.1359922" lon="12.2645087"><ele>233.0</ele><time>2026-03-29T13:23:41.743Z</time></trkpt><trkpt lat="43.1360787" lon="12.2646851"><ele>233.0</ele><time>2026-03-29T13:23:42.743Z</time></trkpt><trkpt lat="43.136165" lon="12.2648597"><ele>233.0</ele><time>2026-03-29T13:23:43.743Z</time></trkpt><trkpt lat="43.136255" lon="12.265029"><ele>234.0</ele><time>2026-03-29T13:23:44.743Z</time></trkpt><trkpt lat="43.1363441" lon="12.2652058"><ele>235.0</ele><time>2026-03-29T13:23:45.743Z</time></trkpt><trkpt lat="43.1364309" lon="12.2653737"><ele>236.0</ele><time>2026-03-29T13:23:46.743Z</time></trkpt><trkpt lat="43.1365188" lon="12.2655471"><ele>235.33333333333334</ele><time>2026-03-29T13:23:47.743Z</time></trkpt><trkpt lat="43.1366042" lon="12.2657117"><ele>234.66666666666669</ele><time>2026-03-29T13:23:48.743Z</time></trkpt><trkpt lat="43.1366921" lon="12.2658813"><ele>234.0</ele><time>2026-03-29T13:23:49.743Z</time></trkpt><trkpt lat="43.1367834" lon="12.2660479"><ele>234.0</ele><time>2026-03-29T13:23:50.742Z</time></trkpt><trkpt lat="43.1368748" lon="12.2662196"><ele>234.0</ele><time>2026-03-29T13:23:51.743Z</time></trkpt><trkpt lat="43.1369629" lon="12.2663902"><ele>234.0</ele><time>2026-03-29T13:23:52.743Z</time></trkpt><trkpt lat="43.1370516" lon="12.266553"><ele>234.0</ele><time>2026-03-29T13:23:53.743Z</time></trkpt><trkpt lat="43.1371329" lon="12.2667256"><ele>234.0</ele><time>2026-03-29T13:23:54.743Z</time></trkpt><trkpt lat="43.1372192" lon="12.2668924"><ele>234.0</ele><time>2026-03-29T13:23:55.743Z</time></trkpt><trkpt lat="43.1373035" lon="12.2670609"><ele>234.0</ele><time>2026-03-29T13:23:56.743Z</time></trkpt><trkpt lat="43.1373925" lon="12.267224"><ele>234.75</ele><time>2026-03-29T13:23:57.743Z</time></trkpt><trkpt lat="43.1374796" lon="12.2673916"><ele>235.5</ele><time>2026-03-29T13:23:58.743Z</time></trkpt><trkpt lat="43.1375648" lon="12.2675532"><ele>236.25</ele><time>2026-03-29T13:23:59.743Z</time></trkpt><trkpt lat="43.1376504" lon="12.2677175"><ele>237.0</ele><time>2026-03-29T13:24:00.743Z</time></trkpt><trkpt lat="43.137733" lon="12.2678816"><ele>237.0</ele><time>2026-03-29T13:24:01.743Z</time></trkpt><trkpt lat="43.1378172" lon="12.2680415"><ele>237.0</ele><time>2026-03-29T13:24:02.743Z</time></trkpt><trkpt lat="43.1379093" lon="12.2682073"><ele>237.0</ele><time>2026-03-29T13:24:03.743Z</time></trkpt><trkpt lat="43.1380005" lon="12.2683707"><ele>237.0</ele><time>2026-03-29T13:24:04.743Z</time></trkpt><trkpt lat="43.1380985" lon="12.2685356"><ele>236.66666666666669</ele><time>2026-03-29T13:24:05.743Z</time></trkpt><trkpt lat="43.1382062" lon="12.2686873"><ele>236.33333333333334</ele><time>2026-03-29T13:24:06.743Z</time></trkpt><trkpt lat="43.1383152" lon="12.2688331"><ele>236.0</ele><time>2026-03-29T13:24:07.743Z</time></trkpt><trkpt lat="43.138427" lon="12.2689765"><ele>236.0</ele><time>2026-03-29T13:24:08.743Z</time></trkpt><trkpt lat="43.138547" lon="12.2691281"><ele>236.0</ele><time>2026-03-29T13:24:09.743Z</time></trkpt><trkpt lat="43.1386659" lon="12.269268"><ele>236.0</ele><time>2026-03-29T13:24:10.743Z</time></trkpt><trkpt lat="43.1387826" lon="12.2693948"><ele>236.0</ele><time>2026-03-29T13:24:11.743Z</time></trkpt><trkpt lat="43.1388934" lon="12.269513"><ele>236.0</ele><time>2026-03-29T13:24:12.743Z</time></trkpt><trkpt lat="43.1389944" lon="12.2696232"><ele>236.0</ele><time>2026-03-29T13:24:13.743Z</time></trkpt><trkpt lat="43.1390963" lon="12.2697205"><ele>236.0</ele><time>2026-03-29T13:24:14.743Z</time></trkpt><trkpt lat="43.1392102" lon="12.2698168"><ele>236.25</ele><time>2026-03-29T13:24:15.743Z</time></trkpt><trkpt lat="43.1393209" lon="12.2699197"><ele>236.5</ele><time>2026-03-29T13:24:16.743Z</time></trkpt><trkpt lat="43.1394282" lon="12.2700252"><ele>236.75</ele><time>2026-03-29T13:24:17.743Z</time></trkpt><trkpt lat="43.1395276" lon="12.2701363"><ele>237.0</ele><time>2026-03-29T13:24:18.743Z</time></trkpt><trkpt lat="43.1396232" lon="12.2702337"><ele>237.0</ele><time>2026-03-29T13:24:19.743Z</time></trkpt><trkpt lat="43.1397052" lon="12.2703202"><ele>237.0</ele><time>2026-03-29T13:24:20.743Z</time></trkpt><trkpt lat="43.1397655" lon="12.2703822"><ele>237.0</ele><time>2026-03-29T13:24:21.743Z</time></trkpt><trkpt lat="43.1398321" lon="12.2704388"><ele>237.0</ele><time>2026-03-29T13:24:23.743Z</time></trkpt><trkpt lat="43.139934" lon="12.2704041"><ele>237.0</ele><time>2026-03-29T13:24:26.743Z</time></trkpt><trkpt lat="43.1399759" lon="12.2703335"><ele>237.0</ele><time>2026-03-29T13:24:27.743Z</time></trkpt><trkpt lat="43.1400152" lon="12.2702362"><ele>237.2</ele><time>2026-03-29T13:24:28.743Z</time></trkpt><trkpt lat="43.1400583" lon="12.270125"><ele>237.39999999999998</ele><time>2026-03-29T13:24:29.742Z</time></trkpt><trkpt lat="43.1401112" lon="12.2699981"><ele>237.60000000000002</ele><time>2026-03-29T13:24:30.743Z</time></trkpt><trkpt lat="43.1401673" lon="12.2698629"><ele>237.8</ele><time>2026-03-29T13:24:31.743Z</time></trkpt><trkpt lat="43.1402367" lon="12.2697222"><ele>238.0</ele><time>2026-03-29T13:24:32.743Z</time></trkpt><trkpt lat="43.1403111" lon="12.2695816"><ele>238.0</ele><time>2026-03-29T13:24:33.743Z</time></trkpt><trkpt lat="43.1403892" lon="12.2694365"><ele>238.0</ele><time>2026-03-29T13:24:34.742Z</time></trkpt><trkpt lat="43.1404682" lon="12.2692764"><ele>238.0</ele><time>2026-03-29T13:24:35.743Z</time></trkpt><trkpt lat="43.140552" lon="12.2690993"><ele>238.0</ele><time>2026-03-29T13:24:36.743Z</time></trkpt><trkpt lat="43.1406296" lon="12.2689224"><ele>238.0</ele><time>2026-03-29T13:24:37.743Z</time></trkpt><trkpt lat="43.1407167" lon="12.2687471"><ele>238.0</ele><time>2026-03-29T13:24:38.743Z</time></trkpt><trkpt lat="43.1408195" lon="12.2685891"><ele>238.0</ele><time>2026-03-29T13:24:39.743Z</time></trkpt><trkpt lat="43.1409331" lon="12.2684424"><ele>238.0</ele><time>2026-03-29T13:24:40.743Z</time></trkpt><trkpt lat="43.141047" lon="12.2683092"><ele>238.0</ele><time>2026-03-29T13:24:41.743Z</time></trkpt><trkpt lat="43.1411539" lon="12.2681843"><ele>238.0</ele><time>2026-03-29T13:24:42.743Z</time></trkpt><trkpt lat="43.1412587" lon="12.2680504"><ele>238.0</ele><time>2026-03-29T13:24:43.743Z</time></trkpt><trkpt lat="43.1413639" lon="12.2679083"><ele>238.33333333333331</ele><time>2026-03-29T13:24:44.743Z</time></trkpt><trkpt lat="43.1414718" lon="12.2677556"><ele>238.66666666666669</ele><time>2026-03-29T13:24:45.743Z</time></trkpt><trkpt lat="43.1415887" lon="12.267605"><ele>239.0</ele><time>2026-03-29T13:24:46.743Z</time></trkpt><trkpt lat="43.1417135" lon="12.2674399"><ele>239.0</ele><time>2026-03-29T13:24:47.743Z</time></trkpt><trkpt lat="43.1418294" lon="12.2672779"><ele>239.0</ele><time>2026-03-29T13:24:48.743Z</time></trkpt><trkpt lat="43.1419389" lon="12.2671353"><ele>239.0</ele><time>2026-03-29T13:24:49.743Z</time></trkpt><trkpt lat="43.1420346" lon="12.2670117"><ele>239.0</ele><time>2026-03-29T13:24:50.743Z</time></trkpt><trkpt lat="43.1421198" lon="12.2669143"><ele>238.79999999999998</ele><time>2026-03-29T13:24:51.742Z</time></trkpt><trkpt lat="43.1422039" lon="12.2668752"><ele>238.59999999999997</ele><time>2026-03-29T13:24:52.743Z</time></trkpt><trkpt lat="43.1422939" lon="12.2668726"><ele>238.4</ele><time>2026-03-29T13:24:53.743Z</time></trkpt><trkpt lat="43.1423931" lon="12.2669001"><ele>238.2</ele><time>2026-03-29T13:24:54.743Z</time></trkpt><trkpt lat="43.1425095" lon="12.2669257"><ele>238.0</ele><time>2026-03-29T13:24:55.742Z</time></trkpt><trkpt lat="43.1426333" lon="12.2669539"><ele>238.75</ele><time>2026-03-29T13:24:56.743Z</time></trkpt><trkpt lat="43.1427759" lon="12.266976"><ele>239.5</ele><time>2026-03-29T13:24:57.743Z</time></trkpt><trkpt lat="43.1429183" lon="12.2669921"><ele>240.25</ele><time>2026-03-29T13:24:58.743Z</time></trkpt><trkpt lat="43.1430532" lon="12.2670035"><ele>241.0</ele><time>2026-03-29T13:24:59.743Z</time></trkpt><trkpt lat="43.1431728" lon="12.2669797"><ele>241.25</ele><time>2026-03-29T13:25:00.742Z</time></trkpt><trkpt lat="43.1432911" lon="12.2669755"><ele>241.5</ele><time>2026-03-29T13:25:01.743Z</time></trkpt><trkpt lat="43.1434044" lon="12.2670172"><ele>241.75</ele><time>2026-03-29T13:25:02.743Z</time></trkpt><trkpt lat="43.1435178" lon="12.2671044"><ele>242.0</ele><time>2026-03-29T13:25:03.743Z</time></trkpt><trkpt lat="43.1436267" lon="12.2672281"><ele>241.33333333333334</ele><time>2026-03-29T13:25:04.743Z</time></trkpt><trkpt lat="43.1437419" lon="12.2673835"><ele>240.66666666666669</ele><time>2026-03-29T13:25:05.743Z</time></trkpt><trkpt lat="43.1438569" lon="12.2675447"><ele>240.0</ele><time>2026-03-29T13:25:06.742Z</time></trkpt><trkpt lat="43.1439773" lon="12.2677105"><ele>239.66666666666669</ele><time>2026-03-29T13:25:07.743Z</time></trkpt><trkpt lat="43.144098" lon="12.2678793"><ele>239.33333333333334</ele><time>2026-03-29T13:25:08.743Z</time></trkpt><trkpt lat="43.144225" lon="12.268026"><ele>239.0</ele><time>2026-03-29T13:25:09.743Z</time></trkpt><trkpt lat="43.1443704" lon="12.268148"><ele>239.0</ele><time>2026-03-29T13:25:10.743Z</time></trkpt><trkpt lat="43.1445254" lon="12.2682602"><ele>239.0</ele><time>2026-03-29T13:25:11.743Z</time></trkpt><trkpt lat="43.1446818" lon="12.2683834"><ele>239.0</ele><time>2026-03-29T13:25:12.743Z</time></trkpt><trkpt lat="43.1448212" lon="12.2685346"><ele>239.66666666666669</ele><time>2026-03-29T13:25:13.743Z</time></trkpt><trkpt lat="43.1449613" lon="12.2686824"><ele>240.33333333333331</ele><time>2026-03-29T13:25:14.743Z</time></trkpt><trkpt lat="43.1450834" lon="12.268825"><ele>241.0</ele><time>2026-03-29T13:25:15.743Z</time></trkpt><trkpt lat="43.1451874" lon="12.268971"><ele>241.25</ele><time>2026-03-29T13:25:16.743Z</time></trkpt><trkpt lat="43.1452658" lon="12.2691352"><ele>241.5</ele><time>2026-03-29T13:25:17.743Z</time></trkpt><trkpt lat="43.1453158" lon="12.2693023"><ele>241.75</ele><time>2026-03-29T13:25:18.743Z</time></trkpt><trkpt lat="43.1453461" lon="12.2694806"><ele>242.0</ele><time>2026-03-29T13:25:19.743Z</time></trkpt><trkpt lat="43.1453467" lon="12.2696689"><ele>242.66666666666669</ele><time>2026-03-29T13:25:20.743Z</time></trkpt><trkpt lat="43.1453353" lon="12.2698811"><ele>243.33333333333331</ele><time>2026-03-29T13:25:21.743Z</time></trkpt><trkpt lat="43.1453293" lon="12.2700904"><ele>244.0</ele><time>2026-03-29T13:25:22.743Z</time></trkpt><trkpt lat="43.1453218" lon="12.2702926"><ele>244.0</ele><time>2026-03-29T13:25:23.743Z</time></trkpt><trkpt lat="43.1453178" lon="12.2704812"><ele>244.0</ele><time>2026-03-29T13:25:24.743Z</time></trkpt><trkpt lat="43.1453022" lon="12.2706589"><ele>244.0</ele><time>2026-03-29T13:25:25.743Z</time></trkpt><trkpt lat="43.1452683" lon="12.2707932"><ele>244.0</ele><time>2026-03-29T13:25:26.743Z</time></trkpt><trkpt lat="43.1452097" lon="12.2709378"><ele>244.75</ele><time>2026-03-29T13:25:27.743Z</time></trkpt><trkpt lat="43.1451497" lon="12.2710929"><ele>245.5</ele><time>2026-03-29T13:25:28.743Z</time></trkpt><trkpt lat="43.1450809" lon="12.2712586"><ele>246.25</ele><time>2026-03-29T13:25:29.743Z</time></trkpt><trkpt lat="43.1450179" lon="12.2714047"><ele>247.0</ele><time>2026-03-29T13:25:30.743Z</time></trkpt><trkpt lat="43.1449648" lon="12.2715592"><ele>247.75</ele><time>2026-03-29T13:25:31.743Z</time></trkpt><trkpt lat="43.1449418" lon="12.271709"><ele>248.5</ele><time>2026-03-29T13:25:32.743Z</time></trkpt><trkpt lat="43.1449426" lon="12.2718679"><ele>249.25</ele><time>2026-03-29T13:25:33.743Z</time></trkpt><trkpt lat="43.1449453" lon="12.2720467"><ele>250.0</ele><time>2026-03-29T13:25:34.743Z</time></trkpt><trkpt lat="43.144946" lon="12.2722345"><ele>250.25</ele><time>2026-03-29T13:25:35.742Z</time></trkpt><trkpt lat="43.1449486" lon="12.2724218"><ele>250.5</ele><time>2026-03-29T13:25:36.743Z</time></trkpt><trkpt lat="43.1449551" lon="12.2726004"><ele>250.75</ele><time>2026-03-29T13:25:37.743Z</time></trkpt><trkpt lat="43.1449642" lon="12.2727892"><ele>251.0</ele><time>2026-03-29T13:25:38.743Z</time></trkpt><trkpt lat="43.1449839" lon="12.2729567"><ele>250.25</ele><time>2026-03-29T13:25:39.743Z</time></trkpt><trkpt lat="43.1449934" lon="12.2731343"><ele>249.5</ele><time>2026-03-29T13:25:40.743Z</time></trkpt><trkpt lat="43.1450114" lon="12.273314"><ele>248.75</ele><time>2026-03-29T13:25:41.743Z</time></trkpt><trkpt lat="43.1450333" lon="12.2734811"><ele>248.0</ele><time>2026-03-29T13:25:42.743Z</time></trkpt><trkpt lat="43.1450478" lon="12.2736417"><ele>248.0</ele><time>2026-03-29T13:25:43.743Z</time></trkpt><trkpt lat="43.1450638" lon="12.2737894"><ele>248.0</ele><time>2026-03-29T13:25:44.743Z</time></trkpt><trkpt lat="43.145081" lon="12.2739277"><ele>248.0</ele><time>2026-03-29T13:25:45.742Z</time></trkpt><trkpt lat="43.1450953" lon="12.2740582"><ele>248.0</ele><time>2026-03-29T13:25:46.743Z</time></trkpt><trkpt lat="43.1451219" lon="12.2741672"><ele>248.0</ele><time>2026-03-29T13:25:47.743Z</time></trkpt><trkpt lat="43.1451599" lon="12.274258"><ele>247.33333333333334</ele><time>2026-03-29T13:25:48.743Z</time></trkpt><trkpt lat="43.1452205" lon="12.2743847"><ele>246.66666666666669</ele><time>2026-03-29T13:25:50.743Z</time></trkpt><trkpt lat="43.1452936" lon="12.2745224"><ele>246.0</ele><time>2026-03-29T13:25:52.743Z</time></trkpt><trkpt lat="43.1453406" lon="12.274584"><ele>245.33333333333331</ele><time>2026-03-29T13:25:53.743Z</time></trkpt><trkpt lat="43.1453938" lon="12.2746355"><ele>244.66666666666666</ele><time>2026-03-29T13:25:54.743Z</time></trkpt><trkpt lat="43.1454571" lon="12.2746875"><ele>244.0</ele><time>2026-03-29T13:25:55.743Z</time></trkpt><trkpt lat="43.145531" lon="12.2747326"><ele>243.83333333333331</ele><time>2026-03-29T13:25:56.743Z</time></trkpt><trkpt lat="43.1456225" lon="12.2747779"><ele>243.66666666666666</ele><time>2026-03-29T13:25:57.743Z</time></trkpt><trkpt lat="43.1457025" lon="12.2748281"><ele>243.5</ele><time>2026-03-29T13:25:58.743Z</time></trkpt><trkpt lat="43.1457862" lon="12.2748544"><ele>243.33333333333331</ele><time>2026-03-29T13:25:59.743Z</time></trkpt><trkpt lat="43.145865" lon="12.2748639"><ele>243.16666666666666</ele><time>2026-03-29T13:26:00.743Z</time></trkpt><trkpt lat="43.1459406" lon="12.2748849"><ele>243.0</ele><time>2026-03-29T13:26:01.743Z</time></trkpt><trkpt lat="43.1460256" lon="12.274903"><ele>243.0</ele><time>2026-03-29T13:26:02.743Z</time></trkpt><trkpt lat="43.1461143" lon="12.2749171"><ele>243.0</ele><time>2026-03-29T13:26:03.743Z</time></trkpt><trkpt lat="43.146205" lon="12.2749418"><ele>243.0</ele><time>2026-03-29T13:26:04.743Z</time></trkpt><trkpt lat="43.1462903" lon="12.2749537"><ele>243.0</ele><time>2026-03-29T13:26:05.743Z</time></trkpt><trkpt lat="43.1463641" lon="12.2749602"><ele>243.0</ele><time>2026-03-29T13:26:06.743Z</time></trkpt><trkpt lat="43.1464473" lon="12.2749533"><ele>243.0</ele><time>2026-03-29T13:26:07.743Z</time></trkpt><trkpt lat="43.1465304" lon="12.2749727"><ele>243.5</ele><time>2026-03-29T13:26:08.743Z</time></trkpt><trkpt lat="43.1466252" lon="12.2749693"><ele>244.0</ele><time>2026-03-29T13:26:09.743Z</time></trkpt><trkpt lat="43.1467189" lon="12.2749603"><ele>244.5</ele><time>2026-03-29T13:26:10.743Z</time></trkpt><trkpt lat="43.1468116" lon="12.2749481"><ele>245.0</ele><time>2026-03-29T13:26:11.743Z</time></trkpt><trkpt lat="43.1468951" lon="12.2749306"><ele>245.5</ele><time>2026-03-29T13:26:12.743Z</time></trkpt><trkpt lat="43.1469678" lon="12.2749365"><ele>246.0</ele><time>2026-03-29T13:26:13.743Z</time></trkpt><trkpt lat="43.147082" lon="12.2750144"><ele>246.0</ele><time>2026-03-29T13:26:15.743Z</time></trkpt><trkpt lat="43.1471282" lon="12.2750868"><ele>246.0</ele><time>2026-03-29T13:26:16.743Z</time></trkpt><trkpt lat="43.1471667" lon="12.275179"><ele>246.0</ele><time>2026-03-29T13:26:17.743Z</time></trkpt><trkpt lat="43.147204" lon="12.2752918"><ele>246.0</ele><time>2026-03-29T13:26:18.743Z</time></trkpt><trkpt lat="43.1472362" lon="12.2753872"><ele>246.0</ele><time>2026-03-29T13:26:19.743Z</time></trkpt><trkpt lat="43.147268" lon="12.2754859"><ele>246.0</ele><time>2026-03-29T13:26:20.743Z</time></trkpt><trkpt lat="43.1472986" lon="12.2755901"><ele>245.4</ele><time>2026-03-29T13:26:21.743Z</time></trkpt><trkpt lat="43.1473411" lon="12.2756981"><ele>244.8</ele><time>2026-03-29T13:26:22.743Z</time></trkpt><trkpt lat="43.1473815" lon="12.2758214"><ele>244.20000000000002</ele><time>2026-03-29T13:26:23.743Z</time></trkpt><trkpt lat="43.1474181" lon="12.2759469"><ele>243.60000000000002</ele><time>2026-03-29T13:26:24.743Z</time></trkpt><trkpt lat="43.1474577" lon="12.2760803"><ele>243.0</ele><time>2026-03-29T13:26:25.743Z</time></trkpt><trkpt lat="43.1474993" lon="12.2762152"><ele>243.0</ele><time>2026-03-29T13:26:26.743Z</time></trkpt><trkpt lat="43.1475403" lon="12.2763492"><ele>243.0</ele><time>2026-03-29T13:26:27.743Z</time></trkpt><trkpt lat="43.1475829" lon="12.2764761"><ele>243.0</ele><time>2026-03-29T13:26:28.743Z</time></trkpt><trkpt lat="43.1476162" lon="12.2766026"><ele>243.0</ele><time>2026-03-29T13:26:29.743Z</time></trkpt><trkpt lat="43.1476469" lon="12.2767025"><ele>243.0</ele><time>2026-03-29T13:26:30.743Z</time></trkpt><trkpt lat="43.1476883" lon="12.2767985"><ele>243.33333333333334</ele><time>2026-03-29T13:26:31.743Z</time></trkpt><trkpt lat="43.1477462" lon="12.2768683"><ele>243.66666666666669</ele><time>2026-03-29T13:26:32.743Z</time></trkpt><trkpt lat="43.1478121" lon="12.2769198"><ele>244.0</ele><time>2026-03-29T13:26:33.743Z</time></trkpt><trkpt lat="43.1478948" lon="12.2769635"><ele>244.33333333333334</ele><time>2026-03-29T13:26:34.742Z</time></trkpt><trkpt lat="43.1479737" lon="12.2769853"><ele>244.66666666666669</ele><time>2026-03-29T13:26:35.743Z</time></trkpt><trkpt lat="43.1480451" lon="12.2769948"><ele>245.0</ele><time>2026-03-29T13:26:36.743Z</time></trkpt><trkpt lat="43.148144" lon="12.2770147"><ele>245.2</ele><time>2026-03-29T13:26:38.743Z</time></trkpt><trkpt lat="43.1482366" lon="12.2770272"><ele>245.4</ele><time>2026-03-29T13:26:40.742Z</time></trkpt><trkpt lat="43.1483541" lon="12.2771369"><ele>245.60000000000002</ele><time>2026-03-29T13:26:42.743Z</time></trkpt><trkpt lat="43.1484172" lon="12.277213"><ele>245.8</ele><time>2026-03-29T13:26:43.743Z</time></trkpt><trkpt lat="43.148492" lon="12.2772724"><ele>246.0</ele><time>2026-03-29T13:26:44.743Z</time></trkpt><trkpt lat="43.1485606" lon="12.2773072"><ele>246.0</ele><time>2026-03-29T13:26:45.743Z</time></trkpt><trkpt lat="43.1486414" lon="12.2773004"><ele>246.00000000000003</ele><time>2026-03-29T13:26:46.743Z</time></trkpt><trkpt lat="43.1487276" lon="12.2772627"><ele>246.00000000000003</ele><time>2026-03-29T13:26:47.743Z</time></trkpt><trkpt lat="43.1488299" lon="12.2772087"><ele>246.0</ele><time>2026-03-29T13:26:48.743Z</time></trkpt><trkpt lat="43.1489356" lon="12.2771556"><ele>246.0</ele><time>2026-03-29T13:26:49.743Z</time></trkpt><trkpt lat="43.1490488" lon="12.2770964"><ele>246.5</ele><time>2026-03-29T13:26:50.743Z</time></trkpt><trkpt lat="43.1491749" lon="12.2770254"><ele>247.0</ele><time>2026-03-29T13:26:51.743Z</time></trkpt><trkpt lat="43.1492996" lon="12.2769613"><ele>247.5</ele><time>2026-03-29T13:26:52.743Z</time></trkpt><trkpt lat="43.1494274" lon="12.2768955"><ele>248.0</ele><time>2026-03-29T13:26:53.743Z</time></trkpt><trkpt lat="43.1495589" lon="12.2768429"><ele>248.0</ele><time>2026-03-29T13:26:54.743Z</time></trkpt><trkpt lat="43.1496967" lon="12.2767773"><ele>248.0</ele><time>2026-03-29T13:26:55.743Z</time></trkpt><trkpt lat="43.1498318" lon="12.2767217"><ele>248.0</ele><time>2026-03-29T13:26:56.743Z</time></trkpt><trkpt lat="43.149967" lon="12.2766394"><ele>248.0</ele><time>2026-03-29T13:26:57.743Z</time></trkpt><trkpt lat="43.1501054" lon="12.2765574"><ele>248.0</ele><time>2026-03-29T13:26:58.743Z</time></trkpt><trkpt lat="43.1502311" lon="12.2764848"><ele>248.0</ele><time>2026-03-29T13:26:59.743Z</time></trkpt><trkpt lat="43.1503539" lon="12.2764131"><ele>248.0</ele><time>2026-03-29T13:27:00.743Z</time></trkpt><trkpt lat="43.150464" lon="12.2763581"><ele>248.0</ele><time>2026-03-29T13:27:01.743Z</time></trkpt><trkpt lat="43.1505643" lon="12.2763311"><ele>247.8</ele><time>2026-03-29T13:27:02.743Z</time></trkpt><trkpt lat="43.1506527" lon="12.2763403"><ele>247.60000000000002</ele><time>2026-03-29T13:27:03.743Z</time></trkpt><trkpt lat="43.150736" lon="12.2763711"><ele>247.39999999999998</ele><time>2026-03-29T13:27:04.743Z</time></trkpt><trkpt lat="43.1508264" lon="12.2764037"><ele>247.2</ele><time>2026-03-29T13:27:05.743Z</time></trkpt><trkpt lat="43.1509182" lon="12.2764517"><ele>247.0</ele><time>2026-03-29T13:27:06.743Z</time></trkpt><trkpt lat="43.1510058" lon="12.2764864"><ele>247.66666666666666</ele><time>2026-03-29T13:27:07.743Z</time></trkpt><trkpt lat="43.151081" lon="12.276497"><ele>248.33333333333331</ele><time>2026-03-29T13:27:08.743Z</time></trkpt><trkpt lat="43.1511559" lon="12.2764617"><ele>249.0</ele><time>2026-03-29T13:27:09.743Z</time></trkpt><trkpt lat="43.1512327" lon="12.2764025"><ele>249.66666666666669</ele><time>2026-03-29T13:27:10.743Z</time></trkpt><trkpt lat="43.1513224" lon="12.2763525"><ele>250.33333333333334</ele><time>2026-03-29T13:27:11.742Z</time></trkpt><trkpt lat="43.1514152" lon="12.2763073"><ele>251.0</ele><time>2026-03-29T13:27:12.743Z</time></trkpt><trkpt lat="43.1515404" lon="12.2762922"><ele>254.5</ele><time>2026-03-29T13:27:13.743Z</time></trkpt><trkpt lat="43.1516576" lon="12.2762238"><ele>258.0</ele><time>2026-03-29T13:27:14.743Z</time></trkpt><trkpt lat="43.1517913" lon="12.2761607"><ele>261.5</ele><time>2026-03-29T13:27:15.743Z</time></trkpt><trkpt lat="43.1519216" lon="12.2761025"><ele>265.0</ele><time>2026-03-29T13:27:16.743Z</time></trkpt><trkpt lat="43.1520488" lon="12.2760209"><ele>265.0</ele><time>2026-03-29T13:27:17.742Z</time></trkpt><trkpt lat="43.1521629" lon="12.2759224"><ele>265.0</ele><time>2026-03-29T13:27:18.743Z</time></trkpt><trkpt lat="43.1522443" lon="12.2757935"><ele>265.0</ele><time>2026-03-29T13:27:19.743Z</time></trkpt><trkpt lat="43.152297" lon="12.2756361"><ele>265.0</ele><time>2026-03-29T13:27:20.743Z</time></trkpt><trkpt lat="43.1523489" lon="12.2754802"><ele>268.6</ele><time>2026-03-29T13:27:21.743Z</time></trkpt><trkpt lat="43.152405" lon="12.2753443"><ele>272.2</ele><time>2026-03-29T13:27:22.743Z</time></trkpt><trkpt lat="43.1524504" lon="12.2752604"><ele>275.8</ele><time>2026-03-29T13:27:23.743Z</time></trkpt><trkpt lat="43.1525258" lon="12.2751913"><ele>279.4</ele><time>2026-03-29T13:27:24.742Z</time></trkpt><trkpt lat="43.1526137" lon="12.2751451"><ele>283.0</ele><time>2026-03-29T13:27:25.743Z</time></trkpt><trkpt lat="43.1526988" lon="12.2751358"><ele>283.0</ele><time>2026-03-29T13:27:26.743Z</time></trkpt><trkpt lat="43.1527739" lon="12.2751541"><ele>283.0</ele><time>2026-03-29T13:27:27.743Z</time></trkpt><trkpt lat="43.1528429" lon="12.2751686"><ele>283.0</ele><time>2026-03-29T13:27:28.742Z</time></trkpt><trkpt lat="43.1529259" lon="12.2751322"><ele>283.0</ele><time>2026-03-29T13:27:29.743Z</time></trkpt><trkpt lat="43.1530213" lon="12.2751225"><ele>283.0</ele><time>2026-03-29T13:27:30.742Z</time></trkpt><trkpt lat="43.1531029" lon="12.2751049"><ele>283.0</ele><time>2026-03-29T13:27:31.743Z</time></trkpt><trkpt lat="43.1531948" lon="12.2750739"><ele>286.16666666666663</ele><time>2026-03-29T13:27:32.743Z</time></trkpt><trkpt lat="43.1532745" lon="12.2750818"><ele>289.3333333333333</ele><time>2026-03-29T13:27:33.743Z</time></trkpt><trkpt lat="43.1533308" lon="12.2750367"><ele>292.5</ele><time>2026-03-29T13:27:34.743Z</time></trkpt><trkpt lat="43.1534085" lon="12.2749748"><ele>295.6666666666667</ele><time>2026-03-29T13:27:35.743Z</time></trkpt><trkpt lat="43.1534824" lon="12.274933"><ele>298.83333333333337</ele><time>2026-03-29T13:27:36.743Z</time></trkpt><trkpt lat="43.1535593" lon="12.2749055"><ele>302.0</ele><time>2026-03-29T13:27:37.743Z</time></trkpt><trkpt lat="43.1536359" lon="12.274846"><ele>302.0</ele><time>2026-03-29T13:27:38.743Z</time></trkpt><trkpt lat="43.1537078" lon="12.2748012"><ele>302.0</ele><time>2026-03-29T13:27:39.743Z</time></trkpt><trkpt lat="43.1538364" lon="12.2748111"><ele>302.0</ele><time>2026-03-29T13:27:41.743Z</time></trkpt><trkpt lat="43.15392" lon="12.2748301"><ele>302.0</ele><time>2026-03-29T13:27:42.743Z</time></trkpt><trkpt lat="43.1539953" lon="12.2748363"><ele>302.0</ele><time>2026-03-29T13:27:43.743Z</time></trkpt><trkpt lat="43.1540831" lon="12.2748724"><ele>304.6</ele><time>2026-03-29T13:27:45.743Z</time></trkpt><trkpt lat="43.1541719" lon="12.2749488"><ele>307.2</ele><time>2026-03-29T13:27:47.743Z</time></trkpt><trkpt lat="43.154238" lon="12.2749928"><ele>309.8</ele><time>2026-03-29T13:27:48.743Z</time></trkpt><trkpt lat="43.1543275" lon="12.2750377"><ele>312.4</ele><time>2026-03-29T13:27:49.743Z</time></trkpt><trkpt lat="43.1544247" lon="12.2750797"><ele>315.0</ele><time>2026-03-29T13:27:50.743Z</time></trkpt><trkpt lat="43.1545231" lon="12.2751331"><ele>315.0</ele><time>2026-03-29T13:27:51.743Z</time></trkpt><trkpt lat="43.1546282" lon="12.2751786"><ele>315.0</ele><time>2026-03-29T13:27:52.743Z</time></trkpt><trkpt lat="43.1547415" lon="12.2752153"><ele>315.0</ele><time>2026-03-29T13:27:53.743Z</time></trkpt><trkpt lat="43.1548648" lon="12.275247"><ele>315.0</ele><time>2026-03-29T13:27:54.743Z</time></trkpt><trkpt lat="43.1549942" lon="12.2752841"><ele>317.0</ele><time>2026-03-29T13:27:55.743Z</time></trkpt><trkpt lat="43.1551354" lon="12.2753238"><ele>319.0</ele><time>2026-03-29T13:27:56.743Z</time></trkpt><trkpt lat="43.1552785" lon="12.2753628"><ele>321.0</ele><time>2026-03-29T13:27:57.743Z</time></trkpt><trkpt lat="43.1554251" lon="12.2754063"><ele>323.0</ele><time>2026-03-29T13:27:58.743Z</time></trkpt><trkpt lat="43.1555752" lon="12.2754528"><ele>323.5</ele><time>2026-03-29T13:27:59.743Z</time></trkpt><trkpt lat="43.1557212" lon="12.2754938"><ele>324.0</ele><time>2026-03-29T13:28:00.743Z</time></trkpt><trkpt lat="43.1558605" lon="12.2755396"><ele>324.5</ele><time>2026-03-29T13:28:01.743Z</time></trkpt><trkpt lat="43.1559965" lon="12.2755925"><ele>325.0</ele><time>2026-03-29T13:28:02.742Z</time></trkpt><trkpt lat="43.1561305" lon="12.2756586"><ele>325.0</ele><time>2026-03-29T13:28:03.743Z</time></trkpt><trkpt lat="43.156255" lon="12.2757353"><ele>325.0</ele><time>2026-03-29T13:28:04.743Z</time></trkpt><trkpt lat="43.1563803" lon="12.2758147"><ele>325.0</ele><time>2026-03-29T13:28:05.743Z</time></trkpt><trkpt lat="43.1564947" lon="12.2758882"><ele>325.0</ele><time>2026-03-29T13:28:06.743Z</time></trkpt><trkpt lat="43.1565961" lon="12.2759499"><ele>325.0</ele><time>2026-03-29T13:28:07.743Z</time></trkpt><trkpt lat="43.1566881" lon="12.2759915"><ele>325.0</ele><time>2026-03-29T13:28:08.743Z</time></trkpt><trkpt lat="43.1567689" lon="12.2760119"><ele>325.0</ele><time>2026-03-29T13:28:09.743Z</time></trkpt><trkpt lat="43.156851" lon="12.2760067"><ele>325.0</ele><time>2026-03-29T13:28:10.743Z</time></trkpt><trkpt lat="43.156917" lon="12.2760138"><ele>325.0</ele><time>2026-03-29T13:28:11.743Z</time></trkpt><trkpt lat="43.1570092" lon="12.2760943"><ele>325.0</ele><time>2026-03-29T13:28:13.743Z</time></trkpt><trkpt lat="43.157048" lon="12.2761746"><ele>325.0</ele><time>2026-03-29T13:28:14.743Z</time></trkpt><trkpt lat="43.1570821" lon="12.2762606"><ele>325.0</ele><time>2026-03-29T13:28:15.743Z</time></trkpt><trkpt lat="43.1571091" lon="12.2763487"><ele>325.0</ele><time>2026-03-29T13:28:16.743Z</time></trkpt><trkpt lat="43.1571547" lon="12.2764704"><ele>325.0</ele><time>2026-03-29T13:28:18.743Z</time></trkpt><trkpt lat="43.1572169" lon="12.2764316"><ele>325.0</ele><time>2026-03-29T13:28:22.743Z</time></trkpt><trkpt lat="43.1572388" lon="12.2763101"><ele>325.0</ele><time>2026-03-29T13:28:24.743Z</time></trkpt><trkpt lat="43.1572468" lon="12.2761648"><ele>325.0</ele><time>2026-03-29T13:28:26.743Z</time></trkpt><trkpt lat="43.1572387" lon="12.2760778"><ele>325.0</ele><time>2026-03-29T13:28:27.743Z</time></trkpt><trkpt lat="43.1572286" lon="12.2759036"><ele>325.0</ele><time>2026-03-29T13:28:29.743Z</time></trkpt><trkpt lat="43.1572233" lon="12.2757323"><ele>325.0</ele><time>2026-03-29T13:28:31.743Z</time></trkpt><trkpt lat="43.1572186" lon="12.2756421"><ele>325.0</ele><time>2026-03-29T13:28:32.743Z</time></trkpt><trkpt lat="43.157215" lon="12.2755532"><ele>325.0</ele><time>2026-03-29T13:28:33.743Z</time></trkpt><trkpt lat="43.1572119" lon="12.2754603"><ele>324.8</ele><time>2026-03-29T13:28:34.743Z</time></trkpt><trkpt lat="43.1572102" lon="12.2753603"><ele>324.6</ele><time>2026-03-29T13:28:35.743Z</time></trkpt><trkpt lat="43.1572085" lon="12.2752374"><ele>324.4</ele><time>2026-03-29T13:28:36.743Z</time></trkpt><trkpt lat="43.1572123" lon="12.2750885"><ele>324.2</ele><time>2026-03-29T13:28:37.743Z</time></trkpt><trkpt lat="43.1572304" lon="12.274918"><ele>324.0</ele><time>2026-03-29T13:28:38.743Z</time></trkpt><trkpt lat="43.1572413" lon="12.2747411"><ele>320.75</ele><time>2026-03-29T13:28:39.743Z</time></trkpt><trkpt lat="43.1572561" lon="12.274562"><ele>317.5</ele><time>2026-03-29T13:28:40.743Z</time></trkpt><trkpt lat="43.1572697" lon="12.2743831"><ele>314.25</ele><time>2026-03-29T13:28:41.743Z</time></trkpt><trkpt lat="43.1572921" lon="12.2742164"><ele>311.0</ele><time>2026-03-29T13:28:42.743Z</time></trkpt><trkpt lat="43.1573175" lon="12.2740869"><ele>311.0</ele><time>2026-03-29T13:28:43.743Z</time></trkpt><trkpt lat="43.1573516" lon="12.2739839"><ele>311.0</ele><time>2026-03-29T13:28:44.743Z</time></trkpt><trkpt lat="43.1574303" lon="12.2739539"><ele>311.0</ele><time>2026-03-29T13:28:46.743Z</time></trkpt><trkpt lat="43.1575468" lon="12.2740685"><ele>311.0</ele><time>2026-03-29T13:28:48.743Z</time></trkpt><trkpt lat="43.1576358" lon="12.2741714"><ele>311.0</ele><time>2026-03-29T13:28:49.743Z</time></trkpt><trkpt lat="43.1577427" lon="12.2742898"><ele>310.5</ele><time>2026-03-29T13:28:50.743Z</time></trkpt><trkpt lat="43.1578467" lon="12.2744133"><ele>310.0</ele><time>2026-03-29T13:28:51.742Z</time></trkpt><trkpt lat="43.1579494" lon="12.2745428"><ele>309.5</ele><time>2026-03-29T13:28:52.742Z</time></trkpt><trkpt lat="43.1580465" lon="12.2746683"><ele>309.0</ele><time>2026-03-29T13:28:53.743Z</time></trkpt><trkpt lat="43.1581231" lon="12.2747888"><ele>308.5</ele><time>2026-03-29T13:28:54.743Z</time></trkpt><trkpt lat="43.1581793" lon="12.2749208"><ele>308.0</ele><time>2026-03-29T13:28:55.743Z</time></trkpt><trkpt lat="43.1582479" lon="12.275068"><ele>307.5</ele><time>2026-03-29T13:28:56.743Z</time></trkpt><trkpt lat="43.1583216" lon="12.2752263"><ele>307.0</ele><time>2026-03-29T13:28:57.743Z</time></trkpt><trkpt lat="43.158407" lon="12.2753885"><ele>304.0</ele><time>2026-03-29T13:28:58.743Z</time></trkpt><trkpt lat="43.1584944" lon="12.2755527"><ele>301.0</ele><time>2026-03-29T13:28:59.743Z</time></trkpt><trkpt lat="43.1585731" lon="12.2756992"><ele>298.0</ele><time>2026-03-29T13:29:00.743Z</time></trkpt><trkpt lat="43.158645" lon="12.2758441"><ele>295.0</ele><time>2026-03-29T13:29:01.743Z</time></trkpt><trkpt lat="43.1587279" lon="12.2759861"><ele>293.0</ele><time>2026-03-29T13:29:02.743Z</time></trkpt><trkpt lat="43.1588191" lon="12.2761082"><ele>291.0</ele><time>2026-03-29T13:29:03.742Z</time></trkpt><trkpt lat="43.1589194" lon="12.2762101"><ele>289.0</ele><time>2026-03-29T13:29:04.743Z</time></trkpt><trkpt lat="43.1589895" lon="12.2763297"><ele>287.0</ele><time>2026-03-29T13:29:05.743Z</time></trkpt><trkpt lat="43.159054" lon="12.2764501"><ele>286.1666666666667</ele><time>2026-03-29T13:29:06.743Z</time></trkpt><trkpt lat="43.1590878" lon="12.2765692"><ele>285.33333333333337</ele><time>2026-03-29T13:29:07.743Z</time></trkpt><trkpt lat="43.1591539" lon="12.276669"><ele>284.5</ele><time>2026-03-29T13:29:08.743Z</time></trkpt><trkpt lat="43.1592106" lon="12.276755"><ele>283.6666666666667</ele><time>2026-03-29T13:29:09.743Z</time></trkpt><trkpt lat="43.1592717" lon="12.2768325"><ele>282.8333333333333</ele><time>2026-03-29T13:29:10.743Z</time></trkpt><trkpt lat="43.1593323" lon="12.2769084"><ele>282.0</ele><time>2026-03-29T13:29:11.743Z</time></trkpt><trkpt lat="43.1593936" lon="12.2769657"><ele>282.0</ele><time>2026-03-29T13:29:12.742Z</time></trkpt><trkpt lat="43.1594492" lon="12.2770099"><ele>282.0</ele><time>2026-03-29T13:29:13.743Z</time></trkpt><trkpt lat="43.159564" lon="12.2770066"><ele>282.0</ele><time>2026-03-29T13:29:14.743Z</time></trkpt><trkpt lat="43.1596471" lon="12.2770409"><ele>282.0</ele><time>2026-03-29T13:29:15.742Z</time></trkpt><trkpt lat="43.1597227" lon="12.2770543"><ele>282.0</ele><time>2026-03-29T13:29:16.743Z</time></trkpt><trkpt lat="43.1598003" lon="12.2770586"><ele>282.0</ele><time>2026-03-29T13:29:17.743Z</time></trkpt><trkpt lat="43.1598764" lon="12.2770484"><ele>279.75</ele><time>2026-03-29T13:29:18.743Z</time></trkpt><trkpt lat="43.1599683" lon="12.2770174"><ele>277.5</ele><time>2026-03-29T13:29:19.743Z</time></trkpt><trkpt lat="43.1600905" lon="12.2769622"><ele>275.25</ele><time>2026-03-29T13:29:20.742Z</time></trkpt><trkpt lat="43.1602331" lon="12.2768868"><ele>273.0</ele><time>2026-03-29T13:29:21.743Z</time></trkpt><trkpt lat="43.1603756" lon="12.2768029"><ele>273.0</ele><time>2026-03-29T13:29:22.743Z</time></trkpt><trkpt lat="43.1605544" lon="12.2767029"><ele>273.0</ele><time>2026-03-29T13:29:23.743Z</time></trkpt><trkpt lat="43.1607012" lon="12.2766193"><ele>273.0</ele><time>2026-03-29T13:29:24.743Z</time></trkpt><trkpt lat="43.1608396" lon="12.2765389"><ele>273.0</ele><time>2026-03-29T13:29:25.743Z</time></trkpt><trkpt lat="43.1609546" lon="12.276458"><ele>273.0</ele><time>2026-03-29T13:29:26.743Z</time></trkpt><trkpt lat="43.161064" lon="12.2763844"><ele>273.0</ele><time>2026-03-29T13:29:27.743Z</time></trkpt><trkpt lat="43.1611359" lon="12.27627"><ele>273.0</ele><time>2026-03-29T13:29:28.743Z</time></trkpt><trkpt lat="43.1612108" lon="12.2761893"><ele>273.0</ele><time>2026-03-29T13:29:29.743Z</time></trkpt><trkpt lat="43.1612755" lon="12.2761316"><ele>273.0</ele><time>2026-03-29T13:29:30.743Z</time></trkpt><trkpt lat="43.1613485" lon="12.2761312"><ele>273.0</ele><time>2026-03-29T13:29:31.743Z</time></trkpt><trkpt lat="43.1614314" lon="12.2761269"><ele>273.0</ele><time>2026-03-29T13:29:32.743Z</time></trkpt><trkpt lat="43.1615064" lon="12.2761387"><ele>273.0</ele><time>2026-03-29T13:29:33.742Z</time></trkpt><trkpt lat="43.1616356" lon="12.2761702"><ele>273.0</ele><time>2026-03-29T13:29:34.743Z</time></trkpt><trkpt lat="43.1617704" lon="12.2761987"><ele>269.75</ele><time>2026-03-29T13:29:35.743Z</time></trkpt><trkpt lat="43.1619086" lon="12.2762258"><ele>266.5</ele><time>2026-03-29T13:29:36.743Z</time></trkpt><trkpt lat="43.1620469" lon="12.2762441"><ele>263.25</ele><time>2026-03-29T13:29:37.743Z</time></trkpt><trkpt lat="43.1621824" lon="12.2762468"><ele>260.0</ele><time>2026-03-29T13:29:38.743Z</time></trkpt><trkpt lat="43.1623237" lon="12.2762138"><ele>260.0</ele><time>2026-03-29T13:29:39.743Z</time></trkpt><trkpt lat="43.1624638" lon="12.2761484"><ele>260.0</ele><time>2026-03-29T13:29:40.743Z</time></trkpt><trkpt lat="43.1625988" lon="12.2760826"><ele>260.0</ele><time>2026-03-29T13:29:41.743Z</time></trkpt><trkpt lat="43.1627435" lon="12.2760226"><ele>260.0</ele><time>2026-03-29T13:29:42.742Z</time></trkpt><trkpt lat="43.1628848" lon="12.275998"><ele>260.0</ele><time>2026-03-29T13:29:43.743Z</time></trkpt><trkpt lat="43.1630205" lon="12.2760226"><ele>260.0</ele><time>2026-03-29T13:29:44.743Z</time></trkpt><trkpt lat="43.1631667" lon="12.2760831"><ele>260.0</ele><time>2026-03-29T13:29:45.743Z</time></trkpt><trkpt lat="43.163314" lon="12.2761667"><ele>260.0</ele><time>2026-03-29T13:29:46.743Z</time></trkpt><trkpt lat="43.1634522" lon="12.2762603"><ele>259.75</ele><time>2026-03-29T13:29:47.743Z</time></trkpt><trkpt lat="43.1635789" lon="12.276356"><ele>259.5</ele><time>2026-03-29T13:29:48.743Z</time></trkpt><trkpt lat="43.1636892" lon="12.2764458"><ele>259.25</ele><time>2026-03-29T13:29:49.743Z</time></trkpt><trkpt lat="43.163776" lon="12.2765262"><ele>259.0</ele><time>2026-03-29T13:29:50.743Z</time></trkpt><trkpt lat="43.16385" lon="12.2765792"><ele>258.59999999999997</ele><time>2026-03-29T13:29:51.743Z</time></trkpt><trkpt lat="43.1639086" lon="12.276613"><ele>258.2</ele><time>2026-03-29T13:29:52.743Z</time></trkpt><trkpt lat="43.1639648" lon="12.2767597"><ele>257.79999999999995</ele><time>2026-03-29T13:29:54.743Z</time></trkpt><trkpt lat="43.1639683" lon="12.2768675"><ele>257.4</ele><time>2026-03-29T13:29:55.743Z</time></trkpt><trkpt lat="43.1639641" lon="12.2769881"><ele>257.0</ele><time>2026-03-29T13:29:56.743Z</time></trkpt><trkpt lat="43.1639612" lon="12.2771275"><ele>257.0</ele><time>2026-03-29T13:29:57.743Z</time></trkpt><trkpt lat="43.1639586" lon="12.277281"><ele>257.0</ele><time>2026-03-29T13:29:58.743Z</time></trkpt><trkpt lat="43.163953" lon="12.27746"><ele>257.0</ele><time>2026-03-29T13:29:59.743Z</time></trkpt><trkpt lat="43.1639452" lon="12.2776376"><ele>257.0</ele><time>2026-03-29T13:30:00.743Z</time></trkpt><trkpt lat="43.1639403" lon="12.2778055"><ele>257.0</ele><time>2026-03-29T13:30:01.743Z</time></trkpt><trkpt lat="43.1639468" lon="12.2779793"><ele>257.0</ele><time>2026-03-29T13:30:02.743Z</time></trkpt><trkpt lat="43.1639659" lon="12.278157"><ele>257.0</ele><time>2026-03-29T13:30:03.743Z</time></trkpt><trkpt lat="43.1639949" lon="12.2783355"><ele>257.0</ele><time>2026-03-29T13:30:04.742Z</time></trkpt><trkpt lat="43.1640296" lon="12.2785245"><ele>256.6</ele><time>2026-03-29T13:30:05.743Z</time></trkpt><trkpt lat="43.1640729" lon="12.2786967"><ele>256.2</ele><time>2026-03-29T13:30:06.743Z</time></trkpt><trkpt lat="43.1640843" lon="12.2788501"><ele>255.8</ele><time>2026-03-29T13:30:07.743Z</time></trkpt><trkpt lat="43.1640937" lon="12.2789828"><ele>255.4</ele><time>2026-03-29T13:30:08.743Z</time></trkpt><trkpt lat="43.1641162" lon="12.2790739"><ele>255.0</ele><time>2026-03-29T13:30:09.742Z</time></trkpt><trkpt lat="43.1641239" lon="12.2791697"><ele>254.83333333333334</ele><time>2026-03-29T13:30:10.743Z</time></trkpt><trkpt lat="43.1640563" lon="12.2791889"><ele>254.66666666666669</ele><time>2026-03-29T13:30:12.743Z</time></trkpt><trkpt lat="43.1639415" lon="12.2792251"><ele>254.5</ele><time>2026-03-29T13:30:14.743Z</time></trkpt><trkpt lat="43.1638663" lon="12.2792352"><ele>254.33333333333334</ele><time>2026-03-29T13:30:15.743Z</time></trkpt><trkpt lat="43.1637934" lon="12.2792643"><ele>254.16666666666669</ele><time>2026-03-29T13:30:16.743Z</time></trkpt><trkpt lat="43.1637171" lon="12.2792874"><ele>254.0</ele><time>2026-03-29T13:30:17.743Z</time></trkpt><trkpt lat="43.1636371" lon="12.279339"><ele>253.5</ele><time>2026-03-29T13:30:18.743Z</time></trkpt><trkpt lat="43.1635535" lon="12.2794237"><ele>253.0</ele><time>2026-03-29T13:30:19.743Z</time></trkpt><trkpt lat="43.1634654" lon="12.2795214"><ele>252.5</ele><time>2026-03-29T13:30:20.743Z</time></trkpt><trkpt lat="43.1633748" lon="12.2796397"><ele>252.0</ele><time>2026-03-29T13:30:21.742Z</time></trkpt><trkpt lat="43.1632916" lon="12.2797791"><ele>252.0</ele><time>2026-03-29T13:30:22.743Z</time></trkpt><trkpt lat="43.16321" lon="12.2799315"><ele>252.0</ele><time>2026-03-29T13:30:23.743Z</time></trkpt><trkpt lat="43.1631289" lon="12.2800821"><ele>252.0</ele><time>2026-03-29T13:30:24.742Z</time></trkpt><trkpt lat="43.1630427" lon="12.280249"><ele>252.0</ele><time>2026-03-29T13:30:25.743Z</time></trkpt><trkpt lat="43.1629494" lon="12.2804242"><ele>251.33333333333331</ele><time>2026-03-29T13:30:26.743Z</time></trkpt><trkpt lat="43.1628515" lon="12.2806066"><ele>250.66666666666666</ele><time>2026-03-29T13:30:27.743Z</time></trkpt><trkpt lat="43.1627637" lon="12.280782"><ele>250.0</ele><time>2026-03-29T13:30:28.743Z</time></trkpt><trkpt lat="43.1626785" lon="12.2809335"><ele>249.99999999999997</ele><time>2026-03-29T13:30:29.743Z</time></trkpt><trkpt lat="43.1626037" lon="12.2810683"><ele>250.0</ele><time>2026-03-29T13:30:30.743Z</time></trkpt><trkpt lat="43.1625445" lon="12.2811829"><ele>250.0</ele><time>2026-03-29T13:30:31.743Z</time></trkpt><trkpt lat="43.1624966" lon="12.2812757"><ele>250.0</ele><time>2026-03-29T13:30:32.743Z</time></trkpt><trkpt lat="43.1624579" lon="12.2813529"><ele>249.99999999999997</ele><time>2026-03-29T13:30:33.743Z</time></trkpt><trkpt lat="43.1623863" lon="12.2813545"><ele>250.0</ele><time>2026-03-29T13:30:35.743Z</time></trkpt><trkpt lat="43.1622996" lon="12.2812572"><ele>251.0</ele><time>2026-03-29T13:30:37.743Z</time></trkpt><trkpt lat="43.1622395" lon="12.2811819"><ele>251.0</ele><time>2026-03-29T13:35:46.743Z</time></trkpt></trkseg></trk></gpx>